<?xml version="1.0" encoding="UTF-8" standalone="no" ?>
<gpx xmlns="http://www.topografix.com/GPX/1/1" xmlns:xsi="http://www.w3.org/2001/XMLSchema-instance" xsi:schemaLocation="http://www.topografix.com/GPX/1/1 http://www.topografix.com/GPX/1/1/gpx.xsd" version="1.1" creator="VisuGPX - https://www.visugpx.com">
  <metadata>
    <name>RSPFY-Etangs de hollande</name>
    <desc><![CDATA[boucle au départ de la base de loisirs des Etangs de Hollande passant l'Etang Rompu et le carrefour du grand Baliveau.]]></desc>
  </metadata>
  <trk>
    <name><![CDATA[Trace 1774511418000]]></name>
    <trkseg>
      <trkpt lat="48.73159" lon="1.79802">
        <ele>219.1</ele>
        <time>2026-03-26T07:50:18.000Z</time>
      </trkpt>
      <trkpt lat="48.73159" lon="1.79801">
        <ele>218.6</ele>
        <time>2026-03-26T07:50:19.000Z</time>
      </trkpt>
      <trkpt lat="48.73159" lon="1.79801">
        <ele>218.3</ele>
        <time>2026-03-26T07:50:20.000Z</time>
      </trkpt>
      <trkpt lat="48.73159" lon="1.79801">
        <ele>218.2</ele>
        <time>2026-03-26T07:50:21.000Z</time>
      </trkpt>
      <trkpt lat="48.73159" lon="1.79801">
        <ele>218.1</ele>
        <time>2026-03-26T07:50:22.000Z</time>
      </trkpt>
      <trkpt lat="48.73159" lon="1.79801">
        <ele>218.1</ele>
        <time>2026-03-26T07:50:23.000Z</time>
      </trkpt>
      <trkpt lat="48.73159" lon="1.79801">
        <ele>218.1</ele>
        <time>2026-03-26T07:50:24.000Z</time>
      </trkpt>
      <trkpt lat="48.73159" lon="1.79801">
        <ele>218.3</ele>
        <time>2026-03-26T07:50:25.000Z</time>
      </trkpt>
      <trkpt lat="48.73159" lon="1.79801">
        <ele>218.2</ele>
        <time>2026-03-26T07:50:26.000Z</time>
      </trkpt>
      <trkpt lat="48.73159" lon="1.79801">
        <ele>218.1</ele>
        <time>2026-03-26T07:50:27.000Z</time>
      </trkpt>
      <trkpt lat="48.73159" lon="1.79801">
        <ele>218.2</ele>
        <time>2026-03-26T07:50:28.000Z</time>
      </trkpt>
      <trkpt lat="48.73159" lon="1.79801">
        <ele>218.3</ele>
        <time>2026-03-26T07:50:29.000Z</time>
      </trkpt>
      <trkpt lat="48.73159" lon="1.79801">
        <ele>218.4</ele>
        <time>2026-03-26T07:50:30.000Z</time>
      </trkpt>
      <trkpt lat="48.73159" lon="1.79801">
        <ele>218.4</ele>
        <time>2026-03-26T07:50:31.000Z</time>
      </trkpt>
      <trkpt lat="48.73159" lon="1.79801">
        <ele>218.5</ele>
        <time>2026-03-26T07:50:32.000Z</time>
      </trkpt>
      <trkpt lat="48.73159" lon="1.79802">
        <ele>218.8</ele>
        <time>2026-03-26T07:50:33.000Z</time>
      </trkpt>
      <trkpt lat="48.73159" lon="1.79802">
        <ele>218.7</ele>
        <time>2026-03-26T07:50:34.000Z</time>
      </trkpt>
      <trkpt lat="48.73159" lon="1.79802">
        <ele>218.5</ele>
        <time>2026-03-26T07:50:35.000Z</time>
      </trkpt>
      <trkpt lat="48.73159" lon="1.79801">
        <ele>218.7</ele>
        <time>2026-03-26T07:50:36.000Z</time>
      </trkpt>
      <trkpt lat="48.73159" lon="1.79801">
        <ele>218.8</ele>
        <time>2026-03-26T07:50:37.000Z</time>
      </trkpt>
      <trkpt lat="48.73159" lon="1.79801">
        <ele>218.9</ele>
        <time>2026-03-26T07:50:38.000Z</time>
      </trkpt>
      <trkpt lat="48.73159" lon="1.79801">
        <ele>219.1</ele>
        <time>2026-03-26T07:50:39.000Z</time>
      </trkpt>
      <trkpt lat="48.73159" lon="1.79801">
        <ele>219.4</ele>
        <time>2026-03-26T07:50:40.000Z</time>
      </trkpt>
      <trkpt lat="48.73159" lon="1.79801">
        <ele>219.6</ele>
        <time>2026-03-26T07:50:41.000Z</time>
      </trkpt>
      <trkpt lat="48.73158" lon="1.79801">
        <ele>219.7</ele>
        <time>2026-03-26T07:50:42.000Z</time>
      </trkpt>
      <trkpt lat="48.73158" lon="1.798">
        <ele>219.7</ele>
        <time>2026-03-26T07:50:43.000Z</time>
      </trkpt>
      <trkpt lat="48.73158" lon="1.798">
        <ele>219.7</ele>
        <time>2026-03-26T07:50:44.000Z</time>
      </trkpt>
      <trkpt lat="48.73158" lon="1.798">
        <ele>219.8</ele>
        <time>2026-03-26T07:50:45.000Z</time>
      </trkpt>
      <trkpt lat="48.73158" lon="1.798">
        <ele>219.8</ele>
        <time>2026-03-26T07:50:46.000Z</time>
      </trkpt>
      <trkpt lat="48.73158" lon="1.798">
        <ele>219.9</ele>
        <time>2026-03-26T07:50:47.000Z</time>
      </trkpt>
      <trkpt lat="48.73158" lon="1.798">
        <ele>219.9</ele>
        <time>2026-03-26T07:50:48.000Z</time>
      </trkpt>
      <trkpt lat="48.73158" lon="1.798">
        <ele>219.9</ele>
        <time>2026-03-26T07:50:49.000Z</time>
      </trkpt>
      <trkpt lat="48.73158" lon="1.798">
        <ele>219.9</ele>
        <time>2026-03-26T07:50:50.000Z</time>
      </trkpt>
      <trkpt lat="48.73158" lon="1.798">
        <ele>219.9</ele>
        <time>2026-03-26T07:50:51.000Z</time>
      </trkpt>
      <trkpt lat="48.73158" lon="1.798">
        <ele>219.9</ele>
        <time>2026-03-26T07:50:52.000Z</time>
      </trkpt>
      <trkpt lat="48.73158" lon="1.798">
        <ele>219.9</ele>
        <time>2026-03-26T07:50:53.000Z</time>
      </trkpt>
      <trkpt lat="48.73158" lon="1.798">
        <ele>219.9</ele>
        <time>2026-03-26T07:50:54.000Z</time>
      </trkpt>
      <trkpt lat="48.73158" lon="1.798">
        <ele>219.9</ele>
        <time>2026-03-26T07:50:55.000Z</time>
      </trkpt>
      <trkpt lat="48.73158" lon="1.798">
        <ele>219.9</ele>
        <time>2026-03-26T07:50:56.000Z</time>
      </trkpt>
      <trkpt lat="48.73158" lon="1.798">
        <ele>219.9</ele>
        <time>2026-03-26T07:50:57.000Z</time>
      </trkpt>
      <trkpt lat="48.73158" lon="1.798">
        <ele>219.9</ele>
        <time>2026-03-26T07:50:58.000Z</time>
      </trkpt>
      <trkpt lat="48.73158" lon="1.798">
        <ele>219.9</ele>
        <time>2026-03-26T07:50:59.000Z</time>
      </trkpt>
      <trkpt lat="48.73158" lon="1.798">
        <ele>219.9</ele>
        <time>2026-03-26T07:51:00.000Z</time>
      </trkpt>
      <trkpt lat="48.73158" lon="1.798">
        <ele>219.9</ele>
        <time>2026-03-26T07:51:01.000Z</time>
      </trkpt>
      <trkpt lat="48.73158" lon="1.798">
        <ele>219.9</ele>
        <time>2026-03-26T07:51:02.000Z</time>
      </trkpt>
      <trkpt lat="48.73158" lon="1.798">
        <ele>219.9</ele>
        <time>2026-03-26T07:51:03.000Z</time>
      </trkpt>
      <trkpt lat="48.73158" lon="1.798">
        <ele>219.9</ele>
        <time>2026-03-26T07:51:04.000Z</time>
      </trkpt>
      <trkpt lat="48.73158" lon="1.798">
        <ele>219.9</ele>
        <time>2026-03-26T07:51:05.000Z</time>
      </trkpt>
      <trkpt lat="48.73158" lon="1.798">
        <ele>220</ele>
        <time>2026-03-26T07:51:06.000Z</time>
      </trkpt>
      <trkpt lat="48.73158" lon="1.798">
        <ele>220</ele>
        <time>2026-03-26T07:51:07.000Z</time>
      </trkpt>
      <trkpt lat="48.73158" lon="1.798">
        <ele>220</ele>
        <time>2026-03-26T07:51:08.000Z</time>
      </trkpt>
      <trkpt lat="48.73158" lon="1.798">
        <ele>220</ele>
        <time>2026-03-26T07:51:09.000Z</time>
      </trkpt>
      <trkpt lat="48.73158" lon="1.798">
        <ele>220</ele>
        <time>2026-03-26T07:51:10.000Z</time>
      </trkpt>
      <trkpt lat="48.73158" lon="1.798">
        <ele>220</ele>
        <time>2026-03-26T07:51:11.000Z</time>
      </trkpt>
      <trkpt lat="48.73158" lon="1.798">
        <ele>220</ele>
        <time>2026-03-26T07:51:12.000Z</time>
      </trkpt>
      <trkpt lat="48.73158" lon="1.798">
        <ele>220.1</ele>
        <time>2026-03-26T07:51:13.000Z</time>
      </trkpt>
      <trkpt lat="48.73158" lon="1.798">
        <ele>220.1</ele>
        <time>2026-03-26T07:51:14.000Z</time>
      </trkpt>
      <trkpt lat="48.73158" lon="1.798">
        <ele>220.1</ele>
        <time>2026-03-26T07:51:15.000Z</time>
      </trkpt>
      <trkpt lat="48.73158" lon="1.798">
        <ele>220.2</ele>
        <time>2026-03-26T07:51:16.000Z</time>
      </trkpt>
      <trkpt lat="48.73158" lon="1.798">
        <ele>220.2</ele>
        <time>2026-03-26T07:51:17.000Z</time>
      </trkpt>
      <trkpt lat="48.73158" lon="1.798">
        <ele>220.2</ele>
        <time>2026-03-26T07:51:18.000Z</time>
      </trkpt>
      <trkpt lat="48.73158" lon="1.798">
        <ele>220.2</ele>
        <time>2026-03-26T07:51:19.000Z</time>
      </trkpt>
      <trkpt lat="48.73158" lon="1.798">
        <ele>220.2</ele>
        <time>2026-03-26T07:51:20.000Z</time>
      </trkpt>
      <trkpt lat="48.73158" lon="1.798">
        <ele>220.2</ele>
        <time>2026-03-26T07:51:21.000Z</time>
      </trkpt>
      <trkpt lat="48.73158" lon="1.798">
        <ele>220.2</ele>
        <time>2026-03-26T07:51:22.000Z</time>
      </trkpt>
      <trkpt lat="48.73158" lon="1.798">
        <ele>220.2</ele>
        <time>2026-03-26T07:51:23.000Z</time>
      </trkpt>
      <trkpt lat="48.73158" lon="1.798">
        <ele>220.2</ele>
        <time>2026-03-26T07:51:24.000Z</time>
      </trkpt>
      <trkpt lat="48.73158" lon="1.798">
        <ele>220.2</ele>
        <time>2026-03-26T07:51:25.000Z</time>
      </trkpt>
      <trkpt lat="48.73158" lon="1.798">
        <ele>220.2</ele>
        <time>2026-03-26T07:51:26.000Z</time>
      </trkpt>
      <trkpt lat="48.73158" lon="1.798">
        <ele>220.2</ele>
        <time>2026-03-26T07:51:27.000Z</time>
      </trkpt>
      <trkpt lat="48.73158" lon="1.798">
        <ele>220.2</ele>
        <time>2026-03-26T07:51:28.000Z</time>
      </trkpt>
      <trkpt lat="48.73158" lon="1.798">
        <ele>220.2</ele>
        <time>2026-03-26T07:51:29.000Z</time>
      </trkpt>
      <trkpt lat="48.73158" lon="1.798">
        <ele>220.2</ele>
        <time>2026-03-26T07:51:30.000Z</time>
      </trkpt>
      <trkpt lat="48.73158" lon="1.798">
        <ele>220.2</ele>
        <time>2026-03-26T07:51:31.000Z</time>
      </trkpt>
      <trkpt lat="48.73158" lon="1.798">
        <ele>220.2</ele>
        <time>2026-03-26T07:51:32.000Z</time>
      </trkpt>
      <trkpt lat="48.73158" lon="1.798">
        <ele>220.2</ele>
        <time>2026-03-26T07:51:33.000Z</time>
      </trkpt>
      <trkpt lat="48.73158" lon="1.798">
        <ele>220.2</ele>
        <time>2026-03-26T07:51:34.000Z</time>
      </trkpt>
      <trkpt lat="48.73158" lon="1.798">
        <ele>220.2</ele>
        <time>2026-03-26T07:51:35.000Z</time>
      </trkpt>
      <trkpt lat="48.73158" lon="1.798">
        <ele>220.2</ele>
        <time>2026-03-26T07:51:36.000Z</time>
      </trkpt>
      <trkpt lat="48.73158" lon="1.798">
        <ele>220.2</ele>
        <time>2026-03-26T07:51:37.000Z</time>
      </trkpt>
      <trkpt lat="48.73158" lon="1.798">
        <ele>220.3</ele>
        <time>2026-03-26T07:51:38.000Z</time>
      </trkpt>
      <trkpt lat="48.73158" lon="1.798">
        <ele>220.3</ele>
        <time>2026-03-26T07:51:39.000Z</time>
      </trkpt>
      <trkpt lat="48.73158" lon="1.798">
        <ele>220.3</ele>
        <time>2026-03-26T07:51:40.000Z</time>
      </trkpt>
      <trkpt lat="48.73158" lon="1.798">
        <ele>220.3</ele>
        <time>2026-03-26T07:51:41.000Z</time>
      </trkpt>
      <trkpt lat="48.73158" lon="1.798">
        <ele>220.3</ele>
        <time>2026-03-26T07:51:42.000Z</time>
      </trkpt>
      <trkpt lat="48.73158" lon="1.798">
        <ele>220.3</ele>
        <time>2026-03-26T07:51:43.000Z</time>
      </trkpt>
      <trkpt lat="48.73158" lon="1.798">
        <ele>220.3</ele>
        <time>2026-03-26T07:51:44.000Z</time>
      </trkpt>
      <trkpt lat="48.73158" lon="1.798">
        <ele>220.3</ele>
        <time>2026-03-26T07:51:45.000Z</time>
      </trkpt>
      <trkpt lat="48.73158" lon="1.798">
        <ele>220.3</ele>
        <time>2026-03-26T07:51:46.000Z</time>
      </trkpt>
      <trkpt lat="48.73158" lon="1.798">
        <ele>220.3</ele>
        <time>2026-03-26T07:51:47.000Z</time>
      </trkpt>
      <trkpt lat="48.73158" lon="1.798">
        <ele>220.3</ele>
        <time>2026-03-26T07:51:48.000Z</time>
      </trkpt>
      <trkpt lat="48.73158" lon="1.798">
        <ele>220.3</ele>
        <time>2026-03-26T07:51:49.000Z</time>
      </trkpt>
      <trkpt lat="48.73158" lon="1.798">
        <ele>220.3</ele>
        <time>2026-03-26T07:51:50.000Z</time>
      </trkpt>
      <trkpt lat="48.73158" lon="1.798">
        <ele>220.3</ele>
        <time>2026-03-26T07:51:51.000Z</time>
      </trkpt>
      <trkpt lat="48.73158" lon="1.798">
        <ele>220.3</ele>
        <time>2026-03-26T07:51:52.000Z</time>
      </trkpt>
      <trkpt lat="48.73158" lon="1.798">
        <ele>220.3</ele>
        <time>2026-03-26T07:51:53.000Z</time>
      </trkpt>
      <trkpt lat="48.73158" lon="1.798">
        <ele>220.3</ele>
        <time>2026-03-26T07:51:54.000Z</time>
      </trkpt>
      <trkpt lat="48.73158" lon="1.798">
        <ele>220.3</ele>
        <time>2026-03-26T07:51:55.000Z</time>
      </trkpt>
      <trkpt lat="48.73158" lon="1.798">
        <ele>220.3</ele>
        <time>2026-03-26T07:51:56.000Z</time>
      </trkpt>
      <trkpt lat="48.73158" lon="1.798">
        <ele>220.3</ele>
        <time>2026-03-26T07:51:57.000Z</time>
      </trkpt>
      <trkpt lat="48.73158" lon="1.798">
        <ele>220.3</ele>
        <time>2026-03-26T07:51:58.000Z</time>
      </trkpt>
      <trkpt lat="48.73158" lon="1.798">
        <ele>220.3</ele>
        <time>2026-03-26T07:51:59.000Z</time>
      </trkpt>
      <trkpt lat="48.73158" lon="1.798">
        <ele>220.4</ele>
        <time>2026-03-26T07:52:00.000Z</time>
      </trkpt>
      <trkpt lat="48.73158" lon="1.798">
        <ele>220.4</ele>
        <time>2026-03-26T07:52:01.000Z</time>
      </trkpt>
      <trkpt lat="48.73158" lon="1.798">
        <ele>220.4</ele>
        <time>2026-03-26T07:52:02.000Z</time>
      </trkpt>
      <trkpt lat="48.73158" lon="1.798">
        <ele>220.4</ele>
        <time>2026-03-26T07:52:03.000Z</time>
      </trkpt>
      <trkpt lat="48.73158" lon="1.798">
        <ele>220.4</ele>
        <time>2026-03-26T07:52:04.000Z</time>
      </trkpt>
      <trkpt lat="48.73158" lon="1.798">
        <ele>220.4</ele>
        <time>2026-03-26T07:52:05.000Z</time>
      </trkpt>
      <trkpt lat="48.73158" lon="1.798">
        <ele>220.4</ele>
        <time>2026-03-26T07:52:06.000Z</time>
      </trkpt>
      <trkpt lat="48.73158" lon="1.798">
        <ele>220.4</ele>
        <time>2026-03-26T07:52:07.000Z</time>
      </trkpt>
      <trkpt lat="48.73158" lon="1.798">
        <ele>220.4</ele>
        <time>2026-03-26T07:52:08.000Z</time>
      </trkpt>
      <trkpt lat="48.73158" lon="1.798">
        <ele>220.4</ele>
        <time>2026-03-26T07:52:09.000Z</time>
      </trkpt>
      <trkpt lat="48.73158" lon="1.798">
        <ele>220.4</ele>
        <time>2026-03-26T07:52:10.000Z</time>
      </trkpt>
      <trkpt lat="48.73158" lon="1.798">
        <ele>220.4</ele>
        <time>2026-03-26T07:52:11.000Z</time>
      </trkpt>
      <trkpt lat="48.73158" lon="1.798">
        <ele>220.4</ele>
        <time>2026-03-26T07:52:12.000Z</time>
      </trkpt>
      <trkpt lat="48.73158" lon="1.798">
        <ele>220.5</ele>
        <time>2026-03-26T07:52:13.000Z</time>
      </trkpt>
      <trkpt lat="48.73158" lon="1.798">
        <ele>220.5</ele>
        <time>2026-03-26T07:52:14.000Z</time>
      </trkpt>
      <trkpt lat="48.73158" lon="1.798">
        <ele>220.5</ele>
        <time>2026-03-26T07:52:15.000Z</time>
      </trkpt>
      <trkpt lat="48.73158" lon="1.798">
        <ele>220.5</ele>
        <time>2026-03-26T07:52:16.000Z</time>
      </trkpt>
      <trkpt lat="48.73158" lon="1.798">
        <ele>220.5</ele>
        <time>2026-03-26T07:52:17.000Z</time>
      </trkpt>
      <trkpt lat="48.73158" lon="1.798">
        <ele>220.5</ele>
        <time>2026-03-26T07:52:18.000Z</time>
      </trkpt>
      <trkpt lat="48.73158" lon="1.798">
        <ele>220.5</ele>
        <time>2026-03-26T07:52:19.000Z</time>
      </trkpt>
      <trkpt lat="48.73158" lon="1.798">
        <ele>220.5</ele>
        <time>2026-03-26T07:52:20.000Z</time>
      </trkpt>
      <trkpt lat="48.73158" lon="1.798">
        <ele>220.5</ele>
        <time>2026-03-26T07:52:21.000Z</time>
      </trkpt>
      <trkpt lat="48.73158" lon="1.798">
        <ele>220.5</ele>
        <time>2026-03-26T07:52:22.000Z</time>
      </trkpt>
      <trkpt lat="48.73158" lon="1.798">
        <ele>220.5</ele>
        <time>2026-03-26T07:52:23.000Z</time>
      </trkpt>
      <trkpt lat="48.73158" lon="1.798">
        <ele>220.5</ele>
        <time>2026-03-26T07:52:24.000Z</time>
      </trkpt>
      <trkpt lat="48.73158" lon="1.798">
        <ele>220.5</ele>
        <time>2026-03-26T07:52:25.000Z</time>
      </trkpt>
      <trkpt lat="48.73158" lon="1.798">
        <ele>220.5</ele>
        <time>2026-03-26T07:52:26.000Z</time>
      </trkpt>
      <trkpt lat="48.73158" lon="1.798">
        <ele>220.5</ele>
        <time>2026-03-26T07:52:27.000Z</time>
      </trkpt>
      <trkpt lat="48.73158" lon="1.798">
        <ele>220.5</ele>
        <time>2026-03-26T07:52:28.000Z</time>
      </trkpt>
      <trkpt lat="48.73158" lon="1.798">
        <ele>220.5</ele>
        <time>2026-03-26T07:52:29.000Z</time>
      </trkpt>
      <trkpt lat="48.73158" lon="1.798">
        <ele>220.5</ele>
        <time>2026-03-26T07:52:30.000Z</time>
      </trkpt>
      <trkpt lat="48.73158" lon="1.798">
        <ele>220.5</ele>
        <time>2026-03-26T07:52:31.000Z</time>
      </trkpt>
      <trkpt lat="48.73158" lon="1.798">
        <ele>220.5</ele>
        <time>2026-03-26T07:52:32.000Z</time>
      </trkpt>
      <trkpt lat="48.73158" lon="1.798">
        <ele>220.5</ele>
        <time>2026-03-26T07:52:33.000Z</time>
      </trkpt>
      <trkpt lat="48.73158" lon="1.798">
        <ele>220.5</ele>
        <time>2026-03-26T07:52:34.000Z</time>
      </trkpt>
      <trkpt lat="48.73158" lon="1.798">
        <ele>220.5</ele>
        <time>2026-03-26T07:52:35.000Z</time>
      </trkpt>
      <trkpt lat="48.73158" lon="1.798">
        <ele>220.6</ele>
        <time>2026-03-26T07:52:36.000Z</time>
      </trkpt>
      <trkpt lat="48.73158" lon="1.798">
        <ele>220.6</ele>
        <time>2026-03-26T07:52:37.000Z</time>
      </trkpt>
      <trkpt lat="48.73158" lon="1.798">
        <ele>220.6</ele>
        <time>2026-03-26T07:52:38.000Z</time>
      </trkpt>
      <trkpt lat="48.73158" lon="1.798">
        <ele>220.6</ele>
        <time>2026-03-26T07:52:39.000Z</time>
      </trkpt>
      <trkpt lat="48.73158" lon="1.798">
        <ele>220.6</ele>
        <time>2026-03-26T07:52:40.000Z</time>
      </trkpt>
      <trkpt lat="48.73158" lon="1.798">
        <ele>220.6</ele>
        <time>2026-03-26T07:52:41.000Z</time>
      </trkpt>
      <trkpt lat="48.73158" lon="1.798">
        <ele>220.6</ele>
        <time>2026-03-26T07:52:42.000Z</time>
      </trkpt>
      <trkpt lat="48.73158" lon="1.798">
        <ele>220.6</ele>
        <time>2026-03-26T07:52:43.000Z</time>
      </trkpt>
      <trkpt lat="48.73158" lon="1.798">
        <ele>220.5</ele>
        <time>2026-03-26T07:52:44.000Z</time>
      </trkpt>
      <trkpt lat="48.73158" lon="1.798">
        <ele>220.5</ele>
        <time>2026-03-26T07:52:45.000Z</time>
      </trkpt>
      <trkpt lat="48.73158" lon="1.798">
        <ele>220.5</ele>
        <time>2026-03-26T07:52:46.000Z</time>
      </trkpt>
      <trkpt lat="48.73158" lon="1.798">
        <ele>220.5</ele>
        <time>2026-03-26T07:52:47.000Z</time>
      </trkpt>
      <trkpt lat="48.73158" lon="1.798">
        <ele>220.5</ele>
        <time>2026-03-26T07:52:48.000Z</time>
      </trkpt>
      <trkpt lat="48.73158" lon="1.798">
        <ele>220.5</ele>
        <time>2026-03-26T07:52:49.000Z</time>
      </trkpt>
      <trkpt lat="48.73158" lon="1.798">
        <ele>220.5</ele>
        <time>2026-03-26T07:52:50.000Z</time>
      </trkpt>
      <trkpt lat="48.73158" lon="1.798">
        <ele>220.5</ele>
        <time>2026-03-26T07:52:51.000Z</time>
      </trkpt>
      <trkpt lat="48.73158" lon="1.798">
        <ele>220.5</ele>
        <time>2026-03-26T07:52:52.000Z</time>
      </trkpt>
      <trkpt lat="48.73158" lon="1.798">
        <ele>220.5</ele>
        <time>2026-03-26T07:52:53.000Z</time>
      </trkpt>
      <trkpt lat="48.73158" lon="1.798">
        <ele>220.5</ele>
        <time>2026-03-26T07:52:54.000Z</time>
      </trkpt>
      <trkpt lat="48.73158" lon="1.798">
        <ele>220.5</ele>
        <time>2026-03-26T07:52:55.000Z</time>
      </trkpt>
      <trkpt lat="48.73158" lon="1.798">
        <ele>220.5</ele>
        <time>2026-03-26T07:52:56.000Z</time>
      </trkpt>
      <trkpt lat="48.73158" lon="1.798">
        <ele>220.5</ele>
        <time>2026-03-26T07:52:57.000Z</time>
      </trkpt>
      <trkpt lat="48.73158" lon="1.798">
        <ele>220.5</ele>
        <time>2026-03-26T07:52:58.000Z</time>
      </trkpt>
      <trkpt lat="48.73158" lon="1.798">
        <ele>220.5</ele>
        <time>2026-03-26T07:52:59.000Z</time>
      </trkpt>
      <trkpt lat="48.73158" lon="1.798">
        <ele>220.5</ele>
        <time>2026-03-26T07:53:00.000Z</time>
      </trkpt>
      <trkpt lat="48.73158" lon="1.798">
        <ele>220.5</ele>
        <time>2026-03-26T07:53:01.000Z</time>
      </trkpt>
      <trkpt lat="48.73158" lon="1.798">
        <ele>220.5</ele>
        <time>2026-03-26T07:53:02.000Z</time>
      </trkpt>
      <trkpt lat="48.73158" lon="1.798">
        <ele>220.5</ele>
        <time>2026-03-26T07:53:03.000Z</time>
      </trkpt>
      <trkpt lat="48.73158" lon="1.798">
        <ele>220.5</ele>
        <time>2026-03-26T07:53:04.000Z</time>
      </trkpt>
      <trkpt lat="48.73158" lon="1.798">
        <ele>220.5</ele>
        <time>2026-03-26T07:53:05.000Z</time>
      </trkpt>
      <trkpt lat="48.73158" lon="1.798">
        <ele>220.5</ele>
        <time>2026-03-26T07:53:06.000Z</time>
      </trkpt>
      <trkpt lat="48.73158" lon="1.798">
        <ele>220.5</ele>
        <time>2026-03-26T07:53:07.000Z</time>
      </trkpt>
      <trkpt lat="48.73158" lon="1.798">
        <ele>220.5</ele>
        <time>2026-03-26T07:53:08.000Z</time>
      </trkpt>
      <trkpt lat="48.73158" lon="1.798">
        <ele>220.5</ele>
        <time>2026-03-26T07:53:09.000Z</time>
      </trkpt>
      <trkpt lat="48.73158" lon="1.798">
        <ele>220.6</ele>
        <time>2026-03-26T07:53:10.000Z</time>
      </trkpt>
      <trkpt lat="48.73158" lon="1.798">
        <ele>220.6</ele>
        <time>2026-03-26T07:53:11.000Z</time>
      </trkpt>
      <trkpt lat="48.73158" lon="1.798">
        <ele>220.6</ele>
        <time>2026-03-26T07:53:12.000Z</time>
      </trkpt>
      <trkpt lat="48.73158" lon="1.798">
        <ele>220.6</ele>
        <time>2026-03-26T07:53:13.000Z</time>
      </trkpt>
      <trkpt lat="48.73158" lon="1.798">
        <ele>220.6</ele>
        <time>2026-03-26T07:53:14.000Z</time>
      </trkpt>
      <trkpt lat="48.73158" lon="1.798">
        <ele>220.6</ele>
        <time>2026-03-26T07:53:15.000Z</time>
      </trkpt>
      <trkpt lat="48.73158" lon="1.798">
        <ele>220.6</ele>
        <time>2026-03-26T07:53:16.000Z</time>
      </trkpt>
      <trkpt lat="48.73158" lon="1.798">
        <ele>220.6</ele>
        <time>2026-03-26T07:53:17.000Z</time>
      </trkpt>
      <trkpt lat="48.73158" lon="1.798">
        <ele>220.6</ele>
        <time>2026-03-26T07:53:18.000Z</time>
      </trkpt>
      <trkpt lat="48.73158" lon="1.798">
        <ele>220.6</ele>
        <time>2026-03-26T07:53:19.000Z</time>
      </trkpt>
      <trkpt lat="48.73158" lon="1.798">
        <ele>220.6</ele>
        <time>2026-03-26T07:53:20.000Z</time>
      </trkpt>
      <trkpt lat="48.73158" lon="1.798">
        <ele>220.6</ele>
        <time>2026-03-26T07:53:21.000Z</time>
      </trkpt>
      <trkpt lat="48.73158" lon="1.798">
        <ele>220.6</ele>
        <time>2026-03-26T07:53:22.000Z</time>
      </trkpt>
      <trkpt lat="48.73158" lon="1.798">
        <ele>220.6</ele>
        <time>2026-03-26T07:53:23.000Z</time>
      </trkpt>
      <trkpt lat="48.73158" lon="1.798">
        <ele>220.6</ele>
        <time>2026-03-26T07:53:24.000Z</time>
      </trkpt>
      <trkpt lat="48.73158" lon="1.798">
        <ele>220.6</ele>
        <time>2026-03-26T07:53:25.000Z</time>
      </trkpt>
      <trkpt lat="48.73158" lon="1.798">
        <ele>220.6</ele>
        <time>2026-03-26T07:53:26.000Z</time>
      </trkpt>
      <trkpt lat="48.73158" lon="1.798">
        <ele>220.6</ele>
        <time>2026-03-26T07:53:27.000Z</time>
      </trkpt>
      <trkpt lat="48.73158" lon="1.798">
        <ele>220.6</ele>
        <time>2026-03-26T07:53:28.000Z</time>
      </trkpt>
      <trkpt lat="48.73158" lon="1.798">
        <ele>220.6</ele>
        <time>2026-03-26T07:53:29.000Z</time>
      </trkpt>
      <trkpt lat="48.73158" lon="1.798">
        <ele>220.6</ele>
        <time>2026-03-26T07:53:30.000Z</time>
      </trkpt>
      <trkpt lat="48.73158" lon="1.798">
        <ele>220.6</ele>
        <time>2026-03-26T07:53:31.000Z</time>
      </trkpt>
      <trkpt lat="48.73158" lon="1.798">
        <ele>220.6</ele>
        <time>2026-03-26T07:53:32.000Z</time>
      </trkpt>
      <trkpt lat="48.73158" lon="1.798">
        <ele>220.6</ele>
        <time>2026-03-26T07:53:33.000Z</time>
      </trkpt>
      <trkpt lat="48.73158" lon="1.798">
        <ele>220.6</ele>
        <time>2026-03-26T07:53:34.000Z</time>
      </trkpt>
      <trkpt lat="48.73158" lon="1.798">
        <ele>220.6</ele>
        <time>2026-03-26T07:53:35.000Z</time>
      </trkpt>
      <trkpt lat="48.73158" lon="1.798">
        <ele>220.6</ele>
        <time>2026-03-26T07:53:36.000Z</time>
      </trkpt>
      <trkpt lat="48.73158" lon="1.798">
        <ele>220.6</ele>
        <time>2026-03-26T07:53:37.000Z</time>
      </trkpt>
      <trkpt lat="48.73158" lon="1.798">
        <ele>220.6</ele>
        <time>2026-03-26T07:53:38.000Z</time>
      </trkpt>
      <trkpt lat="48.73158" lon="1.798">
        <ele>220.6</ele>
        <time>2026-03-26T07:53:39.000Z</time>
      </trkpt>
      <trkpt lat="48.73158" lon="1.798">
        <ele>220.6</ele>
        <time>2026-03-26T07:53:40.000Z</time>
      </trkpt>
      <trkpt lat="48.73158" lon="1.798">
        <ele>220.6</ele>
        <time>2026-03-26T07:53:41.000Z</time>
      </trkpt>
      <trkpt lat="48.73158" lon="1.798">
        <ele>220.6</ele>
        <time>2026-03-26T07:53:42.000Z</time>
      </trkpt>
      <trkpt lat="48.73158" lon="1.798">
        <ele>220.6</ele>
        <time>2026-03-26T07:53:43.000Z</time>
      </trkpt>
      <trkpt lat="48.73158" lon="1.798">
        <ele>220.6</ele>
        <time>2026-03-26T07:53:44.000Z</time>
      </trkpt>
      <trkpt lat="48.73158" lon="1.798">
        <ele>220.6</ele>
        <time>2026-03-26T07:53:45.000Z</time>
      </trkpt>
      <trkpt lat="48.73158" lon="1.798">
        <ele>220.7</ele>
        <time>2026-03-26T07:53:46.000Z</time>
      </trkpt>
      <trkpt lat="48.73158" lon="1.798">
        <ele>220.7</ele>
        <time>2026-03-26T07:53:47.000Z</time>
      </trkpt>
      <trkpt lat="48.73158" lon="1.798">
        <ele>220.7</ele>
        <time>2026-03-26T07:53:48.000Z</time>
      </trkpt>
      <trkpt lat="48.73158" lon="1.798">
        <ele>220.7</ele>
        <time>2026-03-26T07:53:49.000Z</time>
      </trkpt>
      <trkpt lat="48.73158" lon="1.798">
        <ele>220.7</ele>
        <time>2026-03-26T07:53:50.000Z</time>
      </trkpt>
      <trkpt lat="48.73158" lon="1.798">
        <ele>220.7</ele>
        <time>2026-03-26T07:53:51.000Z</time>
      </trkpt>
      <trkpt lat="48.73158" lon="1.798">
        <ele>220.7</ele>
        <time>2026-03-26T07:53:52.000Z</time>
      </trkpt>
      <trkpt lat="48.73158" lon="1.798">
        <ele>220.7</ele>
        <time>2026-03-26T07:53:53.000Z</time>
      </trkpt>
      <trkpt lat="48.73158" lon="1.798">
        <ele>220.7</ele>
        <time>2026-03-26T07:53:54.000Z</time>
      </trkpt>
      <trkpt lat="48.73158" lon="1.798">
        <ele>220.7</ele>
        <time>2026-03-26T07:53:55.000Z</time>
      </trkpt>
      <trkpt lat="48.73158" lon="1.798">
        <ele>220.7</ele>
        <time>2026-03-26T07:53:56.000Z</time>
      </trkpt>
      <trkpt lat="48.73158" lon="1.798">
        <ele>220.7</ele>
        <time>2026-03-26T07:53:57.000Z</time>
      </trkpt>
      <trkpt lat="48.73158" lon="1.798">
        <ele>220.7</ele>
        <time>2026-03-26T07:53:58.000Z</time>
      </trkpt>
      <trkpt lat="48.73158" lon="1.798">
        <ele>220.7</ele>
        <time>2026-03-26T07:53:59.000Z</time>
      </trkpt>
      <trkpt lat="48.73158" lon="1.798">
        <ele>220.7</ele>
        <time>2026-03-26T07:54:00.000Z</time>
      </trkpt>
      <trkpt lat="48.73158" lon="1.798">
        <ele>220.7</ele>
        <time>2026-03-26T07:54:01.000Z</time>
      </trkpt>
      <trkpt lat="48.73158" lon="1.798">
        <ele>220.7</ele>
        <time>2026-03-26T07:54:02.000Z</time>
      </trkpt>
      <trkpt lat="48.73158" lon="1.798">
        <ele>220.7</ele>
        <time>2026-03-26T07:54:03.000Z</time>
      </trkpt>
      <trkpt lat="48.73158" lon="1.798">
        <ele>220.7</ele>
        <time>2026-03-26T07:54:04.000Z</time>
      </trkpt>
      <trkpt lat="48.73158" lon="1.798">
        <ele>220.7</ele>
        <time>2026-03-26T07:54:05.000Z</time>
      </trkpt>
      <trkpt lat="48.73158" lon="1.798">
        <ele>220.7</ele>
        <time>2026-03-26T07:54:06.000Z</time>
      </trkpt>
      <trkpt lat="48.73158" lon="1.798">
        <ele>220.7</ele>
        <time>2026-03-26T07:54:07.000Z</time>
      </trkpt>
      <trkpt lat="48.73158" lon="1.798">
        <ele>220.7</ele>
        <time>2026-03-26T07:54:08.000Z</time>
      </trkpt>
      <trkpt lat="48.73158" lon="1.798">
        <ele>220.7</ele>
        <time>2026-03-26T07:54:09.000Z</time>
      </trkpt>
      <trkpt lat="48.73158" lon="1.798">
        <ele>220.7</ele>
        <time>2026-03-26T07:54:10.000Z</time>
      </trkpt>
      <trkpt lat="48.73158" lon="1.798">
        <ele>220.7</ele>
        <time>2026-03-26T07:54:11.000Z</time>
      </trkpt>
      <trkpt lat="48.73158" lon="1.798">
        <ele>220.7</ele>
        <time>2026-03-26T07:54:12.000Z</time>
      </trkpt>
      <trkpt lat="48.73158" lon="1.798">
        <ele>220.7</ele>
        <time>2026-03-26T07:54:13.000Z</time>
      </trkpt>
      <trkpt lat="48.73158" lon="1.798">
        <ele>220.7</ele>
        <time>2026-03-26T07:54:14.000Z</time>
      </trkpt>
      <trkpt lat="48.73158" lon="1.798">
        <ele>220.7</ele>
        <time>2026-03-26T07:54:15.000Z</time>
      </trkpt>
      <trkpt lat="48.73158" lon="1.798">
        <ele>220.7</ele>
        <time>2026-03-26T07:54:16.000Z</time>
      </trkpt>
      <trkpt lat="48.73158" lon="1.798">
        <ele>220.7</ele>
        <time>2026-03-26T07:54:17.000Z</time>
      </trkpt>
      <trkpt lat="48.73158" lon="1.798">
        <ele>220.7</ele>
        <time>2026-03-26T07:54:18.000Z</time>
      </trkpt>
      <trkpt lat="48.73158" lon="1.798">
        <ele>220.7</ele>
        <time>2026-03-26T07:54:19.000Z</time>
      </trkpt>
      <trkpt lat="48.73158" lon="1.798">
        <ele>220.7</ele>
        <time>2026-03-26T07:54:20.000Z</time>
      </trkpt>
      <trkpt lat="48.73158" lon="1.798">
        <ele>220.7</ele>
        <time>2026-03-26T07:54:21.000Z</time>
      </trkpt>
      <trkpt lat="48.73158" lon="1.798">
        <ele>220.7</ele>
        <time>2026-03-26T07:54:22.000Z</time>
      </trkpt>
      <trkpt lat="48.73158" lon="1.798">
        <ele>220.8</ele>
        <time>2026-03-26T07:54:23.000Z</time>
      </trkpt>
      <trkpt lat="48.73158" lon="1.798">
        <ele>220.8</ele>
        <time>2026-03-26T07:54:24.000Z</time>
      </trkpt>
      <trkpt lat="48.73158" lon="1.798">
        <ele>220.8</ele>
        <time>2026-03-26T07:54:25.000Z</time>
      </trkpt>
      <trkpt lat="48.73158" lon="1.798">
        <ele>220.8</ele>
        <time>2026-03-26T07:54:26.000Z</time>
      </trkpt>
      <trkpt lat="48.73158" lon="1.798">
        <ele>220.8</ele>
        <time>2026-03-26T07:54:27.000Z</time>
      </trkpt>
      <trkpt lat="48.73158" lon="1.798">
        <ele>220.8</ele>
        <time>2026-03-26T07:54:28.000Z</time>
      </trkpt>
      <trkpt lat="48.73158" lon="1.798">
        <ele>220.8</ele>
        <time>2026-03-26T07:54:29.000Z</time>
      </trkpt>
      <trkpt lat="48.73158" lon="1.798">
        <ele>220.8</ele>
        <time>2026-03-26T07:54:30.000Z</time>
      </trkpt>
      <trkpt lat="48.73158" lon="1.798">
        <ele>220.8</ele>
        <time>2026-03-26T07:54:31.000Z</time>
      </trkpt>
      <trkpt lat="48.73158" lon="1.798">
        <ele>220.8</ele>
        <time>2026-03-26T07:54:32.000Z</time>
      </trkpt>
      <trkpt lat="48.73158" lon="1.798">
        <ele>220.8</ele>
        <time>2026-03-26T07:54:33.000Z</time>
      </trkpt>
      <trkpt lat="48.73158" lon="1.798">
        <ele>220.8</ele>
        <time>2026-03-26T07:54:34.000Z</time>
      </trkpt>
      <trkpt lat="48.73158" lon="1.798">
        <ele>220.8</ele>
        <time>2026-03-26T07:54:35.000Z</time>
      </trkpt>
      <trkpt lat="48.73158" lon="1.798">
        <ele>220.8</ele>
        <time>2026-03-26T07:54:36.000Z</time>
      </trkpt>
      <trkpt lat="48.73158" lon="1.798">
        <ele>220.8</ele>
        <time>2026-03-26T07:54:37.000Z</time>
      </trkpt>
      <trkpt lat="48.73158" lon="1.798">
        <ele>220.8</ele>
        <time>2026-03-26T07:54:38.000Z</time>
      </trkpt>
      <trkpt lat="48.73158" lon="1.798">
        <ele>220.8</ele>
        <time>2026-03-26T07:54:39.000Z</time>
      </trkpt>
      <trkpt lat="48.73158" lon="1.798">
        <ele>220.8</ele>
        <time>2026-03-26T07:54:40.000Z</time>
      </trkpt>
      <trkpt lat="48.73158" lon="1.798">
        <ele>220.8</ele>
        <time>2026-03-26T07:54:41.000Z</time>
      </trkpt>
      <trkpt lat="48.73158" lon="1.798">
        <ele>220.8</ele>
        <time>2026-03-26T07:54:42.000Z</time>
      </trkpt>
      <trkpt lat="48.73158" lon="1.798">
        <ele>220.8</ele>
        <time>2026-03-26T07:54:43.000Z</time>
      </trkpt>
      <trkpt lat="48.73158" lon="1.798">
        <ele>220.8</ele>
        <time>2026-03-26T07:54:44.000Z</time>
      </trkpt>
      <trkpt lat="48.73158" lon="1.798">
        <ele>220.8</ele>
        <time>2026-03-26T07:54:45.000Z</time>
      </trkpt>
      <trkpt lat="48.73158" lon="1.798">
        <ele>220.8</ele>
        <time>2026-03-26T07:54:46.000Z</time>
      </trkpt>
      <trkpt lat="48.73158" lon="1.798">
        <ele>220.6</ele>
        <time>2026-03-26T07:54:47.000Z</time>
      </trkpt>
      <trkpt lat="48.73159" lon="1.798">
        <ele>220.6</ele>
        <time>2026-03-26T07:54:48.000Z</time>
      </trkpt>
      <trkpt lat="48.73158" lon="1.798">
        <ele>221.2</ele>
        <time>2026-03-26T07:54:49.000Z</time>
      </trkpt>
      <trkpt lat="48.73158" lon="1.79801">
        <ele>221.1</ele>
        <time>2026-03-26T07:54:50.000Z</time>
      </trkpt>
      <trkpt lat="48.73158" lon="1.79801">
        <ele>221</ele>
        <time>2026-03-26T07:54:51.000Z</time>
      </trkpt>
      <trkpt lat="48.73158" lon="1.798">
        <ele>220.9</ele>
        <time>2026-03-26T07:54:52.000Z</time>
      </trkpt>
      <trkpt lat="48.73157" lon="1.798">
        <ele>220.9</ele>
        <time>2026-03-26T07:54:53.000Z</time>
      </trkpt>
      <trkpt lat="48.73157" lon="1.79801">
        <ele>220.8</ele>
        <time>2026-03-26T07:54:54.000Z</time>
      </trkpt>
      <trkpt lat="48.73157" lon="1.79801">
        <ele>220.7</ele>
        <time>2026-03-26T07:54:55.000Z</time>
      </trkpt>
      <trkpt lat="48.73157" lon="1.79801">
        <ele>219.9</ele>
        <time>2026-03-26T07:54:56.000Z</time>
      </trkpt>
      <trkpt lat="48.73157" lon="1.79801">
        <ele>219.6</ele>
        <time>2026-03-26T07:54:57.000Z</time>
      </trkpt>
      <trkpt lat="48.73157" lon="1.798">
        <ele>219.3</ele>
        <time>2026-03-26T07:54:58.000Z</time>
      </trkpt>
      <trkpt lat="48.73157" lon="1.798">
        <ele>219.2</ele>
        <time>2026-03-26T07:54:59.000Z</time>
      </trkpt>
      <trkpt lat="48.73158" lon="1.798">
        <ele>219.3</ele>
        <time>2026-03-26T07:55:00.000Z</time>
      </trkpt>
      <trkpt lat="48.73158" lon="1.798">
        <ele>219.4</ele>
        <time>2026-03-26T07:55:01.000Z</time>
      </trkpt>
      <trkpt lat="48.73158" lon="1.79799">
        <ele>219.4</ele>
        <time>2026-03-26T07:55:02.000Z</time>
      </trkpt>
      <trkpt lat="48.73158" lon="1.79799">
        <ele>219.3</ele>
        <time>2026-03-26T07:55:03.000Z</time>
      </trkpt>
      <trkpt lat="48.73157" lon="1.79798">
        <ele>219.5</ele>
        <time>2026-03-26T07:55:04.000Z</time>
      </trkpt>
      <trkpt lat="48.73157" lon="1.79798">
        <ele>219.5</ele>
        <time>2026-03-26T07:55:05.000Z</time>
      </trkpt>
      <trkpt lat="48.73157" lon="1.79798">
        <ele>219.5</ele>
        <time>2026-03-26T07:55:06.000Z</time>
      </trkpt>
      <trkpt lat="48.73157" lon="1.79798">
        <ele>219.6</ele>
        <time>2026-03-26T07:55:07.000Z</time>
      </trkpt>
      <trkpt lat="48.73157" lon="1.79798">
        <ele>219.6</ele>
        <time>2026-03-26T07:55:08.000Z</time>
      </trkpt>
      <trkpt lat="48.73157" lon="1.79799">
        <ele>219.5</ele>
        <time>2026-03-26T07:55:09.000Z</time>
      </trkpt>
      <trkpt lat="48.73157" lon="1.79799">
        <ele>219.5</ele>
        <time>2026-03-26T07:55:10.000Z</time>
      </trkpt>
      <trkpt lat="48.73157" lon="1.79799">
        <ele>219.6</ele>
        <time>2026-03-26T07:55:11.000Z</time>
      </trkpt>
      <trkpt lat="48.73157" lon="1.79799">
        <ele>219.6</ele>
        <time>2026-03-26T07:55:12.000Z</time>
      </trkpt>
      <trkpt lat="48.73157" lon="1.79799">
        <ele>219.6</ele>
        <time>2026-03-26T07:55:13.000Z</time>
      </trkpt>
      <trkpt lat="48.73157" lon="1.79798">
        <ele>219.6</ele>
        <time>2026-03-26T07:55:14.000Z</time>
      </trkpt>
      <trkpt lat="48.73157" lon="1.79798">
        <ele>219.5</ele>
        <time>2026-03-26T07:55:15.000Z</time>
      </trkpt>
      <trkpt lat="48.73157" lon="1.79798">
        <ele>219.6</ele>
        <time>2026-03-26T07:55:16.000Z</time>
      </trkpt>
      <trkpt lat="48.73156" lon="1.79797">
        <ele>220.1</ele>
        <time>2026-03-26T07:55:17.000Z</time>
      </trkpt>
      <trkpt lat="48.73156" lon="1.79797">
        <ele>220</ele>
        <time>2026-03-26T07:55:18.000Z</time>
      </trkpt>
      <trkpt lat="48.73156" lon="1.79797">
        <ele>219.9</ele>
        <time>2026-03-26T07:55:19.000Z</time>
      </trkpt>
      <trkpt lat="48.73156" lon="1.79797">
        <ele>219.4</ele>
        <time>2026-03-26T07:55:20.000Z</time>
      </trkpt>
      <trkpt lat="48.73156" lon="1.79797">
        <ele>218.9</ele>
        <time>2026-03-26T07:55:21.000Z</time>
      </trkpt>
      <trkpt lat="48.73155" lon="1.79796">
        <ele>219</ele>
        <time>2026-03-26T07:55:22.000Z</time>
      </trkpt>
      <trkpt lat="48.73155" lon="1.79796">
        <ele>219.2</ele>
        <time>2026-03-26T07:55:23.000Z</time>
      </trkpt>
      <trkpt lat="48.73155" lon="1.79796">
        <ele>219.2</ele>
        <time>2026-03-26T07:55:24.000Z</time>
      </trkpt>
      <trkpt lat="48.73155" lon="1.79796">
        <ele>219.7</ele>
        <time>2026-03-26T07:55:25.000Z</time>
      </trkpt>
      <trkpt lat="48.73156" lon="1.79796">
        <ele>220</ele>
        <time>2026-03-26T07:55:26.000Z</time>
      </trkpt>
      <trkpt lat="48.73156" lon="1.79796">
        <ele>219</ele>
        <time>2026-03-26T07:55:27.000Z</time>
      </trkpt>
      <trkpt lat="48.73157" lon="1.79796">
        <ele>219</ele>
        <time>2026-03-26T07:55:28.000Z</time>
      </trkpt>
      <trkpt lat="48.73157" lon="1.79796">
        <ele>218.9</ele>
        <time>2026-03-26T07:55:29.000Z</time>
      </trkpt>
      <trkpt lat="48.73157" lon="1.79796">
        <ele>219.1</ele>
        <time>2026-03-26T07:55:30.000Z</time>
      </trkpt>
      <trkpt lat="48.73158" lon="1.79796">
        <ele>218.9</ele>
        <time>2026-03-26T07:55:31.000Z</time>
      </trkpt>
      <trkpt lat="48.73158" lon="1.79796">
        <ele>218.9</ele>
        <time>2026-03-26T07:55:32.000Z</time>
      </trkpt>
      <trkpt lat="48.73158" lon="1.79795">
        <ele>218.9</ele>
        <time>2026-03-26T07:55:33.000Z</time>
      </trkpt>
      <trkpt lat="48.73159" lon="1.79795">
        <ele>219.1</ele>
        <time>2026-03-26T07:55:34.000Z</time>
      </trkpt>
      <trkpt lat="48.73159" lon="1.79794">
        <ele>219.2</ele>
        <time>2026-03-26T07:55:35.000Z</time>
      </trkpt>
      <trkpt lat="48.73159" lon="1.79794">
        <ele>219.4</ele>
        <time>2026-03-26T07:55:36.000Z</time>
      </trkpt>
      <trkpt lat="48.73159" lon="1.79793">
        <ele>219.3</ele>
        <time>2026-03-26T07:55:37.000Z</time>
      </trkpt>
      <trkpt lat="48.7316" lon="1.79791">
        <ele>219.4</ele>
        <time>2026-03-26T07:55:38.000Z</time>
      </trkpt>
      <trkpt lat="48.7316" lon="1.7979">
        <ele>219.5</ele>
        <time>2026-03-26T07:55:39.000Z</time>
      </trkpt>
      <trkpt lat="48.73161" lon="1.79789">
        <ele>219.5</ele>
        <time>2026-03-26T07:55:40.000Z</time>
      </trkpt>
      <trkpt lat="48.73161" lon="1.79788">
        <ele>219.6</ele>
        <time>2026-03-26T07:55:41.000Z</time>
      </trkpt>
      <trkpt lat="48.73162" lon="1.79787">
        <ele>219.8</ele>
        <time>2026-03-26T07:55:42.000Z</time>
      </trkpt>
      <trkpt lat="48.73163" lon="1.79786">
        <ele>220</ele>
        <time>2026-03-26T07:55:43.000Z</time>
      </trkpt>
      <trkpt lat="48.73163" lon="1.79785">
        <ele>220.5</ele>
        <time>2026-03-26T07:55:44.000Z</time>
      </trkpt>
      <trkpt lat="48.73164" lon="1.79785">
        <ele>220.8</ele>
        <time>2026-03-26T07:55:45.000Z</time>
      </trkpt>
      <trkpt lat="48.73165" lon="1.79784">
        <ele>220.6</ele>
        <time>2026-03-26T07:55:46.000Z</time>
      </trkpt>
      <trkpt lat="48.73165" lon="1.79783">
        <ele>220.4</ele>
        <time>2026-03-26T07:55:47.000Z</time>
      </trkpt>
      <trkpt lat="48.73165" lon="1.79782">
        <ele>220.2</ele>
        <time>2026-03-26T07:55:48.000Z</time>
      </trkpt>
      <trkpt lat="48.73165" lon="1.79781">
        <ele>220.3</ele>
        <time>2026-03-26T07:55:49.000Z</time>
      </trkpt>
      <trkpt lat="48.73166" lon="1.79779">
        <ele>220.7</ele>
        <time>2026-03-26T07:55:50.000Z</time>
      </trkpt>
      <trkpt lat="48.73166" lon="1.79778">
        <ele>220.6</ele>
        <time>2026-03-26T07:55:51.000Z</time>
      </trkpt>
      <trkpt lat="48.73166" lon="1.79776">
        <ele>220.8</ele>
        <time>2026-03-26T07:55:52.000Z</time>
      </trkpt>
      <trkpt lat="48.73166" lon="1.79775">
        <ele>220.8</ele>
        <time>2026-03-26T07:55:53.000Z</time>
      </trkpt>
      <trkpt lat="48.73166" lon="1.79774">
        <ele>220.7</ele>
        <time>2026-03-26T07:55:54.000Z</time>
      </trkpt>
      <trkpt lat="48.73167" lon="1.79773">
        <ele>220.6</ele>
        <time>2026-03-26T07:55:55.000Z</time>
      </trkpt>
      <trkpt lat="48.73167" lon="1.79772">
        <ele>221</ele>
        <time>2026-03-26T07:55:56.000Z</time>
      </trkpt>
      <trkpt lat="48.73167" lon="1.7977">
        <ele>221.2</ele>
        <time>2026-03-26T07:55:57.000Z</time>
      </trkpt>
      <trkpt lat="48.73167" lon="1.79769">
        <ele>221.5</ele>
        <time>2026-03-26T07:55:58.000Z</time>
      </trkpt>
      <trkpt lat="48.73168" lon="1.79768">
        <ele>221.5</ele>
        <time>2026-03-26T07:55:59.000Z</time>
      </trkpt>
      <trkpt lat="48.73168" lon="1.79767">
        <ele>221.4</ele>
        <time>2026-03-26T07:56:00.000Z</time>
      </trkpt>
      <trkpt lat="48.73169" lon="1.79766">
        <ele>221.2</ele>
        <time>2026-03-26T07:56:01.000Z</time>
      </trkpt>
      <trkpt lat="48.73169" lon="1.79765">
        <ele>221.1</ele>
        <time>2026-03-26T07:56:02.000Z</time>
      </trkpt>
      <trkpt lat="48.73169" lon="1.79764">
        <ele>221</ele>
        <time>2026-03-26T07:56:03.000Z</time>
      </trkpt>
      <trkpt lat="48.73169" lon="1.79763">
        <ele>221.1</ele>
        <time>2026-03-26T07:56:04.000Z</time>
      </trkpt>
      <trkpt lat="48.7317" lon="1.79763">
        <ele>221</ele>
        <time>2026-03-26T07:56:05.000Z</time>
      </trkpt>
      <trkpt lat="48.73171" lon="1.79764">
        <ele>220.6</ele>
        <time>2026-03-26T07:56:06.000Z</time>
      </trkpt>
      <trkpt lat="48.73172" lon="1.79765">
        <ele>220.6</ele>
        <time>2026-03-26T07:56:07.000Z</time>
      </trkpt>
      <trkpt lat="48.73172" lon="1.79765">
        <ele>220.7</ele>
        <time>2026-03-26T07:56:08.000Z</time>
      </trkpt>
      <trkpt lat="48.73172" lon="1.79765">
        <ele>220.7</ele>
        <time>2026-03-26T07:56:09.000Z</time>
      </trkpt>
      <trkpt lat="48.73172" lon="1.79765">
        <ele>220.7</ele>
        <time>2026-03-26T07:56:10.000Z</time>
      </trkpt>
      <trkpt lat="48.73172" lon="1.79765">
        <ele>220.7</ele>
        <time>2026-03-26T07:56:11.000Z</time>
      </trkpt>
      <trkpt lat="48.73172" lon="1.79765">
        <ele>220.7</ele>
        <time>2026-03-26T07:56:12.000Z</time>
      </trkpt>
      <trkpt lat="48.73172" lon="1.79765">
        <ele>220.7</ele>
        <time>2026-03-26T07:56:13.000Z</time>
      </trkpt>
      <trkpt lat="48.73172" lon="1.79765">
        <ele>220.7</ele>
        <time>2026-03-26T07:56:14.000Z</time>
      </trkpt>
      <trkpt lat="48.73172" lon="1.79765">
        <ele>220.7</ele>
        <time>2026-03-26T07:56:15.000Z</time>
      </trkpt>
      <trkpt lat="48.73172" lon="1.79765">
        <ele>220.7</ele>
        <time>2026-03-26T07:56:16.000Z</time>
      </trkpt>
      <trkpt lat="48.73172" lon="1.79765">
        <ele>220.7</ele>
        <time>2026-03-26T07:56:17.000Z</time>
      </trkpt>
      <trkpt lat="48.73172" lon="1.79765">
        <ele>220.7</ele>
        <time>2026-03-26T07:56:18.000Z</time>
      </trkpt>
      <trkpt lat="48.73172" lon="1.79765">
        <ele>220.7</ele>
        <time>2026-03-26T07:56:19.000Z</time>
      </trkpt>
      <trkpt lat="48.73172" lon="1.79765">
        <ele>220.7</ele>
        <time>2026-03-26T07:56:20.000Z</time>
      </trkpt>
      <trkpt lat="48.73172" lon="1.79766">
        <ele>220.7</ele>
        <time>2026-03-26T07:56:21.000Z</time>
      </trkpt>
      <trkpt lat="48.73172" lon="1.79766">
        <ele>220.7</ele>
        <time>2026-03-26T07:56:22.000Z</time>
      </trkpt>
      <trkpt lat="48.73172" lon="1.79766">
        <ele>220.7</ele>
        <time>2026-03-26T07:56:23.000Z</time>
      </trkpt>
      <trkpt lat="48.73172" lon="1.79766">
        <ele>220.7</ele>
        <time>2026-03-26T07:56:24.000Z</time>
      </trkpt>
      <trkpt lat="48.73172" lon="1.79766">
        <ele>220.7</ele>
        <time>2026-03-26T07:56:25.000Z</time>
      </trkpt>
      <trkpt lat="48.73172" lon="1.79766">
        <ele>220.7</ele>
        <time>2026-03-26T07:56:26.000Z</time>
      </trkpt>
      <trkpt lat="48.73172" lon="1.79766">
        <ele>220.7</ele>
        <time>2026-03-26T07:56:27.000Z</time>
      </trkpt>
      <trkpt lat="48.73172" lon="1.79766">
        <ele>220.7</ele>
        <time>2026-03-26T07:56:28.000Z</time>
      </trkpt>
      <trkpt lat="48.73172" lon="1.79766">
        <ele>220.7</ele>
        <time>2026-03-26T07:56:29.000Z</time>
      </trkpt>
      <trkpt lat="48.73172" lon="1.79766">
        <ele>220.7</ele>
        <time>2026-03-26T07:56:30.000Z</time>
      </trkpt>
      <trkpt lat="48.73172" lon="1.79766">
        <ele>220.7</ele>
        <time>2026-03-26T07:56:31.000Z</time>
      </trkpt>
      <trkpt lat="48.73172" lon="1.79766">
        <ele>220.7</ele>
        <time>2026-03-26T07:56:32.000Z</time>
      </trkpt>
      <trkpt lat="48.73172" lon="1.79766">
        <ele>220.7</ele>
        <time>2026-03-26T07:56:33.000Z</time>
      </trkpt>
      <trkpt lat="48.73172" lon="1.79766">
        <ele>220.4</ele>
        <time>2026-03-26T07:56:34.000Z</time>
      </trkpt>
      <trkpt lat="48.73172" lon="1.79766">
        <ele>220.4</ele>
        <time>2026-03-26T07:56:35.000Z</time>
      </trkpt>
      <trkpt lat="48.73172" lon="1.79766">
        <ele>220.2</ele>
        <time>2026-03-26T07:56:36.000Z</time>
      </trkpt>
      <trkpt lat="48.73172" lon="1.79766">
        <ele>220.2</ele>
        <time>2026-03-26T07:56:37.000Z</time>
      </trkpt>
      <trkpt lat="48.73172" lon="1.79766">
        <ele>220.2</ele>
        <time>2026-03-26T07:56:38.000Z</time>
      </trkpt>
      <trkpt lat="48.73172" lon="1.79766">
        <ele>220.2</ele>
        <time>2026-03-26T07:56:39.000Z</time>
      </trkpt>
      <trkpt lat="48.73172" lon="1.79766">
        <ele>220.2</ele>
        <time>2026-03-26T07:56:40.000Z</time>
      </trkpt>
      <trkpt lat="48.73172" lon="1.79766">
        <ele>220.2</ele>
        <time>2026-03-26T07:56:41.000Z</time>
      </trkpt>
      <trkpt lat="48.73172" lon="1.79766">
        <ele>220.2</ele>
        <time>2026-03-26T07:56:42.000Z</time>
      </trkpt>
      <trkpt lat="48.73172" lon="1.79766">
        <ele>220.2</ele>
        <time>2026-03-26T07:56:43.000Z</time>
      </trkpt>
      <trkpt lat="48.73172" lon="1.79766">
        <ele>220.2</ele>
        <time>2026-03-26T07:56:44.000Z</time>
      </trkpt>
      <trkpt lat="48.73172" lon="1.79766">
        <ele>220.2</ele>
        <time>2026-03-26T07:56:45.000Z</time>
      </trkpt>
      <trkpt lat="48.73172" lon="1.79766">
        <ele>220.2</ele>
        <time>2026-03-26T07:56:46.000Z</time>
      </trkpt>
      <trkpt lat="48.73172" lon="1.79766">
        <ele>220.2</ele>
        <time>2026-03-26T07:56:47.000Z</time>
      </trkpt>
      <trkpt lat="48.73172" lon="1.79767">
        <ele>220.2</ele>
        <time>2026-03-26T07:56:48.000Z</time>
      </trkpt>
      <trkpt lat="48.73172" lon="1.79767">
        <ele>220.1</ele>
        <time>2026-03-26T07:56:49.000Z</time>
      </trkpt>
      <trkpt lat="48.73172" lon="1.79767">
        <ele>220.1</ele>
        <time>2026-03-26T07:56:50.000Z</time>
      </trkpt>
      <trkpt lat="48.73172" lon="1.79767">
        <ele>220.2</ele>
        <time>2026-03-26T07:56:51.000Z</time>
      </trkpt>
      <trkpt lat="48.73173" lon="1.79767">
        <ele>220.2</ele>
        <time>2026-03-26T07:56:52.000Z</time>
      </trkpt>
      <trkpt lat="48.73173" lon="1.79767">
        <ele>220.2</ele>
        <time>2026-03-26T07:56:53.000Z</time>
      </trkpt>
      <trkpt lat="48.73173" lon="1.79768">
        <ele>220.4</ele>
        <time>2026-03-26T07:56:54.000Z</time>
      </trkpt>
      <trkpt lat="48.73173" lon="1.79767">
        <ele>220.4</ele>
        <time>2026-03-26T07:56:55.000Z</time>
      </trkpt>
      <trkpt lat="48.73173" lon="1.79768">
        <ele>220.4</ele>
        <time>2026-03-26T07:56:56.000Z</time>
      </trkpt>
      <trkpt lat="48.73174" lon="1.79768">
        <ele>220.3</ele>
        <time>2026-03-26T07:56:57.000Z</time>
      </trkpt>
      <trkpt lat="48.73174" lon="1.79769">
        <ele>220.3</ele>
        <time>2026-03-26T07:56:58.000Z</time>
      </trkpt>
      <trkpt lat="48.73174" lon="1.79768">
        <ele>220.3</ele>
        <time>2026-03-26T07:56:59.000Z</time>
      </trkpt>
      <trkpt lat="48.73174" lon="1.79768">
        <ele>220.3</ele>
        <time>2026-03-26T07:57:00.000Z</time>
      </trkpt>
      <trkpt lat="48.73174" lon="1.79768">
        <ele>220.3</ele>
        <time>2026-03-26T07:57:01.000Z</time>
      </trkpt>
      <trkpt lat="48.73174" lon="1.79768">
        <ele>220.3</ele>
        <time>2026-03-26T07:57:02.000Z</time>
      </trkpt>
      <trkpt lat="48.73174" lon="1.79768">
        <ele>220.3</ele>
        <time>2026-03-26T07:57:03.000Z</time>
      </trkpt>
      <trkpt lat="48.73174" lon="1.79768">
        <ele>220.3</ele>
        <time>2026-03-26T07:57:04.000Z</time>
      </trkpt>
      <trkpt lat="48.73174" lon="1.79768">
        <ele>220.3</ele>
        <time>2026-03-26T07:57:05.000Z</time>
      </trkpt>
      <trkpt lat="48.73174" lon="1.79768">
        <ele>220.3</ele>
        <time>2026-03-26T07:57:06.000Z</time>
      </trkpt>
      <trkpt lat="48.73174" lon="1.79768">
        <ele>220.2</ele>
        <time>2026-03-26T07:57:07.000Z</time>
      </trkpt>
      <trkpt lat="48.73174" lon="1.79768">
        <ele>220.2</ele>
        <time>2026-03-26T07:57:08.000Z</time>
      </trkpt>
      <trkpt lat="48.73174" lon="1.79768">
        <ele>220.2</ele>
        <time>2026-03-26T07:57:09.000Z</time>
      </trkpt>
      <trkpt lat="48.73174" lon="1.79768">
        <ele>220.2</ele>
        <time>2026-03-26T07:57:10.000Z</time>
      </trkpt>
      <trkpt lat="48.73174" lon="1.79768">
        <ele>220.2</ele>
        <time>2026-03-26T07:57:11.000Z</time>
      </trkpt>
      <trkpt lat="48.73174" lon="1.79768">
        <ele>220.2</ele>
        <time>2026-03-26T07:57:12.000Z</time>
      </trkpt>
      <trkpt lat="48.73174" lon="1.79768">
        <ele>220.2</ele>
        <time>2026-03-26T07:57:13.000Z</time>
      </trkpt>
      <trkpt lat="48.73174" lon="1.79768">
        <ele>220.2</ele>
        <time>2026-03-26T07:57:14.000Z</time>
      </trkpt>
      <trkpt lat="48.73174" lon="1.79768">
        <ele>220.2</ele>
        <time>2026-03-26T07:57:15.000Z</time>
      </trkpt>
      <trkpt lat="48.73174" lon="1.79768">
        <ele>219.8</ele>
        <time>2026-03-26T07:57:16.000Z</time>
      </trkpt>
      <trkpt lat="48.73174" lon="1.79768">
        <ele>219.6</ele>
        <time>2026-03-26T07:57:17.000Z</time>
      </trkpt>
      <trkpt lat="48.73173" lon="1.79768">
        <ele>219.8</ele>
        <time>2026-03-26T07:57:18.000Z</time>
      </trkpt>
      <trkpt lat="48.73173" lon="1.79768">
        <ele>219.9</ele>
        <time>2026-03-26T07:57:19.000Z</time>
      </trkpt>
      <trkpt lat="48.73172" lon="1.79768">
        <ele>219.8</ele>
        <time>2026-03-26T07:57:20.000Z</time>
      </trkpt>
      <trkpt lat="48.73172" lon="1.79769">
        <ele>219.8</ele>
        <time>2026-03-26T07:57:21.000Z</time>
      </trkpt>
      <trkpt lat="48.73172" lon="1.79769">
        <ele>219.8</ele>
        <time>2026-03-26T07:57:22.000Z</time>
      </trkpt>
      <trkpt lat="48.73172" lon="1.79769">
        <ele>219.8</ele>
        <time>2026-03-26T07:57:23.000Z</time>
      </trkpt>
      <trkpt lat="48.73172" lon="1.79769">
        <ele>219.7</ele>
        <time>2026-03-26T07:57:24.000Z</time>
      </trkpt>
      <trkpt lat="48.73172" lon="1.79768">
        <ele>219.6</ele>
        <time>2026-03-26T07:57:25.000Z</time>
      </trkpt>
      <trkpt lat="48.73172" lon="1.79768">
        <ele>219.6</ele>
        <time>2026-03-26T07:57:26.000Z</time>
      </trkpt>
      <trkpt lat="48.73172" lon="1.79766">
        <ele>219.6</ele>
        <time>2026-03-26T07:57:27.000Z</time>
      </trkpt>
      <trkpt lat="48.73172" lon="1.79765">
        <ele>218.8</ele>
        <time>2026-03-26T07:57:28.000Z</time>
      </trkpt>
      <trkpt lat="48.73172" lon="1.79765">
        <ele>218.9</ele>
        <time>2026-03-26T07:57:29.000Z</time>
      </trkpt>
      <trkpt lat="48.73173" lon="1.79765">
        <ele>218.9</ele>
        <time>2026-03-26T07:57:30.000Z</time>
      </trkpt>
      <trkpt lat="48.73173" lon="1.79765">
        <ele>218.9</ele>
        <time>2026-03-26T07:57:31.000Z</time>
      </trkpt>
      <trkpt lat="48.73173" lon="1.79765">
        <ele>218.9</ele>
        <time>2026-03-26T07:57:32.000Z</time>
      </trkpt>
      <trkpt lat="48.73173" lon="1.79765">
        <ele>219</ele>
        <time>2026-03-26T07:57:33.000Z</time>
      </trkpt>
      <trkpt lat="48.73173" lon="1.79765">
        <ele>219</ele>
        <time>2026-03-26T07:57:34.000Z</time>
      </trkpt>
      <trkpt lat="48.73173" lon="1.79765">
        <ele>219</ele>
        <time>2026-03-26T07:57:35.000Z</time>
      </trkpt>
      <trkpt lat="48.73173" lon="1.79765">
        <ele>219</ele>
        <time>2026-03-26T07:57:36.000Z</time>
      </trkpt>
      <trkpt lat="48.73173" lon="1.79765">
        <ele>219</ele>
        <time>2026-03-26T07:57:37.000Z</time>
      </trkpt>
      <trkpt lat="48.73173" lon="1.79765">
        <ele>219</ele>
        <time>2026-03-26T07:57:38.000Z</time>
      </trkpt>
      <trkpt lat="48.73173" lon="1.79765">
        <ele>219</ele>
        <time>2026-03-26T07:57:39.000Z</time>
      </trkpt>
      <trkpt lat="48.73173" lon="1.79765">
        <ele>219</ele>
        <time>2026-03-26T07:57:40.000Z</time>
      </trkpt>
      <trkpt lat="48.73173" lon="1.79765">
        <ele>219</ele>
        <time>2026-03-26T07:57:41.000Z</time>
      </trkpt>
      <trkpt lat="48.73173" lon="1.79765">
        <ele>219</ele>
        <time>2026-03-26T07:57:42.000Z</time>
      </trkpt>
      <trkpt lat="48.73173" lon="1.79765">
        <ele>219</ele>
        <time>2026-03-26T07:57:43.000Z</time>
      </trkpt>
      <trkpt lat="48.73173" lon="1.79765">
        <ele>219</ele>
        <time>2026-03-26T07:57:44.000Z</time>
      </trkpt>
      <trkpt lat="48.73172" lon="1.79765">
        <ele>219.2</ele>
        <time>2026-03-26T07:57:45.000Z</time>
      </trkpt>
      <trkpt lat="48.73171" lon="1.79768">
        <ele>219.1</ele>
        <time>2026-03-26T07:57:46.000Z</time>
      </trkpt>
      <trkpt lat="48.73171" lon="1.79769">
        <ele>219.4</ele>
        <time>2026-03-26T07:57:47.000Z</time>
      </trkpt>
      <trkpt lat="48.73172" lon="1.79769">
        <ele>219.4</ele>
        <time>2026-03-26T07:57:48.000Z</time>
      </trkpt>
      <trkpt lat="48.73172" lon="1.79769">
        <ele>219.1</ele>
        <time>2026-03-26T07:57:49.000Z</time>
      </trkpt>
      <trkpt lat="48.73172" lon="1.79769">
        <ele>219.1</ele>
        <time>2026-03-26T07:57:50.000Z</time>
      </trkpt>
      <trkpt lat="48.73172" lon="1.79769">
        <ele>219.1</ele>
        <time>2026-03-26T07:57:51.000Z</time>
      </trkpt>
      <trkpt lat="48.73172" lon="1.79769">
        <ele>219.1</ele>
        <time>2026-03-26T07:57:52.000Z</time>
      </trkpt>
      <trkpt lat="48.73172" lon="1.79769">
        <ele>219.1</ele>
        <time>2026-03-26T07:57:53.000Z</time>
      </trkpt>
      <trkpt lat="48.73172" lon="1.79769">
        <ele>219.1</ele>
        <time>2026-03-26T07:57:54.000Z</time>
      </trkpt>
      <trkpt lat="48.73172" lon="1.79769">
        <ele>219.1</ele>
        <time>2026-03-26T07:57:55.000Z</time>
      </trkpt>
      <trkpt lat="48.73172" lon="1.79769">
        <ele>219</ele>
        <time>2026-03-26T07:57:56.000Z</time>
      </trkpt>
      <trkpt lat="48.73172" lon="1.79769">
        <ele>219</ele>
        <time>2026-03-26T07:57:57.000Z</time>
      </trkpt>
      <trkpt lat="48.73172" lon="1.79769">
        <ele>218.9</ele>
        <time>2026-03-26T07:57:58.000Z</time>
      </trkpt>
      <trkpt lat="48.73172" lon="1.79769">
        <ele>218.9</ele>
        <time>2026-03-26T07:57:59.000Z</time>
      </trkpt>
      <trkpt lat="48.73172" lon="1.79769">
        <ele>218.9</ele>
        <time>2026-03-26T07:58:00.000Z</time>
      </trkpt>
      <trkpt lat="48.73172" lon="1.79768">
        <ele>218.8</ele>
        <time>2026-03-26T07:58:01.000Z</time>
      </trkpt>
      <trkpt lat="48.73172" lon="1.79768">
        <ele>219</ele>
        <time>2026-03-26T07:58:02.000Z</time>
      </trkpt>
      <trkpt lat="48.73172" lon="1.79768">
        <ele>219</ele>
        <time>2026-03-26T07:58:03.000Z</time>
      </trkpt>
      <trkpt lat="48.73172" lon="1.79768">
        <ele>219</ele>
        <time>2026-03-26T07:58:04.000Z</time>
      </trkpt>
      <trkpt lat="48.73172" lon="1.79768">
        <ele>219</ele>
        <time>2026-03-26T07:58:05.000Z</time>
      </trkpt>
      <trkpt lat="48.73172" lon="1.79768">
        <ele>219</ele>
        <time>2026-03-26T07:58:06.000Z</time>
      </trkpt>
      <trkpt lat="48.73172" lon="1.79768">
        <ele>219</ele>
        <time>2026-03-26T07:58:07.000Z</time>
      </trkpt>
      <trkpt lat="48.73172" lon="1.79768">
        <ele>219</ele>
        <time>2026-03-26T07:58:08.000Z</time>
      </trkpt>
      <trkpt lat="48.73172" lon="1.79768">
        <ele>219</ele>
        <time>2026-03-26T07:58:09.000Z</time>
      </trkpt>
      <trkpt lat="48.73172" lon="1.79768">
        <ele>219</ele>
        <time>2026-03-26T07:58:10.000Z</time>
      </trkpt>
      <trkpt lat="48.73172" lon="1.79768">
        <ele>219</ele>
        <time>2026-03-26T07:58:11.000Z</time>
      </trkpt>
      <trkpt lat="48.73172" lon="1.79768">
        <ele>219</ele>
        <time>2026-03-26T07:58:12.000Z</time>
      </trkpt>
      <trkpt lat="48.73172" lon="1.79768">
        <ele>219.1</ele>
        <time>2026-03-26T07:58:13.000Z</time>
      </trkpt>
      <trkpt lat="48.73172" lon="1.79768">
        <ele>219.1</ele>
        <time>2026-03-26T07:58:14.000Z</time>
      </trkpt>
      <trkpt lat="48.73172" lon="1.79768">
        <ele>219.1</ele>
        <time>2026-03-26T07:58:15.000Z</time>
      </trkpt>
      <trkpt lat="48.73172" lon="1.79768">
        <ele>219.1</ele>
        <time>2026-03-26T07:58:16.000Z</time>
      </trkpt>
      <trkpt lat="48.73172" lon="1.79768">
        <ele>219.1</ele>
        <time>2026-03-26T07:58:17.000Z</time>
      </trkpt>
      <trkpt lat="48.73172" lon="1.79768">
        <ele>219.1</ele>
        <time>2026-03-26T07:58:18.000Z</time>
      </trkpt>
      <trkpt lat="48.73172" lon="1.79768">
        <ele>219.1</ele>
        <time>2026-03-26T07:58:19.000Z</time>
      </trkpt>
      <trkpt lat="48.73172" lon="1.79768">
        <ele>219.1</ele>
        <time>2026-03-26T07:58:20.000Z</time>
      </trkpt>
      <trkpt lat="48.73172" lon="1.79768">
        <ele>219.1</ele>
        <time>2026-03-26T07:58:21.000Z</time>
      </trkpt>
      <trkpt lat="48.73172" lon="1.79768">
        <ele>219.1</ele>
        <time>2026-03-26T07:58:22.000Z</time>
      </trkpt>
      <trkpt lat="48.73172" lon="1.79768">
        <ele>219.1</ele>
        <time>2026-03-26T07:58:23.000Z</time>
      </trkpt>
      <trkpt lat="48.73172" lon="1.79768">
        <ele>219.1</ele>
        <time>2026-03-26T07:58:24.000Z</time>
      </trkpt>
      <trkpt lat="48.73172" lon="1.79768">
        <ele>219.1</ele>
        <time>2026-03-26T07:58:25.000Z</time>
      </trkpt>
      <trkpt lat="48.73172" lon="1.79768">
        <ele>219.1</ele>
        <time>2026-03-26T07:58:26.000Z</time>
      </trkpt>
      <trkpt lat="48.73172" lon="1.79768">
        <ele>219.1</ele>
        <time>2026-03-26T07:58:27.000Z</time>
      </trkpt>
      <trkpt lat="48.73172" lon="1.79768">
        <ele>219.1</ele>
        <time>2026-03-26T07:58:28.000Z</time>
      </trkpt>
      <trkpt lat="48.73172" lon="1.79768">
        <ele>219.1</ele>
        <time>2026-03-26T07:58:29.000Z</time>
      </trkpt>
      <trkpt lat="48.73172" lon="1.79768">
        <ele>219.1</ele>
        <time>2026-03-26T07:58:30.000Z</time>
      </trkpt>
      <trkpt lat="48.73172" lon="1.79768">
        <ele>219.1</ele>
        <time>2026-03-26T07:58:31.000Z</time>
      </trkpt>
      <trkpt lat="48.73172" lon="1.79768">
        <ele>219.1</ele>
        <time>2026-03-26T07:58:32.000Z</time>
      </trkpt>
      <trkpt lat="48.73172" lon="1.79768">
        <ele>219.1</ele>
        <time>2026-03-26T07:58:33.000Z</time>
      </trkpt>
      <trkpt lat="48.73172" lon="1.79768">
        <ele>219.1</ele>
        <time>2026-03-26T07:58:34.000Z</time>
      </trkpt>
      <trkpt lat="48.73172" lon="1.79768">
        <ele>219.1</ele>
        <time>2026-03-26T07:58:35.000Z</time>
      </trkpt>
      <trkpt lat="48.73172" lon="1.79768">
        <ele>219.1</ele>
        <time>2026-03-26T07:58:36.000Z</time>
      </trkpt>
      <trkpt lat="48.73172" lon="1.79768">
        <ele>219.1</ele>
        <time>2026-03-26T07:58:37.000Z</time>
      </trkpt>
      <trkpt lat="48.73172" lon="1.79768">
        <ele>219.1</ele>
        <time>2026-03-26T07:58:38.000Z</time>
      </trkpt>
      <trkpt lat="48.73172" lon="1.79768">
        <ele>219.1</ele>
        <time>2026-03-26T07:58:39.000Z</time>
      </trkpt>
      <trkpt lat="48.73172" lon="1.79768">
        <ele>219.1</ele>
        <time>2026-03-26T07:58:40.000Z</time>
      </trkpt>
      <trkpt lat="48.73172" lon="1.79768">
        <ele>219.1</ele>
        <time>2026-03-26T07:58:41.000Z</time>
      </trkpt>
      <trkpt lat="48.73172" lon="1.79768">
        <ele>219.1</ele>
        <time>2026-03-26T07:58:42.000Z</time>
      </trkpt>
      <trkpt lat="48.73172" lon="1.79768">
        <ele>219.1</ele>
        <time>2026-03-26T07:58:43.000Z</time>
      </trkpt>
      <trkpt lat="48.73172" lon="1.79768">
        <ele>219.1</ele>
        <time>2026-03-26T07:58:44.000Z</time>
      </trkpt>
      <trkpt lat="48.73172" lon="1.79768">
        <ele>219.1</ele>
        <time>2026-03-26T07:58:45.000Z</time>
      </trkpt>
      <trkpt lat="48.73172" lon="1.79768">
        <ele>219.1</ele>
        <time>2026-03-26T07:58:46.000Z</time>
      </trkpt>
      <trkpt lat="48.73172" lon="1.79768">
        <ele>219.6</ele>
        <time>2026-03-26T07:58:47.000Z</time>
      </trkpt>
      <trkpt lat="48.73172" lon="1.79767">
        <ele>219.7</ele>
        <time>2026-03-26T07:58:48.000Z</time>
      </trkpt>
      <trkpt lat="48.73171" lon="1.79767">
        <ele>219.9</ele>
        <time>2026-03-26T07:58:49.000Z</time>
      </trkpt>
      <trkpt lat="48.73171" lon="1.79767">
        <ele>219.7</ele>
        <time>2026-03-26T07:58:50.000Z</time>
      </trkpt>
      <trkpt lat="48.73171" lon="1.79767">
        <ele>219.6</ele>
        <time>2026-03-26T07:58:51.000Z</time>
      </trkpt>
      <trkpt lat="48.73171" lon="1.79767">
        <ele>219.5</ele>
        <time>2026-03-26T07:58:52.000Z</time>
      </trkpt>
      <trkpt lat="48.7317" lon="1.79766">
        <ele>219.2</ele>
        <time>2026-03-26T07:58:53.000Z</time>
      </trkpt>
      <trkpt lat="48.7317" lon="1.79766">
        <ele>219.2</ele>
        <time>2026-03-26T07:58:54.000Z</time>
      </trkpt>
      <trkpt lat="48.7317" lon="1.79766">
        <ele>219.3</ele>
        <time>2026-03-26T07:58:55.000Z</time>
      </trkpt>
      <trkpt lat="48.7317" lon="1.79766">
        <ele>219.3</ele>
        <time>2026-03-26T07:58:56.000Z</time>
      </trkpt>
      <trkpt lat="48.7317" lon="1.79766">
        <ele>219.3</ele>
        <time>2026-03-26T07:58:57.000Z</time>
      </trkpt>
      <trkpt lat="48.7317" lon="1.79767">
        <ele>219.3</ele>
        <time>2026-03-26T07:58:58.000Z</time>
      </trkpt>
      <trkpt lat="48.7317" lon="1.79767">
        <ele>219.3</ele>
        <time>2026-03-26T07:58:59.000Z</time>
      </trkpt>
      <trkpt lat="48.7317" lon="1.79767">
        <ele>219.3</ele>
        <time>2026-03-26T07:59:00.000Z</time>
      </trkpt>
      <trkpt lat="48.7317" lon="1.79767">
        <ele>219.2</ele>
        <time>2026-03-26T07:59:01.000Z</time>
      </trkpt>
      <trkpt lat="48.7317" lon="1.79766">
        <ele>219</ele>
        <time>2026-03-26T07:59:02.000Z</time>
      </trkpt>
      <trkpt lat="48.7317" lon="1.79766">
        <ele>219</ele>
        <time>2026-03-26T07:59:03.000Z</time>
      </trkpt>
      <trkpt lat="48.7317" lon="1.79766">
        <ele>219.2</ele>
        <time>2026-03-26T07:59:04.000Z</time>
      </trkpt>
      <trkpt lat="48.7317" lon="1.79766">
        <ele>219.2</ele>
        <time>2026-03-26T07:59:05.000Z</time>
      </trkpt>
      <trkpt lat="48.7317" lon="1.79766">
        <ele>219.2</ele>
        <time>2026-03-26T07:59:06.000Z</time>
      </trkpt>
      <trkpt lat="48.7317" lon="1.79766">
        <ele>219.2</ele>
        <time>2026-03-26T07:59:07.000Z</time>
      </trkpt>
      <trkpt lat="48.7317" lon="1.79766">
        <ele>219.2</ele>
        <time>2026-03-26T07:59:08.000Z</time>
      </trkpt>
      <trkpt lat="48.7317" lon="1.79766">
        <ele>219.2</ele>
        <time>2026-03-26T07:59:09.000Z</time>
      </trkpt>
      <trkpt lat="48.7317" lon="1.79766">
        <ele>219.2</ele>
        <time>2026-03-26T07:59:10.000Z</time>
      </trkpt>
      <trkpt lat="48.7317" lon="1.79766">
        <ele>219.2</ele>
        <time>2026-03-26T07:59:11.000Z</time>
      </trkpt>
      <trkpt lat="48.7317" lon="1.79766">
        <ele>219.2</ele>
        <time>2026-03-26T07:59:12.000Z</time>
      </trkpt>
      <trkpt lat="48.7317" lon="1.79766">
        <ele>219.2</ele>
        <time>2026-03-26T07:59:13.000Z</time>
      </trkpt>
      <trkpt lat="48.7317" lon="1.79766">
        <ele>219.2</ele>
        <time>2026-03-26T07:59:14.000Z</time>
      </trkpt>
      <trkpt lat="48.7317" lon="1.79766">
        <ele>219.2</ele>
        <time>2026-03-26T07:59:15.000Z</time>
      </trkpt>
      <trkpt lat="48.7317" lon="1.79766">
        <ele>219.2</ele>
        <time>2026-03-26T07:59:16.000Z</time>
      </trkpt>
      <trkpt lat="48.7317" lon="1.79766">
        <ele>219.2</ele>
        <time>2026-03-26T07:59:17.000Z</time>
      </trkpt>
      <trkpt lat="48.7317" lon="1.79766">
        <ele>219.2</ele>
        <time>2026-03-26T07:59:18.000Z</time>
      </trkpt>
      <trkpt lat="48.7317" lon="1.79766">
        <ele>219.2</ele>
        <time>2026-03-26T07:59:19.000Z</time>
      </trkpt>
      <trkpt lat="48.7317" lon="1.79766">
        <ele>219.2</ele>
        <time>2026-03-26T07:59:20.000Z</time>
      </trkpt>
      <trkpt lat="48.7317" lon="1.79766">
        <ele>219.4</ele>
        <time>2026-03-26T07:59:21.000Z</time>
      </trkpt>
      <trkpt lat="48.73171" lon="1.79766">
        <ele>219.5</ele>
        <time>2026-03-26T07:59:22.000Z</time>
      </trkpt>
      <trkpt lat="48.73171" lon="1.79766">
        <ele>219.5</ele>
        <time>2026-03-26T07:59:23.000Z</time>
      </trkpt>
      <trkpt lat="48.73171" lon="1.79766">
        <ele>219.5</ele>
        <time>2026-03-26T07:59:24.000Z</time>
      </trkpt>
      <trkpt lat="48.73171" lon="1.79766">
        <ele>219.5</ele>
        <time>2026-03-26T07:59:25.000Z</time>
      </trkpt>
      <trkpt lat="48.73171" lon="1.79766">
        <ele>219.5</ele>
        <time>2026-03-26T07:59:26.000Z</time>
      </trkpt>
      <trkpt lat="48.73171" lon="1.79766">
        <ele>219.5</ele>
        <time>2026-03-26T07:59:27.000Z</time>
      </trkpt>
      <trkpt lat="48.73171" lon="1.79766">
        <ele>219.5</ele>
        <time>2026-03-26T07:59:28.000Z</time>
      </trkpt>
      <trkpt lat="48.73171" lon="1.79766">
        <ele>219.5</ele>
        <time>2026-03-26T07:59:29.000Z</time>
      </trkpt>
      <trkpt lat="48.73171" lon="1.79766">
        <ele>219.5</ele>
        <time>2026-03-26T07:59:30.000Z</time>
      </trkpt>
      <trkpt lat="48.73171" lon="1.79766">
        <ele>219.5</ele>
        <time>2026-03-26T07:59:31.000Z</time>
      </trkpt>
      <trkpt lat="48.73171" lon="1.79766">
        <ele>219.6</ele>
        <time>2026-03-26T07:59:32.000Z</time>
      </trkpt>
      <trkpt lat="48.73171" lon="1.79766">
        <ele>219.6</ele>
        <time>2026-03-26T07:59:33.000Z</time>
      </trkpt>
      <trkpt lat="48.73171" lon="1.79766">
        <ele>219.6</ele>
        <time>2026-03-26T07:59:34.000Z</time>
      </trkpt>
      <trkpt lat="48.73171" lon="1.79766">
        <ele>219.6</ele>
        <time>2026-03-26T07:59:35.000Z</time>
      </trkpt>
      <trkpt lat="48.73171" lon="1.79766">
        <ele>219.6</ele>
        <time>2026-03-26T07:59:36.000Z</time>
      </trkpt>
      <trkpt lat="48.73171" lon="1.79766">
        <ele>219.6</ele>
        <time>2026-03-26T07:59:37.000Z</time>
      </trkpt>
      <trkpt lat="48.73171" lon="1.79766">
        <ele>219.6</ele>
        <time>2026-03-26T07:59:38.000Z</time>
      </trkpt>
      <trkpt lat="48.73171" lon="1.79766">
        <ele>219.6</ele>
        <time>2026-03-26T07:59:39.000Z</time>
      </trkpt>
      <trkpt lat="48.73171" lon="1.79766">
        <ele>219.6</ele>
        <time>2026-03-26T07:59:40.000Z</time>
      </trkpt>
      <trkpt lat="48.73171" lon="1.79766">
        <ele>219.6</ele>
        <time>2026-03-26T07:59:41.000Z</time>
      </trkpt>
      <trkpt lat="48.73171" lon="1.79766">
        <ele>219.6</ele>
        <time>2026-03-26T07:59:42.000Z</time>
      </trkpt>
      <trkpt lat="48.73171" lon="1.79766">
        <ele>219.6</ele>
        <time>2026-03-26T07:59:43.000Z</time>
      </trkpt>
      <trkpt lat="48.73171" lon="1.79766">
        <ele>219.6</ele>
        <time>2026-03-26T07:59:44.000Z</time>
      </trkpt>
      <trkpt lat="48.73171" lon="1.79766">
        <ele>219.6</ele>
        <time>2026-03-26T07:59:45.000Z</time>
      </trkpt>
      <trkpt lat="48.73171" lon="1.79766">
        <ele>219.9</ele>
        <time>2026-03-26T07:59:46.000Z</time>
      </trkpt>
      <trkpt lat="48.73171" lon="1.79765">
        <ele>219.9</ele>
        <time>2026-03-26T07:59:47.000Z</time>
      </trkpt>
      <trkpt lat="48.73171" lon="1.79765">
        <ele>219.9</ele>
        <time>2026-03-26T07:59:48.000Z</time>
      </trkpt>
      <trkpt lat="48.73171" lon="1.79765">
        <ele>220.2</ele>
        <time>2026-03-26T07:59:49.000Z</time>
      </trkpt>
      <trkpt lat="48.73171" lon="1.79766">
        <ele>220.2</ele>
        <time>2026-03-26T07:59:50.000Z</time>
      </trkpt>
      <trkpt lat="48.73171" lon="1.79766">
        <ele>220.2</ele>
        <time>2026-03-26T07:59:51.000Z</time>
      </trkpt>
      <trkpt lat="48.73171" lon="1.79766">
        <ele>220.2</ele>
        <time>2026-03-26T07:59:52.000Z</time>
      </trkpt>
      <trkpt lat="48.73171" lon="1.79766">
        <ele>220.2</ele>
        <time>2026-03-26T07:59:53.000Z</time>
      </trkpt>
      <trkpt lat="48.73171" lon="1.79766">
        <ele>220.2</ele>
        <time>2026-03-26T07:59:54.000Z</time>
      </trkpt>
      <trkpt lat="48.73171" lon="1.79766">
        <ele>220.2</ele>
        <time>2026-03-26T07:59:55.000Z</time>
      </trkpt>
      <trkpt lat="48.7317" lon="1.79766">
        <ele>220.4</ele>
        <time>2026-03-26T07:59:56.000Z</time>
      </trkpt>
      <trkpt lat="48.7317" lon="1.79766">
        <ele>220.6</ele>
        <time>2026-03-26T07:59:57.000Z</time>
      </trkpt>
      <trkpt lat="48.7317" lon="1.79767">
        <ele>220.6</ele>
        <time>2026-03-26T07:59:58.000Z</time>
      </trkpt>
      <trkpt lat="48.73171" lon="1.79767">
        <ele>220.6</ele>
        <time>2026-03-26T07:59:59.000Z</time>
      </trkpt>
      <trkpt lat="48.73171" lon="1.79767">
        <ele>220.6</ele>
        <time>2026-03-26T08:00:00.000Z</time>
      </trkpt>
      <trkpt lat="48.73171" lon="1.79767">
        <ele>220.6</ele>
        <time>2026-03-26T08:00:01.000Z</time>
      </trkpt>
      <trkpt lat="48.7317" lon="1.79767">
        <ele>220.7</ele>
        <time>2026-03-26T08:00:02.000Z</time>
      </trkpt>
      <trkpt lat="48.7317" lon="1.79767">
        <ele>220.7</ele>
        <time>2026-03-26T08:00:03.000Z</time>
      </trkpt>
      <trkpt lat="48.7317" lon="1.79767">
        <ele>220.8</ele>
        <time>2026-03-26T08:00:04.000Z</time>
      </trkpt>
      <trkpt lat="48.7317" lon="1.79767">
        <ele>220.8</ele>
        <time>2026-03-26T08:00:05.000Z</time>
      </trkpt>
      <trkpt lat="48.7317" lon="1.79767">
        <ele>220.8</ele>
        <time>2026-03-26T08:00:06.000Z</time>
      </trkpt>
      <trkpt lat="48.7317" lon="1.79767">
        <ele>220.8</ele>
        <time>2026-03-26T08:00:07.000Z</time>
      </trkpt>
      <trkpt lat="48.7317" lon="1.79767">
        <ele>220.8</ele>
        <time>2026-03-26T08:00:08.000Z</time>
      </trkpt>
      <trkpt lat="48.7317" lon="1.79767">
        <ele>220.8</ele>
        <time>2026-03-26T08:00:09.000Z</time>
      </trkpt>
      <trkpt lat="48.7317" lon="1.79767">
        <ele>220.8</ele>
        <time>2026-03-26T08:00:10.000Z</time>
      </trkpt>
      <trkpt lat="48.7317" lon="1.79767">
        <ele>220.8</ele>
        <time>2026-03-26T08:00:11.000Z</time>
      </trkpt>
      <trkpt lat="48.7317" lon="1.79767">
        <ele>220.8</ele>
        <time>2026-03-26T08:00:12.000Z</time>
      </trkpt>
      <trkpt lat="48.7317" lon="1.79767">
        <ele>220.8</ele>
        <time>2026-03-26T08:00:13.000Z</time>
      </trkpt>
      <trkpt lat="48.7317" lon="1.79767">
        <ele>220.8</ele>
        <time>2026-03-26T08:00:14.000Z</time>
      </trkpt>
      <trkpt lat="48.7317" lon="1.79767">
        <ele>220.8</ele>
        <time>2026-03-26T08:00:15.000Z</time>
      </trkpt>
      <trkpt lat="48.7317" lon="1.79767">
        <ele>220.8</ele>
        <time>2026-03-26T08:00:16.000Z</time>
      </trkpt>
      <trkpt lat="48.7317" lon="1.79767">
        <ele>221</ele>
        <time>2026-03-26T08:00:17.000Z</time>
      </trkpt>
      <trkpt lat="48.7317" lon="1.79767">
        <ele>221.1</ele>
        <time>2026-03-26T08:00:18.000Z</time>
      </trkpt>
      <trkpt lat="48.7317" lon="1.79767">
        <ele>221.1</ele>
        <time>2026-03-26T08:00:19.000Z</time>
      </trkpt>
      <trkpt lat="48.7317" lon="1.79768">
        <ele>221.1</ele>
        <time>2026-03-26T08:00:20.000Z</time>
      </trkpt>
      <trkpt lat="48.7317" lon="1.79768">
        <ele>221.1</ele>
        <time>2026-03-26T08:00:21.000Z</time>
      </trkpt>
      <trkpt lat="48.7317" lon="1.79768">
        <ele>221.1</ele>
        <time>2026-03-26T08:00:22.000Z</time>
      </trkpt>
      <trkpt lat="48.7317" lon="1.79768">
        <ele>221.1</ele>
        <time>2026-03-26T08:00:23.000Z</time>
      </trkpt>
      <trkpt lat="48.7317" lon="1.79768">
        <ele>221.1</ele>
        <time>2026-03-26T08:00:24.000Z</time>
      </trkpt>
      <trkpt lat="48.7317" lon="1.79768">
        <ele>221.1</ele>
        <time>2026-03-26T08:00:25.000Z</time>
      </trkpt>
      <trkpt lat="48.7317" lon="1.79768">
        <ele>221.1</ele>
        <time>2026-03-26T08:00:26.000Z</time>
      </trkpt>
      <trkpt lat="48.7317" lon="1.79768">
        <ele>221.1</ele>
        <time>2026-03-26T08:00:27.000Z</time>
      </trkpt>
      <trkpt lat="48.7317" lon="1.79768">
        <ele>221.1</ele>
        <time>2026-03-26T08:00:28.000Z</time>
      </trkpt>
      <trkpt lat="48.7317" lon="1.79768">
        <ele>221.1</ele>
        <time>2026-03-26T08:00:29.000Z</time>
      </trkpt>
      <trkpt lat="48.7317" lon="1.79768">
        <ele>221.1</ele>
        <time>2026-03-26T08:00:30.000Z</time>
      </trkpt>
      <trkpt lat="48.7317" lon="1.79768">
        <ele>221.1</ele>
        <time>2026-03-26T08:00:31.000Z</time>
      </trkpt>
      <trkpt lat="48.7317" lon="1.79768">
        <ele>221</ele>
        <time>2026-03-26T08:00:32.000Z</time>
      </trkpt>
      <trkpt lat="48.7317" lon="1.79768">
        <ele>221</ele>
        <time>2026-03-26T08:00:33.000Z</time>
      </trkpt>
      <trkpt lat="48.7317" lon="1.79768">
        <ele>221</ele>
        <time>2026-03-26T08:00:34.000Z</time>
      </trkpt>
      <trkpt lat="48.7317" lon="1.79767">
        <ele>220.7</ele>
        <time>2026-03-26T08:00:35.000Z</time>
      </trkpt>
      <trkpt lat="48.7317" lon="1.79767">
        <ele>220.5</ele>
        <time>2026-03-26T08:00:36.000Z</time>
      </trkpt>
      <trkpt lat="48.7317" lon="1.79767">
        <ele>220.5</ele>
        <time>2026-03-26T08:00:37.000Z</time>
      </trkpt>
      <trkpt lat="48.7317" lon="1.79767">
        <ele>220.5</ele>
        <time>2026-03-26T08:00:38.000Z</time>
      </trkpt>
      <trkpt lat="48.7317" lon="1.79767">
        <ele>220.5</ele>
        <time>2026-03-26T08:00:39.000Z</time>
      </trkpt>
      <trkpt lat="48.7317" lon="1.79767">
        <ele>220.5</ele>
        <time>2026-03-26T08:00:40.000Z</time>
      </trkpt>
      <trkpt lat="48.7317" lon="1.79767">
        <ele>220.5</ele>
        <time>2026-03-26T08:00:41.000Z</time>
      </trkpt>
      <trkpt lat="48.7317" lon="1.79767">
        <ele>220.5</ele>
        <time>2026-03-26T08:00:42.000Z</time>
      </trkpt>
      <trkpt lat="48.7317" lon="1.79768">
        <ele>220.4</ele>
        <time>2026-03-26T08:00:43.000Z</time>
      </trkpt>
      <trkpt lat="48.7317" lon="1.79768">
        <ele>220.3</ele>
        <time>2026-03-26T08:00:44.000Z</time>
      </trkpt>
      <trkpt lat="48.7317" lon="1.79769">
        <ele>220.4</ele>
        <time>2026-03-26T08:00:45.000Z</time>
      </trkpt>
      <trkpt lat="48.7317" lon="1.79769">
        <ele>220.1</ele>
        <time>2026-03-26T08:00:46.000Z</time>
      </trkpt>
      <trkpt lat="48.7317" lon="1.79769">
        <ele>219.9</ele>
        <time>2026-03-26T08:00:47.000Z</time>
      </trkpt>
      <trkpt lat="48.7317" lon="1.79769">
        <ele>219.9</ele>
        <time>2026-03-26T08:00:48.000Z</time>
      </trkpt>
      <trkpt lat="48.7317" lon="1.79769">
        <ele>219.9</ele>
        <time>2026-03-26T08:00:49.000Z</time>
      </trkpt>
      <trkpt lat="48.7317" lon="1.79769">
        <ele>219.9</ele>
        <time>2026-03-26T08:00:50.000Z</time>
      </trkpt>
      <trkpt lat="48.7317" lon="1.79769">
        <ele>219.9</ele>
        <time>2026-03-26T08:00:51.000Z</time>
      </trkpt>
      <trkpt lat="48.7317" lon="1.79769">
        <ele>219.9</ele>
        <time>2026-03-26T08:00:52.000Z</time>
      </trkpt>
      <trkpt lat="48.7317" lon="1.79769">
        <ele>219.9</ele>
        <time>2026-03-26T08:00:53.000Z</time>
      </trkpt>
      <trkpt lat="48.7317" lon="1.79769">
        <ele>219.9</ele>
        <time>2026-03-26T08:00:54.000Z</time>
      </trkpt>
      <trkpt lat="48.7317" lon="1.79769">
        <ele>219.9</ele>
        <time>2026-03-26T08:00:55.000Z</time>
      </trkpt>
      <trkpt lat="48.7317" lon="1.79769">
        <ele>219.9</ele>
        <time>2026-03-26T08:00:56.000Z</time>
      </trkpt>
      <trkpt lat="48.7317" lon="1.79769">
        <ele>219.9</ele>
        <time>2026-03-26T08:00:57.000Z</time>
      </trkpt>
      <trkpt lat="48.7317" lon="1.79769">
        <ele>219.9</ele>
        <time>2026-03-26T08:00:58.000Z</time>
      </trkpt>
      <trkpt lat="48.7317" lon="1.79769">
        <ele>219.9</ele>
        <time>2026-03-26T08:00:59.000Z</time>
      </trkpt>
      <trkpt lat="48.73169" lon="1.79769">
        <ele>219.8</ele>
        <time>2026-03-26T08:01:00.000Z</time>
      </trkpt>
      <trkpt lat="48.73169" lon="1.79768">
        <ele>219.8</ele>
        <time>2026-03-26T08:01:01.000Z</time>
      </trkpt>
      <trkpt lat="48.73169" lon="1.79768">
        <ele>219.8</ele>
        <time>2026-03-26T08:01:02.000Z</time>
      </trkpt>
      <trkpt lat="48.73169" lon="1.79768">
        <ele>219.8</ele>
        <time>2026-03-26T08:01:03.000Z</time>
      </trkpt>
      <trkpt lat="48.73169" lon="1.79768">
        <ele>219.8</ele>
        <time>2026-03-26T08:01:04.000Z</time>
      </trkpt>
      <trkpt lat="48.73169" lon="1.79768">
        <ele>219.8</ele>
        <time>2026-03-26T08:01:05.000Z</time>
      </trkpt>
      <trkpt lat="48.73169" lon="1.79768">
        <ele>219.8</ele>
        <time>2026-03-26T08:01:06.000Z</time>
      </trkpt>
      <trkpt lat="48.73169" lon="1.79768">
        <ele>219.8</ele>
        <time>2026-03-26T08:01:07.000Z</time>
      </trkpt>
      <trkpt lat="48.73169" lon="1.79768">
        <ele>219.8</ele>
        <time>2026-03-26T08:01:08.000Z</time>
      </trkpt>
      <trkpt lat="48.73169" lon="1.79768">
        <ele>219.8</ele>
        <time>2026-03-26T08:01:09.000Z</time>
      </trkpt>
      <trkpt lat="48.73169" lon="1.79768">
        <ele>219.8</ele>
        <time>2026-03-26T08:01:10.000Z</time>
      </trkpt>
      <trkpt lat="48.73169" lon="1.79768">
        <ele>219.8</ele>
        <time>2026-03-26T08:01:11.000Z</time>
      </trkpt>
      <trkpt lat="48.73169" lon="1.79768">
        <ele>219.8</ele>
        <time>2026-03-26T08:01:12.000Z</time>
      </trkpt>
      <trkpt lat="48.73169" lon="1.79768">
        <ele>219.8</ele>
        <time>2026-03-26T08:01:13.000Z</time>
      </trkpt>
      <trkpt lat="48.73169" lon="1.79768">
        <ele>219.8</ele>
        <time>2026-03-26T08:01:14.000Z</time>
      </trkpt>
      <trkpt lat="48.73169" lon="1.79768">
        <ele>219.8</ele>
        <time>2026-03-26T08:01:15.000Z</time>
      </trkpt>
      <trkpt lat="48.73169" lon="1.79768">
        <ele>219.8</ele>
        <time>2026-03-26T08:01:16.000Z</time>
      </trkpt>
      <trkpt lat="48.73169" lon="1.79768">
        <ele>219.8</ele>
        <time>2026-03-26T08:01:17.000Z</time>
      </trkpt>
      <trkpt lat="48.73169" lon="1.79768">
        <ele>219.8</ele>
        <time>2026-03-26T08:01:18.000Z</time>
      </trkpt>
      <trkpt lat="48.73169" lon="1.79768">
        <ele>219.8</ele>
        <time>2026-03-26T08:01:19.000Z</time>
      </trkpt>
      <trkpt lat="48.73169" lon="1.79768">
        <ele>219.8</ele>
        <time>2026-03-26T08:01:20.000Z</time>
      </trkpt>
      <trkpt lat="48.73169" lon="1.79768">
        <ele>219.8</ele>
        <time>2026-03-26T08:01:21.000Z</time>
      </trkpt>
      <trkpt lat="48.73169" lon="1.79768">
        <ele>219.8</ele>
        <time>2026-03-26T08:01:22.000Z</time>
      </trkpt>
      <trkpt lat="48.73169" lon="1.79768">
        <ele>219.8</ele>
        <time>2026-03-26T08:01:23.000Z</time>
      </trkpt>
      <trkpt lat="48.73169" lon="1.79768">
        <ele>219.8</ele>
        <time>2026-03-26T08:01:24.000Z</time>
      </trkpt>
      <trkpt lat="48.73169" lon="1.79768">
        <ele>219.8</ele>
        <time>2026-03-26T08:01:25.000Z</time>
      </trkpt>
      <trkpt lat="48.73169" lon="1.79768">
        <ele>219.9</ele>
        <time>2026-03-26T08:01:26.000Z</time>
      </trkpt>
      <trkpt lat="48.73169" lon="1.79768">
        <ele>219.7</ele>
        <time>2026-03-26T08:01:27.000Z</time>
      </trkpt>
      <trkpt lat="48.73169" lon="1.79768">
        <ele>219.7</ele>
        <time>2026-03-26T08:01:28.000Z</time>
      </trkpt>
      <trkpt lat="48.7317" lon="1.79768">
        <ele>219.6</ele>
        <time>2026-03-26T08:01:29.000Z</time>
      </trkpt>
      <trkpt lat="48.7317" lon="1.79769">
        <ele>219.5</ele>
        <time>2026-03-26T08:01:30.000Z</time>
      </trkpt>
      <trkpt lat="48.7317" lon="1.79769">
        <ele>219.5</ele>
        <time>2026-03-26T08:01:31.000Z</time>
      </trkpt>
      <trkpt lat="48.7317" lon="1.79769">
        <ele>219.5</ele>
        <time>2026-03-26T08:01:32.000Z</time>
      </trkpt>
      <trkpt lat="48.7317" lon="1.79769">
        <ele>219.5</ele>
        <time>2026-03-26T08:01:33.000Z</time>
      </trkpt>
      <trkpt lat="48.7317" lon="1.79769">
        <ele>219.5</ele>
        <time>2026-03-26T08:01:34.000Z</time>
      </trkpt>
      <trkpt lat="48.7317" lon="1.79769">
        <ele>219.5</ele>
        <time>2026-03-26T08:01:35.000Z</time>
      </trkpt>
      <trkpt lat="48.7317" lon="1.79769">
        <ele>219.5</ele>
        <time>2026-03-26T08:01:36.000Z</time>
      </trkpt>
      <trkpt lat="48.7317" lon="1.79769">
        <ele>219.3</ele>
        <time>2026-03-26T08:01:37.000Z</time>
      </trkpt>
      <trkpt lat="48.7317" lon="1.79769">
        <ele>219.3</ele>
        <time>2026-03-26T08:01:38.000Z</time>
      </trkpt>
      <trkpt lat="48.7317" lon="1.79769">
        <ele>219.3</ele>
        <time>2026-03-26T08:01:39.000Z</time>
      </trkpt>
      <trkpt lat="48.7317" lon="1.79769">
        <ele>219.3</ele>
        <time>2026-03-26T08:01:40.000Z</time>
      </trkpt>
      <trkpt lat="48.7317" lon="1.79769">
        <ele>219.3</ele>
        <time>2026-03-26T08:01:41.000Z</time>
      </trkpt>
      <trkpt lat="48.7317" lon="1.79769">
        <ele>219.3</ele>
        <time>2026-03-26T08:01:42.000Z</time>
      </trkpt>
      <trkpt lat="48.7317" lon="1.79769">
        <ele>219.3</ele>
        <time>2026-03-26T08:01:43.000Z</time>
      </trkpt>
      <trkpt lat="48.7317" lon="1.79769">
        <ele>219.3</ele>
        <time>2026-03-26T08:01:44.000Z</time>
      </trkpt>
      <trkpt lat="48.7317" lon="1.79769">
        <ele>219.3</ele>
        <time>2026-03-26T08:01:45.000Z</time>
      </trkpt>
      <trkpt lat="48.7317" lon="1.79769">
        <ele>219.3</ele>
        <time>2026-03-26T08:01:46.000Z</time>
      </trkpt>
      <trkpt lat="48.7317" lon="1.79769">
        <ele>219.3</ele>
        <time>2026-03-26T08:01:47.000Z</time>
      </trkpt>
      <trkpt lat="48.7317" lon="1.79769">
        <ele>219.3</ele>
        <time>2026-03-26T08:01:48.000Z</time>
      </trkpt>
      <trkpt lat="48.7317" lon="1.79769">
        <ele>219.3</ele>
        <time>2026-03-26T08:01:49.000Z</time>
      </trkpt>
      <trkpt lat="48.7317" lon="1.79769">
        <ele>219.3</ele>
        <time>2026-03-26T08:01:50.000Z</time>
      </trkpt>
      <trkpt lat="48.7317" lon="1.79769">
        <ele>219.3</ele>
        <time>2026-03-26T08:01:51.000Z</time>
      </trkpt>
      <trkpt lat="48.7317" lon="1.79769">
        <ele>219.3</ele>
        <time>2026-03-26T08:01:52.000Z</time>
      </trkpt>
      <trkpt lat="48.7317" lon="1.79769">
        <ele>219.3</ele>
        <time>2026-03-26T08:01:53.000Z</time>
      </trkpt>
      <trkpt lat="48.7317" lon="1.79769">
        <ele>219.3</ele>
        <time>2026-03-26T08:01:54.000Z</time>
      </trkpt>
      <trkpt lat="48.7317" lon="1.79769">
        <ele>219.3</ele>
        <time>2026-03-26T08:01:55.000Z</time>
      </trkpt>
      <trkpt lat="48.7317" lon="1.79769">
        <ele>219.3</ele>
        <time>2026-03-26T08:01:56.000Z</time>
      </trkpt>
      <trkpt lat="48.7317" lon="1.79769">
        <ele>219.3</ele>
        <time>2026-03-26T08:01:57.000Z</time>
      </trkpt>
      <trkpt lat="48.7317" lon="1.79769">
        <ele>219.3</ele>
        <time>2026-03-26T08:01:58.000Z</time>
      </trkpt>
      <trkpt lat="48.7317" lon="1.79769">
        <ele>219.3</ele>
        <time>2026-03-26T08:01:59.000Z</time>
      </trkpt>
      <trkpt lat="48.7317" lon="1.79769">
        <ele>219.3</ele>
        <time>2026-03-26T08:02:00.000Z</time>
      </trkpt>
      <trkpt lat="48.7317" lon="1.79769">
        <ele>219.3</ele>
        <time>2026-03-26T08:02:01.000Z</time>
      </trkpt>
      <trkpt lat="48.7317" lon="1.79769">
        <ele>219.3</ele>
        <time>2026-03-26T08:02:02.000Z</time>
      </trkpt>
      <trkpt lat="48.7317" lon="1.79769">
        <ele>219.3</ele>
        <time>2026-03-26T08:02:03.000Z</time>
      </trkpt>
      <trkpt lat="48.7317" lon="1.79769">
        <ele>219.3</ele>
        <time>2026-03-26T08:02:04.000Z</time>
      </trkpt>
      <trkpt lat="48.7317" lon="1.79769">
        <ele>219.3</ele>
        <time>2026-03-26T08:02:05.000Z</time>
      </trkpt>
      <trkpt lat="48.7317" lon="1.79769">
        <ele>219.3</ele>
        <time>2026-03-26T08:02:06.000Z</time>
      </trkpt>
      <trkpt lat="48.7317" lon="1.79769">
        <ele>219.3</ele>
        <time>2026-03-26T08:02:07.000Z</time>
      </trkpt>
      <trkpt lat="48.7317" lon="1.79769">
        <ele>219.3</ele>
        <time>2026-03-26T08:02:08.000Z</time>
      </trkpt>
      <trkpt lat="48.7317" lon="1.79769">
        <ele>219.3</ele>
        <time>2026-03-26T08:02:09.000Z</time>
      </trkpt>
      <trkpt lat="48.7317" lon="1.79769">
        <ele>219.3</ele>
        <time>2026-03-26T08:02:10.000Z</time>
      </trkpt>
      <trkpt lat="48.7317" lon="1.79769">
        <ele>219.3</ele>
        <time>2026-03-26T08:02:11.000Z</time>
      </trkpt>
      <trkpt lat="48.7317" lon="1.79769">
        <ele>219.3</ele>
        <time>2026-03-26T08:02:12.000Z</time>
      </trkpt>
      <trkpt lat="48.7317" lon="1.79769">
        <ele>219.3</ele>
        <time>2026-03-26T08:02:13.000Z</time>
      </trkpt>
      <trkpt lat="48.7317" lon="1.79769">
        <ele>219.3</ele>
        <time>2026-03-26T08:02:14.000Z</time>
      </trkpt>
      <trkpt lat="48.7317" lon="1.79769">
        <ele>219.3</ele>
        <time>2026-03-26T08:02:15.000Z</time>
      </trkpt>
      <trkpt lat="48.7317" lon="1.79768">
        <ele>219.3</ele>
        <time>2026-03-26T08:02:16.000Z</time>
      </trkpt>
      <trkpt lat="48.7317" lon="1.79768">
        <ele>219.3</ele>
        <time>2026-03-26T08:02:17.000Z</time>
      </trkpt>
      <trkpt lat="48.7317" lon="1.79768">
        <ele>219.3</ele>
        <time>2026-03-26T08:02:18.000Z</time>
      </trkpt>
      <trkpt lat="48.7317" lon="1.79768">
        <ele>219.3</ele>
        <time>2026-03-26T08:02:19.000Z</time>
      </trkpt>
      <trkpt lat="48.7317" lon="1.79768">
        <ele>219.3</ele>
        <time>2026-03-26T08:02:20.000Z</time>
      </trkpt>
      <trkpt lat="48.7317" lon="1.79768">
        <ele>219.3</ele>
        <time>2026-03-26T08:02:21.000Z</time>
      </trkpt>
      <trkpt lat="48.7317" lon="1.79768">
        <ele>219.3</ele>
        <time>2026-03-26T08:02:22.000Z</time>
      </trkpt>
      <trkpt lat="48.7317" lon="1.79768">
        <ele>219.3</ele>
        <time>2026-03-26T08:02:23.000Z</time>
      </trkpt>
      <trkpt lat="48.7317" lon="1.79768">
        <ele>219.3</ele>
        <time>2026-03-26T08:02:24.000Z</time>
      </trkpt>
      <trkpt lat="48.7317" lon="1.79768">
        <ele>219.4</ele>
        <time>2026-03-26T08:02:25.000Z</time>
      </trkpt>
      <trkpt lat="48.73171" lon="1.79768">
        <ele>219.4</ele>
        <time>2026-03-26T08:02:26.000Z</time>
      </trkpt>
      <trkpt lat="48.73171" lon="1.79768">
        <ele>219.2</ele>
        <time>2026-03-26T08:02:27.000Z</time>
      </trkpt>
      <trkpt lat="48.73171" lon="1.79768">
        <ele>219.2</ele>
        <time>2026-03-26T08:02:28.000Z</time>
      </trkpt>
      <trkpt lat="48.73171" lon="1.79768">
        <ele>219.2</ele>
        <time>2026-03-26T08:02:29.000Z</time>
      </trkpt>
      <trkpt lat="48.73171" lon="1.79768">
        <ele>219.2</ele>
        <time>2026-03-26T08:02:30.000Z</time>
      </trkpt>
      <trkpt lat="48.73171" lon="1.79768">
        <ele>219.2</ele>
        <time>2026-03-26T08:02:31.000Z</time>
      </trkpt>
      <trkpt lat="48.73171" lon="1.79768">
        <ele>219.2</ele>
        <time>2026-03-26T08:02:32.000Z</time>
      </trkpt>
      <trkpt lat="48.73171" lon="1.79768">
        <ele>219.2</ele>
        <time>2026-03-26T08:02:33.000Z</time>
      </trkpt>
      <trkpt lat="48.73171" lon="1.79768">
        <ele>219.1</ele>
        <time>2026-03-26T08:02:34.000Z</time>
      </trkpt>
      <trkpt lat="48.73171" lon="1.79768">
        <ele>219.2</ele>
        <time>2026-03-26T08:02:35.000Z</time>
      </trkpt>
      <trkpt lat="48.73171" lon="1.79768">
        <ele>219.2</ele>
        <time>2026-03-26T08:02:36.000Z</time>
      </trkpt>
      <trkpt lat="48.73171" lon="1.79768">
        <ele>219.2</ele>
        <time>2026-03-26T08:02:37.000Z</time>
      </trkpt>
      <trkpt lat="48.73171" lon="1.79768">
        <ele>219.2</ele>
        <time>2026-03-26T08:02:38.000Z</time>
      </trkpt>
      <trkpt lat="48.73171" lon="1.79768">
        <ele>219.2</ele>
        <time>2026-03-26T08:02:39.000Z</time>
      </trkpt>
      <trkpt lat="48.73171" lon="1.79768">
        <ele>219.2</ele>
        <time>2026-03-26T08:02:40.000Z</time>
      </trkpt>
      <trkpt lat="48.73171" lon="1.79768">
        <ele>219.2</ele>
        <time>2026-03-26T08:02:41.000Z</time>
      </trkpt>
      <trkpt lat="48.73171" lon="1.79768">
        <ele>219.2</ele>
        <time>2026-03-26T08:02:42.000Z</time>
      </trkpt>
      <trkpt lat="48.73171" lon="1.79768">
        <ele>219.2</ele>
        <time>2026-03-26T08:02:43.000Z</time>
      </trkpt>
      <trkpt lat="48.73171" lon="1.79768">
        <ele>219.2</ele>
        <time>2026-03-26T08:02:44.000Z</time>
      </trkpt>
      <trkpt lat="48.73171" lon="1.79768">
        <ele>219.2</ele>
        <time>2026-03-26T08:02:45.000Z</time>
      </trkpt>
      <trkpt lat="48.73171" lon="1.79768">
        <ele>219.2</ele>
        <time>2026-03-26T08:02:46.000Z</time>
      </trkpt>
      <trkpt lat="48.73171" lon="1.79768">
        <ele>219.2</ele>
        <time>2026-03-26T08:02:47.000Z</time>
      </trkpt>
      <trkpt lat="48.73171" lon="1.79768">
        <ele>219.2</ele>
        <time>2026-03-26T08:02:48.000Z</time>
      </trkpt>
      <trkpt lat="48.73171" lon="1.79768">
        <ele>219.2</ele>
        <time>2026-03-26T08:02:49.000Z</time>
      </trkpt>
      <trkpt lat="48.73171" lon="1.79768">
        <ele>219.2</ele>
        <time>2026-03-26T08:02:50.000Z</time>
      </trkpt>
      <trkpt lat="48.73171" lon="1.79768">
        <ele>219.2</ele>
        <time>2026-03-26T08:02:51.000Z</time>
      </trkpt>
      <trkpt lat="48.73171" lon="1.79768">
        <ele>219.2</ele>
        <time>2026-03-26T08:02:52.000Z</time>
      </trkpt>
      <trkpt lat="48.73171" lon="1.79768">
        <ele>219.2</ele>
        <time>2026-03-26T08:02:53.000Z</time>
      </trkpt>
      <trkpt lat="48.73171" lon="1.79768">
        <ele>219.2</ele>
        <time>2026-03-26T08:02:54.000Z</time>
      </trkpt>
      <trkpt lat="48.73171" lon="1.79769">
        <ele>219.3</ele>
        <time>2026-03-26T08:02:55.000Z</time>
      </trkpt>
      <trkpt lat="48.7317" lon="1.7977">
        <ele>219.3</ele>
        <time>2026-03-26T08:02:56.000Z</time>
      </trkpt>
      <trkpt lat="48.7317" lon="1.79771">
        <ele>219.3</ele>
        <time>2026-03-26T08:02:57.000Z</time>
      </trkpt>
      <trkpt lat="48.7317" lon="1.79772">
        <ele>219.6</ele>
        <time>2026-03-26T08:02:58.000Z</time>
      </trkpt>
      <trkpt lat="48.7317" lon="1.79774">
        <ele>219.4</ele>
        <time>2026-03-26T08:02:59.000Z</time>
      </trkpt>
      <trkpt lat="48.7317" lon="1.79775">
        <ele>219.2</ele>
        <time>2026-03-26T08:03:00.000Z</time>
      </trkpt>
      <trkpt lat="48.7317" lon="1.79777">
        <ele>219.6</ele>
        <time>2026-03-26T08:03:01.000Z</time>
      </trkpt>
      <trkpt lat="48.7317" lon="1.79778">
        <ele>219.8</ele>
        <time>2026-03-26T08:03:02.000Z</time>
      </trkpt>
      <trkpt lat="48.7317" lon="1.79779">
        <ele>220</ele>
        <time>2026-03-26T08:03:03.000Z</time>
      </trkpt>
      <trkpt lat="48.7317" lon="1.79779">
        <ele>220</ele>
        <time>2026-03-26T08:03:04.000Z</time>
      </trkpt>
      <trkpt lat="48.7317" lon="1.79779">
        <ele>220</ele>
        <time>2026-03-26T08:03:05.000Z</time>
      </trkpt>
      <trkpt lat="48.7317" lon="1.79779">
        <ele>220</ele>
        <time>2026-03-26T08:03:06.000Z</time>
      </trkpt>
      <trkpt lat="48.7317" lon="1.79779">
        <ele>220</ele>
        <time>2026-03-26T08:03:07.000Z</time>
      </trkpt>
      <trkpt lat="48.7317" lon="1.79779">
        <ele>220</ele>
        <time>2026-03-26T08:03:08.000Z</time>
      </trkpt>
      <trkpt lat="48.7317" lon="1.79779">
        <ele>220</ele>
        <time>2026-03-26T08:03:09.000Z</time>
      </trkpt>
      <trkpt lat="48.7317" lon="1.79779">
        <ele>220</ele>
        <time>2026-03-26T08:03:10.000Z</time>
      </trkpt>
      <trkpt lat="48.7317" lon="1.79779">
        <ele>220</ele>
        <time>2026-03-26T08:03:11.000Z</time>
      </trkpt>
      <trkpt lat="48.7317" lon="1.79779">
        <ele>220</ele>
        <time>2026-03-26T08:03:12.000Z</time>
      </trkpt>
      <trkpt lat="48.7317" lon="1.79779">
        <ele>220</ele>
        <time>2026-03-26T08:03:13.000Z</time>
      </trkpt>
      <trkpt lat="48.7317" lon="1.79779">
        <ele>220</ele>
        <time>2026-03-26T08:03:14.000Z</time>
      </trkpt>
      <trkpt lat="48.7317" lon="1.79779">
        <ele>220</ele>
        <time>2026-03-26T08:03:15.000Z</time>
      </trkpt>
      <trkpt lat="48.7317" lon="1.79779">
        <ele>220</ele>
        <time>2026-03-26T08:03:16.000Z</time>
      </trkpt>
      <trkpt lat="48.7317" lon="1.79779">
        <ele>220</ele>
        <time>2026-03-26T08:03:17.000Z</time>
      </trkpt>
      <trkpt lat="48.7317" lon="1.79779">
        <ele>220</ele>
        <time>2026-03-26T08:03:18.000Z</time>
      </trkpt>
      <trkpt lat="48.7317" lon="1.79779">
        <ele>220</ele>
        <time>2026-03-26T08:03:19.000Z</time>
      </trkpt>
      <trkpt lat="48.7317" lon="1.79779">
        <ele>220</ele>
        <time>2026-03-26T08:03:20.000Z</time>
      </trkpt>
      <trkpt lat="48.7317" lon="1.79779">
        <ele>220</ele>
        <time>2026-03-26T08:03:21.000Z</time>
      </trkpt>
      <trkpt lat="48.7317" lon="1.79779">
        <ele>220</ele>
        <time>2026-03-26T08:03:22.000Z</time>
      </trkpt>
      <trkpt lat="48.7317" lon="1.79779">
        <ele>220</ele>
        <time>2026-03-26T08:03:23.000Z</time>
      </trkpt>
      <trkpt lat="48.7317" lon="1.79779">
        <ele>220.3</ele>
        <time>2026-03-26T08:03:24.000Z</time>
      </trkpt>
      <trkpt lat="48.7317" lon="1.79778">
        <ele>220.6</ele>
        <time>2026-03-26T08:03:25.000Z</time>
      </trkpt>
      <trkpt lat="48.7317" lon="1.79778">
        <ele>220.6</ele>
        <time>2026-03-26T08:03:26.000Z</time>
      </trkpt>
      <trkpt lat="48.7317" lon="1.79778">
        <ele>221.1</ele>
        <time>2026-03-26T08:03:27.000Z</time>
      </trkpt>
      <trkpt lat="48.7317" lon="1.79779">
        <ele>221.1</ele>
        <time>2026-03-26T08:03:28.000Z</time>
      </trkpt>
      <trkpt lat="48.7317" lon="1.79779">
        <ele>221.1</ele>
        <time>2026-03-26T08:03:29.000Z</time>
      </trkpt>
      <trkpt lat="48.7317" lon="1.79779">
        <ele>221.1</ele>
        <time>2026-03-26T08:03:30.000Z</time>
      </trkpt>
      <trkpt lat="48.7317" lon="1.79779">
        <ele>221.1</ele>
        <time>2026-03-26T08:03:31.000Z</time>
      </trkpt>
      <trkpt lat="48.7317" lon="1.79779">
        <ele>221.1</ele>
        <time>2026-03-26T08:03:32.000Z</time>
      </trkpt>
      <trkpt lat="48.7317" lon="1.79779">
        <ele>221.1</ele>
        <time>2026-03-26T08:03:33.000Z</time>
      </trkpt>
      <trkpt lat="48.7317" lon="1.79779">
        <ele>221.1</ele>
        <time>2026-03-26T08:03:34.000Z</time>
      </trkpt>
      <trkpt lat="48.7317" lon="1.79779">
        <ele>221.1</ele>
        <time>2026-03-26T08:03:35.000Z</time>
      </trkpt>
      <trkpt lat="48.7317" lon="1.79779">
        <ele>221.1</ele>
        <time>2026-03-26T08:03:36.000Z</time>
      </trkpt>
      <trkpt lat="48.7317" lon="1.79779">
        <ele>221.1</ele>
        <time>2026-03-26T08:03:37.000Z</time>
      </trkpt>
      <trkpt lat="48.7317" lon="1.79779">
        <ele>221.1</ele>
        <time>2026-03-26T08:03:38.000Z</time>
      </trkpt>
      <trkpt lat="48.7317" lon="1.79779">
        <ele>221.1</ele>
        <time>2026-03-26T08:03:39.000Z</time>
      </trkpt>
      <trkpt lat="48.7317" lon="1.79779">
        <ele>221.1</ele>
        <time>2026-03-26T08:03:40.000Z</time>
      </trkpt>
      <trkpt lat="48.7317" lon="1.79779">
        <ele>221.1</ele>
        <time>2026-03-26T08:03:41.000Z</time>
      </trkpt>
      <trkpt lat="48.7317" lon="1.79779">
        <ele>221.1</ele>
        <time>2026-03-26T08:03:42.000Z</time>
      </trkpt>
      <trkpt lat="48.7317" lon="1.79779">
        <ele>221.1</ele>
        <time>2026-03-26T08:03:43.000Z</time>
      </trkpt>
      <trkpt lat="48.7317" lon="1.79779">
        <ele>221.1</ele>
        <time>2026-03-26T08:03:44.000Z</time>
      </trkpt>
      <trkpt lat="48.7317" lon="1.79779">
        <ele>221.1</ele>
        <time>2026-03-26T08:03:45.000Z</time>
      </trkpt>
      <trkpt lat="48.7317" lon="1.79779">
        <ele>221.1</ele>
        <time>2026-03-26T08:03:46.000Z</time>
      </trkpt>
      <trkpt lat="48.7317" lon="1.79779">
        <ele>221.1</ele>
        <time>2026-03-26T08:03:47.000Z</time>
      </trkpt>
      <trkpt lat="48.7317" lon="1.79779">
        <ele>221.1</ele>
        <time>2026-03-26T08:03:48.000Z</time>
      </trkpt>
      <trkpt lat="48.7317" lon="1.79779">
        <ele>221</ele>
        <time>2026-03-26T08:03:49.000Z</time>
      </trkpt>
      <trkpt lat="48.7317" lon="1.79779">
        <ele>221</ele>
        <time>2026-03-26T08:03:50.000Z</time>
      </trkpt>
      <trkpt lat="48.7317" lon="1.79779">
        <ele>221</ele>
        <time>2026-03-26T08:03:51.000Z</time>
      </trkpt>
      <trkpt lat="48.7317" lon="1.79779">
        <ele>221</ele>
        <time>2026-03-26T08:03:52.000Z</time>
      </trkpt>
      <trkpt lat="48.7317" lon="1.79778">
        <ele>220.7</ele>
        <time>2026-03-26T08:03:53.000Z</time>
      </trkpt>
      <trkpt lat="48.7317" lon="1.79777">
        <ele>220.7</ele>
        <time>2026-03-26T08:03:54.000Z</time>
      </trkpt>
      <trkpt lat="48.7317" lon="1.79776">
        <ele>220.5</ele>
        <time>2026-03-26T08:03:55.000Z</time>
      </trkpt>
      <trkpt lat="48.73171" lon="1.79775">
        <ele>220.5</ele>
        <time>2026-03-26T08:03:56.000Z</time>
      </trkpt>
      <trkpt lat="48.73171" lon="1.79773">
        <ele>220.2</ele>
        <time>2026-03-26T08:03:57.000Z</time>
      </trkpt>
      <trkpt lat="48.73171" lon="1.79772">
        <ele>220</ele>
        <time>2026-03-26T08:03:58.000Z</time>
      </trkpt>
      <trkpt lat="48.73172" lon="1.79771">
        <ele>219.8</ele>
        <time>2026-03-26T08:03:59.000Z</time>
      </trkpt>
      <trkpt lat="48.73172" lon="1.79769">
        <ele>219.7</ele>
        <time>2026-03-26T08:04:00.000Z</time>
      </trkpt>
      <trkpt lat="48.73172" lon="1.79768">
        <ele>219.8</ele>
        <time>2026-03-26T08:04:01.000Z</time>
      </trkpt>
      <trkpt lat="48.73173" lon="1.79767">
        <ele>219.8</ele>
        <time>2026-03-26T08:04:02.000Z</time>
      </trkpt>
      <trkpt lat="48.73173" lon="1.79766">
        <ele>219.8</ele>
        <time>2026-03-26T08:04:03.000Z</time>
      </trkpt>
      <trkpt lat="48.73173" lon="1.79765">
        <ele>219.6</ele>
        <time>2026-03-26T08:04:04.000Z</time>
      </trkpt>
      <trkpt lat="48.73173" lon="1.79764">
        <ele>219.6</ele>
        <time>2026-03-26T08:04:05.000Z</time>
      </trkpt>
      <trkpt lat="48.73174" lon="1.79763">
        <ele>219.3</ele>
        <time>2026-03-26T08:04:06.000Z</time>
      </trkpt>
      <trkpt lat="48.73174" lon="1.79763">
        <ele>219.1</ele>
        <time>2026-03-26T08:04:07.000Z</time>
      </trkpt>
      <trkpt lat="48.73174" lon="1.79762">
        <ele>219.1</ele>
        <time>2026-03-26T08:04:08.000Z</time>
      </trkpt>
      <trkpt lat="48.73174" lon="1.79761">
        <ele>219.1</ele>
        <time>2026-03-26T08:04:09.000Z</time>
      </trkpt>
      <trkpt lat="48.73175" lon="1.7976">
        <ele>219.2</ele>
        <time>2026-03-26T08:04:10.000Z</time>
      </trkpt>
      <trkpt lat="48.73175" lon="1.79759">
        <ele>218.8</ele>
        <time>2026-03-26T08:04:11.000Z</time>
      </trkpt>
      <trkpt lat="48.73175" lon="1.79758">
        <ele>218.7</ele>
        <time>2026-03-26T08:04:12.000Z</time>
      </trkpt>
      <trkpt lat="48.73175" lon="1.79756">
        <ele>218.4</ele>
        <time>2026-03-26T08:04:13.000Z</time>
      </trkpt>
      <trkpt lat="48.73175" lon="1.79755">
        <ele>218.3</ele>
        <time>2026-03-26T08:04:14.000Z</time>
      </trkpt>
      <trkpt lat="48.73175" lon="1.79753">
        <ele>218.3</ele>
        <time>2026-03-26T08:04:15.000Z</time>
      </trkpt>
      <trkpt lat="48.73176" lon="1.79751">
        <ele>218.3</ele>
        <time>2026-03-26T08:04:16.000Z</time>
      </trkpt>
      <trkpt lat="48.73176" lon="1.7975">
        <ele>218.5</ele>
        <time>2026-03-26T08:04:17.000Z</time>
      </trkpt>
      <trkpt lat="48.73177" lon="1.79749">
        <ele>218.7</ele>
        <time>2026-03-26T08:04:18.000Z</time>
      </trkpt>
      <trkpt lat="48.73177" lon="1.79747">
        <ele>218.5</ele>
        <time>2026-03-26T08:04:19.000Z</time>
      </trkpt>
      <trkpt lat="48.73177" lon="1.79746">
        <ele>218.7</ele>
        <time>2026-03-26T08:04:20.000Z</time>
      </trkpt>
      <trkpt lat="48.73178" lon="1.79745">
        <ele>218.6</ele>
        <time>2026-03-26T08:04:21.000Z</time>
      </trkpt>
      <trkpt lat="48.73178" lon="1.79744">
        <ele>218.4</ele>
        <time>2026-03-26T08:04:22.000Z</time>
      </trkpt>
      <trkpt lat="48.73178" lon="1.79742">
        <ele>218.3</ele>
        <time>2026-03-26T08:04:23.000Z</time>
      </trkpt>
      <trkpt lat="48.73179" lon="1.79741">
        <ele>218.2</ele>
        <time>2026-03-26T08:04:24.000Z</time>
      </trkpt>
      <trkpt lat="48.73179" lon="1.7974">
        <ele>218.4</ele>
        <time>2026-03-26T08:04:25.000Z</time>
      </trkpt>
      <trkpt lat="48.7318" lon="1.79738">
        <ele>218.6</ele>
        <time>2026-03-26T08:04:26.000Z</time>
      </trkpt>
      <trkpt lat="48.7318" lon="1.79737">
        <ele>218.7</ele>
        <time>2026-03-26T08:04:27.000Z</time>
      </trkpt>
      <trkpt lat="48.7318" lon="1.79735">
        <ele>218.6</ele>
        <time>2026-03-26T08:04:28.000Z</time>
      </trkpt>
      <trkpt lat="48.73181" lon="1.79734">
        <ele>218.6</ele>
        <time>2026-03-26T08:04:29.000Z</time>
      </trkpt>
      <trkpt lat="48.73181" lon="1.79733">
        <ele>218.4</ele>
        <time>2026-03-26T08:04:30.000Z</time>
      </trkpt>
      <trkpt lat="48.73181" lon="1.79731">
        <ele>218.3</ele>
        <time>2026-03-26T08:04:31.000Z</time>
      </trkpt>
      <trkpt lat="48.73182" lon="1.7973">
        <ele>218.4</ele>
        <time>2026-03-26T08:04:32.000Z</time>
      </trkpt>
      <trkpt lat="48.73182" lon="1.79729">
        <ele>218.4</ele>
        <time>2026-03-26T08:04:33.000Z</time>
      </trkpt>
      <trkpt lat="48.73182" lon="1.79728">
        <ele>218.6</ele>
        <time>2026-03-26T08:04:34.000Z</time>
      </trkpt>
      <trkpt lat="48.73182" lon="1.79726">
        <ele>218.4</ele>
        <time>2026-03-26T08:04:35.000Z</time>
      </trkpt>
      <trkpt lat="48.73183" lon="1.79725">
        <ele>218.1</ele>
        <time>2026-03-26T08:04:36.000Z</time>
      </trkpt>
      <trkpt lat="48.73183" lon="1.79724">
        <ele>218.1</ele>
        <time>2026-03-26T08:04:37.000Z</time>
      </trkpt>
      <trkpt lat="48.73184" lon="1.79723">
        <ele>217.9</ele>
        <time>2026-03-26T08:04:38.000Z</time>
      </trkpt>
      <trkpt lat="48.73184" lon="1.79721">
        <ele>218.2</ele>
        <time>2026-03-26T08:04:39.000Z</time>
      </trkpt>
      <trkpt lat="48.73185" lon="1.7972">
        <ele>218.1</ele>
        <time>2026-03-26T08:04:40.000Z</time>
      </trkpt>
      <trkpt lat="48.73185" lon="1.79719">
        <ele>218.2</ele>
        <time>2026-03-26T08:04:41.000Z</time>
      </trkpt>
      <trkpt lat="48.73186" lon="1.79718">
        <ele>218.1</ele>
        <time>2026-03-26T08:04:42.000Z</time>
      </trkpt>
      <trkpt lat="48.73187" lon="1.79717">
        <ele>218</ele>
        <time>2026-03-26T08:04:43.000Z</time>
      </trkpt>
      <trkpt lat="48.73188" lon="1.79716">
        <ele>217.9</ele>
        <time>2026-03-26T08:04:44.000Z</time>
      </trkpt>
      <trkpt lat="48.73188" lon="1.79715">
        <ele>217.9</ele>
        <time>2026-03-26T08:04:45.000Z</time>
      </trkpt>
      <trkpt lat="48.73189" lon="1.79713">
        <ele>218</ele>
        <time>2026-03-26T08:04:46.000Z</time>
      </trkpt>
      <trkpt lat="48.7319" lon="1.79712">
        <ele>218.3</ele>
        <time>2026-03-26T08:04:47.000Z</time>
      </trkpt>
      <trkpt lat="48.7319" lon="1.7971">
        <ele>218.5</ele>
        <time>2026-03-26T08:04:48.000Z</time>
      </trkpt>
      <trkpt lat="48.73191" lon="1.79709">
        <ele>218.4</ele>
        <time>2026-03-26T08:04:49.000Z</time>
      </trkpt>
      <trkpt lat="48.73191" lon="1.79707">
        <ele>218.6</ele>
        <time>2026-03-26T08:04:50.000Z</time>
      </trkpt>
      <trkpt lat="48.73192" lon="1.79706">
        <ele>218.6</ele>
        <time>2026-03-26T08:04:51.000Z</time>
      </trkpt>
      <trkpt lat="48.73192" lon="1.79704">
        <ele>218.6</ele>
        <time>2026-03-26T08:04:52.000Z</time>
      </trkpt>
      <trkpt lat="48.73193" lon="1.79703">
        <ele>218.5</ele>
        <time>2026-03-26T08:04:53.000Z</time>
      </trkpt>
      <trkpt lat="48.73193" lon="1.79701">
        <ele>218.4</ele>
        <time>2026-03-26T08:04:54.000Z</time>
      </trkpt>
      <trkpt lat="48.73194" lon="1.79699">
        <ele>218.5</ele>
        <time>2026-03-26T08:04:55.000Z</time>
      </trkpt>
      <trkpt lat="48.73194" lon="1.79697">
        <ele>218.4</ele>
        <time>2026-03-26T08:04:56.000Z</time>
      </trkpt>
      <trkpt lat="48.73194" lon="1.79695">
        <ele>218.2</ele>
        <time>2026-03-26T08:04:57.000Z</time>
      </trkpt>
      <trkpt lat="48.73194" lon="1.79693">
        <ele>218.1</ele>
        <time>2026-03-26T08:04:58.000Z</time>
      </trkpt>
      <trkpt lat="48.73195" lon="1.79691">
        <ele>218.3</ele>
        <time>2026-03-26T08:04:59.000Z</time>
      </trkpt>
      <trkpt lat="48.73195" lon="1.79689">
        <ele>218.4</ele>
        <time>2026-03-26T08:05:00.000Z</time>
      </trkpt>
      <trkpt lat="48.73196" lon="1.79687">
        <ele>218.3</ele>
        <time>2026-03-26T08:05:01.000Z</time>
      </trkpt>
      <trkpt lat="48.73196" lon="1.79685">
        <ele>218.5</ele>
        <time>2026-03-26T08:05:02.000Z</time>
      </trkpt>
      <trkpt lat="48.73196" lon="1.79683">
        <ele>218.6</ele>
        <time>2026-03-26T08:05:03.000Z</time>
      </trkpt>
      <trkpt lat="48.73196" lon="1.79681">
        <ele>218.9</ele>
        <time>2026-03-26T08:05:04.000Z</time>
      </trkpt>
      <trkpt lat="48.73197" lon="1.79679">
        <ele>218.7</ele>
        <time>2026-03-26T08:05:05.000Z</time>
      </trkpt>
      <trkpt lat="48.73197" lon="1.79677">
        <ele>219</ele>
        <time>2026-03-26T08:05:06.000Z</time>
      </trkpt>
      <trkpt lat="48.73197" lon="1.79675">
        <ele>219.4</ele>
        <time>2026-03-26T08:05:07.000Z</time>
      </trkpt>
      <trkpt lat="48.73197" lon="1.79673">
        <ele>219.4</ele>
        <time>2026-03-26T08:05:08.000Z</time>
      </trkpt>
      <trkpt lat="48.73197" lon="1.79672">
        <ele>219.4</ele>
        <time>2026-03-26T08:05:09.000Z</time>
      </trkpt>
      <trkpt lat="48.73197" lon="1.7967">
        <ele>219.9</ele>
        <time>2026-03-26T08:05:10.000Z</time>
      </trkpt>
      <trkpt lat="48.73197" lon="1.79668">
        <ele>219.8</ele>
        <time>2026-03-26T08:05:11.000Z</time>
      </trkpt>
      <trkpt lat="48.73198" lon="1.79666">
        <ele>219.8</ele>
        <time>2026-03-26T08:05:12.000Z</time>
      </trkpt>
      <trkpt lat="48.73198" lon="1.79664">
        <ele>219.8</ele>
        <time>2026-03-26T08:05:13.000Z</time>
      </trkpt>
      <trkpt lat="48.73198" lon="1.79662">
        <ele>219.6</ele>
        <time>2026-03-26T08:05:14.000Z</time>
      </trkpt>
      <trkpt lat="48.73198" lon="1.7966">
        <ele>219.6</ele>
        <time>2026-03-26T08:05:15.000Z</time>
      </trkpt>
      <trkpt lat="48.73198" lon="1.79658">
        <ele>219.6</ele>
        <time>2026-03-26T08:05:16.000Z</time>
      </trkpt>
      <trkpt lat="48.73199" lon="1.79656">
        <ele>219.3</ele>
        <time>2026-03-26T08:05:17.000Z</time>
      </trkpt>
      <trkpt lat="48.73199" lon="1.79654">
        <ele>219.4</ele>
        <time>2026-03-26T08:05:18.000Z</time>
      </trkpt>
      <trkpt lat="48.73199" lon="1.79652">
        <ele>219.8</ele>
        <time>2026-03-26T08:05:19.000Z</time>
      </trkpt>
      <trkpt lat="48.732" lon="1.7965">
        <ele>219.8</ele>
        <time>2026-03-26T08:05:20.000Z</time>
      </trkpt>
      <trkpt lat="48.732" lon="1.79648">
        <ele>219.8</ele>
        <time>2026-03-26T08:05:21.000Z</time>
      </trkpt>
      <trkpt lat="48.732" lon="1.79646">
        <ele>219.9</ele>
        <time>2026-03-26T08:05:22.000Z</time>
      </trkpt>
      <trkpt lat="48.73201" lon="1.79645">
        <ele>219.7</ele>
        <time>2026-03-26T08:05:23.000Z</time>
      </trkpt>
      <trkpt lat="48.73202" lon="1.79644">
        <ele>219.7</ele>
        <time>2026-03-26T08:05:24.000Z</time>
      </trkpt>
      <trkpt lat="48.73203" lon="1.79643">
        <ele>220</ele>
        <time>2026-03-26T08:05:25.000Z</time>
      </trkpt>
      <trkpt lat="48.73203" lon="1.79642">
        <ele>219.7</ele>
        <time>2026-03-26T08:05:26.000Z</time>
      </trkpt>
      <trkpt lat="48.73204" lon="1.7964">
        <ele>219.8</ele>
        <time>2026-03-26T08:05:27.000Z</time>
      </trkpt>
      <trkpt lat="48.73204" lon="1.79638">
        <ele>220</ele>
        <time>2026-03-26T08:05:28.000Z</time>
      </trkpt>
      <trkpt lat="48.73204" lon="1.79636">
        <ele>220</ele>
        <time>2026-03-26T08:05:29.000Z</time>
      </trkpt>
      <trkpt lat="48.73204" lon="1.79635">
        <ele>220.1</ele>
        <time>2026-03-26T08:05:30.000Z</time>
      </trkpt>
      <trkpt lat="48.73205" lon="1.79633">
        <ele>220.1</ele>
        <time>2026-03-26T08:05:31.000Z</time>
      </trkpt>
      <trkpt lat="48.73206" lon="1.79632">
        <ele>220.1</ele>
        <time>2026-03-26T08:05:32.000Z</time>
      </trkpt>
      <trkpt lat="48.73206" lon="1.79631">
        <ele>220.1</ele>
        <time>2026-03-26T08:05:33.000Z</time>
      </trkpt>
      <trkpt lat="48.73207" lon="1.79629">
        <ele>220.3</ele>
        <time>2026-03-26T08:05:34.000Z</time>
      </trkpt>
      <trkpt lat="48.73208" lon="1.79628">
        <ele>220.4</ele>
        <time>2026-03-26T08:05:35.000Z</time>
      </trkpt>
      <trkpt lat="48.73209" lon="1.79627">
        <ele>220.1</ele>
        <time>2026-03-26T08:05:36.000Z</time>
      </trkpt>
      <trkpt lat="48.7321" lon="1.79626">
        <ele>219.8</ele>
        <time>2026-03-26T08:05:37.000Z</time>
      </trkpt>
      <trkpt lat="48.73211" lon="1.79625">
        <ele>219.8</ele>
        <time>2026-03-26T08:05:38.000Z</time>
      </trkpt>
      <trkpt lat="48.73212" lon="1.79623">
        <ele>219.5</ele>
        <time>2026-03-26T08:05:39.000Z</time>
      </trkpt>
      <trkpt lat="48.73212" lon="1.79622">
        <ele>219.7</ele>
        <time>2026-03-26T08:05:40.000Z</time>
      </trkpt>
      <trkpt lat="48.73213" lon="1.7962">
        <ele>219.6</ele>
        <time>2026-03-26T08:05:41.000Z</time>
      </trkpt>
      <trkpt lat="48.73213" lon="1.79619">
        <ele>219.6</ele>
        <time>2026-03-26T08:05:42.000Z</time>
      </trkpt>
      <trkpt lat="48.73213" lon="1.79617">
        <ele>219.2</ele>
        <time>2026-03-26T08:05:43.000Z</time>
      </trkpt>
      <trkpt lat="48.73213" lon="1.79615">
        <ele>218.8</ele>
        <time>2026-03-26T08:05:44.000Z</time>
      </trkpt>
      <trkpt lat="48.73213" lon="1.79614">
        <ele>218.5</ele>
        <time>2026-03-26T08:05:45.000Z</time>
      </trkpt>
      <trkpt lat="48.73213" lon="1.79612">
        <ele>218.5</ele>
        <time>2026-03-26T08:05:46.000Z</time>
      </trkpt>
      <trkpt lat="48.73214" lon="1.7961">
        <ele>219.1</ele>
        <time>2026-03-26T08:05:47.000Z</time>
      </trkpt>
      <trkpt lat="48.73214" lon="1.79608">
        <ele>219.3</ele>
        <time>2026-03-26T08:05:48.000Z</time>
      </trkpt>
      <trkpt lat="48.73215" lon="1.79607">
        <ele>219.4</ele>
        <time>2026-03-26T08:05:49.000Z</time>
      </trkpt>
      <trkpt lat="48.73216" lon="1.79605">
        <ele>219.5</ele>
        <time>2026-03-26T08:05:50.000Z</time>
      </trkpt>
      <trkpt lat="48.73216" lon="1.79603">
        <ele>219.4</ele>
        <time>2026-03-26T08:05:51.000Z</time>
      </trkpt>
      <trkpt lat="48.73217" lon="1.79602">
        <ele>219.5</ele>
        <time>2026-03-26T08:05:52.000Z</time>
      </trkpt>
      <trkpt lat="48.73217" lon="1.796">
        <ele>219.1</ele>
        <time>2026-03-26T08:05:53.000Z</time>
      </trkpt>
      <trkpt lat="48.73217" lon="1.79598">
        <ele>219</ele>
        <time>2026-03-26T08:05:54.000Z</time>
      </trkpt>
      <trkpt lat="48.73217" lon="1.79597">
        <ele>218.6</ele>
        <time>2026-03-26T08:05:55.000Z</time>
      </trkpt>
      <trkpt lat="48.73218" lon="1.79595">
        <ele>218.5</ele>
        <time>2026-03-26T08:05:56.000Z</time>
      </trkpt>
      <trkpt lat="48.73219" lon="1.79594">
        <ele>218.3</ele>
        <time>2026-03-26T08:05:57.000Z</time>
      </trkpt>
      <trkpt lat="48.73219" lon="1.79592">
        <ele>218.5</ele>
        <time>2026-03-26T08:05:58.000Z</time>
      </trkpt>
      <trkpt lat="48.7322" lon="1.79591">
        <ele>218.4</ele>
        <time>2026-03-26T08:05:59.000Z</time>
      </trkpt>
      <trkpt lat="48.73221" lon="1.79589">
        <ele>218</ele>
        <time>2026-03-26T08:06:00.000Z</time>
      </trkpt>
      <trkpt lat="48.73222" lon="1.79587">
        <ele>217.8</ele>
        <time>2026-03-26T08:06:01.000Z</time>
      </trkpt>
      <trkpt lat="48.73222" lon="1.79585">
        <ele>217.5</ele>
        <time>2026-03-26T08:06:02.000Z</time>
      </trkpt>
      <trkpt lat="48.73223" lon="1.79583">
        <ele>217.6</ele>
        <time>2026-03-26T08:06:03.000Z</time>
      </trkpt>
      <trkpt lat="48.73224" lon="1.79582">
        <ele>217.5</ele>
        <time>2026-03-26T08:06:04.000Z</time>
      </trkpt>
      <trkpt lat="48.73224" lon="1.7958">
        <ele>217.5</ele>
        <time>2026-03-26T08:06:05.000Z</time>
      </trkpt>
      <trkpt lat="48.73225" lon="1.79579">
        <ele>217.4</ele>
        <time>2026-03-26T08:06:06.000Z</time>
      </trkpt>
      <trkpt lat="48.73226" lon="1.79577">
        <ele>217.4</ele>
        <time>2026-03-26T08:06:07.000Z</time>
      </trkpt>
      <trkpt lat="48.73227" lon="1.79575">
        <ele>217.2</ele>
        <time>2026-03-26T08:06:08.000Z</time>
      </trkpt>
      <trkpt lat="48.73228" lon="1.79573">
        <ele>217.2</ele>
        <time>2026-03-26T08:06:09.000Z</time>
      </trkpt>
      <trkpt lat="48.73229" lon="1.79572">
        <ele>217.4</ele>
        <time>2026-03-26T08:06:10.000Z</time>
      </trkpt>
      <trkpt lat="48.73229" lon="1.7957">
        <ele>217.2</ele>
        <time>2026-03-26T08:06:11.000Z</time>
      </trkpt>
      <trkpt lat="48.7323" lon="1.79569">
        <ele>217.2</ele>
        <time>2026-03-26T08:06:12.000Z</time>
      </trkpt>
      <trkpt lat="48.73231" lon="1.79567">
        <ele>217.4</ele>
        <time>2026-03-26T08:06:13.000Z</time>
      </trkpt>
      <trkpt lat="48.73232" lon="1.79566">
        <ele>217.3</ele>
        <time>2026-03-26T08:06:14.000Z</time>
      </trkpt>
      <trkpt lat="48.73233" lon="1.79564">
        <ele>217.2</ele>
        <time>2026-03-26T08:06:15.000Z</time>
      </trkpt>
      <trkpt lat="48.73234" lon="1.79562">
        <ele>217.1</ele>
        <time>2026-03-26T08:06:16.000Z</time>
      </trkpt>
      <trkpt lat="48.73234" lon="1.7956">
        <ele>217.2</ele>
        <time>2026-03-26T08:06:17.000Z</time>
      </trkpt>
      <trkpt lat="48.73235" lon="1.79559">
        <ele>217.2</ele>
        <time>2026-03-26T08:06:18.000Z</time>
      </trkpt>
      <trkpt lat="48.73236" lon="1.79557">
        <ele>217.5</ele>
        <time>2026-03-26T08:06:19.000Z</time>
      </trkpt>
      <trkpt lat="48.73236" lon="1.79556">
        <ele>217.8</ele>
        <time>2026-03-26T08:06:20.000Z</time>
      </trkpt>
      <trkpt lat="48.73237" lon="1.79554">
        <ele>217.7</ele>
        <time>2026-03-26T08:06:21.000Z</time>
      </trkpt>
      <trkpt lat="48.73238" lon="1.79553">
        <ele>217.7</ele>
        <time>2026-03-26T08:06:22.000Z</time>
      </trkpt>
      <trkpt lat="48.73238" lon="1.79551">
        <ele>217.6</ele>
        <time>2026-03-26T08:06:23.000Z</time>
      </trkpt>
      <trkpt lat="48.73239" lon="1.79549">
        <ele>217.6</ele>
        <time>2026-03-26T08:06:24.000Z</time>
      </trkpt>
      <trkpt lat="48.7324" lon="1.79547">
        <ele>217.9</ele>
        <time>2026-03-26T08:06:25.000Z</time>
      </trkpt>
      <trkpt lat="48.73241" lon="1.79545">
        <ele>217.9</ele>
        <time>2026-03-26T08:06:26.000Z</time>
      </trkpt>
      <trkpt lat="48.73242" lon="1.79543">
        <ele>217.7</ele>
        <time>2026-03-26T08:06:27.000Z</time>
      </trkpt>
      <trkpt lat="48.73243" lon="1.79542">
        <ele>217.7</ele>
        <time>2026-03-26T08:06:28.000Z</time>
      </trkpt>
      <trkpt lat="48.73243" lon="1.7954">
        <ele>217.6</ele>
        <time>2026-03-26T08:06:29.000Z</time>
      </trkpt>
      <trkpt lat="48.73244" lon="1.79538">
        <ele>217.8</ele>
        <time>2026-03-26T08:06:30.000Z</time>
      </trkpt>
      <trkpt lat="48.73245" lon="1.79536">
        <ele>218.1</ele>
        <time>2026-03-26T08:06:31.000Z</time>
      </trkpt>
      <trkpt lat="48.73246" lon="1.79535">
        <ele>218</ele>
        <time>2026-03-26T08:06:32.000Z</time>
      </trkpt>
      <trkpt lat="48.73246" lon="1.79533">
        <ele>217.9</ele>
        <time>2026-03-26T08:06:33.000Z</time>
      </trkpt>
      <trkpt lat="48.73248" lon="1.79532">
        <ele>217.7</ele>
        <time>2026-03-26T08:06:34.000Z</time>
      </trkpt>
      <trkpt lat="48.73248" lon="1.7953">
        <ele>217.8</ele>
        <time>2026-03-26T08:06:35.000Z</time>
      </trkpt>
      <trkpt lat="48.73249" lon="1.79529">
        <ele>217.7</ele>
        <time>2026-03-26T08:06:36.000Z</time>
      </trkpt>
      <trkpt lat="48.7325" lon="1.79527">
        <ele>218</ele>
        <time>2026-03-26T08:06:37.000Z</time>
      </trkpt>
      <trkpt lat="48.73251" lon="1.79526">
        <ele>217.8</ele>
        <time>2026-03-26T08:06:38.000Z</time>
      </trkpt>
      <trkpt lat="48.73252" lon="1.79525">
        <ele>218.1</ele>
        <time>2026-03-26T08:06:39.000Z</time>
      </trkpt>
      <trkpt lat="48.73253" lon="1.79524">
        <ele>218.1</ele>
        <time>2026-03-26T08:06:40.000Z</time>
      </trkpt>
      <trkpt lat="48.73254" lon="1.79522">
        <ele>218</ele>
        <time>2026-03-26T08:06:41.000Z</time>
      </trkpt>
      <trkpt lat="48.73255" lon="1.79521">
        <ele>218.1</ele>
        <time>2026-03-26T08:06:42.000Z</time>
      </trkpt>
      <trkpt lat="48.73256" lon="1.7952">
        <ele>218.2</ele>
        <time>2026-03-26T08:06:43.000Z</time>
      </trkpt>
      <trkpt lat="48.73257" lon="1.79519">
        <ele>217.9</ele>
        <time>2026-03-26T08:06:44.000Z</time>
      </trkpt>
      <trkpt lat="48.73258" lon="1.79518">
        <ele>218.2</ele>
        <time>2026-03-26T08:06:45.000Z</time>
      </trkpt>
      <trkpt lat="48.73259" lon="1.79516">
        <ele>218.3</ele>
        <time>2026-03-26T08:06:46.000Z</time>
      </trkpt>
      <trkpt lat="48.7326" lon="1.79515">
        <ele>218.5</ele>
        <time>2026-03-26T08:06:47.000Z</time>
      </trkpt>
      <trkpt lat="48.73261" lon="1.79513">
        <ele>218.7</ele>
        <time>2026-03-26T08:06:48.000Z</time>
      </trkpt>
      <trkpt lat="48.73262" lon="1.79512">
        <ele>218.3</ele>
        <time>2026-03-26T08:06:49.000Z</time>
      </trkpt>
      <trkpt lat="48.73263" lon="1.7951">
        <ele>218.5</ele>
        <time>2026-03-26T08:06:50.000Z</time>
      </trkpt>
      <trkpt lat="48.73264" lon="1.79509">
        <ele>218.5</ele>
        <time>2026-03-26T08:06:51.000Z</time>
      </trkpt>
      <trkpt lat="48.73265" lon="1.79507">
        <ele>218.9</ele>
        <time>2026-03-26T08:06:52.000Z</time>
      </trkpt>
      <trkpt lat="48.73266" lon="1.79506">
        <ele>219</ele>
        <time>2026-03-26T08:06:53.000Z</time>
      </trkpt>
      <trkpt lat="48.73266" lon="1.79504">
        <ele>219</ele>
        <time>2026-03-26T08:06:54.000Z</time>
      </trkpt>
      <trkpt lat="48.73267" lon="1.79503">
        <ele>219.3</ele>
        <time>2026-03-26T08:06:55.000Z</time>
      </trkpt>
      <trkpt lat="48.73268" lon="1.79502">
        <ele>219.1</ele>
        <time>2026-03-26T08:06:56.000Z</time>
      </trkpt>
      <trkpt lat="48.73269" lon="1.795">
        <ele>219.5</ele>
        <time>2026-03-26T08:06:57.000Z</time>
      </trkpt>
      <trkpt lat="48.73269" lon="1.79499">
        <ele>219.5</ele>
        <time>2026-03-26T08:06:58.000Z</time>
      </trkpt>
      <trkpt lat="48.73271" lon="1.79498">
        <ele>219.2</ele>
        <time>2026-03-26T08:06:59.000Z</time>
      </trkpt>
      <trkpt lat="48.73272" lon="1.79497">
        <ele>219.6</ele>
        <time>2026-03-26T08:07:00.000Z</time>
      </trkpt>
      <trkpt lat="48.73272" lon="1.79495">
        <ele>220.3</ele>
        <time>2026-03-26T08:07:01.000Z</time>
      </trkpt>
      <trkpt lat="48.73273" lon="1.79494">
        <ele>220.1</ele>
        <time>2026-03-26T08:07:02.000Z</time>
      </trkpt>
      <trkpt lat="48.73274" lon="1.79492">
        <ele>220.1</ele>
        <time>2026-03-26T08:07:03.000Z</time>
      </trkpt>
      <trkpt lat="48.73275" lon="1.7949">
        <ele>220</ele>
        <time>2026-03-26T08:07:04.000Z</time>
      </trkpt>
      <trkpt lat="48.73276" lon="1.79489">
        <ele>219.8</ele>
        <time>2026-03-26T08:07:05.000Z</time>
      </trkpt>
      <trkpt lat="48.73277" lon="1.79487">
        <ele>219.8</ele>
        <time>2026-03-26T08:07:06.000Z</time>
      </trkpt>
      <trkpt lat="48.73278" lon="1.79486">
        <ele>220.1</ele>
        <time>2026-03-26T08:07:07.000Z</time>
      </trkpt>
      <trkpt lat="48.73279" lon="1.79484">
        <ele>219.7</ele>
        <time>2026-03-26T08:07:08.000Z</time>
      </trkpt>
      <trkpt lat="48.7328" lon="1.79482">
        <ele>220.1</ele>
        <time>2026-03-26T08:07:09.000Z</time>
      </trkpt>
      <trkpt lat="48.73281" lon="1.79481">
        <ele>220.2</ele>
        <time>2026-03-26T08:07:10.000Z</time>
      </trkpt>
      <trkpt lat="48.73282" lon="1.7948">
        <ele>220.1</ele>
        <time>2026-03-26T08:07:11.000Z</time>
      </trkpt>
      <trkpt lat="48.73283" lon="1.79479">
        <ele>219.6</ele>
        <time>2026-03-26T08:07:12.000Z</time>
      </trkpt>
      <trkpt lat="48.73284" lon="1.79478">
        <ele>219.6</ele>
        <time>2026-03-26T08:07:13.000Z</time>
      </trkpt>
      <trkpt lat="48.73285" lon="1.79477">
        <ele>219.7</ele>
        <time>2026-03-26T08:07:14.000Z</time>
      </trkpt>
      <trkpt lat="48.73286" lon="1.79475">
        <ele>219.5</ele>
        <time>2026-03-26T08:07:15.000Z</time>
      </trkpt>
      <trkpt lat="48.73287" lon="1.79474">
        <ele>219.6</ele>
        <time>2026-03-26T08:07:16.000Z</time>
      </trkpt>
      <trkpt lat="48.73288" lon="1.79472">
        <ele>221.1</ele>
        <time>2026-03-26T08:07:17.000Z</time>
      </trkpt>
      <trkpt lat="48.73289" lon="1.79471">
        <ele>220.7</ele>
        <time>2026-03-26T08:07:18.000Z</time>
      </trkpt>
      <trkpt lat="48.7329" lon="1.7947">
        <ele>220.4</ele>
        <time>2026-03-26T08:07:19.000Z</time>
      </trkpt>
      <trkpt lat="48.73291" lon="1.79469">
        <ele>220.5</ele>
        <time>2026-03-26T08:07:20.000Z</time>
      </trkpt>
      <trkpt lat="48.73292" lon="1.79467">
        <ele>221.7</ele>
        <time>2026-03-26T08:07:21.000Z</time>
      </trkpt>
      <trkpt lat="48.73292" lon="1.79466">
        <ele>221.5</ele>
        <time>2026-03-26T08:07:22.000Z</time>
      </trkpt>
      <trkpt lat="48.73293" lon="1.79465">
        <ele>221.5</ele>
        <time>2026-03-26T08:07:23.000Z</time>
      </trkpt>
      <trkpt lat="48.73294" lon="1.79463">
        <ele>221.7</ele>
        <time>2026-03-26T08:07:24.000Z</time>
      </trkpt>
      <trkpt lat="48.73295" lon="1.79462">
        <ele>222</ele>
        <time>2026-03-26T08:07:25.000Z</time>
      </trkpt>
      <trkpt lat="48.73296" lon="1.7946">
        <ele>221.9</ele>
        <time>2026-03-26T08:07:26.000Z</time>
      </trkpt>
      <trkpt lat="48.73297" lon="1.79458">
        <ele>222.6</ele>
        <time>2026-03-26T08:07:27.000Z</time>
      </trkpt>
      <trkpt lat="48.73298" lon="1.79456">
        <ele>222.5</ele>
        <time>2026-03-26T08:07:28.000Z</time>
      </trkpt>
      <trkpt lat="48.73299" lon="1.79455">
        <ele>222.6</ele>
        <time>2026-03-26T08:07:29.000Z</time>
      </trkpt>
      <trkpt lat="48.733" lon="1.79453">
        <ele>222.5</ele>
        <time>2026-03-26T08:07:30.000Z</time>
      </trkpt>
      <trkpt lat="48.733" lon="1.79452">
        <ele>222.5</ele>
        <time>2026-03-26T08:07:31.000Z</time>
      </trkpt>
      <trkpt lat="48.73301" lon="1.79451">
        <ele>223.1</ele>
        <time>2026-03-26T08:07:32.000Z</time>
      </trkpt>
      <trkpt lat="48.73302" lon="1.7945">
        <ele>222.8</ele>
        <time>2026-03-26T08:07:33.000Z</time>
      </trkpt>
      <trkpt lat="48.73303" lon="1.79448">
        <ele>222.6</ele>
        <time>2026-03-26T08:07:34.000Z</time>
      </trkpt>
      <trkpt lat="48.73304" lon="1.79447">
        <ele>223</ele>
        <time>2026-03-26T08:07:35.000Z</time>
      </trkpt>
      <trkpt lat="48.73304" lon="1.79447">
        <ele>222.7</ele>
        <time>2026-03-26T08:07:36.000Z</time>
      </trkpt>
      <trkpt lat="48.73304" lon="1.79447">
        <ele>222.7</ele>
        <time>2026-03-26T08:07:37.000Z</time>
      </trkpt>
      <trkpt lat="48.73304" lon="1.79446">
        <ele>223.6</ele>
        <time>2026-03-26T08:07:38.000Z</time>
      </trkpt>
      <trkpt lat="48.73305" lon="1.79443">
        <ele>223.8</ele>
        <time>2026-03-26T08:07:39.000Z</time>
      </trkpt>
      <trkpt lat="48.73305" lon="1.79444">
        <ele>223.4</ele>
        <time>2026-03-26T08:07:40.000Z</time>
      </trkpt>
      <trkpt lat="48.73305" lon="1.79444">
        <ele>223</ele>
        <time>2026-03-26T08:07:41.000Z</time>
      </trkpt>
      <trkpt lat="48.73306" lon="1.79443">
        <ele>222</ele>
        <time>2026-03-26T08:07:42.000Z</time>
      </trkpt>
      <trkpt lat="48.73307" lon="1.79443">
        <ele>221.7</ele>
        <time>2026-03-26T08:07:43.000Z</time>
      </trkpt>
      <trkpt lat="48.73307" lon="1.79443">
        <ele>221.7</ele>
        <time>2026-03-26T08:07:44.000Z</time>
      </trkpt>
      <trkpt lat="48.73307" lon="1.79445">
        <ele>221.6</ele>
        <time>2026-03-26T08:07:45.000Z</time>
      </trkpt>
      <trkpt lat="48.73307" lon="1.79445">
        <ele>221.6</ele>
        <time>2026-03-26T08:07:46.000Z</time>
      </trkpt>
      <trkpt lat="48.73307" lon="1.79445">
        <ele>221.3</ele>
        <time>2026-03-26T08:07:47.000Z</time>
      </trkpt>
      <trkpt lat="48.73307" lon="1.79441">
        <ele>222.3</ele>
        <time>2026-03-26T08:07:48.000Z</time>
      </trkpt>
      <trkpt lat="48.73308" lon="1.79439">
        <ele>222.7</ele>
        <time>2026-03-26T08:07:49.000Z</time>
      </trkpt>
      <trkpt lat="48.73309" lon="1.79438">
        <ele>222.5</ele>
        <time>2026-03-26T08:07:50.000Z</time>
      </trkpt>
      <trkpt lat="48.73311" lon="1.79436">
        <ele>222.5</ele>
        <time>2026-03-26T08:07:51.000Z</time>
      </trkpt>
      <trkpt lat="48.73312" lon="1.79435">
        <ele>222.7</ele>
        <time>2026-03-26T08:07:52.000Z</time>
      </trkpt>
      <trkpt lat="48.73313" lon="1.79435">
        <ele>222.4</ele>
        <time>2026-03-26T08:07:53.000Z</time>
      </trkpt>
      <trkpt lat="48.73314" lon="1.79435">
        <ele>222.4</ele>
        <time>2026-03-26T08:07:54.000Z</time>
      </trkpt>
      <trkpt lat="48.73316" lon="1.79435">
        <ele>222.4</ele>
        <time>2026-03-26T08:07:55.000Z</time>
      </trkpt>
      <trkpt lat="48.73317" lon="1.79434">
        <ele>223</ele>
        <time>2026-03-26T08:07:56.000Z</time>
      </trkpt>
      <trkpt lat="48.73318" lon="1.79433">
        <ele>223.5</ele>
        <time>2026-03-26T08:07:57.000Z</time>
      </trkpt>
      <trkpt lat="48.73319" lon="1.79432">
        <ele>223.4</ele>
        <time>2026-03-26T08:07:58.000Z</time>
      </trkpt>
      <trkpt lat="48.7332" lon="1.79431">
        <ele>223.2</ele>
        <time>2026-03-26T08:07:59.000Z</time>
      </trkpt>
      <trkpt lat="48.73322" lon="1.79431">
        <ele>222.7</ele>
        <time>2026-03-26T08:08:00.000Z</time>
      </trkpt>
      <trkpt lat="48.73323" lon="1.79429">
        <ele>223.4</ele>
        <time>2026-03-26T08:08:01.000Z</time>
      </trkpt>
      <trkpt lat="48.73323" lon="1.79428">
        <ele>223.6</ele>
        <time>2026-03-26T08:08:02.000Z</time>
      </trkpt>
      <trkpt lat="48.73323" lon="1.79427">
        <ele>224.5</ele>
        <time>2026-03-26T08:08:03.000Z</time>
      </trkpt>
      <trkpt lat="48.73322" lon="1.79425">
        <ele>224.4</ele>
        <time>2026-03-26T08:08:04.000Z</time>
      </trkpt>
      <trkpt lat="48.73323" lon="1.79424">
        <ele>223.7</ele>
        <time>2026-03-26T08:08:05.000Z</time>
      </trkpt>
      <trkpt lat="48.73323" lon="1.79423">
        <ele>224.5</ele>
        <time>2026-03-26T08:08:06.000Z</time>
      </trkpt>
      <trkpt lat="48.73323" lon="1.79422">
        <ele>225.4</ele>
        <time>2026-03-26T08:08:07.000Z</time>
      </trkpt>
      <trkpt lat="48.73323" lon="1.7942">
        <ele>225.8</ele>
        <time>2026-03-26T08:08:08.000Z</time>
      </trkpt>
      <trkpt lat="48.73323" lon="1.79419">
        <ele>225.7</ele>
        <time>2026-03-26T08:08:09.000Z</time>
      </trkpt>
      <trkpt lat="48.73323" lon="1.79417">
        <ele>225.5</ele>
        <time>2026-03-26T08:08:10.000Z</time>
      </trkpt>
      <trkpt lat="48.73325" lon="1.79416">
        <ele>224.8</ele>
        <time>2026-03-26T08:08:11.000Z</time>
      </trkpt>
      <trkpt lat="48.73326" lon="1.79416">
        <ele>224.2</ele>
        <time>2026-03-26T08:08:12.000Z</time>
      </trkpt>
      <trkpt lat="48.73327" lon="1.79416">
        <ele>223.9</ele>
        <time>2026-03-26T08:08:13.000Z</time>
      </trkpt>
      <trkpt lat="48.73329" lon="1.79416">
        <ele>224.1</ele>
        <time>2026-03-26T08:08:14.000Z</time>
      </trkpt>
      <trkpt lat="48.7333" lon="1.79416">
        <ele>224.4</ele>
        <time>2026-03-26T08:08:15.000Z</time>
      </trkpt>
      <trkpt lat="48.73332" lon="1.79416">
        <ele>225.2</ele>
        <time>2026-03-26T08:08:16.000Z</time>
      </trkpt>
      <trkpt lat="48.73333" lon="1.79417">
        <ele>224.8</ele>
        <time>2026-03-26T08:08:17.000Z</time>
      </trkpt>
      <trkpt lat="48.73335" lon="1.79418">
        <ele>225.4</ele>
        <time>2026-03-26T08:08:18.000Z</time>
      </trkpt>
      <trkpt lat="48.73336" lon="1.79418">
        <ele>226</ele>
        <time>2026-03-26T08:08:19.000Z</time>
      </trkpt>
      <trkpt lat="48.73337" lon="1.79419">
        <ele>226.7</ele>
        <time>2026-03-26T08:08:20.000Z</time>
      </trkpt>
      <trkpt lat="48.73338" lon="1.79418">
        <ele>226.3</ele>
        <time>2026-03-26T08:08:21.000Z</time>
      </trkpt>
      <trkpt lat="48.73339" lon="1.79417">
        <ele>225.4</ele>
        <time>2026-03-26T08:08:22.000Z</time>
      </trkpt>
      <trkpt lat="48.7334" lon="1.79417">
        <ele>225.1</ele>
        <time>2026-03-26T08:08:23.000Z</time>
      </trkpt>
      <trkpt lat="48.73342" lon="1.79417">
        <ele>225.1</ele>
        <time>2026-03-26T08:08:24.000Z</time>
      </trkpt>
      <trkpt lat="48.73343" lon="1.79417">
        <ele>224.5</ele>
        <time>2026-03-26T08:08:25.000Z</time>
      </trkpt>
      <trkpt lat="48.73344" lon="1.79417">
        <ele>225</ele>
        <time>2026-03-26T08:08:26.000Z</time>
      </trkpt>
      <trkpt lat="48.73345" lon="1.79417">
        <ele>225.2</ele>
        <time>2026-03-26T08:08:27.000Z</time>
      </trkpt>
      <trkpt lat="48.73347" lon="1.79416">
        <ele>225.4</ele>
        <time>2026-03-26T08:08:28.000Z</time>
      </trkpt>
      <trkpt lat="48.73348" lon="1.79417">
        <ele>224.4</ele>
        <time>2026-03-26T08:08:29.000Z</time>
      </trkpt>
      <trkpt lat="48.73349" lon="1.79417">
        <ele>224</ele>
        <time>2026-03-26T08:08:30.000Z</time>
      </trkpt>
      <trkpt lat="48.73351" lon="1.79417">
        <ele>223.5</ele>
        <time>2026-03-26T08:08:31.000Z</time>
      </trkpt>
      <trkpt lat="48.73352" lon="1.79417">
        <ele>223.3</ele>
        <time>2026-03-26T08:08:32.000Z</time>
      </trkpt>
      <trkpt lat="48.73353" lon="1.79417">
        <ele>222.8</ele>
        <time>2026-03-26T08:08:33.000Z</time>
      </trkpt>
      <trkpt lat="48.73354" lon="1.79417">
        <ele>222.9</ele>
        <time>2026-03-26T08:08:34.000Z</time>
      </trkpt>
      <trkpt lat="48.73356" lon="1.79417">
        <ele>222.6</ele>
        <time>2026-03-26T08:08:35.000Z</time>
      </trkpt>
      <trkpt lat="48.73357" lon="1.79417">
        <ele>222.7</ele>
        <time>2026-03-26T08:08:36.000Z</time>
      </trkpt>
      <trkpt lat="48.73358" lon="1.79417">
        <ele>223.5</ele>
        <time>2026-03-26T08:08:37.000Z</time>
      </trkpt>
      <trkpt lat="48.7336" lon="1.79417">
        <ele>224</ele>
        <time>2026-03-26T08:08:38.000Z</time>
      </trkpt>
      <trkpt lat="48.73361" lon="1.79416">
        <ele>223.6</ele>
        <time>2026-03-26T08:08:39.000Z</time>
      </trkpt>
      <trkpt lat="48.73363" lon="1.79415">
        <ele>225.3</ele>
        <time>2026-03-26T08:08:40.000Z</time>
      </trkpt>
      <trkpt lat="48.73364" lon="1.79414">
        <ele>226.6</ele>
        <time>2026-03-26T08:08:41.000Z</time>
      </trkpt>
      <trkpt lat="48.73366" lon="1.79413">
        <ele>227</ele>
        <time>2026-03-26T08:08:42.000Z</time>
      </trkpt>
      <trkpt lat="48.73368" lon="1.79413">
        <ele>227.6</ele>
        <time>2026-03-26T08:08:43.000Z</time>
      </trkpt>
      <trkpt lat="48.7337" lon="1.79413">
        <ele>228.1</ele>
        <time>2026-03-26T08:08:44.000Z</time>
      </trkpt>
      <trkpt lat="48.73371" lon="1.79413">
        <ele>228.1</ele>
        <time>2026-03-26T08:08:45.000Z</time>
      </trkpt>
      <trkpt lat="48.73372" lon="1.79413">
        <ele>228</ele>
        <time>2026-03-26T08:08:46.000Z</time>
      </trkpt>
      <trkpt lat="48.73374" lon="1.79413">
        <ele>227.1</ele>
        <time>2026-03-26T08:08:47.000Z</time>
      </trkpt>
      <trkpt lat="48.73375" lon="1.79413">
        <ele>226.7</ele>
        <time>2026-03-26T08:08:48.000Z</time>
      </trkpt>
      <trkpt lat="48.73377" lon="1.79413">
        <ele>226.1</ele>
        <time>2026-03-26T08:08:49.000Z</time>
      </trkpt>
      <trkpt lat="48.73378" lon="1.79414">
        <ele>226.2</ele>
        <time>2026-03-26T08:08:50.000Z</time>
      </trkpt>
      <trkpt lat="48.7338" lon="1.79414">
        <ele>226.8</ele>
        <time>2026-03-26T08:08:51.000Z</time>
      </trkpt>
      <trkpt lat="48.73381" lon="1.79413">
        <ele>226.7</ele>
        <time>2026-03-26T08:08:52.000Z</time>
      </trkpt>
      <trkpt lat="48.73383" lon="1.79413">
        <ele>226.7</ele>
        <time>2026-03-26T08:08:53.000Z</time>
      </trkpt>
      <trkpt lat="48.73384" lon="1.79413">
        <ele>226.4</ele>
        <time>2026-03-26T08:08:54.000Z</time>
      </trkpt>
      <trkpt lat="48.73386" lon="1.79414">
        <ele>225.8</ele>
        <time>2026-03-26T08:08:55.000Z</time>
      </trkpt>
      <trkpt lat="48.73387" lon="1.79413">
        <ele>224.1</ele>
        <time>2026-03-26T08:08:56.000Z</time>
      </trkpt>
      <trkpt lat="48.73388" lon="1.79412">
        <ele>224.4</ele>
        <time>2026-03-26T08:08:57.000Z</time>
      </trkpt>
      <trkpt lat="48.7339" lon="1.79412">
        <ele>224.2</ele>
        <time>2026-03-26T08:08:58.000Z</time>
      </trkpt>
      <trkpt lat="48.73391" lon="1.79412">
        <ele>224.2</ele>
        <time>2026-03-26T08:08:59.000Z</time>
      </trkpt>
      <trkpt lat="48.73393" lon="1.79412">
        <ele>224.4</ele>
        <time>2026-03-26T08:09:00.000Z</time>
      </trkpt>
      <trkpt lat="48.73394" lon="1.79412">
        <ele>224.6</ele>
        <time>2026-03-26T08:09:01.000Z</time>
      </trkpt>
      <trkpt lat="48.73395" lon="1.79411">
        <ele>224.3</ele>
        <time>2026-03-26T08:09:02.000Z</time>
      </trkpt>
      <trkpt lat="48.73396" lon="1.79411">
        <ele>224.3</ele>
        <time>2026-03-26T08:09:03.000Z</time>
      </trkpt>
      <trkpt lat="48.73398" lon="1.7941">
        <ele>224.4</ele>
        <time>2026-03-26T08:09:04.000Z</time>
      </trkpt>
      <trkpt lat="48.73399" lon="1.7941">
        <ele>224.5</ele>
        <time>2026-03-26T08:09:05.000Z</time>
      </trkpt>
      <trkpt lat="48.734" lon="1.7941">
        <ele>224.9</ele>
        <time>2026-03-26T08:09:06.000Z</time>
      </trkpt>
      <trkpt lat="48.73402" lon="1.7941">
        <ele>225.8</ele>
        <time>2026-03-26T08:09:07.000Z</time>
      </trkpt>
      <trkpt lat="48.73403" lon="1.7941">
        <ele>226.2</ele>
        <time>2026-03-26T08:09:08.000Z</time>
      </trkpt>
      <trkpt lat="48.73404" lon="1.79411">
        <ele>226.9</ele>
        <time>2026-03-26T08:09:09.000Z</time>
      </trkpt>
      <trkpt lat="48.73406" lon="1.7941">
        <ele>227.5</ele>
        <time>2026-03-26T08:09:10.000Z</time>
      </trkpt>
      <trkpt lat="48.73407" lon="1.7941">
        <ele>228.2</ele>
        <time>2026-03-26T08:09:11.000Z</time>
      </trkpt>
      <trkpt lat="48.73409" lon="1.7941">
        <ele>228.8</ele>
        <time>2026-03-26T08:09:12.000Z</time>
      </trkpt>
      <trkpt lat="48.7341" lon="1.79409">
        <ele>228.4</ele>
        <time>2026-03-26T08:09:13.000Z</time>
      </trkpt>
      <trkpt lat="48.73412" lon="1.79409">
        <ele>228.3</ele>
        <time>2026-03-26T08:09:14.000Z</time>
      </trkpt>
      <trkpt lat="48.73413" lon="1.79409">
        <ele>228.2</ele>
        <time>2026-03-26T08:09:15.000Z</time>
      </trkpt>
      <trkpt lat="48.73414" lon="1.79409">
        <ele>228.3</ele>
        <time>2026-03-26T08:09:16.000Z</time>
      </trkpt>
      <trkpt lat="48.73415" lon="1.79409">
        <ele>227.7</ele>
        <time>2026-03-26T08:09:17.000Z</time>
      </trkpt>
      <trkpt lat="48.73417" lon="1.79408">
        <ele>228.2</ele>
        <time>2026-03-26T08:09:18.000Z</time>
      </trkpt>
      <trkpt lat="48.73418" lon="1.79407">
        <ele>228.3</ele>
        <time>2026-03-26T08:09:19.000Z</time>
      </trkpt>
      <trkpt lat="48.73419" lon="1.79407">
        <ele>228.3</ele>
        <time>2026-03-26T08:09:20.000Z</time>
      </trkpt>
      <trkpt lat="48.73421" lon="1.79407">
        <ele>228.3</ele>
        <time>2026-03-26T08:09:21.000Z</time>
      </trkpt>
      <trkpt lat="48.73422" lon="1.79407">
        <ele>228</ele>
        <time>2026-03-26T08:09:22.000Z</time>
      </trkpt>
      <trkpt lat="48.73423" lon="1.79406">
        <ele>228.1</ele>
        <time>2026-03-26T08:09:23.000Z</time>
      </trkpt>
      <trkpt lat="48.73425" lon="1.79406">
        <ele>228.8</ele>
        <time>2026-03-26T08:09:24.000Z</time>
      </trkpt>
      <trkpt lat="48.73426" lon="1.79406">
        <ele>228.7</ele>
        <time>2026-03-26T08:09:25.000Z</time>
      </trkpt>
      <trkpt lat="48.73427" lon="1.79406">
        <ele>228.3</ele>
        <time>2026-03-26T08:09:26.000Z</time>
      </trkpt>
      <trkpt lat="48.73428" lon="1.79406">
        <ele>228.2</ele>
        <time>2026-03-26T08:09:27.000Z</time>
      </trkpt>
      <trkpt lat="48.7343" lon="1.79406">
        <ele>227.8</ele>
        <time>2026-03-26T08:09:28.000Z</time>
      </trkpt>
      <trkpt lat="48.73431" lon="1.79405">
        <ele>227.7</ele>
        <time>2026-03-26T08:09:29.000Z</time>
      </trkpt>
      <trkpt lat="48.73432" lon="1.79406">
        <ele>227.4</ele>
        <time>2026-03-26T08:09:30.000Z</time>
      </trkpt>
      <trkpt lat="48.73433" lon="1.79406">
        <ele>227.2</ele>
        <time>2026-03-26T08:09:31.000Z</time>
      </trkpt>
      <trkpt lat="48.73435" lon="1.79405">
        <ele>227.7</ele>
        <time>2026-03-26T08:09:32.000Z</time>
      </trkpt>
      <trkpt lat="48.73436" lon="1.79405">
        <ele>227.8</ele>
        <time>2026-03-26T08:09:33.000Z</time>
      </trkpt>
      <trkpt lat="48.73437" lon="1.79406">
        <ele>227.7</ele>
        <time>2026-03-26T08:09:34.000Z</time>
      </trkpt>
      <trkpt lat="48.73439" lon="1.79406">
        <ele>227.8</ele>
        <time>2026-03-26T08:09:35.000Z</time>
      </trkpt>
      <trkpt lat="48.7344" lon="1.79406">
        <ele>227.7</ele>
        <time>2026-03-26T08:09:36.000Z</time>
      </trkpt>
      <trkpt lat="48.73441" lon="1.79406">
        <ele>228</ele>
        <time>2026-03-26T08:09:37.000Z</time>
      </trkpt>
      <trkpt lat="48.73442" lon="1.79405">
        <ele>227.8</ele>
        <time>2026-03-26T08:09:38.000Z</time>
      </trkpt>
      <trkpt lat="48.73443" lon="1.79405">
        <ele>228</ele>
        <time>2026-03-26T08:09:39.000Z</time>
      </trkpt>
      <trkpt lat="48.73445" lon="1.79404">
        <ele>228.3</ele>
        <time>2026-03-26T08:09:40.000Z</time>
      </trkpt>
      <trkpt lat="48.73446" lon="1.79404">
        <ele>228.8</ele>
        <time>2026-03-26T08:09:41.000Z</time>
      </trkpt>
      <trkpt lat="48.73447" lon="1.79403">
        <ele>228.8</ele>
        <time>2026-03-26T08:09:42.000Z</time>
      </trkpt>
      <trkpt lat="48.73449" lon="1.79403">
        <ele>229.1</ele>
        <time>2026-03-26T08:09:43.000Z</time>
      </trkpt>
      <trkpt lat="48.7345" lon="1.79403">
        <ele>229.1</ele>
        <time>2026-03-26T08:09:44.000Z</time>
      </trkpt>
      <trkpt lat="48.7345" lon="1.79406">
        <ele>228.6</ele>
        <time>2026-03-26T08:09:45.000Z</time>
      </trkpt>
      <trkpt lat="48.73448" lon="1.79404">
        <ele>229.2</ele>
        <time>2026-03-26T08:09:46.000Z</time>
      </trkpt>
      <trkpt lat="48.73449" lon="1.79405">
        <ele>228.7</ele>
        <time>2026-03-26T08:09:47.000Z</time>
      </trkpt>
      <trkpt lat="48.7345" lon="1.79406">
        <ele>228.8</ele>
        <time>2026-03-26T08:09:48.000Z</time>
      </trkpt>
      <trkpt lat="48.73452" lon="1.79406">
        <ele>229.2</ele>
        <time>2026-03-26T08:09:49.000Z</time>
      </trkpt>
      <trkpt lat="48.73454" lon="1.79405">
        <ele>229.2</ele>
        <time>2026-03-26T08:09:50.000Z</time>
      </trkpt>
      <trkpt lat="48.73455" lon="1.79404">
        <ele>229</ele>
        <time>2026-03-26T08:09:51.000Z</time>
      </trkpt>
      <trkpt lat="48.73455" lon="1.79404">
        <ele>228.4</ele>
        <time>2026-03-26T08:09:52.000Z</time>
      </trkpt>
      <trkpt lat="48.73456" lon="1.79403">
        <ele>228.1</ele>
        <time>2026-03-26T08:09:53.000Z</time>
      </trkpt>
      <trkpt lat="48.73456" lon="1.79401">
        <ele>228.6</ele>
        <time>2026-03-26T08:09:54.000Z</time>
      </trkpt>
      <trkpt lat="48.73457" lon="1.794">
        <ele>228.2</ele>
        <time>2026-03-26T08:09:55.000Z</time>
      </trkpt>
      <trkpt lat="48.73458" lon="1.79399">
        <ele>228.1</ele>
        <time>2026-03-26T08:09:56.000Z</time>
      </trkpt>
      <trkpt lat="48.7346" lon="1.79398">
        <ele>228.1</ele>
        <time>2026-03-26T08:09:57.000Z</time>
      </trkpt>
      <trkpt lat="48.73461" lon="1.79398">
        <ele>227.5</ele>
        <time>2026-03-26T08:09:58.000Z</time>
      </trkpt>
      <trkpt lat="48.73462" lon="1.79398">
        <ele>227.3</ele>
        <time>2026-03-26T08:09:59.000Z</time>
      </trkpt>
      <trkpt lat="48.73463" lon="1.79398">
        <ele>227.3</ele>
        <time>2026-03-26T08:10:00.000Z</time>
      </trkpt>
      <trkpt lat="48.73465" lon="1.79398">
        <ele>227.3</ele>
        <time>2026-03-26T08:10:01.000Z</time>
      </trkpt>
      <trkpt lat="48.73466" lon="1.79398">
        <ele>227.2</ele>
        <time>2026-03-26T08:10:02.000Z</time>
      </trkpt>
      <trkpt lat="48.73468" lon="1.79398">
        <ele>228.4</ele>
        <time>2026-03-26T08:10:03.000Z</time>
      </trkpt>
      <trkpt lat="48.73469" lon="1.79398">
        <ele>228.3</ele>
        <time>2026-03-26T08:10:04.000Z</time>
      </trkpt>
      <trkpt lat="48.7347" lon="1.79398">
        <ele>228.5</ele>
        <time>2026-03-26T08:10:05.000Z</time>
      </trkpt>
      <trkpt lat="48.73471" lon="1.79399">
        <ele>228.4</ele>
        <time>2026-03-26T08:10:06.000Z</time>
      </trkpt>
      <trkpt lat="48.73471" lon="1.79401">
        <ele>228.1</ele>
        <time>2026-03-26T08:10:07.000Z</time>
      </trkpt>
      <trkpt lat="48.73469" lon="1.79403">
        <ele>229.9</ele>
        <time>2026-03-26T08:10:08.000Z</time>
      </trkpt>
      <trkpt lat="48.73468" lon="1.79404">
        <ele>230.4</ele>
        <time>2026-03-26T08:10:09.000Z</time>
      </trkpt>
      <trkpt lat="48.73466" lon="1.79405">
        <ele>231.8</ele>
        <time>2026-03-26T08:10:10.000Z</time>
      </trkpt>
      <trkpt lat="48.73466" lon="1.79407">
        <ele>233.9</ele>
        <time>2026-03-26T08:10:11.000Z</time>
      </trkpt>
      <trkpt lat="48.73466" lon="1.79407">
        <ele>232.3</ele>
        <time>2026-03-26T08:10:12.000Z</time>
      </trkpt>
      <trkpt lat="48.73468" lon="1.79407">
        <ele>231.2</ele>
        <time>2026-03-26T08:10:13.000Z</time>
      </trkpt>
      <trkpt lat="48.73469" lon="1.79406">
        <ele>230.5</ele>
        <time>2026-03-26T08:10:14.000Z</time>
      </trkpt>
      <trkpt lat="48.7347" lon="1.79405">
        <ele>229.8</ele>
        <time>2026-03-26T08:10:15.000Z</time>
      </trkpt>
      <trkpt lat="48.73477" lon="1.79396">
        <ele>228.6</ele>
        <time>2026-03-26T08:10:16.000Z</time>
      </trkpt>
      <trkpt lat="48.73479" lon="1.79395">
        <ele>229.3</ele>
        <time>2026-03-26T08:10:17.000Z</time>
      </trkpt>
      <trkpt lat="48.7348" lon="1.79394">
        <ele>229.3</ele>
        <time>2026-03-26T08:10:18.000Z</time>
      </trkpt>
      <trkpt lat="48.73482" lon="1.79394">
        <ele>229.4</ele>
        <time>2026-03-26T08:10:19.000Z</time>
      </trkpt>
      <trkpt lat="48.73483" lon="1.79393">
        <ele>229.4</ele>
        <time>2026-03-26T08:10:20.000Z</time>
      </trkpt>
      <trkpt lat="48.73484" lon="1.79394">
        <ele>229.6</ele>
        <time>2026-03-26T08:10:21.000Z</time>
      </trkpt>
      <trkpt lat="48.73485" lon="1.79394">
        <ele>229</ele>
        <time>2026-03-26T08:10:22.000Z</time>
      </trkpt>
      <trkpt lat="48.73486" lon="1.79394">
        <ele>228.8</ele>
        <time>2026-03-26T08:10:23.000Z</time>
      </trkpt>
      <trkpt lat="48.73488" lon="1.79394">
        <ele>228.8</ele>
        <time>2026-03-26T08:10:24.000Z</time>
      </trkpt>
      <trkpt lat="48.73489" lon="1.79393">
        <ele>228.6</ele>
        <time>2026-03-26T08:10:25.000Z</time>
      </trkpt>
      <trkpt lat="48.73491" lon="1.79393">
        <ele>228.9</ele>
        <time>2026-03-26T08:10:26.000Z</time>
      </trkpt>
      <trkpt lat="48.73493" lon="1.79393">
        <ele>229.7</ele>
        <time>2026-03-26T08:10:27.000Z</time>
      </trkpt>
      <trkpt lat="48.73494" lon="1.79392">
        <ele>229.5</ele>
        <time>2026-03-26T08:10:28.000Z</time>
      </trkpt>
      <trkpt lat="48.73495" lon="1.79392">
        <ele>229.6</ele>
        <time>2026-03-26T08:10:29.000Z</time>
      </trkpt>
      <trkpt lat="48.73497" lon="1.79392">
        <ele>230.3</ele>
        <time>2026-03-26T08:10:30.000Z</time>
      </trkpt>
      <trkpt lat="48.73498" lon="1.79392">
        <ele>230</ele>
        <time>2026-03-26T08:10:31.000Z</time>
      </trkpt>
      <trkpt lat="48.73499" lon="1.79392">
        <ele>229.9</ele>
        <time>2026-03-26T08:10:32.000Z</time>
      </trkpt>
      <trkpt lat="48.735" lon="1.79392">
        <ele>229.7</ele>
        <time>2026-03-26T08:10:33.000Z</time>
      </trkpt>
      <trkpt lat="48.73502" lon="1.79392">
        <ele>229.8</ele>
        <time>2026-03-26T08:10:34.000Z</time>
      </trkpt>
      <trkpt lat="48.73503" lon="1.79392">
        <ele>229.7</ele>
        <time>2026-03-26T08:10:35.000Z</time>
      </trkpt>
      <trkpt lat="48.73504" lon="1.79391">
        <ele>229.8</ele>
        <time>2026-03-26T08:10:36.000Z</time>
      </trkpt>
      <trkpt lat="48.73505" lon="1.7939">
        <ele>229.7</ele>
        <time>2026-03-26T08:10:37.000Z</time>
      </trkpt>
      <trkpt lat="48.73506" lon="1.79389">
        <ele>229.7</ele>
        <time>2026-03-26T08:10:38.000Z</time>
      </trkpt>
      <trkpt lat="48.73507" lon="1.79388">
        <ele>229.3</ele>
        <time>2026-03-26T08:10:39.000Z</time>
      </trkpt>
      <trkpt lat="48.73508" lon="1.79387">
        <ele>229.2</ele>
        <time>2026-03-26T08:10:40.000Z</time>
      </trkpt>
      <trkpt lat="48.73509" lon="1.79385">
        <ele>229.1</ele>
        <time>2026-03-26T08:10:41.000Z</time>
      </trkpt>
      <trkpt lat="48.73509" lon="1.79384">
        <ele>229.2</ele>
        <time>2026-03-26T08:10:42.000Z</time>
      </trkpt>
      <trkpt lat="48.7351" lon="1.79383">
        <ele>229.2</ele>
        <time>2026-03-26T08:10:43.000Z</time>
      </trkpt>
      <trkpt lat="48.73512" lon="1.79382">
        <ele>229.5</ele>
        <time>2026-03-26T08:10:44.000Z</time>
      </trkpt>
      <trkpt lat="48.73513" lon="1.79381">
        <ele>229.6</ele>
        <time>2026-03-26T08:10:45.000Z</time>
      </trkpt>
      <trkpt lat="48.73514" lon="1.7938">
        <ele>229.3</ele>
        <time>2026-03-26T08:10:46.000Z</time>
      </trkpt>
      <trkpt lat="48.73515" lon="1.7938">
        <ele>228.9</ele>
        <time>2026-03-26T08:10:47.000Z</time>
      </trkpt>
      <trkpt lat="48.73516" lon="1.79379">
        <ele>229</ele>
        <time>2026-03-26T08:10:48.000Z</time>
      </trkpt>
      <trkpt lat="48.73517" lon="1.79378">
        <ele>229</ele>
        <time>2026-03-26T08:10:49.000Z</time>
      </trkpt>
      <trkpt lat="48.73518" lon="1.79377">
        <ele>229.1</ele>
        <time>2026-03-26T08:10:50.000Z</time>
      </trkpt>
      <trkpt lat="48.73519" lon="1.79376">
        <ele>228.9</ele>
        <time>2026-03-26T08:10:51.000Z</time>
      </trkpt>
      <trkpt lat="48.7352" lon="1.79374">
        <ele>229</ele>
        <time>2026-03-26T08:10:52.000Z</time>
      </trkpt>
      <trkpt lat="48.73521" lon="1.79373">
        <ele>229</ele>
        <time>2026-03-26T08:10:53.000Z</time>
      </trkpt>
      <trkpt lat="48.73522" lon="1.79372">
        <ele>229</ele>
        <time>2026-03-26T08:10:54.000Z</time>
      </trkpt>
      <trkpt lat="48.73523" lon="1.79371">
        <ele>229.2</ele>
        <time>2026-03-26T08:10:55.000Z</time>
      </trkpt>
      <trkpt lat="48.73524" lon="1.7937">
        <ele>229.5</ele>
        <time>2026-03-26T08:10:56.000Z</time>
      </trkpt>
      <trkpt lat="48.73525" lon="1.79369">
        <ele>229.5</ele>
        <time>2026-03-26T08:10:57.000Z</time>
      </trkpt>
      <trkpt lat="48.73525" lon="1.79367">
        <ele>229.1</ele>
        <time>2026-03-26T08:10:58.000Z</time>
      </trkpt>
      <trkpt lat="48.73526" lon="1.79365">
        <ele>229.2</ele>
        <time>2026-03-26T08:10:59.000Z</time>
      </trkpt>
      <trkpt lat="48.73526" lon="1.79363">
        <ele>228.9</ele>
        <time>2026-03-26T08:11:00.000Z</time>
      </trkpt>
      <trkpt lat="48.73526" lon="1.79361">
        <ele>228.9</ele>
        <time>2026-03-26T08:11:01.000Z</time>
      </trkpt>
      <trkpt lat="48.73527" lon="1.79359">
        <ele>228.8</ele>
        <time>2026-03-26T08:11:02.000Z</time>
      </trkpt>
      <trkpt lat="48.73528" lon="1.79358">
        <ele>229.6</ele>
        <time>2026-03-26T08:11:03.000Z</time>
      </trkpt>
      <trkpt lat="48.73529" lon="1.79357">
        <ele>229.6</ele>
        <time>2026-03-26T08:11:04.000Z</time>
      </trkpt>
      <trkpt lat="48.7353" lon="1.79356">
        <ele>229.6</ele>
        <time>2026-03-26T08:11:05.000Z</time>
      </trkpt>
      <trkpt lat="48.7353" lon="1.79354">
        <ele>229.5</ele>
        <time>2026-03-26T08:11:06.000Z</time>
      </trkpt>
      <trkpt lat="48.73531" lon="1.79353">
        <ele>229.1</ele>
        <time>2026-03-26T08:11:07.000Z</time>
      </trkpt>
      <trkpt lat="48.73531" lon="1.79351">
        <ele>229</ele>
        <time>2026-03-26T08:11:08.000Z</time>
      </trkpt>
      <trkpt lat="48.73532" lon="1.7935">
        <ele>229</ele>
        <time>2026-03-26T08:11:09.000Z</time>
      </trkpt>
      <trkpt lat="48.73532" lon="1.79348">
        <ele>228.9</ele>
        <time>2026-03-26T08:11:10.000Z</time>
      </trkpt>
      <trkpt lat="48.73532" lon="1.79346">
        <ele>229.1</ele>
        <time>2026-03-26T08:11:11.000Z</time>
      </trkpt>
      <trkpt lat="48.73533" lon="1.79345">
        <ele>229</ele>
        <time>2026-03-26T08:11:12.000Z</time>
      </trkpt>
      <trkpt lat="48.73533" lon="1.79343">
        <ele>229.1</ele>
        <time>2026-03-26T08:11:13.000Z</time>
      </trkpt>
      <trkpt lat="48.73533" lon="1.79341">
        <ele>229.1</ele>
        <time>2026-03-26T08:11:14.000Z</time>
      </trkpt>
      <trkpt lat="48.73533" lon="1.7934">
        <ele>229</ele>
        <time>2026-03-26T08:11:15.000Z</time>
      </trkpt>
      <trkpt lat="48.73533" lon="1.79337">
        <ele>229.7</ele>
        <time>2026-03-26T08:11:16.000Z</time>
      </trkpt>
      <trkpt lat="48.73534" lon="1.79335">
        <ele>229.7</ele>
        <time>2026-03-26T08:11:17.000Z</time>
      </trkpt>
      <trkpt lat="48.73534" lon="1.79333">
        <ele>229.5</ele>
        <time>2026-03-26T08:11:18.000Z</time>
      </trkpt>
      <trkpt lat="48.73534" lon="1.79331">
        <ele>230.3</ele>
        <time>2026-03-26T08:11:19.000Z</time>
      </trkpt>
      <trkpt lat="48.73534" lon="1.79328">
        <ele>230.9</ele>
        <time>2026-03-26T08:11:20.000Z</time>
      </trkpt>
      <trkpt lat="48.73534" lon="1.79326">
        <ele>230.9</ele>
        <time>2026-03-26T08:11:21.000Z</time>
      </trkpt>
      <trkpt lat="48.73534" lon="1.79324">
        <ele>231.3</ele>
        <time>2026-03-26T08:11:22.000Z</time>
      </trkpt>
      <trkpt lat="48.73534" lon="1.79323">
        <ele>231.9</ele>
        <time>2026-03-26T08:11:23.000Z</time>
      </trkpt>
      <trkpt lat="48.73534" lon="1.79321">
        <ele>233.4</ele>
        <time>2026-03-26T08:11:24.000Z</time>
      </trkpt>
      <trkpt lat="48.73534" lon="1.79321">
        <ele>233.1</ele>
        <time>2026-03-26T08:11:25.000Z</time>
      </trkpt>
      <trkpt lat="48.73534" lon="1.79321">
        <ele>233.1</ele>
        <time>2026-03-26T08:11:26.000Z</time>
      </trkpt>
      <trkpt lat="48.73534" lon="1.7932">
        <ele>233.1</ele>
        <time>2026-03-26T08:11:27.000Z</time>
      </trkpt>
      <trkpt lat="48.73535" lon="1.79318">
        <ele>233.4</ele>
        <time>2026-03-26T08:11:28.000Z</time>
      </trkpt>
      <trkpt lat="48.73535" lon="1.79316">
        <ele>233.3</ele>
        <time>2026-03-26T08:11:29.000Z</time>
      </trkpt>
      <trkpt lat="48.73535" lon="1.79315">
        <ele>233</ele>
        <time>2026-03-26T08:11:30.000Z</time>
      </trkpt>
      <trkpt lat="48.73535" lon="1.79313">
        <ele>233.1</ele>
        <time>2026-03-26T08:11:31.000Z</time>
      </trkpt>
      <trkpt lat="48.73535" lon="1.79311">
        <ele>232.8</ele>
        <time>2026-03-26T08:11:32.000Z</time>
      </trkpt>
      <trkpt lat="48.73536" lon="1.79309">
        <ele>232.5</ele>
        <time>2026-03-26T08:11:33.000Z</time>
      </trkpt>
      <trkpt lat="48.73536" lon="1.79308">
        <ele>232.2</ele>
        <time>2026-03-26T08:11:34.000Z</time>
      </trkpt>
      <trkpt lat="48.73537" lon="1.79306">
        <ele>232.3</ele>
        <time>2026-03-26T08:11:35.000Z</time>
      </trkpt>
      <trkpt lat="48.73537" lon="1.79304">
        <ele>233.5</ele>
        <time>2026-03-26T08:11:36.000Z</time>
      </trkpt>
      <trkpt lat="48.73537" lon="1.79302">
        <ele>233.5</ele>
        <time>2026-03-26T08:11:37.000Z</time>
      </trkpt>
      <trkpt lat="48.73537" lon="1.79299">
        <ele>233</ele>
        <time>2026-03-26T08:11:38.000Z</time>
      </trkpt>
      <trkpt lat="48.73537" lon="1.79297">
        <ele>232.7</ele>
        <time>2026-03-26T08:11:39.000Z</time>
      </trkpt>
      <trkpt lat="48.73537" lon="1.79295">
        <ele>232.6</ele>
        <time>2026-03-26T08:11:40.000Z</time>
      </trkpt>
      <trkpt lat="48.73538" lon="1.79293">
        <ele>232.6</ele>
        <time>2026-03-26T08:11:41.000Z</time>
      </trkpt>
      <trkpt lat="48.73538" lon="1.79291">
        <ele>232.4</ele>
        <time>2026-03-26T08:11:42.000Z</time>
      </trkpt>
      <trkpt lat="48.73538" lon="1.79289">
        <ele>232.2</ele>
        <time>2026-03-26T08:11:43.000Z</time>
      </trkpt>
      <trkpt lat="48.73539" lon="1.79287">
        <ele>232.2</ele>
        <time>2026-03-26T08:11:44.000Z</time>
      </trkpt>
      <trkpt lat="48.73539" lon="1.79285">
        <ele>232.6</ele>
        <time>2026-03-26T08:11:45.000Z</time>
      </trkpt>
      <trkpt lat="48.73539" lon="1.79283">
        <ele>232.7</ele>
        <time>2026-03-26T08:11:46.000Z</time>
      </trkpt>
      <trkpt lat="48.73539" lon="1.7928">
        <ele>233.9</ele>
        <time>2026-03-26T08:11:47.000Z</time>
      </trkpt>
      <trkpt lat="48.73539" lon="1.79278">
        <ele>233.4</ele>
        <time>2026-03-26T08:11:48.000Z</time>
      </trkpt>
      <trkpt lat="48.7354" lon="1.79276">
        <ele>232.7</ele>
        <time>2026-03-26T08:11:49.000Z</time>
      </trkpt>
      <trkpt lat="48.7354" lon="1.79274">
        <ele>232.7</ele>
        <time>2026-03-26T08:11:50.000Z</time>
      </trkpt>
      <trkpt lat="48.73541" lon="1.79272">
        <ele>232.8</ele>
        <time>2026-03-26T08:11:51.000Z</time>
      </trkpt>
      <trkpt lat="48.73541" lon="1.7927">
        <ele>232.7</ele>
        <time>2026-03-26T08:11:52.000Z</time>
      </trkpt>
      <trkpt lat="48.73542" lon="1.79267">
        <ele>232.9</ele>
        <time>2026-03-26T08:11:53.000Z</time>
      </trkpt>
      <trkpt lat="48.73543" lon="1.79265">
        <ele>232.6</ele>
        <time>2026-03-26T08:11:54.000Z</time>
      </trkpt>
      <trkpt lat="48.73544" lon="1.79263">
        <ele>232.8</ele>
        <time>2026-03-26T08:11:55.000Z</time>
      </trkpt>
      <trkpt lat="48.73544" lon="1.79261">
        <ele>232.8</ele>
        <time>2026-03-26T08:11:56.000Z</time>
      </trkpt>
      <trkpt lat="48.73545" lon="1.79259">
        <ele>233.5</ele>
        <time>2026-03-26T08:11:57.000Z</time>
      </trkpt>
      <trkpt lat="48.73545" lon="1.79257">
        <ele>233.8</ele>
        <time>2026-03-26T08:11:58.000Z</time>
      </trkpt>
      <trkpt lat="48.73546" lon="1.79255">
        <ele>234.1</ele>
        <time>2026-03-26T08:11:59.000Z</time>
      </trkpt>
      <trkpt lat="48.73546" lon="1.79253">
        <ele>233.5</ele>
        <time>2026-03-26T08:12:00.000Z</time>
      </trkpt>
      <trkpt lat="48.73546" lon="1.79252">
        <ele>233.7</ele>
        <time>2026-03-26T08:12:01.000Z</time>
      </trkpt>
      <trkpt lat="48.73547" lon="1.7925">
        <ele>233.6</ele>
        <time>2026-03-26T08:12:02.000Z</time>
      </trkpt>
      <trkpt lat="48.73547" lon="1.79248">
        <ele>233.4</ele>
        <time>2026-03-26T08:12:03.000Z</time>
      </trkpt>
      <trkpt lat="48.73548" lon="1.79246">
        <ele>232.6</ele>
        <time>2026-03-26T08:12:04.000Z</time>
      </trkpt>
      <trkpt lat="48.73549" lon="1.79245">
        <ele>232.6</ele>
        <time>2026-03-26T08:12:05.000Z</time>
      </trkpt>
      <trkpt lat="48.7355" lon="1.79244">
        <ele>232.6</ele>
        <time>2026-03-26T08:12:06.000Z</time>
      </trkpt>
      <trkpt lat="48.73551" lon="1.79243">
        <ele>232.5</ele>
        <time>2026-03-26T08:12:07.000Z</time>
      </trkpt>
      <trkpt lat="48.73552" lon="1.79242">
        <ele>232.2</ele>
        <time>2026-03-26T08:12:08.000Z</time>
      </trkpt>
      <trkpt lat="48.73553" lon="1.7924">
        <ele>232.3</ele>
        <time>2026-03-26T08:12:09.000Z</time>
      </trkpt>
      <trkpt lat="48.73553" lon="1.79238">
        <ele>232.3</ele>
        <time>2026-03-26T08:12:10.000Z</time>
      </trkpt>
      <trkpt lat="48.73553" lon="1.79235">
        <ele>232.4</ele>
        <time>2026-03-26T08:12:11.000Z</time>
      </trkpt>
      <trkpt lat="48.73553" lon="1.79234">
        <ele>232.3</ele>
        <time>2026-03-26T08:12:12.000Z</time>
      </trkpt>
      <trkpt lat="48.73553" lon="1.79232">
        <ele>232.2</ele>
        <time>2026-03-26T08:12:13.000Z</time>
      </trkpt>
      <trkpt lat="48.73554" lon="1.7923">
        <ele>232</ele>
        <time>2026-03-26T08:12:14.000Z</time>
      </trkpt>
      <trkpt lat="48.73554" lon="1.79228">
        <ele>232.1</ele>
        <time>2026-03-26T08:12:15.000Z</time>
      </trkpt>
      <trkpt lat="48.73554" lon="1.79227">
        <ele>232.4</ele>
        <time>2026-03-26T08:12:16.000Z</time>
      </trkpt>
      <trkpt lat="48.73555" lon="1.79225">
        <ele>232.2</ele>
        <time>2026-03-26T08:12:17.000Z</time>
      </trkpt>
      <trkpt lat="48.73556" lon="1.79223">
        <ele>231.9</ele>
        <time>2026-03-26T08:12:18.000Z</time>
      </trkpt>
      <trkpt lat="48.73556" lon="1.79221">
        <ele>232.2</ele>
        <time>2026-03-26T08:12:19.000Z</time>
      </trkpt>
      <trkpt lat="48.73556" lon="1.79219">
        <ele>232.6</ele>
        <time>2026-03-26T08:12:20.000Z</time>
      </trkpt>
      <trkpt lat="48.73558" lon="1.79217">
        <ele>231.6</ele>
        <time>2026-03-26T08:12:21.000Z</time>
      </trkpt>
      <trkpt lat="48.73558" lon="1.79215">
        <ele>231.8</ele>
        <time>2026-03-26T08:12:22.000Z</time>
      </trkpt>
      <trkpt lat="48.73559" lon="1.79213">
        <ele>232.1</ele>
        <time>2026-03-26T08:12:23.000Z</time>
      </trkpt>
      <trkpt lat="48.7356" lon="1.79211">
        <ele>232.3</ele>
        <time>2026-03-26T08:12:24.000Z</time>
      </trkpt>
      <trkpt lat="48.7356" lon="1.79209">
        <ele>232.2</ele>
        <time>2026-03-26T08:12:25.000Z</time>
      </trkpt>
      <trkpt lat="48.73561" lon="1.79208">
        <ele>232.5</ele>
        <time>2026-03-26T08:12:26.000Z</time>
      </trkpt>
      <trkpt lat="48.73561" lon="1.79206">
        <ele>231.8</ele>
        <time>2026-03-26T08:12:27.000Z</time>
      </trkpt>
      <trkpt lat="48.73562" lon="1.79204">
        <ele>231.8</ele>
        <time>2026-03-26T08:12:28.000Z</time>
      </trkpt>
      <trkpt lat="48.73562" lon="1.79202">
        <ele>232</ele>
        <time>2026-03-26T08:12:29.000Z</time>
      </trkpt>
      <trkpt lat="48.73563" lon="1.79201">
        <ele>232.1</ele>
        <time>2026-03-26T08:12:30.000Z</time>
      </trkpt>
      <trkpt lat="48.73564" lon="1.79199">
        <ele>232</ele>
        <time>2026-03-26T08:12:31.000Z</time>
      </trkpt>
      <trkpt lat="48.73564" lon="1.79198">
        <ele>231.9</ele>
        <time>2026-03-26T08:12:32.000Z</time>
      </trkpt>
      <trkpt lat="48.73564" lon="1.79195">
        <ele>232.4</ele>
        <time>2026-03-26T08:12:33.000Z</time>
      </trkpt>
      <trkpt lat="48.73563" lon="1.79193">
        <ele>233.4</ele>
        <time>2026-03-26T08:12:34.000Z</time>
      </trkpt>
      <trkpt lat="48.73563" lon="1.7919">
        <ele>233</ele>
        <time>2026-03-26T08:12:35.000Z</time>
      </trkpt>
      <trkpt lat="48.73563" lon="1.79188">
        <ele>233.1</ele>
        <time>2026-03-26T08:12:36.000Z</time>
      </trkpt>
      <trkpt lat="48.73563" lon="1.79186">
        <ele>232.9</ele>
        <time>2026-03-26T08:12:37.000Z</time>
      </trkpt>
      <trkpt lat="48.73563" lon="1.79184">
        <ele>233.5</ele>
        <time>2026-03-26T08:12:38.000Z</time>
      </trkpt>
      <trkpt lat="48.73564" lon="1.79181">
        <ele>233.6</ele>
        <time>2026-03-26T08:12:39.000Z</time>
      </trkpt>
      <trkpt lat="48.73564" lon="1.79179">
        <ele>233.7</ele>
        <time>2026-03-26T08:12:40.000Z</time>
      </trkpt>
      <trkpt lat="48.73564" lon="1.79177">
        <ele>233.7</ele>
        <time>2026-03-26T08:12:41.000Z</time>
      </trkpt>
      <trkpt lat="48.73565" lon="1.79176">
        <ele>232.9</ele>
        <time>2026-03-26T08:12:42.000Z</time>
      </trkpt>
      <trkpt lat="48.73565" lon="1.79174">
        <ele>233</ele>
        <time>2026-03-26T08:12:43.000Z</time>
      </trkpt>
      <trkpt lat="48.73566" lon="1.79172">
        <ele>233</ele>
        <time>2026-03-26T08:12:44.000Z</time>
      </trkpt>
      <trkpt lat="48.73566" lon="1.7917">
        <ele>232.7</ele>
        <time>2026-03-26T08:12:45.000Z</time>
      </trkpt>
      <trkpt lat="48.73566" lon="1.79168">
        <ele>232.5</ele>
        <time>2026-03-26T08:12:46.000Z</time>
      </trkpt>
      <trkpt lat="48.73567" lon="1.79166">
        <ele>232.6</ele>
        <time>2026-03-26T08:12:47.000Z</time>
      </trkpt>
      <trkpt lat="48.73567" lon="1.79164">
        <ele>232.5</ele>
        <time>2026-03-26T08:12:48.000Z</time>
      </trkpt>
      <trkpt lat="48.73568" lon="1.79163">
        <ele>232.3</ele>
        <time>2026-03-26T08:12:49.000Z</time>
      </trkpt>
      <trkpt lat="48.73568" lon="1.79161">
        <ele>232.8</ele>
        <time>2026-03-26T08:12:50.000Z</time>
      </trkpt>
      <trkpt lat="48.73568" lon="1.79159">
        <ele>233.1</ele>
        <time>2026-03-26T08:12:51.000Z</time>
      </trkpt>
      <trkpt lat="48.73568" lon="1.79156">
        <ele>233.9</ele>
        <time>2026-03-26T08:12:52.000Z</time>
      </trkpt>
      <trkpt lat="48.73568" lon="1.79153">
        <ele>234.5</ele>
        <time>2026-03-26T08:12:53.000Z</time>
      </trkpt>
      <trkpt lat="48.73568" lon="1.7915">
        <ele>235.3</ele>
        <time>2026-03-26T08:12:54.000Z</time>
      </trkpt>
      <trkpt lat="48.73569" lon="1.79148">
        <ele>235.3</ele>
        <time>2026-03-26T08:12:55.000Z</time>
      </trkpt>
      <trkpt lat="48.73569" lon="1.79146">
        <ele>235.5</ele>
        <time>2026-03-26T08:12:56.000Z</time>
      </trkpt>
      <trkpt lat="48.7357" lon="1.79144">
        <ele>235.7</ele>
        <time>2026-03-26T08:12:57.000Z</time>
      </trkpt>
      <trkpt lat="48.73571" lon="1.79142">
        <ele>235.5</ele>
        <time>2026-03-26T08:12:58.000Z</time>
      </trkpt>
      <trkpt lat="48.73571" lon="1.7914">
        <ele>236.2</ele>
        <time>2026-03-26T08:12:59.000Z</time>
      </trkpt>
      <trkpt lat="48.73571" lon="1.79139">
        <ele>236.1</ele>
        <time>2026-03-26T08:13:00.000Z</time>
      </trkpt>
      <trkpt lat="48.73572" lon="1.79137">
        <ele>236.2</ele>
        <time>2026-03-26T08:13:01.000Z</time>
      </trkpt>
      <trkpt lat="48.73572" lon="1.79135">
        <ele>235.9</ele>
        <time>2026-03-26T08:13:02.000Z</time>
      </trkpt>
      <trkpt lat="48.73573" lon="1.79134">
        <ele>235.5</ele>
        <time>2026-03-26T08:13:03.000Z</time>
      </trkpt>
      <trkpt lat="48.73574" lon="1.79132">
        <ele>235.2</ele>
        <time>2026-03-26T08:13:04.000Z</time>
      </trkpt>
      <trkpt lat="48.73575" lon="1.7913">
        <ele>234.9</ele>
        <time>2026-03-26T08:13:05.000Z</time>
      </trkpt>
      <trkpt lat="48.73576" lon="1.79128">
        <ele>234.7</ele>
        <time>2026-03-26T08:13:06.000Z</time>
      </trkpt>
      <trkpt lat="48.73576" lon="1.79126">
        <ele>234.3</ele>
        <time>2026-03-26T08:13:07.000Z</time>
      </trkpt>
      <trkpt lat="48.73577" lon="1.79124">
        <ele>234</ele>
        <time>2026-03-26T08:13:08.000Z</time>
      </trkpt>
      <trkpt lat="48.73577" lon="1.79122">
        <ele>234.4</ele>
        <time>2026-03-26T08:13:09.000Z</time>
      </trkpt>
      <trkpt lat="48.73577" lon="1.7912">
        <ele>235.2</ele>
        <time>2026-03-26T08:13:10.000Z</time>
      </trkpt>
      <trkpt lat="48.73577" lon="1.79118">
        <ele>235.5</ele>
        <time>2026-03-26T08:13:11.000Z</time>
      </trkpt>
      <trkpt lat="48.73578" lon="1.79116">
        <ele>235.5</ele>
        <time>2026-03-26T08:13:12.000Z</time>
      </trkpt>
      <trkpt lat="48.73578" lon="1.79114">
        <ele>235.3</ele>
        <time>2026-03-26T08:13:13.000Z</time>
      </trkpt>
      <trkpt lat="48.73579" lon="1.79112">
        <ele>235.3</ele>
        <time>2026-03-26T08:13:14.000Z</time>
      </trkpt>
      <trkpt lat="48.73579" lon="1.79111">
        <ele>234.9</ele>
        <time>2026-03-26T08:13:15.000Z</time>
      </trkpt>
      <trkpt lat="48.7358" lon="1.79109">
        <ele>234.8</ele>
        <time>2026-03-26T08:13:16.000Z</time>
      </trkpt>
      <trkpt lat="48.7358" lon="1.79107">
        <ele>234.4</ele>
        <time>2026-03-26T08:13:17.000Z</time>
      </trkpt>
      <trkpt lat="48.73581" lon="1.79105">
        <ele>233.8</ele>
        <time>2026-03-26T08:13:18.000Z</time>
      </trkpt>
      <trkpt lat="48.73582" lon="1.79104">
        <ele>233.4</ele>
        <time>2026-03-26T08:13:19.000Z</time>
      </trkpt>
      <trkpt lat="48.73583" lon="1.79102">
        <ele>233.1</ele>
        <time>2026-03-26T08:13:20.000Z</time>
      </trkpt>
      <trkpt lat="48.73584" lon="1.791">
        <ele>232.7</ele>
        <time>2026-03-26T08:13:21.000Z</time>
      </trkpt>
      <trkpt lat="48.73585" lon="1.79099">
        <ele>232.7</ele>
        <time>2026-03-26T08:13:22.000Z</time>
      </trkpt>
      <trkpt lat="48.73586" lon="1.79098">
        <ele>232.2</ele>
        <time>2026-03-26T08:13:23.000Z</time>
      </trkpt>
      <trkpt lat="48.73587" lon="1.79096">
        <ele>232.5</ele>
        <time>2026-03-26T08:13:24.000Z</time>
      </trkpt>
      <trkpt lat="48.73588" lon="1.79094">
        <ele>232.4</ele>
        <time>2026-03-26T08:13:25.000Z</time>
      </trkpt>
      <trkpt lat="48.73588" lon="1.79092">
        <ele>231.8</ele>
        <time>2026-03-26T08:13:26.000Z</time>
      </trkpt>
      <trkpt lat="48.73588" lon="1.7909">
        <ele>231.6</ele>
        <time>2026-03-26T08:13:27.000Z</time>
      </trkpt>
      <trkpt lat="48.73588" lon="1.79088">
        <ele>231.8</ele>
        <time>2026-03-26T08:13:28.000Z</time>
      </trkpt>
      <trkpt lat="48.73588" lon="1.79086">
        <ele>231.8</ele>
        <time>2026-03-26T08:13:29.000Z</time>
      </trkpt>
      <trkpt lat="48.73587" lon="1.79083">
        <ele>232.1</ele>
        <time>2026-03-26T08:13:30.000Z</time>
      </trkpt>
      <trkpt lat="48.73587" lon="1.79081">
        <ele>232.9</ele>
        <time>2026-03-26T08:13:31.000Z</time>
      </trkpt>
      <trkpt lat="48.73587" lon="1.79079">
        <ele>233.2</ele>
        <time>2026-03-26T08:13:32.000Z</time>
      </trkpt>
      <trkpt lat="48.73587" lon="1.79077">
        <ele>233.4</ele>
        <time>2026-03-26T08:13:33.000Z</time>
      </trkpt>
      <trkpt lat="48.73588" lon="1.79074">
        <ele>233.2</ele>
        <time>2026-03-26T08:13:34.000Z</time>
      </trkpt>
      <trkpt lat="48.73588" lon="1.79072">
        <ele>233.1</ele>
        <time>2026-03-26T08:13:35.000Z</time>
      </trkpt>
      <trkpt lat="48.73588" lon="1.7907">
        <ele>232.7</ele>
        <time>2026-03-26T08:13:36.000Z</time>
      </trkpt>
      <trkpt lat="48.73588" lon="1.79068">
        <ele>232.4</ele>
        <time>2026-03-26T08:13:37.000Z</time>
      </trkpt>
      <trkpt lat="48.73588" lon="1.79066">
        <ele>232</ele>
        <time>2026-03-26T08:13:38.000Z</time>
      </trkpt>
      <trkpt lat="48.73589" lon="1.79064">
        <ele>231.8</ele>
        <time>2026-03-26T08:13:39.000Z</time>
      </trkpt>
      <trkpt lat="48.73589" lon="1.79062">
        <ele>231.8</ele>
        <time>2026-03-26T08:13:40.000Z</time>
      </trkpt>
      <trkpt lat="48.73589" lon="1.7906">
        <ele>231.8</ele>
        <time>2026-03-26T08:13:41.000Z</time>
      </trkpt>
      <trkpt lat="48.73589" lon="1.79058">
        <ele>232</ele>
        <time>2026-03-26T08:13:42.000Z</time>
      </trkpt>
      <trkpt lat="48.73589" lon="1.79056">
        <ele>231.9</ele>
        <time>2026-03-26T08:13:43.000Z</time>
      </trkpt>
      <trkpt lat="48.73591" lon="1.79055">
        <ele>232</ele>
        <time>2026-03-26T08:13:44.000Z</time>
      </trkpt>
      <trkpt lat="48.73591" lon="1.79053">
        <ele>231.9</ele>
        <time>2026-03-26T08:13:45.000Z</time>
      </trkpt>
      <trkpt lat="48.73592" lon="1.79051">
        <ele>232</ele>
        <time>2026-03-26T08:13:46.000Z</time>
      </trkpt>
      <trkpt lat="48.73593" lon="1.7905">
        <ele>231.9</ele>
        <time>2026-03-26T08:13:47.000Z</time>
      </trkpt>
      <trkpt lat="48.73594" lon="1.79048">
        <ele>232.1</ele>
        <time>2026-03-26T08:13:48.000Z</time>
      </trkpt>
      <trkpt lat="48.73595" lon="1.79046">
        <ele>232</ele>
        <time>2026-03-26T08:13:49.000Z</time>
      </trkpt>
      <trkpt lat="48.73596" lon="1.79045">
        <ele>231.9</ele>
        <time>2026-03-26T08:13:50.000Z</time>
      </trkpt>
      <trkpt lat="48.73596" lon="1.79043">
        <ele>231.8</ele>
        <time>2026-03-26T08:13:51.000Z</time>
      </trkpt>
      <trkpt lat="48.73597" lon="1.79041">
        <ele>231.6</ele>
        <time>2026-03-26T08:13:52.000Z</time>
      </trkpt>
      <trkpt lat="48.73597" lon="1.79039">
        <ele>231.7</ele>
        <time>2026-03-26T08:13:53.000Z</time>
      </trkpt>
      <trkpt lat="48.73597" lon="1.79037">
        <ele>231.7</ele>
        <time>2026-03-26T08:13:54.000Z</time>
      </trkpt>
      <trkpt lat="48.73597" lon="1.79035">
        <ele>232.2</ele>
        <time>2026-03-26T08:13:55.000Z</time>
      </trkpt>
      <trkpt lat="48.73597" lon="1.79032">
        <ele>232.5</ele>
        <time>2026-03-26T08:13:56.000Z</time>
      </trkpt>
      <trkpt lat="48.73598" lon="1.7903">
        <ele>232.1</ele>
        <time>2026-03-26T08:13:57.000Z</time>
      </trkpt>
      <trkpt lat="48.73598" lon="1.79028">
        <ele>232.1</ele>
        <time>2026-03-26T08:13:58.000Z</time>
      </trkpt>
      <trkpt lat="48.73598" lon="1.79026">
        <ele>232.1</ele>
        <time>2026-03-26T08:13:59.000Z</time>
      </trkpt>
      <trkpt lat="48.73598" lon="1.79024">
        <ele>232</ele>
        <time>2026-03-26T08:14:00.000Z</time>
      </trkpt>
      <trkpt lat="48.73598" lon="1.79022">
        <ele>231.7</ele>
        <time>2026-03-26T08:14:01.000Z</time>
      </trkpt>
      <trkpt lat="48.73598" lon="1.7902">
        <ele>232.4</ele>
        <time>2026-03-26T08:14:02.000Z</time>
      </trkpt>
      <trkpt lat="48.73598" lon="1.79017">
        <ele>232.5</ele>
        <time>2026-03-26T08:14:03.000Z</time>
      </trkpt>
      <trkpt lat="48.73598" lon="1.79015">
        <ele>232.7</ele>
        <time>2026-03-26T08:14:04.000Z</time>
      </trkpt>
      <trkpt lat="48.73599" lon="1.79013">
        <ele>232.6</ele>
        <time>2026-03-26T08:14:05.000Z</time>
      </trkpt>
      <trkpt lat="48.73599" lon="1.79011">
        <ele>232.4</ele>
        <time>2026-03-26T08:14:06.000Z</time>
      </trkpt>
      <trkpt lat="48.73599" lon="1.79009">
        <ele>232.4</ele>
        <time>2026-03-26T08:14:07.000Z</time>
      </trkpt>
      <trkpt lat="48.73599" lon="1.79008">
        <ele>232.1</ele>
        <time>2026-03-26T08:14:08.000Z</time>
      </trkpt>
      <trkpt lat="48.73599" lon="1.79006">
        <ele>231.8</ele>
        <time>2026-03-26T08:14:09.000Z</time>
      </trkpt>
      <trkpt lat="48.73599" lon="1.79004">
        <ele>231.9</ele>
        <time>2026-03-26T08:14:10.000Z</time>
      </trkpt>
      <trkpt lat="48.73599" lon="1.79002">
        <ele>232.2</ele>
        <time>2026-03-26T08:14:11.000Z</time>
      </trkpt>
      <trkpt lat="48.73599" lon="1.79">
        <ele>232.1</ele>
        <time>2026-03-26T08:14:12.000Z</time>
      </trkpt>
      <trkpt lat="48.73599" lon="1.78998">
        <ele>232.3</ele>
        <time>2026-03-26T08:14:13.000Z</time>
      </trkpt>
      <trkpt lat="48.73599" lon="1.78996">
        <ele>232.4</ele>
        <time>2026-03-26T08:14:14.000Z</time>
      </trkpt>
      <trkpt lat="48.73599" lon="1.78994">
        <ele>232.3</ele>
        <time>2026-03-26T08:14:15.000Z</time>
      </trkpt>
      <trkpt lat="48.73599" lon="1.78992">
        <ele>233</ele>
        <time>2026-03-26T08:14:16.000Z</time>
      </trkpt>
      <trkpt lat="48.73599" lon="1.7899">
        <ele>232.8</ele>
        <time>2026-03-26T08:14:17.000Z</time>
      </trkpt>
      <trkpt lat="48.73599" lon="1.78987">
        <ele>232.5</ele>
        <time>2026-03-26T08:14:18.000Z</time>
      </trkpt>
      <trkpt lat="48.736" lon="1.78985">
        <ele>232.4</ele>
        <time>2026-03-26T08:14:19.000Z</time>
      </trkpt>
      <trkpt lat="48.736" lon="1.78983">
        <ele>232</ele>
        <time>2026-03-26T08:14:20.000Z</time>
      </trkpt>
      <trkpt lat="48.736" lon="1.78981">
        <ele>231.7</ele>
        <time>2026-03-26T08:14:21.000Z</time>
      </trkpt>
      <trkpt lat="48.736" lon="1.78979">
        <ele>231.5</ele>
        <time>2026-03-26T08:14:22.000Z</time>
      </trkpt>
      <trkpt lat="48.73601" lon="1.78977">
        <ele>231.3</ele>
        <time>2026-03-26T08:14:23.000Z</time>
      </trkpt>
      <trkpt lat="48.73601" lon="1.78975">
        <ele>231</ele>
        <time>2026-03-26T08:14:24.000Z</time>
      </trkpt>
      <trkpt lat="48.73601" lon="1.78973">
        <ele>230.3</ele>
        <time>2026-03-26T08:14:25.000Z</time>
      </trkpt>
      <trkpt lat="48.73602" lon="1.78971">
        <ele>231.1</ele>
        <time>2026-03-26T08:14:26.000Z</time>
      </trkpt>
      <trkpt lat="48.73602" lon="1.78968">
        <ele>231.2</ele>
        <time>2026-03-26T08:14:27.000Z</time>
      </trkpt>
      <trkpt lat="48.73602" lon="1.78966">
        <ele>231.1</ele>
        <time>2026-03-26T08:14:28.000Z</time>
      </trkpt>
      <trkpt lat="48.73603" lon="1.78964">
        <ele>231</ele>
        <time>2026-03-26T08:14:29.000Z</time>
      </trkpt>
      <trkpt lat="48.73603" lon="1.78963">
        <ele>230.6</ele>
        <time>2026-03-26T08:14:30.000Z</time>
      </trkpt>
      <trkpt lat="48.73604" lon="1.78961">
        <ele>230.4</ele>
        <time>2026-03-26T08:14:31.000Z</time>
      </trkpt>
      <trkpt lat="48.73604" lon="1.78959">
        <ele>230.6</ele>
        <time>2026-03-26T08:14:32.000Z</time>
      </trkpt>
      <trkpt lat="48.73605" lon="1.78957">
        <ele>230.5</ele>
        <time>2026-03-26T08:14:33.000Z</time>
      </trkpt>
      <trkpt lat="48.73605" lon="1.78955">
        <ele>230.4</ele>
        <time>2026-03-26T08:14:34.000Z</time>
      </trkpt>
      <trkpt lat="48.73605" lon="1.78953">
        <ele>230.5</ele>
        <time>2026-03-26T08:14:35.000Z</time>
      </trkpt>
      <trkpt lat="48.73605" lon="1.78951">
        <ele>230.7</ele>
        <time>2026-03-26T08:14:36.000Z</time>
      </trkpt>
      <trkpt lat="48.73605" lon="1.78949">
        <ele>230.7</ele>
        <time>2026-03-26T08:14:37.000Z</time>
      </trkpt>
      <trkpt lat="48.73605" lon="1.78947">
        <ele>231.5</ele>
        <time>2026-03-26T08:14:38.000Z</time>
      </trkpt>
      <trkpt lat="48.73606" lon="1.78944">
        <ele>231.3</ele>
        <time>2026-03-26T08:14:39.000Z</time>
      </trkpt>
      <trkpt lat="48.73606" lon="1.78942">
        <ele>231.2</ele>
        <time>2026-03-26T08:14:40.000Z</time>
      </trkpt>
      <trkpt lat="48.73607" lon="1.7894">
        <ele>231</ele>
        <time>2026-03-26T08:14:41.000Z</time>
      </trkpt>
      <trkpt lat="48.73607" lon="1.78938">
        <ele>231.2</ele>
        <time>2026-03-26T08:14:42.000Z</time>
      </trkpt>
      <trkpt lat="48.73608" lon="1.78936">
        <ele>231.7</ele>
        <time>2026-03-26T08:14:43.000Z</time>
      </trkpt>
      <trkpt lat="48.73608" lon="1.78934">
        <ele>231.7</ele>
        <time>2026-03-26T08:14:44.000Z</time>
      </trkpt>
      <trkpt lat="48.73609" lon="1.78932">
        <ele>231.7</ele>
        <time>2026-03-26T08:14:45.000Z</time>
      </trkpt>
      <trkpt lat="48.73609" lon="1.78931">
        <ele>231.6</ele>
        <time>2026-03-26T08:14:46.000Z</time>
      </trkpt>
      <trkpt lat="48.7361" lon="1.78928">
        <ele>231.8</ele>
        <time>2026-03-26T08:14:47.000Z</time>
      </trkpt>
      <trkpt lat="48.73611" lon="1.78927">
        <ele>231.4</ele>
        <time>2026-03-26T08:14:48.000Z</time>
      </trkpt>
      <trkpt lat="48.73611" lon="1.78925">
        <ele>231.4</ele>
        <time>2026-03-26T08:14:49.000Z</time>
      </trkpt>
      <trkpt lat="48.73612" lon="1.78923">
        <ele>231.1</ele>
        <time>2026-03-26T08:14:50.000Z</time>
      </trkpt>
      <trkpt lat="48.73613" lon="1.78921">
        <ele>231.4</ele>
        <time>2026-03-26T08:14:51.000Z</time>
      </trkpt>
      <trkpt lat="48.73613" lon="1.78919">
        <ele>231.6</ele>
        <time>2026-03-26T08:14:52.000Z</time>
      </trkpt>
      <trkpt lat="48.73614" lon="1.78917">
        <ele>231.3</ele>
        <time>2026-03-26T08:14:53.000Z</time>
      </trkpt>
      <trkpt lat="48.73614" lon="1.78914">
        <ele>231.4</ele>
        <time>2026-03-26T08:14:54.000Z</time>
      </trkpt>
      <trkpt lat="48.73614" lon="1.78912">
        <ele>231.4</ele>
        <time>2026-03-26T08:14:55.000Z</time>
      </trkpt>
      <trkpt lat="48.73614" lon="1.7891">
        <ele>231.8</ele>
        <time>2026-03-26T08:14:56.000Z</time>
      </trkpt>
      <trkpt lat="48.73614" lon="1.78908">
        <ele>231.8</ele>
        <time>2026-03-26T08:14:57.000Z</time>
      </trkpt>
      <trkpt lat="48.73614" lon="1.78906">
        <ele>231.7</ele>
        <time>2026-03-26T08:14:58.000Z</time>
      </trkpt>
      <trkpt lat="48.73615" lon="1.78904">
        <ele>231.8</ele>
        <time>2026-03-26T08:14:59.000Z</time>
      </trkpt>
      <trkpt lat="48.73616" lon="1.78902">
        <ele>231.9</ele>
        <time>2026-03-26T08:15:00.000Z</time>
      </trkpt>
      <trkpt lat="48.73617" lon="1.78901">
        <ele>231.5</ele>
        <time>2026-03-26T08:15:01.000Z</time>
      </trkpt>
      <trkpt lat="48.73618" lon="1.78898">
        <ele>231.7</ele>
        <time>2026-03-26T08:15:02.000Z</time>
      </trkpt>
      <trkpt lat="48.73618" lon="1.78896">
        <ele>231.6</ele>
        <time>2026-03-26T08:15:03.000Z</time>
      </trkpt>
      <trkpt lat="48.73619" lon="1.78895">
        <ele>231.4</ele>
        <time>2026-03-26T08:15:04.000Z</time>
      </trkpt>
      <trkpt lat="48.73619" lon="1.78893">
        <ele>231.2</ele>
        <time>2026-03-26T08:15:05.000Z</time>
      </trkpt>
      <trkpt lat="48.73619" lon="1.78891">
        <ele>231.3</ele>
        <time>2026-03-26T08:15:06.000Z</time>
      </trkpt>
      <trkpt lat="48.7362" lon="1.78889">
        <ele>231.2</ele>
        <time>2026-03-26T08:15:07.000Z</time>
      </trkpt>
      <trkpt lat="48.7362" lon="1.78887">
        <ele>230.9</ele>
        <time>2026-03-26T08:15:08.000Z</time>
      </trkpt>
      <trkpt lat="48.73621" lon="1.78885">
        <ele>230.6</ele>
        <time>2026-03-26T08:15:09.000Z</time>
      </trkpt>
      <trkpt lat="48.73621" lon="1.78883">
        <ele>230.4</ele>
        <time>2026-03-26T08:15:10.000Z</time>
      </trkpt>
      <trkpt lat="48.73622" lon="1.78882">
        <ele>230.2</ele>
        <time>2026-03-26T08:15:11.000Z</time>
      </trkpt>
      <trkpt lat="48.73622" lon="1.7888">
        <ele>229.9</ele>
        <time>2026-03-26T08:15:12.000Z</time>
      </trkpt>
      <trkpt lat="48.73623" lon="1.78878">
        <ele>229.6</ele>
        <time>2026-03-26T08:15:13.000Z</time>
      </trkpt>
      <trkpt lat="48.73623" lon="1.78876">
        <ele>229.6</ele>
        <time>2026-03-26T08:15:14.000Z</time>
      </trkpt>
      <trkpt lat="48.73623" lon="1.78874">
        <ele>229.5</ele>
        <time>2026-03-26T08:15:15.000Z</time>
      </trkpt>
      <trkpt lat="48.73624" lon="1.78871">
        <ele>229.3</ele>
        <time>2026-03-26T08:15:16.000Z</time>
      </trkpt>
      <trkpt lat="48.73624" lon="1.78869">
        <ele>229.2</ele>
        <time>2026-03-26T08:15:17.000Z</time>
      </trkpt>
      <trkpt lat="48.73624" lon="1.78867">
        <ele>229.2</ele>
        <time>2026-03-26T08:15:18.000Z</time>
      </trkpt>
      <trkpt lat="48.73624" lon="1.78865">
        <ele>229.2</ele>
        <time>2026-03-26T08:15:19.000Z</time>
      </trkpt>
      <trkpt lat="48.73625" lon="1.78863">
        <ele>229.2</ele>
        <time>2026-03-26T08:15:20.000Z</time>
      </trkpt>
      <trkpt lat="48.73625" lon="1.78861">
        <ele>229.1</ele>
        <time>2026-03-26T08:15:21.000Z</time>
      </trkpt>
      <trkpt lat="48.73625" lon="1.7886">
        <ele>228.6</ele>
        <time>2026-03-26T08:15:22.000Z</time>
      </trkpt>
      <trkpt lat="48.73626" lon="1.78857">
        <ele>228.6</ele>
        <time>2026-03-26T08:15:23.000Z</time>
      </trkpt>
      <trkpt lat="48.73626" lon="1.78856">
        <ele>228.7</ele>
        <time>2026-03-26T08:15:24.000Z</time>
      </trkpt>
      <trkpt lat="48.73626" lon="1.78854">
        <ele>228.7</ele>
        <time>2026-03-26T08:15:25.000Z</time>
      </trkpt>
      <trkpt lat="48.73626" lon="1.78852">
        <ele>228.7</ele>
        <time>2026-03-26T08:15:26.000Z</time>
      </trkpt>
      <trkpt lat="48.73626" lon="1.7885">
        <ele>228.6</ele>
        <time>2026-03-26T08:15:27.000Z</time>
      </trkpt>
      <trkpt lat="48.73626" lon="1.78848">
        <ele>228.7</ele>
        <time>2026-03-26T08:15:28.000Z</time>
      </trkpt>
      <trkpt lat="48.73627" lon="1.78846">
        <ele>228.5</ele>
        <time>2026-03-26T08:15:29.000Z</time>
      </trkpt>
      <trkpt lat="48.73627" lon="1.78844">
        <ele>228.7</ele>
        <time>2026-03-26T08:15:30.000Z</time>
      </trkpt>
      <trkpt lat="48.73627" lon="1.78842">
        <ele>228.5</ele>
        <time>2026-03-26T08:15:31.000Z</time>
      </trkpt>
      <trkpt lat="48.73628" lon="1.78839">
        <ele>228.5</ele>
        <time>2026-03-26T08:15:32.000Z</time>
      </trkpt>
      <trkpt lat="48.73628" lon="1.78838">
        <ele>228.3</ele>
        <time>2026-03-26T08:15:33.000Z</time>
      </trkpt>
      <trkpt lat="48.73629" lon="1.78836">
        <ele>228.2</ele>
        <time>2026-03-26T08:15:34.000Z</time>
      </trkpt>
      <trkpt lat="48.73629" lon="1.78834">
        <ele>227.9</ele>
        <time>2026-03-26T08:15:35.000Z</time>
      </trkpt>
      <trkpt lat="48.7363" lon="1.78832">
        <ele>227.7</ele>
        <time>2026-03-26T08:15:36.000Z</time>
      </trkpt>
      <trkpt lat="48.7363" lon="1.7883">
        <ele>227.8</ele>
        <time>2026-03-26T08:15:37.000Z</time>
      </trkpt>
      <trkpt lat="48.73631" lon="1.78828">
        <ele>227.5</ele>
        <time>2026-03-26T08:15:38.000Z</time>
      </trkpt>
      <trkpt lat="48.73631" lon="1.78826">
        <ele>227.3</ele>
        <time>2026-03-26T08:15:39.000Z</time>
      </trkpt>
      <trkpt lat="48.73632" lon="1.78825">
        <ele>227.2</ele>
        <time>2026-03-26T08:15:40.000Z</time>
      </trkpt>
      <trkpt lat="48.73632" lon="1.78822">
        <ele>227.2</ele>
        <time>2026-03-26T08:15:41.000Z</time>
      </trkpt>
      <trkpt lat="48.73633" lon="1.7882">
        <ele>227.3</ele>
        <time>2026-03-26T08:15:42.000Z</time>
      </trkpt>
      <trkpt lat="48.73633" lon="1.78818">
        <ele>227.3</ele>
        <time>2026-03-26T08:15:43.000Z</time>
      </trkpt>
      <trkpt lat="48.73634" lon="1.78816">
        <ele>227.1</ele>
        <time>2026-03-26T08:15:44.000Z</time>
      </trkpt>
      <trkpt lat="48.73634" lon="1.78814">
        <ele>227.1</ele>
        <time>2026-03-26T08:15:45.000Z</time>
      </trkpt>
      <trkpt lat="48.73635" lon="1.78812">
        <ele>227.1</ele>
        <time>2026-03-26T08:15:46.000Z</time>
      </trkpt>
      <trkpt lat="48.73635" lon="1.7881">
        <ele>227</ele>
        <time>2026-03-26T08:15:47.000Z</time>
      </trkpt>
      <trkpt lat="48.73636" lon="1.78807">
        <ele>226.9</ele>
        <time>2026-03-26T08:15:48.000Z</time>
      </trkpt>
      <trkpt lat="48.73636" lon="1.78805">
        <ele>226.8</ele>
        <time>2026-03-26T08:15:49.000Z</time>
      </trkpt>
      <trkpt lat="48.73637" lon="1.78803">
        <ele>226.8</ele>
        <time>2026-03-26T08:15:50.000Z</time>
      </trkpt>
      <trkpt lat="48.73638" lon="1.78801">
        <ele>226.8</ele>
        <time>2026-03-26T08:15:51.000Z</time>
      </trkpt>
      <trkpt lat="48.73638" lon="1.78799">
        <ele>226.7</ele>
        <time>2026-03-26T08:15:52.000Z</time>
      </trkpt>
      <trkpt lat="48.73639" lon="1.78797">
        <ele>226.4</ele>
        <time>2026-03-26T08:15:53.000Z</time>
      </trkpt>
      <trkpt lat="48.73639" lon="1.78795">
        <ele>226.2</ele>
        <time>2026-03-26T08:15:54.000Z</time>
      </trkpt>
      <trkpt lat="48.73639" lon="1.78793">
        <ele>226.1</ele>
        <time>2026-03-26T08:15:55.000Z</time>
      </trkpt>
      <trkpt lat="48.7364" lon="1.78791">
        <ele>226.1</ele>
        <time>2026-03-26T08:15:56.000Z</time>
      </trkpt>
      <trkpt lat="48.7364" lon="1.78789">
        <ele>226.1</ele>
        <time>2026-03-26T08:15:57.000Z</time>
      </trkpt>
      <trkpt lat="48.73641" lon="1.78787">
        <ele>226.1</ele>
        <time>2026-03-26T08:15:58.000Z</time>
      </trkpt>
      <trkpt lat="48.73641" lon="1.78785">
        <ele>226.1</ele>
        <time>2026-03-26T08:15:59.000Z</time>
      </trkpt>
      <trkpt lat="48.73642" lon="1.78783">
        <ele>226.1</ele>
        <time>2026-03-26T08:16:00.000Z</time>
      </trkpt>
      <trkpt lat="48.73642" lon="1.7878">
        <ele>226</ele>
        <time>2026-03-26T08:16:01.000Z</time>
      </trkpt>
      <trkpt lat="48.73642" lon="1.78778">
        <ele>226.1</ele>
        <time>2026-03-26T08:16:02.000Z</time>
      </trkpt>
      <trkpt lat="48.73643" lon="1.78776">
        <ele>226</ele>
        <time>2026-03-26T08:16:03.000Z</time>
      </trkpt>
      <trkpt lat="48.73643" lon="1.78774">
        <ele>226.2</ele>
        <time>2026-03-26T08:16:04.000Z</time>
      </trkpt>
      <trkpt lat="48.73644" lon="1.78772">
        <ele>226</ele>
        <time>2026-03-26T08:16:05.000Z</time>
      </trkpt>
      <trkpt lat="48.73644" lon="1.7877">
        <ele>226.1</ele>
        <time>2026-03-26T08:16:06.000Z</time>
      </trkpt>
      <trkpt lat="48.73644" lon="1.78768">
        <ele>226</ele>
        <time>2026-03-26T08:16:07.000Z</time>
      </trkpt>
      <trkpt lat="48.73645" lon="1.78766">
        <ele>226.1</ele>
        <time>2026-03-26T08:16:08.000Z</time>
      </trkpt>
      <trkpt lat="48.73645" lon="1.78763">
        <ele>225.9</ele>
        <time>2026-03-26T08:16:09.000Z</time>
      </trkpt>
      <trkpt lat="48.73646" lon="1.78761">
        <ele>225.9</ele>
        <time>2026-03-26T08:16:10.000Z</time>
      </trkpt>
      <trkpt lat="48.73646" lon="1.78759">
        <ele>226</ele>
        <time>2026-03-26T08:16:11.000Z</time>
      </trkpt>
      <trkpt lat="48.73647" lon="1.78757">
        <ele>226</ele>
        <time>2026-03-26T08:16:12.000Z</time>
      </trkpt>
      <trkpt lat="48.73647" lon="1.78755">
        <ele>225.8</ele>
        <time>2026-03-26T08:16:13.000Z</time>
      </trkpt>
      <trkpt lat="48.73648" lon="1.78753">
        <ele>225.8</ele>
        <time>2026-03-26T08:16:14.000Z</time>
      </trkpt>
      <trkpt lat="48.73648" lon="1.78751">
        <ele>225.8</ele>
        <time>2026-03-26T08:16:15.000Z</time>
      </trkpt>
      <trkpt lat="48.73649" lon="1.78749">
        <ele>225.8</ele>
        <time>2026-03-26T08:16:16.000Z</time>
      </trkpt>
      <trkpt lat="48.73649" lon="1.78746">
        <ele>225.7</ele>
        <time>2026-03-26T08:16:17.000Z</time>
      </trkpt>
      <trkpt lat="48.7365" lon="1.78744">
        <ele>225.5</ele>
        <time>2026-03-26T08:16:18.000Z</time>
      </trkpt>
      <trkpt lat="48.7365" lon="1.78742">
        <ele>225.5</ele>
        <time>2026-03-26T08:16:19.000Z</time>
      </trkpt>
      <trkpt lat="48.7365" lon="1.7874">
        <ele>225.4</ele>
        <time>2026-03-26T08:16:20.000Z</time>
      </trkpt>
      <trkpt lat="48.73651" lon="1.78738">
        <ele>225.5</ele>
        <time>2026-03-26T08:16:21.000Z</time>
      </trkpt>
      <trkpt lat="48.73651" lon="1.78736">
        <ele>225.4</ele>
        <time>2026-03-26T08:16:22.000Z</time>
      </trkpt>
      <trkpt lat="48.73652" lon="1.78734">
        <ele>225.4</ele>
        <time>2026-03-26T08:16:23.000Z</time>
      </trkpt>
      <trkpt lat="48.73652" lon="1.78731">
        <ele>225.5</ele>
        <time>2026-03-26T08:16:24.000Z</time>
      </trkpt>
      <trkpt lat="48.73652" lon="1.78729">
        <ele>225.6</ele>
        <time>2026-03-26T08:16:25.000Z</time>
      </trkpt>
      <trkpt lat="48.73653" lon="1.78727">
        <ele>225.7</ele>
        <time>2026-03-26T08:16:26.000Z</time>
      </trkpt>
      <trkpt lat="48.73653" lon="1.78725">
        <ele>225.8</ele>
        <time>2026-03-26T08:16:27.000Z</time>
      </trkpt>
      <trkpt lat="48.73654" lon="1.78723">
        <ele>226</ele>
        <time>2026-03-26T08:16:28.000Z</time>
      </trkpt>
      <trkpt lat="48.73654" lon="1.78721">
        <ele>226.1</ele>
        <time>2026-03-26T08:16:29.000Z</time>
      </trkpt>
      <trkpt lat="48.73654" lon="1.78719">
        <ele>226.2</ele>
        <time>2026-03-26T08:16:30.000Z</time>
      </trkpt>
      <trkpt lat="48.73654" lon="1.78716">
        <ele>226.2</ele>
        <time>2026-03-26T08:16:31.000Z</time>
      </trkpt>
      <trkpt lat="48.73654" lon="1.78714">
        <ele>226.2</ele>
        <time>2026-03-26T08:16:32.000Z</time>
      </trkpt>
      <trkpt lat="48.73655" lon="1.78712">
        <ele>226.4</ele>
        <time>2026-03-26T08:16:33.000Z</time>
      </trkpt>
      <trkpt lat="48.73655" lon="1.7871">
        <ele>226.5</ele>
        <time>2026-03-26T08:16:34.000Z</time>
      </trkpt>
      <trkpt lat="48.73655" lon="1.78707">
        <ele>226.7</ele>
        <time>2026-03-26T08:16:35.000Z</time>
      </trkpt>
      <trkpt lat="48.73656" lon="1.78705">
        <ele>226.8</ele>
        <time>2026-03-26T08:16:36.000Z</time>
      </trkpt>
      <trkpt lat="48.73656" lon="1.78703">
        <ele>226.8</ele>
        <time>2026-03-26T08:16:37.000Z</time>
      </trkpt>
      <trkpt lat="48.73656" lon="1.78701">
        <ele>226.7</ele>
        <time>2026-03-26T08:16:38.000Z</time>
      </trkpt>
      <trkpt lat="48.73657" lon="1.78699">
        <ele>226.4</ele>
        <time>2026-03-26T08:16:39.000Z</time>
      </trkpt>
      <trkpt lat="48.73657" lon="1.78696">
        <ele>226.5</ele>
        <time>2026-03-26T08:16:40.000Z</time>
      </trkpt>
      <trkpt lat="48.73657" lon="1.78694">
        <ele>226.4</ele>
        <time>2026-03-26T08:16:41.000Z</time>
      </trkpt>
      <trkpt lat="48.73658" lon="1.78692">
        <ele>226.5</ele>
        <time>2026-03-26T08:16:42.000Z</time>
      </trkpt>
      <trkpt lat="48.73658" lon="1.7869">
        <ele>226.4</ele>
        <time>2026-03-26T08:16:43.000Z</time>
      </trkpt>
      <trkpt lat="48.73658" lon="1.78687">
        <ele>226.6</ele>
        <time>2026-03-26T08:16:44.000Z</time>
      </trkpt>
      <trkpt lat="48.73659" lon="1.78685">
        <ele>226.4</ele>
        <time>2026-03-26T08:16:45.000Z</time>
      </trkpt>
      <trkpt lat="48.7366" lon="1.78683">
        <ele>226.4</ele>
        <time>2026-03-26T08:16:46.000Z</time>
      </trkpt>
      <trkpt lat="48.7366" lon="1.78681">
        <ele>226.5</ele>
        <time>2026-03-26T08:16:47.000Z</time>
      </trkpt>
      <trkpt lat="48.73661" lon="1.78679">
        <ele>226.6</ele>
        <time>2026-03-26T08:16:48.000Z</time>
      </trkpt>
      <trkpt lat="48.73661" lon="1.78677">
        <ele>226.6</ele>
        <time>2026-03-26T08:16:49.000Z</time>
      </trkpt>
      <trkpt lat="48.73662" lon="1.78675">
        <ele>226.8</ele>
        <time>2026-03-26T08:16:50.000Z</time>
      </trkpt>
      <trkpt lat="48.73663" lon="1.78673">
        <ele>226.7</ele>
        <time>2026-03-26T08:16:51.000Z</time>
      </trkpt>
      <trkpt lat="48.73663" lon="1.78671">
        <ele>226.7</ele>
        <time>2026-03-26T08:16:52.000Z</time>
      </trkpt>
      <trkpt lat="48.73664" lon="1.78669">
        <ele>226.6</ele>
        <time>2026-03-26T08:16:53.000Z</time>
      </trkpt>
      <trkpt lat="48.73664" lon="1.78667">
        <ele>226.6</ele>
        <time>2026-03-26T08:16:54.000Z</time>
      </trkpt>
      <trkpt lat="48.73665" lon="1.78665">
        <ele>226.5</ele>
        <time>2026-03-26T08:16:55.000Z</time>
      </trkpt>
      <trkpt lat="48.73665" lon="1.78663">
        <ele>226.4</ele>
        <time>2026-03-26T08:16:56.000Z</time>
      </trkpt>
      <trkpt lat="48.73666" lon="1.78661">
        <ele>226.5</ele>
        <time>2026-03-26T08:16:57.000Z</time>
      </trkpt>
      <trkpt lat="48.73667" lon="1.78659">
        <ele>226.5</ele>
        <time>2026-03-26T08:16:58.000Z</time>
      </trkpt>
      <trkpt lat="48.73667" lon="1.78657">
        <ele>226.3</ele>
        <time>2026-03-26T08:16:59.000Z</time>
      </trkpt>
      <trkpt lat="48.73668" lon="1.78655">
        <ele>226.2</ele>
        <time>2026-03-26T08:17:00.000Z</time>
      </trkpt>
      <trkpt lat="48.73668" lon="1.78653">
        <ele>226.2</ele>
        <time>2026-03-26T08:17:01.000Z</time>
      </trkpt>
      <trkpt lat="48.73669" lon="1.78651">
        <ele>226.1</ele>
        <time>2026-03-26T08:17:02.000Z</time>
      </trkpt>
      <trkpt lat="48.73669" lon="1.78649">
        <ele>226.2</ele>
        <time>2026-03-26T08:17:03.000Z</time>
      </trkpt>
      <trkpt lat="48.7367" lon="1.78647">
        <ele>226.4</ele>
        <time>2026-03-26T08:17:04.000Z</time>
      </trkpt>
      <trkpt lat="48.73671" lon="1.78645">
        <ele>226.5</ele>
        <time>2026-03-26T08:17:05.000Z</time>
      </trkpt>
      <trkpt lat="48.73671" lon="1.78643">
        <ele>226.5</ele>
        <time>2026-03-26T08:17:06.000Z</time>
      </trkpt>
      <trkpt lat="48.73672" lon="1.78641">
        <ele>226.2</ele>
        <time>2026-03-26T08:17:07.000Z</time>
      </trkpt>
      <trkpt lat="48.73672" lon="1.78639">
        <ele>226.1</ele>
        <time>2026-03-26T08:17:08.000Z</time>
      </trkpt>
      <trkpt lat="48.73672" lon="1.78637">
        <ele>226.1</ele>
        <time>2026-03-26T08:17:09.000Z</time>
      </trkpt>
      <trkpt lat="48.73673" lon="1.78635">
        <ele>226.3</ele>
        <time>2026-03-26T08:17:10.000Z</time>
      </trkpt>
      <trkpt lat="48.73673" lon="1.78633">
        <ele>226.5</ele>
        <time>2026-03-26T08:17:11.000Z</time>
      </trkpt>
      <trkpt lat="48.73674" lon="1.78631">
        <ele>226.3</ele>
        <time>2026-03-26T08:17:12.000Z</time>
      </trkpt>
      <trkpt lat="48.73675" lon="1.78629">
        <ele>226.5</ele>
        <time>2026-03-26T08:17:13.000Z</time>
      </trkpt>
      <trkpt lat="48.73675" lon="1.78627">
        <ele>226.4</ele>
        <time>2026-03-26T08:17:14.000Z</time>
      </trkpt>
      <trkpt lat="48.73676" lon="1.78625">
        <ele>225.9</ele>
        <time>2026-03-26T08:17:15.000Z</time>
      </trkpt>
      <trkpt lat="48.73676" lon="1.78623">
        <ele>225.9</ele>
        <time>2026-03-26T08:17:16.000Z</time>
      </trkpt>
      <trkpt lat="48.73676" lon="1.7862">
        <ele>225.6</ele>
        <time>2026-03-26T08:17:17.000Z</time>
      </trkpt>
      <trkpt lat="48.73677" lon="1.78618">
        <ele>225.9</ele>
        <time>2026-03-26T08:17:18.000Z</time>
      </trkpt>
      <trkpt lat="48.73677" lon="1.78616">
        <ele>225.8</ele>
        <time>2026-03-26T08:17:19.000Z</time>
      </trkpt>
      <trkpt lat="48.73677" lon="1.78613">
        <ele>226</ele>
        <time>2026-03-26T08:17:20.000Z</time>
      </trkpt>
      <trkpt lat="48.73678" lon="1.78611">
        <ele>225.9</ele>
        <time>2026-03-26T08:17:21.000Z</time>
      </trkpt>
      <trkpt lat="48.73678" lon="1.78609">
        <ele>225.9</ele>
        <time>2026-03-26T08:17:22.000Z</time>
      </trkpt>
      <trkpt lat="48.73679" lon="1.78607">
        <ele>226.4</ele>
        <time>2026-03-26T08:17:23.000Z</time>
      </trkpt>
      <trkpt lat="48.73679" lon="1.78604">
        <ele>226.4</ele>
        <time>2026-03-26T08:17:24.000Z</time>
      </trkpt>
      <trkpt lat="48.73679" lon="1.78602">
        <ele>226.4</ele>
        <time>2026-03-26T08:17:25.000Z</time>
      </trkpt>
      <trkpt lat="48.7368" lon="1.786">
        <ele>226.3</ele>
        <time>2026-03-26T08:17:26.000Z</time>
      </trkpt>
      <trkpt lat="48.7368" lon="1.78598">
        <ele>226.3</ele>
        <time>2026-03-26T08:17:27.000Z</time>
      </trkpt>
      <trkpt lat="48.7368" lon="1.78596">
        <ele>226.3</ele>
        <time>2026-03-26T08:17:28.000Z</time>
      </trkpt>
      <trkpt lat="48.73681" lon="1.78594">
        <ele>226.5</ele>
        <time>2026-03-26T08:17:29.000Z</time>
      </trkpt>
      <trkpt lat="48.73681" lon="1.78592">
        <ele>226.4</ele>
        <time>2026-03-26T08:17:30.000Z</time>
      </trkpt>
      <trkpt lat="48.73682" lon="1.7859">
        <ele>226.7</ele>
        <time>2026-03-26T08:17:31.000Z</time>
      </trkpt>
      <trkpt lat="48.73682" lon="1.78588">
        <ele>226.8</ele>
        <time>2026-03-26T08:17:32.000Z</time>
      </trkpt>
      <trkpt lat="48.73683" lon="1.78586">
        <ele>227</ele>
        <time>2026-03-26T08:17:33.000Z</time>
      </trkpt>
      <trkpt lat="48.73683" lon="1.78584">
        <ele>227.3</ele>
        <time>2026-03-26T08:17:34.000Z</time>
      </trkpt>
      <trkpt lat="48.73683" lon="1.78581">
        <ele>227.6</ele>
        <time>2026-03-26T08:17:35.000Z</time>
      </trkpt>
      <trkpt lat="48.73683" lon="1.78579">
        <ele>228.3</ele>
        <time>2026-03-26T08:17:36.000Z</time>
      </trkpt>
      <trkpt lat="48.73684" lon="1.78577">
        <ele>228.4</ele>
        <time>2026-03-26T08:17:37.000Z</time>
      </trkpt>
      <trkpt lat="48.73684" lon="1.78575">
        <ele>228.4</ele>
        <time>2026-03-26T08:17:38.000Z</time>
      </trkpt>
      <trkpt lat="48.73684" lon="1.78573">
        <ele>228.4</ele>
        <time>2026-03-26T08:17:39.000Z</time>
      </trkpt>
      <trkpt lat="48.73684" lon="1.78571">
        <ele>228.6</ele>
        <time>2026-03-26T08:17:40.000Z</time>
      </trkpt>
      <trkpt lat="48.73685" lon="1.78569">
        <ele>228.7</ele>
        <time>2026-03-26T08:17:41.000Z</time>
      </trkpt>
      <trkpt lat="48.73685" lon="1.78567">
        <ele>228.8</ele>
        <time>2026-03-26T08:17:42.000Z</time>
      </trkpt>
      <trkpt lat="48.73685" lon="1.78565">
        <ele>228.7</ele>
        <time>2026-03-26T08:17:43.000Z</time>
      </trkpt>
      <trkpt lat="48.73686" lon="1.78563">
        <ele>228.5</ele>
        <time>2026-03-26T08:17:44.000Z</time>
      </trkpt>
      <trkpt lat="48.73686" lon="1.78562">
        <ele>228.7</ele>
        <time>2026-03-26T08:17:45.000Z</time>
      </trkpt>
      <trkpt lat="48.73686" lon="1.7856">
        <ele>228.8</ele>
        <time>2026-03-26T08:17:46.000Z</time>
      </trkpt>
      <trkpt lat="48.73687" lon="1.78558">
        <ele>228.9</ele>
        <time>2026-03-26T08:17:47.000Z</time>
      </trkpt>
      <trkpt lat="48.73687" lon="1.78556">
        <ele>228.8</ele>
        <time>2026-03-26T08:17:48.000Z</time>
      </trkpt>
      <trkpt lat="48.73687" lon="1.78554">
        <ele>228.7</ele>
        <time>2026-03-26T08:17:49.000Z</time>
      </trkpt>
      <trkpt lat="48.73688" lon="1.78552">
        <ele>228.5</ele>
        <time>2026-03-26T08:17:50.000Z</time>
      </trkpt>
      <trkpt lat="48.73688" lon="1.7855">
        <ele>228.4</ele>
        <time>2026-03-26T08:17:51.000Z</time>
      </trkpt>
      <trkpt lat="48.73689" lon="1.78548">
        <ele>228.4</ele>
        <time>2026-03-26T08:17:52.000Z</time>
      </trkpt>
      <trkpt lat="48.73689" lon="1.78546">
        <ele>228.3</ele>
        <time>2026-03-26T08:17:53.000Z</time>
      </trkpt>
      <trkpt lat="48.7369" lon="1.78544">
        <ele>228.4</ele>
        <time>2026-03-26T08:17:54.000Z</time>
      </trkpt>
      <trkpt lat="48.7369" lon="1.78542">
        <ele>228.3</ele>
        <time>2026-03-26T08:17:55.000Z</time>
      </trkpt>
      <trkpt lat="48.7369" lon="1.7854">
        <ele>228.3</ele>
        <time>2026-03-26T08:17:56.000Z</time>
      </trkpt>
      <trkpt lat="48.73691" lon="1.78538">
        <ele>228.2</ele>
        <time>2026-03-26T08:17:57.000Z</time>
      </trkpt>
      <trkpt lat="48.73691" lon="1.78536">
        <ele>228.1</ele>
        <time>2026-03-26T08:17:58.000Z</time>
      </trkpt>
      <trkpt lat="48.73692" lon="1.78535">
        <ele>227.9</ele>
        <time>2026-03-26T08:17:59.000Z</time>
      </trkpt>
      <trkpt lat="48.73692" lon="1.78533">
        <ele>228.1</ele>
        <time>2026-03-26T08:18:00.000Z</time>
      </trkpt>
      <trkpt lat="48.73692" lon="1.78531">
        <ele>228.3</ele>
        <time>2026-03-26T08:18:01.000Z</time>
      </trkpt>
      <trkpt lat="48.73693" lon="1.78529">
        <ele>228.1</ele>
        <time>2026-03-26T08:18:02.000Z</time>
      </trkpt>
      <trkpt lat="48.73693" lon="1.78527">
        <ele>227.9</ele>
        <time>2026-03-26T08:18:03.000Z</time>
      </trkpt>
      <trkpt lat="48.73694" lon="1.78525">
        <ele>228</ele>
        <time>2026-03-26T08:18:04.000Z</time>
      </trkpt>
      <trkpt lat="48.73693" lon="1.78523">
        <ele>227.9</ele>
        <time>2026-03-26T08:18:05.000Z</time>
      </trkpt>
      <trkpt lat="48.73694" lon="1.78521">
        <ele>228</ele>
        <time>2026-03-26T08:18:06.000Z</time>
      </trkpt>
      <trkpt lat="48.73694" lon="1.78519">
        <ele>227.6</ele>
        <time>2026-03-26T08:18:07.000Z</time>
      </trkpt>
      <trkpt lat="48.73695" lon="1.78517">
        <ele>228</ele>
        <time>2026-03-26T08:18:08.000Z</time>
      </trkpt>
      <trkpt lat="48.73695" lon="1.78515">
        <ele>227.9</ele>
        <time>2026-03-26T08:18:09.000Z</time>
      </trkpt>
      <trkpt lat="48.73696" lon="1.78513">
        <ele>228</ele>
        <time>2026-03-26T08:18:10.000Z</time>
      </trkpt>
      <trkpt lat="48.73697" lon="1.78512">
        <ele>228</ele>
        <time>2026-03-26T08:18:11.000Z</time>
      </trkpt>
      <trkpt lat="48.73698" lon="1.7851">
        <ele>227.7</ele>
        <time>2026-03-26T08:18:12.000Z</time>
      </trkpt>
      <trkpt lat="48.73698" lon="1.78508">
        <ele>228</ele>
        <time>2026-03-26T08:18:13.000Z</time>
      </trkpt>
      <trkpt lat="48.73699" lon="1.78506">
        <ele>228.2</ele>
        <time>2026-03-26T08:18:14.000Z</time>
      </trkpt>
      <trkpt lat="48.73699" lon="1.78504">
        <ele>228</ele>
        <time>2026-03-26T08:18:15.000Z</time>
      </trkpt>
      <trkpt lat="48.73699" lon="1.78502">
        <ele>228</ele>
        <time>2026-03-26T08:18:16.000Z</time>
      </trkpt>
      <trkpt lat="48.737" lon="1.785">
        <ele>228</ele>
        <time>2026-03-26T08:18:17.000Z</time>
      </trkpt>
      <trkpt lat="48.737" lon="1.78498">
        <ele>228.2</ele>
        <time>2026-03-26T08:18:18.000Z</time>
      </trkpt>
      <trkpt lat="48.73701" lon="1.78496">
        <ele>228</ele>
        <time>2026-03-26T08:18:19.000Z</time>
      </trkpt>
      <trkpt lat="48.73701" lon="1.78494">
        <ele>227.9</ele>
        <time>2026-03-26T08:18:20.000Z</time>
      </trkpt>
      <trkpt lat="48.73701" lon="1.78492">
        <ele>227.7</ele>
        <time>2026-03-26T08:18:21.000Z</time>
      </trkpt>
      <trkpt lat="48.73702" lon="1.7849">
        <ele>227.4</ele>
        <time>2026-03-26T08:18:22.000Z</time>
      </trkpt>
      <trkpt lat="48.73702" lon="1.78488">
        <ele>227.4</ele>
        <time>2026-03-26T08:18:23.000Z</time>
      </trkpt>
      <trkpt lat="48.73702" lon="1.78486">
        <ele>227</ele>
        <time>2026-03-26T08:18:24.000Z</time>
      </trkpt>
      <trkpt lat="48.73703" lon="1.78484">
        <ele>226.8</ele>
        <time>2026-03-26T08:18:25.000Z</time>
      </trkpt>
      <trkpt lat="48.73703" lon="1.78482">
        <ele>226.8</ele>
        <time>2026-03-26T08:18:26.000Z</time>
      </trkpt>
      <trkpt lat="48.73703" lon="1.7848">
        <ele>226.8</ele>
        <time>2026-03-26T08:18:27.000Z</time>
      </trkpt>
      <trkpt lat="48.73704" lon="1.78478">
        <ele>226.9</ele>
        <time>2026-03-26T08:18:28.000Z</time>
      </trkpt>
      <trkpt lat="48.73704" lon="1.78476">
        <ele>226.9</ele>
        <time>2026-03-26T08:18:29.000Z</time>
      </trkpt>
      <trkpt lat="48.73704" lon="1.78474">
        <ele>226.9</ele>
        <time>2026-03-26T08:18:30.000Z</time>
      </trkpt>
      <trkpt lat="48.73705" lon="1.78472">
        <ele>226.7</ele>
        <time>2026-03-26T08:18:31.000Z</time>
      </trkpt>
      <trkpt lat="48.73705" lon="1.7847">
        <ele>226.7</ele>
        <time>2026-03-26T08:18:32.000Z</time>
      </trkpt>
      <trkpt lat="48.73705" lon="1.78468">
        <ele>226.5</ele>
        <time>2026-03-26T08:18:33.000Z</time>
      </trkpt>
      <trkpt lat="48.73706" lon="1.78466">
        <ele>226.2</ele>
        <time>2026-03-26T08:18:34.000Z</time>
      </trkpt>
      <trkpt lat="48.73706" lon="1.78464">
        <ele>226.1</ele>
        <time>2026-03-26T08:18:35.000Z</time>
      </trkpt>
      <trkpt lat="48.73707" lon="1.78462">
        <ele>225.9</ele>
        <time>2026-03-26T08:18:36.000Z</time>
      </trkpt>
      <trkpt lat="48.73707" lon="1.7846">
        <ele>225.7</ele>
        <time>2026-03-26T08:18:37.000Z</time>
      </trkpt>
      <trkpt lat="48.73708" lon="1.78458">
        <ele>225.7</ele>
        <time>2026-03-26T08:18:38.000Z</time>
      </trkpt>
      <trkpt lat="48.73708" lon="1.78456">
        <ele>225.7</ele>
        <time>2026-03-26T08:18:39.000Z</time>
      </trkpt>
      <trkpt lat="48.73709" lon="1.78454">
        <ele>225.8</ele>
        <time>2026-03-26T08:18:40.000Z</time>
      </trkpt>
      <trkpt lat="48.73709" lon="1.78452">
        <ele>226</ele>
        <time>2026-03-26T08:18:41.000Z</time>
      </trkpt>
      <trkpt lat="48.7371" lon="1.7845">
        <ele>226.1</ele>
        <time>2026-03-26T08:18:42.000Z</time>
      </trkpt>
      <trkpt lat="48.7371" lon="1.78448">
        <ele>225.9</ele>
        <time>2026-03-26T08:18:43.000Z</time>
      </trkpt>
      <trkpt lat="48.7371" lon="1.78446">
        <ele>225.9</ele>
        <time>2026-03-26T08:18:44.000Z</time>
      </trkpt>
      <trkpt lat="48.73711" lon="1.78444">
        <ele>225.8</ele>
        <time>2026-03-26T08:18:45.000Z</time>
      </trkpt>
      <trkpt lat="48.73711" lon="1.78442">
        <ele>225.7</ele>
        <time>2026-03-26T08:18:46.000Z</time>
      </trkpt>
      <trkpt lat="48.73712" lon="1.78439">
        <ele>225.8</ele>
        <time>2026-03-26T08:18:47.000Z</time>
      </trkpt>
      <trkpt lat="48.73712" lon="1.78437">
        <ele>225.8</ele>
        <time>2026-03-26T08:18:48.000Z</time>
      </trkpt>
      <trkpt lat="48.73712" lon="1.78435">
        <ele>225.9</ele>
        <time>2026-03-26T08:18:49.000Z</time>
      </trkpt>
      <trkpt lat="48.73713" lon="1.78433">
        <ele>225.6</ele>
        <time>2026-03-26T08:18:50.000Z</time>
      </trkpt>
      <trkpt lat="48.73713" lon="1.78431">
        <ele>225.6</ele>
        <time>2026-03-26T08:18:51.000Z</time>
      </trkpt>
      <trkpt lat="48.73714" lon="1.78429">
        <ele>225.5</ele>
        <time>2026-03-26T08:18:52.000Z</time>
      </trkpt>
      <trkpt lat="48.73714" lon="1.78427">
        <ele>225.5</ele>
        <time>2026-03-26T08:18:53.000Z</time>
      </trkpt>
      <trkpt lat="48.73715" lon="1.78425">
        <ele>225.6</ele>
        <time>2026-03-26T08:18:54.000Z</time>
      </trkpt>
      <trkpt lat="48.73715" lon="1.78423">
        <ele>225.7</ele>
        <time>2026-03-26T08:18:55.000Z</time>
      </trkpt>
      <trkpt lat="48.73715" lon="1.78421">
        <ele>225.6</ele>
        <time>2026-03-26T08:18:56.000Z</time>
      </trkpt>
      <trkpt lat="48.73716" lon="1.78419">
        <ele>225.5</ele>
        <time>2026-03-26T08:18:57.000Z</time>
      </trkpt>
      <trkpt lat="48.73716" lon="1.78417">
        <ele>225.4</ele>
        <time>2026-03-26T08:18:58.000Z</time>
      </trkpt>
      <trkpt lat="48.73717" lon="1.78415">
        <ele>225.4</ele>
        <time>2026-03-26T08:18:59.000Z</time>
      </trkpt>
      <trkpt lat="48.73717" lon="1.78413">
        <ele>225.4</ele>
        <time>2026-03-26T08:19:00.000Z</time>
      </trkpt>
      <trkpt lat="48.73717" lon="1.78411">
        <ele>225.2</ele>
        <time>2026-03-26T08:19:01.000Z</time>
      </trkpt>
      <trkpt lat="48.73718" lon="1.78409">
        <ele>225.2</ele>
        <time>2026-03-26T08:19:02.000Z</time>
      </trkpt>
      <trkpt lat="48.73718" lon="1.78406">
        <ele>225.2</ele>
        <time>2026-03-26T08:19:03.000Z</time>
      </trkpt>
      <trkpt lat="48.73718" lon="1.78404">
        <ele>225.2</ele>
        <time>2026-03-26T08:19:04.000Z</time>
      </trkpt>
      <trkpt lat="48.73718" lon="1.78402">
        <ele>225.4</ele>
        <time>2026-03-26T08:19:05.000Z</time>
      </trkpt>
      <trkpt lat="48.73718" lon="1.784">
        <ele>225.5</ele>
        <time>2026-03-26T08:19:06.000Z</time>
      </trkpt>
      <trkpt lat="48.73719" lon="1.78397">
        <ele>225.1</ele>
        <time>2026-03-26T08:19:07.000Z</time>
      </trkpt>
      <trkpt lat="48.73719" lon="1.78395">
        <ele>225.1</ele>
        <time>2026-03-26T08:19:08.000Z</time>
      </trkpt>
      <trkpt lat="48.7372" lon="1.78394">
        <ele>225.1</ele>
        <time>2026-03-26T08:19:09.000Z</time>
      </trkpt>
      <trkpt lat="48.7372" lon="1.78392">
        <ele>225.1</ele>
        <time>2026-03-26T08:19:10.000Z</time>
      </trkpt>
      <trkpt lat="48.73721" lon="1.7839">
        <ele>225</ele>
        <time>2026-03-26T08:19:11.000Z</time>
      </trkpt>
      <trkpt lat="48.73721" lon="1.78388">
        <ele>224.7</ele>
        <time>2026-03-26T08:19:12.000Z</time>
      </trkpt>
      <trkpt lat="48.73722" lon="1.78386">
        <ele>224.6</ele>
        <time>2026-03-26T08:19:13.000Z</time>
      </trkpt>
      <trkpt lat="48.73722" lon="1.78384">
        <ele>224.7</ele>
        <time>2026-03-26T08:19:14.000Z</time>
      </trkpt>
      <trkpt lat="48.73723" lon="1.78382">
        <ele>225.1</ele>
        <time>2026-03-26T08:19:15.000Z</time>
      </trkpt>
      <trkpt lat="48.73723" lon="1.78379">
        <ele>225.2</ele>
        <time>2026-03-26T08:19:16.000Z</time>
      </trkpt>
      <trkpt lat="48.73723" lon="1.78377">
        <ele>225.2</ele>
        <time>2026-03-26T08:19:17.000Z</time>
      </trkpt>
      <trkpt lat="48.73723" lon="1.78375">
        <ele>225.2</ele>
        <time>2026-03-26T08:19:18.000Z</time>
      </trkpt>
      <trkpt lat="48.73724" lon="1.78373">
        <ele>225</ele>
        <time>2026-03-26T08:19:19.000Z</time>
      </trkpt>
      <trkpt lat="48.73724" lon="1.78371">
        <ele>224.9</ele>
        <time>2026-03-26T08:19:20.000Z</time>
      </trkpt>
      <trkpt lat="48.73725" lon="1.78369">
        <ele>224.9</ele>
        <time>2026-03-26T08:19:21.000Z</time>
      </trkpt>
      <trkpt lat="48.73725" lon="1.78367">
        <ele>225</ele>
        <time>2026-03-26T08:19:22.000Z</time>
      </trkpt>
      <trkpt lat="48.73725" lon="1.78365">
        <ele>224.8</ele>
        <time>2026-03-26T08:19:23.000Z</time>
      </trkpt>
      <trkpt lat="48.73725" lon="1.78363">
        <ele>224.9</ele>
        <time>2026-03-26T08:19:24.000Z</time>
      </trkpt>
      <trkpt lat="48.73726" lon="1.78361">
        <ele>224.8</ele>
        <time>2026-03-26T08:19:25.000Z</time>
      </trkpt>
      <trkpt lat="48.73726" lon="1.78359">
        <ele>224.8</ele>
        <time>2026-03-26T08:19:26.000Z</time>
      </trkpt>
      <trkpt lat="48.73726" lon="1.78356">
        <ele>224.9</ele>
        <time>2026-03-26T08:19:27.000Z</time>
      </trkpt>
      <trkpt lat="48.73726" lon="1.78354">
        <ele>224.9</ele>
        <time>2026-03-26T08:19:28.000Z</time>
      </trkpt>
      <trkpt lat="48.73727" lon="1.78352">
        <ele>224.7</ele>
        <time>2026-03-26T08:19:29.000Z</time>
      </trkpt>
      <trkpt lat="48.73727" lon="1.7835">
        <ele>224.8</ele>
        <time>2026-03-26T08:19:30.000Z</time>
      </trkpt>
      <trkpt lat="48.73727" lon="1.78348">
        <ele>224.8</ele>
        <time>2026-03-26T08:19:31.000Z</time>
      </trkpt>
      <trkpt lat="48.73728" lon="1.78345">
        <ele>224.9</ele>
        <time>2026-03-26T08:19:32.000Z</time>
      </trkpt>
      <trkpt lat="48.73728" lon="1.78343">
        <ele>225.5</ele>
        <time>2026-03-26T08:19:33.000Z</time>
      </trkpt>
      <trkpt lat="48.73728" lon="1.78341">
        <ele>225.3</ele>
        <time>2026-03-26T08:19:34.000Z</time>
      </trkpt>
      <trkpt lat="48.73729" lon="1.78339">
        <ele>225.4</ele>
        <time>2026-03-26T08:19:35.000Z</time>
      </trkpt>
      <trkpt lat="48.73729" lon="1.78337">
        <ele>225.4</ele>
        <time>2026-03-26T08:19:36.000Z</time>
      </trkpt>
      <trkpt lat="48.73729" lon="1.78335">
        <ele>225.4</ele>
        <time>2026-03-26T08:19:37.000Z</time>
      </trkpt>
      <trkpt lat="48.7373" lon="1.78333">
        <ele>225.4</ele>
        <time>2026-03-26T08:19:38.000Z</time>
      </trkpt>
      <trkpt lat="48.7373" lon="1.78331">
        <ele>225.6</ele>
        <time>2026-03-26T08:19:39.000Z</time>
      </trkpt>
      <trkpt lat="48.7373" lon="1.78329">
        <ele>225.6</ele>
        <time>2026-03-26T08:19:40.000Z</time>
      </trkpt>
      <trkpt lat="48.73731" lon="1.78327">
        <ele>225.5</ele>
        <time>2026-03-26T08:19:41.000Z</time>
      </trkpt>
      <trkpt lat="48.73731" lon="1.78325">
        <ele>225.4</ele>
        <time>2026-03-26T08:19:42.000Z</time>
      </trkpt>
      <trkpt lat="48.73732" lon="1.78323">
        <ele>225.4</ele>
        <time>2026-03-26T08:19:43.000Z</time>
      </trkpt>
      <trkpt lat="48.73732" lon="1.78321">
        <ele>225.1</ele>
        <time>2026-03-26T08:19:44.000Z</time>
      </trkpt>
      <trkpt lat="48.73732" lon="1.78319">
        <ele>225.2</ele>
        <time>2026-03-26T08:19:45.000Z</time>
      </trkpt>
      <trkpt lat="48.73732" lon="1.78317">
        <ele>225.2</ele>
        <time>2026-03-26T08:19:46.000Z</time>
      </trkpt>
      <trkpt lat="48.73733" lon="1.78315">
        <ele>225.2</ele>
        <time>2026-03-26T08:19:47.000Z</time>
      </trkpt>
      <trkpt lat="48.73733" lon="1.78312">
        <ele>225.2</ele>
        <time>2026-03-26T08:19:48.000Z</time>
      </trkpt>
      <trkpt lat="48.73733" lon="1.7831">
        <ele>225</ele>
        <time>2026-03-26T08:19:49.000Z</time>
      </trkpt>
      <trkpt lat="48.73734" lon="1.78308">
        <ele>224.8</ele>
        <time>2026-03-26T08:19:50.000Z</time>
      </trkpt>
      <trkpt lat="48.73734" lon="1.78306">
        <ele>224.6</ele>
        <time>2026-03-26T08:19:51.000Z</time>
      </trkpt>
      <trkpt lat="48.73734" lon="1.78304">
        <ele>224.6</ele>
        <time>2026-03-26T08:19:52.000Z</time>
      </trkpt>
      <trkpt lat="48.73734" lon="1.78302">
        <ele>224.5</ele>
        <time>2026-03-26T08:19:53.000Z</time>
      </trkpt>
      <trkpt lat="48.73735" lon="1.783">
        <ele>224.6</ele>
        <time>2026-03-26T08:19:54.000Z</time>
      </trkpt>
      <trkpt lat="48.73735" lon="1.78298">
        <ele>224.7</ele>
        <time>2026-03-26T08:19:55.000Z</time>
      </trkpt>
      <trkpt lat="48.73735" lon="1.78295">
        <ele>224.9</ele>
        <time>2026-03-26T08:19:56.000Z</time>
      </trkpt>
      <trkpt lat="48.73735" lon="1.78293">
        <ele>224.8</ele>
        <time>2026-03-26T08:19:57.000Z</time>
      </trkpt>
      <trkpt lat="48.73735" lon="1.78291">
        <ele>224.7</ele>
        <time>2026-03-26T08:19:58.000Z</time>
      </trkpt>
      <trkpt lat="48.73736" lon="1.78289">
        <ele>224.7</ele>
        <time>2026-03-26T08:19:59.000Z</time>
      </trkpt>
      <trkpt lat="48.73736" lon="1.78287">
        <ele>224.5</ele>
        <time>2026-03-26T08:20:00.000Z</time>
      </trkpt>
      <trkpt lat="48.73736" lon="1.78285">
        <ele>224.6</ele>
        <time>2026-03-26T08:20:01.000Z</time>
      </trkpt>
      <trkpt lat="48.73737" lon="1.78283">
        <ele>224.2</ele>
        <time>2026-03-26T08:20:02.000Z</time>
      </trkpt>
      <trkpt lat="48.73737" lon="1.78281">
        <ele>224.2</ele>
        <time>2026-03-26T08:20:03.000Z</time>
      </trkpt>
      <trkpt lat="48.73737" lon="1.78279">
        <ele>224.2</ele>
        <time>2026-03-26T08:20:04.000Z</time>
      </trkpt>
      <trkpt lat="48.73738" lon="1.78277">
        <ele>224.1</ele>
        <time>2026-03-26T08:20:05.000Z</time>
      </trkpt>
      <trkpt lat="48.73738" lon="1.78275">
        <ele>224.1</ele>
        <time>2026-03-26T08:20:06.000Z</time>
      </trkpt>
      <trkpt lat="48.73739" lon="1.78274">
        <ele>224.4</ele>
        <time>2026-03-26T08:20:07.000Z</time>
      </trkpt>
      <trkpt lat="48.7374" lon="1.78272">
        <ele>224.6</ele>
        <time>2026-03-26T08:20:08.000Z</time>
      </trkpt>
      <trkpt lat="48.73741" lon="1.7827">
        <ele>224.8</ele>
        <time>2026-03-26T08:20:09.000Z</time>
      </trkpt>
      <trkpt lat="48.73742" lon="1.78268">
        <ele>225</ele>
        <time>2026-03-26T08:20:10.000Z</time>
      </trkpt>
      <trkpt lat="48.73743" lon="1.78266">
        <ele>224.8</ele>
        <time>2026-03-26T08:20:11.000Z</time>
      </trkpt>
      <trkpt lat="48.73743" lon="1.78265">
        <ele>224.9</ele>
        <time>2026-03-26T08:20:12.000Z</time>
      </trkpt>
      <trkpt lat="48.73744" lon="1.78263">
        <ele>224.1</ele>
        <time>2026-03-26T08:20:13.000Z</time>
      </trkpt>
      <trkpt lat="48.73744" lon="1.78261">
        <ele>223.6</ele>
        <time>2026-03-26T08:20:14.000Z</time>
      </trkpt>
      <trkpt lat="48.73744" lon="1.78259">
        <ele>225</ele>
        <time>2026-03-26T08:20:15.000Z</time>
      </trkpt>
      <trkpt lat="48.73745" lon="1.78258">
        <ele>224.2</ele>
        <time>2026-03-26T08:20:16.000Z</time>
      </trkpt>
      <trkpt lat="48.73746" lon="1.78258">
        <ele>224.1</ele>
        <time>2026-03-26T08:20:17.000Z</time>
      </trkpt>
      <trkpt lat="48.73747" lon="1.78257">
        <ele>224.1</ele>
        <time>2026-03-26T08:20:18.000Z</time>
      </trkpt>
      <trkpt lat="48.73747" lon="1.78256">
        <ele>223.6</ele>
        <time>2026-03-26T08:20:19.000Z</time>
      </trkpt>
      <trkpt lat="48.73748" lon="1.78256">
        <ele>223.1</ele>
        <time>2026-03-26T08:20:20.000Z</time>
      </trkpt>
      <trkpt lat="48.73749" lon="1.78254">
        <ele>222.7</ele>
        <time>2026-03-26T08:20:21.000Z</time>
      </trkpt>
      <trkpt lat="48.7375" lon="1.78253">
        <ele>222.7</ele>
        <time>2026-03-26T08:20:22.000Z</time>
      </trkpt>
      <trkpt lat="48.73751" lon="1.78251">
        <ele>223.7</ele>
        <time>2026-03-26T08:20:23.000Z</time>
      </trkpt>
      <trkpt lat="48.73752" lon="1.7825">
        <ele>223.9</ele>
        <time>2026-03-26T08:20:24.000Z</time>
      </trkpt>
      <trkpt lat="48.73753" lon="1.78248">
        <ele>224.2</ele>
        <time>2026-03-26T08:20:25.000Z</time>
      </trkpt>
      <trkpt lat="48.73754" lon="1.78247">
        <ele>224.2</ele>
        <time>2026-03-26T08:20:26.000Z</time>
      </trkpt>
      <trkpt lat="48.73754" lon="1.78245">
        <ele>224.5</ele>
        <time>2026-03-26T08:20:27.000Z</time>
      </trkpt>
      <trkpt lat="48.73754" lon="1.78243">
        <ele>224.2</ele>
        <time>2026-03-26T08:20:28.000Z</time>
      </trkpt>
      <trkpt lat="48.73755" lon="1.78242">
        <ele>223.8</ele>
        <time>2026-03-26T08:20:29.000Z</time>
      </trkpt>
      <trkpt lat="48.73755" lon="1.78241">
        <ele>223.7</ele>
        <time>2026-03-26T08:20:30.000Z</time>
      </trkpt>
      <trkpt lat="48.73755" lon="1.78238">
        <ele>223.9</ele>
        <time>2026-03-26T08:20:31.000Z</time>
      </trkpt>
      <trkpt lat="48.73755" lon="1.78236">
        <ele>223.8</ele>
        <time>2026-03-26T08:20:32.000Z</time>
      </trkpt>
      <trkpt lat="48.73755" lon="1.78234">
        <ele>223.8</ele>
        <time>2026-03-26T08:20:33.000Z</time>
      </trkpt>
      <trkpt lat="48.73755" lon="1.78232">
        <ele>223.7</ele>
        <time>2026-03-26T08:20:34.000Z</time>
      </trkpt>
      <trkpt lat="48.73756" lon="1.7823">
        <ele>223.9</ele>
        <time>2026-03-26T08:20:35.000Z</time>
      </trkpt>
      <trkpt lat="48.73756" lon="1.78228">
        <ele>224.1</ele>
        <time>2026-03-26T08:20:36.000Z</time>
      </trkpt>
      <trkpt lat="48.73756" lon="1.78226">
        <ele>224.3</ele>
        <time>2026-03-26T08:20:37.000Z</time>
      </trkpt>
      <trkpt lat="48.73756" lon="1.78224">
        <ele>224.2</ele>
        <time>2026-03-26T08:20:38.000Z</time>
      </trkpt>
      <trkpt lat="48.73755" lon="1.78222">
        <ele>224.9</ele>
        <time>2026-03-26T08:20:39.000Z</time>
      </trkpt>
      <trkpt lat="48.73755" lon="1.7822">
        <ele>224.9</ele>
        <time>2026-03-26T08:20:40.000Z</time>
      </trkpt>
      <trkpt lat="48.73755" lon="1.78218">
        <ele>225.5</ele>
        <time>2026-03-26T08:20:41.000Z</time>
      </trkpt>
      <trkpt lat="48.73754" lon="1.78216">
        <ele>225.7</ele>
        <time>2026-03-26T08:20:42.000Z</time>
      </trkpt>
      <trkpt lat="48.73753" lon="1.78215">
        <ele>226</ele>
        <time>2026-03-26T08:20:43.000Z</time>
      </trkpt>
      <trkpt lat="48.73753" lon="1.78213">
        <ele>226.2</ele>
        <time>2026-03-26T08:20:44.000Z</time>
      </trkpt>
      <trkpt lat="48.73752" lon="1.78211">
        <ele>226.4</ele>
        <time>2026-03-26T08:20:45.000Z</time>
      </trkpt>
      <trkpt lat="48.73752" lon="1.78209">
        <ele>226.5</ele>
        <time>2026-03-26T08:20:46.000Z</time>
      </trkpt>
      <trkpt lat="48.73752" lon="1.78207">
        <ele>226.9</ele>
        <time>2026-03-26T08:20:47.000Z</time>
      </trkpt>
      <trkpt lat="48.73752" lon="1.78205">
        <ele>226.7</ele>
        <time>2026-03-26T08:20:48.000Z</time>
      </trkpt>
      <trkpt lat="48.73752" lon="1.78203">
        <ele>227</ele>
        <time>2026-03-26T08:20:49.000Z</time>
      </trkpt>
      <trkpt lat="48.73752" lon="1.78201">
        <ele>227.6</ele>
        <time>2026-03-26T08:20:50.000Z</time>
      </trkpt>
      <trkpt lat="48.73751" lon="1.78199">
        <ele>227.6</ele>
        <time>2026-03-26T08:20:51.000Z</time>
      </trkpt>
      <trkpt lat="48.73751" lon="1.78198">
        <ele>227.3</ele>
        <time>2026-03-26T08:20:52.000Z</time>
      </trkpt>
      <trkpt lat="48.73751" lon="1.78196">
        <ele>227</ele>
        <time>2026-03-26T08:20:53.000Z</time>
      </trkpt>
      <trkpt lat="48.73751" lon="1.78194">
        <ele>226.9</ele>
        <time>2026-03-26T08:20:54.000Z</time>
      </trkpt>
      <trkpt lat="48.7375" lon="1.78192">
        <ele>226.8</ele>
        <time>2026-03-26T08:20:55.000Z</time>
      </trkpt>
      <trkpt lat="48.7375" lon="1.7819">
        <ele>226.4</ele>
        <time>2026-03-26T08:20:56.000Z</time>
      </trkpt>
      <trkpt lat="48.7375" lon="1.78188">
        <ele>226.1</ele>
        <time>2026-03-26T08:20:57.000Z</time>
      </trkpt>
      <trkpt lat="48.7375" lon="1.78186">
        <ele>225.8</ele>
        <time>2026-03-26T08:20:58.000Z</time>
      </trkpt>
      <trkpt lat="48.7375" lon="1.78183">
        <ele>225.4</ele>
        <time>2026-03-26T08:20:59.000Z</time>
      </trkpt>
      <trkpt lat="48.7375" lon="1.78181">
        <ele>225.8</ele>
        <time>2026-03-26T08:21:00.000Z</time>
      </trkpt>
      <trkpt lat="48.7375" lon="1.78179">
        <ele>225.8</ele>
        <time>2026-03-26T08:21:01.000Z</time>
      </trkpt>
      <trkpt lat="48.7375" lon="1.78176">
        <ele>225.5</ele>
        <time>2026-03-26T08:21:02.000Z</time>
      </trkpt>
      <trkpt lat="48.73751" lon="1.78174">
        <ele>225.2</ele>
        <time>2026-03-26T08:21:03.000Z</time>
      </trkpt>
      <trkpt lat="48.73751" lon="1.78172">
        <ele>224.7</ele>
        <time>2026-03-26T08:21:04.000Z</time>
      </trkpt>
      <trkpt lat="48.73751" lon="1.7817">
        <ele>224.6</ele>
        <time>2026-03-26T08:21:05.000Z</time>
      </trkpt>
      <trkpt lat="48.73751" lon="1.78167">
        <ele>224.3</ele>
        <time>2026-03-26T08:21:06.000Z</time>
      </trkpt>
      <trkpt lat="48.73752" lon="1.78165">
        <ele>223.9</ele>
        <time>2026-03-26T08:21:07.000Z</time>
      </trkpt>
      <trkpt lat="48.73752" lon="1.78163">
        <ele>223.7</ele>
        <time>2026-03-26T08:21:08.000Z</time>
      </trkpt>
      <trkpt lat="48.73752" lon="1.78161">
        <ele>223.6</ele>
        <time>2026-03-26T08:21:09.000Z</time>
      </trkpt>
      <trkpt lat="48.73752" lon="1.78158">
        <ele>223.4</ele>
        <time>2026-03-26T08:21:10.000Z</time>
      </trkpt>
      <trkpt lat="48.73752" lon="1.78156">
        <ele>223.3</ele>
        <time>2026-03-26T08:21:11.000Z</time>
      </trkpt>
      <trkpt lat="48.73753" lon="1.78154">
        <ele>223.1</ele>
        <time>2026-03-26T08:21:12.000Z</time>
      </trkpt>
      <trkpt lat="48.73753" lon="1.78152">
        <ele>222.9</ele>
        <time>2026-03-26T08:21:13.000Z</time>
      </trkpt>
      <trkpt lat="48.73753" lon="1.7815">
        <ele>222.7</ele>
        <time>2026-03-26T08:21:14.000Z</time>
      </trkpt>
      <trkpt lat="48.73753" lon="1.78148">
        <ele>222.3</ele>
        <time>2026-03-26T08:21:15.000Z</time>
      </trkpt>
      <trkpt lat="48.73754" lon="1.78146">
        <ele>222</ele>
        <time>2026-03-26T08:21:16.000Z</time>
      </trkpt>
      <trkpt lat="48.73754" lon="1.78144">
        <ele>221.7</ele>
        <time>2026-03-26T08:21:17.000Z</time>
      </trkpt>
      <trkpt lat="48.73755" lon="1.78142">
        <ele>221.5</ele>
        <time>2026-03-26T08:21:18.000Z</time>
      </trkpt>
      <trkpt lat="48.73755" lon="1.7814">
        <ele>221.3</ele>
        <time>2026-03-26T08:21:19.000Z</time>
      </trkpt>
      <trkpt lat="48.73756" lon="1.78138">
        <ele>221.4</ele>
        <time>2026-03-26T08:21:20.000Z</time>
      </trkpt>
      <trkpt lat="48.73757" lon="1.78136">
        <ele>221.2</ele>
        <time>2026-03-26T08:21:21.000Z</time>
      </trkpt>
      <trkpt lat="48.73758" lon="1.78135">
        <ele>221.1</ele>
        <time>2026-03-26T08:21:22.000Z</time>
      </trkpt>
      <trkpt lat="48.73759" lon="1.78133">
        <ele>221</ele>
        <time>2026-03-26T08:21:23.000Z</time>
      </trkpt>
      <trkpt lat="48.7376" lon="1.78131">
        <ele>220.8</ele>
        <time>2026-03-26T08:21:24.000Z</time>
      </trkpt>
      <trkpt lat="48.73761" lon="1.78129">
        <ele>220.4</ele>
        <time>2026-03-26T08:21:25.000Z</time>
      </trkpt>
      <trkpt lat="48.73761" lon="1.78127">
        <ele>220.4</ele>
        <time>2026-03-26T08:21:26.000Z</time>
      </trkpt>
      <trkpt lat="48.73762" lon="1.78124">
        <ele>220.3</ele>
        <time>2026-03-26T08:21:27.000Z</time>
      </trkpt>
      <trkpt lat="48.73762" lon="1.78122">
        <ele>220.5</ele>
        <time>2026-03-26T08:21:28.000Z</time>
      </trkpt>
      <trkpt lat="48.73763" lon="1.7812">
        <ele>220.4</ele>
        <time>2026-03-26T08:21:29.000Z</time>
      </trkpt>
      <trkpt lat="48.73763" lon="1.78118">
        <ele>220.3</ele>
        <time>2026-03-26T08:21:30.000Z</time>
      </trkpt>
      <trkpt lat="48.73764" lon="1.78115">
        <ele>220.1</ele>
        <time>2026-03-26T08:21:31.000Z</time>
      </trkpt>
      <trkpt lat="48.73764" lon="1.78113">
        <ele>219.8</ele>
        <time>2026-03-26T08:21:32.000Z</time>
      </trkpt>
      <trkpt lat="48.73764" lon="1.78111">
        <ele>219.8</ele>
        <time>2026-03-26T08:21:33.000Z</time>
      </trkpt>
      <trkpt lat="48.73765" lon="1.78109">
        <ele>219.4</ele>
        <time>2026-03-26T08:21:34.000Z</time>
      </trkpt>
      <trkpt lat="48.73766" lon="1.78107">
        <ele>219.4</ele>
        <time>2026-03-26T08:21:35.000Z</time>
      </trkpt>
      <trkpt lat="48.73766" lon="1.78105">
        <ele>219.4</ele>
        <time>2026-03-26T08:21:36.000Z</time>
      </trkpt>
      <trkpt lat="48.73766" lon="1.78102">
        <ele>219.3</ele>
        <time>2026-03-26T08:21:37.000Z</time>
      </trkpt>
      <trkpt lat="48.73767" lon="1.781">
        <ele>219.1</ele>
        <time>2026-03-26T08:21:38.000Z</time>
      </trkpt>
      <trkpt lat="48.73767" lon="1.78098">
        <ele>219</ele>
        <time>2026-03-26T08:21:39.000Z</time>
      </trkpt>
      <trkpt lat="48.73767" lon="1.78096">
        <ele>218.8</ele>
        <time>2026-03-26T08:21:40.000Z</time>
      </trkpt>
      <trkpt lat="48.73767" lon="1.78093">
        <ele>218.8</ele>
        <time>2026-03-26T08:21:41.000Z</time>
      </trkpt>
      <trkpt lat="48.73767" lon="1.78091">
        <ele>218.9</ele>
        <time>2026-03-26T08:21:42.000Z</time>
      </trkpt>
      <trkpt lat="48.73768" lon="1.78088">
        <ele>218.8</ele>
        <time>2026-03-26T08:21:43.000Z</time>
      </trkpt>
      <trkpt lat="48.73768" lon="1.78086">
        <ele>218.9</ele>
        <time>2026-03-26T08:21:44.000Z</time>
      </trkpt>
      <trkpt lat="48.73768" lon="1.78084">
        <ele>218.6</ele>
        <time>2026-03-26T08:21:45.000Z</time>
      </trkpt>
      <trkpt lat="48.73769" lon="1.78081">
        <ele>218.5</ele>
        <time>2026-03-26T08:21:46.000Z</time>
      </trkpt>
      <trkpt lat="48.73769" lon="1.78079">
        <ele>218.5</ele>
        <time>2026-03-26T08:21:47.000Z</time>
      </trkpt>
      <trkpt lat="48.73769" lon="1.78077">
        <ele>218.2</ele>
        <time>2026-03-26T08:21:48.000Z</time>
      </trkpt>
      <trkpt lat="48.73769" lon="1.78075">
        <ele>218.2</ele>
        <time>2026-03-26T08:21:49.000Z</time>
      </trkpt>
      <trkpt lat="48.73769" lon="1.78072">
        <ele>217.9</ele>
        <time>2026-03-26T08:21:50.000Z</time>
      </trkpt>
      <trkpt lat="48.7377" lon="1.7807">
        <ele>217.6</ele>
        <time>2026-03-26T08:21:51.000Z</time>
      </trkpt>
      <trkpt lat="48.7377" lon="1.78068">
        <ele>217.6</ele>
        <time>2026-03-26T08:21:52.000Z</time>
      </trkpt>
      <trkpt lat="48.7377" lon="1.78065">
        <ele>217.4</ele>
        <time>2026-03-26T08:21:53.000Z</time>
      </trkpt>
      <trkpt lat="48.7377" lon="1.78063">
        <ele>217.3</ele>
        <time>2026-03-26T08:21:54.000Z</time>
      </trkpt>
      <trkpt lat="48.7377" lon="1.78061">
        <ele>217</ele>
        <time>2026-03-26T08:21:55.000Z</time>
      </trkpt>
      <trkpt lat="48.73771" lon="1.78058">
        <ele>216.9</ele>
        <time>2026-03-26T08:21:56.000Z</time>
      </trkpt>
      <trkpt lat="48.73771" lon="1.78056">
        <ele>216.9</ele>
        <time>2026-03-26T08:21:57.000Z</time>
      </trkpt>
      <trkpt lat="48.73771" lon="1.78054">
        <ele>216.5</ele>
        <time>2026-03-26T08:21:58.000Z</time>
      </trkpt>
      <trkpt lat="48.73772" lon="1.78052">
        <ele>216.4</ele>
        <time>2026-03-26T08:21:59.000Z</time>
      </trkpt>
      <trkpt lat="48.73772" lon="1.7805">
        <ele>216.1</ele>
        <time>2026-03-26T08:22:00.000Z</time>
      </trkpt>
      <trkpt lat="48.73772" lon="1.78047">
        <ele>216.1</ele>
        <time>2026-03-26T08:22:01.000Z</time>
      </trkpt>
      <trkpt lat="48.73772" lon="1.78045">
        <ele>216.4</ele>
        <time>2026-03-26T08:22:02.000Z</time>
      </trkpt>
      <trkpt lat="48.73773" lon="1.78043">
        <ele>216.5</ele>
        <time>2026-03-26T08:22:03.000Z</time>
      </trkpt>
      <trkpt lat="48.73773" lon="1.7804">
        <ele>216.5</ele>
        <time>2026-03-26T08:22:04.000Z</time>
      </trkpt>
      <trkpt lat="48.73774" lon="1.78038">
        <ele>216.2</ele>
        <time>2026-03-26T08:22:05.000Z</time>
      </trkpt>
      <trkpt lat="48.73774" lon="1.78036">
        <ele>216.1</ele>
        <time>2026-03-26T08:22:06.000Z</time>
      </trkpt>
      <trkpt lat="48.73775" lon="1.78034">
        <ele>215.9</ele>
        <time>2026-03-26T08:22:07.000Z</time>
      </trkpt>
      <trkpt lat="48.73775" lon="1.78031">
        <ele>215.9</ele>
        <time>2026-03-26T08:22:08.000Z</time>
      </trkpt>
      <trkpt lat="48.73776" lon="1.78029">
        <ele>215.5</ele>
        <time>2026-03-26T08:22:09.000Z</time>
      </trkpt>
      <trkpt lat="48.73776" lon="1.78027">
        <ele>215.3</ele>
        <time>2026-03-26T08:22:10.000Z</time>
      </trkpt>
      <trkpt lat="48.73777" lon="1.78025">
        <ele>215.2</ele>
        <time>2026-03-26T08:22:11.000Z</time>
      </trkpt>
      <trkpt lat="48.73777" lon="1.78023">
        <ele>214.8</ele>
        <time>2026-03-26T08:22:12.000Z</time>
      </trkpt>
      <trkpt lat="48.73778" lon="1.78021">
        <ele>214.6</ele>
        <time>2026-03-26T08:22:13.000Z</time>
      </trkpt>
      <trkpt lat="48.73778" lon="1.78019">
        <ele>214.4</ele>
        <time>2026-03-26T08:22:14.000Z</time>
      </trkpt>
      <trkpt lat="48.73779" lon="1.78017">
        <ele>214.4</ele>
        <time>2026-03-26T08:22:15.000Z</time>
      </trkpt>
      <trkpt lat="48.7378" lon="1.78015">
        <ele>214.3</ele>
        <time>2026-03-26T08:22:16.000Z</time>
      </trkpt>
      <trkpt lat="48.7378" lon="1.78013">
        <ele>214.1</ele>
        <time>2026-03-26T08:22:17.000Z</time>
      </trkpt>
      <trkpt lat="48.73781" lon="1.78011">
        <ele>214.1</ele>
        <time>2026-03-26T08:22:18.000Z</time>
      </trkpt>
      <trkpt lat="48.73781" lon="1.78008">
        <ele>214</ele>
        <time>2026-03-26T08:22:19.000Z</time>
      </trkpt>
      <trkpt lat="48.73781" lon="1.78006">
        <ele>214.2</ele>
        <time>2026-03-26T08:22:20.000Z</time>
      </trkpt>
      <trkpt lat="48.73782" lon="1.78003">
        <ele>214</ele>
        <time>2026-03-26T08:22:21.000Z</time>
      </trkpt>
      <trkpt lat="48.73782" lon="1.78001">
        <ele>214</ele>
        <time>2026-03-26T08:22:22.000Z</time>
      </trkpt>
      <trkpt lat="48.73783" lon="1.77999">
        <ele>214.1</ele>
        <time>2026-03-26T08:22:23.000Z</time>
      </trkpt>
      <trkpt lat="48.73783" lon="1.77997">
        <ele>213.8</ele>
        <time>2026-03-26T08:22:24.000Z</time>
      </trkpt>
      <trkpt lat="48.73784" lon="1.77995">
        <ele>213.6</ele>
        <time>2026-03-26T08:22:25.000Z</time>
      </trkpt>
      <trkpt lat="48.73784" lon="1.77992">
        <ele>213.5</ele>
        <time>2026-03-26T08:22:26.000Z</time>
      </trkpt>
      <trkpt lat="48.73784" lon="1.7799">
        <ele>213.6</ele>
        <time>2026-03-26T08:22:27.000Z</time>
      </trkpt>
      <trkpt lat="48.73785" lon="1.77988">
        <ele>213.7</ele>
        <time>2026-03-26T08:22:28.000Z</time>
      </trkpt>
      <trkpt lat="48.73785" lon="1.77986">
        <ele>213.7</ele>
        <time>2026-03-26T08:22:29.000Z</time>
      </trkpt>
      <trkpt lat="48.73785" lon="1.77983">
        <ele>213.8</ele>
        <time>2026-03-26T08:22:30.000Z</time>
      </trkpt>
      <trkpt lat="48.73785" lon="1.77981">
        <ele>213.8</ele>
        <time>2026-03-26T08:22:31.000Z</time>
      </trkpt>
      <trkpt lat="48.73786" lon="1.77979">
        <ele>213.7</ele>
        <time>2026-03-26T08:22:32.000Z</time>
      </trkpt>
      <trkpt lat="48.73786" lon="1.77977">
        <ele>213.7</ele>
        <time>2026-03-26T08:22:33.000Z</time>
      </trkpt>
      <trkpt lat="48.73787" lon="1.77975">
        <ele>213.7</ele>
        <time>2026-03-26T08:22:34.000Z</time>
      </trkpt>
      <trkpt lat="48.73787" lon="1.77973">
        <ele>214.5</ele>
        <time>2026-03-26T08:22:35.000Z</time>
      </trkpt>
      <trkpt lat="48.73787" lon="1.77971">
        <ele>214.7</ele>
        <time>2026-03-26T08:22:36.000Z</time>
      </trkpt>
      <trkpt lat="48.73788" lon="1.77969">
        <ele>215</ele>
        <time>2026-03-26T08:22:37.000Z</time>
      </trkpt>
      <trkpt lat="48.73788" lon="1.77967">
        <ele>214.8</ele>
        <time>2026-03-26T08:22:38.000Z</time>
      </trkpt>
      <trkpt lat="48.73789" lon="1.77965">
        <ele>214.9</ele>
        <time>2026-03-26T08:22:39.000Z</time>
      </trkpt>
      <trkpt lat="48.7379" lon="1.77963">
        <ele>215</ele>
        <time>2026-03-26T08:22:40.000Z</time>
      </trkpt>
      <trkpt lat="48.7379" lon="1.77961">
        <ele>215.1</ele>
        <time>2026-03-26T08:22:41.000Z</time>
      </trkpt>
      <trkpt lat="48.73791" lon="1.77959">
        <ele>215.3</ele>
        <time>2026-03-26T08:22:42.000Z</time>
      </trkpt>
      <trkpt lat="48.73791" lon="1.77957">
        <ele>215.4</ele>
        <time>2026-03-26T08:22:43.000Z</time>
      </trkpt>
      <trkpt lat="48.73792" lon="1.77955">
        <ele>215.5</ele>
        <time>2026-03-26T08:22:44.000Z</time>
      </trkpt>
      <trkpt lat="48.73793" lon="1.77953">
        <ele>215.4</ele>
        <time>2026-03-26T08:22:45.000Z</time>
      </trkpt>
      <trkpt lat="48.73793" lon="1.77951">
        <ele>215.4</ele>
        <time>2026-03-26T08:22:46.000Z</time>
      </trkpt>
      <trkpt lat="48.73794" lon="1.77949">
        <ele>215.5</ele>
        <time>2026-03-26T08:22:47.000Z</time>
      </trkpt>
      <trkpt lat="48.73795" lon="1.77946">
        <ele>215.7</ele>
        <time>2026-03-26T08:22:48.000Z</time>
      </trkpt>
      <trkpt lat="48.73796" lon="1.77945">
        <ele>216.1</ele>
        <time>2026-03-26T08:22:49.000Z</time>
      </trkpt>
      <trkpt lat="48.73797" lon="1.77943">
        <ele>216.2</ele>
        <time>2026-03-26T08:22:50.000Z</time>
      </trkpt>
      <trkpt lat="48.73797" lon="1.77942">
        <ele>216.3</ele>
        <time>2026-03-26T08:22:51.000Z</time>
      </trkpt>
      <trkpt lat="48.73798" lon="1.7794">
        <ele>216.5</ele>
        <time>2026-03-26T08:22:52.000Z</time>
      </trkpt>
      <trkpt lat="48.73799" lon="1.77938">
        <ele>216.4</ele>
        <time>2026-03-26T08:22:53.000Z</time>
      </trkpt>
      <trkpt lat="48.738" lon="1.77937">
        <ele>216.2</ele>
        <time>2026-03-26T08:22:54.000Z</time>
      </trkpt>
      <trkpt lat="48.738" lon="1.77935">
        <ele>215.9</ele>
        <time>2026-03-26T08:22:55.000Z</time>
      </trkpt>
      <trkpt lat="48.73801" lon="1.77934">
        <ele>215.8</ele>
        <time>2026-03-26T08:22:56.000Z</time>
      </trkpt>
      <trkpt lat="48.73801" lon="1.77932">
        <ele>216</ele>
        <time>2026-03-26T08:22:57.000Z</time>
      </trkpt>
      <trkpt lat="48.73801" lon="1.7793">
        <ele>215.7</ele>
        <time>2026-03-26T08:22:58.000Z</time>
      </trkpt>
      <trkpt lat="48.73802" lon="1.77928">
        <ele>216</ele>
        <time>2026-03-26T08:22:59.000Z</time>
      </trkpt>
      <trkpt lat="48.73803" lon="1.77926">
        <ele>216.4</ele>
        <time>2026-03-26T08:23:00.000Z</time>
      </trkpt>
      <trkpt lat="48.73804" lon="1.77925">
        <ele>216.5</ele>
        <time>2026-03-26T08:23:01.000Z</time>
      </trkpt>
      <trkpt lat="48.73804" lon="1.77924">
        <ele>216</ele>
        <time>2026-03-26T08:23:02.000Z</time>
      </trkpt>
      <trkpt lat="48.73805" lon="1.77923">
        <ele>215.7</ele>
        <time>2026-03-26T08:23:03.000Z</time>
      </trkpt>
      <trkpt lat="48.73807" lon="1.77923">
        <ele>215.6</ele>
        <time>2026-03-26T08:23:04.000Z</time>
      </trkpt>
      <trkpt lat="48.73808" lon="1.77922">
        <ele>215.6</ele>
        <time>2026-03-26T08:23:05.000Z</time>
      </trkpt>
      <trkpt lat="48.73809" lon="1.77922">
        <ele>215.4</ele>
        <time>2026-03-26T08:23:06.000Z</time>
      </trkpt>
      <trkpt lat="48.7381" lon="1.77921">
        <ele>215.7</ele>
        <time>2026-03-26T08:23:07.000Z</time>
      </trkpt>
      <trkpt lat="48.73811" lon="1.7792">
        <ele>215.5</ele>
        <time>2026-03-26T08:23:08.000Z</time>
      </trkpt>
      <trkpt lat="48.73812" lon="1.77918">
        <ele>215.8</ele>
        <time>2026-03-26T08:23:09.000Z</time>
      </trkpt>
      <trkpt lat="48.73813" lon="1.77917">
        <ele>215.2</ele>
        <time>2026-03-26T08:23:10.000Z</time>
      </trkpt>
      <trkpt lat="48.73814" lon="1.77916">
        <ele>215.1</ele>
        <time>2026-03-26T08:23:11.000Z</time>
      </trkpt>
      <trkpt lat="48.73815" lon="1.77915">
        <ele>214.8</ele>
        <time>2026-03-26T08:23:12.000Z</time>
      </trkpt>
      <trkpt lat="48.73816" lon="1.77913">
        <ele>214.8</ele>
        <time>2026-03-26T08:23:13.000Z</time>
      </trkpt>
      <trkpt lat="48.73817" lon="1.77912">
        <ele>214.8</ele>
        <time>2026-03-26T08:23:14.000Z</time>
      </trkpt>
      <trkpt lat="48.73817" lon="1.7791">
        <ele>214.7</ele>
        <time>2026-03-26T08:23:15.000Z</time>
      </trkpt>
      <trkpt lat="48.73818" lon="1.77908">
        <ele>214.5</ele>
        <time>2026-03-26T08:23:16.000Z</time>
      </trkpt>
      <trkpt lat="48.73819" lon="1.77906">
        <ele>214.6</ele>
        <time>2026-03-26T08:23:17.000Z</time>
      </trkpt>
      <trkpt lat="48.73819" lon="1.77904">
        <ele>214.6</ele>
        <time>2026-03-26T08:23:18.000Z</time>
      </trkpt>
      <trkpt lat="48.7382" lon="1.77902">
        <ele>214.7</ele>
        <time>2026-03-26T08:23:19.000Z</time>
      </trkpt>
      <trkpt lat="48.7382" lon="1.779">
        <ele>215.3</ele>
        <time>2026-03-26T08:23:20.000Z</time>
      </trkpt>
      <trkpt lat="48.7382" lon="1.77898">
        <ele>215.7</ele>
        <time>2026-03-26T08:23:21.000Z</time>
      </trkpt>
      <trkpt lat="48.73821" lon="1.77896">
        <ele>215.7</ele>
        <time>2026-03-26T08:23:22.000Z</time>
      </trkpt>
      <trkpt lat="48.73821" lon="1.77894">
        <ele>216</ele>
        <time>2026-03-26T08:23:23.000Z</time>
      </trkpt>
      <trkpt lat="48.73821" lon="1.77891">
        <ele>215.6</ele>
        <time>2026-03-26T08:23:24.000Z</time>
      </trkpt>
      <trkpt lat="48.73822" lon="1.77889">
        <ele>215.8</ele>
        <time>2026-03-26T08:23:25.000Z</time>
      </trkpt>
      <trkpt lat="48.73822" lon="1.77887">
        <ele>215.6</ele>
        <time>2026-03-26T08:23:26.000Z</time>
      </trkpt>
      <trkpt lat="48.73823" lon="1.77886">
        <ele>215.2</ele>
        <time>2026-03-26T08:23:27.000Z</time>
      </trkpt>
      <trkpt lat="48.73823" lon="1.77884">
        <ele>215</ele>
        <time>2026-03-26T08:23:28.000Z</time>
      </trkpt>
      <trkpt lat="48.73824" lon="1.77882">
        <ele>214.7</ele>
        <time>2026-03-26T08:23:29.000Z</time>
      </trkpt>
      <trkpt lat="48.73824" lon="1.7788">
        <ele>214.6</ele>
        <time>2026-03-26T08:23:30.000Z</time>
      </trkpt>
      <trkpt lat="48.73824" lon="1.77878">
        <ele>214.4</ele>
        <time>2026-03-26T08:23:31.000Z</time>
      </trkpt>
      <trkpt lat="48.73824" lon="1.77875">
        <ele>214.5</ele>
        <time>2026-03-26T08:23:32.000Z</time>
      </trkpt>
      <trkpt lat="48.73824" lon="1.77873">
        <ele>214.5</ele>
        <time>2026-03-26T08:23:33.000Z</time>
      </trkpt>
      <trkpt lat="48.73823" lon="1.77871">
        <ele>214.3</ele>
        <time>2026-03-26T08:23:34.000Z</time>
      </trkpt>
      <trkpt lat="48.73823" lon="1.77869">
        <ele>214</ele>
        <time>2026-03-26T08:23:35.000Z</time>
      </trkpt>
      <trkpt lat="48.73823" lon="1.77868">
        <ele>213.8</ele>
        <time>2026-03-26T08:23:36.000Z</time>
      </trkpt>
      <trkpt lat="48.73822" lon="1.77866">
        <ele>214.2</ele>
        <time>2026-03-26T08:23:37.000Z</time>
      </trkpt>
      <trkpt lat="48.73822" lon="1.77865">
        <ele>213.6</ele>
        <time>2026-03-26T08:23:38.000Z</time>
      </trkpt>
      <trkpt lat="48.7382" lon="1.77866">
        <ele>213</ele>
        <time>2026-03-26T08:23:39.000Z</time>
      </trkpt>
      <trkpt lat="48.73819" lon="1.77867">
        <ele>213</ele>
        <time>2026-03-26T08:23:40.000Z</time>
      </trkpt>
      <trkpt lat="48.73819" lon="1.77867">
        <ele>212.8</ele>
        <time>2026-03-26T08:23:41.000Z</time>
      </trkpt>
      <trkpt lat="48.73818" lon="1.77866">
        <ele>213.4</ele>
        <time>2026-03-26T08:23:42.000Z</time>
      </trkpt>
      <trkpt lat="48.73817" lon="1.77863">
        <ele>214.5</ele>
        <time>2026-03-26T08:23:43.000Z</time>
      </trkpt>
      <trkpt lat="48.73817" lon="1.77861">
        <ele>215.4</ele>
        <time>2026-03-26T08:23:44.000Z</time>
      </trkpt>
      <trkpt lat="48.73817" lon="1.77858">
        <ele>215.9</ele>
        <time>2026-03-26T08:23:45.000Z</time>
      </trkpt>
      <trkpt lat="48.73817" lon="1.77856">
        <ele>216.2</ele>
        <time>2026-03-26T08:23:46.000Z</time>
      </trkpt>
      <trkpt lat="48.73817" lon="1.77853">
        <ele>216.4</ele>
        <time>2026-03-26T08:23:47.000Z</time>
      </trkpt>
      <trkpt lat="48.73818" lon="1.77851">
        <ele>216.8</ele>
        <time>2026-03-26T08:23:48.000Z</time>
      </trkpt>
      <trkpt lat="48.73817" lon="1.77848">
        <ele>217.1</ele>
        <time>2026-03-26T08:23:49.000Z</time>
      </trkpt>
      <trkpt lat="48.73817" lon="1.77846">
        <ele>217.2</ele>
        <time>2026-03-26T08:23:50.000Z</time>
      </trkpt>
      <trkpt lat="48.73817" lon="1.77844">
        <ele>217.3</ele>
        <time>2026-03-26T08:23:51.000Z</time>
      </trkpt>
      <trkpt lat="48.73817" lon="1.77843">
        <ele>217.4</ele>
        <time>2026-03-26T08:23:52.000Z</time>
      </trkpt>
      <trkpt lat="48.73817" lon="1.77841">
        <ele>217.5</ele>
        <time>2026-03-26T08:23:53.000Z</time>
      </trkpt>
      <trkpt lat="48.73817" lon="1.77839">
        <ele>217.1</ele>
        <time>2026-03-26T08:23:54.000Z</time>
      </trkpt>
      <trkpt lat="48.73817" lon="1.77838">
        <ele>217.2</ele>
        <time>2026-03-26T08:23:55.000Z</time>
      </trkpt>
      <trkpt lat="48.73817" lon="1.77836">
        <ele>217.1</ele>
        <time>2026-03-26T08:23:56.000Z</time>
      </trkpt>
      <trkpt lat="48.73818" lon="1.77834">
        <ele>217</ele>
        <time>2026-03-26T08:23:57.000Z</time>
      </trkpt>
      <trkpt lat="48.73818" lon="1.77832">
        <ele>216.8</ele>
        <time>2026-03-26T08:23:58.000Z</time>
      </trkpt>
      <trkpt lat="48.73818" lon="1.7783">
        <ele>216.8</ele>
        <time>2026-03-26T08:23:59.000Z</time>
      </trkpt>
      <trkpt lat="48.73819" lon="1.77829">
        <ele>216.7</ele>
        <time>2026-03-26T08:24:00.000Z</time>
      </trkpt>
      <trkpt lat="48.73819" lon="1.77827">
        <ele>216.4</ele>
        <time>2026-03-26T08:24:01.000Z</time>
      </trkpt>
      <trkpt lat="48.73819" lon="1.77826">
        <ele>216.4</ele>
        <time>2026-03-26T08:24:02.000Z</time>
      </trkpt>
      <trkpt lat="48.7382" lon="1.77824">
        <ele>216.6</ele>
        <time>2026-03-26T08:24:03.000Z</time>
      </trkpt>
      <trkpt lat="48.7382" lon="1.77823">
        <ele>216.5</ele>
        <time>2026-03-26T08:24:04.000Z</time>
      </trkpt>
      <trkpt lat="48.73821" lon="1.77822">
        <ele>216.6</ele>
        <time>2026-03-26T08:24:05.000Z</time>
      </trkpt>
      <trkpt lat="48.73821" lon="1.7782">
        <ele>216.8</ele>
        <time>2026-03-26T08:24:06.000Z</time>
      </trkpt>
      <trkpt lat="48.73821" lon="1.77819">
        <ele>216.6</ele>
        <time>2026-03-26T08:24:07.000Z</time>
      </trkpt>
      <trkpt lat="48.73821" lon="1.77817">
        <ele>216.7</ele>
        <time>2026-03-26T08:24:08.000Z</time>
      </trkpt>
      <trkpt lat="48.73821" lon="1.77816">
        <ele>216.7</ele>
        <time>2026-03-26T08:24:09.000Z</time>
      </trkpt>
      <trkpt lat="48.73821" lon="1.77814">
        <ele>216.6</ele>
        <time>2026-03-26T08:24:10.000Z</time>
      </trkpt>
      <trkpt lat="48.73822" lon="1.77813">
        <ele>216.1</ele>
        <time>2026-03-26T08:24:11.000Z</time>
      </trkpt>
      <trkpt lat="48.73822" lon="1.77812">
        <ele>215.8</ele>
        <time>2026-03-26T08:24:12.000Z</time>
      </trkpt>
      <trkpt lat="48.73823" lon="1.7781">
        <ele>215.5</ele>
        <time>2026-03-26T08:24:13.000Z</time>
      </trkpt>
      <trkpt lat="48.73823" lon="1.77808">
        <ele>215.5</ele>
        <time>2026-03-26T08:24:14.000Z</time>
      </trkpt>
      <trkpt lat="48.73823" lon="1.77806">
        <ele>215.4</ele>
        <time>2026-03-26T08:24:15.000Z</time>
      </trkpt>
      <trkpt lat="48.73823" lon="1.77804">
        <ele>215.5</ele>
        <time>2026-03-26T08:24:16.000Z</time>
      </trkpt>
      <trkpt lat="48.73823" lon="1.77802">
        <ele>214.9</ele>
        <time>2026-03-26T08:24:17.000Z</time>
      </trkpt>
      <trkpt lat="48.73823" lon="1.77801">
        <ele>214.9</ele>
        <time>2026-03-26T08:24:18.000Z</time>
      </trkpt>
      <trkpt lat="48.73822" lon="1.778">
        <ele>215.1</ele>
        <time>2026-03-26T08:24:19.000Z</time>
      </trkpt>
      <trkpt lat="48.73822" lon="1.77798">
        <ele>215.2</ele>
        <time>2026-03-26T08:24:20.000Z</time>
      </trkpt>
      <trkpt lat="48.73822" lon="1.77797">
        <ele>215.5</ele>
        <time>2026-03-26T08:24:21.000Z</time>
      </trkpt>
      <trkpt lat="48.73823" lon="1.77795">
        <ele>215.5</ele>
        <time>2026-03-26T08:24:22.000Z</time>
      </trkpt>
      <trkpt lat="48.73823" lon="1.77794">
        <ele>215.2</ele>
        <time>2026-03-26T08:24:23.000Z</time>
      </trkpt>
      <trkpt lat="48.73823" lon="1.77792">
        <ele>215.3</ele>
        <time>2026-03-26T08:24:24.000Z</time>
      </trkpt>
      <trkpt lat="48.73824" lon="1.77791">
        <ele>214.9</ele>
        <time>2026-03-26T08:24:25.000Z</time>
      </trkpt>
      <trkpt lat="48.73825" lon="1.7779">
        <ele>214.2</ele>
        <time>2026-03-26T08:24:26.000Z</time>
      </trkpt>
      <trkpt lat="48.73825" lon="1.77788">
        <ele>214.1</ele>
        <time>2026-03-26T08:24:27.000Z</time>
      </trkpt>
      <trkpt lat="48.73825" lon="1.77786">
        <ele>214.2</ele>
        <time>2026-03-26T08:24:28.000Z</time>
      </trkpt>
      <trkpt lat="48.73825" lon="1.77784">
        <ele>214</ele>
        <time>2026-03-26T08:24:29.000Z</time>
      </trkpt>
      <trkpt lat="48.73825" lon="1.77783">
        <ele>213.7</ele>
        <time>2026-03-26T08:24:30.000Z</time>
      </trkpt>
      <trkpt lat="48.73826" lon="1.77782">
        <ele>213.3</ele>
        <time>2026-03-26T08:24:31.000Z</time>
      </trkpt>
      <trkpt lat="48.73826" lon="1.7778">
        <ele>213</ele>
        <time>2026-03-26T08:24:32.000Z</time>
      </trkpt>
      <trkpt lat="48.73826" lon="1.77778">
        <ele>213</ele>
        <time>2026-03-26T08:24:33.000Z</time>
      </trkpt>
      <trkpt lat="48.73826" lon="1.77776">
        <ele>212.9</ele>
        <time>2026-03-26T08:24:34.000Z</time>
      </trkpt>
      <trkpt lat="48.73826" lon="1.77775">
        <ele>213</ele>
        <time>2026-03-26T08:24:35.000Z</time>
      </trkpt>
      <trkpt lat="48.73826" lon="1.77773">
        <ele>212.8</ele>
        <time>2026-03-26T08:24:36.000Z</time>
      </trkpt>
      <trkpt lat="48.73826" lon="1.77771">
        <ele>212.6</ele>
        <time>2026-03-26T08:24:37.000Z</time>
      </trkpt>
      <trkpt lat="48.73826" lon="1.77769">
        <ele>212.5</ele>
        <time>2026-03-26T08:24:38.000Z</time>
      </trkpt>
      <trkpt lat="48.73827" lon="1.77767">
        <ele>212.2</ele>
        <time>2026-03-26T08:24:39.000Z</time>
      </trkpt>
      <trkpt lat="48.73827" lon="1.77765">
        <ele>212.1</ele>
        <time>2026-03-26T08:24:40.000Z</time>
      </trkpt>
      <trkpt lat="48.73827" lon="1.77763">
        <ele>211.9</ele>
        <time>2026-03-26T08:24:41.000Z</time>
      </trkpt>
      <trkpt lat="48.73827" lon="1.77761">
        <ele>211.9</ele>
        <time>2026-03-26T08:24:42.000Z</time>
      </trkpt>
      <trkpt lat="48.73827" lon="1.77759">
        <ele>211.7</ele>
        <time>2026-03-26T08:24:43.000Z</time>
      </trkpt>
      <trkpt lat="48.73827" lon="1.77757">
        <ele>211.7</ele>
        <time>2026-03-26T08:24:44.000Z</time>
      </trkpt>
      <trkpt lat="48.73827" lon="1.77755">
        <ele>211.4</ele>
        <time>2026-03-26T08:24:45.000Z</time>
      </trkpt>
      <trkpt lat="48.73827" lon="1.77753">
        <ele>211.4</ele>
        <time>2026-03-26T08:24:46.000Z</time>
      </trkpt>
      <trkpt lat="48.73828" lon="1.77751">
        <ele>211.4</ele>
        <time>2026-03-26T08:24:47.000Z</time>
      </trkpt>
      <trkpt lat="48.73828" lon="1.77749">
        <ele>211.5</ele>
        <time>2026-03-26T08:24:48.000Z</time>
      </trkpt>
      <trkpt lat="48.73828" lon="1.77747">
        <ele>211.5</ele>
        <time>2026-03-26T08:24:49.000Z</time>
      </trkpt>
      <trkpt lat="48.73828" lon="1.77745">
        <ele>211.2</ele>
        <time>2026-03-26T08:24:50.000Z</time>
      </trkpt>
      <trkpt lat="48.73828" lon="1.77743">
        <ele>211.1</ele>
        <time>2026-03-26T08:24:51.000Z</time>
      </trkpt>
      <trkpt lat="48.73829" lon="1.77741">
        <ele>211</ele>
        <time>2026-03-26T08:24:52.000Z</time>
      </trkpt>
      <trkpt lat="48.73829" lon="1.77739">
        <ele>210.9</ele>
        <time>2026-03-26T08:24:53.000Z</time>
      </trkpt>
      <trkpt lat="48.73829" lon="1.77737">
        <ele>210.8</ele>
        <time>2026-03-26T08:24:54.000Z</time>
      </trkpt>
      <trkpt lat="48.7383" lon="1.77735">
        <ele>210.6</ele>
        <time>2026-03-26T08:24:55.000Z</time>
      </trkpt>
      <trkpt lat="48.7383" lon="1.77733">
        <ele>210.4</ele>
        <time>2026-03-26T08:24:56.000Z</time>
      </trkpt>
      <trkpt lat="48.73831" lon="1.77732">
        <ele>210.5</ele>
        <time>2026-03-26T08:24:57.000Z</time>
      </trkpt>
      <trkpt lat="48.73831" lon="1.7773">
        <ele>210.6</ele>
        <time>2026-03-26T08:24:58.000Z</time>
      </trkpt>
      <trkpt lat="48.73831" lon="1.77728">
        <ele>210.4</ele>
        <time>2026-03-26T08:24:59.000Z</time>
      </trkpt>
      <trkpt lat="48.73832" lon="1.77726">
        <ele>210.1</ele>
        <time>2026-03-26T08:25:00.000Z</time>
      </trkpt>
      <trkpt lat="48.73832" lon="1.77724">
        <ele>210.1</ele>
        <time>2026-03-26T08:25:01.000Z</time>
      </trkpt>
      <trkpt lat="48.73833" lon="1.77722">
        <ele>210.3</ele>
        <time>2026-03-26T08:25:02.000Z</time>
      </trkpt>
      <trkpt lat="48.73833" lon="1.77719">
        <ele>210.3</ele>
        <time>2026-03-26T08:25:03.000Z</time>
      </trkpt>
      <trkpt lat="48.73833" lon="1.77717">
        <ele>210.3</ele>
        <time>2026-03-26T08:25:04.000Z</time>
      </trkpt>
      <trkpt lat="48.73833" lon="1.77715">
        <ele>210.4</ele>
        <time>2026-03-26T08:25:05.000Z</time>
      </trkpt>
      <trkpt lat="48.73834" lon="1.77713">
        <ele>210.6</ele>
        <time>2026-03-26T08:25:06.000Z</time>
      </trkpt>
      <trkpt lat="48.73835" lon="1.77711">
        <ele>210.4</ele>
        <time>2026-03-26T08:25:07.000Z</time>
      </trkpt>
      <trkpt lat="48.73835" lon="1.77709">
        <ele>210.5</ele>
        <time>2026-03-26T08:25:08.000Z</time>
      </trkpt>
      <trkpt lat="48.73836" lon="1.77707">
        <ele>210.6</ele>
        <time>2026-03-26T08:25:09.000Z</time>
      </trkpt>
      <trkpt lat="48.73836" lon="1.77705">
        <ele>210.3</ele>
        <time>2026-03-26T08:25:10.000Z</time>
      </trkpt>
      <trkpt lat="48.73837" lon="1.77703">
        <ele>210.4</ele>
        <time>2026-03-26T08:25:11.000Z</time>
      </trkpt>
      <trkpt lat="48.73837" lon="1.77701">
        <ele>210.7</ele>
        <time>2026-03-26T08:25:12.000Z</time>
      </trkpt>
      <trkpt lat="48.73838" lon="1.77699">
        <ele>210.3</ele>
        <time>2026-03-26T08:25:13.000Z</time>
      </trkpt>
      <trkpt lat="48.73838" lon="1.77697">
        <ele>210.4</ele>
        <time>2026-03-26T08:25:14.000Z</time>
      </trkpt>
      <trkpt lat="48.73839" lon="1.77695">
        <ele>210.5</ele>
        <time>2026-03-26T08:25:15.000Z</time>
      </trkpt>
      <trkpt lat="48.73839" lon="1.77692">
        <ele>210.4</ele>
        <time>2026-03-26T08:25:16.000Z</time>
      </trkpt>
      <trkpt lat="48.7384" lon="1.7769">
        <ele>210.6</ele>
        <time>2026-03-26T08:25:17.000Z</time>
      </trkpt>
      <trkpt lat="48.7384" lon="1.77689">
        <ele>210.5</ele>
        <time>2026-03-26T08:25:18.000Z</time>
      </trkpt>
      <trkpt lat="48.7384" lon="1.77687">
        <ele>210.6</ele>
        <time>2026-03-26T08:25:19.000Z</time>
      </trkpt>
      <trkpt lat="48.73841" lon="1.77685">
        <ele>210.6</ele>
        <time>2026-03-26T08:25:20.000Z</time>
      </trkpt>
      <trkpt lat="48.73841" lon="1.77683">
        <ele>210.7</ele>
        <time>2026-03-26T08:25:21.000Z</time>
      </trkpt>
      <trkpt lat="48.73842" lon="1.77681">
        <ele>210.8</ele>
        <time>2026-03-26T08:25:22.000Z</time>
      </trkpt>
      <trkpt lat="48.73842" lon="1.77679">
        <ele>210.7</ele>
        <time>2026-03-26T08:25:23.000Z</time>
      </trkpt>
      <trkpt lat="48.73842" lon="1.77677">
        <ele>210.7</ele>
        <time>2026-03-26T08:25:24.000Z</time>
      </trkpt>
      <trkpt lat="48.73842" lon="1.77675">
        <ele>211</ele>
        <time>2026-03-26T08:25:25.000Z</time>
      </trkpt>
      <trkpt lat="48.73843" lon="1.77673">
        <ele>211.2</ele>
        <time>2026-03-26T08:25:26.000Z</time>
      </trkpt>
      <trkpt lat="48.73843" lon="1.77671">
        <ele>211.3</ele>
        <time>2026-03-26T08:25:27.000Z</time>
      </trkpt>
      <trkpt lat="48.73843" lon="1.77669">
        <ele>211.4</ele>
        <time>2026-03-26T08:25:28.000Z</time>
      </trkpt>
      <trkpt lat="48.73844" lon="1.77667">
        <ele>211.4</ele>
        <time>2026-03-26T08:25:29.000Z</time>
      </trkpt>
      <trkpt lat="48.73844" lon="1.77665">
        <ele>211.8</ele>
        <time>2026-03-26T08:25:30.000Z</time>
      </trkpt>
      <trkpt lat="48.73845" lon="1.77663">
        <ele>211.8</ele>
        <time>2026-03-26T08:25:31.000Z</time>
      </trkpt>
      <trkpt lat="48.73845" lon="1.77661">
        <ele>211.5</ele>
        <time>2026-03-26T08:25:32.000Z</time>
      </trkpt>
      <trkpt lat="48.73845" lon="1.77659">
        <ele>211.3</ele>
        <time>2026-03-26T08:25:33.000Z</time>
      </trkpt>
      <trkpt lat="48.73846" lon="1.77657">
        <ele>211.4</ele>
        <time>2026-03-26T08:25:34.000Z</time>
      </trkpt>
      <trkpt lat="48.73847" lon="1.77655">
        <ele>211.6</ele>
        <time>2026-03-26T08:25:35.000Z</time>
      </trkpt>
      <trkpt lat="48.73847" lon="1.77653">
        <ele>212</ele>
        <time>2026-03-26T08:25:36.000Z</time>
      </trkpt>
      <trkpt lat="48.73847" lon="1.77651">
        <ele>212.2</ele>
        <time>2026-03-26T08:25:37.000Z</time>
      </trkpt>
      <trkpt lat="48.73847" lon="1.77649">
        <ele>212.2</ele>
        <time>2026-03-26T08:25:38.000Z</time>
      </trkpt>
      <trkpt lat="48.73847" lon="1.77647">
        <ele>212.1</ele>
        <time>2026-03-26T08:25:39.000Z</time>
      </trkpt>
      <trkpt lat="48.73847" lon="1.77645">
        <ele>211.8</ele>
        <time>2026-03-26T08:25:40.000Z</time>
      </trkpt>
      <trkpt lat="48.73847" lon="1.77643">
        <ele>211.2</ele>
        <time>2026-03-26T08:25:41.000Z</time>
      </trkpt>
      <trkpt lat="48.73846" lon="1.77641">
        <ele>211.5</ele>
        <time>2026-03-26T08:25:42.000Z</time>
      </trkpt>
      <trkpt lat="48.73845" lon="1.77639">
        <ele>211.8</ele>
        <time>2026-03-26T08:25:43.000Z</time>
      </trkpt>
      <trkpt lat="48.73845" lon="1.77637">
        <ele>211.8</ele>
        <time>2026-03-26T08:25:44.000Z</time>
      </trkpt>
      <trkpt lat="48.73845" lon="1.77635">
        <ele>212.1</ele>
        <time>2026-03-26T08:25:45.000Z</time>
      </trkpt>
      <trkpt lat="48.73845" lon="1.77633">
        <ele>212.2</ele>
        <time>2026-03-26T08:25:46.000Z</time>
      </trkpt>
      <trkpt lat="48.73844" lon="1.77631">
        <ele>212.2</ele>
        <time>2026-03-26T08:25:47.000Z</time>
      </trkpt>
      <trkpt lat="48.73844" lon="1.7763">
        <ele>211.7</ele>
        <time>2026-03-26T08:25:48.000Z</time>
      </trkpt>
      <trkpt lat="48.73844" lon="1.77628">
        <ele>211.3</ele>
        <time>2026-03-26T08:25:49.000Z</time>
      </trkpt>
      <trkpt lat="48.73844" lon="1.77626">
        <ele>211.1</ele>
        <time>2026-03-26T08:25:50.000Z</time>
      </trkpt>
      <trkpt lat="48.73844" lon="1.77624">
        <ele>211.1</ele>
        <time>2026-03-26T08:25:51.000Z</time>
      </trkpt>
      <trkpt lat="48.73844" lon="1.77622">
        <ele>210.9</ele>
        <time>2026-03-26T08:25:52.000Z</time>
      </trkpt>
      <trkpt lat="48.73845" lon="1.7762">
        <ele>210.4</ele>
        <time>2026-03-26T08:25:53.000Z</time>
      </trkpt>
      <trkpt lat="48.73845" lon="1.77618">
        <ele>210.5</ele>
        <time>2026-03-26T08:25:54.000Z</time>
      </trkpt>
      <trkpt lat="48.73846" lon="1.77617">
        <ele>210.6</ele>
        <time>2026-03-26T08:25:55.000Z</time>
      </trkpt>
      <trkpt lat="48.73847" lon="1.77615">
        <ele>210.7</ele>
        <time>2026-03-26T08:25:56.000Z</time>
      </trkpt>
      <trkpt lat="48.73848" lon="1.77613">
        <ele>210.6</ele>
        <time>2026-03-26T08:25:57.000Z</time>
      </trkpt>
      <trkpt lat="48.73848" lon="1.77612">
        <ele>210.1</ele>
        <time>2026-03-26T08:25:58.000Z</time>
      </trkpt>
      <trkpt lat="48.73848" lon="1.7761">
        <ele>209.8</ele>
        <time>2026-03-26T08:25:59.000Z</time>
      </trkpt>
      <trkpt lat="48.73849" lon="1.77609">
        <ele>210</ele>
        <time>2026-03-26T08:26:00.000Z</time>
      </trkpt>
      <trkpt lat="48.73849" lon="1.77607">
        <ele>210.2</ele>
        <time>2026-03-26T08:26:01.000Z</time>
      </trkpt>
      <trkpt lat="48.73849" lon="1.77606">
        <ele>210.4</ele>
        <time>2026-03-26T08:26:02.000Z</time>
      </trkpt>
      <trkpt lat="48.7385" lon="1.77604">
        <ele>210.9</ele>
        <time>2026-03-26T08:26:03.000Z</time>
      </trkpt>
      <trkpt lat="48.7385" lon="1.77602">
        <ele>211</ele>
        <time>2026-03-26T08:26:04.000Z</time>
      </trkpt>
      <trkpt lat="48.73851" lon="1.77601">
        <ele>210.9</ele>
        <time>2026-03-26T08:26:05.000Z</time>
      </trkpt>
      <trkpt lat="48.73851" lon="1.776">
        <ele>211</ele>
        <time>2026-03-26T08:26:06.000Z</time>
      </trkpt>
      <trkpt lat="48.73852" lon="1.77599">
        <ele>211.4</ele>
        <time>2026-03-26T08:26:07.000Z</time>
      </trkpt>
      <trkpt lat="48.73853" lon="1.77598">
        <ele>211.5</ele>
        <time>2026-03-26T08:26:08.000Z</time>
      </trkpt>
      <trkpt lat="48.73854" lon="1.77597">
        <ele>211.3</ele>
        <time>2026-03-26T08:26:09.000Z</time>
      </trkpt>
      <trkpt lat="48.73855" lon="1.77597">
        <ele>211.2</ele>
        <time>2026-03-26T08:26:10.000Z</time>
      </trkpt>
      <trkpt lat="48.73855" lon="1.77597">
        <ele>210.6</ele>
        <time>2026-03-26T08:26:11.000Z</time>
      </trkpt>
      <trkpt lat="48.73856" lon="1.77597">
        <ele>210</ele>
        <time>2026-03-26T08:26:12.000Z</time>
      </trkpt>
      <trkpt lat="48.73858" lon="1.77599">
        <ele>209.8</ele>
        <time>2026-03-26T08:26:13.000Z</time>
      </trkpt>
      <trkpt lat="48.7386" lon="1.77599">
        <ele>210</ele>
        <time>2026-03-26T08:26:14.000Z</time>
      </trkpt>
      <trkpt lat="48.7386" lon="1.77599">
        <ele>209.8</ele>
        <time>2026-03-26T08:26:15.000Z</time>
      </trkpt>
      <trkpt lat="48.7386" lon="1.77599">
        <ele>209.8</ele>
        <time>2026-03-26T08:26:16.000Z</time>
      </trkpt>
      <trkpt lat="48.7386" lon="1.77598">
        <ele>210.5</ele>
        <time>2026-03-26T08:26:17.000Z</time>
      </trkpt>
      <trkpt lat="48.7386" lon="1.77598">
        <ele>209.9</ele>
        <time>2026-03-26T08:26:18.000Z</time>
      </trkpt>
      <trkpt lat="48.7386" lon="1.77597">
        <ele>209.6</ele>
        <time>2026-03-26T08:26:19.000Z</time>
      </trkpt>
      <trkpt lat="48.7386" lon="1.77596">
        <ele>209.3</ele>
        <time>2026-03-26T08:26:20.000Z</time>
      </trkpt>
      <trkpt lat="48.7386" lon="1.77592">
        <ele>211</ele>
        <time>2026-03-26T08:26:21.000Z</time>
      </trkpt>
      <trkpt lat="48.7386" lon="1.77589">
        <ele>212.3</ele>
        <time>2026-03-26T08:26:22.000Z</time>
      </trkpt>
      <trkpt lat="48.73859" lon="1.77586">
        <ele>213</ele>
        <time>2026-03-26T08:26:23.000Z</time>
      </trkpt>
      <trkpt lat="48.73859" lon="1.77584">
        <ele>213.2</ele>
        <time>2026-03-26T08:26:24.000Z</time>
      </trkpt>
      <trkpt lat="48.73859" lon="1.77582">
        <ele>213.8</ele>
        <time>2026-03-26T08:26:25.000Z</time>
      </trkpt>
      <trkpt lat="48.73859" lon="1.7758">
        <ele>213.6</ele>
        <time>2026-03-26T08:26:26.000Z</time>
      </trkpt>
      <trkpt lat="48.73859" lon="1.77578">
        <ele>213.8</ele>
        <time>2026-03-26T08:26:27.000Z</time>
      </trkpt>
      <trkpt lat="48.73859" lon="1.77576">
        <ele>213.5</ele>
        <time>2026-03-26T08:26:28.000Z</time>
      </trkpt>
      <trkpt lat="48.73859" lon="1.77574">
        <ele>213.3</ele>
        <time>2026-03-26T08:26:29.000Z</time>
      </trkpt>
      <trkpt lat="48.7386" lon="1.77573">
        <ele>213</ele>
        <time>2026-03-26T08:26:30.000Z</time>
      </trkpt>
      <trkpt lat="48.7386" lon="1.77571">
        <ele>212.6</ele>
        <time>2026-03-26T08:26:31.000Z</time>
      </trkpt>
      <trkpt lat="48.73861" lon="1.77569">
        <ele>212</ele>
        <time>2026-03-26T08:26:32.000Z</time>
      </trkpt>
      <trkpt lat="48.73861" lon="1.77567">
        <ele>211.8</ele>
        <time>2026-03-26T08:26:33.000Z</time>
      </trkpt>
      <trkpt lat="48.73861" lon="1.77565">
        <ele>211.6</ele>
        <time>2026-03-26T08:26:34.000Z</time>
      </trkpt>
      <trkpt lat="48.73862" lon="1.77564">
        <ele>211.2</ele>
        <time>2026-03-26T08:26:35.000Z</time>
      </trkpt>
      <trkpt lat="48.73862" lon="1.77562">
        <ele>211.5</ele>
        <time>2026-03-26T08:26:36.000Z</time>
      </trkpt>
      <trkpt lat="48.73863" lon="1.77561">
        <ele>211.4</ele>
        <time>2026-03-26T08:26:37.000Z</time>
      </trkpt>
      <trkpt lat="48.73863" lon="1.77559">
        <ele>211.3</ele>
        <time>2026-03-26T08:26:38.000Z</time>
      </trkpt>
      <trkpt lat="48.73863" lon="1.77558">
        <ele>210.8</ele>
        <time>2026-03-26T08:26:39.000Z</time>
      </trkpt>
      <trkpt lat="48.73864" lon="1.77556">
        <ele>210.6</ele>
        <time>2026-03-26T08:26:40.000Z</time>
      </trkpt>
      <trkpt lat="48.73864" lon="1.77555">
        <ele>210.5</ele>
        <time>2026-03-26T08:26:41.000Z</time>
      </trkpt>
      <trkpt lat="48.73865" lon="1.77553">
        <ele>210.4</ele>
        <time>2026-03-26T08:26:42.000Z</time>
      </trkpt>
      <trkpt lat="48.73866" lon="1.77551">
        <ele>210.2</ele>
        <time>2026-03-26T08:26:43.000Z</time>
      </trkpt>
      <trkpt lat="48.73867" lon="1.7755">
        <ele>210.1</ele>
        <time>2026-03-26T08:26:44.000Z</time>
      </trkpt>
      <trkpt lat="48.73867" lon="1.77549">
        <ele>210.3</ele>
        <time>2026-03-26T08:26:45.000Z</time>
      </trkpt>
      <trkpt lat="48.73868" lon="1.77547">
        <ele>210.4</ele>
        <time>2026-03-26T08:26:46.000Z</time>
      </trkpt>
      <trkpt lat="48.73869" lon="1.77546">
        <ele>210</ele>
        <time>2026-03-26T08:26:47.000Z</time>
      </trkpt>
      <trkpt lat="48.7387" lon="1.77544">
        <ele>210</ele>
        <time>2026-03-26T08:26:48.000Z</time>
      </trkpt>
      <trkpt lat="48.7387" lon="1.77543">
        <ele>209.7</ele>
        <time>2026-03-26T08:26:49.000Z</time>
      </trkpt>
      <trkpt lat="48.73871" lon="1.77542">
        <ele>209.4</ele>
        <time>2026-03-26T08:26:50.000Z</time>
      </trkpt>
      <trkpt lat="48.73872" lon="1.7754">
        <ele>209.2</ele>
        <time>2026-03-26T08:26:51.000Z</time>
      </trkpt>
      <trkpt lat="48.73872" lon="1.77538">
        <ele>209</ele>
        <time>2026-03-26T08:26:52.000Z</time>
      </trkpt>
      <trkpt lat="48.73872" lon="1.77537">
        <ele>208.3</ele>
        <time>2026-03-26T08:26:53.000Z</time>
      </trkpt>
      <trkpt lat="48.73873" lon="1.77536">
        <ele>208.2</ele>
        <time>2026-03-26T08:26:54.000Z</time>
      </trkpt>
      <trkpt lat="48.73873" lon="1.77534">
        <ele>208.4</ele>
        <time>2026-03-26T08:26:55.000Z</time>
      </trkpt>
      <trkpt lat="48.73874" lon="1.77533">
        <ele>208.4</ele>
        <time>2026-03-26T08:26:56.000Z</time>
      </trkpt>
      <trkpt lat="48.73874" lon="1.77531">
        <ele>208.4</ele>
        <time>2026-03-26T08:26:57.000Z</time>
      </trkpt>
      <trkpt lat="48.73874" lon="1.77529">
        <ele>208.4</ele>
        <time>2026-03-26T08:26:58.000Z</time>
      </trkpt>
      <trkpt lat="48.73874" lon="1.77527">
        <ele>208.2</ele>
        <time>2026-03-26T08:26:59.000Z</time>
      </trkpt>
      <trkpt lat="48.73874" lon="1.77525">
        <ele>208.8</ele>
        <time>2026-03-26T08:27:00.000Z</time>
      </trkpt>
      <trkpt lat="48.73874" lon="1.77523">
        <ele>209.3</ele>
        <time>2026-03-26T08:27:01.000Z</time>
      </trkpt>
      <trkpt lat="48.73874" lon="1.7752">
        <ele>209.2</ele>
        <time>2026-03-26T08:27:02.000Z</time>
      </trkpt>
      <trkpt lat="48.73874" lon="1.77519">
        <ele>209.4</ele>
        <time>2026-03-26T08:27:03.000Z</time>
      </trkpt>
      <trkpt lat="48.73874" lon="1.77517">
        <ele>209.2</ele>
        <time>2026-03-26T08:27:04.000Z</time>
      </trkpt>
      <trkpt lat="48.73874" lon="1.77515">
        <ele>209.4</ele>
        <time>2026-03-26T08:27:05.000Z</time>
      </trkpt>
      <trkpt lat="48.73875" lon="1.77514">
        <ele>209.6</ele>
        <time>2026-03-26T08:27:06.000Z</time>
      </trkpt>
      <trkpt lat="48.73875" lon="1.77512">
        <ele>210</ele>
        <time>2026-03-26T08:27:07.000Z</time>
      </trkpt>
      <trkpt lat="48.73877" lon="1.77511">
        <ele>209.8</ele>
        <time>2026-03-26T08:27:08.000Z</time>
      </trkpt>
      <trkpt lat="48.73877" lon="1.7751">
        <ele>209.1</ele>
        <time>2026-03-26T08:27:09.000Z</time>
      </trkpt>
      <trkpt lat="48.73877" lon="1.77508">
        <ele>208.8</ele>
        <time>2026-03-26T08:27:10.000Z</time>
      </trkpt>
      <trkpt lat="48.73878" lon="1.77506">
        <ele>208.3</ele>
        <time>2026-03-26T08:27:11.000Z</time>
      </trkpt>
      <trkpt lat="48.73877" lon="1.77505">
        <ele>208.6</ele>
        <time>2026-03-26T08:27:12.000Z</time>
      </trkpt>
      <trkpt lat="48.73877" lon="1.77503">
        <ele>209.1</ele>
        <time>2026-03-26T08:27:13.000Z</time>
      </trkpt>
      <trkpt lat="48.73877" lon="1.77502">
        <ele>209.2</ele>
        <time>2026-03-26T08:27:14.000Z</time>
      </trkpt>
      <trkpt lat="48.73879" lon="1.77501">
        <ele>209</ele>
        <time>2026-03-26T08:27:15.000Z</time>
      </trkpt>
      <trkpt lat="48.73881" lon="1.77501">
        <ele>209</ele>
        <time>2026-03-26T08:27:16.000Z</time>
      </trkpt>
      <trkpt lat="48.73882" lon="1.77501">
        <ele>207.6</ele>
        <time>2026-03-26T08:27:17.000Z</time>
      </trkpt>
      <trkpt lat="48.73882" lon="1.77498">
        <ele>207.4</ele>
        <time>2026-03-26T08:27:18.000Z</time>
      </trkpt>
      <trkpt lat="48.73881" lon="1.77496">
        <ele>208.6</ele>
        <time>2026-03-26T08:27:19.000Z</time>
      </trkpt>
      <trkpt lat="48.73881" lon="1.77497">
        <ele>208.1</ele>
        <time>2026-03-26T08:27:20.000Z</time>
      </trkpt>
      <trkpt lat="48.73881" lon="1.77495">
        <ele>207.9</ele>
        <time>2026-03-26T08:27:21.000Z</time>
      </trkpt>
      <trkpt lat="48.7388" lon="1.77494">
        <ele>207.9</ele>
        <time>2026-03-26T08:27:22.000Z</time>
      </trkpt>
      <trkpt lat="48.73879" lon="1.77493">
        <ele>208.1</ele>
        <time>2026-03-26T08:27:23.000Z</time>
      </trkpt>
      <trkpt lat="48.73879" lon="1.77492">
        <ele>208.1</ele>
        <time>2026-03-26T08:27:24.000Z</time>
      </trkpt>
      <trkpt lat="48.73879" lon="1.77491">
        <ele>209.2</ele>
        <time>2026-03-26T08:27:25.000Z</time>
      </trkpt>
      <trkpt lat="48.73879" lon="1.7749">
        <ele>209.8</ele>
        <time>2026-03-26T08:27:26.000Z</time>
      </trkpt>
      <trkpt lat="48.73879" lon="1.77489">
        <ele>209.3</ele>
        <time>2026-03-26T08:27:27.000Z</time>
      </trkpt>
      <trkpt lat="48.73878" lon="1.77488">
        <ele>209.4</ele>
        <time>2026-03-26T08:27:28.000Z</time>
      </trkpt>
      <trkpt lat="48.73877" lon="1.77487">
        <ele>209.3</ele>
        <time>2026-03-26T08:27:29.000Z</time>
      </trkpt>
      <trkpt lat="48.73876" lon="1.77486">
        <ele>209.7</ele>
        <time>2026-03-26T08:27:30.000Z</time>
      </trkpt>
      <trkpt lat="48.73876" lon="1.77486">
        <ele>209.2</ele>
        <time>2026-03-26T08:27:31.000Z</time>
      </trkpt>
      <trkpt lat="48.73874" lon="1.77486">
        <ele>209</ele>
        <time>2026-03-26T08:27:32.000Z</time>
      </trkpt>
      <trkpt lat="48.73873" lon="1.77486">
        <ele>208.1</ele>
        <time>2026-03-26T08:27:33.000Z</time>
      </trkpt>
      <trkpt lat="48.73872" lon="1.77487">
        <ele>208.7</ele>
        <time>2026-03-26T08:27:34.000Z</time>
      </trkpt>
      <trkpt lat="48.7387" lon="1.77486">
        <ele>209</ele>
        <time>2026-03-26T08:27:35.000Z</time>
      </trkpt>
      <trkpt lat="48.7387" lon="1.77485">
        <ele>208.8</ele>
        <time>2026-03-26T08:27:36.000Z</time>
      </trkpt>
      <trkpt lat="48.73869" lon="1.77484">
        <ele>209.1</ele>
        <time>2026-03-26T08:27:37.000Z</time>
      </trkpt>
      <trkpt lat="48.73869" lon="1.77483">
        <ele>208.9</ele>
        <time>2026-03-26T08:27:38.000Z</time>
      </trkpt>
      <trkpt lat="48.73869" lon="1.77482">
        <ele>208.9</ele>
        <time>2026-03-26T08:27:39.000Z</time>
      </trkpt>
      <trkpt lat="48.73868" lon="1.77481">
        <ele>208.7</ele>
        <time>2026-03-26T08:27:40.000Z</time>
      </trkpt>
      <trkpt lat="48.73868" lon="1.77481">
        <ele>209.5</ele>
        <time>2026-03-26T08:27:41.000Z</time>
      </trkpt>
      <trkpt lat="48.73868" lon="1.77479">
        <ele>210</ele>
        <time>2026-03-26T08:27:42.000Z</time>
      </trkpt>
      <trkpt lat="48.73868" lon="1.77478">
        <ele>210.3</ele>
        <time>2026-03-26T08:27:43.000Z</time>
      </trkpt>
      <trkpt lat="48.73867" lon="1.77477">
        <ele>210.7</ele>
        <time>2026-03-26T08:27:44.000Z</time>
      </trkpt>
      <trkpt lat="48.73868" lon="1.77477">
        <ele>210</ele>
        <time>2026-03-26T08:27:45.000Z</time>
      </trkpt>
      <trkpt lat="48.73867" lon="1.77475">
        <ele>211.3</ele>
        <time>2026-03-26T08:27:46.000Z</time>
      </trkpt>
      <trkpt lat="48.73867" lon="1.77474">
        <ele>211.5</ele>
        <time>2026-03-26T08:27:47.000Z</time>
      </trkpt>
      <trkpt lat="48.73867" lon="1.77474">
        <ele>211.1</ele>
        <time>2026-03-26T08:27:48.000Z</time>
      </trkpt>
      <trkpt lat="48.73867" lon="1.77473">
        <ele>212.1</ele>
        <time>2026-03-26T08:27:49.000Z</time>
      </trkpt>
      <trkpt lat="48.73867" lon="1.77471">
        <ele>212.3</ele>
        <time>2026-03-26T08:27:50.000Z</time>
      </trkpt>
      <trkpt lat="48.73867" lon="1.7747">
        <ele>212.5</ele>
        <time>2026-03-26T08:27:51.000Z</time>
      </trkpt>
      <trkpt lat="48.73867" lon="1.77469">
        <ele>212.7</ele>
        <time>2026-03-26T08:27:52.000Z</time>
      </trkpt>
      <trkpt lat="48.73868" lon="1.77469">
        <ele>212.6</ele>
        <time>2026-03-26T08:27:53.000Z</time>
      </trkpt>
      <trkpt lat="48.73868" lon="1.77468">
        <ele>211.9</ele>
        <time>2026-03-26T08:27:54.000Z</time>
      </trkpt>
      <trkpt lat="48.73868" lon="1.77467">
        <ele>212</ele>
        <time>2026-03-26T08:27:55.000Z</time>
      </trkpt>
      <trkpt lat="48.73868" lon="1.77466">
        <ele>211.8</ele>
        <time>2026-03-26T08:27:56.000Z</time>
      </trkpt>
      <trkpt lat="48.73869" lon="1.77465">
        <ele>210.9</ele>
        <time>2026-03-26T08:27:57.000Z</time>
      </trkpt>
      <trkpt lat="48.73869" lon="1.77465">
        <ele>211.2</ele>
        <time>2026-03-26T08:27:58.000Z</time>
      </trkpt>
      <trkpt lat="48.73869" lon="1.77464">
        <ele>211.9</ele>
        <time>2026-03-26T08:27:59.000Z</time>
      </trkpt>
      <trkpt lat="48.73869" lon="1.77464">
        <ele>211</ele>
        <time>2026-03-26T08:28:00.000Z</time>
      </trkpt>
      <trkpt lat="48.7387" lon="1.77463">
        <ele>209.5</ele>
        <time>2026-03-26T08:28:01.000Z</time>
      </trkpt>
      <trkpt lat="48.7387" lon="1.77462">
        <ele>208.8</ele>
        <time>2026-03-26T08:28:02.000Z</time>
      </trkpt>
      <trkpt lat="48.73872" lon="1.77462">
        <ele>206.7</ele>
        <time>2026-03-26T08:28:03.000Z</time>
      </trkpt>
      <trkpt lat="48.73873" lon="1.77462">
        <ele>206</ele>
        <time>2026-03-26T08:28:04.000Z</time>
      </trkpt>
      <trkpt lat="48.73875" lon="1.77463">
        <ele>204.6</ele>
        <time>2026-03-26T08:28:05.000Z</time>
      </trkpt>
      <trkpt lat="48.73877" lon="1.77464">
        <ele>203.4</ele>
        <time>2026-03-26T08:28:06.000Z</time>
      </trkpt>
      <trkpt lat="48.73878" lon="1.77465">
        <ele>203.2</ele>
        <time>2026-03-26T08:28:07.000Z</time>
      </trkpt>
      <trkpt lat="48.7388" lon="1.77466">
        <ele>203.7</ele>
        <time>2026-03-26T08:28:08.000Z</time>
      </trkpt>
      <trkpt lat="48.73881" lon="1.77467">
        <ele>204.8</ele>
        <time>2026-03-26T08:28:09.000Z</time>
      </trkpt>
      <trkpt lat="48.73881" lon="1.77471">
        <ele>205.5</ele>
        <time>2026-03-26T08:28:10.000Z</time>
      </trkpt>
      <trkpt lat="48.73879" lon="1.77474">
        <ele>206.3</ele>
        <time>2026-03-26T08:28:11.000Z</time>
      </trkpt>
      <trkpt lat="48.73878" lon="1.77474">
        <ele>207.5</ele>
        <time>2026-03-26T08:28:12.000Z</time>
      </trkpt>
      <trkpt lat="48.73878" lon="1.77475">
        <ele>207</ele>
        <time>2026-03-26T08:28:13.000Z</time>
      </trkpt>
      <trkpt lat="48.73878" lon="1.77475">
        <ele>206.6</ele>
        <time>2026-03-26T08:28:14.000Z</time>
      </trkpt>
      <trkpt lat="48.73879" lon="1.77476">
        <ele>205.9</ele>
        <time>2026-03-26T08:28:15.000Z</time>
      </trkpt>
      <trkpt lat="48.73878" lon="1.77477">
        <ele>204.3</ele>
        <time>2026-03-26T08:28:16.000Z</time>
      </trkpt>
      <trkpt lat="48.73877" lon="1.77481">
        <ele>203</ele>
        <time>2026-03-26T08:28:17.000Z</time>
      </trkpt>
      <trkpt lat="48.73877" lon="1.77483">
        <ele>201.4</ele>
        <time>2026-03-26T08:28:18.000Z</time>
      </trkpt>
      <trkpt lat="48.73878" lon="1.77484">
        <ele>199.5</ele>
        <time>2026-03-26T08:28:19.000Z</time>
      </trkpt>
      <trkpt lat="48.73878" lon="1.77486">
        <ele>199.3</ele>
        <time>2026-03-26T08:28:20.000Z</time>
      </trkpt>
      <trkpt lat="48.73879" lon="1.77487">
        <ele>199.2</ele>
        <time>2026-03-26T08:28:21.000Z</time>
      </trkpt>
      <trkpt lat="48.73881" lon="1.77488">
        <ele>199.3</ele>
        <time>2026-03-26T08:28:22.000Z</time>
      </trkpt>
      <trkpt lat="48.73882" lon="1.77489">
        <ele>198.9</ele>
        <time>2026-03-26T08:28:23.000Z</time>
      </trkpt>
      <trkpt lat="48.73884" lon="1.77491">
        <ele>198.4</ele>
        <time>2026-03-26T08:28:24.000Z</time>
      </trkpt>
      <trkpt lat="48.73885" lon="1.77493">
        <ele>198.8</ele>
        <time>2026-03-26T08:28:25.000Z</time>
      </trkpt>
      <trkpt lat="48.73886" lon="1.77494">
        <ele>198.4</ele>
        <time>2026-03-26T08:28:26.000Z</time>
      </trkpt>
      <trkpt lat="48.73887" lon="1.77496">
        <ele>197.7</ele>
        <time>2026-03-26T08:28:27.000Z</time>
      </trkpt>
      <trkpt lat="48.73888" lon="1.77497">
        <ele>197.7</ele>
        <time>2026-03-26T08:28:28.000Z</time>
      </trkpt>
      <trkpt lat="48.7389" lon="1.77497">
        <ele>197.6</ele>
        <time>2026-03-26T08:28:29.000Z</time>
      </trkpt>
      <trkpt lat="48.73891" lon="1.77498">
        <ele>197.7</ele>
        <time>2026-03-26T08:28:30.000Z</time>
      </trkpt>
      <trkpt lat="48.73893" lon="1.77499">
        <ele>198</ele>
        <time>2026-03-26T08:28:31.000Z</time>
      </trkpt>
      <trkpt lat="48.73895" lon="1.775">
        <ele>199</ele>
        <time>2026-03-26T08:28:32.000Z</time>
      </trkpt>
      <trkpt lat="48.73897" lon="1.775">
        <ele>199.2</ele>
        <time>2026-03-26T08:28:33.000Z</time>
      </trkpt>
      <trkpt lat="48.73899" lon="1.77501">
        <ele>200.9</ele>
        <time>2026-03-26T08:28:34.000Z</time>
      </trkpt>
      <trkpt lat="48.73901" lon="1.77502">
        <ele>201.7</ele>
        <time>2026-03-26T08:28:35.000Z</time>
      </trkpt>
      <trkpt lat="48.73902" lon="1.77503">
        <ele>201.9</ele>
        <time>2026-03-26T08:28:36.000Z</time>
      </trkpt>
      <trkpt lat="48.73904" lon="1.77504">
        <ele>201.9</ele>
        <time>2026-03-26T08:28:37.000Z</time>
      </trkpt>
      <trkpt lat="48.73905" lon="1.77504">
        <ele>201.2</ele>
        <time>2026-03-26T08:28:38.000Z</time>
      </trkpt>
      <trkpt lat="48.73907" lon="1.77504">
        <ele>201.5</ele>
        <time>2026-03-26T08:28:39.000Z</time>
      </trkpt>
      <trkpt lat="48.73909" lon="1.77505">
        <ele>202.2</ele>
        <time>2026-03-26T08:28:40.000Z</time>
      </trkpt>
      <trkpt lat="48.73911" lon="1.77505">
        <ele>201.5</ele>
        <time>2026-03-26T08:28:41.000Z</time>
      </trkpt>
      <trkpt lat="48.73912" lon="1.77506">
        <ele>200.9</ele>
        <time>2026-03-26T08:28:42.000Z</time>
      </trkpt>
      <trkpt lat="48.73914" lon="1.77506">
        <ele>200.5</ele>
        <time>2026-03-26T08:28:43.000Z</time>
      </trkpt>
      <trkpt lat="48.73915" lon="1.77507">
        <ele>201.3</ele>
        <time>2026-03-26T08:28:44.000Z</time>
      </trkpt>
      <trkpt lat="48.73917" lon="1.77508">
        <ele>201.4</ele>
        <time>2026-03-26T08:28:45.000Z</time>
      </trkpt>
      <trkpt lat="48.73918" lon="1.77509">
        <ele>202.5</ele>
        <time>2026-03-26T08:28:46.000Z</time>
      </trkpt>
      <trkpt lat="48.73919" lon="1.77509">
        <ele>203.1</ele>
        <time>2026-03-26T08:28:47.000Z</time>
      </trkpt>
      <trkpt lat="48.7392" lon="1.7751">
        <ele>203.7</ele>
        <time>2026-03-26T08:28:48.000Z</time>
      </trkpt>
      <trkpt lat="48.73922" lon="1.77511">
        <ele>204</ele>
        <time>2026-03-26T08:28:49.000Z</time>
      </trkpt>
      <trkpt lat="48.73923" lon="1.77512">
        <ele>205</ele>
        <time>2026-03-26T08:28:50.000Z</time>
      </trkpt>
      <trkpt lat="48.73924" lon="1.77513">
        <ele>205.2</ele>
        <time>2026-03-26T08:28:51.000Z</time>
      </trkpt>
      <trkpt lat="48.73925" lon="1.77514">
        <ele>204.8</ele>
        <time>2026-03-26T08:28:52.000Z</time>
      </trkpt>
      <trkpt lat="48.73926" lon="1.77514">
        <ele>204.8</ele>
        <time>2026-03-26T08:28:53.000Z</time>
      </trkpt>
      <trkpt lat="48.73927" lon="1.77515">
        <ele>204.5</ele>
        <time>2026-03-26T08:28:54.000Z</time>
      </trkpt>
      <trkpt lat="48.73928" lon="1.77516">
        <ele>204.7</ele>
        <time>2026-03-26T08:28:55.000Z</time>
      </trkpt>
      <trkpt lat="48.73929" lon="1.77516">
        <ele>204.9</ele>
        <time>2026-03-26T08:28:56.000Z</time>
      </trkpt>
      <trkpt lat="48.73931" lon="1.77516">
        <ele>205.1</ele>
        <time>2026-03-26T08:28:57.000Z</time>
      </trkpt>
      <trkpt lat="48.73932" lon="1.77516">
        <ele>204.6</ele>
        <time>2026-03-26T08:28:58.000Z</time>
      </trkpt>
      <trkpt lat="48.73933" lon="1.77515">
        <ele>203.4</ele>
        <time>2026-03-26T08:28:59.000Z</time>
      </trkpt>
      <trkpt lat="48.73935" lon="1.77514">
        <ele>203.1</ele>
        <time>2026-03-26T08:29:00.000Z</time>
      </trkpt>
      <trkpt lat="48.73936" lon="1.77514">
        <ele>202.8</ele>
        <time>2026-03-26T08:29:01.000Z</time>
      </trkpt>
      <trkpt lat="48.73938" lon="1.77513">
        <ele>202.8</ele>
        <time>2026-03-26T08:29:02.000Z</time>
      </trkpt>
      <trkpt lat="48.73939" lon="1.77512">
        <ele>203.1</ele>
        <time>2026-03-26T08:29:03.000Z</time>
      </trkpt>
      <trkpt lat="48.73941" lon="1.77512">
        <ele>203.8</ele>
        <time>2026-03-26T08:29:04.000Z</time>
      </trkpt>
      <trkpt lat="48.73942" lon="1.77511">
        <ele>203.6</ele>
        <time>2026-03-26T08:29:05.000Z</time>
      </trkpt>
      <trkpt lat="48.73944" lon="1.77511">
        <ele>204.3</ele>
        <time>2026-03-26T08:29:06.000Z</time>
      </trkpt>
      <trkpt lat="48.73945" lon="1.77512">
        <ele>205.2</ele>
        <time>2026-03-26T08:29:07.000Z</time>
      </trkpt>
      <trkpt lat="48.73946" lon="1.77512">
        <ele>204.5</ele>
        <time>2026-03-26T08:29:08.000Z</time>
      </trkpt>
      <trkpt lat="48.73948" lon="1.77513">
        <ele>204</ele>
        <time>2026-03-26T08:29:09.000Z</time>
      </trkpt>
      <trkpt lat="48.73949" lon="1.77514">
        <ele>203.5</ele>
        <time>2026-03-26T08:29:10.000Z</time>
      </trkpt>
      <trkpt lat="48.73951" lon="1.77515">
        <ele>203</ele>
        <time>2026-03-26T08:29:11.000Z</time>
      </trkpt>
      <trkpt lat="48.73952" lon="1.77515">
        <ele>202.4</ele>
        <time>2026-03-26T08:29:12.000Z</time>
      </trkpt>
      <trkpt lat="48.73953" lon="1.77516">
        <ele>201.9</ele>
        <time>2026-03-26T08:29:13.000Z</time>
      </trkpt>
      <trkpt lat="48.73955" lon="1.77516">
        <ele>200.9</ele>
        <time>2026-03-26T08:29:14.000Z</time>
      </trkpt>
      <trkpt lat="48.73956" lon="1.77517">
        <ele>201.9</ele>
        <time>2026-03-26T08:29:15.000Z</time>
      </trkpt>
      <trkpt lat="48.73957" lon="1.77518">
        <ele>201.8</ele>
        <time>2026-03-26T08:29:16.000Z</time>
      </trkpt>
      <trkpt lat="48.73959" lon="1.77519">
        <ele>202.5</ele>
        <time>2026-03-26T08:29:17.000Z</time>
      </trkpt>
      <trkpt lat="48.7396" lon="1.77519">
        <ele>203.6</ele>
        <time>2026-03-26T08:29:18.000Z</time>
      </trkpt>
      <trkpt lat="48.73961" lon="1.7752">
        <ele>203.7</ele>
        <time>2026-03-26T08:29:19.000Z</time>
      </trkpt>
      <trkpt lat="48.73963" lon="1.77521">
        <ele>203.1</ele>
        <time>2026-03-26T08:29:20.000Z</time>
      </trkpt>
      <trkpt lat="48.73964" lon="1.77521">
        <ele>203.2</ele>
        <time>2026-03-26T08:29:21.000Z</time>
      </trkpt>
      <trkpt lat="48.73965" lon="1.77521">
        <ele>203.2</ele>
        <time>2026-03-26T08:29:22.000Z</time>
      </trkpt>
      <trkpt lat="48.73967" lon="1.77522">
        <ele>203.1</ele>
        <time>2026-03-26T08:29:23.000Z</time>
      </trkpt>
      <trkpt lat="48.73968" lon="1.77522">
        <ele>203.1</ele>
        <time>2026-03-26T08:29:24.000Z</time>
      </trkpt>
      <trkpt lat="48.73969" lon="1.77522">
        <ele>203.8</ele>
        <time>2026-03-26T08:29:25.000Z</time>
      </trkpt>
      <trkpt lat="48.73971" lon="1.77522">
        <ele>203.5</ele>
        <time>2026-03-26T08:29:26.000Z</time>
      </trkpt>
      <trkpt lat="48.73972" lon="1.77523">
        <ele>203.4</ele>
        <time>2026-03-26T08:29:27.000Z</time>
      </trkpt>
      <trkpt lat="48.73974" lon="1.77523">
        <ele>204.1</ele>
        <time>2026-03-26T08:29:28.000Z</time>
      </trkpt>
      <trkpt lat="48.73975" lon="1.77524">
        <ele>204.1</ele>
        <time>2026-03-26T08:29:29.000Z</time>
      </trkpt>
      <trkpt lat="48.73976" lon="1.77524">
        <ele>204.2</ele>
        <time>2026-03-26T08:29:30.000Z</time>
      </trkpt>
      <trkpt lat="48.73977" lon="1.77524">
        <ele>205.9</ele>
        <time>2026-03-26T08:29:31.000Z</time>
      </trkpt>
      <trkpt lat="48.73979" lon="1.77524">
        <ele>204.6</ele>
        <time>2026-03-26T08:29:32.000Z</time>
      </trkpt>
      <trkpt lat="48.7398" lon="1.77523">
        <ele>205.2</ele>
        <time>2026-03-26T08:29:33.000Z</time>
      </trkpt>
      <trkpt lat="48.73981" lon="1.77523">
        <ele>205.2</ele>
        <time>2026-03-26T08:29:34.000Z</time>
      </trkpt>
      <trkpt lat="48.73983" lon="1.77524">
        <ele>204.6</ele>
        <time>2026-03-26T08:29:35.000Z</time>
      </trkpt>
      <trkpt lat="48.73984" lon="1.77524">
        <ele>204.6</ele>
        <time>2026-03-26T08:29:36.000Z</time>
      </trkpt>
      <trkpt lat="48.73986" lon="1.77524">
        <ele>204.1</ele>
        <time>2026-03-26T08:29:37.000Z</time>
      </trkpt>
      <trkpt lat="48.73987" lon="1.77524">
        <ele>204.4</ele>
        <time>2026-03-26T08:29:38.000Z</time>
      </trkpt>
      <trkpt lat="48.73988" lon="1.77524">
        <ele>204.7</ele>
        <time>2026-03-26T08:29:39.000Z</time>
      </trkpt>
      <trkpt lat="48.7399" lon="1.77524">
        <ele>204.1</ele>
        <time>2026-03-26T08:29:40.000Z</time>
      </trkpt>
      <trkpt lat="48.73991" lon="1.77524">
        <ele>203.3</ele>
        <time>2026-03-26T08:29:41.000Z</time>
      </trkpt>
      <trkpt lat="48.73993" lon="1.77524">
        <ele>203</ele>
        <time>2026-03-26T08:29:42.000Z</time>
      </trkpt>
      <trkpt lat="48.73994" lon="1.77524">
        <ele>202.5</ele>
        <time>2026-03-26T08:29:43.000Z</time>
      </trkpt>
      <trkpt lat="48.73995" lon="1.77524">
        <ele>203</ele>
        <time>2026-03-26T08:29:44.000Z</time>
      </trkpt>
      <trkpt lat="48.73997" lon="1.77524">
        <ele>203.5</ele>
        <time>2026-03-26T08:29:45.000Z</time>
      </trkpt>
      <trkpt lat="48.73998" lon="1.77524">
        <ele>203.6</ele>
        <time>2026-03-26T08:29:46.000Z</time>
      </trkpt>
      <trkpt lat="48.74" lon="1.77524">
        <ele>203.9</ele>
        <time>2026-03-26T08:29:47.000Z</time>
      </trkpt>
      <trkpt lat="48.74001" lon="1.77524">
        <ele>203.9</ele>
        <time>2026-03-26T08:29:48.000Z</time>
      </trkpt>
      <trkpt lat="48.74003" lon="1.77523">
        <ele>204.2</ele>
        <time>2026-03-26T08:29:49.000Z</time>
      </trkpt>
      <trkpt lat="48.74004" lon="1.77522">
        <ele>204</ele>
        <time>2026-03-26T08:29:50.000Z</time>
      </trkpt>
      <trkpt lat="48.74005" lon="1.77522">
        <ele>203.9</ele>
        <time>2026-03-26T08:29:51.000Z</time>
      </trkpt>
      <trkpt lat="48.74007" lon="1.77522">
        <ele>203.6</ele>
        <time>2026-03-26T08:29:52.000Z</time>
      </trkpt>
      <trkpt lat="48.74008" lon="1.77522">
        <ele>203.4</ele>
        <time>2026-03-26T08:29:53.000Z</time>
      </trkpt>
      <trkpt lat="48.7401" lon="1.77522">
        <ele>204</ele>
        <time>2026-03-26T08:29:54.000Z</time>
      </trkpt>
      <trkpt lat="48.74011" lon="1.77522">
        <ele>203.9</ele>
        <time>2026-03-26T08:29:55.000Z</time>
      </trkpt>
      <trkpt lat="48.74012" lon="1.77522">
        <ele>203.8</ele>
        <time>2026-03-26T08:29:56.000Z</time>
      </trkpt>
      <trkpt lat="48.74014" lon="1.77522">
        <ele>204.3</ele>
        <time>2026-03-26T08:29:57.000Z</time>
      </trkpt>
      <trkpt lat="48.74015" lon="1.77522">
        <ele>204.9</ele>
        <time>2026-03-26T08:29:58.000Z</time>
      </trkpt>
      <trkpt lat="48.74016" lon="1.77522">
        <ele>205.3</ele>
        <time>2026-03-26T08:29:59.000Z</time>
      </trkpt>
      <trkpt lat="48.74018" lon="1.77521">
        <ele>205.7</ele>
        <time>2026-03-26T08:30:00.000Z</time>
      </trkpt>
      <trkpt lat="48.74019" lon="1.77521">
        <ele>205.5</ele>
        <time>2026-03-26T08:30:01.000Z</time>
      </trkpt>
      <trkpt lat="48.7402" lon="1.77521">
        <ele>205.4</ele>
        <time>2026-03-26T08:30:02.000Z</time>
      </trkpt>
      <trkpt lat="48.74022" lon="1.77521">
        <ele>205</ele>
        <time>2026-03-26T08:30:03.000Z</time>
      </trkpt>
      <trkpt lat="48.74023" lon="1.7752">
        <ele>204.4</ele>
        <time>2026-03-26T08:30:04.000Z</time>
      </trkpt>
      <trkpt lat="48.74024" lon="1.7752">
        <ele>204.2</ele>
        <time>2026-03-26T08:30:05.000Z</time>
      </trkpt>
      <trkpt lat="48.74025" lon="1.77519">
        <ele>203.7</ele>
        <time>2026-03-26T08:30:06.000Z</time>
      </trkpt>
      <trkpt lat="48.74027" lon="1.77519">
        <ele>203.7</ele>
        <time>2026-03-26T08:30:07.000Z</time>
      </trkpt>
      <trkpt lat="48.74028" lon="1.77519">
        <ele>203</ele>
        <time>2026-03-26T08:30:08.000Z</time>
      </trkpt>
      <trkpt lat="48.74029" lon="1.77519">
        <ele>203.4</ele>
        <time>2026-03-26T08:30:09.000Z</time>
      </trkpt>
      <trkpt lat="48.7403" lon="1.77518">
        <ele>203</ele>
        <time>2026-03-26T08:30:10.000Z</time>
      </trkpt>
      <trkpt lat="48.74032" lon="1.77518">
        <ele>202.8</ele>
        <time>2026-03-26T08:30:11.000Z</time>
      </trkpt>
      <trkpt lat="48.74033" lon="1.77518">
        <ele>202.9</ele>
        <time>2026-03-26T08:30:12.000Z</time>
      </trkpt>
      <trkpt lat="48.74034" lon="1.77517">
        <ele>202</ele>
        <time>2026-03-26T08:30:13.000Z</time>
      </trkpt>
      <trkpt lat="48.74036" lon="1.77517">
        <ele>202.8</ele>
        <time>2026-03-26T08:30:14.000Z</time>
      </trkpt>
      <trkpt lat="48.74037" lon="1.77515">
        <ele>203.5</ele>
        <time>2026-03-26T08:30:15.000Z</time>
      </trkpt>
      <trkpt lat="48.74039" lon="1.77515">
        <ele>203.3</ele>
        <time>2026-03-26T08:30:16.000Z</time>
      </trkpt>
      <trkpt lat="48.7404" lon="1.77515">
        <ele>204</ele>
        <time>2026-03-26T08:30:17.000Z</time>
      </trkpt>
      <trkpt lat="48.74041" lon="1.77514">
        <ele>204.2</ele>
        <time>2026-03-26T08:30:18.000Z</time>
      </trkpt>
      <trkpt lat="48.74043" lon="1.77514">
        <ele>204.9</ele>
        <time>2026-03-26T08:30:19.000Z</time>
      </trkpt>
      <trkpt lat="48.74044" lon="1.77513">
        <ele>205.2</ele>
        <time>2026-03-26T08:30:20.000Z</time>
      </trkpt>
      <trkpt lat="48.74046" lon="1.77513">
        <ele>205</ele>
        <time>2026-03-26T08:30:21.000Z</time>
      </trkpt>
      <trkpt lat="48.74047" lon="1.77513">
        <ele>205.3</ele>
        <time>2026-03-26T08:30:22.000Z</time>
      </trkpt>
      <trkpt lat="48.74048" lon="1.77513">
        <ele>204.9</ele>
        <time>2026-03-26T08:30:23.000Z</time>
      </trkpt>
      <trkpt lat="48.7405" lon="1.77513">
        <ele>205.1</ele>
        <time>2026-03-26T08:30:24.000Z</time>
      </trkpt>
      <trkpt lat="48.74051" lon="1.77512">
        <ele>205.2</ele>
        <time>2026-03-26T08:30:25.000Z</time>
      </trkpt>
      <trkpt lat="48.74053" lon="1.77511">
        <ele>205.1</ele>
        <time>2026-03-26T08:30:26.000Z</time>
      </trkpt>
      <trkpt lat="48.74054" lon="1.77511">
        <ele>204.8</ele>
        <time>2026-03-26T08:30:27.000Z</time>
      </trkpt>
      <trkpt lat="48.74055" lon="1.7751">
        <ele>204.9</ele>
        <time>2026-03-26T08:30:28.000Z</time>
      </trkpt>
      <trkpt lat="48.74057" lon="1.77509">
        <ele>205</ele>
        <time>2026-03-26T08:30:29.000Z</time>
      </trkpt>
      <trkpt lat="48.74058" lon="1.77509">
        <ele>205.3</ele>
        <time>2026-03-26T08:30:30.000Z</time>
      </trkpt>
      <trkpt lat="48.7406" lon="1.77508">
        <ele>205.4</ele>
        <time>2026-03-26T08:30:31.000Z</time>
      </trkpt>
      <trkpt lat="48.74061" lon="1.77507">
        <ele>205.4</ele>
        <time>2026-03-26T08:30:32.000Z</time>
      </trkpt>
      <trkpt lat="48.74062" lon="1.77506">
        <ele>204.4</ele>
        <time>2026-03-26T08:30:33.000Z</time>
      </trkpt>
      <trkpt lat="48.74063" lon="1.77505">
        <ele>204.7</ele>
        <time>2026-03-26T08:30:34.000Z</time>
      </trkpt>
      <trkpt lat="48.74064" lon="1.77503">
        <ele>204.9</ele>
        <time>2026-03-26T08:30:35.000Z</time>
      </trkpt>
      <trkpt lat="48.74065" lon="1.77501">
        <ele>205.8</ele>
        <time>2026-03-26T08:30:36.000Z</time>
      </trkpt>
      <trkpt lat="48.74065" lon="1.775">
        <ele>206.1</ele>
        <time>2026-03-26T08:30:37.000Z</time>
      </trkpt>
      <trkpt lat="48.74066" lon="1.77499">
        <ele>206.2</ele>
        <time>2026-03-26T08:30:38.000Z</time>
      </trkpt>
      <trkpt lat="48.74067" lon="1.77498">
        <ele>206</ele>
        <time>2026-03-26T08:30:39.000Z</time>
      </trkpt>
      <trkpt lat="48.74068" lon="1.77496">
        <ele>205.5</ele>
        <time>2026-03-26T08:30:40.000Z</time>
      </trkpt>
      <trkpt lat="48.74069" lon="1.77495">
        <ele>205.3</ele>
        <time>2026-03-26T08:30:41.000Z</time>
      </trkpt>
      <trkpt lat="48.7407" lon="1.77494">
        <ele>205.2</ele>
        <time>2026-03-26T08:30:42.000Z</time>
      </trkpt>
      <trkpt lat="48.7407" lon="1.77492">
        <ele>205.9</ele>
        <time>2026-03-26T08:30:43.000Z</time>
      </trkpt>
      <trkpt lat="48.74071" lon="1.77491">
        <ele>205.8</ele>
        <time>2026-03-26T08:30:44.000Z</time>
      </trkpt>
      <trkpt lat="48.74071" lon="1.77489">
        <ele>206</ele>
        <time>2026-03-26T08:30:45.000Z</time>
      </trkpt>
      <trkpt lat="48.74072" lon="1.77487">
        <ele>206.5</ele>
        <time>2026-03-26T08:30:46.000Z</time>
      </trkpt>
      <trkpt lat="48.74073" lon="1.77485">
        <ele>206.4</ele>
        <time>2026-03-26T08:30:47.000Z</time>
      </trkpt>
      <trkpt lat="48.74073" lon="1.77484">
        <ele>206.2</ele>
        <time>2026-03-26T08:30:48.000Z</time>
      </trkpt>
      <trkpt lat="48.74074" lon="1.77482">
        <ele>206</ele>
        <time>2026-03-26T08:30:49.000Z</time>
      </trkpt>
      <trkpt lat="48.74075" lon="1.77481">
        <ele>205.8</ele>
        <time>2026-03-26T08:30:50.000Z</time>
      </trkpt>
      <trkpt lat="48.74076" lon="1.77479">
        <ele>205.8</ele>
        <time>2026-03-26T08:30:51.000Z</time>
      </trkpt>
      <trkpt lat="48.74076" lon="1.77478">
        <ele>205.7</ele>
        <time>2026-03-26T08:30:52.000Z</time>
      </trkpt>
      <trkpt lat="48.74077" lon="1.77476">
        <ele>206</ele>
        <time>2026-03-26T08:30:53.000Z</time>
      </trkpt>
      <trkpt lat="48.74078" lon="1.77474">
        <ele>206</ele>
        <time>2026-03-26T08:30:54.000Z</time>
      </trkpt>
      <trkpt lat="48.74079" lon="1.77472">
        <ele>206.2</ele>
        <time>2026-03-26T08:30:55.000Z</time>
      </trkpt>
      <trkpt lat="48.74079" lon="1.77471">
        <ele>206.1</ele>
        <time>2026-03-26T08:30:56.000Z</time>
      </trkpt>
      <trkpt lat="48.7408" lon="1.77469">
        <ele>206.2</ele>
        <time>2026-03-26T08:30:57.000Z</time>
      </trkpt>
      <trkpt lat="48.74081" lon="1.77468">
        <ele>206.3</ele>
        <time>2026-03-26T08:30:58.000Z</time>
      </trkpt>
      <trkpt lat="48.74082" lon="1.77466">
        <ele>206.3</ele>
        <time>2026-03-26T08:30:59.000Z</time>
      </trkpt>
      <trkpt lat="48.74083" lon="1.77465">
        <ele>206.2</ele>
        <time>2026-03-26T08:31:00.000Z</time>
      </trkpt>
      <trkpt lat="48.74083" lon="1.77463">
        <ele>206.6</ele>
        <time>2026-03-26T08:31:01.000Z</time>
      </trkpt>
      <trkpt lat="48.74084" lon="1.77462">
        <ele>206.5</ele>
        <time>2026-03-26T08:31:02.000Z</time>
      </trkpt>
      <trkpt lat="48.74085" lon="1.7746">
        <ele>206.3</ele>
        <time>2026-03-26T08:31:03.000Z</time>
      </trkpt>
      <trkpt lat="48.74085" lon="1.77459">
        <ele>206.3</ele>
        <time>2026-03-26T08:31:04.000Z</time>
      </trkpt>
      <trkpt lat="48.74086" lon="1.77457">
        <ele>206.2</ele>
        <time>2026-03-26T08:31:05.000Z</time>
      </trkpt>
      <trkpt lat="48.74087" lon="1.77456">
        <ele>206.2</ele>
        <time>2026-03-26T08:31:06.000Z</time>
      </trkpt>
      <trkpt lat="48.74088" lon="1.77455">
        <ele>206.3</ele>
        <time>2026-03-26T08:31:07.000Z</time>
      </trkpt>
      <trkpt lat="48.74089" lon="1.77454">
        <ele>206.1</ele>
        <time>2026-03-26T08:31:08.000Z</time>
      </trkpt>
      <trkpt lat="48.7409" lon="1.77453">
        <ele>205.4</ele>
        <time>2026-03-26T08:31:09.000Z</time>
      </trkpt>
      <trkpt lat="48.7409" lon="1.77452">
        <ele>205.5</ele>
        <time>2026-03-26T08:31:10.000Z</time>
      </trkpt>
      <trkpt lat="48.74091" lon="1.7745">
        <ele>205.4</ele>
        <time>2026-03-26T08:31:11.000Z</time>
      </trkpt>
      <trkpt lat="48.74092" lon="1.77449">
        <ele>205.3</ele>
        <time>2026-03-26T08:31:12.000Z</time>
      </trkpt>
      <trkpt lat="48.74092" lon="1.77447">
        <ele>205.6</ele>
        <time>2026-03-26T08:31:13.000Z</time>
      </trkpt>
      <trkpt lat="48.74093" lon="1.77446">
        <ele>206</ele>
        <time>2026-03-26T08:31:14.000Z</time>
      </trkpt>
      <trkpt lat="48.74094" lon="1.77444">
        <ele>206.4</ele>
        <time>2026-03-26T08:31:15.000Z</time>
      </trkpt>
      <trkpt lat="48.74094" lon="1.77443">
        <ele>205.7</ele>
        <time>2026-03-26T08:31:16.000Z</time>
      </trkpt>
      <trkpt lat="48.74095" lon="1.77441">
        <ele>206.1</ele>
        <time>2026-03-26T08:31:17.000Z</time>
      </trkpt>
      <trkpt lat="48.74095" lon="1.77439">
        <ele>206.1</ele>
        <time>2026-03-26T08:31:18.000Z</time>
      </trkpt>
      <trkpt lat="48.74096" lon="1.77438">
        <ele>206</ele>
        <time>2026-03-26T08:31:19.000Z</time>
      </trkpt>
      <trkpt lat="48.74097" lon="1.77436">
        <ele>206</ele>
        <time>2026-03-26T08:31:20.000Z</time>
      </trkpt>
      <trkpt lat="48.74097" lon="1.77435">
        <ele>206</ele>
        <time>2026-03-26T08:31:21.000Z</time>
      </trkpt>
      <trkpt lat="48.74098" lon="1.77433">
        <ele>205.7</ele>
        <time>2026-03-26T08:31:22.000Z</time>
      </trkpt>
      <trkpt lat="48.74098" lon="1.77431">
        <ele>205.9</ele>
        <time>2026-03-26T08:31:23.000Z</time>
      </trkpt>
      <trkpt lat="48.74098" lon="1.77429">
        <ele>206.5</ele>
        <time>2026-03-26T08:31:24.000Z</time>
      </trkpt>
      <trkpt lat="48.74099" lon="1.77428">
        <ele>205.9</ele>
        <time>2026-03-26T08:31:25.000Z</time>
      </trkpt>
      <trkpt lat="48.74099" lon="1.77426">
        <ele>205.1</ele>
        <time>2026-03-26T08:31:26.000Z</time>
      </trkpt>
      <trkpt lat="48.741" lon="1.77424">
        <ele>205.9</ele>
        <time>2026-03-26T08:31:27.000Z</time>
      </trkpt>
      <trkpt lat="48.741" lon="1.77422">
        <ele>206.5</ele>
        <time>2026-03-26T08:31:28.000Z</time>
      </trkpt>
      <trkpt lat="48.741" lon="1.7742">
        <ele>206.8</ele>
        <time>2026-03-26T08:31:29.000Z</time>
      </trkpt>
      <trkpt lat="48.74101" lon="1.77419">
        <ele>206.9</ele>
        <time>2026-03-26T08:31:30.000Z</time>
      </trkpt>
      <trkpt lat="48.74101" lon="1.77417">
        <ele>207</ele>
        <time>2026-03-26T08:31:31.000Z</time>
      </trkpt>
      <trkpt lat="48.74102" lon="1.77415">
        <ele>206.6</ele>
        <time>2026-03-26T08:31:32.000Z</time>
      </trkpt>
      <trkpt lat="48.74102" lon="1.77413">
        <ele>206.9</ele>
        <time>2026-03-26T08:31:33.000Z</time>
      </trkpt>
      <trkpt lat="48.74102" lon="1.77412">
        <ele>206.9</ele>
        <time>2026-03-26T08:31:34.000Z</time>
      </trkpt>
      <trkpt lat="48.74103" lon="1.7741">
        <ele>206.9</ele>
        <time>2026-03-26T08:31:35.000Z</time>
      </trkpt>
      <trkpt lat="48.74104" lon="1.77408">
        <ele>207.1</ele>
        <time>2026-03-26T08:31:36.000Z</time>
      </trkpt>
      <trkpt lat="48.74104" lon="1.77407">
        <ele>206.9</ele>
        <time>2026-03-26T08:31:37.000Z</time>
      </trkpt>
      <trkpt lat="48.74104" lon="1.77405">
        <ele>206.9</ele>
        <time>2026-03-26T08:31:38.000Z</time>
      </trkpt>
      <trkpt lat="48.74105" lon="1.77403">
        <ele>207.2</ele>
        <time>2026-03-26T08:31:39.000Z</time>
      </trkpt>
      <trkpt lat="48.74105" lon="1.77401">
        <ele>207.6</ele>
        <time>2026-03-26T08:31:40.000Z</time>
      </trkpt>
      <trkpt lat="48.74105" lon="1.77399">
        <ele>207.7</ele>
        <time>2026-03-26T08:31:41.000Z</time>
      </trkpt>
      <trkpt lat="48.74105" lon="1.77398">
        <ele>207.8</ele>
        <time>2026-03-26T08:31:42.000Z</time>
      </trkpt>
      <trkpt lat="48.74105" lon="1.77396">
        <ele>207.7</ele>
        <time>2026-03-26T08:31:43.000Z</time>
      </trkpt>
      <trkpt lat="48.74106" lon="1.77394">
        <ele>207.8</ele>
        <time>2026-03-26T08:31:44.000Z</time>
      </trkpt>
      <trkpt lat="48.74106" lon="1.77393">
        <ele>207.7</ele>
        <time>2026-03-26T08:31:45.000Z</time>
      </trkpt>
      <trkpt lat="48.74107" lon="1.77391">
        <ele>208.6</ele>
        <time>2026-03-26T08:31:46.000Z</time>
      </trkpt>
      <trkpt lat="48.74107" lon="1.77389">
        <ele>208.7</ele>
        <time>2026-03-26T08:31:47.000Z</time>
      </trkpt>
      <trkpt lat="48.74107" lon="1.77387">
        <ele>209.5</ele>
        <time>2026-03-26T08:31:48.000Z</time>
      </trkpt>
      <trkpt lat="48.74108" lon="1.77385">
        <ele>210.2</ele>
        <time>2026-03-26T08:31:49.000Z</time>
      </trkpt>
      <trkpt lat="48.74108" lon="1.77383">
        <ele>210.2</ele>
        <time>2026-03-26T08:31:50.000Z</time>
      </trkpt>
      <trkpt lat="48.74109" lon="1.77381">
        <ele>210.2</ele>
        <time>2026-03-26T08:31:51.000Z</time>
      </trkpt>
      <trkpt lat="48.74109" lon="1.77379">
        <ele>210.5</ele>
        <time>2026-03-26T08:31:52.000Z</time>
      </trkpt>
      <trkpt lat="48.74109" lon="1.77377">
        <ele>210.2</ele>
        <time>2026-03-26T08:31:53.000Z</time>
      </trkpt>
      <trkpt lat="48.7411" lon="1.77375">
        <ele>210</ele>
        <time>2026-03-26T08:31:54.000Z</time>
      </trkpt>
      <trkpt lat="48.74111" lon="1.77374">
        <ele>209.9</ele>
        <time>2026-03-26T08:31:55.000Z</time>
      </trkpt>
      <trkpt lat="48.74111" lon="1.77372">
        <ele>210</ele>
        <time>2026-03-26T08:31:56.000Z</time>
      </trkpt>
      <trkpt lat="48.74112" lon="1.77371">
        <ele>209.7</ele>
        <time>2026-03-26T08:31:57.000Z</time>
      </trkpt>
      <trkpt lat="48.74112" lon="1.77369">
        <ele>209.5</ele>
        <time>2026-03-26T08:31:58.000Z</time>
      </trkpt>
      <trkpt lat="48.74113" lon="1.77368">
        <ele>209.6</ele>
        <time>2026-03-26T08:31:59.000Z</time>
      </trkpt>
      <trkpt lat="48.74113" lon="1.77366">
        <ele>210.6</ele>
        <time>2026-03-26T08:32:00.000Z</time>
      </trkpt>
      <trkpt lat="48.74114" lon="1.77364">
        <ele>210.3</ele>
        <time>2026-03-26T08:32:01.000Z</time>
      </trkpt>
      <trkpt lat="48.74115" lon="1.77362">
        <ele>211</ele>
        <time>2026-03-26T08:32:02.000Z</time>
      </trkpt>
      <trkpt lat="48.74115" lon="1.7736">
        <ele>210.6</ele>
        <time>2026-03-26T08:32:03.000Z</time>
      </trkpt>
      <trkpt lat="48.74116" lon="1.77358">
        <ele>210.7</ele>
        <time>2026-03-26T08:32:04.000Z</time>
      </trkpt>
      <trkpt lat="48.74116" lon="1.77357">
        <ele>210.7</ele>
        <time>2026-03-26T08:32:05.000Z</time>
      </trkpt>
      <trkpt lat="48.74117" lon="1.77354">
        <ele>211.3</ele>
        <time>2026-03-26T08:32:06.000Z</time>
      </trkpt>
      <trkpt lat="48.74117" lon="1.77353">
        <ele>211.3</ele>
        <time>2026-03-26T08:32:07.000Z</time>
      </trkpt>
      <trkpt lat="48.74118" lon="1.77351">
        <ele>211.1</ele>
        <time>2026-03-26T08:32:08.000Z</time>
      </trkpt>
      <trkpt lat="48.74119" lon="1.7735">
        <ele>210.8</ele>
        <time>2026-03-26T08:32:09.000Z</time>
      </trkpt>
      <trkpt lat="48.7412" lon="1.77349">
        <ele>210.9</ele>
        <time>2026-03-26T08:32:10.000Z</time>
      </trkpt>
      <trkpt lat="48.74121" lon="1.77348">
        <ele>210.2</ele>
        <time>2026-03-26T08:32:11.000Z</time>
      </trkpt>
      <trkpt lat="48.74122" lon="1.77347">
        <ele>210.6</ele>
        <time>2026-03-26T08:32:12.000Z</time>
      </trkpt>
      <trkpt lat="48.74123" lon="1.77346">
        <ele>210.1</ele>
        <time>2026-03-26T08:32:13.000Z</time>
      </trkpt>
      <trkpt lat="48.74124" lon="1.77345">
        <ele>210.2</ele>
        <time>2026-03-26T08:32:14.000Z</time>
      </trkpt>
      <trkpt lat="48.74125" lon="1.77344">
        <ele>210.8</ele>
        <time>2026-03-26T08:32:15.000Z</time>
      </trkpt>
      <trkpt lat="48.74126" lon="1.77342">
        <ele>211.7</ele>
        <time>2026-03-26T08:32:16.000Z</time>
      </trkpt>
      <trkpt lat="48.74126" lon="1.7734">
        <ele>212.4</ele>
        <time>2026-03-26T08:32:17.000Z</time>
      </trkpt>
      <trkpt lat="48.74127" lon="1.77338">
        <ele>212.7</ele>
        <time>2026-03-26T08:32:18.000Z</time>
      </trkpt>
      <trkpt lat="48.74128" lon="1.77336">
        <ele>212.8</ele>
        <time>2026-03-26T08:32:19.000Z</time>
      </trkpt>
      <trkpt lat="48.74129" lon="1.77334">
        <ele>213.1</ele>
        <time>2026-03-26T08:32:20.000Z</time>
      </trkpt>
      <trkpt lat="48.7413" lon="1.77333">
        <ele>213.5</ele>
        <time>2026-03-26T08:32:21.000Z</time>
      </trkpt>
      <trkpt lat="48.74131" lon="1.77332">
        <ele>214.1</ele>
        <time>2026-03-26T08:32:22.000Z</time>
      </trkpt>
      <trkpt lat="48.74132" lon="1.77331">
        <ele>213.9</ele>
        <time>2026-03-26T08:32:23.000Z</time>
      </trkpt>
      <trkpt lat="48.74133" lon="1.77329">
        <ele>214.4</ele>
        <time>2026-03-26T08:32:24.000Z</time>
      </trkpt>
      <trkpt lat="48.74134" lon="1.77328">
        <ele>213.8</ele>
        <time>2026-03-26T08:32:25.000Z</time>
      </trkpt>
      <trkpt lat="48.74135" lon="1.77327">
        <ele>214.2</ele>
        <time>2026-03-26T08:32:26.000Z</time>
      </trkpt>
      <trkpt lat="48.74136" lon="1.77326">
        <ele>214.6</ele>
        <time>2026-03-26T08:32:27.000Z</time>
      </trkpt>
      <trkpt lat="48.74137" lon="1.77325">
        <ele>214.5</ele>
        <time>2026-03-26T08:32:28.000Z</time>
      </trkpt>
      <trkpt lat="48.74138" lon="1.77324">
        <ele>214.5</ele>
        <time>2026-03-26T08:32:29.000Z</time>
      </trkpt>
      <trkpt lat="48.74139" lon="1.77323">
        <ele>214.3</ele>
        <time>2026-03-26T08:32:30.000Z</time>
      </trkpt>
      <trkpt lat="48.7414" lon="1.77322">
        <ele>214.2</ele>
        <time>2026-03-26T08:32:31.000Z</time>
      </trkpt>
      <trkpt lat="48.74141" lon="1.77321">
        <ele>214</ele>
        <time>2026-03-26T08:32:32.000Z</time>
      </trkpt>
      <trkpt lat="48.74142" lon="1.7732">
        <ele>213.4</ele>
        <time>2026-03-26T08:32:33.000Z</time>
      </trkpt>
      <trkpt lat="48.74144" lon="1.77319">
        <ele>213.4</ele>
        <time>2026-03-26T08:32:34.000Z</time>
      </trkpt>
      <trkpt lat="48.74145" lon="1.77318">
        <ele>213.1</ele>
        <time>2026-03-26T08:32:35.000Z</time>
      </trkpt>
      <trkpt lat="48.74145" lon="1.77316">
        <ele>213.6</ele>
        <time>2026-03-26T08:32:36.000Z</time>
      </trkpt>
      <trkpt lat="48.74146" lon="1.77314">
        <ele>213.7</ele>
        <time>2026-03-26T08:32:37.000Z</time>
      </trkpt>
      <trkpt lat="48.74147" lon="1.77313">
        <ele>213.6</ele>
        <time>2026-03-26T08:32:38.000Z</time>
      </trkpt>
      <trkpt lat="48.74148" lon="1.77312">
        <ele>213.9</ele>
        <time>2026-03-26T08:32:39.000Z</time>
      </trkpt>
      <trkpt lat="48.74149" lon="1.77311">
        <ele>214.2</ele>
        <time>2026-03-26T08:32:40.000Z</time>
      </trkpt>
      <trkpt lat="48.7415" lon="1.7731">
        <ele>214</ele>
        <time>2026-03-26T08:32:41.000Z</time>
      </trkpt>
      <trkpt lat="48.74151" lon="1.77309">
        <ele>213.9</ele>
        <time>2026-03-26T08:32:42.000Z</time>
      </trkpt>
      <trkpt lat="48.74152" lon="1.77308">
        <ele>213.2</ele>
        <time>2026-03-26T08:32:43.000Z</time>
      </trkpt>
      <trkpt lat="48.74153" lon="1.77307">
        <ele>213.4</ele>
        <time>2026-03-26T08:32:44.000Z</time>
      </trkpt>
      <trkpt lat="48.74154" lon="1.77306">
        <ele>214</ele>
        <time>2026-03-26T08:32:45.000Z</time>
      </trkpt>
      <trkpt lat="48.74155" lon="1.77304">
        <ele>213.9</ele>
        <time>2026-03-26T08:32:46.000Z</time>
      </trkpt>
      <trkpt lat="48.74156" lon="1.77303">
        <ele>214</ele>
        <time>2026-03-26T08:32:47.000Z</time>
      </trkpt>
      <trkpt lat="48.74157" lon="1.77302">
        <ele>214.7</ele>
        <time>2026-03-26T08:32:48.000Z</time>
      </trkpt>
      <trkpt lat="48.74158" lon="1.773">
        <ele>215.4</ele>
        <time>2026-03-26T08:32:49.000Z</time>
      </trkpt>
      <trkpt lat="48.74159" lon="1.77299">
        <ele>215.8</ele>
        <time>2026-03-26T08:32:50.000Z</time>
      </trkpt>
      <trkpt lat="48.7416" lon="1.77297">
        <ele>216.7</ele>
        <time>2026-03-26T08:32:51.000Z</time>
      </trkpt>
      <trkpt lat="48.74161" lon="1.77297">
        <ele>216.9</ele>
        <time>2026-03-26T08:32:52.000Z</time>
      </trkpt>
      <trkpt lat="48.74162" lon="1.77296">
        <ele>216.7</ele>
        <time>2026-03-26T08:32:53.000Z</time>
      </trkpt>
      <trkpt lat="48.74163" lon="1.77295">
        <ele>216.9</ele>
        <time>2026-03-26T08:32:54.000Z</time>
      </trkpt>
      <trkpt lat="48.74164" lon="1.77295">
        <ele>216.5</ele>
        <time>2026-03-26T08:32:55.000Z</time>
      </trkpt>
      <trkpt lat="48.74165" lon="1.77294">
        <ele>216.6</ele>
        <time>2026-03-26T08:32:56.000Z</time>
      </trkpt>
      <trkpt lat="48.74166" lon="1.77294">
        <ele>216.6</ele>
        <time>2026-03-26T08:32:57.000Z</time>
      </trkpt>
      <trkpt lat="48.74167" lon="1.77294">
        <ele>217</ele>
        <time>2026-03-26T08:32:58.000Z</time>
      </trkpt>
      <trkpt lat="48.74169" lon="1.77293">
        <ele>218</ele>
        <time>2026-03-26T08:32:59.000Z</time>
      </trkpt>
      <trkpt lat="48.7417" lon="1.77293">
        <ele>218</ele>
        <time>2026-03-26T08:33:00.000Z</time>
      </trkpt>
      <trkpt lat="48.74171" lon="1.77293">
        <ele>219</ele>
        <time>2026-03-26T08:33:01.000Z</time>
      </trkpt>
      <trkpt lat="48.74172" lon="1.77293">
        <ele>219.7</ele>
        <time>2026-03-26T08:33:02.000Z</time>
      </trkpt>
      <trkpt lat="48.74174" lon="1.77293">
        <ele>220.7</ele>
        <time>2026-03-26T08:33:03.000Z</time>
      </trkpt>
      <trkpt lat="48.74175" lon="1.77294">
        <ele>220.8</ele>
        <time>2026-03-26T08:33:04.000Z</time>
      </trkpt>
      <trkpt lat="48.74176" lon="1.77294">
        <ele>219.5</ele>
        <time>2026-03-26T08:33:05.000Z</time>
      </trkpt>
      <trkpt lat="48.74177" lon="1.77294">
        <ele>219.3</ele>
        <time>2026-03-26T08:33:06.000Z</time>
      </trkpt>
      <trkpt lat="48.74178" lon="1.77295">
        <ele>219.9</ele>
        <time>2026-03-26T08:33:07.000Z</time>
      </trkpt>
      <trkpt lat="48.7418" lon="1.77295">
        <ele>220.2</ele>
        <time>2026-03-26T08:33:08.000Z</time>
      </trkpt>
      <trkpt lat="48.74181" lon="1.77296">
        <ele>220.4</ele>
        <time>2026-03-26T08:33:09.000Z</time>
      </trkpt>
      <trkpt lat="48.74182" lon="1.77297">
        <ele>219.9</ele>
        <time>2026-03-26T08:33:10.000Z</time>
      </trkpt>
      <trkpt lat="48.74183" lon="1.77298">
        <ele>220.8</ele>
        <time>2026-03-26T08:33:11.000Z</time>
      </trkpt>
      <trkpt lat="48.74184" lon="1.77299">
        <ele>221</ele>
        <time>2026-03-26T08:33:12.000Z</time>
      </trkpt>
      <trkpt lat="48.74185" lon="1.773">
        <ele>221.8</ele>
        <time>2026-03-26T08:33:13.000Z</time>
      </trkpt>
      <trkpt lat="48.74186" lon="1.77301">
        <ele>221.5</ele>
        <time>2026-03-26T08:33:14.000Z</time>
      </trkpt>
      <trkpt lat="48.74187" lon="1.77301">
        <ele>222.4</ele>
        <time>2026-03-26T08:33:15.000Z</time>
      </trkpt>
      <trkpt lat="48.74188" lon="1.77302">
        <ele>223.1</ele>
        <time>2026-03-26T08:33:16.000Z</time>
      </trkpt>
      <trkpt lat="48.74189" lon="1.77303">
        <ele>223.6</ele>
        <time>2026-03-26T08:33:17.000Z</time>
      </trkpt>
      <trkpt lat="48.74191" lon="1.77304">
        <ele>224.3</ele>
        <time>2026-03-26T08:33:18.000Z</time>
      </trkpt>
      <trkpt lat="48.74192" lon="1.77305">
        <ele>224.8</ele>
        <time>2026-03-26T08:33:19.000Z</time>
      </trkpt>
      <trkpt lat="48.74193" lon="1.77305">
        <ele>224.1</ele>
        <time>2026-03-26T08:33:20.000Z</time>
      </trkpt>
      <trkpt lat="48.74194" lon="1.77306">
        <ele>224.4</ele>
        <time>2026-03-26T08:33:21.000Z</time>
      </trkpt>
      <trkpt lat="48.74195" lon="1.77306">
        <ele>224.5</ele>
        <time>2026-03-26T08:33:22.000Z</time>
      </trkpt>
      <trkpt lat="48.74196" lon="1.77307">
        <ele>224.3</ele>
        <time>2026-03-26T08:33:23.000Z</time>
      </trkpt>
      <trkpt lat="48.74197" lon="1.77307">
        <ele>224.6</ele>
        <time>2026-03-26T08:33:24.000Z</time>
      </trkpt>
      <trkpt lat="48.74198" lon="1.77307">
        <ele>224</ele>
        <time>2026-03-26T08:33:25.000Z</time>
      </trkpt>
      <trkpt lat="48.742" lon="1.77308">
        <ele>223.8</ele>
        <time>2026-03-26T08:33:26.000Z</time>
      </trkpt>
      <trkpt lat="48.74201" lon="1.77308">
        <ele>224</ele>
        <time>2026-03-26T08:33:27.000Z</time>
      </trkpt>
      <trkpt lat="48.74202" lon="1.77309">
        <ele>223.7</ele>
        <time>2026-03-26T08:33:28.000Z</time>
      </trkpt>
      <trkpt lat="48.74203" lon="1.77309">
        <ele>223.6</ele>
        <time>2026-03-26T08:33:29.000Z</time>
      </trkpt>
      <trkpt lat="48.74204" lon="1.7731">
        <ele>223.5</ele>
        <time>2026-03-26T08:33:30.000Z</time>
      </trkpt>
      <trkpt lat="48.74205" lon="1.77309">
        <ele>224.1</ele>
        <time>2026-03-26T08:33:31.000Z</time>
      </trkpt>
      <trkpt lat="48.74207" lon="1.77308">
        <ele>223.5</ele>
        <time>2026-03-26T08:33:32.000Z</time>
      </trkpt>
      <trkpt lat="48.74208" lon="1.77308">
        <ele>223</ele>
        <time>2026-03-26T08:33:33.000Z</time>
      </trkpt>
      <trkpt lat="48.74209" lon="1.77307">
        <ele>223.8</ele>
        <time>2026-03-26T08:33:34.000Z</time>
      </trkpt>
      <trkpt lat="48.7421" lon="1.77307">
        <ele>223.9</ele>
        <time>2026-03-26T08:33:35.000Z</time>
      </trkpt>
      <trkpt lat="48.74211" lon="1.77307">
        <ele>224.3</ele>
        <time>2026-03-26T08:33:36.000Z</time>
      </trkpt>
      <trkpt lat="48.74212" lon="1.77306">
        <ele>223.3</ele>
        <time>2026-03-26T08:33:37.000Z</time>
      </trkpt>
      <trkpt lat="48.74213" lon="1.77306">
        <ele>222.9</ele>
        <time>2026-03-26T08:33:38.000Z</time>
      </trkpt>
      <trkpt lat="48.74214" lon="1.77306">
        <ele>223.5</ele>
        <time>2026-03-26T08:33:39.000Z</time>
      </trkpt>
      <trkpt lat="48.74215" lon="1.77305">
        <ele>223.8</ele>
        <time>2026-03-26T08:33:40.000Z</time>
      </trkpt>
      <trkpt lat="48.74216" lon="1.77305">
        <ele>223.2</ele>
        <time>2026-03-26T08:33:41.000Z</time>
      </trkpt>
      <trkpt lat="48.74217" lon="1.77304">
        <ele>223.3</ele>
        <time>2026-03-26T08:33:42.000Z</time>
      </trkpt>
      <trkpt lat="48.74218" lon="1.77303">
        <ele>223.5</ele>
        <time>2026-03-26T08:33:43.000Z</time>
      </trkpt>
      <trkpt lat="48.74219" lon="1.77302">
        <ele>223</ele>
        <time>2026-03-26T08:33:44.000Z</time>
      </trkpt>
      <trkpt lat="48.7422" lon="1.77301">
        <ele>223</ele>
        <time>2026-03-26T08:33:45.000Z</time>
      </trkpt>
      <trkpt lat="48.74221" lon="1.773">
        <ele>223</ele>
        <time>2026-03-26T08:33:46.000Z</time>
      </trkpt>
      <trkpt lat="48.74222" lon="1.77299">
        <ele>223.4</ele>
        <time>2026-03-26T08:33:47.000Z</time>
      </trkpt>
      <trkpt lat="48.74223" lon="1.77299">
        <ele>223.5</ele>
        <time>2026-03-26T08:33:48.000Z</time>
      </trkpt>
      <trkpt lat="48.74225" lon="1.77298">
        <ele>223.5</ele>
        <time>2026-03-26T08:33:49.000Z</time>
      </trkpt>
      <trkpt lat="48.74226" lon="1.77298">
        <ele>223.5</ele>
        <time>2026-03-26T08:33:50.000Z</time>
      </trkpt>
      <trkpt lat="48.74227" lon="1.77297">
        <ele>223.9</ele>
        <time>2026-03-26T08:33:51.000Z</time>
      </trkpt>
      <trkpt lat="48.74228" lon="1.77297">
        <ele>223.9</ele>
        <time>2026-03-26T08:33:52.000Z</time>
      </trkpt>
      <trkpt lat="48.74229" lon="1.77296">
        <ele>224.1</ele>
        <time>2026-03-26T08:33:53.000Z</time>
      </trkpt>
      <trkpt lat="48.7423" lon="1.77295">
        <ele>224.2</ele>
        <time>2026-03-26T08:33:54.000Z</time>
      </trkpt>
      <trkpt lat="48.74231" lon="1.77294">
        <ele>223.9</ele>
        <time>2026-03-26T08:33:55.000Z</time>
      </trkpt>
      <trkpt lat="48.74232" lon="1.77294">
        <ele>223.9</ele>
        <time>2026-03-26T08:33:56.000Z</time>
      </trkpt>
      <trkpt lat="48.74234" lon="1.77293">
        <ele>223.9</ele>
        <time>2026-03-26T08:33:57.000Z</time>
      </trkpt>
      <trkpt lat="48.74235" lon="1.77292">
        <ele>223.7</ele>
        <time>2026-03-26T08:33:58.000Z</time>
      </trkpt>
      <trkpt lat="48.74236" lon="1.77292">
        <ele>223.2</ele>
        <time>2026-03-26T08:33:59.000Z</time>
      </trkpt>
      <trkpt lat="48.74237" lon="1.77291">
        <ele>223.2</ele>
        <time>2026-03-26T08:34:00.000Z</time>
      </trkpt>
      <trkpt lat="48.74238" lon="1.7729">
        <ele>223.4</ele>
        <time>2026-03-26T08:34:01.000Z</time>
      </trkpt>
      <trkpt lat="48.74239" lon="1.77289">
        <ele>223.8</ele>
        <time>2026-03-26T08:34:02.000Z</time>
      </trkpt>
      <trkpt lat="48.7424" lon="1.77288">
        <ele>223.7</ele>
        <time>2026-03-26T08:34:03.000Z</time>
      </trkpt>
      <trkpt lat="48.74241" lon="1.77287">
        <ele>223.9</ele>
        <time>2026-03-26T08:34:04.000Z</time>
      </trkpt>
      <trkpt lat="48.74242" lon="1.77287">
        <ele>224.2</ele>
        <time>2026-03-26T08:34:05.000Z</time>
      </trkpt>
      <trkpt lat="48.74243" lon="1.77286">
        <ele>224.3</ele>
        <time>2026-03-26T08:34:06.000Z</time>
      </trkpt>
      <trkpt lat="48.74244" lon="1.77285">
        <ele>224.5</ele>
        <time>2026-03-26T08:34:07.000Z</time>
      </trkpt>
      <trkpt lat="48.74245" lon="1.77284">
        <ele>224.5</ele>
        <time>2026-03-26T08:34:08.000Z</time>
      </trkpt>
      <trkpt lat="48.74246" lon="1.77283">
        <ele>224.5</ele>
        <time>2026-03-26T08:34:09.000Z</time>
      </trkpt>
      <trkpt lat="48.74247" lon="1.77282">
        <ele>224.5</ele>
        <time>2026-03-26T08:34:10.000Z</time>
      </trkpt>
      <trkpt lat="48.74248" lon="1.7728">
        <ele>224.9</ele>
        <time>2026-03-26T08:34:11.000Z</time>
      </trkpt>
      <trkpt lat="48.74249" lon="1.7728">
        <ele>224.5</ele>
        <time>2026-03-26T08:34:12.000Z</time>
      </trkpt>
      <trkpt lat="48.7425" lon="1.77279">
        <ele>224.3</ele>
        <time>2026-03-26T08:34:13.000Z</time>
      </trkpt>
      <trkpt lat="48.74251" lon="1.77278">
        <ele>224.4</ele>
        <time>2026-03-26T08:34:14.000Z</time>
      </trkpt>
      <trkpt lat="48.74253" lon="1.77277">
        <ele>224.8</ele>
        <time>2026-03-26T08:34:15.000Z</time>
      </trkpt>
      <trkpt lat="48.74253" lon="1.77276">
        <ele>224.7</ele>
        <time>2026-03-26T08:34:16.000Z</time>
      </trkpt>
      <trkpt lat="48.74254" lon="1.77274">
        <ele>225.1</ele>
        <time>2026-03-26T08:34:17.000Z</time>
      </trkpt>
      <trkpt lat="48.74255" lon="1.77273">
        <ele>225.1</ele>
        <time>2026-03-26T08:34:18.000Z</time>
      </trkpt>
      <trkpt lat="48.74256" lon="1.77271">
        <ele>225.5</ele>
        <time>2026-03-26T08:34:19.000Z</time>
      </trkpt>
      <trkpt lat="48.74256" lon="1.77269">
        <ele>225.6</ele>
        <time>2026-03-26T08:34:20.000Z</time>
      </trkpt>
      <trkpt lat="48.74256" lon="1.77267">
        <ele>225.8</ele>
        <time>2026-03-26T08:34:21.000Z</time>
      </trkpt>
      <trkpt lat="48.74256" lon="1.77266">
        <ele>225.8</ele>
        <time>2026-03-26T08:34:22.000Z</time>
      </trkpt>
      <trkpt lat="48.74256" lon="1.77264">
        <ele>225.7</ele>
        <time>2026-03-26T08:34:23.000Z</time>
      </trkpt>
      <trkpt lat="48.74256" lon="1.77262">
        <ele>225.6</ele>
        <time>2026-03-26T08:34:24.000Z</time>
      </trkpt>
      <trkpt lat="48.74255" lon="1.7726">
        <ele>225.7</ele>
        <time>2026-03-26T08:34:25.000Z</time>
      </trkpt>
      <trkpt lat="48.74255" lon="1.77259">
        <ele>225.6</ele>
        <time>2026-03-26T08:34:26.000Z</time>
      </trkpt>
      <trkpt lat="48.74255" lon="1.77257">
        <ele>225</ele>
        <time>2026-03-26T08:34:27.000Z</time>
      </trkpt>
      <trkpt lat="48.74254" lon="1.77255">
        <ele>225.3</ele>
        <time>2026-03-26T08:34:28.000Z</time>
      </trkpt>
      <trkpt lat="48.74254" lon="1.77253">
        <ele>225.2</ele>
        <time>2026-03-26T08:34:29.000Z</time>
      </trkpt>
      <trkpt lat="48.74253" lon="1.77251">
        <ele>225.2</ele>
        <time>2026-03-26T08:34:30.000Z</time>
      </trkpt>
      <trkpt lat="48.74253" lon="1.77249">
        <ele>225.1</ele>
        <time>2026-03-26T08:34:31.000Z</time>
      </trkpt>
      <trkpt lat="48.74253" lon="1.77248">
        <ele>225</ele>
        <time>2026-03-26T08:34:32.000Z</time>
      </trkpt>
      <trkpt lat="48.74252" lon="1.77246">
        <ele>225</ele>
        <time>2026-03-26T08:34:33.000Z</time>
      </trkpt>
      <trkpt lat="48.74252" lon="1.77244">
        <ele>224.9</ele>
        <time>2026-03-26T08:34:34.000Z</time>
      </trkpt>
      <trkpt lat="48.74252" lon="1.77242">
        <ele>224.8</ele>
        <time>2026-03-26T08:34:35.000Z</time>
      </trkpt>
      <trkpt lat="48.74252" lon="1.7724">
        <ele>224.9</ele>
        <time>2026-03-26T08:34:36.000Z</time>
      </trkpt>
      <trkpt lat="48.74251" lon="1.77238">
        <ele>225.2</ele>
        <time>2026-03-26T08:34:37.000Z</time>
      </trkpt>
      <trkpt lat="48.74251" lon="1.77236">
        <ele>224.9</ele>
        <time>2026-03-26T08:34:38.000Z</time>
      </trkpt>
      <trkpt lat="48.74251" lon="1.77234">
        <ele>224.8</ele>
        <time>2026-03-26T08:34:39.000Z</time>
      </trkpt>
      <trkpt lat="48.74251" lon="1.77232">
        <ele>224.6</ele>
        <time>2026-03-26T08:34:40.000Z</time>
      </trkpt>
      <trkpt lat="48.74251" lon="1.7723">
        <ele>224.6</ele>
        <time>2026-03-26T08:34:41.000Z</time>
      </trkpt>
      <trkpt lat="48.74251" lon="1.77229">
        <ele>224.8</ele>
        <time>2026-03-26T08:34:42.000Z</time>
      </trkpt>
      <trkpt lat="48.74251" lon="1.77227">
        <ele>224.9</ele>
        <time>2026-03-26T08:34:43.000Z</time>
      </trkpt>
      <trkpt lat="48.7425" lon="1.77225">
        <ele>225.2</ele>
        <time>2026-03-26T08:34:44.000Z</time>
      </trkpt>
      <trkpt lat="48.7425" lon="1.77223">
        <ele>225.1</ele>
        <time>2026-03-26T08:34:45.000Z</time>
      </trkpt>
      <trkpt lat="48.7425" lon="1.77222">
        <ele>224.9</ele>
        <time>2026-03-26T08:34:46.000Z</time>
      </trkpt>
      <trkpt lat="48.7425" lon="1.7722">
        <ele>225</ele>
        <time>2026-03-26T08:34:47.000Z</time>
      </trkpt>
      <trkpt lat="48.74249" lon="1.77218">
        <ele>225.1</ele>
        <time>2026-03-26T08:34:48.000Z</time>
      </trkpt>
      <trkpt lat="48.74249" lon="1.77216">
        <ele>224.9</ele>
        <time>2026-03-26T08:34:49.000Z</time>
      </trkpt>
      <trkpt lat="48.74248" lon="1.77215">
        <ele>225.2</ele>
        <time>2026-03-26T08:34:50.000Z</time>
      </trkpt>
      <trkpt lat="48.74248" lon="1.77213">
        <ele>225.2</ele>
        <time>2026-03-26T08:34:51.000Z</time>
      </trkpt>
      <trkpt lat="48.74248" lon="1.77211">
        <ele>225.1</ele>
        <time>2026-03-26T08:34:52.000Z</time>
      </trkpt>
      <trkpt lat="48.74247" lon="1.77209">
        <ele>225</ele>
        <time>2026-03-26T08:34:53.000Z</time>
      </trkpt>
      <trkpt lat="48.74247" lon="1.77207">
        <ele>224.7</ele>
        <time>2026-03-26T08:34:54.000Z</time>
      </trkpt>
      <trkpt lat="48.74247" lon="1.77205">
        <ele>224.8</ele>
        <time>2026-03-26T08:34:55.000Z</time>
      </trkpt>
      <trkpt lat="48.74246" lon="1.77203">
        <ele>224.7</ele>
        <time>2026-03-26T08:34:56.000Z</time>
      </trkpt>
      <trkpt lat="48.74246" lon="1.77201">
        <ele>224.8</ele>
        <time>2026-03-26T08:34:57.000Z</time>
      </trkpt>
      <trkpt lat="48.74246" lon="1.77199">
        <ele>225.1</ele>
        <time>2026-03-26T08:34:58.000Z</time>
      </trkpt>
      <trkpt lat="48.74246" lon="1.77197">
        <ele>225.5</ele>
        <time>2026-03-26T08:34:59.000Z</time>
      </trkpt>
      <trkpt lat="48.74246" lon="1.77195">
        <ele>225</ele>
        <time>2026-03-26T08:35:00.000Z</time>
      </trkpt>
      <trkpt lat="48.74246" lon="1.77193">
        <ele>225.1</ele>
        <time>2026-03-26T08:35:01.000Z</time>
      </trkpt>
      <trkpt lat="48.74246" lon="1.77192">
        <ele>225.3</ele>
        <time>2026-03-26T08:35:02.000Z</time>
      </trkpt>
      <trkpt lat="48.74246" lon="1.77191">
        <ele>225.8</ele>
        <time>2026-03-26T08:35:03.000Z</time>
      </trkpt>
      <trkpt lat="48.74245" lon="1.77189">
        <ele>226.1</ele>
        <time>2026-03-26T08:35:04.000Z</time>
      </trkpt>
      <trkpt lat="48.74245" lon="1.77188">
        <ele>226</ele>
        <time>2026-03-26T08:35:05.000Z</time>
      </trkpt>
      <trkpt lat="48.74245" lon="1.77187">
        <ele>225.8</ele>
        <time>2026-03-26T08:35:06.000Z</time>
      </trkpt>
      <trkpt lat="48.74245" lon="1.77186">
        <ele>225.8</ele>
        <time>2026-03-26T08:35:07.000Z</time>
      </trkpt>
      <trkpt lat="48.74245" lon="1.77185">
        <ele>225.6</ele>
        <time>2026-03-26T08:35:08.000Z</time>
      </trkpt>
      <trkpt lat="48.74245" lon="1.77183">
        <ele>225.4</ele>
        <time>2026-03-26T08:35:09.000Z</time>
      </trkpt>
      <trkpt lat="48.74245" lon="1.77182">
        <ele>225.1</ele>
        <time>2026-03-26T08:35:10.000Z</time>
      </trkpt>
      <trkpt lat="48.74245" lon="1.77181">
        <ele>224.7</ele>
        <time>2026-03-26T08:35:11.000Z</time>
      </trkpt>
      <trkpt lat="48.74245" lon="1.7718">
        <ele>224.4</ele>
        <time>2026-03-26T08:35:12.000Z</time>
      </trkpt>
      <trkpt lat="48.74245" lon="1.77178">
        <ele>224.1</ele>
        <time>2026-03-26T08:35:13.000Z</time>
      </trkpt>
      <trkpt lat="48.74245" lon="1.77176">
        <ele>224.1</ele>
        <time>2026-03-26T08:35:14.000Z</time>
      </trkpt>
      <trkpt lat="48.74244" lon="1.77174">
        <ele>223.8</ele>
        <time>2026-03-26T08:35:15.000Z</time>
      </trkpt>
      <trkpt lat="48.74244" lon="1.77172">
        <ele>224.1</ele>
        <time>2026-03-26T08:35:16.000Z</time>
      </trkpt>
      <trkpt lat="48.74244" lon="1.7717">
        <ele>223.7</ele>
        <time>2026-03-26T08:35:17.000Z</time>
      </trkpt>
      <trkpt lat="48.74244" lon="1.77168">
        <ele>223.4</ele>
        <time>2026-03-26T08:35:18.000Z</time>
      </trkpt>
      <trkpt lat="48.74243" lon="1.77166">
        <ele>223.3</ele>
        <time>2026-03-26T08:35:19.000Z</time>
      </trkpt>
      <trkpt lat="48.74243" lon="1.77164">
        <ele>223.4</ele>
        <time>2026-03-26T08:35:20.000Z</time>
      </trkpt>
      <trkpt lat="48.74243" lon="1.77162">
        <ele>223.4</ele>
        <time>2026-03-26T08:35:21.000Z</time>
      </trkpt>
      <trkpt lat="48.74243" lon="1.77159">
        <ele>223.6</ele>
        <time>2026-03-26T08:35:22.000Z</time>
      </trkpt>
      <trkpt lat="48.74242" lon="1.77157">
        <ele>224.1</ele>
        <time>2026-03-26T08:35:23.000Z</time>
      </trkpt>
      <trkpt lat="48.74243" lon="1.77154">
        <ele>224.1</ele>
        <time>2026-03-26T08:35:24.000Z</time>
      </trkpt>
      <trkpt lat="48.74244" lon="1.77152">
        <ele>224.1</ele>
        <time>2026-03-26T08:35:25.000Z</time>
      </trkpt>
      <trkpt lat="48.74244" lon="1.77151">
        <ele>223.3</ele>
        <time>2026-03-26T08:35:26.000Z</time>
      </trkpt>
      <trkpt lat="48.74243" lon="1.7715">
        <ele>223.1</ele>
        <time>2026-03-26T08:35:27.000Z</time>
      </trkpt>
      <trkpt lat="48.74243" lon="1.77148">
        <ele>223.1</ele>
        <time>2026-03-26T08:35:28.000Z</time>
      </trkpt>
      <trkpt lat="48.74242" lon="1.77147">
        <ele>223</ele>
        <time>2026-03-26T08:35:29.000Z</time>
      </trkpt>
      <trkpt lat="48.74241" lon="1.77145">
        <ele>222.8</ele>
        <time>2026-03-26T08:35:30.000Z</time>
      </trkpt>
      <trkpt lat="48.74241" lon="1.77144">
        <ele>222.6</ele>
        <time>2026-03-26T08:35:31.000Z</time>
      </trkpt>
      <trkpt lat="48.74241" lon="1.77142">
        <ele>222.5</ele>
        <time>2026-03-26T08:35:32.000Z</time>
      </trkpt>
      <trkpt lat="48.7424" lon="1.7714">
        <ele>222.1</ele>
        <time>2026-03-26T08:35:33.000Z</time>
      </trkpt>
      <trkpt lat="48.7424" lon="1.77139">
        <ele>221.6</ele>
        <time>2026-03-26T08:35:34.000Z</time>
      </trkpt>
      <trkpt lat="48.7424" lon="1.77138">
        <ele>221.1</ele>
        <time>2026-03-26T08:35:35.000Z</time>
      </trkpt>
      <trkpt lat="48.7424" lon="1.77137">
        <ele>220.1</ele>
        <time>2026-03-26T08:35:36.000Z</time>
      </trkpt>
      <trkpt lat="48.7424" lon="1.77136">
        <ele>219.4</ele>
        <time>2026-03-26T08:35:37.000Z</time>
      </trkpt>
      <trkpt lat="48.7424" lon="1.77135">
        <ele>218.9</ele>
        <time>2026-03-26T08:35:38.000Z</time>
      </trkpt>
      <trkpt lat="48.7424" lon="1.77133">
        <ele>218.4</ele>
        <time>2026-03-26T08:35:39.000Z</time>
      </trkpt>
      <trkpt lat="48.7424" lon="1.77131">
        <ele>218.3</ele>
        <time>2026-03-26T08:35:40.000Z</time>
      </trkpt>
      <trkpt lat="48.7424" lon="1.7713">
        <ele>217.7</ele>
        <time>2026-03-26T08:35:41.000Z</time>
      </trkpt>
      <trkpt lat="48.7424" lon="1.77128">
        <ele>217.4</ele>
        <time>2026-03-26T08:35:42.000Z</time>
      </trkpt>
      <trkpt lat="48.7424" lon="1.77127">
        <ele>216.4</ele>
        <time>2026-03-26T08:35:43.000Z</time>
      </trkpt>
      <trkpt lat="48.74241" lon="1.77127">
        <ele>214.8</ele>
        <time>2026-03-26T08:35:44.000Z</time>
      </trkpt>
      <trkpt lat="48.74241" lon="1.77126">
        <ele>214.4</ele>
        <time>2026-03-26T08:35:45.000Z</time>
      </trkpt>
      <trkpt lat="48.74241" lon="1.77124">
        <ele>213.8</ele>
        <time>2026-03-26T08:35:46.000Z</time>
      </trkpt>
      <trkpt lat="48.74241" lon="1.77123">
        <ele>213.5</ele>
        <time>2026-03-26T08:35:47.000Z</time>
      </trkpt>
      <trkpt lat="48.74241" lon="1.77121">
        <ele>213</ele>
        <time>2026-03-26T08:35:48.000Z</time>
      </trkpt>
      <trkpt lat="48.7424" lon="1.7712">
        <ele>212.7</ele>
        <time>2026-03-26T08:35:49.000Z</time>
      </trkpt>
      <trkpt lat="48.7424" lon="1.77119">
        <ele>212.5</ele>
        <time>2026-03-26T08:35:50.000Z</time>
      </trkpt>
      <trkpt lat="48.7424" lon="1.77117">
        <ele>212.2</ele>
        <time>2026-03-26T08:35:51.000Z</time>
      </trkpt>
      <trkpt lat="48.7424" lon="1.77116">
        <ele>211</ele>
        <time>2026-03-26T08:35:52.000Z</time>
      </trkpt>
      <trkpt lat="48.7424" lon="1.77115">
        <ele>210.7</ele>
        <time>2026-03-26T08:35:53.000Z</time>
      </trkpt>
      <trkpt lat="48.7424" lon="1.77114">
        <ele>209.2</ele>
        <time>2026-03-26T08:35:54.000Z</time>
      </trkpt>
      <trkpt lat="48.7424" lon="1.77113">
        <ele>208.5</ele>
        <time>2026-03-26T08:35:55.000Z</time>
      </trkpt>
      <trkpt lat="48.7424" lon="1.77112">
        <ele>206.9</ele>
        <time>2026-03-26T08:35:56.000Z</time>
      </trkpt>
      <trkpt lat="48.7424" lon="1.7711">
        <ele>206.5</ele>
        <time>2026-03-26T08:35:57.000Z</time>
      </trkpt>
      <trkpt lat="48.7424" lon="1.77108">
        <ele>206.2</ele>
        <time>2026-03-26T08:35:58.000Z</time>
      </trkpt>
      <trkpt lat="48.74239" lon="1.77107">
        <ele>206.4</ele>
        <time>2026-03-26T08:35:59.000Z</time>
      </trkpt>
      <trkpt lat="48.74239" lon="1.77105">
        <ele>205.8</ele>
        <time>2026-03-26T08:36:00.000Z</time>
      </trkpt>
      <trkpt lat="48.74239" lon="1.77104">
        <ele>205.5</ele>
        <time>2026-03-26T08:36:01.000Z</time>
      </trkpt>
      <trkpt lat="48.74239" lon="1.77102">
        <ele>205.4</ele>
        <time>2026-03-26T08:36:02.000Z</time>
      </trkpt>
      <trkpt lat="48.74239" lon="1.77101">
        <ele>204.8</ele>
        <time>2026-03-26T08:36:03.000Z</time>
      </trkpt>
      <trkpt lat="48.74239" lon="1.77099">
        <ele>204.8</ele>
        <time>2026-03-26T08:36:04.000Z</time>
      </trkpt>
      <trkpt lat="48.74239" lon="1.77097">
        <ele>204.5</ele>
        <time>2026-03-26T08:36:05.000Z</time>
      </trkpt>
      <trkpt lat="48.74239" lon="1.77096">
        <ele>203.9</ele>
        <time>2026-03-26T08:36:06.000Z</time>
      </trkpt>
      <trkpt lat="48.74239" lon="1.77094">
        <ele>204</ele>
        <time>2026-03-26T08:36:07.000Z</time>
      </trkpt>
      <trkpt lat="48.74239" lon="1.77092">
        <ele>203.8</ele>
        <time>2026-03-26T08:36:08.000Z</time>
      </trkpt>
      <trkpt lat="48.74239" lon="1.7709">
        <ele>203.9</ele>
        <time>2026-03-26T08:36:09.000Z</time>
      </trkpt>
      <trkpt lat="48.74239" lon="1.77088">
        <ele>203.8</ele>
        <time>2026-03-26T08:36:10.000Z</time>
      </trkpt>
      <trkpt lat="48.74239" lon="1.77086">
        <ele>203.4</ele>
        <time>2026-03-26T08:36:11.000Z</time>
      </trkpt>
      <trkpt lat="48.74239" lon="1.77084">
        <ele>203</ele>
        <time>2026-03-26T08:36:12.000Z</time>
      </trkpt>
      <trkpt lat="48.74239" lon="1.77083">
        <ele>202.8</ele>
        <time>2026-03-26T08:36:13.000Z</time>
      </trkpt>
      <trkpt lat="48.74239" lon="1.77081">
        <ele>202</ele>
        <time>2026-03-26T08:36:14.000Z</time>
      </trkpt>
      <trkpt lat="48.74239" lon="1.77079">
        <ele>202.1</ele>
        <time>2026-03-26T08:36:15.000Z</time>
      </trkpt>
      <trkpt lat="48.74238" lon="1.77078">
        <ele>201.7</ele>
        <time>2026-03-26T08:36:16.000Z</time>
      </trkpt>
      <trkpt lat="48.74238" lon="1.77075">
        <ele>201.6</ele>
        <time>2026-03-26T08:36:17.000Z</time>
      </trkpt>
      <trkpt lat="48.74238" lon="1.77073">
        <ele>201</ele>
        <time>2026-03-26T08:36:18.000Z</time>
      </trkpt>
      <trkpt lat="48.74238" lon="1.77071">
        <ele>200.6</ele>
        <time>2026-03-26T08:36:19.000Z</time>
      </trkpt>
      <trkpt lat="48.74237" lon="1.77069">
        <ele>200.6</ele>
        <time>2026-03-26T08:36:20.000Z</time>
      </trkpt>
      <trkpt lat="48.74237" lon="1.77067">
        <ele>200.2</ele>
        <time>2026-03-26T08:36:21.000Z</time>
      </trkpt>
      <trkpt lat="48.74236" lon="1.77065">
        <ele>200</ele>
        <time>2026-03-26T08:36:22.000Z</time>
      </trkpt>
      <trkpt lat="48.74236" lon="1.77063">
        <ele>200.1</ele>
        <time>2026-03-26T08:36:23.000Z</time>
      </trkpt>
      <trkpt lat="48.74236" lon="1.77061">
        <ele>199.8</ele>
        <time>2026-03-26T08:36:24.000Z</time>
      </trkpt>
      <trkpt lat="48.74236" lon="1.7706">
        <ele>199.4</ele>
        <time>2026-03-26T08:36:25.000Z</time>
      </trkpt>
      <trkpt lat="48.74235" lon="1.77058">
        <ele>198.9</ele>
        <time>2026-03-26T08:36:26.000Z</time>
      </trkpt>
      <trkpt lat="48.74235" lon="1.77056">
        <ele>198.8</ele>
        <time>2026-03-26T08:36:27.000Z</time>
      </trkpt>
      <trkpt lat="48.74235" lon="1.77055">
        <ele>198.4</ele>
        <time>2026-03-26T08:36:28.000Z</time>
      </trkpt>
      <trkpt lat="48.74235" lon="1.77053">
        <ele>198.1</ele>
        <time>2026-03-26T08:36:29.000Z</time>
      </trkpt>
      <trkpt lat="48.74234" lon="1.77052">
        <ele>198.2</ele>
        <time>2026-03-26T08:36:30.000Z</time>
      </trkpt>
      <trkpt lat="48.74234" lon="1.7705">
        <ele>197.9</ele>
        <time>2026-03-26T08:36:31.000Z</time>
      </trkpt>
      <trkpt lat="48.74234" lon="1.77048">
        <ele>197.4</ele>
        <time>2026-03-26T08:36:32.000Z</time>
      </trkpt>
      <trkpt lat="48.74234" lon="1.77046">
        <ele>197.3</ele>
        <time>2026-03-26T08:36:33.000Z</time>
      </trkpt>
      <trkpt lat="48.74234" lon="1.77044">
        <ele>197.3</ele>
        <time>2026-03-26T08:36:34.000Z</time>
      </trkpt>
      <trkpt lat="48.74234" lon="1.77042">
        <ele>197.2</ele>
        <time>2026-03-26T08:36:35.000Z</time>
      </trkpt>
      <trkpt lat="48.74234" lon="1.77041">
        <ele>197</ele>
        <time>2026-03-26T08:36:36.000Z</time>
      </trkpt>
      <trkpt lat="48.74234" lon="1.77039">
        <ele>196.7</ele>
        <time>2026-03-26T08:36:37.000Z</time>
      </trkpt>
      <trkpt lat="48.74234" lon="1.77037">
        <ele>196.5</ele>
        <time>2026-03-26T08:36:38.000Z</time>
      </trkpt>
      <trkpt lat="48.74234" lon="1.77035">
        <ele>196.7</ele>
        <time>2026-03-26T08:36:39.000Z</time>
      </trkpt>
      <trkpt lat="48.74233" lon="1.77033">
        <ele>196.8</ele>
        <time>2026-03-26T08:36:40.000Z</time>
      </trkpt>
      <trkpt lat="48.74233" lon="1.77031">
        <ele>196.7</ele>
        <time>2026-03-26T08:36:41.000Z</time>
      </trkpt>
      <trkpt lat="48.74232" lon="1.77029">
        <ele>196.6</ele>
        <time>2026-03-26T08:36:42.000Z</time>
      </trkpt>
      <trkpt lat="48.74232" lon="1.77027">
        <ele>196.5</ele>
        <time>2026-03-26T08:36:43.000Z</time>
      </trkpt>
      <trkpt lat="48.74232" lon="1.77025">
        <ele>196.3</ele>
        <time>2026-03-26T08:36:44.000Z</time>
      </trkpt>
      <trkpt lat="48.74232" lon="1.77023">
        <ele>195.8</ele>
        <time>2026-03-26T08:36:45.000Z</time>
      </trkpt>
      <trkpt lat="48.74232" lon="1.77021">
        <ele>195.1</ele>
        <time>2026-03-26T08:36:46.000Z</time>
      </trkpt>
      <trkpt lat="48.74231" lon="1.77019">
        <ele>195</ele>
        <time>2026-03-26T08:36:47.000Z</time>
      </trkpt>
      <trkpt lat="48.74231" lon="1.77017">
        <ele>194.8</ele>
        <time>2026-03-26T08:36:48.000Z</time>
      </trkpt>
      <trkpt lat="48.74231" lon="1.77015">
        <ele>194.8</ele>
        <time>2026-03-26T08:36:49.000Z</time>
      </trkpt>
      <trkpt lat="48.74231" lon="1.77013">
        <ele>194.8</ele>
        <time>2026-03-26T08:36:50.000Z</time>
      </trkpt>
      <trkpt lat="48.7423" lon="1.77011">
        <ele>194.4</ele>
        <time>2026-03-26T08:36:51.000Z</time>
      </trkpt>
      <trkpt lat="48.7423" lon="1.77009">
        <ele>194.3</ele>
        <time>2026-03-26T08:36:52.000Z</time>
      </trkpt>
      <trkpt lat="48.7423" lon="1.77007">
        <ele>194.4</ele>
        <time>2026-03-26T08:36:53.000Z</time>
      </trkpt>
      <trkpt lat="48.7423" lon="1.77005">
        <ele>194.1</ele>
        <time>2026-03-26T08:36:54.000Z</time>
      </trkpt>
      <trkpt lat="48.7423" lon="1.77003">
        <ele>193.8</ele>
        <time>2026-03-26T08:36:55.000Z</time>
      </trkpt>
      <trkpt lat="48.7423" lon="1.77002">
        <ele>193.5</ele>
        <time>2026-03-26T08:36:56.000Z</time>
      </trkpt>
      <trkpt lat="48.7423" lon="1.77">
        <ele>193.2</ele>
        <time>2026-03-26T08:36:57.000Z</time>
      </trkpt>
      <trkpt lat="48.74229" lon="1.76998">
        <ele>193.3</ele>
        <time>2026-03-26T08:36:58.000Z</time>
      </trkpt>
      <trkpt lat="48.74229" lon="1.76996">
        <ele>193.8</ele>
        <time>2026-03-26T08:36:59.000Z</time>
      </trkpt>
      <trkpt lat="48.74229" lon="1.76994">
        <ele>194.1</ele>
        <time>2026-03-26T08:37:00.000Z</time>
      </trkpt>
      <trkpt lat="48.74229" lon="1.76992">
        <ele>194.1</ele>
        <time>2026-03-26T08:37:01.000Z</time>
      </trkpt>
      <trkpt lat="48.74228" lon="1.76989">
        <ele>194.2</ele>
        <time>2026-03-26T08:37:02.000Z</time>
      </trkpt>
      <trkpt lat="48.74228" lon="1.76988">
        <ele>194.1</ele>
        <time>2026-03-26T08:37:03.000Z</time>
      </trkpt>
      <trkpt lat="48.74228" lon="1.76986">
        <ele>193.9</ele>
        <time>2026-03-26T08:37:04.000Z</time>
      </trkpt>
      <trkpt lat="48.74227" lon="1.76984">
        <ele>193.3</ele>
        <time>2026-03-26T08:37:05.000Z</time>
      </trkpt>
      <trkpt lat="48.74227" lon="1.76982">
        <ele>193</ele>
        <time>2026-03-26T08:37:06.000Z</time>
      </trkpt>
      <trkpt lat="48.74227" lon="1.7698">
        <ele>193.2</ele>
        <time>2026-03-26T08:37:07.000Z</time>
      </trkpt>
      <trkpt lat="48.74226" lon="1.76978">
        <ele>193.4</ele>
        <time>2026-03-26T08:37:08.000Z</time>
      </trkpt>
      <trkpt lat="48.74226" lon="1.76976">
        <ele>193.3</ele>
        <time>2026-03-26T08:37:09.000Z</time>
      </trkpt>
      <trkpt lat="48.74226" lon="1.76974">
        <ele>193.5</ele>
        <time>2026-03-26T08:37:10.000Z</time>
      </trkpt>
      <trkpt lat="48.74225" lon="1.76972">
        <ele>193.8</ele>
        <time>2026-03-26T08:37:11.000Z</time>
      </trkpt>
      <trkpt lat="48.74225" lon="1.7697">
        <ele>193.7</ele>
        <time>2026-03-26T08:37:12.000Z</time>
      </trkpt>
      <trkpt lat="48.74224" lon="1.76968">
        <ele>193.9</ele>
        <time>2026-03-26T08:37:13.000Z</time>
      </trkpt>
      <trkpt lat="48.74224" lon="1.76966">
        <ele>193.7</ele>
        <time>2026-03-26T08:37:14.000Z</time>
      </trkpt>
      <trkpt lat="48.74225" lon="1.76964">
        <ele>193.5</ele>
        <time>2026-03-26T08:37:15.000Z</time>
      </trkpt>
      <trkpt lat="48.74225" lon="1.76961">
        <ele>193.2</ele>
        <time>2026-03-26T08:37:16.000Z</time>
      </trkpt>
      <trkpt lat="48.74225" lon="1.76959">
        <ele>193.3</ele>
        <time>2026-03-26T08:37:17.000Z</time>
      </trkpt>
      <trkpt lat="48.74226" lon="1.76957">
        <ele>193.1</ele>
        <time>2026-03-26T08:37:18.000Z</time>
      </trkpt>
      <trkpt lat="48.74226" lon="1.76956">
        <ele>192.9</ele>
        <time>2026-03-26T08:37:19.000Z</time>
      </trkpt>
      <trkpt lat="48.74226" lon="1.76954">
        <ele>192.8</ele>
        <time>2026-03-26T08:37:20.000Z</time>
      </trkpt>
      <trkpt lat="48.74226" lon="1.76951">
        <ele>193.1</ele>
        <time>2026-03-26T08:37:21.000Z</time>
      </trkpt>
      <trkpt lat="48.74227" lon="1.76949">
        <ele>193.1</ele>
        <time>2026-03-26T08:37:22.000Z</time>
      </trkpt>
      <trkpt lat="48.74227" lon="1.76947">
        <ele>193</ele>
        <time>2026-03-26T08:37:23.000Z</time>
      </trkpt>
      <trkpt lat="48.74227" lon="1.76945">
        <ele>193.2</ele>
        <time>2026-03-26T08:37:24.000Z</time>
      </trkpt>
      <trkpt lat="48.74227" lon="1.76943">
        <ele>193</ele>
        <time>2026-03-26T08:37:25.000Z</time>
      </trkpt>
      <trkpt lat="48.74227" lon="1.76941">
        <ele>192.5</ele>
        <time>2026-03-26T08:37:26.000Z</time>
      </trkpt>
      <trkpt lat="48.74227" lon="1.76939">
        <ele>192</ele>
        <time>2026-03-26T08:37:27.000Z</time>
      </trkpt>
      <trkpt lat="48.74227" lon="1.76938">
        <ele>191.8</ele>
        <time>2026-03-26T08:37:28.000Z</time>
      </trkpt>
      <trkpt lat="48.74227" lon="1.76936">
        <ele>191.5</ele>
        <time>2026-03-26T08:37:29.000Z</time>
      </trkpt>
      <trkpt lat="48.74227" lon="1.76933">
        <ele>192.2</ele>
        <time>2026-03-26T08:37:30.000Z</time>
      </trkpt>
      <trkpt lat="48.74226" lon="1.76931">
        <ele>192</ele>
        <time>2026-03-26T08:37:31.000Z</time>
      </trkpt>
      <trkpt lat="48.74226" lon="1.76929">
        <ele>192.6</ele>
        <time>2026-03-26T08:37:32.000Z</time>
      </trkpt>
      <trkpt lat="48.74226" lon="1.76927">
        <ele>193</ele>
        <time>2026-03-26T08:37:33.000Z</time>
      </trkpt>
      <trkpt lat="48.74225" lon="1.76925">
        <ele>193.5</ele>
        <time>2026-03-26T08:37:34.000Z</time>
      </trkpt>
      <trkpt lat="48.74225" lon="1.76923">
        <ele>194.1</ele>
        <time>2026-03-26T08:37:35.000Z</time>
      </trkpt>
      <trkpt lat="48.74224" lon="1.7692">
        <ele>194.2</ele>
        <time>2026-03-26T08:37:36.000Z</time>
      </trkpt>
      <trkpt lat="48.74224" lon="1.76918">
        <ele>195.1</ele>
        <time>2026-03-26T08:37:37.000Z</time>
      </trkpt>
      <trkpt lat="48.74224" lon="1.76916">
        <ele>195.2</ele>
        <time>2026-03-26T08:37:38.000Z</time>
      </trkpt>
      <trkpt lat="48.74224" lon="1.76914">
        <ele>195.6</ele>
        <time>2026-03-26T08:37:39.000Z</time>
      </trkpt>
      <trkpt lat="48.74223" lon="1.76912">
        <ele>195.4</ele>
        <time>2026-03-26T08:37:40.000Z</time>
      </trkpt>
      <trkpt lat="48.74223" lon="1.7691">
        <ele>195.5</ele>
        <time>2026-03-26T08:37:41.000Z</time>
      </trkpt>
      <trkpt lat="48.74222" lon="1.76909">
        <ele>195.7</ele>
        <time>2026-03-26T08:37:42.000Z</time>
      </trkpt>
      <trkpt lat="48.74221" lon="1.76907">
        <ele>194.9</ele>
        <time>2026-03-26T08:37:43.000Z</time>
      </trkpt>
      <trkpt lat="48.74221" lon="1.76905">
        <ele>194.2</ele>
        <time>2026-03-26T08:37:44.000Z</time>
      </trkpt>
      <trkpt lat="48.7422" lon="1.76903">
        <ele>193.8</ele>
        <time>2026-03-26T08:37:45.000Z</time>
      </trkpt>
      <trkpt lat="48.7422" lon="1.76901">
        <ele>194.2</ele>
        <time>2026-03-26T08:37:46.000Z</time>
      </trkpt>
      <trkpt lat="48.74219" lon="1.76899">
        <ele>194.2</ele>
        <time>2026-03-26T08:37:47.000Z</time>
      </trkpt>
      <trkpt lat="48.74219" lon="1.76898">
        <ele>194.1</ele>
        <time>2026-03-26T08:37:48.000Z</time>
      </trkpt>
      <trkpt lat="48.74218" lon="1.76896">
        <ele>193.9</ele>
        <time>2026-03-26T08:37:49.000Z</time>
      </trkpt>
      <trkpt lat="48.74218" lon="1.76894">
        <ele>193.6</ele>
        <time>2026-03-26T08:37:50.000Z</time>
      </trkpt>
      <trkpt lat="48.74217" lon="1.76892">
        <ele>193.8</ele>
        <time>2026-03-26T08:37:51.000Z</time>
      </trkpt>
      <trkpt lat="48.74216" lon="1.76891">
        <ele>193.4</ele>
        <time>2026-03-26T08:37:52.000Z</time>
      </trkpt>
      <trkpt lat="48.74216" lon="1.76889">
        <ele>193.4</ele>
        <time>2026-03-26T08:37:53.000Z</time>
      </trkpt>
      <trkpt lat="48.74215" lon="1.76887">
        <ele>194</ele>
        <time>2026-03-26T08:37:54.000Z</time>
      </trkpt>
      <trkpt lat="48.74215" lon="1.76885">
        <ele>194</ele>
        <time>2026-03-26T08:37:55.000Z</time>
      </trkpt>
      <trkpt lat="48.74215" lon="1.76883">
        <ele>194.1</ele>
        <time>2026-03-26T08:37:56.000Z</time>
      </trkpt>
      <trkpt lat="48.74215" lon="1.76881">
        <ele>194.2</ele>
        <time>2026-03-26T08:37:57.000Z</time>
      </trkpt>
      <trkpt lat="48.74214" lon="1.76879">
        <ele>194</ele>
        <time>2026-03-26T08:37:58.000Z</time>
      </trkpt>
      <trkpt lat="48.74214" lon="1.76877">
        <ele>194.1</ele>
        <time>2026-03-26T08:37:59.000Z</time>
      </trkpt>
      <trkpt lat="48.74214" lon="1.76875">
        <ele>194.3</ele>
        <time>2026-03-26T08:38:00.000Z</time>
      </trkpt>
      <trkpt lat="48.74213" lon="1.76872">
        <ele>194.2</ele>
        <time>2026-03-26T08:38:01.000Z</time>
      </trkpt>
      <trkpt lat="48.74213" lon="1.7687">
        <ele>194</ele>
        <time>2026-03-26T08:38:02.000Z</time>
      </trkpt>
      <trkpt lat="48.74213" lon="1.76868">
        <ele>194.7</ele>
        <time>2026-03-26T08:38:03.000Z</time>
      </trkpt>
      <trkpt lat="48.74213" lon="1.76866">
        <ele>194.8</ele>
        <time>2026-03-26T08:38:04.000Z</time>
      </trkpt>
      <trkpt lat="48.74213" lon="1.76864">
        <ele>194.9</ele>
        <time>2026-03-26T08:38:05.000Z</time>
      </trkpt>
      <trkpt lat="48.74213" lon="1.76862">
        <ele>195.1</ele>
        <time>2026-03-26T08:38:06.000Z</time>
      </trkpt>
      <trkpt lat="48.74212" lon="1.7686">
        <ele>195.3</ele>
        <time>2026-03-26T08:38:07.000Z</time>
      </trkpt>
      <trkpt lat="48.74212" lon="1.76858">
        <ele>195.4</ele>
        <time>2026-03-26T08:38:08.000Z</time>
      </trkpt>
      <trkpt lat="48.74212" lon="1.76855">
        <ele>194.9</ele>
        <time>2026-03-26T08:38:09.000Z</time>
      </trkpt>
      <trkpt lat="48.74211" lon="1.76853">
        <ele>195.5</ele>
        <time>2026-03-26T08:38:10.000Z</time>
      </trkpt>
      <trkpt lat="48.74211" lon="1.76851">
        <ele>195.9</ele>
        <time>2026-03-26T08:38:11.000Z</time>
      </trkpt>
      <trkpt lat="48.74211" lon="1.7685">
        <ele>195.6</ele>
        <time>2026-03-26T08:38:12.000Z</time>
      </trkpt>
      <trkpt lat="48.7421" lon="1.76848">
        <ele>195.8</ele>
        <time>2026-03-26T08:38:13.000Z</time>
      </trkpt>
      <trkpt lat="48.7421" lon="1.76846">
        <ele>195.6</ele>
        <time>2026-03-26T08:38:14.000Z</time>
      </trkpt>
      <trkpt lat="48.74209" lon="1.76844">
        <ele>195.5</ele>
        <time>2026-03-26T08:38:15.000Z</time>
      </trkpt>
      <trkpt lat="48.74209" lon="1.76842">
        <ele>195.1</ele>
        <time>2026-03-26T08:38:16.000Z</time>
      </trkpt>
      <trkpt lat="48.74209" lon="1.7684">
        <ele>195</ele>
        <time>2026-03-26T08:38:17.000Z</time>
      </trkpt>
      <trkpt lat="48.74209" lon="1.76838">
        <ele>194.6</ele>
        <time>2026-03-26T08:38:18.000Z</time>
      </trkpt>
      <trkpt lat="48.74209" lon="1.76836">
        <ele>194.2</ele>
        <time>2026-03-26T08:38:19.000Z</time>
      </trkpt>
      <trkpt lat="48.74209" lon="1.76834">
        <ele>193.9</ele>
        <time>2026-03-26T08:38:20.000Z</time>
      </trkpt>
      <trkpt lat="48.74209" lon="1.76833">
        <ele>194.1</ele>
        <time>2026-03-26T08:38:21.000Z</time>
      </trkpt>
      <trkpt lat="48.74209" lon="1.76831">
        <ele>194</ele>
        <time>2026-03-26T08:38:22.000Z</time>
      </trkpt>
      <trkpt lat="48.74209" lon="1.76829">
        <ele>194.3</ele>
        <time>2026-03-26T08:38:23.000Z</time>
      </trkpt>
      <trkpt lat="48.74209" lon="1.76827">
        <ele>194.4</ele>
        <time>2026-03-26T08:38:24.000Z</time>
      </trkpt>
      <trkpt lat="48.74209" lon="1.76824">
        <ele>194.7</ele>
        <time>2026-03-26T08:38:25.000Z</time>
      </trkpt>
      <trkpt lat="48.7421" lon="1.76822">
        <ele>193.9</ele>
        <time>2026-03-26T08:38:26.000Z</time>
      </trkpt>
      <trkpt lat="48.74209" lon="1.7682">
        <ele>193.7</ele>
        <time>2026-03-26T08:38:27.000Z</time>
      </trkpt>
      <trkpt lat="48.74209" lon="1.76818">
        <ele>193.5</ele>
        <time>2026-03-26T08:38:28.000Z</time>
      </trkpt>
      <trkpt lat="48.74208" lon="1.76816">
        <ele>193.3</ele>
        <time>2026-03-26T08:38:29.000Z</time>
      </trkpt>
      <trkpt lat="48.74208" lon="1.76814">
        <ele>193.5</ele>
        <time>2026-03-26T08:38:30.000Z</time>
      </trkpt>
      <trkpt lat="48.74207" lon="1.76812">
        <ele>193.5</ele>
        <time>2026-03-26T08:38:31.000Z</time>
      </trkpt>
      <trkpt lat="48.74207" lon="1.7681">
        <ele>193.6</ele>
        <time>2026-03-26T08:38:32.000Z</time>
      </trkpt>
      <trkpt lat="48.74206" lon="1.76808">
        <ele>193.5</ele>
        <time>2026-03-26T08:38:33.000Z</time>
      </trkpt>
      <trkpt lat="48.74206" lon="1.76806">
        <ele>193.3</ele>
        <time>2026-03-26T08:38:34.000Z</time>
      </trkpt>
      <trkpt lat="48.74205" lon="1.76804">
        <ele>193.1</ele>
        <time>2026-03-26T08:38:35.000Z</time>
      </trkpt>
      <trkpt lat="48.74205" lon="1.76802">
        <ele>192.8</ele>
        <time>2026-03-26T08:38:36.000Z</time>
      </trkpt>
      <trkpt lat="48.74205" lon="1.768">
        <ele>192.5</ele>
        <time>2026-03-26T08:38:37.000Z</time>
      </trkpt>
      <trkpt lat="48.74204" lon="1.76798">
        <ele>191.5</ele>
        <time>2026-03-26T08:38:38.000Z</time>
      </trkpt>
      <trkpt lat="48.74204" lon="1.76796">
        <ele>191.9</ele>
        <time>2026-03-26T08:38:39.000Z</time>
      </trkpt>
      <trkpt lat="48.74204" lon="1.76794">
        <ele>191.4</ele>
        <time>2026-03-26T08:38:40.000Z</time>
      </trkpt>
      <trkpt lat="48.74203" lon="1.76792">
        <ele>191.3</ele>
        <time>2026-03-26T08:38:41.000Z</time>
      </trkpt>
      <trkpt lat="48.74203" lon="1.76791">
        <ele>190.6</ele>
        <time>2026-03-26T08:38:42.000Z</time>
      </trkpt>
      <trkpt lat="48.74203" lon="1.76789">
        <ele>190.3</ele>
        <time>2026-03-26T08:38:43.000Z</time>
      </trkpt>
      <trkpt lat="48.74203" lon="1.76787">
        <ele>190.2</ele>
        <time>2026-03-26T08:38:44.000Z</time>
      </trkpt>
      <trkpt lat="48.74202" lon="1.76785">
        <ele>189.6</ele>
        <time>2026-03-26T08:38:45.000Z</time>
      </trkpt>
      <trkpt lat="48.74202" lon="1.76783">
        <ele>189.5</ele>
        <time>2026-03-26T08:38:46.000Z</time>
      </trkpt>
      <trkpt lat="48.74201" lon="1.76782">
        <ele>189.4</ele>
        <time>2026-03-26T08:38:47.000Z</time>
      </trkpt>
      <trkpt lat="48.74201" lon="1.7678">
        <ele>189.3</ele>
        <time>2026-03-26T08:38:48.000Z</time>
      </trkpt>
      <trkpt lat="48.742" lon="1.76778">
        <ele>189.7</ele>
        <time>2026-03-26T08:38:49.000Z</time>
      </trkpt>
      <trkpt lat="48.742" lon="1.76776">
        <ele>189.6</ele>
        <time>2026-03-26T08:38:50.000Z</time>
      </trkpt>
      <trkpt lat="48.742" lon="1.76774">
        <ele>189.6</ele>
        <time>2026-03-26T08:38:51.000Z</time>
      </trkpt>
      <trkpt lat="48.742" lon="1.76772">
        <ele>189.4</ele>
        <time>2026-03-26T08:38:52.000Z</time>
      </trkpt>
      <trkpt lat="48.74201" lon="1.76771">
        <ele>189.2</ele>
        <time>2026-03-26T08:38:53.000Z</time>
      </trkpt>
      <trkpt lat="48.74201" lon="1.76769">
        <ele>189.2</ele>
        <time>2026-03-26T08:38:54.000Z</time>
      </trkpt>
      <trkpt lat="48.74201" lon="1.76767">
        <ele>189</ele>
        <time>2026-03-26T08:38:55.000Z</time>
      </trkpt>
      <trkpt lat="48.74201" lon="1.76765">
        <ele>189.1</ele>
        <time>2026-03-26T08:38:56.000Z</time>
      </trkpt>
      <trkpt lat="48.74201" lon="1.76763">
        <ele>189</ele>
        <time>2026-03-26T08:38:57.000Z</time>
      </trkpt>
      <trkpt lat="48.74201" lon="1.76761">
        <ele>188.8</ele>
        <time>2026-03-26T08:38:58.000Z</time>
      </trkpt>
      <trkpt lat="48.74201" lon="1.76759">
        <ele>188.6</ele>
        <time>2026-03-26T08:38:59.000Z</time>
      </trkpt>
      <trkpt lat="48.74202" lon="1.76757">
        <ele>188.7</ele>
        <time>2026-03-26T08:39:00.000Z</time>
      </trkpt>
      <trkpt lat="48.74202" lon="1.76755">
        <ele>188.8</ele>
        <time>2026-03-26T08:39:01.000Z</time>
      </trkpt>
      <trkpt lat="48.74202" lon="1.76753">
        <ele>189.8</ele>
        <time>2026-03-26T08:39:02.000Z</time>
      </trkpt>
      <trkpt lat="48.74202" lon="1.76751">
        <ele>190.4</ele>
        <time>2026-03-26T08:39:03.000Z</time>
      </trkpt>
      <trkpt lat="48.74202" lon="1.76749">
        <ele>190.5</ele>
        <time>2026-03-26T08:39:04.000Z</time>
      </trkpt>
      <trkpt lat="48.74202" lon="1.76748">
        <ele>190.6</ele>
        <time>2026-03-26T08:39:05.000Z</time>
      </trkpt>
      <trkpt lat="48.74203" lon="1.76746">
        <ele>190.6</ele>
        <time>2026-03-26T08:39:06.000Z</time>
      </trkpt>
      <trkpt lat="48.74203" lon="1.76744">
        <ele>190.8</ele>
        <time>2026-03-26T08:39:07.000Z</time>
      </trkpt>
      <trkpt lat="48.74203" lon="1.76743">
        <ele>191.9</ele>
        <time>2026-03-26T08:39:08.000Z</time>
      </trkpt>
      <trkpt lat="48.74203" lon="1.76741">
        <ele>193</ele>
        <time>2026-03-26T08:39:09.000Z</time>
      </trkpt>
      <trkpt lat="48.74204" lon="1.76739">
        <ele>193.4</ele>
        <time>2026-03-26T08:39:10.000Z</time>
      </trkpt>
      <trkpt lat="48.74204" lon="1.76737">
        <ele>193.5</ele>
        <time>2026-03-26T08:39:11.000Z</time>
      </trkpt>
      <trkpt lat="48.74205" lon="1.76736">
        <ele>193.4</ele>
        <time>2026-03-26T08:39:12.000Z</time>
      </trkpt>
      <trkpt lat="48.74206" lon="1.76734">
        <ele>193.2</ele>
        <time>2026-03-26T08:39:13.000Z</time>
      </trkpt>
      <trkpt lat="48.74206" lon="1.76733">
        <ele>193.4</ele>
        <time>2026-03-26T08:39:14.000Z</time>
      </trkpt>
      <trkpt lat="48.74206" lon="1.76731">
        <ele>193.3</ele>
        <time>2026-03-26T08:39:15.000Z</time>
      </trkpt>
      <trkpt lat="48.74207" lon="1.76729">
        <ele>193.3</ele>
        <time>2026-03-26T08:39:16.000Z</time>
      </trkpt>
      <trkpt lat="48.74207" lon="1.76728">
        <ele>193.1</ele>
        <time>2026-03-26T08:39:17.000Z</time>
      </trkpt>
      <trkpt lat="48.74207" lon="1.76726">
        <ele>192.8</ele>
        <time>2026-03-26T08:39:18.000Z</time>
      </trkpt>
      <trkpt lat="48.74208" lon="1.76724">
        <ele>192.7</ele>
        <time>2026-03-26T08:39:19.000Z</time>
      </trkpt>
      <trkpt lat="48.74208" lon="1.76722">
        <ele>192.4</ele>
        <time>2026-03-26T08:39:20.000Z</time>
      </trkpt>
      <trkpt lat="48.74208" lon="1.7672">
        <ele>192.6</ele>
        <time>2026-03-26T08:39:21.000Z</time>
      </trkpt>
      <trkpt lat="48.74208" lon="1.76719">
        <ele>192.4</ele>
        <time>2026-03-26T08:39:22.000Z</time>
      </trkpt>
      <trkpt lat="48.74208" lon="1.76717">
        <ele>192.3</ele>
        <time>2026-03-26T08:39:23.000Z</time>
      </trkpt>
      <trkpt lat="48.74208" lon="1.76715">
        <ele>192.2</ele>
        <time>2026-03-26T08:39:24.000Z</time>
      </trkpt>
      <trkpt lat="48.74209" lon="1.76713">
        <ele>191.9</ele>
        <time>2026-03-26T08:39:25.000Z</time>
      </trkpt>
      <trkpt lat="48.74209" lon="1.76711">
        <ele>192.1</ele>
        <time>2026-03-26T08:39:26.000Z</time>
      </trkpt>
      <trkpt lat="48.7421" lon="1.76709">
        <ele>191.9</ele>
        <time>2026-03-26T08:39:27.000Z</time>
      </trkpt>
      <trkpt lat="48.7421" lon="1.76708">
        <ele>191.5</ele>
        <time>2026-03-26T08:39:28.000Z</time>
      </trkpt>
      <trkpt lat="48.74211" lon="1.76706">
        <ele>191.5</ele>
        <time>2026-03-26T08:39:29.000Z</time>
      </trkpt>
      <trkpt lat="48.74211" lon="1.76704">
        <ele>191.4</ele>
        <time>2026-03-26T08:39:30.000Z</time>
      </trkpt>
      <trkpt lat="48.74212" lon="1.76702">
        <ele>191.6</ele>
        <time>2026-03-26T08:39:31.000Z</time>
      </trkpt>
      <trkpt lat="48.74212" lon="1.767">
        <ele>191.5</ele>
        <time>2026-03-26T08:39:32.000Z</time>
      </trkpt>
      <trkpt lat="48.74212" lon="1.76698">
        <ele>191.4</ele>
        <time>2026-03-26T08:39:33.000Z</time>
      </trkpt>
      <trkpt lat="48.74213" lon="1.76696">
        <ele>191.5</ele>
        <time>2026-03-26T08:39:34.000Z</time>
      </trkpt>
      <trkpt lat="48.74213" lon="1.76694">
        <ele>191.3</ele>
        <time>2026-03-26T08:39:35.000Z</time>
      </trkpt>
      <trkpt lat="48.74213" lon="1.76692">
        <ele>191.3</ele>
        <time>2026-03-26T08:39:36.000Z</time>
      </trkpt>
      <trkpt lat="48.74214" lon="1.7669">
        <ele>191.5</ele>
        <time>2026-03-26T08:39:37.000Z</time>
      </trkpt>
      <trkpt lat="48.74214" lon="1.76688">
        <ele>191.4</ele>
        <time>2026-03-26T08:39:38.000Z</time>
      </trkpt>
      <trkpt lat="48.74215" lon="1.76686">
        <ele>191.4</ele>
        <time>2026-03-26T08:39:39.000Z</time>
      </trkpt>
      <trkpt lat="48.74215" lon="1.76684">
        <ele>191.5</ele>
        <time>2026-03-26T08:39:40.000Z</time>
      </trkpt>
      <trkpt lat="48.74216" lon="1.76682">
        <ele>191.7</ele>
        <time>2026-03-26T08:39:41.000Z</time>
      </trkpt>
      <trkpt lat="48.74216" lon="1.7668">
        <ele>191.9</ele>
        <time>2026-03-26T08:39:42.000Z</time>
      </trkpt>
      <trkpt lat="48.74217" lon="1.76678">
        <ele>192</ele>
        <time>2026-03-26T08:39:43.000Z</time>
      </trkpt>
      <trkpt lat="48.74217" lon="1.76676">
        <ele>191.9</ele>
        <time>2026-03-26T08:39:44.000Z</time>
      </trkpt>
      <trkpt lat="48.74218" lon="1.76674">
        <ele>191.9</ele>
        <time>2026-03-26T08:39:45.000Z</time>
      </trkpt>
      <trkpt lat="48.74218" lon="1.76673">
        <ele>192</ele>
        <time>2026-03-26T08:39:46.000Z</time>
      </trkpt>
      <trkpt lat="48.74219" lon="1.76671">
        <ele>192.3</ele>
        <time>2026-03-26T08:39:47.000Z</time>
      </trkpt>
      <trkpt lat="48.74219" lon="1.76669">
        <ele>192.4</ele>
        <time>2026-03-26T08:39:48.000Z</time>
      </trkpt>
      <trkpt lat="48.74219" lon="1.76668">
        <ele>192.3</ele>
        <time>2026-03-26T08:39:49.000Z</time>
      </trkpt>
      <trkpt lat="48.7422" lon="1.76666">
        <ele>192.2</ele>
        <time>2026-03-26T08:39:50.000Z</time>
      </trkpt>
      <trkpt lat="48.74221" lon="1.76664">
        <ele>192.3</ele>
        <time>2026-03-26T08:39:51.000Z</time>
      </trkpt>
      <trkpt lat="48.74221" lon="1.76663">
        <ele>192.1</ele>
        <time>2026-03-26T08:39:52.000Z</time>
      </trkpt>
      <trkpt lat="48.74222" lon="1.76662">
        <ele>192.2</ele>
        <time>2026-03-26T08:39:53.000Z</time>
      </trkpt>
      <trkpt lat="48.74224" lon="1.76661">
        <ele>192.2</ele>
        <time>2026-03-26T08:39:54.000Z</time>
      </trkpt>
      <trkpt lat="48.74225" lon="1.76661">
        <ele>192.2</ele>
        <time>2026-03-26T08:39:55.000Z</time>
      </trkpt>
      <trkpt lat="48.74226" lon="1.76661">
        <ele>191.7</ele>
        <time>2026-03-26T08:39:56.000Z</time>
      </trkpt>
      <trkpt lat="48.74228" lon="1.76662">
        <ele>191.2</ele>
        <time>2026-03-26T08:39:57.000Z</time>
      </trkpt>
      <trkpt lat="48.74229" lon="1.76663">
        <ele>190.8</ele>
        <time>2026-03-26T08:39:58.000Z</time>
      </trkpt>
      <trkpt lat="48.7423" lon="1.76665">
        <ele>190.8</ele>
        <time>2026-03-26T08:39:59.000Z</time>
      </trkpt>
      <trkpt lat="48.74231" lon="1.76666">
        <ele>190.2</ele>
        <time>2026-03-26T08:40:00.000Z</time>
      </trkpt>
      <trkpt lat="48.74232" lon="1.76667">
        <ele>190.2</ele>
        <time>2026-03-26T08:40:01.000Z</time>
      </trkpt>
      <trkpt lat="48.74233" lon="1.76668">
        <ele>189.7</ele>
        <time>2026-03-26T08:40:02.000Z</time>
      </trkpt>
      <trkpt lat="48.74234" lon="1.76669">
        <ele>189.1</ele>
        <time>2026-03-26T08:40:03.000Z</time>
      </trkpt>
      <trkpt lat="48.74235" lon="1.7667">
        <ele>188.8</ele>
        <time>2026-03-26T08:40:04.000Z</time>
      </trkpt>
      <trkpt lat="48.74236" lon="1.76672">
        <ele>188.9</ele>
        <time>2026-03-26T08:40:05.000Z</time>
      </trkpt>
      <trkpt lat="48.74237" lon="1.76673">
        <ele>188.7</ele>
        <time>2026-03-26T08:40:06.000Z</time>
      </trkpt>
      <trkpt lat="48.74238" lon="1.76674">
        <ele>188.7</ele>
        <time>2026-03-26T08:40:07.000Z</time>
      </trkpt>
      <trkpt lat="48.74239" lon="1.76675">
        <ele>188.5</ele>
        <time>2026-03-26T08:40:08.000Z</time>
      </trkpt>
      <trkpt lat="48.7424" lon="1.76677">
        <ele>188.5</ele>
        <time>2026-03-26T08:40:09.000Z</time>
      </trkpt>
      <trkpt lat="48.74241" lon="1.76678">
        <ele>188.3</ele>
        <time>2026-03-26T08:40:10.000Z</time>
      </trkpt>
      <trkpt lat="48.74242" lon="1.76679">
        <ele>188.2</ele>
        <time>2026-03-26T08:40:11.000Z</time>
      </trkpt>
      <trkpt lat="48.74243" lon="1.76681">
        <ele>188</ele>
        <time>2026-03-26T08:40:12.000Z</time>
      </trkpt>
      <trkpt lat="48.74244" lon="1.76682">
        <ele>188.1</ele>
        <time>2026-03-26T08:40:13.000Z</time>
      </trkpt>
      <trkpt lat="48.74245" lon="1.76683">
        <ele>188.1</ele>
        <time>2026-03-26T08:40:14.000Z</time>
      </trkpt>
      <trkpt lat="48.74246" lon="1.76684">
        <ele>187.6</ele>
        <time>2026-03-26T08:40:15.000Z</time>
      </trkpt>
      <trkpt lat="48.74247" lon="1.76686">
        <ele>187.7</ele>
        <time>2026-03-26T08:40:16.000Z</time>
      </trkpt>
      <trkpt lat="48.74249" lon="1.76687">
        <ele>187.7</ele>
        <time>2026-03-26T08:40:17.000Z</time>
      </trkpt>
      <trkpt lat="48.7425" lon="1.76688">
        <ele>188.4</ele>
        <time>2026-03-26T08:40:18.000Z</time>
      </trkpt>
      <trkpt lat="48.74251" lon="1.7669">
        <ele>188.1</ele>
        <time>2026-03-26T08:40:19.000Z</time>
      </trkpt>
      <trkpt lat="48.74252" lon="1.76691">
        <ele>188</ele>
        <time>2026-03-26T08:40:20.000Z</time>
      </trkpt>
      <trkpt lat="48.74253" lon="1.76692">
        <ele>188</ele>
        <time>2026-03-26T08:40:21.000Z</time>
      </trkpt>
      <trkpt lat="48.74254" lon="1.76693">
        <ele>187.9</ele>
        <time>2026-03-26T08:40:22.000Z</time>
      </trkpt>
      <trkpt lat="48.74255" lon="1.76695">
        <ele>187.4</ele>
        <time>2026-03-26T08:40:23.000Z</time>
      </trkpt>
      <trkpt lat="48.74256" lon="1.76696">
        <ele>187.5</ele>
        <time>2026-03-26T08:40:24.000Z</time>
      </trkpt>
      <trkpt lat="48.74257" lon="1.76697">
        <ele>187.1</ele>
        <time>2026-03-26T08:40:25.000Z</time>
      </trkpt>
      <trkpt lat="48.74259" lon="1.76698">
        <ele>187.3</ele>
        <time>2026-03-26T08:40:26.000Z</time>
      </trkpt>
      <trkpt lat="48.7426" lon="1.76699">
        <ele>187.8</ele>
        <time>2026-03-26T08:40:27.000Z</time>
      </trkpt>
      <trkpt lat="48.74261" lon="1.767">
        <ele>187.9</ele>
        <time>2026-03-26T08:40:28.000Z</time>
      </trkpt>
      <trkpt lat="48.74262" lon="1.76701">
        <ele>188.3</ele>
        <time>2026-03-26T08:40:29.000Z</time>
      </trkpt>
      <trkpt lat="48.74263" lon="1.76703">
        <ele>188.3</ele>
        <time>2026-03-26T08:40:30.000Z</time>
      </trkpt>
      <trkpt lat="48.74264" lon="1.76704">
        <ele>188.3</ele>
        <time>2026-03-26T08:40:31.000Z</time>
      </trkpt>
      <trkpt lat="48.74265" lon="1.76706">
        <ele>188</ele>
        <time>2026-03-26T08:40:32.000Z</time>
      </trkpt>
      <trkpt lat="48.74267" lon="1.76707">
        <ele>188</ele>
        <time>2026-03-26T08:40:33.000Z</time>
      </trkpt>
      <trkpt lat="48.74268" lon="1.76708">
        <ele>188.3</ele>
        <time>2026-03-26T08:40:34.000Z</time>
      </trkpt>
      <trkpt lat="48.74269" lon="1.76709">
        <ele>188.5</ele>
        <time>2026-03-26T08:40:35.000Z</time>
      </trkpt>
      <trkpt lat="48.74271" lon="1.7671">
        <ele>188.3</ele>
        <time>2026-03-26T08:40:36.000Z</time>
      </trkpt>
      <trkpt lat="48.74272" lon="1.76712">
        <ele>188.6</ele>
        <time>2026-03-26T08:40:37.000Z</time>
      </trkpt>
      <trkpt lat="48.74273" lon="1.76713">
        <ele>188</ele>
        <time>2026-03-26T08:40:38.000Z</time>
      </trkpt>
      <trkpt lat="48.74274" lon="1.76714">
        <ele>187.7</ele>
        <time>2026-03-26T08:40:39.000Z</time>
      </trkpt>
      <trkpt lat="48.74275" lon="1.76715">
        <ele>188.3</ele>
        <time>2026-03-26T08:40:40.000Z</time>
      </trkpt>
      <trkpt lat="48.74277" lon="1.76716">
        <ele>188.5</ele>
        <time>2026-03-26T08:40:41.000Z</time>
      </trkpt>
      <trkpt lat="48.74278" lon="1.76718">
        <ele>189.1</ele>
        <time>2026-03-26T08:40:42.000Z</time>
      </trkpt>
      <trkpt lat="48.74279" lon="1.76719">
        <ele>188.5</ele>
        <time>2026-03-26T08:40:43.000Z</time>
      </trkpt>
      <trkpt lat="48.7428" lon="1.76721">
        <ele>188.9</ele>
        <time>2026-03-26T08:40:44.000Z</time>
      </trkpt>
      <trkpt lat="48.74281" lon="1.76722">
        <ele>188.7</ele>
        <time>2026-03-26T08:40:45.000Z</time>
      </trkpt>
      <trkpt lat="48.74283" lon="1.76723">
        <ele>189.6</ele>
        <time>2026-03-26T08:40:46.000Z</time>
      </trkpt>
      <trkpt lat="48.74284" lon="1.76724">
        <ele>188.6</ele>
        <time>2026-03-26T08:40:47.000Z</time>
      </trkpt>
      <trkpt lat="48.74285" lon="1.76726">
        <ele>189.4</ele>
        <time>2026-03-26T08:40:48.000Z</time>
      </trkpt>
      <trkpt lat="48.74286" lon="1.76726">
        <ele>189.3</ele>
        <time>2026-03-26T08:40:49.000Z</time>
      </trkpt>
      <trkpt lat="48.74288" lon="1.76727">
        <ele>189.1</ele>
        <time>2026-03-26T08:40:50.000Z</time>
      </trkpt>
      <trkpt lat="48.74289" lon="1.76729">
        <ele>189.7</ele>
        <time>2026-03-26T08:40:51.000Z</time>
      </trkpt>
      <trkpt lat="48.7429" lon="1.7673">
        <ele>190.3</ele>
        <time>2026-03-26T08:40:52.000Z</time>
      </trkpt>
      <trkpt lat="48.74291" lon="1.76731">
        <ele>190.7</ele>
        <time>2026-03-26T08:40:53.000Z</time>
      </trkpt>
      <trkpt lat="48.74293" lon="1.76732">
        <ele>189.8</ele>
        <time>2026-03-26T08:40:54.000Z</time>
      </trkpt>
      <trkpt lat="48.74294" lon="1.76733">
        <ele>190.5</ele>
        <time>2026-03-26T08:40:55.000Z</time>
      </trkpt>
      <trkpt lat="48.74295" lon="1.76734">
        <ele>190.7</ele>
        <time>2026-03-26T08:40:56.000Z</time>
      </trkpt>
      <trkpt lat="48.74296" lon="1.76735">
        <ele>191.6</ele>
        <time>2026-03-26T08:40:57.000Z</time>
      </trkpt>
      <trkpt lat="48.74296" lon="1.76737">
        <ele>192</ele>
        <time>2026-03-26T08:40:58.000Z</time>
      </trkpt>
      <trkpt lat="48.74297" lon="1.76737">
        <ele>191.8</ele>
        <time>2026-03-26T08:40:59.000Z</time>
      </trkpt>
      <trkpt lat="48.74297" lon="1.76737">
        <ele>191.8</ele>
        <time>2026-03-26T08:41:00.000Z</time>
      </trkpt>
      <trkpt lat="48.74297" lon="1.76737">
        <ele>191.8</ele>
        <time>2026-03-26T08:41:01.000Z</time>
      </trkpt>
      <trkpt lat="48.74297" lon="1.76737">
        <ele>191.8</ele>
        <time>2026-03-26T08:41:02.000Z</time>
      </trkpt>
      <trkpt lat="48.74297" lon="1.76737">
        <ele>191.6</ele>
        <time>2026-03-26T08:41:03.000Z</time>
      </trkpt>
      <trkpt lat="48.74298" lon="1.76737">
        <ele>192.2</ele>
        <time>2026-03-26T08:41:04.000Z</time>
      </trkpt>
      <trkpt lat="48.74298" lon="1.76738">
        <ele>193.1</ele>
        <time>2026-03-26T08:41:05.000Z</time>
      </trkpt>
      <trkpt lat="48.74299" lon="1.76738">
        <ele>193.3</ele>
        <time>2026-03-26T08:41:06.000Z</time>
      </trkpt>
      <trkpt lat="48.74299" lon="1.76738">
        <ele>193.3</ele>
        <time>2026-03-26T08:41:07.000Z</time>
      </trkpt>
      <trkpt lat="48.743" lon="1.76739">
        <ele>193.5</ele>
        <time>2026-03-26T08:41:08.000Z</time>
      </trkpt>
      <trkpt lat="48.74301" lon="1.7674">
        <ele>194.1</ele>
        <time>2026-03-26T08:41:09.000Z</time>
      </trkpt>
      <trkpt lat="48.74302" lon="1.76741">
        <ele>194</ele>
        <time>2026-03-26T08:41:10.000Z</time>
      </trkpt>
      <trkpt lat="48.74303" lon="1.76742">
        <ele>195</ele>
        <time>2026-03-26T08:41:11.000Z</time>
      </trkpt>
      <trkpt lat="48.74304" lon="1.76744">
        <ele>196.2</ele>
        <time>2026-03-26T08:41:12.000Z</time>
      </trkpt>
      <trkpt lat="48.74305" lon="1.76744">
        <ele>197.6</ele>
        <time>2026-03-26T08:41:13.000Z</time>
      </trkpt>
      <trkpt lat="48.74305" lon="1.76746">
        <ele>198.2</ele>
        <time>2026-03-26T08:41:14.000Z</time>
      </trkpt>
      <trkpt lat="48.74305" lon="1.76747">
        <ele>198.6</ele>
        <time>2026-03-26T08:41:15.000Z</time>
      </trkpt>
      <trkpt lat="48.74306" lon="1.76748">
        <ele>199.5</ele>
        <time>2026-03-26T08:41:16.000Z</time>
      </trkpt>
      <trkpt lat="48.74306" lon="1.76748">
        <ele>198.3</ele>
        <time>2026-03-26T08:41:17.000Z</time>
      </trkpt>
      <trkpt lat="48.74307" lon="1.76748">
        <ele>198.1</ele>
        <time>2026-03-26T08:41:18.000Z</time>
      </trkpt>
      <trkpt lat="48.74307" lon="1.76748">
        <ele>198</ele>
        <time>2026-03-26T08:41:19.000Z</time>
      </trkpt>
      <trkpt lat="48.74308" lon="1.76748">
        <ele>198</ele>
        <time>2026-03-26T08:41:20.000Z</time>
      </trkpt>
      <trkpt lat="48.74308" lon="1.76748">
        <ele>198</ele>
        <time>2026-03-26T08:41:21.000Z</time>
      </trkpt>
      <trkpt lat="48.74308" lon="1.76748">
        <ele>198</ele>
        <time>2026-03-26T08:41:22.000Z</time>
      </trkpt>
      <trkpt lat="48.74308" lon="1.76748">
        <ele>198</ele>
        <time>2026-03-26T08:41:23.000Z</time>
      </trkpt>
      <trkpt lat="48.74308" lon="1.76748">
        <ele>198</ele>
        <time>2026-03-26T08:41:24.000Z</time>
      </trkpt>
      <trkpt lat="48.74308" lon="1.76748">
        <ele>198</ele>
        <time>2026-03-26T08:41:25.000Z</time>
      </trkpt>
      <trkpt lat="48.74308" lon="1.76748">
        <ele>198</ele>
        <time>2026-03-26T08:41:26.000Z</time>
      </trkpt>
      <trkpt lat="48.74308" lon="1.76748">
        <ele>198</ele>
        <time>2026-03-26T08:41:27.000Z</time>
      </trkpt>
      <trkpt lat="48.74308" lon="1.76748">
        <ele>198</ele>
        <time>2026-03-26T08:41:28.000Z</time>
      </trkpt>
      <trkpt lat="48.74308" lon="1.76749">
        <ele>198.1</ele>
        <time>2026-03-26T08:41:29.000Z</time>
      </trkpt>
      <trkpt lat="48.74308" lon="1.76748">
        <ele>197.6</ele>
        <time>2026-03-26T08:41:30.000Z</time>
      </trkpt>
      <trkpt lat="48.74308" lon="1.76748">
        <ele>196.9</ele>
        <time>2026-03-26T08:41:31.000Z</time>
      </trkpt>
      <trkpt lat="48.74308" lon="1.76749">
        <ele>196.3</ele>
        <time>2026-03-26T08:41:32.000Z</time>
      </trkpt>
      <trkpt lat="48.74309" lon="1.76749">
        <ele>195.8</ele>
        <time>2026-03-26T08:41:33.000Z</time>
      </trkpt>
      <trkpt lat="48.7431" lon="1.7675">
        <ele>195.7</ele>
        <time>2026-03-26T08:41:34.000Z</time>
      </trkpt>
      <trkpt lat="48.7431" lon="1.7675">
        <ele>195.6</ele>
        <time>2026-03-26T08:41:35.000Z</time>
      </trkpt>
      <trkpt lat="48.74311" lon="1.76751">
        <ele>195.6</ele>
        <time>2026-03-26T08:41:36.000Z</time>
      </trkpt>
      <trkpt lat="48.74312" lon="1.76751">
        <ele>195.1</ele>
        <time>2026-03-26T08:41:37.000Z</time>
      </trkpt>
      <trkpt lat="48.74313" lon="1.76752">
        <ele>194.9</ele>
        <time>2026-03-26T08:41:38.000Z</time>
      </trkpt>
      <trkpt lat="48.74314" lon="1.76753">
        <ele>194.7</ele>
        <time>2026-03-26T08:41:39.000Z</time>
      </trkpt>
      <trkpt lat="48.74315" lon="1.76753">
        <ele>195.5</ele>
        <time>2026-03-26T08:41:40.000Z</time>
      </trkpt>
      <trkpt lat="48.74316" lon="1.76754">
        <ele>195.2</ele>
        <time>2026-03-26T08:41:41.000Z</time>
      </trkpt>
      <trkpt lat="48.74317" lon="1.76754">
        <ele>194.8</ele>
        <time>2026-03-26T08:41:42.000Z</time>
      </trkpt>
      <trkpt lat="48.74318" lon="1.76755">
        <ele>195.2</ele>
        <time>2026-03-26T08:41:43.000Z</time>
      </trkpt>
      <trkpt lat="48.74319" lon="1.76756">
        <ele>196</ele>
        <time>2026-03-26T08:41:44.000Z</time>
      </trkpt>
      <trkpt lat="48.7432" lon="1.76757">
        <ele>196.1</ele>
        <time>2026-03-26T08:41:45.000Z</time>
      </trkpt>
      <trkpt lat="48.7432" lon="1.76757">
        <ele>196.2</ele>
        <time>2026-03-26T08:41:46.000Z</time>
      </trkpt>
      <trkpt lat="48.74321" lon="1.76758">
        <ele>196.7</ele>
        <time>2026-03-26T08:41:47.000Z</time>
      </trkpt>
      <trkpt lat="48.74322" lon="1.76759">
        <ele>196.6</ele>
        <time>2026-03-26T08:41:48.000Z</time>
      </trkpt>
      <trkpt lat="48.74323" lon="1.7676">
        <ele>196.9</ele>
        <time>2026-03-26T08:41:49.000Z</time>
      </trkpt>
      <trkpt lat="48.74324" lon="1.76761">
        <ele>195.7</ele>
        <time>2026-03-26T08:41:50.000Z</time>
      </trkpt>
      <trkpt lat="48.74325" lon="1.76762">
        <ele>196.5</ele>
        <time>2026-03-26T08:41:51.000Z</time>
      </trkpt>
      <trkpt lat="48.74326" lon="1.76764">
        <ele>196.7</ele>
        <time>2026-03-26T08:41:52.000Z</time>
      </trkpt>
      <trkpt lat="48.74327" lon="1.76764">
        <ele>196.2</ele>
        <time>2026-03-26T08:41:53.000Z</time>
      </trkpt>
      <trkpt lat="48.74328" lon="1.76765">
        <ele>196.5</ele>
        <time>2026-03-26T08:41:54.000Z</time>
      </trkpt>
      <trkpt lat="48.74328" lon="1.76766">
        <ele>196.9</ele>
        <time>2026-03-26T08:41:55.000Z</time>
      </trkpt>
      <trkpt lat="48.74329" lon="1.76767">
        <ele>197.3</ele>
        <time>2026-03-26T08:41:56.000Z</time>
      </trkpt>
      <trkpt lat="48.7433" lon="1.76768">
        <ele>197.9</ele>
        <time>2026-03-26T08:41:57.000Z</time>
      </trkpt>
      <trkpt lat="48.7433" lon="1.76769">
        <ele>198.6</ele>
        <time>2026-03-26T08:41:58.000Z</time>
      </trkpt>
      <trkpt lat="48.74331" lon="1.7677">
        <ele>198.6</ele>
        <time>2026-03-26T08:41:59.000Z</time>
      </trkpt>
      <trkpt lat="48.74332" lon="1.76771">
        <ele>198.3</ele>
        <time>2026-03-26T08:42:00.000Z</time>
      </trkpt>
      <trkpt lat="48.74332" lon="1.76772">
        <ele>199.1</ele>
        <time>2026-03-26T08:42:01.000Z</time>
      </trkpt>
      <trkpt lat="48.74333" lon="1.76772">
        <ele>198.9</ele>
        <time>2026-03-26T08:42:02.000Z</time>
      </trkpt>
      <trkpt lat="48.74334" lon="1.76773">
        <ele>200</ele>
        <time>2026-03-26T08:42:03.000Z</time>
      </trkpt>
      <trkpt lat="48.74334" lon="1.76774">
        <ele>200.7</ele>
        <time>2026-03-26T08:42:04.000Z</time>
      </trkpt>
      <trkpt lat="48.74335" lon="1.76775">
        <ele>201.1</ele>
        <time>2026-03-26T08:42:05.000Z</time>
      </trkpt>
      <trkpt lat="48.74336" lon="1.76775">
        <ele>202.2</ele>
        <time>2026-03-26T08:42:06.000Z</time>
      </trkpt>
      <trkpt lat="48.74337" lon="1.76776">
        <ele>202.8</ele>
        <time>2026-03-26T08:42:07.000Z</time>
      </trkpt>
      <trkpt lat="48.74338" lon="1.76776">
        <ele>202.6</ele>
        <time>2026-03-26T08:42:08.000Z</time>
      </trkpt>
      <trkpt lat="48.74339" lon="1.76777">
        <ele>203.2</ele>
        <time>2026-03-26T08:42:09.000Z</time>
      </trkpt>
      <trkpt lat="48.7434" lon="1.76777">
        <ele>203.6</ele>
        <time>2026-03-26T08:42:10.000Z</time>
      </trkpt>
      <trkpt lat="48.7434" lon="1.76777">
        <ele>203.5</ele>
        <time>2026-03-26T08:42:11.000Z</time>
      </trkpt>
      <trkpt lat="48.74341" lon="1.76778">
        <ele>203.6</ele>
        <time>2026-03-26T08:42:12.000Z</time>
      </trkpt>
      <trkpt lat="48.74342" lon="1.7678">
        <ele>201.3</ele>
        <time>2026-03-26T08:42:13.000Z</time>
      </trkpt>
      <trkpt lat="48.74342" lon="1.76781">
        <ele>200.7</ele>
        <time>2026-03-26T08:42:14.000Z</time>
      </trkpt>
      <trkpt lat="48.74343" lon="1.76782">
        <ele>200.5</ele>
        <time>2026-03-26T08:42:15.000Z</time>
      </trkpt>
      <trkpt lat="48.74343" lon="1.76782">
        <ele>201.1</ele>
        <time>2026-03-26T08:42:16.000Z</time>
      </trkpt>
      <trkpt lat="48.74344" lon="1.76783">
        <ele>201</ele>
        <time>2026-03-26T08:42:17.000Z</time>
      </trkpt>
      <trkpt lat="48.74345" lon="1.76784">
        <ele>201.4</ele>
        <time>2026-03-26T08:42:18.000Z</time>
      </trkpt>
      <trkpt lat="48.74346" lon="1.76785">
        <ele>202.1</ele>
        <time>2026-03-26T08:42:19.000Z</time>
      </trkpt>
      <trkpt lat="48.74347" lon="1.76786">
        <ele>202.7</ele>
        <time>2026-03-26T08:42:20.000Z</time>
      </trkpt>
      <trkpt lat="48.74348" lon="1.76786">
        <ele>203.4</ele>
        <time>2026-03-26T08:42:21.000Z</time>
      </trkpt>
      <trkpt lat="48.74349" lon="1.76787">
        <ele>204.4</ele>
        <time>2026-03-26T08:42:22.000Z</time>
      </trkpt>
      <trkpt lat="48.74349" lon="1.76788">
        <ele>205.1</ele>
        <time>2026-03-26T08:42:23.000Z</time>
      </trkpt>
      <trkpt lat="48.7435" lon="1.76788">
        <ele>205.8</ele>
        <time>2026-03-26T08:42:24.000Z</time>
      </trkpt>
      <trkpt lat="48.74351" lon="1.76789">
        <ele>206.7</ele>
        <time>2026-03-26T08:42:25.000Z</time>
      </trkpt>
      <trkpt lat="48.74352" lon="1.7679">
        <ele>207.4</ele>
        <time>2026-03-26T08:42:26.000Z</time>
      </trkpt>
      <trkpt lat="48.74352" lon="1.7679">
        <ele>206.7</ele>
        <time>2026-03-26T08:42:27.000Z</time>
      </trkpt>
      <trkpt lat="48.74353" lon="1.7679">
        <ele>207</ele>
        <time>2026-03-26T08:42:28.000Z</time>
      </trkpt>
      <trkpt lat="48.74354" lon="1.7679">
        <ele>207.7</ele>
        <time>2026-03-26T08:42:29.000Z</time>
      </trkpt>
      <trkpt lat="48.74355" lon="1.76791">
        <ele>207.8</ele>
        <time>2026-03-26T08:42:30.000Z</time>
      </trkpt>
      <trkpt lat="48.74355" lon="1.76791">
        <ele>207.7</ele>
        <time>2026-03-26T08:42:31.000Z</time>
      </trkpt>
      <trkpt lat="48.74356" lon="1.76792">
        <ele>208.4</ele>
        <time>2026-03-26T08:42:32.000Z</time>
      </trkpt>
      <trkpt lat="48.74356" lon="1.76793">
        <ele>207.8</ele>
        <time>2026-03-26T08:42:33.000Z</time>
      </trkpt>
      <trkpt lat="48.74357" lon="1.76793">
        <ele>208</ele>
        <time>2026-03-26T08:42:34.000Z</time>
      </trkpt>
      <trkpt lat="48.74357" lon="1.76794">
        <ele>208</ele>
        <time>2026-03-26T08:42:35.000Z</time>
      </trkpt>
      <trkpt lat="48.74357" lon="1.76795">
        <ele>209</ele>
        <time>2026-03-26T08:42:36.000Z</time>
      </trkpt>
      <trkpt lat="48.74358" lon="1.76796">
        <ele>208.9</ele>
        <time>2026-03-26T08:42:37.000Z</time>
      </trkpt>
      <trkpt lat="48.74359" lon="1.76796">
        <ele>208.3</ele>
        <time>2026-03-26T08:42:38.000Z</time>
      </trkpt>
      <trkpt lat="48.7436" lon="1.76797">
        <ele>208</ele>
        <time>2026-03-26T08:42:39.000Z</time>
      </trkpt>
      <trkpt lat="48.74361" lon="1.76798">
        <ele>207.6</ele>
        <time>2026-03-26T08:42:40.000Z</time>
      </trkpt>
      <trkpt lat="48.74361" lon="1.76799">
        <ele>207.8</ele>
        <time>2026-03-26T08:42:41.000Z</time>
      </trkpt>
      <trkpt lat="48.74362" lon="1.768">
        <ele>208.7</ele>
        <time>2026-03-26T08:42:42.000Z</time>
      </trkpt>
      <trkpt lat="48.74363" lon="1.768">
        <ele>209.6</ele>
        <time>2026-03-26T08:42:43.000Z</time>
      </trkpt>
      <trkpt lat="48.74364" lon="1.76801">
        <ele>209.9</ele>
        <time>2026-03-26T08:42:44.000Z</time>
      </trkpt>
      <trkpt lat="48.74365" lon="1.76801">
        <ele>210.5</ele>
        <time>2026-03-26T08:42:45.000Z</time>
      </trkpt>
      <trkpt lat="48.74366" lon="1.76802">
        <ele>209.5</ele>
        <time>2026-03-26T08:42:46.000Z</time>
      </trkpt>
      <trkpt lat="48.74367" lon="1.76802">
        <ele>211.2</ele>
        <time>2026-03-26T08:42:47.000Z</time>
      </trkpt>
      <trkpt lat="48.74367" lon="1.76803">
        <ele>211.6</ele>
        <time>2026-03-26T08:42:48.000Z</time>
      </trkpt>
      <trkpt lat="48.74368" lon="1.76804">
        <ele>212.3</ele>
        <time>2026-03-26T08:42:49.000Z</time>
      </trkpt>
      <trkpt lat="48.74368" lon="1.76804">
        <ele>213.3</ele>
        <time>2026-03-26T08:42:50.000Z</time>
      </trkpt>
      <trkpt lat="48.74369" lon="1.76805">
        <ele>214</ele>
        <time>2026-03-26T08:42:51.000Z</time>
      </trkpt>
      <trkpt lat="48.7437" lon="1.76806">
        <ele>213.9</ele>
        <time>2026-03-26T08:42:52.000Z</time>
      </trkpt>
      <trkpt lat="48.7437" lon="1.76806">
        <ele>213.8</ele>
        <time>2026-03-26T08:42:53.000Z</time>
      </trkpt>
      <trkpt lat="48.74371" lon="1.76806">
        <ele>214.7</ele>
        <time>2026-03-26T08:42:54.000Z</time>
      </trkpt>
      <trkpt lat="48.74371" lon="1.76807">
        <ele>214.9</ele>
        <time>2026-03-26T08:42:55.000Z</time>
      </trkpt>
      <trkpt lat="48.74372" lon="1.76807">
        <ele>215.5</ele>
        <time>2026-03-26T08:42:56.000Z</time>
      </trkpt>
      <trkpt lat="48.74372" lon="1.76808">
        <ele>215.3</ele>
        <time>2026-03-26T08:42:57.000Z</time>
      </trkpt>
      <trkpt lat="48.74373" lon="1.76808">
        <ele>215.9</ele>
        <time>2026-03-26T08:42:58.000Z</time>
      </trkpt>
      <trkpt lat="48.74373" lon="1.76809">
        <ele>216.1</ele>
        <time>2026-03-26T08:42:59.000Z</time>
      </trkpt>
      <trkpt lat="48.74374" lon="1.7681">
        <ele>217.4</ele>
        <time>2026-03-26T08:43:00.000Z</time>
      </trkpt>
      <trkpt lat="48.74375" lon="1.76811">
        <ele>217.3</ele>
        <time>2026-03-26T08:43:01.000Z</time>
      </trkpt>
      <trkpt lat="48.74375" lon="1.76811">
        <ele>217.2</ele>
        <time>2026-03-26T08:43:02.000Z</time>
      </trkpt>
      <trkpt lat="48.74376" lon="1.76813">
        <ele>217.8</ele>
        <time>2026-03-26T08:43:03.000Z</time>
      </trkpt>
      <trkpt lat="48.74376" lon="1.76813">
        <ele>218.6</ele>
        <time>2026-03-26T08:43:04.000Z</time>
      </trkpt>
      <trkpt lat="48.74377" lon="1.76815">
        <ele>218.5</ele>
        <time>2026-03-26T08:43:05.000Z</time>
      </trkpt>
      <trkpt lat="48.74377" lon="1.76816">
        <ele>217.4</ele>
        <time>2026-03-26T08:43:06.000Z</time>
      </trkpt>
      <trkpt lat="48.74377" lon="1.76816">
        <ele>217.6</ele>
        <time>2026-03-26T08:43:07.000Z</time>
      </trkpt>
      <trkpt lat="48.74378" lon="1.76817">
        <ele>217.9</ele>
        <time>2026-03-26T08:43:08.000Z</time>
      </trkpt>
      <trkpt lat="48.74378" lon="1.76817">
        <ele>217.9</ele>
        <time>2026-03-26T08:43:09.000Z</time>
      </trkpt>
      <trkpt lat="48.74378" lon="1.76818">
        <ele>217.8</ele>
        <time>2026-03-26T08:43:10.000Z</time>
      </trkpt>
      <trkpt lat="48.74378" lon="1.76819">
        <ele>217.3</ele>
        <time>2026-03-26T08:43:11.000Z</time>
      </trkpt>
      <trkpt lat="48.74379" lon="1.76819">
        <ele>216.2</ele>
        <time>2026-03-26T08:43:12.000Z</time>
      </trkpt>
      <trkpt lat="48.74379" lon="1.7682">
        <ele>217</ele>
        <time>2026-03-26T08:43:13.000Z</time>
      </trkpt>
      <trkpt lat="48.7438" lon="1.76821">
        <ele>217.6</ele>
        <time>2026-03-26T08:43:14.000Z</time>
      </trkpt>
      <trkpt lat="48.74381" lon="1.76821">
        <ele>218.1</ele>
        <time>2026-03-26T08:43:15.000Z</time>
      </trkpt>
      <trkpt lat="48.74381" lon="1.76822">
        <ele>218.1</ele>
        <time>2026-03-26T08:43:16.000Z</time>
      </trkpt>
      <trkpt lat="48.74382" lon="1.76822">
        <ele>217.9</ele>
        <time>2026-03-26T08:43:17.000Z</time>
      </trkpt>
      <trkpt lat="48.74382" lon="1.76822">
        <ele>219</ele>
        <time>2026-03-26T08:43:18.000Z</time>
      </trkpt>
      <trkpt lat="48.74383" lon="1.76823">
        <ele>220</ele>
        <time>2026-03-26T08:43:19.000Z</time>
      </trkpt>
      <trkpt lat="48.74383" lon="1.76823">
        <ele>220.6</ele>
        <time>2026-03-26T08:43:20.000Z</time>
      </trkpt>
      <trkpt lat="48.74384" lon="1.76824">
        <ele>221.3</ele>
        <time>2026-03-26T08:43:21.000Z</time>
      </trkpt>
      <trkpt lat="48.74385" lon="1.76824">
        <ele>221.8</ele>
        <time>2026-03-26T08:43:22.000Z</time>
      </trkpt>
      <trkpt lat="48.74385" lon="1.76825">
        <ele>222.2</ele>
        <time>2026-03-26T08:43:23.000Z</time>
      </trkpt>
      <trkpt lat="48.74385" lon="1.76826">
        <ele>222.5</ele>
        <time>2026-03-26T08:43:24.000Z</time>
      </trkpt>
      <trkpt lat="48.74386" lon="1.76826">
        <ele>222.8</ele>
        <time>2026-03-26T08:43:25.000Z</time>
      </trkpt>
      <trkpt lat="48.74386" lon="1.76828">
        <ele>222.1</ele>
        <time>2026-03-26T08:43:26.000Z</time>
      </trkpt>
      <trkpt lat="48.74387" lon="1.76829">
        <ele>223.1</ele>
        <time>2026-03-26T08:43:27.000Z</time>
      </trkpt>
      <trkpt lat="48.74387" lon="1.76829">
        <ele>223.7</ele>
        <time>2026-03-26T08:43:28.000Z</time>
      </trkpt>
      <trkpt lat="48.74387" lon="1.76828">
        <ele>223.7</ele>
        <time>2026-03-26T08:43:29.000Z</time>
      </trkpt>
      <trkpt lat="48.74388" lon="1.76829">
        <ele>222.9</ele>
        <time>2026-03-26T08:43:30.000Z</time>
      </trkpt>
      <trkpt lat="48.74389" lon="1.7683">
        <ele>222.9</ele>
        <time>2026-03-26T08:43:31.000Z</time>
      </trkpt>
      <trkpt lat="48.74389" lon="1.7683">
        <ele>224.5</ele>
        <time>2026-03-26T08:43:32.000Z</time>
      </trkpt>
      <trkpt lat="48.74389" lon="1.76831">
        <ele>223.5</ele>
        <time>2026-03-26T08:43:33.000Z</time>
      </trkpt>
      <trkpt lat="48.7439" lon="1.76832">
        <ele>222.6</ele>
        <time>2026-03-26T08:43:34.000Z</time>
      </trkpt>
      <trkpt lat="48.7439" lon="1.76833">
        <ele>223</ele>
        <time>2026-03-26T08:43:35.000Z</time>
      </trkpt>
      <trkpt lat="48.7439" lon="1.76833">
        <ele>222</ele>
        <time>2026-03-26T08:43:36.000Z</time>
      </trkpt>
      <trkpt lat="48.7439" lon="1.76834">
        <ele>222.1</ele>
        <time>2026-03-26T08:43:37.000Z</time>
      </trkpt>
      <trkpt lat="48.7439" lon="1.76834">
        <ele>222.3</ele>
        <time>2026-03-26T08:43:38.000Z</time>
      </trkpt>
      <trkpt lat="48.74391" lon="1.76834">
        <ele>221.6</ele>
        <time>2026-03-26T08:43:39.000Z</time>
      </trkpt>
      <trkpt lat="48.74391" lon="1.76834">
        <ele>222.1</ele>
        <time>2026-03-26T08:43:40.000Z</time>
      </trkpt>
      <trkpt lat="48.74391" lon="1.76835">
        <ele>221.9</ele>
        <time>2026-03-26T08:43:41.000Z</time>
      </trkpt>
      <trkpt lat="48.74392" lon="1.76835">
        <ele>221.6</ele>
        <time>2026-03-26T08:43:42.000Z</time>
      </trkpt>
      <trkpt lat="48.74392" lon="1.76835">
        <ele>221.8</ele>
        <time>2026-03-26T08:43:43.000Z</time>
      </trkpt>
      <trkpt lat="48.74393" lon="1.76835">
        <ele>222.1</ele>
        <time>2026-03-26T08:43:44.000Z</time>
      </trkpt>
      <trkpt lat="48.74393" lon="1.76836">
        <ele>222.2</ele>
        <time>2026-03-26T08:43:45.000Z</time>
      </trkpt>
      <trkpt lat="48.74394" lon="1.76837">
        <ele>221.8</ele>
        <time>2026-03-26T08:43:46.000Z</time>
      </trkpt>
      <trkpt lat="48.74394" lon="1.76838">
        <ele>221.2</ele>
        <time>2026-03-26T08:43:47.000Z</time>
      </trkpt>
      <trkpt lat="48.74394" lon="1.76839">
        <ele>221.3</ele>
        <time>2026-03-26T08:43:48.000Z</time>
      </trkpt>
      <trkpt lat="48.74395" lon="1.76839">
        <ele>221.6</ele>
        <time>2026-03-26T08:43:49.000Z</time>
      </trkpt>
      <trkpt lat="48.74395" lon="1.76839">
        <ele>222.2</ele>
        <time>2026-03-26T08:43:50.000Z</time>
      </trkpt>
      <trkpt lat="48.74396" lon="1.76839">
        <ele>222.6</ele>
        <time>2026-03-26T08:43:51.000Z</time>
      </trkpt>
      <trkpt lat="48.74397" lon="1.76839">
        <ele>223.4</ele>
        <time>2026-03-26T08:43:52.000Z</time>
      </trkpt>
      <trkpt lat="48.74397" lon="1.7684">
        <ele>223.4</ele>
        <time>2026-03-26T08:43:53.000Z</time>
      </trkpt>
      <trkpt lat="48.74398" lon="1.76839">
        <ele>223</ele>
        <time>2026-03-26T08:43:54.000Z</time>
      </trkpt>
      <trkpt lat="48.74398" lon="1.76839">
        <ele>222.8</ele>
        <time>2026-03-26T08:43:55.000Z</time>
      </trkpt>
      <trkpt lat="48.744" lon="1.76839">
        <ele>223.2</ele>
        <time>2026-03-26T08:43:56.000Z</time>
      </trkpt>
      <trkpt lat="48.744" lon="1.76838">
        <ele>222.8</ele>
        <time>2026-03-26T08:43:57.000Z</time>
      </trkpt>
      <trkpt lat="48.74401" lon="1.76838">
        <ele>222.1</ele>
        <time>2026-03-26T08:43:58.000Z</time>
      </trkpt>
      <trkpt lat="48.74401" lon="1.76836">
        <ele>223</ele>
        <time>2026-03-26T08:43:59.000Z</time>
      </trkpt>
      <trkpt lat="48.74401" lon="1.76835">
        <ele>221.8</ele>
        <time>2026-03-26T08:44:00.000Z</time>
      </trkpt>
      <trkpt lat="48.74402" lon="1.76835">
        <ele>222</ele>
        <time>2026-03-26T08:44:01.000Z</time>
      </trkpt>
      <trkpt lat="48.74402" lon="1.76834">
        <ele>222.3</ele>
        <time>2026-03-26T08:44:02.000Z</time>
      </trkpt>
      <trkpt lat="48.74402" lon="1.76835">
        <ele>222.2</ele>
        <time>2026-03-26T08:44:03.000Z</time>
      </trkpt>
      <trkpt lat="48.74402" lon="1.76833">
        <ele>222.6</ele>
        <time>2026-03-26T08:44:04.000Z</time>
      </trkpt>
      <trkpt lat="48.74402" lon="1.76832">
        <ele>222.5</ele>
        <time>2026-03-26T08:44:05.000Z</time>
      </trkpt>
      <trkpt lat="48.74403" lon="1.76831">
        <ele>222.8</ele>
        <time>2026-03-26T08:44:06.000Z</time>
      </trkpt>
      <trkpt lat="48.74404" lon="1.7683">
        <ele>223</ele>
        <time>2026-03-26T08:44:07.000Z</time>
      </trkpt>
      <trkpt lat="48.74404" lon="1.7683">
        <ele>222.8</ele>
        <time>2026-03-26T08:44:08.000Z</time>
      </trkpt>
      <trkpt lat="48.74405" lon="1.76829">
        <ele>223.3</ele>
        <time>2026-03-26T08:44:09.000Z</time>
      </trkpt>
      <trkpt lat="48.74405" lon="1.76827">
        <ele>223.3</ele>
        <time>2026-03-26T08:44:10.000Z</time>
      </trkpt>
      <trkpt lat="48.74405" lon="1.76826">
        <ele>223</ele>
        <time>2026-03-26T08:44:11.000Z</time>
      </trkpt>
      <trkpt lat="48.74406" lon="1.76825">
        <ele>223.1</ele>
        <time>2026-03-26T08:44:12.000Z</time>
      </trkpt>
      <trkpt lat="48.74407" lon="1.76824">
        <ele>223.1</ele>
        <time>2026-03-26T08:44:13.000Z</time>
      </trkpt>
      <trkpt lat="48.74407" lon="1.76823">
        <ele>223</ele>
        <time>2026-03-26T08:44:14.000Z</time>
      </trkpt>
      <trkpt lat="48.74408" lon="1.76822">
        <ele>223.1</ele>
        <time>2026-03-26T08:44:15.000Z</time>
      </trkpt>
      <trkpt lat="48.74409" lon="1.76821">
        <ele>223.1</ele>
        <time>2026-03-26T08:44:16.000Z</time>
      </trkpt>
      <trkpt lat="48.74409" lon="1.7682">
        <ele>223.2</ele>
        <time>2026-03-26T08:44:17.000Z</time>
      </trkpt>
      <trkpt lat="48.7441" lon="1.76819">
        <ele>223.2</ele>
        <time>2026-03-26T08:44:18.000Z</time>
      </trkpt>
      <trkpt lat="48.7441" lon="1.76817">
        <ele>223.9</ele>
        <time>2026-03-26T08:44:19.000Z</time>
      </trkpt>
      <trkpt lat="48.74411" lon="1.76816">
        <ele>224</ele>
        <time>2026-03-26T08:44:20.000Z</time>
      </trkpt>
      <trkpt lat="48.74411" lon="1.76816">
        <ele>223.6</ele>
        <time>2026-03-26T08:44:21.000Z</time>
      </trkpt>
      <trkpt lat="48.74412" lon="1.76815">
        <ele>223.5</ele>
        <time>2026-03-26T08:44:22.000Z</time>
      </trkpt>
      <trkpt lat="48.74412" lon="1.76814">
        <ele>223.3</ele>
        <time>2026-03-26T08:44:23.000Z</time>
      </trkpt>
      <trkpt lat="48.74413" lon="1.76813">
        <ele>223.4</ele>
        <time>2026-03-26T08:44:24.000Z</time>
      </trkpt>
      <trkpt lat="48.74413" lon="1.76812">
        <ele>223.3</ele>
        <time>2026-03-26T08:44:25.000Z</time>
      </trkpt>
      <trkpt lat="48.74414" lon="1.76812">
        <ele>223.4</ele>
        <time>2026-03-26T08:44:26.000Z</time>
      </trkpt>
      <trkpt lat="48.74415" lon="1.7681">
        <ele>223.4</ele>
        <time>2026-03-26T08:44:27.000Z</time>
      </trkpt>
      <trkpt lat="48.74415" lon="1.76809">
        <ele>223.3</ele>
        <time>2026-03-26T08:44:28.000Z</time>
      </trkpt>
      <trkpt lat="48.74416" lon="1.76809">
        <ele>223.1</ele>
        <time>2026-03-26T08:44:29.000Z</time>
      </trkpt>
      <trkpt lat="48.74417" lon="1.76808">
        <ele>223</ele>
        <time>2026-03-26T08:44:30.000Z</time>
      </trkpt>
      <trkpt lat="48.74417" lon="1.76807">
        <ele>223.2</ele>
        <time>2026-03-26T08:44:31.000Z</time>
      </trkpt>
      <trkpt lat="48.74418" lon="1.76806">
        <ele>223.5</ele>
        <time>2026-03-26T08:44:32.000Z</time>
      </trkpt>
      <trkpt lat="48.74418" lon="1.76806">
        <ele>223.7</ele>
        <time>2026-03-26T08:44:33.000Z</time>
      </trkpt>
      <trkpt lat="48.74419" lon="1.76805">
        <ele>223.5</ele>
        <time>2026-03-26T08:44:34.000Z</time>
      </trkpt>
      <trkpt lat="48.74419" lon="1.76805">
        <ele>223.3</ele>
        <time>2026-03-26T08:44:35.000Z</time>
      </trkpt>
      <trkpt lat="48.7442" lon="1.76803">
        <ele>223.8</ele>
        <time>2026-03-26T08:44:36.000Z</time>
      </trkpt>
      <trkpt lat="48.7442" lon="1.76801">
        <ele>224.5</ele>
        <time>2026-03-26T08:44:37.000Z</time>
      </trkpt>
      <trkpt lat="48.74421" lon="1.768">
        <ele>225.1</ele>
        <time>2026-03-26T08:44:38.000Z</time>
      </trkpt>
      <trkpt lat="48.74422" lon="1.76799">
        <ele>224.7</ele>
        <time>2026-03-26T08:44:39.000Z</time>
      </trkpt>
      <trkpt lat="48.74423" lon="1.76797">
        <ele>224.6</ele>
        <time>2026-03-26T08:44:40.000Z</time>
      </trkpt>
      <trkpt lat="48.74424" lon="1.76796">
        <ele>224.5</ele>
        <time>2026-03-26T08:44:41.000Z</time>
      </trkpt>
      <trkpt lat="48.74425" lon="1.76795">
        <ele>225</ele>
        <time>2026-03-26T08:44:42.000Z</time>
      </trkpt>
      <trkpt lat="48.74426" lon="1.76793">
        <ele>226.3</ele>
        <time>2026-03-26T08:44:43.000Z</time>
      </trkpt>
      <trkpt lat="48.74427" lon="1.76791">
        <ele>226.7</ele>
        <time>2026-03-26T08:44:44.000Z</time>
      </trkpt>
      <trkpt lat="48.74427" lon="1.7679">
        <ele>226.7</ele>
        <time>2026-03-26T08:44:45.000Z</time>
      </trkpt>
      <trkpt lat="48.74428" lon="1.76789">
        <ele>226.4</ele>
        <time>2026-03-26T08:44:46.000Z</time>
      </trkpt>
      <trkpt lat="48.7443" lon="1.76788">
        <ele>226.2</ele>
        <time>2026-03-26T08:44:47.000Z</time>
      </trkpt>
      <trkpt lat="48.74431" lon="1.76787">
        <ele>226.4</ele>
        <time>2026-03-26T08:44:48.000Z</time>
      </trkpt>
      <trkpt lat="48.74431" lon="1.76786">
        <ele>226.1</ele>
        <time>2026-03-26T08:44:49.000Z</time>
      </trkpt>
      <trkpt lat="48.74432" lon="1.76785">
        <ele>226</ele>
        <time>2026-03-26T08:44:50.000Z</time>
      </trkpt>
      <trkpt lat="48.74433" lon="1.76783">
        <ele>226.1</ele>
        <time>2026-03-26T08:44:51.000Z</time>
      </trkpt>
      <trkpt lat="48.74434" lon="1.76782">
        <ele>226.1</ele>
        <time>2026-03-26T08:44:52.000Z</time>
      </trkpt>
      <trkpt lat="48.74435" lon="1.76782">
        <ele>226</ele>
        <time>2026-03-26T08:44:53.000Z</time>
      </trkpt>
      <trkpt lat="48.74436" lon="1.7678">
        <ele>226.1</ele>
        <time>2026-03-26T08:44:54.000Z</time>
      </trkpt>
      <trkpt lat="48.74438" lon="1.76779">
        <ele>226.1</ele>
        <time>2026-03-26T08:44:55.000Z</time>
      </trkpt>
      <trkpt lat="48.74439" lon="1.76778">
        <ele>225.9</ele>
        <time>2026-03-26T08:44:56.000Z</time>
      </trkpt>
      <trkpt lat="48.7444" lon="1.76777">
        <ele>226.1</ele>
        <time>2026-03-26T08:44:57.000Z</time>
      </trkpt>
      <trkpt lat="48.7444" lon="1.76775">
        <ele>225.9</ele>
        <time>2026-03-26T08:44:58.000Z</time>
      </trkpt>
      <trkpt lat="48.74441" lon="1.76773">
        <ele>225.6</ele>
        <time>2026-03-26T08:44:59.000Z</time>
      </trkpt>
      <trkpt lat="48.74442" lon="1.76772">
        <ele>225.7</ele>
        <time>2026-03-26T08:45:00.000Z</time>
      </trkpt>
      <trkpt lat="48.74443" lon="1.76771">
        <ele>225.8</ele>
        <time>2026-03-26T08:45:01.000Z</time>
      </trkpt>
      <trkpt lat="48.74443" lon="1.76769">
        <ele>226</ele>
        <time>2026-03-26T08:45:02.000Z</time>
      </trkpt>
      <trkpt lat="48.74444" lon="1.76767">
        <ele>225.8</ele>
        <time>2026-03-26T08:45:03.000Z</time>
      </trkpt>
      <trkpt lat="48.74445" lon="1.76766">
        <ele>226.2</ele>
        <time>2026-03-26T08:45:04.000Z</time>
      </trkpt>
      <trkpt lat="48.74446" lon="1.76764">
        <ele>226.4</ele>
        <time>2026-03-26T08:45:05.000Z</time>
      </trkpt>
      <trkpt lat="48.74446" lon="1.76762">
        <ele>226.9</ele>
        <time>2026-03-26T08:45:06.000Z</time>
      </trkpt>
      <trkpt lat="48.74447" lon="1.7676">
        <ele>227.4</ele>
        <time>2026-03-26T08:45:07.000Z</time>
      </trkpt>
      <trkpt lat="48.74448" lon="1.76759">
        <ele>227.1</ele>
        <time>2026-03-26T08:45:08.000Z</time>
      </trkpt>
      <trkpt lat="48.74448" lon="1.76757">
        <ele>227.2</ele>
        <time>2026-03-26T08:45:09.000Z</time>
      </trkpt>
      <trkpt lat="48.74449" lon="1.76755">
        <ele>227.7</ele>
        <time>2026-03-26T08:45:10.000Z</time>
      </trkpt>
      <trkpt lat="48.7445" lon="1.76754">
        <ele>227.5</ele>
        <time>2026-03-26T08:45:11.000Z</time>
      </trkpt>
      <trkpt lat="48.74451" lon="1.76753">
        <ele>227.5</ele>
        <time>2026-03-26T08:45:12.000Z</time>
      </trkpt>
      <trkpt lat="48.74452" lon="1.76752">
        <ele>227.6</ele>
        <time>2026-03-26T08:45:13.000Z</time>
      </trkpt>
      <trkpt lat="48.74453" lon="1.76751">
        <ele>227.7</ele>
        <time>2026-03-26T08:45:14.000Z</time>
      </trkpt>
      <trkpt lat="48.74454" lon="1.7675">
        <ele>227.6</ele>
        <time>2026-03-26T08:45:15.000Z</time>
      </trkpt>
      <trkpt lat="48.74455" lon="1.76748">
        <ele>227.8</ele>
        <time>2026-03-26T08:45:16.000Z</time>
      </trkpt>
      <trkpt lat="48.74456" lon="1.76747">
        <ele>227.8</ele>
        <time>2026-03-26T08:45:17.000Z</time>
      </trkpt>
      <trkpt lat="48.74457" lon="1.76746">
        <ele>227.9</ele>
        <time>2026-03-26T08:45:18.000Z</time>
      </trkpt>
      <trkpt lat="48.74457" lon="1.76745">
        <ele>228</ele>
        <time>2026-03-26T08:45:19.000Z</time>
      </trkpt>
      <trkpt lat="48.74458" lon="1.76743">
        <ele>228.4</ele>
        <time>2026-03-26T08:45:20.000Z</time>
      </trkpt>
      <trkpt lat="48.74459" lon="1.76742">
        <ele>228.7</ele>
        <time>2026-03-26T08:45:21.000Z</time>
      </trkpt>
      <trkpt lat="48.7446" lon="1.76741">
        <ele>228.3</ele>
        <time>2026-03-26T08:45:22.000Z</time>
      </trkpt>
      <trkpt lat="48.74461" lon="1.7674">
        <ele>228.4</ele>
        <time>2026-03-26T08:45:23.000Z</time>
      </trkpt>
      <trkpt lat="48.74461" lon="1.76738">
        <ele>228.2</ele>
        <time>2026-03-26T08:45:24.000Z</time>
      </trkpt>
      <trkpt lat="48.74462" lon="1.76737">
        <ele>228.1</ele>
        <time>2026-03-26T08:45:25.000Z</time>
      </trkpt>
      <trkpt lat="48.74463" lon="1.76735">
        <ele>228.3</ele>
        <time>2026-03-26T08:45:26.000Z</time>
      </trkpt>
      <trkpt lat="48.74464" lon="1.76735">
        <ele>228.3</ele>
        <time>2026-03-26T08:45:27.000Z</time>
      </trkpt>
      <trkpt lat="48.74465" lon="1.76734">
        <ele>227.9</ele>
        <time>2026-03-26T08:45:28.000Z</time>
      </trkpt>
      <trkpt lat="48.74466" lon="1.76732">
        <ele>228</ele>
        <time>2026-03-26T08:45:29.000Z</time>
      </trkpt>
      <trkpt lat="48.74466" lon="1.76731">
        <ele>228.2</ele>
        <time>2026-03-26T08:45:30.000Z</time>
      </trkpt>
      <trkpt lat="48.74467" lon="1.7673">
        <ele>228.4</ele>
        <time>2026-03-26T08:45:31.000Z</time>
      </trkpt>
      <trkpt lat="48.74468" lon="1.76729">
        <ele>228.5</ele>
        <time>2026-03-26T08:45:32.000Z</time>
      </trkpt>
      <trkpt lat="48.74469" lon="1.76728">
        <ele>228.9</ele>
        <time>2026-03-26T08:45:33.000Z</time>
      </trkpt>
      <trkpt lat="48.7447" lon="1.76727">
        <ele>229.3</ele>
        <time>2026-03-26T08:45:34.000Z</time>
      </trkpt>
      <trkpt lat="48.74471" lon="1.76726">
        <ele>229.7</ele>
        <time>2026-03-26T08:45:35.000Z</time>
      </trkpt>
      <trkpt lat="48.74472" lon="1.76724">
        <ele>230.2</ele>
        <time>2026-03-26T08:45:36.000Z</time>
      </trkpt>
      <trkpt lat="48.74473" lon="1.76723">
        <ele>230.4</ele>
        <time>2026-03-26T08:45:37.000Z</time>
      </trkpt>
      <trkpt lat="48.74475" lon="1.76723">
        <ele>230.5</ele>
        <time>2026-03-26T08:45:38.000Z</time>
      </trkpt>
      <trkpt lat="48.74476" lon="1.76721">
        <ele>230.8</ele>
        <time>2026-03-26T08:45:39.000Z</time>
      </trkpt>
      <trkpt lat="48.74476" lon="1.7672">
        <ele>231.4</ele>
        <time>2026-03-26T08:45:40.000Z</time>
      </trkpt>
      <trkpt lat="48.74477" lon="1.76719">
        <ele>230.6</ele>
        <time>2026-03-26T08:45:41.000Z</time>
      </trkpt>
      <trkpt lat="48.74478" lon="1.76717">
        <ele>230.4</ele>
        <time>2026-03-26T08:45:42.000Z</time>
      </trkpt>
      <trkpt lat="48.74479" lon="1.76715">
        <ele>230.7</ele>
        <time>2026-03-26T08:45:43.000Z</time>
      </trkpt>
      <trkpt lat="48.74479" lon="1.76714">
        <ele>230.4</ele>
        <time>2026-03-26T08:45:44.000Z</time>
      </trkpt>
      <trkpt lat="48.7448" lon="1.76713">
        <ele>230.8</ele>
        <time>2026-03-26T08:45:45.000Z</time>
      </trkpt>
      <trkpt lat="48.74481" lon="1.76712">
        <ele>230.8</ele>
        <time>2026-03-26T08:45:46.000Z</time>
      </trkpt>
      <trkpt lat="48.74482" lon="1.76711">
        <ele>230</ele>
        <time>2026-03-26T08:45:47.000Z</time>
      </trkpt>
      <trkpt lat="48.74483" lon="1.7671">
        <ele>229.7</ele>
        <time>2026-03-26T08:45:48.000Z</time>
      </trkpt>
      <trkpt lat="48.74484" lon="1.7671">
        <ele>229.6</ele>
        <time>2026-03-26T08:45:49.000Z</time>
      </trkpt>
      <trkpt lat="48.74485" lon="1.76709">
        <ele>229.6</ele>
        <time>2026-03-26T08:45:50.000Z</time>
      </trkpt>
      <trkpt lat="48.74487" lon="1.7671">
        <ele>229.3</ele>
        <time>2026-03-26T08:45:51.000Z</time>
      </trkpt>
      <trkpt lat="48.74488" lon="1.76712">
        <ele>228.9</ele>
        <time>2026-03-26T08:45:52.000Z</time>
      </trkpt>
      <trkpt lat="48.74488" lon="1.76715">
        <ele>229.2</ele>
        <time>2026-03-26T08:45:53.000Z</time>
      </trkpt>
      <trkpt lat="48.74488" lon="1.76717">
        <ele>229.3</ele>
        <time>2026-03-26T08:45:54.000Z</time>
      </trkpt>
      <trkpt lat="48.74488" lon="1.7672">
        <ele>229.4</ele>
        <time>2026-03-26T08:45:55.000Z</time>
      </trkpt>
      <trkpt lat="48.74488" lon="1.76722">
        <ele>228.5</ele>
        <time>2026-03-26T08:45:56.000Z</time>
      </trkpt>
      <trkpt lat="48.74489" lon="1.76723">
        <ele>228.1</ele>
        <time>2026-03-26T08:45:57.000Z</time>
      </trkpt>
      <trkpt lat="48.7449" lon="1.76724">
        <ele>228.3</ele>
        <time>2026-03-26T08:45:58.000Z</time>
      </trkpt>
      <trkpt lat="48.7449" lon="1.76726">
        <ele>228.2</ele>
        <time>2026-03-26T08:45:59.000Z</time>
      </trkpt>
      <trkpt lat="48.7449" lon="1.76729">
        <ele>227.5</ele>
        <time>2026-03-26T08:46:00.000Z</time>
      </trkpt>
      <trkpt lat="48.74488" lon="1.7673">
        <ele>226.5</ele>
        <time>2026-03-26T08:46:01.000Z</time>
      </trkpt>
      <trkpt lat="48.74488" lon="1.7673">
        <ele>226.9</ele>
        <time>2026-03-26T08:46:02.000Z</time>
      </trkpt>
      <trkpt lat="48.74488" lon="1.76731">
        <ele>225.7</ele>
        <time>2026-03-26T08:46:03.000Z</time>
      </trkpt>
      <trkpt lat="48.74488" lon="1.7673">
        <ele>226</ele>
        <time>2026-03-26T08:46:04.000Z</time>
      </trkpt>
      <trkpt lat="48.74488" lon="1.76729">
        <ele>225.6</ele>
        <time>2026-03-26T08:46:05.000Z</time>
      </trkpt>
      <trkpt lat="48.74489" lon="1.76729">
        <ele>225.3</ele>
        <time>2026-03-26T08:46:06.000Z</time>
      </trkpt>
      <trkpt lat="48.74489" lon="1.76729">
        <ele>225.3</ele>
        <time>2026-03-26T08:46:07.000Z</time>
      </trkpt>
      <trkpt lat="48.74489" lon="1.76729">
        <ele>225.3</ele>
        <time>2026-03-26T08:46:08.000Z</time>
      </trkpt>
      <trkpt lat="48.74489" lon="1.76729">
        <ele>225.3</ele>
        <time>2026-03-26T08:46:09.000Z</time>
      </trkpt>
      <trkpt lat="48.74489" lon="1.76729">
        <ele>225.3</ele>
        <time>2026-03-26T08:46:10.000Z</time>
      </trkpt>
      <trkpt lat="48.74489" lon="1.76729">
        <ele>225.3</ele>
        <time>2026-03-26T08:46:11.000Z</time>
      </trkpt>
      <trkpt lat="48.74489" lon="1.76729">
        <ele>225.3</ele>
        <time>2026-03-26T08:46:12.000Z</time>
      </trkpt>
      <trkpt lat="48.74489" lon="1.76729">
        <ele>225.3</ele>
        <time>2026-03-26T08:46:13.000Z</time>
      </trkpt>
      <trkpt lat="48.74489" lon="1.76729">
        <ele>225.4</ele>
        <time>2026-03-26T08:46:14.000Z</time>
      </trkpt>
      <trkpt lat="48.74489" lon="1.76729">
        <ele>225.5</ele>
        <time>2026-03-26T08:46:15.000Z</time>
      </trkpt>
      <trkpt lat="48.74489" lon="1.76729">
        <ele>225.5</ele>
        <time>2026-03-26T08:46:16.000Z</time>
      </trkpt>
      <trkpt lat="48.74489" lon="1.76729">
        <ele>225.5</ele>
        <time>2026-03-26T08:46:17.000Z</time>
      </trkpt>
      <trkpt lat="48.74489" lon="1.76729">
        <ele>225.5</ele>
        <time>2026-03-26T08:46:18.000Z</time>
      </trkpt>
      <trkpt lat="48.74489" lon="1.76729">
        <ele>225.5</ele>
        <time>2026-03-26T08:46:19.000Z</time>
      </trkpt>
      <trkpt lat="48.74489" lon="1.76729">
        <ele>225.5</ele>
        <time>2026-03-26T08:46:20.000Z</time>
      </trkpt>
      <trkpt lat="48.74489" lon="1.76729">
        <ele>225.5</ele>
        <time>2026-03-26T08:46:21.000Z</time>
      </trkpt>
      <trkpt lat="48.74489" lon="1.76729">
        <ele>225.5</ele>
        <time>2026-03-26T08:46:22.000Z</time>
      </trkpt>
      <trkpt lat="48.74489" lon="1.76729">
        <ele>225.5</ele>
        <time>2026-03-26T08:46:23.000Z</time>
      </trkpt>
      <trkpt lat="48.74489" lon="1.76729">
        <ele>225.5</ele>
        <time>2026-03-26T08:46:24.000Z</time>
      </trkpt>
      <trkpt lat="48.74489" lon="1.76729">
        <ele>225.5</ele>
        <time>2026-03-26T08:46:25.000Z</time>
      </trkpt>
      <trkpt lat="48.74489" lon="1.76729">
        <ele>225.5</ele>
        <time>2026-03-26T08:46:26.000Z</time>
      </trkpt>
      <trkpt lat="48.74489" lon="1.76729">
        <ele>225.5</ele>
        <time>2026-03-26T08:46:27.000Z</time>
      </trkpt>
      <trkpt lat="48.74489" lon="1.76729">
        <ele>225.5</ele>
        <time>2026-03-26T08:46:28.000Z</time>
      </trkpt>
      <trkpt lat="48.74489" lon="1.76729">
        <ele>225.5</ele>
        <time>2026-03-26T08:46:29.000Z</time>
      </trkpt>
      <trkpt lat="48.74489" lon="1.76729">
        <ele>225.5</ele>
        <time>2026-03-26T08:46:30.000Z</time>
      </trkpt>
      <trkpt lat="48.74489" lon="1.76729">
        <ele>225.5</ele>
        <time>2026-03-26T08:46:31.000Z</time>
      </trkpt>
      <trkpt lat="48.74489" lon="1.76729">
        <ele>225.5</ele>
        <time>2026-03-26T08:46:32.000Z</time>
      </trkpt>
      <trkpt lat="48.74489" lon="1.76729">
        <ele>225.5</ele>
        <time>2026-03-26T08:46:33.000Z</time>
      </trkpt>
      <trkpt lat="48.74489" lon="1.76729">
        <ele>225.5</ele>
        <time>2026-03-26T08:46:34.000Z</time>
      </trkpt>
      <trkpt lat="48.74489" lon="1.76729">
        <ele>225.5</ele>
        <time>2026-03-26T08:46:35.000Z</time>
      </trkpt>
      <trkpt lat="48.74489" lon="1.76729">
        <ele>225.5</ele>
        <time>2026-03-26T08:46:36.000Z</time>
      </trkpt>
      <trkpt lat="48.74489" lon="1.76729">
        <ele>225.5</ele>
        <time>2026-03-26T08:46:37.000Z</time>
      </trkpt>
      <trkpt lat="48.74489" lon="1.76729">
        <ele>225.5</ele>
        <time>2026-03-26T08:46:38.000Z</time>
      </trkpt>
      <trkpt lat="48.74489" lon="1.76729">
        <ele>225.5</ele>
        <time>2026-03-26T08:46:39.000Z</time>
      </trkpt>
      <trkpt lat="48.74489" lon="1.76729">
        <ele>225.5</ele>
        <time>2026-03-26T08:46:40.000Z</time>
      </trkpt>
      <trkpt lat="48.74489" lon="1.76729">
        <ele>225.5</ele>
        <time>2026-03-26T08:46:41.000Z</time>
      </trkpt>
      <trkpt lat="48.74489" lon="1.76729">
        <ele>225.5</ele>
        <time>2026-03-26T08:46:42.000Z</time>
      </trkpt>
      <trkpt lat="48.74489" lon="1.76729">
        <ele>225.5</ele>
        <time>2026-03-26T08:46:43.000Z</time>
      </trkpt>
      <trkpt lat="48.74488" lon="1.76726">
        <ele>225.5</ele>
        <time>2026-03-26T08:46:44.000Z</time>
      </trkpt>
      <trkpt lat="48.74488" lon="1.76726">
        <ele>225.1</ele>
        <time>2026-03-26T08:46:45.000Z</time>
      </trkpt>
      <trkpt lat="48.74489" lon="1.76725">
        <ele>224.8</ele>
        <time>2026-03-26T08:46:46.000Z</time>
      </trkpt>
      <trkpt lat="48.74489" lon="1.76726">
        <ele>224.8</ele>
        <time>2026-03-26T08:46:47.000Z</time>
      </trkpt>
      <trkpt lat="48.74488" lon="1.76726">
        <ele>225.3</ele>
        <time>2026-03-26T08:46:48.000Z</time>
      </trkpt>
      <trkpt lat="48.74487" lon="1.76725">
        <ele>226.1</ele>
        <time>2026-03-26T08:46:49.000Z</time>
      </trkpt>
      <trkpt lat="48.74487" lon="1.76725">
        <ele>225.9</ele>
        <time>2026-03-26T08:46:50.000Z</time>
      </trkpt>
      <trkpt lat="48.74485" lon="1.76727">
        <ele>225.8</ele>
        <time>2026-03-26T08:46:51.000Z</time>
      </trkpt>
      <trkpt lat="48.74484" lon="1.76727">
        <ele>225.7</ele>
        <time>2026-03-26T08:46:52.000Z</time>
      </trkpt>
      <trkpt lat="48.74483" lon="1.76729">
        <ele>226.3</ele>
        <time>2026-03-26T08:46:53.000Z</time>
      </trkpt>
      <trkpt lat="48.74483" lon="1.76729">
        <ele>225.8</ele>
        <time>2026-03-26T08:46:54.000Z</time>
      </trkpt>
      <trkpt lat="48.74483" lon="1.76729">
        <ele>226.4</ele>
        <time>2026-03-26T08:46:55.000Z</time>
      </trkpt>
      <trkpt lat="48.74483" lon="1.76728">
        <ele>226</ele>
        <time>2026-03-26T08:46:56.000Z</time>
      </trkpt>
      <trkpt lat="48.74483" lon="1.76727">
        <ele>226</ele>
        <time>2026-03-26T08:46:57.000Z</time>
      </trkpt>
      <trkpt lat="48.74482" lon="1.76725">
        <ele>225.6</ele>
        <time>2026-03-26T08:46:58.000Z</time>
      </trkpt>
      <trkpt lat="48.74482" lon="1.76724">
        <ele>225.6</ele>
        <time>2026-03-26T08:46:59.000Z</time>
      </trkpt>
      <trkpt lat="48.74482" lon="1.76723">
        <ele>225.6</ele>
        <time>2026-03-26T08:47:00.000Z</time>
      </trkpt>
      <trkpt lat="48.74482" lon="1.76722">
        <ele>225.8</ele>
        <time>2026-03-26T08:47:01.000Z</time>
      </trkpt>
      <trkpt lat="48.74482" lon="1.76719">
        <ele>226.3</ele>
        <time>2026-03-26T08:47:02.000Z</time>
      </trkpt>
      <trkpt lat="48.74482" lon="1.76717">
        <ele>226.6</ele>
        <time>2026-03-26T08:47:03.000Z</time>
      </trkpt>
      <trkpt lat="48.74481" lon="1.76715">
        <ele>226.6</ele>
        <time>2026-03-26T08:47:04.000Z</time>
      </trkpt>
      <trkpt lat="48.74481" lon="1.76712">
        <ele>226.4</ele>
        <time>2026-03-26T08:47:05.000Z</time>
      </trkpt>
      <trkpt lat="48.74481" lon="1.7671">
        <ele>226.8</ele>
        <time>2026-03-26T08:47:06.000Z</time>
      </trkpt>
      <trkpt lat="48.74483" lon="1.76709">
        <ele>227</ele>
        <time>2026-03-26T08:47:07.000Z</time>
      </trkpt>
      <trkpt lat="48.74484" lon="1.76708">
        <ele>226.8</ele>
        <time>2026-03-26T08:47:08.000Z</time>
      </trkpt>
      <trkpt lat="48.74485" lon="1.76708">
        <ele>226.7</ele>
        <time>2026-03-26T08:47:09.000Z</time>
      </trkpt>
      <trkpt lat="48.74485" lon="1.76707">
        <ele>227</ele>
        <time>2026-03-26T08:47:10.000Z</time>
      </trkpt>
      <trkpt lat="48.74486" lon="1.76706">
        <ele>226.8</ele>
        <time>2026-03-26T08:47:11.000Z</time>
      </trkpt>
      <trkpt lat="48.74486" lon="1.76704">
        <ele>227.1</ele>
        <time>2026-03-26T08:47:12.000Z</time>
      </trkpt>
      <trkpt lat="48.74487" lon="1.76702">
        <ele>227.5</ele>
        <time>2026-03-26T08:47:13.000Z</time>
      </trkpt>
      <trkpt lat="48.74488" lon="1.767">
        <ele>227.8</ele>
        <time>2026-03-26T08:47:14.000Z</time>
      </trkpt>
      <trkpt lat="48.74489" lon="1.76699">
        <ele>227.7</ele>
        <time>2026-03-26T08:47:15.000Z</time>
      </trkpt>
      <trkpt lat="48.74489" lon="1.76698">
        <ele>227.3</ele>
        <time>2026-03-26T08:47:16.000Z</time>
      </trkpt>
      <trkpt lat="48.7449" lon="1.76697">
        <ele>227.5</ele>
        <time>2026-03-26T08:47:17.000Z</time>
      </trkpt>
      <trkpt lat="48.74491" lon="1.76696">
        <ele>227.2</ele>
        <time>2026-03-26T08:47:18.000Z</time>
      </trkpt>
      <trkpt lat="48.74491" lon="1.76695">
        <ele>226.9</ele>
        <time>2026-03-26T08:47:19.000Z</time>
      </trkpt>
      <trkpt lat="48.74492" lon="1.76694">
        <ele>227</ele>
        <time>2026-03-26T08:47:20.000Z</time>
      </trkpt>
      <trkpt lat="48.74493" lon="1.76693">
        <ele>227.3</ele>
        <time>2026-03-26T08:47:21.000Z</time>
      </trkpt>
      <trkpt lat="48.74493" lon="1.76692">
        <ele>227.4</ele>
        <time>2026-03-26T08:47:22.000Z</time>
      </trkpt>
      <trkpt lat="48.74494" lon="1.76692">
        <ele>227.6</ele>
        <time>2026-03-26T08:47:23.000Z</time>
      </trkpt>
      <trkpt lat="48.74495" lon="1.7669">
        <ele>228.2</ele>
        <time>2026-03-26T08:47:24.000Z</time>
      </trkpt>
      <trkpt lat="48.74496" lon="1.76689">
        <ele>228.3</ele>
        <time>2026-03-26T08:47:25.000Z</time>
      </trkpt>
      <trkpt lat="48.74497" lon="1.76688">
        <ele>229.1</ele>
        <time>2026-03-26T08:47:26.000Z</time>
      </trkpt>
      <trkpt lat="48.74498" lon="1.76688">
        <ele>228.8</ele>
        <time>2026-03-26T08:47:27.000Z</time>
      </trkpt>
      <trkpt lat="48.74499" lon="1.76687">
        <ele>229</ele>
        <time>2026-03-26T08:47:28.000Z</time>
      </trkpt>
      <trkpt lat="48.74499" lon="1.76686">
        <ele>229.9</ele>
        <time>2026-03-26T08:47:29.000Z</time>
      </trkpt>
      <trkpt lat="48.745" lon="1.76685">
        <ele>230.6</ele>
        <time>2026-03-26T08:47:30.000Z</time>
      </trkpt>
      <trkpt lat="48.74499" lon="1.76685">
        <ele>229.2</ele>
        <time>2026-03-26T08:47:31.000Z</time>
      </trkpt>
      <trkpt lat="48.74499" lon="1.76685">
        <ele>229.2</ele>
        <time>2026-03-26T08:47:32.000Z</time>
      </trkpt>
      <trkpt lat="48.74498" lon="1.76685">
        <ele>229.3</ele>
        <time>2026-03-26T08:47:33.000Z</time>
      </trkpt>
      <trkpt lat="48.74498" lon="1.76685">
        <ele>229.3</ele>
        <time>2026-03-26T08:47:34.000Z</time>
      </trkpt>
      <trkpt lat="48.74498" lon="1.76685">
        <ele>229.3</ele>
        <time>2026-03-26T08:47:35.000Z</time>
      </trkpt>
      <trkpt lat="48.74498" lon="1.76685">
        <ele>229.3</ele>
        <time>2026-03-26T08:47:36.000Z</time>
      </trkpt>
      <trkpt lat="48.74498" lon="1.76685">
        <ele>229.3</ele>
        <time>2026-03-26T08:47:37.000Z</time>
      </trkpt>
      <trkpt lat="48.74498" lon="1.76685">
        <ele>229.3</ele>
        <time>2026-03-26T08:47:38.000Z</time>
      </trkpt>
      <trkpt lat="48.74498" lon="1.76685">
        <ele>229.3</ele>
        <time>2026-03-26T08:47:39.000Z</time>
      </trkpt>
      <trkpt lat="48.74498" lon="1.76684">
        <ele>229.3</ele>
        <time>2026-03-26T08:47:40.000Z</time>
      </trkpt>
      <trkpt lat="48.74498" lon="1.76684">
        <ele>229.3</ele>
        <time>2026-03-26T08:47:41.000Z</time>
      </trkpt>
      <trkpt lat="48.74498" lon="1.76684">
        <ele>229.3</ele>
        <time>2026-03-26T08:47:42.000Z</time>
      </trkpt>
      <trkpt lat="48.74498" lon="1.76684">
        <ele>229.3</ele>
        <time>2026-03-26T08:47:43.000Z</time>
      </trkpt>
      <trkpt lat="48.74498" lon="1.76684">
        <ele>229.3</ele>
        <time>2026-03-26T08:47:44.000Z</time>
      </trkpt>
      <trkpt lat="48.74498" lon="1.76684">
        <ele>229.3</ele>
        <time>2026-03-26T08:47:45.000Z</time>
      </trkpt>
      <trkpt lat="48.74498" lon="1.76684">
        <ele>229.3</ele>
        <time>2026-03-26T08:47:46.000Z</time>
      </trkpt>
      <trkpt lat="48.74498" lon="1.76684">
        <ele>229.3</ele>
        <time>2026-03-26T08:47:47.000Z</time>
      </trkpt>
      <trkpt lat="48.74498" lon="1.76684">
        <ele>229.3</ele>
        <time>2026-03-26T08:47:48.000Z</time>
      </trkpt>
      <trkpt lat="48.74498" lon="1.76684">
        <ele>229.3</ele>
        <time>2026-03-26T08:47:49.000Z</time>
      </trkpt>
      <trkpt lat="48.74498" lon="1.76684">
        <ele>229.3</ele>
        <time>2026-03-26T08:47:50.000Z</time>
      </trkpt>
      <trkpt lat="48.74498" lon="1.76684">
        <ele>229.3</ele>
        <time>2026-03-26T08:47:51.000Z</time>
      </trkpt>
      <trkpt lat="48.74498" lon="1.76684">
        <ele>229.3</ele>
        <time>2026-03-26T08:47:52.000Z</time>
      </trkpt>
      <trkpt lat="48.74498" lon="1.76684">
        <ele>229.3</ele>
        <time>2026-03-26T08:47:53.000Z</time>
      </trkpt>
      <trkpt lat="48.74498" lon="1.76684">
        <ele>229.3</ele>
        <time>2026-03-26T08:47:54.000Z</time>
      </trkpt>
      <trkpt lat="48.74498" lon="1.76684">
        <ele>229.3</ele>
        <time>2026-03-26T08:47:55.000Z</time>
      </trkpt>
      <trkpt lat="48.74498" lon="1.76684">
        <ele>229.3</ele>
        <time>2026-03-26T08:47:56.000Z</time>
      </trkpt>
      <trkpt lat="48.74498" lon="1.76684">
        <ele>229.3</ele>
        <time>2026-03-26T08:47:57.000Z</time>
      </trkpt>
      <trkpt lat="48.74498" lon="1.76684">
        <ele>229.3</ele>
        <time>2026-03-26T08:47:58.000Z</time>
      </trkpt>
      <trkpt lat="48.74498" lon="1.76684">
        <ele>229.3</ele>
        <time>2026-03-26T08:47:59.000Z</time>
      </trkpt>
      <trkpt lat="48.74498" lon="1.76684">
        <ele>229.3</ele>
        <time>2026-03-26T08:48:00.000Z</time>
      </trkpt>
      <trkpt lat="48.74498" lon="1.76684">
        <ele>229.3</ele>
        <time>2026-03-26T08:48:01.000Z</time>
      </trkpt>
      <trkpt lat="48.74498" lon="1.76684">
        <ele>229.3</ele>
        <time>2026-03-26T08:48:02.000Z</time>
      </trkpt>
      <trkpt lat="48.74498" lon="1.76684">
        <ele>229.3</ele>
        <time>2026-03-26T08:48:03.000Z</time>
      </trkpt>
      <trkpt lat="48.74498" lon="1.76684">
        <ele>229.3</ele>
        <time>2026-03-26T08:48:04.000Z</time>
      </trkpt>
      <trkpt lat="48.74498" lon="1.76684">
        <ele>229.3</ele>
        <time>2026-03-26T08:48:05.000Z</time>
      </trkpt>
      <trkpt lat="48.74498" lon="1.76684">
        <ele>229.3</ele>
        <time>2026-03-26T08:48:06.000Z</time>
      </trkpt>
      <trkpt lat="48.74498" lon="1.76684">
        <ele>229.3</ele>
        <time>2026-03-26T08:48:07.000Z</time>
      </trkpt>
      <trkpt lat="48.74498" lon="1.76684">
        <ele>229.3</ele>
        <time>2026-03-26T08:48:08.000Z</time>
      </trkpt>
      <trkpt lat="48.74498" lon="1.76684">
        <ele>229.3</ele>
        <time>2026-03-26T08:48:09.000Z</time>
      </trkpt>
      <trkpt lat="48.74499" lon="1.76684">
        <ele>229.3</ele>
        <time>2026-03-26T08:48:10.000Z</time>
      </trkpt>
      <trkpt lat="48.74499" lon="1.76684">
        <ele>229.4</ele>
        <time>2026-03-26T08:48:11.000Z</time>
      </trkpt>
      <trkpt lat="48.74499" lon="1.76683">
        <ele>229.4</ele>
        <time>2026-03-26T08:48:12.000Z</time>
      </trkpt>
      <trkpt lat="48.745" lon="1.76682">
        <ele>229.3</ele>
        <time>2026-03-26T08:48:13.000Z</time>
      </trkpt>
      <trkpt lat="48.745" lon="1.76682">
        <ele>229.4</ele>
        <time>2026-03-26T08:48:14.000Z</time>
      </trkpt>
      <trkpt lat="48.745" lon="1.76681">
        <ele>229.2</ele>
        <time>2026-03-26T08:48:15.000Z</time>
      </trkpt>
      <trkpt lat="48.745" lon="1.7668">
        <ele>229.3</ele>
        <time>2026-03-26T08:48:16.000Z</time>
      </trkpt>
      <trkpt lat="48.745" lon="1.76679">
        <ele>228.4</ele>
        <time>2026-03-26T08:48:17.000Z</time>
      </trkpt>
      <trkpt lat="48.74499" lon="1.76678">
        <ele>228.8</ele>
        <time>2026-03-26T08:48:18.000Z</time>
      </trkpt>
      <trkpt lat="48.74499" lon="1.76678">
        <ele>228.6</ele>
        <time>2026-03-26T08:48:19.000Z</time>
      </trkpt>
      <trkpt lat="48.74498" lon="1.76678">
        <ele>228.2</ele>
        <time>2026-03-26T08:48:20.000Z</time>
      </trkpt>
      <trkpt lat="48.74497" lon="1.76677">
        <ele>227.7</ele>
        <time>2026-03-26T08:48:21.000Z</time>
      </trkpt>
      <trkpt lat="48.74496" lon="1.76677">
        <ele>228</ele>
        <time>2026-03-26T08:48:22.000Z</time>
      </trkpt>
      <trkpt lat="48.74495" lon="1.76676">
        <ele>228.2</ele>
        <time>2026-03-26T08:48:23.000Z</time>
      </trkpt>
      <trkpt lat="48.74494" lon="1.76675">
        <ele>228.2</ele>
        <time>2026-03-26T08:48:24.000Z</time>
      </trkpt>
      <trkpt lat="48.74494" lon="1.76675">
        <ele>227.6</ele>
        <time>2026-03-26T08:48:25.000Z</time>
      </trkpt>
      <trkpt lat="48.74493" lon="1.76674">
        <ele>227</ele>
        <time>2026-03-26T08:48:26.000Z</time>
      </trkpt>
      <trkpt lat="48.74493" lon="1.76672">
        <ele>227.5</ele>
        <time>2026-03-26T08:48:27.000Z</time>
      </trkpt>
      <trkpt lat="48.74492" lon="1.76671">
        <ele>227.2</ele>
        <time>2026-03-26T08:48:28.000Z</time>
      </trkpt>
      <trkpt lat="48.74492" lon="1.7667">
        <ele>227.3</ele>
        <time>2026-03-26T08:48:29.000Z</time>
      </trkpt>
      <trkpt lat="48.74492" lon="1.76667">
        <ele>227.9</ele>
        <time>2026-03-26T08:48:30.000Z</time>
      </trkpt>
      <trkpt lat="48.74491" lon="1.76666">
        <ele>228.2</ele>
        <time>2026-03-26T08:48:31.000Z</time>
      </trkpt>
      <trkpt lat="48.74491" lon="1.76664">
        <ele>228.8</ele>
        <time>2026-03-26T08:48:32.000Z</time>
      </trkpt>
      <trkpt lat="48.74491" lon="1.76662">
        <ele>228.8</ele>
        <time>2026-03-26T08:48:33.000Z</time>
      </trkpt>
      <trkpt lat="48.74491" lon="1.7666">
        <ele>229.1</ele>
        <time>2026-03-26T08:48:34.000Z</time>
      </trkpt>
      <trkpt lat="48.74492" lon="1.76658">
        <ele>228.8</ele>
        <time>2026-03-26T08:48:35.000Z</time>
      </trkpt>
      <trkpt lat="48.74493" lon="1.76656">
        <ele>229.5</ele>
        <time>2026-03-26T08:48:36.000Z</time>
      </trkpt>
      <trkpt lat="48.74493" lon="1.76654">
        <ele>228.3</ele>
        <time>2026-03-26T08:48:37.000Z</time>
      </trkpt>
      <trkpt lat="48.74494" lon="1.76652">
        <ele>228.7</ele>
        <time>2026-03-26T08:48:38.000Z</time>
      </trkpt>
      <trkpt lat="48.74494" lon="1.7665">
        <ele>229.3</ele>
        <time>2026-03-26T08:48:39.000Z</time>
      </trkpt>
      <trkpt lat="48.74495" lon="1.76648">
        <ele>229.5</ele>
        <time>2026-03-26T08:48:40.000Z</time>
      </trkpt>
      <trkpt lat="48.74495" lon="1.76647">
        <ele>229.4</ele>
        <time>2026-03-26T08:48:41.000Z</time>
      </trkpt>
      <trkpt lat="48.74496" lon="1.76646">
        <ele>229.1</ele>
        <time>2026-03-26T08:48:42.000Z</time>
      </trkpt>
      <trkpt lat="48.74496" lon="1.76644">
        <ele>228.6</ele>
        <time>2026-03-26T08:48:43.000Z</time>
      </trkpt>
      <trkpt lat="48.74497" lon="1.76643">
        <ele>229</ele>
        <time>2026-03-26T08:48:44.000Z</time>
      </trkpt>
      <trkpt lat="48.74498" lon="1.76641">
        <ele>229.5</ele>
        <time>2026-03-26T08:48:45.000Z</time>
      </trkpt>
      <trkpt lat="48.74498" lon="1.76639">
        <ele>229.3</ele>
        <time>2026-03-26T08:48:46.000Z</time>
      </trkpt>
      <trkpt lat="48.74499" lon="1.76638">
        <ele>228.9</ele>
        <time>2026-03-26T08:48:47.000Z</time>
      </trkpt>
      <trkpt lat="48.74499" lon="1.76636">
        <ele>229</ele>
        <time>2026-03-26T08:48:48.000Z</time>
      </trkpt>
      <trkpt lat="48.74499" lon="1.76634">
        <ele>228.9</ele>
        <time>2026-03-26T08:48:49.000Z</time>
      </trkpt>
      <trkpt lat="48.74498" lon="1.76632">
        <ele>229.2</ele>
        <time>2026-03-26T08:48:50.000Z</time>
      </trkpt>
      <trkpt lat="48.74498" lon="1.76631">
        <ele>229</ele>
        <time>2026-03-26T08:48:51.000Z</time>
      </trkpt>
      <trkpt lat="48.74497" lon="1.76629">
        <ele>228.9</ele>
        <time>2026-03-26T08:48:52.000Z</time>
      </trkpt>
      <trkpt lat="48.74497" lon="1.76628">
        <ele>229</ele>
        <time>2026-03-26T08:48:53.000Z</time>
      </trkpt>
      <trkpt lat="48.74496" lon="1.76626">
        <ele>228.6</ele>
        <time>2026-03-26T08:48:54.000Z</time>
      </trkpt>
      <trkpt lat="48.74496" lon="1.76624">
        <ele>228.5</ele>
        <time>2026-03-26T08:48:55.000Z</time>
      </trkpt>
      <trkpt lat="48.74497" lon="1.76622">
        <ele>228.2</ele>
        <time>2026-03-26T08:48:56.000Z</time>
      </trkpt>
      <trkpt lat="48.74497" lon="1.7662">
        <ele>227.7</ele>
        <time>2026-03-26T08:48:57.000Z</time>
      </trkpt>
      <trkpt lat="48.74497" lon="1.76619">
        <ele>227.6</ele>
        <time>2026-03-26T08:48:58.000Z</time>
      </trkpt>
      <trkpt lat="48.74498" lon="1.76617">
        <ele>227.6</ele>
        <time>2026-03-26T08:48:59.000Z</time>
      </trkpt>
      <trkpt lat="48.74499" lon="1.76615">
        <ele>227.7</ele>
        <time>2026-03-26T08:49:00.000Z</time>
      </trkpt>
      <trkpt lat="48.74499" lon="1.76613">
        <ele>228.1</ele>
        <time>2026-03-26T08:49:01.000Z</time>
      </trkpt>
      <trkpt lat="48.74499" lon="1.76612">
        <ele>228.1</ele>
        <time>2026-03-26T08:49:02.000Z</time>
      </trkpt>
      <trkpt lat="48.74499" lon="1.7661">
        <ele>227.9</ele>
        <time>2026-03-26T08:49:03.000Z</time>
      </trkpt>
      <trkpt lat="48.74499" lon="1.76608">
        <ele>228.3</ele>
        <time>2026-03-26T08:49:04.000Z</time>
      </trkpt>
      <trkpt lat="48.74499" lon="1.76606">
        <ele>228.2</ele>
        <time>2026-03-26T08:49:05.000Z</time>
      </trkpt>
      <trkpt lat="48.74499" lon="1.76604">
        <ele>228.1</ele>
        <time>2026-03-26T08:49:06.000Z</time>
      </trkpt>
      <trkpt lat="48.74499" lon="1.76603">
        <ele>228.5</ele>
        <time>2026-03-26T08:49:07.000Z</time>
      </trkpt>
      <trkpt lat="48.74498" lon="1.76601">
        <ele>228.5</ele>
        <time>2026-03-26T08:49:08.000Z</time>
      </trkpt>
      <trkpt lat="48.74498" lon="1.766">
        <ele>228.3</ele>
        <time>2026-03-26T08:49:09.000Z</time>
      </trkpt>
      <trkpt lat="48.74497" lon="1.76598">
        <ele>227.7</ele>
        <time>2026-03-26T08:49:10.000Z</time>
      </trkpt>
      <trkpt lat="48.74497" lon="1.76596">
        <ele>227.9</ele>
        <time>2026-03-26T08:49:11.000Z</time>
      </trkpt>
      <trkpt lat="48.74497" lon="1.76595">
        <ele>227.6</ele>
        <time>2026-03-26T08:49:12.000Z</time>
      </trkpt>
      <trkpt lat="48.74496" lon="1.76593">
        <ele>227.3</ele>
        <time>2026-03-26T08:49:13.000Z</time>
      </trkpt>
      <trkpt lat="48.74495" lon="1.76592">
        <ele>227.9</ele>
        <time>2026-03-26T08:49:14.000Z</time>
      </trkpt>
      <trkpt lat="48.74495" lon="1.7659">
        <ele>228.2</ele>
        <time>2026-03-26T08:49:15.000Z</time>
      </trkpt>
      <trkpt lat="48.74495" lon="1.76588">
        <ele>228.3</ele>
        <time>2026-03-26T08:49:16.000Z</time>
      </trkpt>
      <trkpt lat="48.74494" lon="1.76587">
        <ele>228.1</ele>
        <time>2026-03-26T08:49:17.000Z</time>
      </trkpt>
      <trkpt lat="48.74493" lon="1.76585">
        <ele>228.2</ele>
        <time>2026-03-26T08:49:18.000Z</time>
      </trkpt>
      <trkpt lat="48.74493" lon="1.76584">
        <ele>228.3</ele>
        <time>2026-03-26T08:49:19.000Z</time>
      </trkpt>
      <trkpt lat="48.74492" lon="1.76583">
        <ele>228.6</ele>
        <time>2026-03-26T08:49:20.000Z</time>
      </trkpt>
      <trkpt lat="48.74491" lon="1.76581">
        <ele>228.5</ele>
        <time>2026-03-26T08:49:21.000Z</time>
      </trkpt>
      <trkpt lat="48.74491" lon="1.7658">
        <ele>227.7</ele>
        <time>2026-03-26T08:49:22.000Z</time>
      </trkpt>
      <trkpt lat="48.7449" lon="1.76578">
        <ele>227.8</ele>
        <time>2026-03-26T08:49:23.000Z</time>
      </trkpt>
      <trkpt lat="48.7449" lon="1.76577">
        <ele>227.6</ele>
        <time>2026-03-26T08:49:24.000Z</time>
      </trkpt>
      <trkpt lat="48.74489" lon="1.76575">
        <ele>227.7</ele>
        <time>2026-03-26T08:49:25.000Z</time>
      </trkpt>
      <trkpt lat="48.74488" lon="1.76573">
        <ele>227.7</ele>
        <time>2026-03-26T08:49:26.000Z</time>
      </trkpt>
      <trkpt lat="48.74488" lon="1.76572">
        <ele>227.7</ele>
        <time>2026-03-26T08:49:27.000Z</time>
      </trkpt>
      <trkpt lat="48.74487" lon="1.7657">
        <ele>227.4</ele>
        <time>2026-03-26T08:49:28.000Z</time>
      </trkpt>
      <trkpt lat="48.74487" lon="1.76569">
        <ele>227.1</ele>
        <time>2026-03-26T08:49:29.000Z</time>
      </trkpt>
      <trkpt lat="48.74486" lon="1.76567">
        <ele>227.4</ele>
        <time>2026-03-26T08:49:30.000Z</time>
      </trkpt>
      <trkpt lat="48.74485" lon="1.76566">
        <ele>227.8</ele>
        <time>2026-03-26T08:49:31.000Z</time>
      </trkpt>
      <trkpt lat="48.74484" lon="1.76565">
        <ele>227.2</ele>
        <time>2026-03-26T08:49:32.000Z</time>
      </trkpt>
      <trkpt lat="48.74483" lon="1.76564">
        <ele>226.1</ele>
        <time>2026-03-26T08:49:33.000Z</time>
      </trkpt>
      <trkpt lat="48.74482" lon="1.76563">
        <ele>226.2</ele>
        <time>2026-03-26T08:49:34.000Z</time>
      </trkpt>
      <trkpt lat="48.74481" lon="1.76561">
        <ele>225.7</ele>
        <time>2026-03-26T08:49:35.000Z</time>
      </trkpt>
      <trkpt lat="48.74481" lon="1.7656">
        <ele>224.9</ele>
        <time>2026-03-26T08:49:36.000Z</time>
      </trkpt>
      <trkpt lat="48.7448" lon="1.76559">
        <ele>225.4</ele>
        <time>2026-03-26T08:49:37.000Z</time>
      </trkpt>
      <trkpt lat="48.74479" lon="1.76558">
        <ele>225.7</ele>
        <time>2026-03-26T08:49:38.000Z</time>
      </trkpt>
      <trkpt lat="48.74478" lon="1.76556">
        <ele>226.3</ele>
        <time>2026-03-26T08:49:39.000Z</time>
      </trkpt>
      <trkpt lat="48.74477" lon="1.76555">
        <ele>226.8</ele>
        <time>2026-03-26T08:49:40.000Z</time>
      </trkpt>
      <trkpt lat="48.74477" lon="1.76553">
        <ele>225.7</ele>
        <time>2026-03-26T08:49:41.000Z</time>
      </trkpt>
      <trkpt lat="48.74477" lon="1.76551">
        <ele>225.4</ele>
        <time>2026-03-26T08:49:42.000Z</time>
      </trkpt>
      <trkpt lat="48.74476" lon="1.7655">
        <ele>224.8</ele>
        <time>2026-03-26T08:49:43.000Z</time>
      </trkpt>
      <trkpt lat="48.74476" lon="1.76548">
        <ele>224.4</ele>
        <time>2026-03-26T08:49:44.000Z</time>
      </trkpt>
      <trkpt lat="48.74476" lon="1.76547">
        <ele>224.1</ele>
        <time>2026-03-26T08:49:45.000Z</time>
      </trkpt>
      <trkpt lat="48.74476" lon="1.76545">
        <ele>222.7</ele>
        <time>2026-03-26T08:49:46.000Z</time>
      </trkpt>
      <trkpt lat="48.74476" lon="1.76543">
        <ele>222.2</ele>
        <time>2026-03-26T08:49:47.000Z</time>
      </trkpt>
      <trkpt lat="48.74476" lon="1.76541">
        <ele>222.1</ele>
        <time>2026-03-26T08:49:48.000Z</time>
      </trkpt>
      <trkpt lat="48.74476" lon="1.76539">
        <ele>222.1</ele>
        <time>2026-03-26T08:49:49.000Z</time>
      </trkpt>
      <trkpt lat="48.74475" lon="1.76538">
        <ele>222</ele>
        <time>2026-03-26T08:49:50.000Z</time>
      </trkpt>
      <trkpt lat="48.74475" lon="1.76536">
        <ele>221.7</ele>
        <time>2026-03-26T08:49:51.000Z</time>
      </trkpt>
      <trkpt lat="48.74476" lon="1.76534">
        <ele>222.3</ele>
        <time>2026-03-26T08:49:52.000Z</time>
      </trkpt>
      <trkpt lat="48.74475" lon="1.76532">
        <ele>223</ele>
        <time>2026-03-26T08:49:53.000Z</time>
      </trkpt>
      <trkpt lat="48.74475" lon="1.7653">
        <ele>222.8</ele>
        <time>2026-03-26T08:49:54.000Z</time>
      </trkpt>
      <trkpt lat="48.74475" lon="1.76529">
        <ele>222.5</ele>
        <time>2026-03-26T08:49:55.000Z</time>
      </trkpt>
      <trkpt lat="48.74475" lon="1.76527">
        <ele>222.5</ele>
        <time>2026-03-26T08:49:56.000Z</time>
      </trkpt>
      <trkpt lat="48.74475" lon="1.76525">
        <ele>222.5</ele>
        <time>2026-03-26T08:49:57.000Z</time>
      </trkpt>
      <trkpt lat="48.74475" lon="1.76523">
        <ele>222.2</ele>
        <time>2026-03-26T08:49:58.000Z</time>
      </trkpt>
      <trkpt lat="48.74475" lon="1.76522">
        <ele>221.9</ele>
        <time>2026-03-26T08:49:59.000Z</time>
      </trkpt>
      <trkpt lat="48.74474" lon="1.7652">
        <ele>222.2</ele>
        <time>2026-03-26T08:50:00.000Z</time>
      </trkpt>
      <trkpt lat="48.74474" lon="1.76519">
        <ele>222.3</ele>
        <time>2026-03-26T08:50:01.000Z</time>
      </trkpt>
      <trkpt lat="48.74473" lon="1.76518">
        <ele>222.6</ele>
        <time>2026-03-26T08:50:02.000Z</time>
      </trkpt>
      <trkpt lat="48.74472" lon="1.76516">
        <ele>222.9</ele>
        <time>2026-03-26T08:50:03.000Z</time>
      </trkpt>
      <trkpt lat="48.74471" lon="1.76515">
        <ele>223.2</ele>
        <time>2026-03-26T08:50:04.000Z</time>
      </trkpt>
      <trkpt lat="48.7447" lon="1.76514">
        <ele>222.9</ele>
        <time>2026-03-26T08:50:05.000Z</time>
      </trkpt>
      <trkpt lat="48.7447" lon="1.76513">
        <ele>223.2</ele>
        <time>2026-03-26T08:50:06.000Z</time>
      </trkpt>
      <trkpt lat="48.74469" lon="1.76511">
        <ele>222.8</ele>
        <time>2026-03-26T08:50:07.000Z</time>
      </trkpt>
      <trkpt lat="48.74468" lon="1.76511">
        <ele>222.6</ele>
        <time>2026-03-26T08:50:08.000Z</time>
      </trkpt>
      <trkpt lat="48.74466" lon="1.7651">
        <ele>222.6</ele>
        <time>2026-03-26T08:50:09.000Z</time>
      </trkpt>
      <trkpt lat="48.74465" lon="1.7651">
        <ele>222.9</ele>
        <time>2026-03-26T08:50:10.000Z</time>
      </trkpt>
      <trkpt lat="48.74464" lon="1.76509">
        <ele>222.7</ele>
        <time>2026-03-26T08:50:11.000Z</time>
      </trkpt>
      <trkpt lat="48.74463" lon="1.76509">
        <ele>222.1</ele>
        <time>2026-03-26T08:50:12.000Z</time>
      </trkpt>
      <trkpt lat="48.74462" lon="1.76509">
        <ele>222</ele>
        <time>2026-03-26T08:50:13.000Z</time>
      </trkpt>
      <trkpt lat="48.74461" lon="1.76509">
        <ele>222</ele>
        <time>2026-03-26T08:50:14.000Z</time>
      </trkpt>
      <trkpt lat="48.74459" lon="1.76508">
        <ele>222</ele>
        <time>2026-03-26T08:50:15.000Z</time>
      </trkpt>
      <trkpt lat="48.74458" lon="1.76508">
        <ele>221.6</ele>
        <time>2026-03-26T08:50:16.000Z</time>
      </trkpt>
      <trkpt lat="48.74457" lon="1.76507">
        <ele>221.5</ele>
        <time>2026-03-26T08:50:17.000Z</time>
      </trkpt>
      <trkpt lat="48.74456" lon="1.76506">
        <ele>222.4</ele>
        <time>2026-03-26T08:50:18.000Z</time>
      </trkpt>
      <trkpt lat="48.74456" lon="1.76505">
        <ele>221.3</ele>
        <time>2026-03-26T08:50:19.000Z</time>
      </trkpt>
      <trkpt lat="48.74455" lon="1.76504">
        <ele>220.9</ele>
        <time>2026-03-26T08:50:20.000Z</time>
      </trkpt>
      <trkpt lat="48.74454" lon="1.76503">
        <ele>220.8</ele>
        <time>2026-03-26T08:50:21.000Z</time>
      </trkpt>
      <trkpt lat="48.74453" lon="1.76503">
        <ele>221.4</ele>
        <time>2026-03-26T08:50:22.000Z</time>
      </trkpt>
      <trkpt lat="48.74452" lon="1.76502">
        <ele>221</ele>
        <time>2026-03-26T08:50:23.000Z</time>
      </trkpt>
      <trkpt lat="48.74451" lon="1.76502">
        <ele>220.9</ele>
        <time>2026-03-26T08:50:24.000Z</time>
      </trkpt>
      <trkpt lat="48.7445" lon="1.76501">
        <ele>219.5</ele>
        <time>2026-03-26T08:50:25.000Z</time>
      </trkpt>
      <trkpt lat="48.74449" lon="1.765">
        <ele>218.4</ele>
        <time>2026-03-26T08:50:26.000Z</time>
      </trkpt>
      <trkpt lat="48.74448" lon="1.765">
        <ele>218.3</ele>
        <time>2026-03-26T08:50:27.000Z</time>
      </trkpt>
      <trkpt lat="48.74447" lon="1.76498">
        <ele>217.7</ele>
        <time>2026-03-26T08:50:28.000Z</time>
      </trkpt>
      <trkpt lat="48.74446" lon="1.76498">
        <ele>216.8</ele>
        <time>2026-03-26T08:50:29.000Z</time>
      </trkpt>
      <trkpt lat="48.74445" lon="1.76497">
        <ele>216.6</ele>
        <time>2026-03-26T08:50:30.000Z</time>
      </trkpt>
      <trkpt lat="48.74444" lon="1.76496">
        <ele>216.9</ele>
        <time>2026-03-26T08:50:31.000Z</time>
      </trkpt>
      <trkpt lat="48.74444" lon="1.76495">
        <ele>217.2</ele>
        <time>2026-03-26T08:50:32.000Z</time>
      </trkpt>
      <trkpt lat="48.74443" lon="1.76493">
        <ele>216.9</ele>
        <time>2026-03-26T08:50:33.000Z</time>
      </trkpt>
      <trkpt lat="48.74442" lon="1.76493">
        <ele>217.2</ele>
        <time>2026-03-26T08:50:34.000Z</time>
      </trkpt>
      <trkpt lat="48.74441" lon="1.76492">
        <ele>216.9</ele>
        <time>2026-03-26T08:50:35.000Z</time>
      </trkpt>
      <trkpt lat="48.7444" lon="1.76491">
        <ele>216.5</ele>
        <time>2026-03-26T08:50:36.000Z</time>
      </trkpt>
      <trkpt lat="48.74439" lon="1.7649">
        <ele>216.5</ele>
        <time>2026-03-26T08:50:37.000Z</time>
      </trkpt>
      <trkpt lat="48.74438" lon="1.76489">
        <ele>215.9</ele>
        <time>2026-03-26T08:50:38.000Z</time>
      </trkpt>
      <trkpt lat="48.74437" lon="1.76488">
        <ele>215.4</ele>
        <time>2026-03-26T08:50:39.000Z</time>
      </trkpt>
      <trkpt lat="48.74436" lon="1.76487">
        <ele>214.4</ele>
        <time>2026-03-26T08:50:40.000Z</time>
      </trkpt>
      <trkpt lat="48.74435" lon="1.76486">
        <ele>214</ele>
        <time>2026-03-26T08:50:41.000Z</time>
      </trkpt>
      <trkpt lat="48.74433" lon="1.76486">
        <ele>213.6</ele>
        <time>2026-03-26T08:50:42.000Z</time>
      </trkpt>
      <trkpt lat="48.74432" lon="1.76485">
        <ele>213.6</ele>
        <time>2026-03-26T08:50:43.000Z</time>
      </trkpt>
      <trkpt lat="48.74431" lon="1.76483">
        <ele>213.6</ele>
        <time>2026-03-26T08:50:44.000Z</time>
      </trkpt>
      <trkpt lat="48.7443" lon="1.76483">
        <ele>213.9</ele>
        <time>2026-03-26T08:50:45.000Z</time>
      </trkpt>
      <trkpt lat="48.7443" lon="1.76482">
        <ele>213.3</ele>
        <time>2026-03-26T08:50:46.000Z</time>
      </trkpt>
      <trkpt lat="48.74429" lon="1.7648">
        <ele>213.1</ele>
        <time>2026-03-26T08:50:47.000Z</time>
      </trkpt>
      <trkpt lat="48.74428" lon="1.76479">
        <ele>212.3</ele>
        <time>2026-03-26T08:50:48.000Z</time>
      </trkpt>
      <trkpt lat="48.74427" lon="1.76478">
        <ele>211.5</ele>
        <time>2026-03-26T08:50:49.000Z</time>
      </trkpt>
      <trkpt lat="48.74426" lon="1.76476">
        <ele>211.1</ele>
        <time>2026-03-26T08:50:50.000Z</time>
      </trkpt>
      <trkpt lat="48.74425" lon="1.76475">
        <ele>210.7</ele>
        <time>2026-03-26T08:50:51.000Z</time>
      </trkpt>
      <trkpt lat="48.74425" lon="1.76473">
        <ele>210.3</ele>
        <time>2026-03-26T08:50:52.000Z</time>
      </trkpt>
      <trkpt lat="48.74424" lon="1.76472">
        <ele>210.1</ele>
        <time>2026-03-26T08:50:53.000Z</time>
      </trkpt>
      <trkpt lat="48.74424" lon="1.7647">
        <ele>210</ele>
        <time>2026-03-26T08:50:54.000Z</time>
      </trkpt>
      <trkpt lat="48.74423" lon="1.76469">
        <ele>209.2</ele>
        <time>2026-03-26T08:50:55.000Z</time>
      </trkpt>
      <trkpt lat="48.74422" lon="1.76467">
        <ele>209.3</ele>
        <time>2026-03-26T08:50:56.000Z</time>
      </trkpt>
      <trkpt lat="48.74422" lon="1.76465">
        <ele>209.5</ele>
        <time>2026-03-26T08:50:57.000Z</time>
      </trkpt>
      <trkpt lat="48.74421" lon="1.76463">
        <ele>210.4</ele>
        <time>2026-03-26T08:50:58.000Z</time>
      </trkpt>
      <trkpt lat="48.74421" lon="1.76462">
        <ele>210.7</ele>
        <time>2026-03-26T08:50:59.000Z</time>
      </trkpt>
      <trkpt lat="48.7442" lon="1.7646">
        <ele>210.8</ele>
        <time>2026-03-26T08:51:00.000Z</time>
      </trkpt>
      <trkpt lat="48.74419" lon="1.76459">
        <ele>210.9</ele>
        <time>2026-03-26T08:51:01.000Z</time>
      </trkpt>
      <trkpt lat="48.74419" lon="1.76457">
        <ele>210.1</ele>
        <time>2026-03-26T08:51:02.000Z</time>
      </trkpt>
      <trkpt lat="48.74418" lon="1.76455">
        <ele>210.1</ele>
        <time>2026-03-26T08:51:03.000Z</time>
      </trkpt>
      <trkpt lat="48.74418" lon="1.76454">
        <ele>209.8</ele>
        <time>2026-03-26T08:51:04.000Z</time>
      </trkpt>
      <trkpt lat="48.74417" lon="1.76452">
        <ele>209.4</ele>
        <time>2026-03-26T08:51:05.000Z</time>
      </trkpt>
      <trkpt lat="48.74416" lon="1.76451">
        <ele>209.1</ele>
        <time>2026-03-26T08:51:06.000Z</time>
      </trkpt>
      <trkpt lat="48.74415" lon="1.76449">
        <ele>208.6</ele>
        <time>2026-03-26T08:51:07.000Z</time>
      </trkpt>
      <trkpt lat="48.74414" lon="1.76447">
        <ele>208.8</ele>
        <time>2026-03-26T08:51:08.000Z</time>
      </trkpt>
      <trkpt lat="48.74414" lon="1.76446">
        <ele>208.2</ele>
        <time>2026-03-26T08:51:09.000Z</time>
      </trkpt>
      <trkpt lat="48.74413" lon="1.76445">
        <ele>207.2</ele>
        <time>2026-03-26T08:51:10.000Z</time>
      </trkpt>
      <trkpt lat="48.74412" lon="1.76443">
        <ele>206.1</ele>
        <time>2026-03-26T08:51:11.000Z</time>
      </trkpt>
      <trkpt lat="48.74411" lon="1.76441">
        <ele>205.7</ele>
        <time>2026-03-26T08:51:12.000Z</time>
      </trkpt>
      <trkpt lat="48.74411" lon="1.76439">
        <ele>206</ele>
        <time>2026-03-26T08:51:13.000Z</time>
      </trkpt>
      <trkpt lat="48.7441" lon="1.76437">
        <ele>205.4</ele>
        <time>2026-03-26T08:51:14.000Z</time>
      </trkpt>
      <trkpt lat="48.7441" lon="1.76436">
        <ele>205.5</ele>
        <time>2026-03-26T08:51:15.000Z</time>
      </trkpt>
      <trkpt lat="48.7441" lon="1.76434">
        <ele>205.5</ele>
        <time>2026-03-26T08:51:16.000Z</time>
      </trkpt>
      <trkpt lat="48.7441" lon="1.76432">
        <ele>205.7</ele>
        <time>2026-03-26T08:51:17.000Z</time>
      </trkpt>
      <trkpt lat="48.74409" lon="1.7643">
        <ele>205.6</ele>
        <time>2026-03-26T08:51:18.000Z</time>
      </trkpt>
      <trkpt lat="48.74409" lon="1.76428">
        <ele>205.4</ele>
        <time>2026-03-26T08:51:19.000Z</time>
      </trkpt>
      <trkpt lat="48.74408" lon="1.76427">
        <ele>205.6</ele>
        <time>2026-03-26T08:51:20.000Z</time>
      </trkpt>
      <trkpt lat="48.74407" lon="1.76425">
        <ele>204.8</ele>
        <time>2026-03-26T08:51:21.000Z</time>
      </trkpt>
      <trkpt lat="48.74406" lon="1.76424">
        <ele>205.3</ele>
        <time>2026-03-26T08:51:22.000Z</time>
      </trkpt>
      <trkpt lat="48.74405" lon="1.76422">
        <ele>205.1</ele>
        <time>2026-03-26T08:51:23.000Z</time>
      </trkpt>
      <trkpt lat="48.74404" lon="1.7642">
        <ele>205.4</ele>
        <time>2026-03-26T08:51:24.000Z</time>
      </trkpt>
      <trkpt lat="48.74404" lon="1.76418">
        <ele>205</ele>
        <time>2026-03-26T08:51:25.000Z</time>
      </trkpt>
      <trkpt lat="48.74403" lon="1.76416">
        <ele>204.9</ele>
        <time>2026-03-26T08:51:26.000Z</time>
      </trkpt>
      <trkpt lat="48.74403" lon="1.76415">
        <ele>205.2</ele>
        <time>2026-03-26T08:51:27.000Z</time>
      </trkpt>
      <trkpt lat="48.74402" lon="1.76413">
        <ele>205.3</ele>
        <time>2026-03-26T08:51:28.000Z</time>
      </trkpt>
      <trkpt lat="48.74402" lon="1.76411">
        <ele>204.7</ele>
        <time>2026-03-26T08:51:29.000Z</time>
      </trkpt>
      <trkpt lat="48.74401" lon="1.76409">
        <ele>204.6</ele>
        <time>2026-03-26T08:51:30.000Z</time>
      </trkpt>
      <trkpt lat="48.74401" lon="1.76407">
        <ele>204.4</ele>
        <time>2026-03-26T08:51:31.000Z</time>
      </trkpt>
      <trkpt lat="48.744" lon="1.76405">
        <ele>204.9</ele>
        <time>2026-03-26T08:51:32.000Z</time>
      </trkpt>
      <trkpt lat="48.744" lon="1.76403">
        <ele>204.8</ele>
        <time>2026-03-26T08:51:33.000Z</time>
      </trkpt>
      <trkpt lat="48.74399" lon="1.76402">
        <ele>204.6</ele>
        <time>2026-03-26T08:51:34.000Z</time>
      </trkpt>
      <trkpt lat="48.74399" lon="1.764">
        <ele>204.4</ele>
        <time>2026-03-26T08:51:35.000Z</time>
      </trkpt>
      <trkpt lat="48.74398" lon="1.76398">
        <ele>204.6</ele>
        <time>2026-03-26T08:51:36.000Z</time>
      </trkpt>
      <trkpt lat="48.74397" lon="1.76396">
        <ele>205.1</ele>
        <time>2026-03-26T08:51:37.000Z</time>
      </trkpt>
      <trkpt lat="48.74396" lon="1.76395">
        <ele>204.8</ele>
        <time>2026-03-26T08:51:38.000Z</time>
      </trkpt>
      <trkpt lat="48.74396" lon="1.76393">
        <ele>204.7</ele>
        <time>2026-03-26T08:51:39.000Z</time>
      </trkpt>
      <trkpt lat="48.74396" lon="1.76391">
        <ele>204.1</ele>
        <time>2026-03-26T08:51:40.000Z</time>
      </trkpt>
      <trkpt lat="48.74396" lon="1.76389">
        <ele>204.1</ele>
        <time>2026-03-26T08:51:41.000Z</time>
      </trkpt>
      <trkpt lat="48.74395" lon="1.76388">
        <ele>203.8</ele>
        <time>2026-03-26T08:51:42.000Z</time>
      </trkpt>
      <trkpt lat="48.74395" lon="1.76386">
        <ele>203.7</ele>
        <time>2026-03-26T08:51:43.000Z</time>
      </trkpt>
      <trkpt lat="48.74395" lon="1.76384">
        <ele>203.5</ele>
        <time>2026-03-26T08:51:44.000Z</time>
      </trkpt>
      <trkpt lat="48.74394" lon="1.76382">
        <ele>202.7</ele>
        <time>2026-03-26T08:51:45.000Z</time>
      </trkpt>
      <trkpt lat="48.74394" lon="1.7638">
        <ele>202.7</ele>
        <time>2026-03-26T08:51:46.000Z</time>
      </trkpt>
      <trkpt lat="48.74394" lon="1.76378">
        <ele>202.5</ele>
        <time>2026-03-26T08:51:47.000Z</time>
      </trkpt>
      <trkpt lat="48.74394" lon="1.76376">
        <ele>202</ele>
        <time>2026-03-26T08:51:48.000Z</time>
      </trkpt>
      <trkpt lat="48.74393" lon="1.76375">
        <ele>202.2</ele>
        <time>2026-03-26T08:51:49.000Z</time>
      </trkpt>
      <trkpt lat="48.74393" lon="1.76372">
        <ele>202.3</ele>
        <time>2026-03-26T08:51:50.000Z</time>
      </trkpt>
      <trkpt lat="48.74394" lon="1.7637">
        <ele>202.8</ele>
        <time>2026-03-26T08:51:51.000Z</time>
      </trkpt>
      <trkpt lat="48.74394" lon="1.76368">
        <ele>202.7</ele>
        <time>2026-03-26T08:51:52.000Z</time>
      </trkpt>
      <trkpt lat="48.74394" lon="1.76367">
        <ele>202</ele>
        <time>2026-03-26T08:51:53.000Z</time>
      </trkpt>
      <trkpt lat="48.74394" lon="1.76365">
        <ele>201.8</ele>
        <time>2026-03-26T08:51:54.000Z</time>
      </trkpt>
      <trkpt lat="48.74394" lon="1.76363">
        <ele>201.4</ele>
        <time>2026-03-26T08:51:55.000Z</time>
      </trkpt>
      <trkpt lat="48.74393" lon="1.76361">
        <ele>200.8</ele>
        <time>2026-03-26T08:51:56.000Z</time>
      </trkpt>
      <trkpt lat="48.74393" lon="1.76359">
        <ele>200.3</ele>
        <time>2026-03-26T08:51:57.000Z</time>
      </trkpt>
      <trkpt lat="48.74393" lon="1.76357">
        <ele>200.4</ele>
        <time>2026-03-26T08:51:58.000Z</time>
      </trkpt>
      <trkpt lat="48.74392" lon="1.76356">
        <ele>200</ele>
        <time>2026-03-26T08:51:59.000Z</time>
      </trkpt>
      <trkpt lat="48.74392" lon="1.76354">
        <ele>200</ele>
        <time>2026-03-26T08:52:00.000Z</time>
      </trkpt>
      <trkpt lat="48.74392" lon="1.76352">
        <ele>200.1</ele>
        <time>2026-03-26T08:52:01.000Z</time>
      </trkpt>
      <trkpt lat="48.74391" lon="1.7635">
        <ele>200.5</ele>
        <time>2026-03-26T08:52:02.000Z</time>
      </trkpt>
      <trkpt lat="48.74391" lon="1.76347">
        <ele>200.6</ele>
        <time>2026-03-26T08:52:03.000Z</time>
      </trkpt>
      <trkpt lat="48.74391" lon="1.76345">
        <ele>200.7</ele>
        <time>2026-03-26T08:52:04.000Z</time>
      </trkpt>
      <trkpt lat="48.74391" lon="1.76343">
        <ele>200.9</ele>
        <time>2026-03-26T08:52:05.000Z</time>
      </trkpt>
      <trkpt lat="48.74391" lon="1.76342">
        <ele>200.5</ele>
        <time>2026-03-26T08:52:06.000Z</time>
      </trkpt>
      <trkpt lat="48.74391" lon="1.7634">
        <ele>199.9</ele>
        <time>2026-03-26T08:52:07.000Z</time>
      </trkpt>
      <trkpt lat="48.74391" lon="1.76338">
        <ele>200.4</ele>
        <time>2026-03-26T08:52:08.000Z</time>
      </trkpt>
      <trkpt lat="48.74392" lon="1.76336">
        <ele>200.3</ele>
        <time>2026-03-26T08:52:09.000Z</time>
      </trkpt>
      <trkpt lat="48.74392" lon="1.76335">
        <ele>200.6</ele>
        <time>2026-03-26T08:52:10.000Z</time>
      </trkpt>
      <trkpt lat="48.74392" lon="1.76333">
        <ele>200.4</ele>
        <time>2026-03-26T08:52:11.000Z</time>
      </trkpt>
      <trkpt lat="48.74392" lon="1.76331">
        <ele>200.4</ele>
        <time>2026-03-26T08:52:12.000Z</time>
      </trkpt>
      <trkpt lat="48.74392" lon="1.7633">
        <ele>200.6</ele>
        <time>2026-03-26T08:52:13.000Z</time>
      </trkpt>
      <trkpt lat="48.74392" lon="1.76328">
        <ele>200.5</ele>
        <time>2026-03-26T08:52:14.000Z</time>
      </trkpt>
      <trkpt lat="48.74392" lon="1.76326">
        <ele>199.4</ele>
        <time>2026-03-26T08:52:15.000Z</time>
      </trkpt>
      <trkpt lat="48.74392" lon="1.76325">
        <ele>199.2</ele>
        <time>2026-03-26T08:52:16.000Z</time>
      </trkpt>
      <trkpt lat="48.74392" lon="1.76323">
        <ele>198.4</ele>
        <time>2026-03-26T08:52:17.000Z</time>
      </trkpt>
      <trkpt lat="48.74392" lon="1.76322">
        <ele>198.5</ele>
        <time>2026-03-26T08:52:18.000Z</time>
      </trkpt>
      <trkpt lat="48.74391" lon="1.7632">
        <ele>198.5</ele>
        <time>2026-03-26T08:52:19.000Z</time>
      </trkpt>
      <trkpt lat="48.74391" lon="1.76318">
        <ele>198.1</ele>
        <time>2026-03-26T08:52:20.000Z</time>
      </trkpt>
      <trkpt lat="48.7439" lon="1.76316">
        <ele>197.7</ele>
        <time>2026-03-26T08:52:21.000Z</time>
      </trkpt>
      <trkpt lat="48.7439" lon="1.76315">
        <ele>197.6</ele>
        <time>2026-03-26T08:52:22.000Z</time>
      </trkpt>
      <trkpt lat="48.74389" lon="1.76313">
        <ele>197.5</ele>
        <time>2026-03-26T08:52:23.000Z</time>
      </trkpt>
      <trkpt lat="48.74389" lon="1.76311">
        <ele>198</ele>
        <time>2026-03-26T08:52:24.000Z</time>
      </trkpt>
      <trkpt lat="48.74388" lon="1.7631">
        <ele>196.9</ele>
        <time>2026-03-26T08:52:25.000Z</time>
      </trkpt>
      <trkpt lat="48.74388" lon="1.76308">
        <ele>196</ele>
        <time>2026-03-26T08:52:26.000Z</time>
      </trkpt>
      <trkpt lat="48.74387" lon="1.76307">
        <ele>196.3</ele>
        <time>2026-03-26T08:52:27.000Z</time>
      </trkpt>
      <trkpt lat="48.74388" lon="1.76308">
        <ele>193.6</ele>
        <time>2026-03-26T08:52:28.000Z</time>
      </trkpt>
      <trkpt lat="48.74387" lon="1.76306">
        <ele>194.2</ele>
        <time>2026-03-26T08:52:29.000Z</time>
      </trkpt>
      <trkpt lat="48.74387" lon="1.76306">
        <ele>194.7</ele>
        <time>2026-03-26T08:52:30.000Z</time>
      </trkpt>
      <trkpt lat="48.74388" lon="1.76304">
        <ele>194.4</ele>
        <time>2026-03-26T08:52:31.000Z</time>
      </trkpt>
      <trkpt lat="48.74387" lon="1.76302">
        <ele>193.9</ele>
        <time>2026-03-26T08:52:32.000Z</time>
      </trkpt>
      <trkpt lat="48.74387" lon="1.763">
        <ele>193.1</ele>
        <time>2026-03-26T08:52:33.000Z</time>
      </trkpt>
      <trkpt lat="48.74387" lon="1.76299">
        <ele>192.7</ele>
        <time>2026-03-26T08:52:34.000Z</time>
      </trkpt>
      <trkpt lat="48.74386" lon="1.76297">
        <ele>192.5</ele>
        <time>2026-03-26T08:52:35.000Z</time>
      </trkpt>
      <trkpt lat="48.74386" lon="1.76295">
        <ele>192.1</ele>
        <time>2026-03-26T08:52:36.000Z</time>
      </trkpt>
      <trkpt lat="48.74387" lon="1.76293">
        <ele>191.5</ele>
        <time>2026-03-26T08:52:37.000Z</time>
      </trkpt>
      <trkpt lat="48.74387" lon="1.7629">
        <ele>191.6</ele>
        <time>2026-03-26T08:52:38.000Z</time>
      </trkpt>
      <trkpt lat="48.74387" lon="1.76289">
        <ele>190.8</ele>
        <time>2026-03-26T08:52:39.000Z</time>
      </trkpt>
      <trkpt lat="48.74388" lon="1.76287">
        <ele>191.2</ele>
        <time>2026-03-26T08:52:40.000Z</time>
      </trkpt>
      <trkpt lat="48.74389" lon="1.76287">
        <ele>190.5</ele>
        <time>2026-03-26T08:52:41.000Z</time>
      </trkpt>
      <trkpt lat="48.74391" lon="1.76287">
        <ele>189.8</ele>
        <time>2026-03-26T08:52:42.000Z</time>
      </trkpt>
      <trkpt lat="48.74392" lon="1.76286">
        <ele>189.3</ele>
        <time>2026-03-26T08:52:43.000Z</time>
      </trkpt>
      <trkpt lat="48.74393" lon="1.76286">
        <ele>188.8</ele>
        <time>2026-03-26T08:52:44.000Z</time>
      </trkpt>
      <trkpt lat="48.74394" lon="1.76286">
        <ele>188.3</ele>
        <time>2026-03-26T08:52:45.000Z</time>
      </trkpt>
      <trkpt lat="48.74396" lon="1.76284">
        <ele>189.1</ele>
        <time>2026-03-26T08:52:46.000Z</time>
      </trkpt>
      <trkpt lat="48.74397" lon="1.76283">
        <ele>189</ele>
        <time>2026-03-26T08:52:47.000Z</time>
      </trkpt>
      <trkpt lat="48.74398" lon="1.76283">
        <ele>189.4</ele>
        <time>2026-03-26T08:52:48.000Z</time>
      </trkpt>
      <trkpt lat="48.744" lon="1.76282">
        <ele>189.5</ele>
        <time>2026-03-26T08:52:49.000Z</time>
      </trkpt>
      <trkpt lat="48.74401" lon="1.76282">
        <ele>189.4</ele>
        <time>2026-03-26T08:52:50.000Z</time>
      </trkpt>
      <trkpt lat="48.74403" lon="1.76281">
        <ele>189.2</ele>
        <time>2026-03-26T08:52:51.000Z</time>
      </trkpt>
      <trkpt lat="48.74404" lon="1.7628">
        <ele>189.3</ele>
        <time>2026-03-26T08:52:52.000Z</time>
      </trkpt>
      <trkpt lat="48.74405" lon="1.7628">
        <ele>188.9</ele>
        <time>2026-03-26T08:52:53.000Z</time>
      </trkpt>
      <trkpt lat="48.74407" lon="1.7628">
        <ele>189.3</ele>
        <time>2026-03-26T08:52:54.000Z</time>
      </trkpt>
      <trkpt lat="48.74408" lon="1.76279">
        <ele>189.2</ele>
        <time>2026-03-26T08:52:55.000Z</time>
      </trkpt>
      <trkpt lat="48.74409" lon="1.76279">
        <ele>188.9</ele>
        <time>2026-03-26T08:52:56.000Z</time>
      </trkpt>
      <trkpt lat="48.7441" lon="1.76278">
        <ele>189.1</ele>
        <time>2026-03-26T08:52:57.000Z</time>
      </trkpt>
      <trkpt lat="48.74412" lon="1.76278">
        <ele>188.6</ele>
        <time>2026-03-26T08:52:58.000Z</time>
      </trkpt>
      <trkpt lat="48.74413" lon="1.76278">
        <ele>188.4</ele>
        <time>2026-03-26T08:52:59.000Z</time>
      </trkpt>
      <trkpt lat="48.74414" lon="1.76277">
        <ele>188.4</ele>
        <time>2026-03-26T08:53:00.000Z</time>
      </trkpt>
      <trkpt lat="48.74415" lon="1.76277">
        <ele>187.9</ele>
        <time>2026-03-26T08:53:01.000Z</time>
      </trkpt>
      <trkpt lat="48.74417" lon="1.76277">
        <ele>187.9</ele>
        <time>2026-03-26T08:53:02.000Z</time>
      </trkpt>
      <trkpt lat="48.74418" lon="1.76277">
        <ele>187.7</ele>
        <time>2026-03-26T08:53:03.000Z</time>
      </trkpt>
      <trkpt lat="48.74419" lon="1.76277">
        <ele>187.9</ele>
        <time>2026-03-26T08:53:04.000Z</time>
      </trkpt>
      <trkpt lat="48.7442" lon="1.76276">
        <ele>187.8</ele>
        <time>2026-03-26T08:53:05.000Z</time>
      </trkpt>
      <trkpt lat="48.74422" lon="1.76275">
        <ele>188</ele>
        <time>2026-03-26T08:53:06.000Z</time>
      </trkpt>
      <trkpt lat="48.74423" lon="1.76275">
        <ele>188.3</ele>
        <time>2026-03-26T08:53:07.000Z</time>
      </trkpt>
      <trkpt lat="48.74425" lon="1.76274">
        <ele>188.7</ele>
        <time>2026-03-26T08:53:08.000Z</time>
      </trkpt>
      <trkpt lat="48.74426" lon="1.76273">
        <ele>189.2</ele>
        <time>2026-03-26T08:53:09.000Z</time>
      </trkpt>
      <trkpt lat="48.74427" lon="1.76272">
        <ele>188.7</ele>
        <time>2026-03-26T08:53:10.000Z</time>
      </trkpt>
      <trkpt lat="48.74429" lon="1.76271">
        <ele>188.8</ele>
        <time>2026-03-26T08:53:11.000Z</time>
      </trkpt>
      <trkpt lat="48.7443" lon="1.76271">
        <ele>189.1</ele>
        <time>2026-03-26T08:53:12.000Z</time>
      </trkpt>
      <trkpt lat="48.74432" lon="1.76271">
        <ele>189</ele>
        <time>2026-03-26T08:53:13.000Z</time>
      </trkpt>
      <trkpt lat="48.74433" lon="1.7627">
        <ele>188.6</ele>
        <time>2026-03-26T08:53:14.000Z</time>
      </trkpt>
      <trkpt lat="48.74434" lon="1.7627">
        <ele>188.7</ele>
        <time>2026-03-26T08:53:15.000Z</time>
      </trkpt>
      <trkpt lat="48.74436" lon="1.76269">
        <ele>188.8</ele>
        <time>2026-03-26T08:53:16.000Z</time>
      </trkpt>
      <trkpt lat="48.74437" lon="1.76268">
        <ele>188.9</ele>
        <time>2026-03-26T08:53:17.000Z</time>
      </trkpt>
      <trkpt lat="48.74438" lon="1.76267">
        <ele>188.5</ele>
        <time>2026-03-26T08:53:18.000Z</time>
      </trkpt>
      <trkpt lat="48.7444" lon="1.76267">
        <ele>188.3</ele>
        <time>2026-03-26T08:53:19.000Z</time>
      </trkpt>
      <trkpt lat="48.74441" lon="1.76266">
        <ele>189.1</ele>
        <time>2026-03-26T08:53:20.000Z</time>
      </trkpt>
      <trkpt lat="48.74442" lon="1.76264">
        <ele>189.8</ele>
        <time>2026-03-26T08:53:21.000Z</time>
      </trkpt>
      <trkpt lat="48.74444" lon="1.76263">
        <ele>191</ele>
        <time>2026-03-26T08:53:22.000Z</time>
      </trkpt>
      <trkpt lat="48.74445" lon="1.76262">
        <ele>191.4</ele>
        <time>2026-03-26T08:53:23.000Z</time>
      </trkpt>
      <trkpt lat="48.74447" lon="1.76261">
        <ele>192.9</ele>
        <time>2026-03-26T08:53:24.000Z</time>
      </trkpt>
      <trkpt lat="48.74448" lon="1.7626">
        <ele>192.7</ele>
        <time>2026-03-26T08:53:25.000Z</time>
      </trkpt>
      <trkpt lat="48.7445" lon="1.76259">
        <ele>192.3</ele>
        <time>2026-03-26T08:53:26.000Z</time>
      </trkpt>
      <trkpt lat="48.74451" lon="1.76259">
        <ele>192.3</ele>
        <time>2026-03-26T08:53:27.000Z</time>
      </trkpt>
      <trkpt lat="48.74452" lon="1.76258">
        <ele>192.7</ele>
        <time>2026-03-26T08:53:28.000Z</time>
      </trkpt>
      <trkpt lat="48.74453" lon="1.76258">
        <ele>192.3</ele>
        <time>2026-03-26T08:53:29.000Z</time>
      </trkpt>
      <trkpt lat="48.74454" lon="1.76256">
        <ele>192.5</ele>
        <time>2026-03-26T08:53:30.000Z</time>
      </trkpt>
      <trkpt lat="48.74456" lon="1.76255">
        <ele>192.9</ele>
        <time>2026-03-26T08:53:31.000Z</time>
      </trkpt>
      <trkpt lat="48.74457" lon="1.76254">
        <ele>193.4</ele>
        <time>2026-03-26T08:53:32.000Z</time>
      </trkpt>
      <trkpt lat="48.74458" lon="1.76254">
        <ele>192.5</ele>
        <time>2026-03-26T08:53:33.000Z</time>
      </trkpt>
      <trkpt lat="48.74459" lon="1.76253">
        <ele>191.8</ele>
        <time>2026-03-26T08:53:34.000Z</time>
      </trkpt>
      <trkpt lat="48.74461" lon="1.76252">
        <ele>191.6</ele>
        <time>2026-03-26T08:53:35.000Z</time>
      </trkpt>
      <trkpt lat="48.74462" lon="1.76251">
        <ele>191.4</ele>
        <time>2026-03-26T08:53:36.000Z</time>
      </trkpt>
      <trkpt lat="48.74463" lon="1.7625">
        <ele>191.8</ele>
        <time>2026-03-26T08:53:37.000Z</time>
      </trkpt>
      <trkpt lat="48.74465" lon="1.76249">
        <ele>191.9</ele>
        <time>2026-03-26T08:53:38.000Z</time>
      </trkpt>
      <trkpt lat="48.74466" lon="1.76248">
        <ele>192.2</ele>
        <time>2026-03-26T08:53:39.000Z</time>
      </trkpt>
      <trkpt lat="48.74467" lon="1.76248">
        <ele>192.1</ele>
        <time>2026-03-26T08:53:40.000Z</time>
      </trkpt>
      <trkpt lat="48.74468" lon="1.76247">
        <ele>192</ele>
        <time>2026-03-26T08:53:41.000Z</time>
      </trkpt>
      <trkpt lat="48.74469" lon="1.76246">
        <ele>191.7</ele>
        <time>2026-03-26T08:53:42.000Z</time>
      </trkpt>
      <trkpt lat="48.74471" lon="1.76245">
        <ele>191.7</ele>
        <time>2026-03-26T08:53:43.000Z</time>
      </trkpt>
      <trkpt lat="48.74472" lon="1.76244">
        <ele>192.1</ele>
        <time>2026-03-26T08:53:44.000Z</time>
      </trkpt>
      <trkpt lat="48.74473" lon="1.76243">
        <ele>192.6</ele>
        <time>2026-03-26T08:53:45.000Z</time>
      </trkpt>
      <trkpt lat="48.74474" lon="1.76242">
        <ele>193.1</ele>
        <time>2026-03-26T08:53:46.000Z</time>
      </trkpt>
      <trkpt lat="48.74475" lon="1.76241">
        <ele>192.5</ele>
        <time>2026-03-26T08:53:47.000Z</time>
      </trkpt>
      <trkpt lat="48.74475" lon="1.76239">
        <ele>192.1</ele>
        <time>2026-03-26T08:53:48.000Z</time>
      </trkpt>
      <trkpt lat="48.74476" lon="1.76238">
        <ele>191.8</ele>
        <time>2026-03-26T08:53:49.000Z</time>
      </trkpt>
      <trkpt lat="48.74477" lon="1.76237">
        <ele>191.4</ele>
        <time>2026-03-26T08:53:50.000Z</time>
      </trkpt>
      <trkpt lat="48.74478" lon="1.76236">
        <ele>191.1</ele>
        <time>2026-03-26T08:53:51.000Z</time>
      </trkpt>
      <trkpt lat="48.7448" lon="1.76235">
        <ele>190.5</ele>
        <time>2026-03-26T08:53:52.000Z</time>
      </trkpt>
      <trkpt lat="48.74481" lon="1.76234">
        <ele>190.6</ele>
        <time>2026-03-26T08:53:53.000Z</time>
      </trkpt>
      <trkpt lat="48.74482" lon="1.76233">
        <ele>190.2</ele>
        <time>2026-03-26T08:53:54.000Z</time>
      </trkpt>
      <trkpt lat="48.74483" lon="1.76232">
        <ele>189.9</ele>
        <time>2026-03-26T08:53:55.000Z</time>
      </trkpt>
      <trkpt lat="48.74484" lon="1.76232">
        <ele>190.2</ele>
        <time>2026-03-26T08:53:56.000Z</time>
      </trkpt>
      <trkpt lat="48.74485" lon="1.7623">
        <ele>190.9</ele>
        <time>2026-03-26T08:53:57.000Z</time>
      </trkpt>
      <trkpt lat="48.74486" lon="1.76229">
        <ele>190.9</ele>
        <time>2026-03-26T08:53:58.000Z</time>
      </trkpt>
      <trkpt lat="48.74487" lon="1.76228">
        <ele>190.8</ele>
        <time>2026-03-26T08:53:59.000Z</time>
      </trkpt>
      <trkpt lat="48.74488" lon="1.76226">
        <ele>191.5</ele>
        <time>2026-03-26T08:54:00.000Z</time>
      </trkpt>
      <trkpt lat="48.7449" lon="1.76225">
        <ele>191.8</ele>
        <time>2026-03-26T08:54:01.000Z</time>
      </trkpt>
      <trkpt lat="48.74491" lon="1.76224">
        <ele>191.4</ele>
        <time>2026-03-26T08:54:02.000Z</time>
      </trkpt>
      <trkpt lat="48.74492" lon="1.76222">
        <ele>191</ele>
        <time>2026-03-26T08:54:03.000Z</time>
      </trkpt>
      <trkpt lat="48.74492" lon="1.76221">
        <ele>190.7</ele>
        <time>2026-03-26T08:54:04.000Z</time>
      </trkpt>
      <trkpt lat="48.74493" lon="1.7622">
        <ele>190.8</ele>
        <time>2026-03-26T08:54:05.000Z</time>
      </trkpt>
      <trkpt lat="48.74494" lon="1.76218">
        <ele>190.4</ele>
        <time>2026-03-26T08:54:06.000Z</time>
      </trkpt>
      <trkpt lat="48.74495" lon="1.76217">
        <ele>190.9</ele>
        <time>2026-03-26T08:54:07.000Z</time>
      </trkpt>
      <trkpt lat="48.74496" lon="1.76216">
        <ele>191.4</ele>
        <time>2026-03-26T08:54:08.000Z</time>
      </trkpt>
      <trkpt lat="48.74497" lon="1.76215">
        <ele>192</ele>
        <time>2026-03-26T08:54:09.000Z</time>
      </trkpt>
      <trkpt lat="48.74498" lon="1.76214">
        <ele>191.6</ele>
        <time>2026-03-26T08:54:10.000Z</time>
      </trkpt>
      <trkpt lat="48.74499" lon="1.76212">
        <ele>191.2</ele>
        <time>2026-03-26T08:54:11.000Z</time>
      </trkpt>
      <trkpt lat="48.745" lon="1.76211">
        <ele>191.3</ele>
        <time>2026-03-26T08:54:12.000Z</time>
      </trkpt>
      <trkpt lat="48.74501" lon="1.7621">
        <ele>190.8</ele>
        <time>2026-03-26T08:54:13.000Z</time>
      </trkpt>
      <trkpt lat="48.74501" lon="1.76208">
        <ele>190.8</ele>
        <time>2026-03-26T08:54:14.000Z</time>
      </trkpt>
      <trkpt lat="48.74502" lon="1.76207">
        <ele>191.4</ele>
        <time>2026-03-26T08:54:15.000Z</time>
      </trkpt>
      <trkpt lat="48.74503" lon="1.76205">
        <ele>191.8</ele>
        <time>2026-03-26T08:54:16.000Z</time>
      </trkpt>
      <trkpt lat="48.74504" lon="1.76204">
        <ele>191.8</ele>
        <time>2026-03-26T08:54:17.000Z</time>
      </trkpt>
      <trkpt lat="48.74504" lon="1.76203">
        <ele>192.1</ele>
        <time>2026-03-26T08:54:18.000Z</time>
      </trkpt>
      <trkpt lat="48.74505" lon="1.76202">
        <ele>192.2</ele>
        <time>2026-03-26T08:54:19.000Z</time>
      </trkpt>
      <trkpt lat="48.74506" lon="1.762">
        <ele>192</ele>
        <time>2026-03-26T08:54:20.000Z</time>
      </trkpt>
      <trkpt lat="48.74507" lon="1.76199">
        <ele>192.1</ele>
        <time>2026-03-26T08:54:21.000Z</time>
      </trkpt>
      <trkpt lat="48.74507" lon="1.76197">
        <ele>192.4</ele>
        <time>2026-03-26T08:54:22.000Z</time>
      </trkpt>
      <trkpt lat="48.74508" lon="1.76196">
        <ele>192.9</ele>
        <time>2026-03-26T08:54:23.000Z</time>
      </trkpt>
      <trkpt lat="48.74508" lon="1.76195">
        <ele>193.1</ele>
        <time>2026-03-26T08:54:24.000Z</time>
      </trkpt>
      <trkpt lat="48.74509" lon="1.76194">
        <ele>193.1</ele>
        <time>2026-03-26T08:54:25.000Z</time>
      </trkpt>
      <trkpt lat="48.74509" lon="1.76192">
        <ele>193.7</ele>
        <time>2026-03-26T08:54:26.000Z</time>
      </trkpt>
      <trkpt lat="48.7451" lon="1.76191">
        <ele>194</ele>
        <time>2026-03-26T08:54:27.000Z</time>
      </trkpt>
      <trkpt lat="48.74511" lon="1.7619">
        <ele>194.4</ele>
        <time>2026-03-26T08:54:28.000Z</time>
      </trkpt>
      <trkpt lat="48.74511" lon="1.76189">
        <ele>194</ele>
        <time>2026-03-26T08:54:29.000Z</time>
      </trkpt>
      <trkpt lat="48.74512" lon="1.76188">
        <ele>194.8</ele>
        <time>2026-03-26T08:54:30.000Z</time>
      </trkpt>
      <trkpt lat="48.74513" lon="1.76186">
        <ele>195.3</ele>
        <time>2026-03-26T08:54:31.000Z</time>
      </trkpt>
      <trkpt lat="48.74513" lon="1.76185">
        <ele>195.6</ele>
        <time>2026-03-26T08:54:32.000Z</time>
      </trkpt>
      <trkpt lat="48.74514" lon="1.76184">
        <ele>196.1</ele>
        <time>2026-03-26T08:54:33.000Z</time>
      </trkpt>
      <trkpt lat="48.74514" lon="1.76183">
        <ele>196.3</ele>
        <time>2026-03-26T08:54:34.000Z</time>
      </trkpt>
      <trkpt lat="48.74515" lon="1.76182">
        <ele>196.7</ele>
        <time>2026-03-26T08:54:35.000Z</time>
      </trkpt>
      <trkpt lat="48.74515" lon="1.7618">
        <ele>197</ele>
        <time>2026-03-26T08:54:36.000Z</time>
      </trkpt>
      <trkpt lat="48.74515" lon="1.76179">
        <ele>196.5</ele>
        <time>2026-03-26T08:54:37.000Z</time>
      </trkpt>
      <trkpt lat="48.74516" lon="1.76177">
        <ele>196.5</ele>
        <time>2026-03-26T08:54:38.000Z</time>
      </trkpt>
      <trkpt lat="48.74516" lon="1.76176">
        <ele>196.4</ele>
        <time>2026-03-26T08:54:39.000Z</time>
      </trkpt>
      <trkpt lat="48.74517" lon="1.76175">
        <ele>195.5</ele>
        <time>2026-03-26T08:54:40.000Z</time>
      </trkpt>
      <trkpt lat="48.74517" lon="1.76171">
        <ele>196.2</ele>
        <time>2026-03-26T08:54:41.000Z</time>
      </trkpt>
      <trkpt lat="48.74518" lon="1.7617">
        <ele>196.6</ele>
        <time>2026-03-26T08:54:42.000Z</time>
      </trkpt>
      <trkpt lat="48.74519" lon="1.76168">
        <ele>196.6</ele>
        <time>2026-03-26T08:54:43.000Z</time>
      </trkpt>
      <trkpt lat="48.7452" lon="1.76166">
        <ele>196.7</ele>
        <time>2026-03-26T08:54:44.000Z</time>
      </trkpt>
      <trkpt lat="48.74521" lon="1.76165">
        <ele>197.1</ele>
        <time>2026-03-26T08:54:45.000Z</time>
      </trkpt>
      <trkpt lat="48.74522" lon="1.76164">
        <ele>196.8</ele>
        <time>2026-03-26T08:54:46.000Z</time>
      </trkpt>
      <trkpt lat="48.74523" lon="1.76164">
        <ele>195.9</ele>
        <time>2026-03-26T08:54:47.000Z</time>
      </trkpt>
      <trkpt lat="48.74524" lon="1.76163">
        <ele>195.8</ele>
        <time>2026-03-26T08:54:48.000Z</time>
      </trkpt>
      <trkpt lat="48.74525" lon="1.76161">
        <ele>195.3</ele>
        <time>2026-03-26T08:54:49.000Z</time>
      </trkpt>
      <trkpt lat="48.74525" lon="1.7616">
        <ele>195.4</ele>
        <time>2026-03-26T08:54:50.000Z</time>
      </trkpt>
      <trkpt lat="48.74526" lon="1.76158">
        <ele>195.7</ele>
        <time>2026-03-26T08:54:51.000Z</time>
      </trkpt>
      <trkpt lat="48.74527" lon="1.76157">
        <ele>195</ele>
        <time>2026-03-26T08:54:52.000Z</time>
      </trkpt>
      <trkpt lat="48.74528" lon="1.76156">
        <ele>195</ele>
        <time>2026-03-26T08:54:53.000Z</time>
      </trkpt>
      <trkpt lat="48.74529" lon="1.76154">
        <ele>195.1</ele>
        <time>2026-03-26T08:54:54.000Z</time>
      </trkpt>
      <trkpt lat="48.74529" lon="1.76153">
        <ele>195.1</ele>
        <time>2026-03-26T08:54:55.000Z</time>
      </trkpt>
      <trkpt lat="48.7453" lon="1.76152">
        <ele>194.5</ele>
        <time>2026-03-26T08:54:56.000Z</time>
      </trkpt>
      <trkpt lat="48.74531" lon="1.76151">
        <ele>194.6</ele>
        <time>2026-03-26T08:54:57.000Z</time>
      </trkpt>
      <trkpt lat="48.74531" lon="1.7615">
        <ele>194.7</ele>
        <time>2026-03-26T08:54:58.000Z</time>
      </trkpt>
      <trkpt lat="48.74532" lon="1.76148">
        <ele>194.5</ele>
        <time>2026-03-26T08:54:59.000Z</time>
      </trkpt>
      <trkpt lat="48.74532" lon="1.76147">
        <ele>194.4</ele>
        <time>2026-03-26T08:55:00.000Z</time>
      </trkpt>
      <trkpt lat="48.74533" lon="1.76146">
        <ele>194.4</ele>
        <time>2026-03-26T08:55:01.000Z</time>
      </trkpt>
      <trkpt lat="48.74533" lon="1.76145">
        <ele>193.9</ele>
        <time>2026-03-26T08:55:02.000Z</time>
      </trkpt>
      <trkpt lat="48.74534" lon="1.76143">
        <ele>193.8</ele>
        <time>2026-03-26T08:55:03.000Z</time>
      </trkpt>
      <trkpt lat="48.74534" lon="1.76142">
        <ele>193.8</ele>
        <time>2026-03-26T08:55:04.000Z</time>
      </trkpt>
      <trkpt lat="48.74535" lon="1.7614">
        <ele>193.5</ele>
        <time>2026-03-26T08:55:05.000Z</time>
      </trkpt>
      <trkpt lat="48.74535" lon="1.76139">
        <ele>193.5</ele>
        <time>2026-03-26T08:55:06.000Z</time>
      </trkpt>
      <trkpt lat="48.74536" lon="1.76138">
        <ele>193.7</ele>
        <time>2026-03-26T08:55:07.000Z</time>
      </trkpt>
      <trkpt lat="48.74536" lon="1.76136">
        <ele>193.7</ele>
        <time>2026-03-26T08:55:08.000Z</time>
      </trkpt>
      <trkpt lat="48.74537" lon="1.76136">
        <ele>193.4</ele>
        <time>2026-03-26T08:55:09.000Z</time>
      </trkpt>
      <trkpt lat="48.74538" lon="1.76134">
        <ele>193.4</ele>
        <time>2026-03-26T08:55:10.000Z</time>
      </trkpt>
      <trkpt lat="48.74538" lon="1.76133">
        <ele>193.6</ele>
        <time>2026-03-26T08:55:11.000Z</time>
      </trkpt>
      <trkpt lat="48.74538" lon="1.76131">
        <ele>193.9</ele>
        <time>2026-03-26T08:55:12.000Z</time>
      </trkpt>
      <trkpt lat="48.74539" lon="1.76129">
        <ele>193.5</ele>
        <time>2026-03-26T08:55:13.000Z</time>
      </trkpt>
      <trkpt lat="48.7454" lon="1.76128">
        <ele>193.3</ele>
        <time>2026-03-26T08:55:14.000Z</time>
      </trkpt>
      <trkpt lat="48.74541" lon="1.76127">
        <ele>193.7</ele>
        <time>2026-03-26T08:55:15.000Z</time>
      </trkpt>
      <trkpt lat="48.74541" lon="1.76125">
        <ele>193.8</ele>
        <time>2026-03-26T08:55:16.000Z</time>
      </trkpt>
      <trkpt lat="48.74542" lon="1.76124">
        <ele>194</ele>
        <time>2026-03-26T08:55:17.000Z</time>
      </trkpt>
      <trkpt lat="48.74542" lon="1.76123">
        <ele>194.2</ele>
        <time>2026-03-26T08:55:18.000Z</time>
      </trkpt>
      <trkpt lat="48.74543" lon="1.76122">
        <ele>194.2</ele>
        <time>2026-03-26T08:55:19.000Z</time>
      </trkpt>
      <trkpt lat="48.74544" lon="1.76121">
        <ele>193.5</ele>
        <time>2026-03-26T08:55:20.000Z</time>
      </trkpt>
      <trkpt lat="48.74545" lon="1.76119">
        <ele>193.5</ele>
        <time>2026-03-26T08:55:21.000Z</time>
      </trkpt>
      <trkpt lat="48.74546" lon="1.76118">
        <ele>193.3</ele>
        <time>2026-03-26T08:55:22.000Z</time>
      </trkpt>
      <trkpt lat="48.74546" lon="1.76117">
        <ele>192.4</ele>
        <time>2026-03-26T08:55:23.000Z</time>
      </trkpt>
      <trkpt lat="48.74547" lon="1.76116">
        <ele>192.1</ele>
        <time>2026-03-26T08:55:24.000Z</time>
      </trkpt>
      <trkpt lat="48.74548" lon="1.76115">
        <ele>191.6</ele>
        <time>2026-03-26T08:55:25.000Z</time>
      </trkpt>
      <trkpt lat="48.74549" lon="1.76114">
        <ele>191.4</ele>
        <time>2026-03-26T08:55:26.000Z</time>
      </trkpt>
      <trkpt lat="48.7455" lon="1.76112">
        <ele>190.4</ele>
        <time>2026-03-26T08:55:27.000Z</time>
      </trkpt>
      <trkpt lat="48.74551" lon="1.76111">
        <ele>190.1</ele>
        <time>2026-03-26T08:55:28.000Z</time>
      </trkpt>
      <trkpt lat="48.74552" lon="1.76109">
        <ele>190.4</ele>
        <time>2026-03-26T08:55:29.000Z</time>
      </trkpt>
      <trkpt lat="48.74553" lon="1.76107">
        <ele>190</ele>
        <time>2026-03-26T08:55:30.000Z</time>
      </trkpt>
      <trkpt lat="48.74554" lon="1.76106">
        <ele>189.6</ele>
        <time>2026-03-26T08:55:31.000Z</time>
      </trkpt>
      <trkpt lat="48.74555" lon="1.76105">
        <ele>189.4</ele>
        <time>2026-03-26T08:55:32.000Z</time>
      </trkpt>
      <trkpt lat="48.74555" lon="1.76103">
        <ele>188.6</ele>
        <time>2026-03-26T08:55:33.000Z</time>
      </trkpt>
      <trkpt lat="48.74556" lon="1.76102">
        <ele>188.2</ele>
        <time>2026-03-26T08:55:34.000Z</time>
      </trkpt>
      <trkpt lat="48.74557" lon="1.76101">
        <ele>187.8</ele>
        <time>2026-03-26T08:55:35.000Z</time>
      </trkpt>
      <trkpt lat="48.74558" lon="1.76101">
        <ele>187.4</ele>
        <time>2026-03-26T08:55:36.000Z</time>
      </trkpt>
      <trkpt lat="48.7456" lon="1.761">
        <ele>187.1</ele>
        <time>2026-03-26T08:55:37.000Z</time>
      </trkpt>
      <trkpt lat="48.74561" lon="1.761">
        <ele>186.8</ele>
        <time>2026-03-26T08:55:38.000Z</time>
      </trkpt>
      <trkpt lat="48.74562" lon="1.76099">
        <ele>187.6</ele>
        <time>2026-03-26T08:55:39.000Z</time>
      </trkpt>
      <trkpt lat="48.74563" lon="1.76097">
        <ele>188.7</ele>
        <time>2026-03-26T08:55:40.000Z</time>
      </trkpt>
      <trkpt lat="48.74564" lon="1.76096">
        <ele>187.8</ele>
        <time>2026-03-26T08:55:41.000Z</time>
      </trkpt>
      <trkpt lat="48.74565" lon="1.76095">
        <ele>187.6</ele>
        <time>2026-03-26T08:55:42.000Z</time>
      </trkpt>
      <trkpt lat="48.74567" lon="1.76094">
        <ele>188.1</ele>
        <time>2026-03-26T08:55:43.000Z</time>
      </trkpt>
      <trkpt lat="48.74568" lon="1.76092">
        <ele>187.4</ele>
        <time>2026-03-26T08:55:44.000Z</time>
      </trkpt>
      <trkpt lat="48.74569" lon="1.76091">
        <ele>186.8</ele>
        <time>2026-03-26T08:55:45.000Z</time>
      </trkpt>
      <trkpt lat="48.7457" lon="1.7609">
        <ele>186.5</ele>
        <time>2026-03-26T08:55:46.000Z</time>
      </trkpt>
      <trkpt lat="48.74571" lon="1.76089">
        <ele>186.5</ele>
        <time>2026-03-26T08:55:47.000Z</time>
      </trkpt>
      <trkpt lat="48.74572" lon="1.76088">
        <ele>186.4</ele>
        <time>2026-03-26T08:55:48.000Z</time>
      </trkpt>
      <trkpt lat="48.74573" lon="1.76086">
        <ele>185.9</ele>
        <time>2026-03-26T08:55:49.000Z</time>
      </trkpt>
      <trkpt lat="48.74574" lon="1.76085">
        <ele>186</ele>
        <time>2026-03-26T08:55:50.000Z</time>
      </trkpt>
      <trkpt lat="48.74575" lon="1.76084">
        <ele>186.4</ele>
        <time>2026-03-26T08:55:51.000Z</time>
      </trkpt>
      <trkpt lat="48.74576" lon="1.76083">
        <ele>187.2</ele>
        <time>2026-03-26T08:55:52.000Z</time>
      </trkpt>
      <trkpt lat="48.74577" lon="1.76082">
        <ele>187.5</ele>
        <time>2026-03-26T08:55:53.000Z</time>
      </trkpt>
      <trkpt lat="48.74578" lon="1.76081">
        <ele>187.4</ele>
        <time>2026-03-26T08:55:54.000Z</time>
      </trkpt>
      <trkpt lat="48.74579" lon="1.7608">
        <ele>188.2</ele>
        <time>2026-03-26T08:55:55.000Z</time>
      </trkpt>
      <trkpt lat="48.7458" lon="1.7608">
        <ele>188.2</ele>
        <time>2026-03-26T08:55:56.000Z</time>
      </trkpt>
      <trkpt lat="48.74581" lon="1.7608">
        <ele>188.8</ele>
        <time>2026-03-26T08:55:57.000Z</time>
      </trkpt>
      <trkpt lat="48.74582" lon="1.7608">
        <ele>188</ele>
        <time>2026-03-26T08:55:58.000Z</time>
      </trkpt>
      <trkpt lat="48.74584" lon="1.7608">
        <ele>187.5</ele>
        <time>2026-03-26T08:55:59.000Z</time>
      </trkpt>
      <trkpt lat="48.74585" lon="1.7608">
        <ele>187.5</ele>
        <time>2026-03-26T08:56:00.000Z</time>
      </trkpt>
      <trkpt lat="48.74586" lon="1.7608">
        <ele>188.5</ele>
        <time>2026-03-26T08:56:01.000Z</time>
      </trkpt>
      <trkpt lat="48.74587" lon="1.76079">
        <ele>188.5</ele>
        <time>2026-03-26T08:56:02.000Z</time>
      </trkpt>
      <trkpt lat="48.74589" lon="1.76079">
        <ele>188.4</ele>
        <time>2026-03-26T08:56:03.000Z</time>
      </trkpt>
      <trkpt lat="48.7459" lon="1.76079">
        <ele>188.3</ele>
        <time>2026-03-26T08:56:04.000Z</time>
      </trkpt>
      <trkpt lat="48.74591" lon="1.76078">
        <ele>188.7</ele>
        <time>2026-03-26T08:56:05.000Z</time>
      </trkpt>
      <trkpt lat="48.74592" lon="1.76077">
        <ele>188.5</ele>
        <time>2026-03-26T08:56:06.000Z</time>
      </trkpt>
      <trkpt lat="48.74593" lon="1.76077">
        <ele>189.2</ele>
        <time>2026-03-26T08:56:07.000Z</time>
      </trkpt>
      <trkpt lat="48.74594" lon="1.76077">
        <ele>189.9</ele>
        <time>2026-03-26T08:56:08.000Z</time>
      </trkpt>
      <trkpt lat="48.74595" lon="1.76076">
        <ele>190.5</ele>
        <time>2026-03-26T08:56:09.000Z</time>
      </trkpt>
      <trkpt lat="48.74597" lon="1.76076">
        <ele>190.4</ele>
        <time>2026-03-26T08:56:10.000Z</time>
      </trkpt>
      <trkpt lat="48.74598" lon="1.76076">
        <ele>190.3</ele>
        <time>2026-03-26T08:56:11.000Z</time>
      </trkpt>
      <trkpt lat="48.74599" lon="1.76076">
        <ele>190</ele>
        <time>2026-03-26T08:56:12.000Z</time>
      </trkpt>
      <trkpt lat="48.746" lon="1.76076">
        <ele>189.2</ele>
        <time>2026-03-26T08:56:13.000Z</time>
      </trkpt>
      <trkpt lat="48.74601" lon="1.76076">
        <ele>188.9</ele>
        <time>2026-03-26T08:56:14.000Z</time>
      </trkpt>
      <trkpt lat="48.74603" lon="1.76075">
        <ele>189.2</ele>
        <time>2026-03-26T08:56:15.000Z</time>
      </trkpt>
      <trkpt lat="48.74604" lon="1.76075">
        <ele>189.4</ele>
        <time>2026-03-26T08:56:16.000Z</time>
      </trkpt>
      <trkpt lat="48.74605" lon="1.76075">
        <ele>188.4</ele>
        <time>2026-03-26T08:56:17.000Z</time>
      </trkpt>
      <trkpt lat="48.74606" lon="1.76075">
        <ele>188.4</ele>
        <time>2026-03-26T08:56:18.000Z</time>
      </trkpt>
      <trkpt lat="48.74607" lon="1.76075">
        <ele>188.4</ele>
        <time>2026-03-26T08:56:19.000Z</time>
      </trkpt>
      <trkpt lat="48.74609" lon="1.76074">
        <ele>188.6</ele>
        <time>2026-03-26T08:56:20.000Z</time>
      </trkpt>
      <trkpt lat="48.7461" lon="1.76074">
        <ele>188.5</ele>
        <time>2026-03-26T08:56:21.000Z</time>
      </trkpt>
      <trkpt lat="48.74611" lon="1.76074">
        <ele>189.3</ele>
        <time>2026-03-26T08:56:22.000Z</time>
      </trkpt>
      <trkpt lat="48.74613" lon="1.76074">
        <ele>188.6</ele>
        <time>2026-03-26T08:56:23.000Z</time>
      </trkpt>
      <trkpt lat="48.74614" lon="1.76074">
        <ele>188.4</ele>
        <time>2026-03-26T08:56:24.000Z</time>
      </trkpt>
      <trkpt lat="48.74615" lon="1.76074">
        <ele>188</ele>
        <time>2026-03-26T08:56:25.000Z</time>
      </trkpt>
      <trkpt lat="48.74616" lon="1.76074">
        <ele>187.6</ele>
        <time>2026-03-26T08:56:26.000Z</time>
      </trkpt>
      <trkpt lat="48.74617" lon="1.76073">
        <ele>187.5</ele>
        <time>2026-03-26T08:56:27.000Z</time>
      </trkpt>
      <trkpt lat="48.74618" lon="1.76072">
        <ele>188.1</ele>
        <time>2026-03-26T08:56:28.000Z</time>
      </trkpt>
      <trkpt lat="48.7462" lon="1.76071">
        <ele>188.4</ele>
        <time>2026-03-26T08:56:29.000Z</time>
      </trkpt>
      <trkpt lat="48.74621" lon="1.76071">
        <ele>188.3</ele>
        <time>2026-03-26T08:56:30.000Z</time>
      </trkpt>
      <trkpt lat="48.74623" lon="1.76071">
        <ele>188.4</ele>
        <time>2026-03-26T08:56:31.000Z</time>
      </trkpt>
      <trkpt lat="48.74624" lon="1.76071">
        <ele>188.2</ele>
        <time>2026-03-26T08:56:32.000Z</time>
      </trkpt>
      <trkpt lat="48.74625" lon="1.7607">
        <ele>188.8</ele>
        <time>2026-03-26T08:56:33.000Z</time>
      </trkpt>
      <trkpt lat="48.74627" lon="1.7607">
        <ele>189.5</ele>
        <time>2026-03-26T08:56:34.000Z</time>
      </trkpt>
      <trkpt lat="48.74628" lon="1.76069">
        <ele>189.6</ele>
        <time>2026-03-26T08:56:35.000Z</time>
      </trkpt>
      <trkpt lat="48.7463" lon="1.76069">
        <ele>189.8</ele>
        <time>2026-03-26T08:56:36.000Z</time>
      </trkpt>
      <trkpt lat="48.74631" lon="1.76069">
        <ele>190.3</ele>
        <time>2026-03-26T08:56:37.000Z</time>
      </trkpt>
      <trkpt lat="48.74633" lon="1.76068">
        <ele>190.7</ele>
        <time>2026-03-26T08:56:38.000Z</time>
      </trkpt>
      <trkpt lat="48.74635" lon="1.76068">
        <ele>190.5</ele>
        <time>2026-03-26T08:56:39.000Z</time>
      </trkpt>
      <trkpt lat="48.74636" lon="1.76067">
        <ele>191.1</ele>
        <time>2026-03-26T08:56:40.000Z</time>
      </trkpt>
      <trkpt lat="48.74637" lon="1.76067">
        <ele>191.1</ele>
        <time>2026-03-26T08:56:41.000Z</time>
      </trkpt>
      <trkpt lat="48.74639" lon="1.76067">
        <ele>190.5</ele>
        <time>2026-03-26T08:56:42.000Z</time>
      </trkpt>
      <trkpt lat="48.7464" lon="1.76067">
        <ele>190.4</ele>
        <time>2026-03-26T08:56:43.000Z</time>
      </trkpt>
      <trkpt lat="48.74641" lon="1.76066">
        <ele>190.7</ele>
        <time>2026-03-26T08:56:44.000Z</time>
      </trkpt>
      <trkpt lat="48.74642" lon="1.76066">
        <ele>190.6</ele>
        <time>2026-03-26T08:56:45.000Z</time>
      </trkpt>
      <trkpt lat="48.74643" lon="1.76066">
        <ele>190.5</ele>
        <time>2026-03-26T08:56:46.000Z</time>
      </trkpt>
      <trkpt lat="48.74644" lon="1.76065">
        <ele>190.7</ele>
        <time>2026-03-26T08:56:47.000Z</time>
      </trkpt>
      <trkpt lat="48.74646" lon="1.76065">
        <ele>190.5</ele>
        <time>2026-03-26T08:56:48.000Z</time>
      </trkpt>
      <trkpt lat="48.74647" lon="1.76064">
        <ele>189.8</ele>
        <time>2026-03-26T08:56:49.000Z</time>
      </trkpt>
      <trkpt lat="48.74648" lon="1.76064">
        <ele>190</ele>
        <time>2026-03-26T08:56:50.000Z</time>
      </trkpt>
      <trkpt lat="48.74649" lon="1.76064">
        <ele>189.6</ele>
        <time>2026-03-26T08:56:51.000Z</time>
      </trkpt>
      <trkpt lat="48.7465" lon="1.76064">
        <ele>189.6</ele>
        <time>2026-03-26T08:56:52.000Z</time>
      </trkpt>
      <trkpt lat="48.74651" lon="1.76063">
        <ele>189.9</ele>
        <time>2026-03-26T08:56:53.000Z</time>
      </trkpt>
      <trkpt lat="48.74652" lon="1.76063">
        <ele>189.5</ele>
        <time>2026-03-26T08:56:54.000Z</time>
      </trkpt>
      <trkpt lat="48.74654" lon="1.76063">
        <ele>188.9</ele>
        <time>2026-03-26T08:56:55.000Z</time>
      </trkpt>
      <trkpt lat="48.74655" lon="1.76063">
        <ele>188.6</ele>
        <time>2026-03-26T08:56:56.000Z</time>
      </trkpt>
      <trkpt lat="48.74656" lon="1.76062">
        <ele>189.1</ele>
        <time>2026-03-26T08:56:57.000Z</time>
      </trkpt>
      <trkpt lat="48.74658" lon="1.76062">
        <ele>189.4</ele>
        <time>2026-03-26T08:56:58.000Z</time>
      </trkpt>
      <trkpt lat="48.74659" lon="1.76061">
        <ele>189</ele>
        <time>2026-03-26T08:56:59.000Z</time>
      </trkpt>
      <trkpt lat="48.7466" lon="1.7606">
        <ele>189</ele>
        <time>2026-03-26T08:57:00.000Z</time>
      </trkpt>
      <trkpt lat="48.74661" lon="1.7606">
        <ele>188.8</ele>
        <time>2026-03-26T08:57:01.000Z</time>
      </trkpt>
      <trkpt lat="48.74662" lon="1.76059">
        <ele>188</ele>
        <time>2026-03-26T08:57:02.000Z</time>
      </trkpt>
      <trkpt lat="48.74664" lon="1.76059">
        <ele>188.3</ele>
        <time>2026-03-26T08:57:03.000Z</time>
      </trkpt>
      <trkpt lat="48.74665" lon="1.76058">
        <ele>188.4</ele>
        <time>2026-03-26T08:57:04.000Z</time>
      </trkpt>
      <trkpt lat="48.74666" lon="1.76057">
        <ele>187.7</ele>
        <time>2026-03-26T08:57:05.000Z</time>
      </trkpt>
      <trkpt lat="48.74667" lon="1.76057">
        <ele>187.2</ele>
        <time>2026-03-26T08:57:06.000Z</time>
      </trkpt>
      <trkpt lat="48.74669" lon="1.76057">
        <ele>187.5</ele>
        <time>2026-03-26T08:57:07.000Z</time>
      </trkpt>
      <trkpt lat="48.7467" lon="1.76056">
        <ele>187.6</ele>
        <time>2026-03-26T08:57:08.000Z</time>
      </trkpt>
      <trkpt lat="48.74671" lon="1.76055">
        <ele>187.8</ele>
        <time>2026-03-26T08:57:09.000Z</time>
      </trkpt>
      <trkpt lat="48.74673" lon="1.76054">
        <ele>188.2</ele>
        <time>2026-03-26T08:57:10.000Z</time>
      </trkpt>
      <trkpt lat="48.74674" lon="1.76053">
        <ele>188.2</ele>
        <time>2026-03-26T08:57:11.000Z</time>
      </trkpt>
      <trkpt lat="48.74675" lon="1.76052">
        <ele>188.7</ele>
        <time>2026-03-26T08:57:12.000Z</time>
      </trkpt>
      <trkpt lat="48.74677" lon="1.76051">
        <ele>189.4</ele>
        <time>2026-03-26T08:57:13.000Z</time>
      </trkpt>
      <trkpt lat="48.74678" lon="1.7605">
        <ele>189.2</ele>
        <time>2026-03-26T08:57:14.000Z</time>
      </trkpt>
      <trkpt lat="48.74679" lon="1.76049">
        <ele>189</ele>
        <time>2026-03-26T08:57:15.000Z</time>
      </trkpt>
      <trkpt lat="48.74681" lon="1.76048">
        <ele>189.4</ele>
        <time>2026-03-26T08:57:16.000Z</time>
      </trkpt>
      <trkpt lat="48.74682" lon="1.76048">
        <ele>189.8</ele>
        <time>2026-03-26T08:57:17.000Z</time>
      </trkpt>
      <trkpt lat="48.74683" lon="1.76046">
        <ele>190.1</ele>
        <time>2026-03-26T08:57:18.000Z</time>
      </trkpt>
      <trkpt lat="48.74685" lon="1.76045">
        <ele>191</ele>
        <time>2026-03-26T08:57:19.000Z</time>
      </trkpt>
      <trkpt lat="48.74686" lon="1.76044">
        <ele>190.4</ele>
        <time>2026-03-26T08:57:20.000Z</time>
      </trkpt>
      <trkpt lat="48.74687" lon="1.76044">
        <ele>189.6</ele>
        <time>2026-03-26T08:57:21.000Z</time>
      </trkpt>
      <trkpt lat="48.74688" lon="1.76043">
        <ele>188.6</ele>
        <time>2026-03-26T08:57:22.000Z</time>
      </trkpt>
      <trkpt lat="48.7469" lon="1.76043">
        <ele>189.4</ele>
        <time>2026-03-26T08:57:23.000Z</time>
      </trkpt>
      <trkpt lat="48.74691" lon="1.76044">
        <ele>189.5</ele>
        <time>2026-03-26T08:57:24.000Z</time>
      </trkpt>
      <trkpt lat="48.74693" lon="1.76044">
        <ele>189</ele>
        <time>2026-03-26T08:57:25.000Z</time>
      </trkpt>
      <trkpt lat="48.74694" lon="1.76047">
        <ele>189.4</ele>
        <time>2026-03-26T08:57:26.000Z</time>
      </trkpt>
      <trkpt lat="48.74694" lon="1.76049">
        <ele>190.3</ele>
        <time>2026-03-26T08:57:27.000Z</time>
      </trkpt>
      <trkpt lat="48.74694" lon="1.76051">
        <ele>190.9</ele>
        <time>2026-03-26T08:57:28.000Z</time>
      </trkpt>
      <trkpt lat="48.74694" lon="1.76053">
        <ele>189.8</ele>
        <time>2026-03-26T08:57:29.000Z</time>
      </trkpt>
      <trkpt lat="48.74694" lon="1.76055">
        <ele>189.9</ele>
        <time>2026-03-26T08:57:30.000Z</time>
      </trkpt>
      <trkpt lat="48.74694" lon="1.76057">
        <ele>189.7</ele>
        <time>2026-03-26T08:57:31.000Z</time>
      </trkpt>
      <trkpt lat="48.74694" lon="1.76058">
        <ele>189.9</ele>
        <time>2026-03-26T08:57:32.000Z</time>
      </trkpt>
      <trkpt lat="48.74695" lon="1.7606">
        <ele>190.1</ele>
        <time>2026-03-26T08:57:33.000Z</time>
      </trkpt>
      <trkpt lat="48.74695" lon="1.76061">
        <ele>190.4</ele>
        <time>2026-03-26T08:57:34.000Z</time>
      </trkpt>
      <trkpt lat="48.74695" lon="1.76063">
        <ele>190.3</ele>
        <time>2026-03-26T08:57:35.000Z</time>
      </trkpt>
      <trkpt lat="48.74696" lon="1.76064">
        <ele>190.3</ele>
        <time>2026-03-26T08:57:36.000Z</time>
      </trkpt>
      <trkpt lat="48.74696" lon="1.76066">
        <ele>191.4</ele>
        <time>2026-03-26T08:57:37.000Z</time>
      </trkpt>
      <trkpt lat="48.74696" lon="1.76068">
        <ele>191.5</ele>
        <time>2026-03-26T08:57:38.000Z</time>
      </trkpt>
      <trkpt lat="48.74696" lon="1.7607">
        <ele>192.1</ele>
        <time>2026-03-26T08:57:39.000Z</time>
      </trkpt>
      <trkpt lat="48.74696" lon="1.76071">
        <ele>192.5</ele>
        <time>2026-03-26T08:57:40.000Z</time>
      </trkpt>
      <trkpt lat="48.74696" lon="1.76072">
        <ele>193</ele>
        <time>2026-03-26T08:57:41.000Z</time>
      </trkpt>
      <trkpt lat="48.74696" lon="1.76074">
        <ele>193.5</ele>
        <time>2026-03-26T08:57:42.000Z</time>
      </trkpt>
      <trkpt lat="48.74696" lon="1.76076">
        <ele>193.3</ele>
        <time>2026-03-26T08:57:43.000Z</time>
      </trkpt>
      <trkpt lat="48.74696" lon="1.76078">
        <ele>193</ele>
        <time>2026-03-26T08:57:44.000Z</time>
      </trkpt>
      <trkpt lat="48.74695" lon="1.76079">
        <ele>193.6</ele>
        <time>2026-03-26T08:57:45.000Z</time>
      </trkpt>
      <trkpt lat="48.74695" lon="1.76081">
        <ele>194.4</ele>
        <time>2026-03-26T08:57:46.000Z</time>
      </trkpt>
      <trkpt lat="48.74695" lon="1.76083">
        <ele>194.2</ele>
        <time>2026-03-26T08:57:47.000Z</time>
      </trkpt>
      <trkpt lat="48.74694" lon="1.76084">
        <ele>194.5</ele>
        <time>2026-03-26T08:57:48.000Z</time>
      </trkpt>
      <trkpt lat="48.74694" lon="1.76086">
        <ele>193.8</ele>
        <time>2026-03-26T08:57:49.000Z</time>
      </trkpt>
      <trkpt lat="48.74693" lon="1.76087">
        <ele>194.6</ele>
        <time>2026-03-26T08:57:50.000Z</time>
      </trkpt>
      <trkpt lat="48.74692" lon="1.76088">
        <ele>194.8</ele>
        <time>2026-03-26T08:57:51.000Z</time>
      </trkpt>
      <trkpt lat="48.74691" lon="1.7609">
        <ele>194.5</ele>
        <time>2026-03-26T08:57:52.000Z</time>
      </trkpt>
      <trkpt lat="48.74691" lon="1.76091">
        <ele>194.8</ele>
        <time>2026-03-26T08:57:53.000Z</time>
      </trkpt>
      <trkpt lat="48.7469" lon="1.76093">
        <ele>196.1</ele>
        <time>2026-03-26T08:57:54.000Z</time>
      </trkpt>
      <trkpt lat="48.74689" lon="1.76094">
        <ele>196.4</ele>
        <time>2026-03-26T08:57:55.000Z</time>
      </trkpt>
      <trkpt lat="48.74689" lon="1.76095">
        <ele>196.8</ele>
        <time>2026-03-26T08:57:56.000Z</time>
      </trkpt>
      <trkpt lat="48.74689" lon="1.76097">
        <ele>196.6</ele>
        <time>2026-03-26T08:57:57.000Z</time>
      </trkpt>
      <trkpt lat="48.74688" lon="1.76099">
        <ele>196.8</ele>
        <time>2026-03-26T08:57:58.000Z</time>
      </trkpt>
      <trkpt lat="48.74688" lon="1.761">
        <ele>197.4</ele>
        <time>2026-03-26T08:57:59.000Z</time>
      </trkpt>
      <trkpt lat="48.74688" lon="1.76102">
        <ele>197.6</ele>
        <time>2026-03-26T08:58:00.000Z</time>
      </trkpt>
      <trkpt lat="48.74687" lon="1.76103">
        <ele>197.2</ele>
        <time>2026-03-26T08:58:01.000Z</time>
      </trkpt>
      <trkpt lat="48.74687" lon="1.76106">
        <ele>197.4</ele>
        <time>2026-03-26T08:58:02.000Z</time>
      </trkpt>
      <trkpt lat="48.74686" lon="1.76107">
        <ele>197.6</ele>
        <time>2026-03-26T08:58:03.000Z</time>
      </trkpt>
      <trkpt lat="48.74685" lon="1.76109">
        <ele>198.2</ele>
        <time>2026-03-26T08:58:04.000Z</time>
      </trkpt>
      <trkpt lat="48.74685" lon="1.7611">
        <ele>198.7</ele>
        <time>2026-03-26T08:58:05.000Z</time>
      </trkpt>
      <trkpt lat="48.74684" lon="1.76111">
        <ele>198.7</ele>
        <time>2026-03-26T08:58:06.000Z</time>
      </trkpt>
      <trkpt lat="48.74684" lon="1.76112">
        <ele>198.6</ele>
        <time>2026-03-26T08:58:07.000Z</time>
      </trkpt>
      <trkpt lat="48.74683" lon="1.76112">
        <ele>197.9</ele>
        <time>2026-03-26T08:58:08.000Z</time>
      </trkpt>
      <trkpt lat="48.74682" lon="1.76113">
        <ele>197.6</ele>
        <time>2026-03-26T08:58:09.000Z</time>
      </trkpt>
      <trkpt lat="48.74682" lon="1.76114">
        <ele>197.9</ele>
        <time>2026-03-26T08:58:10.000Z</time>
      </trkpt>
      <trkpt lat="48.74681" lon="1.76115">
        <ele>198.4</ele>
        <time>2026-03-26T08:58:11.000Z</time>
      </trkpt>
      <trkpt lat="48.7468" lon="1.76116">
        <ele>199</ele>
        <time>2026-03-26T08:58:12.000Z</time>
      </trkpt>
      <trkpt lat="48.7468" lon="1.76117">
        <ele>199.6</ele>
        <time>2026-03-26T08:58:13.000Z</time>
      </trkpt>
      <trkpt lat="48.74679" lon="1.76118">
        <ele>199.8</ele>
        <time>2026-03-26T08:58:14.000Z</time>
      </trkpt>
      <trkpt lat="48.74679" lon="1.76118">
        <ele>199.2</ele>
        <time>2026-03-26T08:58:15.000Z</time>
      </trkpt>
      <trkpt lat="48.74678" lon="1.76119">
        <ele>198.9</ele>
        <time>2026-03-26T08:58:16.000Z</time>
      </trkpt>
      <trkpt lat="48.74677" lon="1.7612">
        <ele>199.5</ele>
        <time>2026-03-26T08:58:17.000Z</time>
      </trkpt>
      <trkpt lat="48.74677" lon="1.7612">
        <ele>199.2</ele>
        <time>2026-03-26T08:58:18.000Z</time>
      </trkpt>
      <trkpt lat="48.74676" lon="1.7612">
        <ele>199.2</ele>
        <time>2026-03-26T08:58:19.000Z</time>
      </trkpt>
      <trkpt lat="48.74675" lon="1.7612">
        <ele>199.2</ele>
        <time>2026-03-26T08:58:20.000Z</time>
      </trkpt>
      <trkpt lat="48.74674" lon="1.76119">
        <ele>199.3</ele>
        <time>2026-03-26T08:58:21.000Z</time>
      </trkpt>
      <trkpt lat="48.74674" lon="1.7612">
        <ele>198.5</ele>
        <time>2026-03-26T08:58:22.000Z</time>
      </trkpt>
      <trkpt lat="48.74673" lon="1.7612">
        <ele>198.6</ele>
        <time>2026-03-26T08:58:23.000Z</time>
      </trkpt>
      <trkpt lat="48.74672" lon="1.76121">
        <ele>199.1</ele>
        <time>2026-03-26T08:58:24.000Z</time>
      </trkpt>
      <trkpt lat="48.74672" lon="1.76122">
        <ele>199.6</ele>
        <time>2026-03-26T08:58:25.000Z</time>
      </trkpt>
      <trkpt lat="48.74671" lon="1.76123">
        <ele>199.9</ele>
        <time>2026-03-26T08:58:26.000Z</time>
      </trkpt>
      <trkpt lat="48.7467" lon="1.76124">
        <ele>200.4</ele>
        <time>2026-03-26T08:58:27.000Z</time>
      </trkpt>
      <trkpt lat="48.74669" lon="1.76124">
        <ele>201.3</ele>
        <time>2026-03-26T08:58:28.000Z</time>
      </trkpt>
      <trkpt lat="48.74668" lon="1.76125">
        <ele>201.7</ele>
        <time>2026-03-26T08:58:29.000Z</time>
      </trkpt>
      <trkpt lat="48.74668" lon="1.76126">
        <ele>201.9</ele>
        <time>2026-03-26T08:58:30.000Z</time>
      </trkpt>
      <trkpt lat="48.74667" lon="1.76127">
        <ele>201.3</ele>
        <time>2026-03-26T08:58:31.000Z</time>
      </trkpt>
      <trkpt lat="48.74666" lon="1.76128">
        <ele>201</ele>
        <time>2026-03-26T08:58:32.000Z</time>
      </trkpt>
      <trkpt lat="48.74665" lon="1.76129">
        <ele>201.1</ele>
        <time>2026-03-26T08:58:33.000Z</time>
      </trkpt>
      <trkpt lat="48.74665" lon="1.7613">
        <ele>201.6</ele>
        <time>2026-03-26T08:58:34.000Z</time>
      </trkpt>
      <trkpt lat="48.74664" lon="1.76132">
        <ele>201.5</ele>
        <time>2026-03-26T08:58:35.000Z</time>
      </trkpt>
      <trkpt lat="48.74663" lon="1.76133">
        <ele>202.2</ele>
        <time>2026-03-26T08:58:36.000Z</time>
      </trkpt>
      <trkpt lat="48.74663" lon="1.76133">
        <ele>201.9</ele>
        <time>2026-03-26T08:58:37.000Z</time>
      </trkpt>
      <trkpt lat="48.74662" lon="1.76134">
        <ele>201.5</ele>
        <time>2026-03-26T08:58:38.000Z</time>
      </trkpt>
      <trkpt lat="48.74661" lon="1.76135">
        <ele>201.3</ele>
        <time>2026-03-26T08:58:39.000Z</time>
      </trkpt>
      <trkpt lat="48.74661" lon="1.76136">
        <ele>201.6</ele>
        <time>2026-03-26T08:58:40.000Z</time>
      </trkpt>
      <trkpt lat="48.7466" lon="1.76136">
        <ele>201.5</ele>
        <time>2026-03-26T08:58:41.000Z</time>
      </trkpt>
      <trkpt lat="48.7466" lon="1.76137">
        <ele>201.2</ele>
        <time>2026-03-26T08:58:42.000Z</time>
      </trkpt>
      <trkpt lat="48.74659" lon="1.76138">
        <ele>201.5</ele>
        <time>2026-03-26T08:58:43.000Z</time>
      </trkpt>
      <trkpt lat="48.74658" lon="1.76138">
        <ele>201.6</ele>
        <time>2026-03-26T08:58:44.000Z</time>
      </trkpt>
      <trkpt lat="48.74658" lon="1.76139">
        <ele>201.3</ele>
        <time>2026-03-26T08:58:45.000Z</time>
      </trkpt>
      <trkpt lat="48.74657" lon="1.7614">
        <ele>201</ele>
        <time>2026-03-26T08:58:46.000Z</time>
      </trkpt>
      <trkpt lat="48.74656" lon="1.76142">
        <ele>201.8</ele>
        <time>2026-03-26T08:58:47.000Z</time>
      </trkpt>
      <trkpt lat="48.74656" lon="1.76143">
        <ele>201.7</ele>
        <time>2026-03-26T08:58:48.000Z</time>
      </trkpt>
      <trkpt lat="48.74655" lon="1.76144">
        <ele>202.4</ele>
        <time>2026-03-26T08:58:49.000Z</time>
      </trkpt>
      <trkpt lat="48.74655" lon="1.76145">
        <ele>203.1</ele>
        <time>2026-03-26T08:58:50.000Z</time>
      </trkpt>
      <trkpt lat="48.74654" lon="1.76146">
        <ele>203.6</ele>
        <time>2026-03-26T08:58:51.000Z</time>
      </trkpt>
      <trkpt lat="48.74653" lon="1.76147">
        <ele>203.1</ele>
        <time>2026-03-26T08:58:52.000Z</time>
      </trkpt>
      <trkpt lat="48.74652" lon="1.76148">
        <ele>203.2</ele>
        <time>2026-03-26T08:58:53.000Z</time>
      </trkpt>
      <trkpt lat="48.74652" lon="1.76148">
        <ele>203</ele>
        <time>2026-03-26T08:58:54.000Z</time>
      </trkpt>
      <trkpt lat="48.74651" lon="1.7615">
        <ele>203</ele>
        <time>2026-03-26T08:58:55.000Z</time>
      </trkpt>
      <trkpt lat="48.74651" lon="1.76151">
        <ele>202.6</ele>
        <time>2026-03-26T08:58:56.000Z</time>
      </trkpt>
      <trkpt lat="48.7465" lon="1.76152">
        <ele>203.5</ele>
        <time>2026-03-26T08:58:57.000Z</time>
      </trkpt>
      <trkpt lat="48.7465" lon="1.76153">
        <ele>203.8</ele>
        <time>2026-03-26T08:58:58.000Z</time>
      </trkpt>
      <trkpt lat="48.7465" lon="1.76154">
        <ele>204.2</ele>
        <time>2026-03-26T08:58:59.000Z</time>
      </trkpt>
      <trkpt lat="48.74649" lon="1.76155">
        <ele>204.1</ele>
        <time>2026-03-26T08:59:00.000Z</time>
      </trkpt>
      <trkpt lat="48.74649" lon="1.76156">
        <ele>204.1</ele>
        <time>2026-03-26T08:59:01.000Z</time>
      </trkpt>
      <trkpt lat="48.74649" lon="1.76157">
        <ele>203.8</ele>
        <time>2026-03-26T08:59:02.000Z</time>
      </trkpt>
      <trkpt lat="48.74649" lon="1.76159">
        <ele>203.6</ele>
        <time>2026-03-26T08:59:03.000Z</time>
      </trkpt>
      <trkpt lat="48.74649" lon="1.7616">
        <ele>203.5</ele>
        <time>2026-03-26T08:59:04.000Z</time>
      </trkpt>
      <trkpt lat="48.74649" lon="1.76161">
        <ele>203.2</ele>
        <time>2026-03-26T08:59:05.000Z</time>
      </trkpt>
      <trkpt lat="48.74648" lon="1.76162">
        <ele>204.1</ele>
        <time>2026-03-26T08:59:06.000Z</time>
      </trkpt>
      <trkpt lat="48.74648" lon="1.76163">
        <ele>203.5</ele>
        <time>2026-03-26T08:59:07.000Z</time>
      </trkpt>
      <trkpt lat="48.74648" lon="1.76164">
        <ele>204.4</ele>
        <time>2026-03-26T08:59:08.000Z</time>
      </trkpt>
      <trkpt lat="48.74647" lon="1.76166">
        <ele>204.2</ele>
        <time>2026-03-26T08:59:09.000Z</time>
      </trkpt>
      <trkpt lat="48.74647" lon="1.76168">
        <ele>205</ele>
        <time>2026-03-26T08:59:10.000Z</time>
      </trkpt>
      <trkpt lat="48.74647" lon="1.76169">
        <ele>204.9</ele>
        <time>2026-03-26T08:59:11.000Z</time>
      </trkpt>
      <trkpt lat="48.74647" lon="1.7617">
        <ele>204.9</ele>
        <time>2026-03-26T08:59:12.000Z</time>
      </trkpt>
      <trkpt lat="48.74647" lon="1.76171">
        <ele>204.9</ele>
        <time>2026-03-26T08:59:13.000Z</time>
      </trkpt>
      <trkpt lat="48.74647" lon="1.76173">
        <ele>205.2</ele>
        <time>2026-03-26T08:59:14.000Z</time>
      </trkpt>
      <trkpt lat="48.74647" lon="1.76174">
        <ele>204.7</ele>
        <time>2026-03-26T08:59:15.000Z</time>
      </trkpt>
      <trkpt lat="48.74646" lon="1.76175">
        <ele>204.1</ele>
        <time>2026-03-26T08:59:16.000Z</time>
      </trkpt>
      <trkpt lat="48.74646" lon="1.76176">
        <ele>203.7</ele>
        <time>2026-03-26T08:59:17.000Z</time>
      </trkpt>
      <trkpt lat="48.74646" lon="1.76178">
        <ele>203.3</ele>
        <time>2026-03-26T08:59:18.000Z</time>
      </trkpt>
      <trkpt lat="48.74646" lon="1.76179">
        <ele>203.6</ele>
        <time>2026-03-26T08:59:19.000Z</time>
      </trkpt>
      <trkpt lat="48.74646" lon="1.7618">
        <ele>203.4</ele>
        <time>2026-03-26T08:59:20.000Z</time>
      </trkpt>
      <trkpt lat="48.74646" lon="1.76181">
        <ele>203.1</ele>
        <time>2026-03-26T08:59:21.000Z</time>
      </trkpt>
      <trkpt lat="48.74646" lon="1.76183">
        <ele>203.2</ele>
        <time>2026-03-26T08:59:22.000Z</time>
      </trkpt>
      <trkpt lat="48.74646" lon="1.76184">
        <ele>203</ele>
        <time>2026-03-26T08:59:23.000Z</time>
      </trkpt>
      <trkpt lat="48.74646" lon="1.76185">
        <ele>203.5</ele>
        <time>2026-03-26T08:59:24.000Z</time>
      </trkpt>
      <trkpt lat="48.74646" lon="1.76187">
        <ele>203.1</ele>
        <time>2026-03-26T08:59:25.000Z</time>
      </trkpt>
      <trkpt lat="48.74646" lon="1.76188">
        <ele>202.8</ele>
        <time>2026-03-26T08:59:26.000Z</time>
      </trkpt>
      <trkpt lat="48.74645" lon="1.76189">
        <ele>202.6</ele>
        <time>2026-03-26T08:59:27.000Z</time>
      </trkpt>
      <trkpt lat="48.74646" lon="1.76191">
        <ele>203</ele>
        <time>2026-03-26T08:59:28.000Z</time>
      </trkpt>
      <trkpt lat="48.74646" lon="1.76193">
        <ele>202.8</ele>
        <time>2026-03-26T08:59:29.000Z</time>
      </trkpt>
      <trkpt lat="48.74646" lon="1.76194">
        <ele>202.4</ele>
        <time>2026-03-26T08:59:30.000Z</time>
      </trkpt>
      <trkpt lat="48.74646" lon="1.76196">
        <ele>203.6</ele>
        <time>2026-03-26T08:59:31.000Z</time>
      </trkpt>
      <trkpt lat="48.74646" lon="1.76197">
        <ele>204.3</ele>
        <time>2026-03-26T08:59:32.000Z</time>
      </trkpt>
      <trkpt lat="48.74647" lon="1.76198">
        <ele>204.6</ele>
        <time>2026-03-26T08:59:33.000Z</time>
      </trkpt>
      <trkpt lat="48.74646" lon="1.762">
        <ele>205.1</ele>
        <time>2026-03-26T08:59:34.000Z</time>
      </trkpt>
      <trkpt lat="48.74647" lon="1.76202">
        <ele>204.7</ele>
        <time>2026-03-26T08:59:35.000Z</time>
      </trkpt>
      <trkpt lat="48.74647" lon="1.76204">
        <ele>204.7</ele>
        <time>2026-03-26T08:59:36.000Z</time>
      </trkpt>
      <trkpt lat="48.74647" lon="1.76205">
        <ele>205.6</ele>
        <time>2026-03-26T08:59:37.000Z</time>
      </trkpt>
      <trkpt lat="48.74648" lon="1.76207">
        <ele>206.2</ele>
        <time>2026-03-26T08:59:38.000Z</time>
      </trkpt>
      <trkpt lat="48.74649" lon="1.76208">
        <ele>206</ele>
        <time>2026-03-26T08:59:39.000Z</time>
      </trkpt>
      <trkpt lat="48.74649" lon="1.76209">
        <ele>206.9</ele>
        <time>2026-03-26T08:59:40.000Z</time>
      </trkpt>
      <trkpt lat="48.74649" lon="1.76211">
        <ele>206.6</ele>
        <time>2026-03-26T08:59:41.000Z</time>
      </trkpt>
      <trkpt lat="48.7465" lon="1.76212">
        <ele>206.9</ele>
        <time>2026-03-26T08:59:42.000Z</time>
      </trkpt>
      <trkpt lat="48.74651" lon="1.76213">
        <ele>207.1</ele>
        <time>2026-03-26T08:59:43.000Z</time>
      </trkpt>
      <trkpt lat="48.74652" lon="1.76214">
        <ele>206.7</ele>
        <time>2026-03-26T08:59:44.000Z</time>
      </trkpt>
      <trkpt lat="48.74652" lon="1.76215">
        <ele>206.7</ele>
        <time>2026-03-26T08:59:45.000Z</time>
      </trkpt>
      <trkpt lat="48.74654" lon="1.76216">
        <ele>207</ele>
        <time>2026-03-26T08:59:46.000Z</time>
      </trkpt>
      <trkpt lat="48.74655" lon="1.76217">
        <ele>207.2</ele>
        <time>2026-03-26T08:59:47.000Z</time>
      </trkpt>
      <trkpt lat="48.74656" lon="1.76218">
        <ele>208</ele>
        <time>2026-03-26T08:59:48.000Z</time>
      </trkpt>
      <trkpt lat="48.74657" lon="1.76219">
        <ele>207.6</ele>
        <time>2026-03-26T08:59:49.000Z</time>
      </trkpt>
      <trkpt lat="48.74658" lon="1.7622">
        <ele>207.8</ele>
        <time>2026-03-26T08:59:50.000Z</time>
      </trkpt>
      <trkpt lat="48.74659" lon="1.7622">
        <ele>208.4</ele>
        <time>2026-03-26T08:59:51.000Z</time>
      </trkpt>
      <trkpt lat="48.7466" lon="1.76221">
        <ele>208.7</ele>
        <time>2026-03-26T08:59:52.000Z</time>
      </trkpt>
      <trkpt lat="48.7466" lon="1.76222">
        <ele>208.9</ele>
        <time>2026-03-26T08:59:53.000Z</time>
      </trkpt>
      <trkpt lat="48.74661" lon="1.76223">
        <ele>209</ele>
        <time>2026-03-26T08:59:54.000Z</time>
      </trkpt>
      <trkpt lat="48.74662" lon="1.76224">
        <ele>209.3</ele>
        <time>2026-03-26T08:59:55.000Z</time>
      </trkpt>
      <trkpt lat="48.74663" lon="1.76225">
        <ele>209.6</ele>
        <time>2026-03-26T08:59:56.000Z</time>
      </trkpt>
      <trkpt lat="48.74663" lon="1.76226">
        <ele>209.9</ele>
        <time>2026-03-26T08:59:57.000Z</time>
      </trkpt>
      <trkpt lat="48.74664" lon="1.76227">
        <ele>209.7</ele>
        <time>2026-03-26T08:59:58.000Z</time>
      </trkpt>
      <trkpt lat="48.74665" lon="1.76228">
        <ele>210.1</ele>
        <time>2026-03-26T08:59:59.000Z</time>
      </trkpt>
      <trkpt lat="48.74666" lon="1.76229">
        <ele>210.5</ele>
        <time>2026-03-26T09:00:00.000Z</time>
      </trkpt>
      <trkpt lat="48.74667" lon="1.7623">
        <ele>211</ele>
        <time>2026-03-26T09:00:01.000Z</time>
      </trkpt>
      <trkpt lat="48.74668" lon="1.76231">
        <ele>211.4</ele>
        <time>2026-03-26T09:00:02.000Z</time>
      </trkpt>
      <trkpt lat="48.74668" lon="1.76232">
        <ele>210.5</ele>
        <time>2026-03-26T09:00:03.000Z</time>
      </trkpt>
      <trkpt lat="48.74669" lon="1.76233">
        <ele>211.5</ele>
        <time>2026-03-26T09:00:04.000Z</time>
      </trkpt>
      <trkpt lat="48.7467" lon="1.76233">
        <ele>211.3</ele>
        <time>2026-03-26T09:00:05.000Z</time>
      </trkpt>
      <trkpt lat="48.74671" lon="1.76235">
        <ele>211.5</ele>
        <time>2026-03-26T09:00:06.000Z</time>
      </trkpt>
      <trkpt lat="48.74672" lon="1.76236">
        <ele>211.1</ele>
        <time>2026-03-26T09:00:07.000Z</time>
      </trkpt>
      <trkpt lat="48.74674" lon="1.76237">
        <ele>212</ele>
        <time>2026-03-26T09:00:08.000Z</time>
      </trkpt>
      <trkpt lat="48.74675" lon="1.76238">
        <ele>212.3</ele>
        <time>2026-03-26T09:00:09.000Z</time>
      </trkpt>
      <trkpt lat="48.74676" lon="1.76238">
        <ele>213</ele>
        <time>2026-03-26T09:00:10.000Z</time>
      </trkpt>
      <trkpt lat="48.74676" lon="1.76239">
        <ele>213.2</ele>
        <time>2026-03-26T09:00:11.000Z</time>
      </trkpt>
      <trkpt lat="48.74677" lon="1.7624">
        <ele>213.8</ele>
        <time>2026-03-26T09:00:12.000Z</time>
      </trkpt>
      <trkpt lat="48.74678" lon="1.7624">
        <ele>213.9</ele>
        <time>2026-03-26T09:00:13.000Z</time>
      </trkpt>
      <trkpt lat="48.74678" lon="1.76241">
        <ele>213.5</ele>
        <time>2026-03-26T09:00:14.000Z</time>
      </trkpt>
      <trkpt lat="48.74679" lon="1.76241">
        <ele>213.8</ele>
        <time>2026-03-26T09:00:15.000Z</time>
      </trkpt>
      <trkpt lat="48.7468" lon="1.76242">
        <ele>213.6</ele>
        <time>2026-03-26T09:00:16.000Z</time>
      </trkpt>
      <trkpt lat="48.74681" lon="1.76243">
        <ele>213.7</ele>
        <time>2026-03-26T09:00:17.000Z</time>
      </trkpt>
      <trkpt lat="48.74681" lon="1.76245">
        <ele>213.6</ele>
        <time>2026-03-26T09:00:18.000Z</time>
      </trkpt>
      <trkpt lat="48.74682" lon="1.76246">
        <ele>213.6</ele>
        <time>2026-03-26T09:00:19.000Z</time>
      </trkpt>
      <trkpt lat="48.74683" lon="1.76247">
        <ele>213.6</ele>
        <time>2026-03-26T09:00:20.000Z</time>
      </trkpt>
      <trkpt lat="48.74683" lon="1.76247">
        <ele>213.9</ele>
        <time>2026-03-26T09:00:21.000Z</time>
      </trkpt>
      <trkpt lat="48.74684" lon="1.76248">
        <ele>214.5</ele>
        <time>2026-03-26T09:00:22.000Z</time>
      </trkpt>
      <trkpt lat="48.74685" lon="1.76249">
        <ele>214.7</ele>
        <time>2026-03-26T09:00:23.000Z</time>
      </trkpt>
      <trkpt lat="48.74685" lon="1.7625">
        <ele>214.3</ele>
        <time>2026-03-26T09:00:24.000Z</time>
      </trkpt>
      <trkpt lat="48.74686" lon="1.76251">
        <ele>214.6</ele>
        <time>2026-03-26T09:00:25.000Z</time>
      </trkpt>
      <trkpt lat="48.74687" lon="1.76252">
        <ele>215.1</ele>
        <time>2026-03-26T09:00:26.000Z</time>
      </trkpt>
      <trkpt lat="48.74687" lon="1.76253">
        <ele>215</ele>
        <time>2026-03-26T09:00:27.000Z</time>
      </trkpt>
      <trkpt lat="48.74688" lon="1.76254">
        <ele>216.7</ele>
        <time>2026-03-26T09:00:28.000Z</time>
      </trkpt>
      <trkpt lat="48.74689" lon="1.76255">
        <ele>216.9</ele>
        <time>2026-03-26T09:00:29.000Z</time>
      </trkpt>
      <trkpt lat="48.7469" lon="1.76255">
        <ele>217.1</ele>
        <time>2026-03-26T09:00:30.000Z</time>
      </trkpt>
      <trkpt lat="48.74691" lon="1.76257">
        <ele>217.2</ele>
        <time>2026-03-26T09:00:31.000Z</time>
      </trkpt>
      <trkpt lat="48.74691" lon="1.76258">
        <ele>217</ele>
        <time>2026-03-26T09:00:32.000Z</time>
      </trkpt>
      <trkpt lat="48.74692" lon="1.76258">
        <ele>217.4</ele>
        <time>2026-03-26T09:00:33.000Z</time>
      </trkpt>
      <trkpt lat="48.74693" lon="1.76259">
        <ele>217.5</ele>
        <time>2026-03-26T09:00:34.000Z</time>
      </trkpt>
      <trkpt lat="48.74694" lon="1.76259">
        <ele>217.5</ele>
        <time>2026-03-26T09:00:35.000Z</time>
      </trkpt>
      <trkpt lat="48.74694" lon="1.7626">
        <ele>216.9</ele>
        <time>2026-03-26T09:00:36.000Z</time>
      </trkpt>
      <trkpt lat="48.74696" lon="1.76261">
        <ele>217</ele>
        <time>2026-03-26T09:00:37.000Z</time>
      </trkpt>
      <trkpt lat="48.74696" lon="1.76262">
        <ele>216.9</ele>
        <time>2026-03-26T09:00:38.000Z</time>
      </trkpt>
      <trkpt lat="48.74697" lon="1.76262">
        <ele>217.1</ele>
        <time>2026-03-26T09:00:39.000Z</time>
      </trkpt>
      <trkpt lat="48.74698" lon="1.76263">
        <ele>216.5</ele>
        <time>2026-03-26T09:00:40.000Z</time>
      </trkpt>
      <trkpt lat="48.74699" lon="1.76264">
        <ele>216.2</ele>
        <time>2026-03-26T09:00:41.000Z</time>
      </trkpt>
      <trkpt lat="48.747" lon="1.76265">
        <ele>216.8</ele>
        <time>2026-03-26T09:00:42.000Z</time>
      </trkpt>
      <trkpt lat="48.747" lon="1.76266">
        <ele>217</ele>
        <time>2026-03-26T09:00:43.000Z</time>
      </trkpt>
      <trkpt lat="48.74701" lon="1.76267">
        <ele>218.1</ele>
        <time>2026-03-26T09:00:44.000Z</time>
      </trkpt>
      <trkpt lat="48.74702" lon="1.76268">
        <ele>218</ele>
        <time>2026-03-26T09:00:45.000Z</time>
      </trkpt>
      <trkpt lat="48.74703" lon="1.76269">
        <ele>217.7</ele>
        <time>2026-03-26T09:00:46.000Z</time>
      </trkpt>
      <trkpt lat="48.74704" lon="1.7627">
        <ele>218</ele>
        <time>2026-03-26T09:00:47.000Z</time>
      </trkpt>
      <trkpt lat="48.74705" lon="1.76271">
        <ele>217.9</ele>
        <time>2026-03-26T09:00:48.000Z</time>
      </trkpt>
      <trkpt lat="48.74705" lon="1.76271">
        <ele>217.8</ele>
        <time>2026-03-26T09:00:49.000Z</time>
      </trkpt>
      <trkpt lat="48.74706" lon="1.76272">
        <ele>217.3</ele>
        <time>2026-03-26T09:00:50.000Z</time>
      </trkpt>
      <trkpt lat="48.74707" lon="1.76274">
        <ele>217.5</ele>
        <time>2026-03-26T09:00:51.000Z</time>
      </trkpt>
      <trkpt lat="48.74707" lon="1.76275">
        <ele>217.4</ele>
        <time>2026-03-26T09:00:52.000Z</time>
      </trkpt>
      <trkpt lat="48.74708" lon="1.76276">
        <ele>217.8</ele>
        <time>2026-03-26T09:00:53.000Z</time>
      </trkpt>
      <trkpt lat="48.74708" lon="1.76277">
        <ele>216.7</ele>
        <time>2026-03-26T09:00:54.000Z</time>
      </trkpt>
      <trkpt lat="48.74708" lon="1.76279">
        <ele>217.3</ele>
        <time>2026-03-26T09:00:55.000Z</time>
      </trkpt>
      <trkpt lat="48.74708" lon="1.7628">
        <ele>216.4</ele>
        <time>2026-03-26T09:00:56.000Z</time>
      </trkpt>
      <trkpt lat="48.74708" lon="1.76281">
        <ele>215</ele>
        <time>2026-03-26T09:00:57.000Z</time>
      </trkpt>
      <trkpt lat="48.74707" lon="1.76283">
        <ele>215.1</ele>
        <time>2026-03-26T09:00:58.000Z</time>
      </trkpt>
      <trkpt lat="48.74707" lon="1.76284">
        <ele>215.1</ele>
        <time>2026-03-26T09:00:59.000Z</time>
      </trkpt>
      <trkpt lat="48.74707" lon="1.76285">
        <ele>215</ele>
        <time>2026-03-26T09:01:00.000Z</time>
      </trkpt>
      <trkpt lat="48.74707" lon="1.76287">
        <ele>216.3</ele>
        <time>2026-03-26T09:01:01.000Z</time>
      </trkpt>
      <trkpt lat="48.74707" lon="1.76289">
        <ele>216.9</ele>
        <time>2026-03-26T09:01:02.000Z</time>
      </trkpt>
      <trkpt lat="48.74707" lon="1.76291">
        <ele>217.7</ele>
        <time>2026-03-26T09:01:03.000Z</time>
      </trkpt>
      <trkpt lat="48.74707" lon="1.76293">
        <ele>218.4</ele>
        <time>2026-03-26T09:01:04.000Z</time>
      </trkpt>
      <trkpt lat="48.74708" lon="1.76295">
        <ele>218.7</ele>
        <time>2026-03-26T09:01:05.000Z</time>
      </trkpt>
      <trkpt lat="48.74708" lon="1.76296">
        <ele>219.2</ele>
        <time>2026-03-26T09:01:06.000Z</time>
      </trkpt>
      <trkpt lat="48.74709" lon="1.76297">
        <ele>220.1</ele>
        <time>2026-03-26T09:01:07.000Z</time>
      </trkpt>
      <trkpt lat="48.7471" lon="1.76298">
        <ele>219.6</ele>
        <time>2026-03-26T09:01:08.000Z</time>
      </trkpt>
      <trkpt lat="48.74711" lon="1.76298">
        <ele>219.7</ele>
        <time>2026-03-26T09:01:09.000Z</time>
      </trkpt>
      <trkpt lat="48.74712" lon="1.76299">
        <ele>219.9</ele>
        <time>2026-03-26T09:01:10.000Z</time>
      </trkpt>
      <trkpt lat="48.74713" lon="1.76299">
        <ele>220.5</ele>
        <time>2026-03-26T09:01:11.000Z</time>
      </trkpt>
      <trkpt lat="48.74714" lon="1.76299">
        <ele>221.2</ele>
        <time>2026-03-26T09:01:12.000Z</time>
      </trkpt>
      <trkpt lat="48.74715" lon="1.76299">
        <ele>222.3</ele>
        <time>2026-03-26T09:01:13.000Z</time>
      </trkpt>
      <trkpt lat="48.74716" lon="1.76299">
        <ele>222.2</ele>
        <time>2026-03-26T09:01:14.000Z</time>
      </trkpt>
      <trkpt lat="48.74717" lon="1.76298">
        <ele>222.4</ele>
        <time>2026-03-26T09:01:15.000Z</time>
      </trkpt>
      <trkpt lat="48.74719" lon="1.76298">
        <ele>222.3</ele>
        <time>2026-03-26T09:01:16.000Z</time>
      </trkpt>
      <trkpt lat="48.7472" lon="1.76297">
        <ele>222.4</ele>
        <time>2026-03-26T09:01:17.000Z</time>
      </trkpt>
      <trkpt lat="48.74721" lon="1.76296">
        <ele>222.5</ele>
        <time>2026-03-26T09:01:18.000Z</time>
      </trkpt>
      <trkpt lat="48.74722" lon="1.76296">
        <ele>222.9</ele>
        <time>2026-03-26T09:01:19.000Z</time>
      </trkpt>
      <trkpt lat="48.74723" lon="1.76296">
        <ele>223.1</ele>
        <time>2026-03-26T09:01:20.000Z</time>
      </trkpt>
      <trkpt lat="48.74724" lon="1.76295">
        <ele>223.9</ele>
        <time>2026-03-26T09:01:21.000Z</time>
      </trkpt>
      <trkpt lat="48.74725" lon="1.76295">
        <ele>223.3</ele>
        <time>2026-03-26T09:01:22.000Z</time>
      </trkpt>
      <trkpt lat="48.74726" lon="1.76296">
        <ele>222.9</ele>
        <time>2026-03-26T09:01:23.000Z</time>
      </trkpt>
      <trkpt lat="48.74727" lon="1.76296">
        <ele>223.1</ele>
        <time>2026-03-26T09:01:24.000Z</time>
      </trkpt>
      <trkpt lat="48.74728" lon="1.76297">
        <ele>223</ele>
        <time>2026-03-26T09:01:25.000Z</time>
      </trkpt>
      <trkpt lat="48.74729" lon="1.76297">
        <ele>222.9</ele>
        <time>2026-03-26T09:01:26.000Z</time>
      </trkpt>
      <trkpt lat="48.7473" lon="1.76298">
        <ele>222.7</ele>
        <time>2026-03-26T09:01:27.000Z</time>
      </trkpt>
      <trkpt lat="48.74731" lon="1.76299">
        <ele>223</ele>
        <time>2026-03-26T09:01:28.000Z</time>
      </trkpt>
      <trkpt lat="48.74732" lon="1.763">
        <ele>222.9</ele>
        <time>2026-03-26T09:01:29.000Z</time>
      </trkpt>
      <trkpt lat="48.74733" lon="1.76302">
        <ele>222.6</ele>
        <time>2026-03-26T09:01:30.000Z</time>
      </trkpt>
      <trkpt lat="48.74734" lon="1.76303">
        <ele>222.8</ele>
        <time>2026-03-26T09:01:31.000Z</time>
      </trkpt>
      <trkpt lat="48.74735" lon="1.76304">
        <ele>222.8</ele>
        <time>2026-03-26T09:01:32.000Z</time>
      </trkpt>
      <trkpt lat="48.74735" lon="1.76306">
        <ele>222.4</ele>
        <time>2026-03-26T09:01:33.000Z</time>
      </trkpt>
      <trkpt lat="48.74736" lon="1.76307">
        <ele>221.4</ele>
        <time>2026-03-26T09:01:34.000Z</time>
      </trkpt>
      <trkpt lat="48.74737" lon="1.76308">
        <ele>222.3</ele>
        <time>2026-03-26T09:01:35.000Z</time>
      </trkpt>
      <trkpt lat="48.74738" lon="1.76309">
        <ele>220.8</ele>
        <time>2026-03-26T09:01:36.000Z</time>
      </trkpt>
      <trkpt lat="48.74739" lon="1.76311">
        <ele>221.1</ele>
        <time>2026-03-26T09:01:37.000Z</time>
      </trkpt>
      <trkpt lat="48.7474" lon="1.76312">
        <ele>221.5</ele>
        <time>2026-03-26T09:01:38.000Z</time>
      </trkpt>
      <trkpt lat="48.7474" lon="1.76313">
        <ele>222.8</ele>
        <time>2026-03-26T09:01:39.000Z</time>
      </trkpt>
      <trkpt lat="48.74741" lon="1.76315">
        <ele>222.7</ele>
        <time>2026-03-26T09:01:40.000Z</time>
      </trkpt>
      <trkpt lat="48.74742" lon="1.76315">
        <ele>223.7</ele>
        <time>2026-03-26T09:01:41.000Z</time>
      </trkpt>
      <trkpt lat="48.74743" lon="1.76314">
        <ele>224.3</ele>
        <time>2026-03-26T09:01:42.000Z</time>
      </trkpt>
      <trkpt lat="48.74743" lon="1.76313">
        <ele>224.8</ele>
        <time>2026-03-26T09:01:43.000Z</time>
      </trkpt>
      <trkpt lat="48.74744" lon="1.76312">
        <ele>224.5</ele>
        <time>2026-03-26T09:01:44.000Z</time>
      </trkpt>
      <trkpt lat="48.74745" lon="1.7631">
        <ele>225</ele>
        <time>2026-03-26T09:01:45.000Z</time>
      </trkpt>
      <trkpt lat="48.74746" lon="1.76309">
        <ele>225</ele>
        <time>2026-03-26T09:01:46.000Z</time>
      </trkpt>
      <trkpt lat="48.74746" lon="1.76308">
        <ele>225.6</ele>
        <time>2026-03-26T09:01:47.000Z</time>
      </trkpt>
      <trkpt lat="48.74747" lon="1.76307">
        <ele>226.1</ele>
        <time>2026-03-26T09:01:48.000Z</time>
      </trkpt>
      <trkpt lat="48.74748" lon="1.76306">
        <ele>225.7</ele>
        <time>2026-03-26T09:01:49.000Z</time>
      </trkpt>
      <trkpt lat="48.74749" lon="1.76305">
        <ele>226</ele>
        <time>2026-03-26T09:01:50.000Z</time>
      </trkpt>
      <trkpt lat="48.74749" lon="1.76304">
        <ele>226.3</ele>
        <time>2026-03-26T09:01:51.000Z</time>
      </trkpt>
      <trkpt lat="48.7475" lon="1.76303">
        <ele>226.4</ele>
        <time>2026-03-26T09:01:52.000Z</time>
      </trkpt>
      <trkpt lat="48.74751" lon="1.76303">
        <ele>226.2</ele>
        <time>2026-03-26T09:01:53.000Z</time>
      </trkpt>
      <trkpt lat="48.74751" lon="1.76301">
        <ele>226.4</ele>
        <time>2026-03-26T09:01:54.000Z</time>
      </trkpt>
      <trkpt lat="48.74752" lon="1.763">
        <ele>226.7</ele>
        <time>2026-03-26T09:01:55.000Z</time>
      </trkpt>
      <trkpt lat="48.74752" lon="1.76298">
        <ele>226.8</ele>
        <time>2026-03-26T09:01:56.000Z</time>
      </trkpt>
      <trkpt lat="48.74753" lon="1.76297">
        <ele>226.1</ele>
        <time>2026-03-26T09:01:57.000Z</time>
      </trkpt>
      <trkpt lat="48.74754" lon="1.76296">
        <ele>226.1</ele>
        <time>2026-03-26T09:01:58.000Z</time>
      </trkpt>
      <trkpt lat="48.74754" lon="1.76295">
        <ele>226.2</ele>
        <time>2026-03-26T09:01:59.000Z</time>
      </trkpt>
      <trkpt lat="48.74755" lon="1.76294">
        <ele>226.4</ele>
        <time>2026-03-26T09:02:00.000Z</time>
      </trkpt>
      <trkpt lat="48.74755" lon="1.76292">
        <ele>226.4</ele>
        <time>2026-03-26T09:02:01.000Z</time>
      </trkpt>
      <trkpt lat="48.74756" lon="1.76292">
        <ele>226.4</ele>
        <time>2026-03-26T09:02:02.000Z</time>
      </trkpt>
      <trkpt lat="48.74756" lon="1.7629">
        <ele>226.2</ele>
        <time>2026-03-26T09:02:03.000Z</time>
      </trkpt>
      <trkpt lat="48.74757" lon="1.76289">
        <ele>226.6</ele>
        <time>2026-03-26T09:02:04.000Z</time>
      </trkpt>
      <trkpt lat="48.74757" lon="1.76288">
        <ele>227.1</ele>
        <time>2026-03-26T09:02:05.000Z</time>
      </trkpt>
      <trkpt lat="48.74758" lon="1.76287">
        <ele>227</ele>
        <time>2026-03-26T09:02:06.000Z</time>
      </trkpt>
      <trkpt lat="48.74759" lon="1.76286">
        <ele>227</ele>
        <time>2026-03-26T09:02:07.000Z</time>
      </trkpt>
      <trkpt lat="48.74759" lon="1.76285">
        <ele>227.1</ele>
        <time>2026-03-26T09:02:08.000Z</time>
      </trkpt>
      <trkpt lat="48.7476" lon="1.76284">
        <ele>226.7</ele>
        <time>2026-03-26T09:02:09.000Z</time>
      </trkpt>
      <trkpt lat="48.7476" lon="1.76283">
        <ele>226.4</ele>
        <time>2026-03-26T09:02:10.000Z</time>
      </trkpt>
      <trkpt lat="48.74761" lon="1.76281">
        <ele>226.5</ele>
        <time>2026-03-26T09:02:11.000Z</time>
      </trkpt>
      <trkpt lat="48.74761" lon="1.7628">
        <ele>226.3</ele>
        <time>2026-03-26T09:02:12.000Z</time>
      </trkpt>
      <trkpt lat="48.74762" lon="1.76279">
        <ele>225.9</ele>
        <time>2026-03-26T09:02:13.000Z</time>
      </trkpt>
      <trkpt lat="48.74763" lon="1.76278">
        <ele>225.5</ele>
        <time>2026-03-26T09:02:14.000Z</time>
      </trkpt>
      <trkpt lat="48.74764" lon="1.76278">
        <ele>225.2</ele>
        <time>2026-03-26T09:02:15.000Z</time>
      </trkpt>
      <trkpt lat="48.74764" lon="1.76276">
        <ele>225</ele>
        <time>2026-03-26T09:02:16.000Z</time>
      </trkpt>
      <trkpt lat="48.74765" lon="1.76276">
        <ele>225</ele>
        <time>2026-03-26T09:02:17.000Z</time>
      </trkpt>
      <trkpt lat="48.74765" lon="1.76275">
        <ele>225.6</ele>
        <time>2026-03-26T09:02:18.000Z</time>
      </trkpt>
      <trkpt lat="48.74766" lon="1.76273">
        <ele>225.7</ele>
        <time>2026-03-26T09:02:19.000Z</time>
      </trkpt>
      <trkpt lat="48.74767" lon="1.76273">
        <ele>225.3</ele>
        <time>2026-03-26T09:02:20.000Z</time>
      </trkpt>
      <trkpt lat="48.74768" lon="1.76272">
        <ele>225.2</ele>
        <time>2026-03-26T09:02:21.000Z</time>
      </trkpt>
      <trkpt lat="48.74768" lon="1.76271">
        <ele>225</ele>
        <time>2026-03-26T09:02:22.000Z</time>
      </trkpt>
      <trkpt lat="48.74769" lon="1.7627">
        <ele>225.3</ele>
        <time>2026-03-26T09:02:23.000Z</time>
      </trkpt>
      <trkpt lat="48.7477" lon="1.76269">
        <ele>225.4</ele>
        <time>2026-03-26T09:02:24.000Z</time>
      </trkpt>
      <trkpt lat="48.74771" lon="1.76268">
        <ele>225.3</ele>
        <time>2026-03-26T09:02:25.000Z</time>
      </trkpt>
      <trkpt lat="48.74772" lon="1.76268">
        <ele>225.6</ele>
        <time>2026-03-26T09:02:26.000Z</time>
      </trkpt>
      <trkpt lat="48.74772" lon="1.76267">
        <ele>226</ele>
        <time>2026-03-26T09:02:27.000Z</time>
      </trkpt>
      <trkpt lat="48.74773" lon="1.76266">
        <ele>226.2</ele>
        <time>2026-03-26T09:02:28.000Z</time>
      </trkpt>
      <trkpt lat="48.74774" lon="1.76265">
        <ele>226.2</ele>
        <time>2026-03-26T09:02:29.000Z</time>
      </trkpt>
      <trkpt lat="48.74775" lon="1.76264">
        <ele>225.7</ele>
        <time>2026-03-26T09:02:30.000Z</time>
      </trkpt>
      <trkpt lat="48.74776" lon="1.76263">
        <ele>225.5</ele>
        <time>2026-03-26T09:02:31.000Z</time>
      </trkpt>
      <trkpt lat="48.74777" lon="1.76262">
        <ele>225.4</ele>
        <time>2026-03-26T09:02:32.000Z</time>
      </trkpt>
      <trkpt lat="48.74778" lon="1.7626">
        <ele>225.9</ele>
        <time>2026-03-26T09:02:33.000Z</time>
      </trkpt>
      <trkpt lat="48.74779" lon="1.76259">
        <ele>225.7</ele>
        <time>2026-03-26T09:02:34.000Z</time>
      </trkpt>
      <trkpt lat="48.74779" lon="1.76258">
        <ele>226.3</ele>
        <time>2026-03-26T09:02:35.000Z</time>
      </trkpt>
      <trkpt lat="48.7478" lon="1.76257">
        <ele>226.6</ele>
        <time>2026-03-26T09:02:36.000Z</time>
      </trkpt>
      <trkpt lat="48.74781" lon="1.76256">
        <ele>226.5</ele>
        <time>2026-03-26T09:02:37.000Z</time>
      </trkpt>
      <trkpt lat="48.74781" lon="1.76255">
        <ele>226.3</ele>
        <time>2026-03-26T09:02:38.000Z</time>
      </trkpt>
      <trkpt lat="48.74782" lon="1.76254">
        <ele>226.5</ele>
        <time>2026-03-26T09:02:39.000Z</time>
      </trkpt>
      <trkpt lat="48.74782" lon="1.76252">
        <ele>226.7</ele>
        <time>2026-03-26T09:02:40.000Z</time>
      </trkpt>
      <trkpt lat="48.74783" lon="1.76252">
        <ele>226.7</ele>
        <time>2026-03-26T09:02:41.000Z</time>
      </trkpt>
      <trkpt lat="48.74783" lon="1.7625">
        <ele>226.3</ele>
        <time>2026-03-26T09:02:42.000Z</time>
      </trkpt>
      <trkpt lat="48.74784" lon="1.76249">
        <ele>227</ele>
        <time>2026-03-26T09:02:43.000Z</time>
      </trkpt>
      <trkpt lat="48.74785" lon="1.76248">
        <ele>226.7</ele>
        <time>2026-03-26T09:02:44.000Z</time>
      </trkpt>
      <trkpt lat="48.74786" lon="1.76247">
        <ele>226.4</ele>
        <time>2026-03-26T09:02:45.000Z</time>
      </trkpt>
      <trkpt lat="48.74787" lon="1.76247">
        <ele>226.2</ele>
        <time>2026-03-26T09:02:46.000Z</time>
      </trkpt>
      <trkpt lat="48.74788" lon="1.76246">
        <ele>226.3</ele>
        <time>2026-03-26T09:02:47.000Z</time>
      </trkpt>
      <trkpt lat="48.74789" lon="1.76245">
        <ele>226.5</ele>
        <time>2026-03-26T09:02:48.000Z</time>
      </trkpt>
      <trkpt lat="48.7479" lon="1.76244">
        <ele>226</ele>
        <time>2026-03-26T09:02:49.000Z</time>
      </trkpt>
      <trkpt lat="48.74791" lon="1.76244">
        <ele>225.8</ele>
        <time>2026-03-26T09:02:50.000Z</time>
      </trkpt>
      <trkpt lat="48.74792" lon="1.76243">
        <ele>225.7</ele>
        <time>2026-03-26T09:02:51.000Z</time>
      </trkpt>
      <trkpt lat="48.74793" lon="1.76241">
        <ele>225.5</ele>
        <time>2026-03-26T09:02:52.000Z</time>
      </trkpt>
      <trkpt lat="48.74794" lon="1.7624">
        <ele>225.1</ele>
        <time>2026-03-26T09:02:53.000Z</time>
      </trkpt>
      <trkpt lat="48.74796" lon="1.76239">
        <ele>224.9</ele>
        <time>2026-03-26T09:02:54.000Z</time>
      </trkpt>
      <trkpt lat="48.74797" lon="1.76239">
        <ele>224.9</ele>
        <time>2026-03-26T09:02:55.000Z</time>
      </trkpt>
      <trkpt lat="48.74797" lon="1.76238">
        <ele>224.6</ele>
        <time>2026-03-26T09:02:56.000Z</time>
      </trkpt>
      <trkpt lat="48.74798" lon="1.76238">
        <ele>224.4</ele>
        <time>2026-03-26T09:02:57.000Z</time>
      </trkpt>
      <trkpt lat="48.74799" lon="1.76237">
        <ele>224.3</ele>
        <time>2026-03-26T09:02:58.000Z</time>
      </trkpt>
      <trkpt lat="48.748" lon="1.76236">
        <ele>224.4</ele>
        <time>2026-03-26T09:02:59.000Z</time>
      </trkpt>
      <trkpt lat="48.74801" lon="1.76236">
        <ele>224.1</ele>
        <time>2026-03-26T09:03:00.000Z</time>
      </trkpt>
      <trkpt lat="48.74802" lon="1.76235">
        <ele>224.1</ele>
        <time>2026-03-26T09:03:01.000Z</time>
      </trkpt>
      <trkpt lat="48.74803" lon="1.76234">
        <ele>224</ele>
        <time>2026-03-26T09:03:02.000Z</time>
      </trkpt>
      <trkpt lat="48.74804" lon="1.76233">
        <ele>223.8</ele>
        <time>2026-03-26T09:03:03.000Z</time>
      </trkpt>
      <trkpt lat="48.74804" lon="1.76232">
        <ele>223.9</ele>
        <time>2026-03-26T09:03:04.000Z</time>
      </trkpt>
      <trkpt lat="48.74806" lon="1.76231">
        <ele>224</ele>
        <time>2026-03-26T09:03:05.000Z</time>
      </trkpt>
      <trkpt lat="48.74807" lon="1.7623">
        <ele>224</ele>
        <time>2026-03-26T09:03:06.000Z</time>
      </trkpt>
      <trkpt lat="48.74808" lon="1.76229">
        <ele>224.1</ele>
        <time>2026-03-26T09:03:07.000Z</time>
      </trkpt>
      <trkpt lat="48.74809" lon="1.76228">
        <ele>224.3</ele>
        <time>2026-03-26T09:03:08.000Z</time>
      </trkpt>
      <trkpt lat="48.7481" lon="1.76226">
        <ele>224.1</ele>
        <time>2026-03-26T09:03:09.000Z</time>
      </trkpt>
      <trkpt lat="48.74811" lon="1.76225">
        <ele>224.5</ele>
        <time>2026-03-26T09:03:10.000Z</time>
      </trkpt>
      <trkpt lat="48.74812" lon="1.76224">
        <ele>224.3</ele>
        <time>2026-03-26T09:03:11.000Z</time>
      </trkpt>
      <trkpt lat="48.74813" lon="1.76223">
        <ele>224.2</ele>
        <time>2026-03-26T09:03:12.000Z</time>
      </trkpt>
      <trkpt lat="48.74814" lon="1.76221">
        <ele>224.1</ele>
        <time>2026-03-26T09:03:13.000Z</time>
      </trkpt>
      <trkpt lat="48.74815" lon="1.7622">
        <ele>224.1</ele>
        <time>2026-03-26T09:03:14.000Z</time>
      </trkpt>
      <trkpt lat="48.74815" lon="1.76219">
        <ele>224</ele>
        <time>2026-03-26T09:03:15.000Z</time>
      </trkpt>
      <trkpt lat="48.74816" lon="1.76217">
        <ele>224</ele>
        <time>2026-03-26T09:03:16.000Z</time>
      </trkpt>
      <trkpt lat="48.74817" lon="1.76216">
        <ele>224.1</ele>
        <time>2026-03-26T09:03:17.000Z</time>
      </trkpt>
      <trkpt lat="48.74818" lon="1.76215">
        <ele>223.8</ele>
        <time>2026-03-26T09:03:18.000Z</time>
      </trkpt>
      <trkpt lat="48.74819" lon="1.76214">
        <ele>223.8</ele>
        <time>2026-03-26T09:03:19.000Z</time>
      </trkpt>
      <trkpt lat="48.7482" lon="1.76213">
        <ele>223.8</ele>
        <time>2026-03-26T09:03:20.000Z</time>
      </trkpt>
      <trkpt lat="48.74821" lon="1.76212">
        <ele>223.9</ele>
        <time>2026-03-26T09:03:21.000Z</time>
      </trkpt>
      <trkpt lat="48.74822" lon="1.76211">
        <ele>224.3</ele>
        <time>2026-03-26T09:03:22.000Z</time>
      </trkpt>
      <trkpt lat="48.74823" lon="1.76209">
        <ele>224.3</ele>
        <time>2026-03-26T09:03:23.000Z</time>
      </trkpt>
      <trkpt lat="48.74824" lon="1.76208">
        <ele>224.8</ele>
        <time>2026-03-26T09:03:24.000Z</time>
      </trkpt>
      <trkpt lat="48.74825" lon="1.76206">
        <ele>225</ele>
        <time>2026-03-26T09:03:25.000Z</time>
      </trkpt>
      <trkpt lat="48.74826" lon="1.76204">
        <ele>225.3</ele>
        <time>2026-03-26T09:03:26.000Z</time>
      </trkpt>
      <trkpt lat="48.74828" lon="1.76203">
        <ele>225.6</ele>
        <time>2026-03-26T09:03:27.000Z</time>
      </trkpt>
      <trkpt lat="48.74829" lon="1.76202">
        <ele>225.5</ele>
        <time>2026-03-26T09:03:28.000Z</time>
      </trkpt>
      <trkpt lat="48.7483" lon="1.762">
        <ele>225.1</ele>
        <time>2026-03-26T09:03:29.000Z</time>
      </trkpt>
      <trkpt lat="48.74831" lon="1.76199">
        <ele>224.6</ele>
        <time>2026-03-26T09:03:30.000Z</time>
      </trkpt>
      <trkpt lat="48.74832" lon="1.76198">
        <ele>224.6</ele>
        <time>2026-03-26T09:03:31.000Z</time>
      </trkpt>
      <trkpt lat="48.74833" lon="1.76197">
        <ele>224.6</ele>
        <time>2026-03-26T09:03:32.000Z</time>
      </trkpt>
      <trkpt lat="48.74834" lon="1.76195">
        <ele>224.5</ele>
        <time>2026-03-26T09:03:33.000Z</time>
      </trkpt>
      <trkpt lat="48.74836" lon="1.76194">
        <ele>224.4</ele>
        <time>2026-03-26T09:03:34.000Z</time>
      </trkpt>
      <trkpt lat="48.74837" lon="1.76193">
        <ele>225.2</ele>
        <time>2026-03-26T09:03:35.000Z</time>
      </trkpt>
      <trkpt lat="48.74838" lon="1.76191">
        <ele>225.2</ele>
        <time>2026-03-26T09:03:36.000Z</time>
      </trkpt>
      <trkpt lat="48.74839" lon="1.7619">
        <ele>225</ele>
        <time>2026-03-26T09:03:37.000Z</time>
      </trkpt>
      <trkpt lat="48.74841" lon="1.76189">
        <ele>224.9</ele>
        <time>2026-03-26T09:03:38.000Z</time>
      </trkpt>
      <trkpt lat="48.74842" lon="1.76188">
        <ele>225.1</ele>
        <time>2026-03-26T09:03:39.000Z</time>
      </trkpt>
      <trkpt lat="48.74844" lon="1.76187">
        <ele>225.3</ele>
        <time>2026-03-26T09:03:40.000Z</time>
      </trkpt>
      <trkpt lat="48.74845" lon="1.76186">
        <ele>225.1</ele>
        <time>2026-03-26T09:03:41.000Z</time>
      </trkpt>
      <trkpt lat="48.74846" lon="1.76184">
        <ele>225</ele>
        <time>2026-03-26T09:03:42.000Z</time>
      </trkpt>
      <trkpt lat="48.74847" lon="1.76183">
        <ele>225.1</ele>
        <time>2026-03-26T09:03:43.000Z</time>
      </trkpt>
      <trkpt lat="48.74849" lon="1.76182">
        <ele>225.2</ele>
        <time>2026-03-26T09:03:44.000Z</time>
      </trkpt>
      <trkpt lat="48.7485" lon="1.7618">
        <ele>225.3</ele>
        <time>2026-03-26T09:03:45.000Z</time>
      </trkpt>
      <trkpt lat="48.74852" lon="1.76179">
        <ele>225.1</ele>
        <time>2026-03-26T09:03:46.000Z</time>
      </trkpt>
      <trkpt lat="48.74853" lon="1.76178">
        <ele>225</ele>
        <time>2026-03-26T09:03:47.000Z</time>
      </trkpt>
      <trkpt lat="48.74854" lon="1.76176">
        <ele>224.9</ele>
        <time>2026-03-26T09:03:48.000Z</time>
      </trkpt>
      <trkpt lat="48.74855" lon="1.76174">
        <ele>224.8</ele>
        <time>2026-03-26T09:03:49.000Z</time>
      </trkpt>
      <trkpt lat="48.74856" lon="1.76172">
        <ele>225</ele>
        <time>2026-03-26T09:03:50.000Z</time>
      </trkpt>
      <trkpt lat="48.74857" lon="1.76171">
        <ele>225.3</ele>
        <time>2026-03-26T09:03:51.000Z</time>
      </trkpt>
      <trkpt lat="48.74859" lon="1.76169">
        <ele>225.4</ele>
        <time>2026-03-26T09:03:52.000Z</time>
      </trkpt>
      <trkpt lat="48.7486" lon="1.76167">
        <ele>225.1</ele>
        <time>2026-03-26T09:03:53.000Z</time>
      </trkpt>
      <trkpt lat="48.74861" lon="1.76166">
        <ele>225</ele>
        <time>2026-03-26T09:03:54.000Z</time>
      </trkpt>
      <trkpt lat="48.74862" lon="1.76165">
        <ele>224.7</ele>
        <time>2026-03-26T09:03:55.000Z</time>
      </trkpt>
      <trkpt lat="48.74864" lon="1.76163">
        <ele>225.3</ele>
        <time>2026-03-26T09:03:56.000Z</time>
      </trkpt>
      <trkpt lat="48.74865" lon="1.76163">
        <ele>225.4</ele>
        <time>2026-03-26T09:03:57.000Z</time>
      </trkpt>
      <trkpt lat="48.74866" lon="1.76162">
        <ele>225.2</ele>
        <time>2026-03-26T09:03:58.000Z</time>
      </trkpt>
      <trkpt lat="48.74868" lon="1.76161">
        <ele>225.2</ele>
        <time>2026-03-26T09:03:59.000Z</time>
      </trkpt>
      <trkpt lat="48.74869" lon="1.76161">
        <ele>225.5</ele>
        <time>2026-03-26T09:04:00.000Z</time>
      </trkpt>
      <trkpt lat="48.74871" lon="1.7616">
        <ele>225.5</ele>
        <time>2026-03-26T09:04:01.000Z</time>
      </trkpt>
      <trkpt lat="48.74872" lon="1.76159">
        <ele>225.5</ele>
        <time>2026-03-26T09:04:02.000Z</time>
      </trkpt>
      <trkpt lat="48.74874" lon="1.76159">
        <ele>225.9</ele>
        <time>2026-03-26T09:04:03.000Z</time>
      </trkpt>
      <trkpt lat="48.74875" lon="1.76159">
        <ele>226.2</ele>
        <time>2026-03-26T09:04:04.000Z</time>
      </trkpt>
      <trkpt lat="48.74877" lon="1.76158">
        <ele>226.3</ele>
        <time>2026-03-26T09:04:05.000Z</time>
      </trkpt>
      <trkpt lat="48.74878" lon="1.76157">
        <ele>226.4</ele>
        <time>2026-03-26T09:04:06.000Z</time>
      </trkpt>
      <trkpt lat="48.7488" lon="1.76156">
        <ele>226</ele>
        <time>2026-03-26T09:04:07.000Z</time>
      </trkpt>
      <trkpt lat="48.74881" lon="1.76155">
        <ele>225.9</ele>
        <time>2026-03-26T09:04:08.000Z</time>
      </trkpt>
      <trkpt lat="48.74883" lon="1.76155">
        <ele>225.4</ele>
        <time>2026-03-26T09:04:09.000Z</time>
      </trkpt>
      <trkpt lat="48.74884" lon="1.76155">
        <ele>225.4</ele>
        <time>2026-03-26T09:04:10.000Z</time>
      </trkpt>
      <trkpt lat="48.74886" lon="1.76155">
        <ele>225.6</ele>
        <time>2026-03-26T09:04:11.000Z</time>
      </trkpt>
      <trkpt lat="48.74888" lon="1.76156">
        <ele>226.1</ele>
        <time>2026-03-26T09:04:12.000Z</time>
      </trkpt>
      <trkpt lat="48.74889" lon="1.76155">
        <ele>226.1</ele>
        <time>2026-03-26T09:04:13.000Z</time>
      </trkpt>
      <trkpt lat="48.74891" lon="1.76155">
        <ele>226.1</ele>
        <time>2026-03-26T09:04:14.000Z</time>
      </trkpt>
      <trkpt lat="48.74892" lon="1.76156">
        <ele>225.5</ele>
        <time>2026-03-26T09:04:15.000Z</time>
      </trkpt>
      <trkpt lat="48.74893" lon="1.7616">
        <ele>225.7</ele>
        <time>2026-03-26T09:04:16.000Z</time>
      </trkpt>
      <trkpt lat="48.74891" lon="1.76163">
        <ele>225.2</ele>
        <time>2026-03-26T09:04:17.000Z</time>
      </trkpt>
      <trkpt lat="48.7489" lon="1.76164">
        <ele>224.7</ele>
        <time>2026-03-26T09:04:18.000Z</time>
      </trkpt>
      <trkpt lat="48.74893" lon="1.76165">
        <ele>224</ele>
        <time>2026-03-26T09:04:19.000Z</time>
      </trkpt>
      <trkpt lat="48.74895" lon="1.76164">
        <ele>223.6</ele>
        <time>2026-03-26T09:04:20.000Z</time>
      </trkpt>
      <trkpt lat="48.74896" lon="1.76163">
        <ele>224</ele>
        <time>2026-03-26T09:04:21.000Z</time>
      </trkpt>
      <trkpt lat="48.74898" lon="1.76163">
        <ele>224.1</ele>
        <time>2026-03-26T09:04:22.000Z</time>
      </trkpt>
      <trkpt lat="48.74899" lon="1.76162">
        <ele>224.1</ele>
        <time>2026-03-26T09:04:23.000Z</time>
      </trkpt>
      <trkpt lat="48.749" lon="1.76161">
        <ele>224.5</ele>
        <time>2026-03-26T09:04:24.000Z</time>
      </trkpt>
      <trkpt lat="48.74902" lon="1.7616">
        <ele>225.3</ele>
        <time>2026-03-26T09:04:25.000Z</time>
      </trkpt>
      <trkpt lat="48.74903" lon="1.76159">
        <ele>226.2</ele>
        <time>2026-03-26T09:04:26.000Z</time>
      </trkpt>
      <trkpt lat="48.74904" lon="1.76158">
        <ele>225.4</ele>
        <time>2026-03-26T09:04:27.000Z</time>
      </trkpt>
      <trkpt lat="48.74906" lon="1.76158">
        <ele>226.1</ele>
        <time>2026-03-26T09:04:28.000Z</time>
      </trkpt>
      <trkpt lat="48.74907" lon="1.76157">
        <ele>226.1</ele>
        <time>2026-03-26T09:04:29.000Z</time>
      </trkpt>
      <trkpt lat="48.74908" lon="1.76156">
        <ele>225</ele>
        <time>2026-03-26T09:04:30.000Z</time>
      </trkpt>
      <trkpt lat="48.74909" lon="1.76157">
        <ele>224.9</ele>
        <time>2026-03-26T09:04:31.000Z</time>
      </trkpt>
      <trkpt lat="48.74911" lon="1.76156">
        <ele>224.9</ele>
        <time>2026-03-26T09:04:32.000Z</time>
      </trkpt>
      <trkpt lat="48.74912" lon="1.76156">
        <ele>225.2</ele>
        <time>2026-03-26T09:04:33.000Z</time>
      </trkpt>
      <trkpt lat="48.74913" lon="1.76155">
        <ele>225.4</ele>
        <time>2026-03-26T09:04:34.000Z</time>
      </trkpt>
      <trkpt lat="48.74915" lon="1.76155">
        <ele>223.9</ele>
        <time>2026-03-26T09:04:35.000Z</time>
      </trkpt>
      <trkpt lat="48.74916" lon="1.76154">
        <ele>223.7</ele>
        <time>2026-03-26T09:04:36.000Z</time>
      </trkpt>
      <trkpt lat="48.74917" lon="1.76153">
        <ele>223.7</ele>
        <time>2026-03-26T09:04:37.000Z</time>
      </trkpt>
      <trkpt lat="48.74919" lon="1.76153">
        <ele>223.9</ele>
        <time>2026-03-26T09:04:38.000Z</time>
      </trkpt>
      <trkpt lat="48.7492" lon="1.76152">
        <ele>224.6</ele>
        <time>2026-03-26T09:04:39.000Z</time>
      </trkpt>
      <trkpt lat="48.74922" lon="1.76152">
        <ele>224.8</ele>
        <time>2026-03-26T09:04:40.000Z</time>
      </trkpt>
      <trkpt lat="48.74923" lon="1.76151">
        <ele>224.4</ele>
        <time>2026-03-26T09:04:41.000Z</time>
      </trkpt>
      <trkpt lat="48.74924" lon="1.76151">
        <ele>224.7</ele>
        <time>2026-03-26T09:04:42.000Z</time>
      </trkpt>
      <trkpt lat="48.74926" lon="1.7615">
        <ele>225.3</ele>
        <time>2026-03-26T09:04:43.000Z</time>
      </trkpt>
      <trkpt lat="48.74927" lon="1.7615">
        <ele>225.1</ele>
        <time>2026-03-26T09:04:44.000Z</time>
      </trkpt>
      <trkpt lat="48.74929" lon="1.76149">
        <ele>225.7</ele>
        <time>2026-03-26T09:04:45.000Z</time>
      </trkpt>
      <trkpt lat="48.7493" lon="1.76149">
        <ele>225.5</ele>
        <time>2026-03-26T09:04:46.000Z</time>
      </trkpt>
      <trkpt lat="48.74932" lon="1.76148">
        <ele>225.3</ele>
        <time>2026-03-26T09:04:47.000Z</time>
      </trkpt>
      <trkpt lat="48.74933" lon="1.76148">
        <ele>226</ele>
        <time>2026-03-26T09:04:48.000Z</time>
      </trkpt>
      <trkpt lat="48.74934" lon="1.76148">
        <ele>225.7</ele>
        <time>2026-03-26T09:04:49.000Z</time>
      </trkpt>
      <trkpt lat="48.74936" lon="1.76147">
        <ele>225.5</ele>
        <time>2026-03-26T09:04:50.000Z</time>
      </trkpt>
      <trkpt lat="48.74937" lon="1.76146">
        <ele>225</ele>
        <time>2026-03-26T09:04:51.000Z</time>
      </trkpt>
      <trkpt lat="48.74939" lon="1.76146">
        <ele>225</ele>
        <time>2026-03-26T09:04:52.000Z</time>
      </trkpt>
      <trkpt lat="48.74941" lon="1.76145">
        <ele>224.7</ele>
        <time>2026-03-26T09:04:53.000Z</time>
      </trkpt>
      <trkpt lat="48.74942" lon="1.76144">
        <ele>224.4</ele>
        <time>2026-03-26T09:04:54.000Z</time>
      </trkpt>
      <trkpt lat="48.74943" lon="1.76143">
        <ele>224.5</ele>
        <time>2026-03-26T09:04:55.000Z</time>
      </trkpt>
      <trkpt lat="48.74945" lon="1.76142">
        <ele>224.8</ele>
        <time>2026-03-26T09:04:56.000Z</time>
      </trkpt>
      <trkpt lat="48.74946" lon="1.76141">
        <ele>225.2</ele>
        <time>2026-03-26T09:04:57.000Z</time>
      </trkpt>
      <trkpt lat="48.74947" lon="1.7614">
        <ele>225.3</ele>
        <time>2026-03-26T09:04:58.000Z</time>
      </trkpt>
      <trkpt lat="48.74949" lon="1.7614">
        <ele>226</ele>
        <time>2026-03-26T09:04:59.000Z</time>
      </trkpt>
      <trkpt lat="48.74951" lon="1.76138">
        <ele>226.6</ele>
        <time>2026-03-26T09:05:00.000Z</time>
      </trkpt>
      <trkpt lat="48.74952" lon="1.76138">
        <ele>227</ele>
        <time>2026-03-26T09:05:01.000Z</time>
      </trkpt>
      <trkpt lat="48.74954" lon="1.76136">
        <ele>227.9</ele>
        <time>2026-03-26T09:05:02.000Z</time>
      </trkpt>
      <trkpt lat="48.74955" lon="1.76134">
        <ele>228.7</ele>
        <time>2026-03-26T09:05:03.000Z</time>
      </trkpt>
      <trkpt lat="48.74956" lon="1.76132">
        <ele>229.2</ele>
        <time>2026-03-26T09:05:04.000Z</time>
      </trkpt>
      <trkpt lat="48.74958" lon="1.76131">
        <ele>230.2</ele>
        <time>2026-03-26T09:05:05.000Z</time>
      </trkpt>
      <trkpt lat="48.74959" lon="1.7613">
        <ele>230.6</ele>
        <time>2026-03-26T09:05:06.000Z</time>
      </trkpt>
      <trkpt lat="48.74961" lon="1.76129">
        <ele>230.2</ele>
        <time>2026-03-26T09:05:07.000Z</time>
      </trkpt>
      <trkpt lat="48.74962" lon="1.76129">
        <ele>229.8</ele>
        <time>2026-03-26T09:05:08.000Z</time>
      </trkpt>
      <trkpt lat="48.74964" lon="1.76128">
        <ele>230.1</ele>
        <time>2026-03-26T09:05:09.000Z</time>
      </trkpt>
      <trkpt lat="48.74965" lon="1.76127">
        <ele>229.2</ele>
        <time>2026-03-26T09:05:10.000Z</time>
      </trkpt>
      <trkpt lat="48.74966" lon="1.76126">
        <ele>229</ele>
        <time>2026-03-26T09:05:11.000Z</time>
      </trkpt>
      <trkpt lat="48.74967" lon="1.76125">
        <ele>229.7</ele>
        <time>2026-03-26T09:05:12.000Z</time>
      </trkpt>
      <trkpt lat="48.74969" lon="1.76124">
        <ele>230</ele>
        <time>2026-03-26T09:05:13.000Z</time>
      </trkpt>
      <trkpt lat="48.7497" lon="1.76123">
        <ele>229.8</ele>
        <time>2026-03-26T09:05:14.000Z</time>
      </trkpt>
      <trkpt lat="48.74971" lon="1.76121">
        <ele>230.1</ele>
        <time>2026-03-26T09:05:15.000Z</time>
      </trkpt>
      <trkpt lat="48.74972" lon="1.76119">
        <ele>229.7</ele>
        <time>2026-03-26T09:05:16.000Z</time>
      </trkpt>
      <trkpt lat="48.74973" lon="1.76117">
        <ele>229.2</ele>
        <time>2026-03-26T09:05:17.000Z</time>
      </trkpt>
      <trkpt lat="48.74974" lon="1.76115">
        <ele>228.9</ele>
        <time>2026-03-26T09:05:18.000Z</time>
      </trkpt>
      <trkpt lat="48.74974" lon="1.76113">
        <ele>228.4</ele>
        <time>2026-03-26T09:05:19.000Z</time>
      </trkpt>
      <trkpt lat="48.74975" lon="1.76111">
        <ele>228.7</ele>
        <time>2026-03-26T09:05:20.000Z</time>
      </trkpt>
      <trkpt lat="48.74975" lon="1.76109">
        <ele>228</ele>
        <time>2026-03-26T09:05:21.000Z</time>
      </trkpt>
      <trkpt lat="48.74976" lon="1.76107">
        <ele>228.5</ele>
        <time>2026-03-26T09:05:22.000Z</time>
      </trkpt>
      <trkpt lat="48.74976" lon="1.76105">
        <ele>228</ele>
        <time>2026-03-26T09:05:23.000Z</time>
      </trkpt>
      <trkpt lat="48.74977" lon="1.76102">
        <ele>227.9</ele>
        <time>2026-03-26T09:05:24.000Z</time>
      </trkpt>
      <trkpt lat="48.74977" lon="1.761">
        <ele>227.9</ele>
        <time>2026-03-26T09:05:25.000Z</time>
      </trkpt>
      <trkpt lat="48.74977" lon="1.76098">
        <ele>227.8</ele>
        <time>2026-03-26T09:05:26.000Z</time>
      </trkpt>
      <trkpt lat="48.74977" lon="1.76096">
        <ele>227.7</ele>
        <time>2026-03-26T09:05:27.000Z</time>
      </trkpt>
      <trkpt lat="48.74977" lon="1.76094">
        <ele>226.8</ele>
        <time>2026-03-26T09:05:28.000Z</time>
      </trkpt>
      <trkpt lat="48.74978" lon="1.76092">
        <ele>226.3</ele>
        <time>2026-03-26T09:05:29.000Z</time>
      </trkpt>
      <trkpt lat="48.74977" lon="1.7609">
        <ele>225.7</ele>
        <time>2026-03-26T09:05:30.000Z</time>
      </trkpt>
      <trkpt lat="48.74978" lon="1.76088">
        <ele>225.8</ele>
        <time>2026-03-26T09:05:31.000Z</time>
      </trkpt>
      <trkpt lat="48.74978" lon="1.76086">
        <ele>225.7</ele>
        <time>2026-03-26T09:05:32.000Z</time>
      </trkpt>
      <trkpt lat="48.74978" lon="1.76084">
        <ele>225.9</ele>
        <time>2026-03-26T09:05:33.000Z</time>
      </trkpt>
      <trkpt lat="48.74978" lon="1.76081">
        <ele>226</ele>
        <time>2026-03-26T09:05:34.000Z</time>
      </trkpt>
      <trkpt lat="48.74978" lon="1.76079">
        <ele>225.9</ele>
        <time>2026-03-26T09:05:35.000Z</time>
      </trkpt>
      <trkpt lat="48.74979" lon="1.76077">
        <ele>226.4</ele>
        <time>2026-03-26T09:05:36.000Z</time>
      </trkpt>
      <trkpt lat="48.74979" lon="1.76075">
        <ele>226.5</ele>
        <time>2026-03-26T09:05:37.000Z</time>
      </trkpt>
      <trkpt lat="48.74979" lon="1.76073">
        <ele>226.2</ele>
        <time>2026-03-26T09:05:38.000Z</time>
      </trkpt>
      <trkpt lat="48.74979" lon="1.76071">
        <ele>226.2</ele>
        <time>2026-03-26T09:05:39.000Z</time>
      </trkpt>
      <trkpt lat="48.74979" lon="1.76068">
        <ele>226.1</ele>
        <time>2026-03-26T09:05:40.000Z</time>
      </trkpt>
      <trkpt lat="48.74978" lon="1.76066">
        <ele>225.4</ele>
        <time>2026-03-26T09:05:41.000Z</time>
      </trkpt>
      <trkpt lat="48.74978" lon="1.76063">
        <ele>224.9</ele>
        <time>2026-03-26T09:05:42.000Z</time>
      </trkpt>
      <trkpt lat="48.74978" lon="1.76061">
        <ele>224.6</ele>
        <time>2026-03-26T09:05:43.000Z</time>
      </trkpt>
      <trkpt lat="48.74978" lon="1.76059">
        <ele>224.4</ele>
        <time>2026-03-26T09:05:44.000Z</time>
      </trkpt>
      <trkpt lat="48.74978" lon="1.76058">
        <ele>224.1</ele>
        <time>2026-03-26T09:05:45.000Z</time>
      </trkpt>
      <trkpt lat="48.74979" lon="1.76056">
        <ele>223.5</ele>
        <time>2026-03-26T09:05:46.000Z</time>
      </trkpt>
      <trkpt lat="48.74979" lon="1.76054">
        <ele>223.2</ele>
        <time>2026-03-26T09:05:47.000Z</time>
      </trkpt>
      <trkpt lat="48.74979" lon="1.76052">
        <ele>223.2</ele>
        <time>2026-03-26T09:05:48.000Z</time>
      </trkpt>
      <trkpt lat="48.74979" lon="1.7605">
        <ele>223</ele>
        <time>2026-03-26T09:05:49.000Z</time>
      </trkpt>
      <trkpt lat="48.74979" lon="1.76048">
        <ele>223.3</ele>
        <time>2026-03-26T09:05:50.000Z</time>
      </trkpt>
      <trkpt lat="48.7498" lon="1.76046">
        <ele>223.6</ele>
        <time>2026-03-26T09:05:51.000Z</time>
      </trkpt>
      <trkpt lat="48.7498" lon="1.76044">
        <ele>223.6</ele>
        <time>2026-03-26T09:05:52.000Z</time>
      </trkpt>
      <trkpt lat="48.7498" lon="1.76042">
        <ele>223.7</ele>
        <time>2026-03-26T09:05:53.000Z</time>
      </trkpt>
      <trkpt lat="48.7498" lon="1.7604">
        <ele>223.4</ele>
        <time>2026-03-26T09:05:54.000Z</time>
      </trkpt>
      <trkpt lat="48.74981" lon="1.76038">
        <ele>223.3</ele>
        <time>2026-03-26T09:05:55.000Z</time>
      </trkpt>
      <trkpt lat="48.74981" lon="1.76036">
        <ele>222.8</ele>
        <time>2026-03-26T09:05:56.000Z</time>
      </trkpt>
      <trkpt lat="48.74981" lon="1.76034">
        <ele>222.9</ele>
        <time>2026-03-26T09:05:57.000Z</time>
      </trkpt>
      <trkpt lat="48.74982" lon="1.76032">
        <ele>223</ele>
        <time>2026-03-26T09:05:58.000Z</time>
      </trkpt>
      <trkpt lat="48.74982" lon="1.7603">
        <ele>222.8</ele>
        <time>2026-03-26T09:05:59.000Z</time>
      </trkpt>
      <trkpt lat="48.74983" lon="1.76028">
        <ele>223</ele>
        <time>2026-03-26T09:06:00.000Z</time>
      </trkpt>
      <trkpt lat="48.74983" lon="1.76026">
        <ele>222.9</ele>
        <time>2026-03-26T09:06:01.000Z</time>
      </trkpt>
      <trkpt lat="48.74983" lon="1.76024">
        <ele>222.7</ele>
        <time>2026-03-26T09:06:02.000Z</time>
      </trkpt>
      <trkpt lat="48.74984" lon="1.76023">
        <ele>222.8</ele>
        <time>2026-03-26T09:06:03.000Z</time>
      </trkpt>
      <trkpt lat="48.74985" lon="1.76021">
        <ele>222.4</ele>
        <time>2026-03-26T09:06:04.000Z</time>
      </trkpt>
      <trkpt lat="48.74985" lon="1.76019">
        <ele>222.4</ele>
        <time>2026-03-26T09:06:05.000Z</time>
      </trkpt>
      <trkpt lat="48.74985" lon="1.76017">
        <ele>222.7</ele>
        <time>2026-03-26T09:06:06.000Z</time>
      </trkpt>
      <trkpt lat="48.74986" lon="1.76015">
        <ele>222.9</ele>
        <time>2026-03-26T09:06:07.000Z</time>
      </trkpt>
      <trkpt lat="48.74987" lon="1.76013">
        <ele>222.7</ele>
        <time>2026-03-26T09:06:08.000Z</time>
      </trkpt>
      <trkpt lat="48.74988" lon="1.76012">
        <ele>222.6</ele>
        <time>2026-03-26T09:06:09.000Z</time>
      </trkpt>
      <trkpt lat="48.74988" lon="1.7601">
        <ele>222.9</ele>
        <time>2026-03-26T09:06:10.000Z</time>
      </trkpt>
      <trkpt lat="48.74989" lon="1.76008">
        <ele>222.7</ele>
        <time>2026-03-26T09:06:11.000Z</time>
      </trkpt>
      <trkpt lat="48.7499" lon="1.76006">
        <ele>222.6</ele>
        <time>2026-03-26T09:06:12.000Z</time>
      </trkpt>
      <trkpt lat="48.74991" lon="1.76005">
        <ele>222.9</ele>
        <time>2026-03-26T09:06:13.000Z</time>
      </trkpt>
      <trkpt lat="48.74992" lon="1.76003">
        <ele>223</ele>
        <time>2026-03-26T09:06:14.000Z</time>
      </trkpt>
      <trkpt lat="48.74992" lon="1.76001">
        <ele>222.8</ele>
        <time>2026-03-26T09:06:15.000Z</time>
      </trkpt>
      <trkpt lat="48.74993" lon="1.75999">
        <ele>222.6</ele>
        <time>2026-03-26T09:06:16.000Z</time>
      </trkpt>
      <trkpt lat="48.74994" lon="1.75997">
        <ele>222.5</ele>
        <time>2026-03-26T09:06:17.000Z</time>
      </trkpt>
      <trkpt lat="48.74995" lon="1.75996">
        <ele>222</ele>
        <time>2026-03-26T09:06:18.000Z</time>
      </trkpt>
      <trkpt lat="48.74995" lon="1.75994">
        <ele>221.9</ele>
        <time>2026-03-26T09:06:19.000Z</time>
      </trkpt>
      <trkpt lat="48.74996" lon="1.75992">
        <ele>222.1</ele>
        <time>2026-03-26T09:06:20.000Z</time>
      </trkpt>
      <trkpt lat="48.74996" lon="1.7599">
        <ele>222.1</ele>
        <time>2026-03-26T09:06:21.000Z</time>
      </trkpt>
      <trkpt lat="48.74997" lon="1.75988">
        <ele>222.2</ele>
        <time>2026-03-26T09:06:22.000Z</time>
      </trkpt>
      <trkpt lat="48.74998" lon="1.75986">
        <ele>222.4</ele>
        <time>2026-03-26T09:06:23.000Z</time>
      </trkpt>
      <trkpt lat="48.74999" lon="1.75984">
        <ele>223.2</ele>
        <time>2026-03-26T09:06:24.000Z</time>
      </trkpt>
      <trkpt lat="48.74999" lon="1.75982">
        <ele>223.9</ele>
        <time>2026-03-26T09:06:25.000Z</time>
      </trkpt>
      <trkpt lat="48.75" lon="1.7598">
        <ele>224</ele>
        <time>2026-03-26T09:06:26.000Z</time>
      </trkpt>
      <trkpt lat="48.75001" lon="1.75978">
        <ele>224.4</ele>
        <time>2026-03-26T09:06:27.000Z</time>
      </trkpt>
      <trkpt lat="48.75001" lon="1.75976">
        <ele>224.8</ele>
        <time>2026-03-26T09:06:28.000Z</time>
      </trkpt>
      <trkpt lat="48.75002" lon="1.75973">
        <ele>225.3</ele>
        <time>2026-03-26T09:06:29.000Z</time>
      </trkpt>
      <trkpt lat="48.75002" lon="1.75971">
        <ele>225.3</ele>
        <time>2026-03-26T09:06:30.000Z</time>
      </trkpt>
      <trkpt lat="48.75003" lon="1.75969">
        <ele>226.2</ele>
        <time>2026-03-26T09:06:31.000Z</time>
      </trkpt>
      <trkpt lat="48.75003" lon="1.75967">
        <ele>226</ele>
        <time>2026-03-26T09:06:32.000Z</time>
      </trkpt>
      <trkpt lat="48.75004" lon="1.75965">
        <ele>225.9</ele>
        <time>2026-03-26T09:06:33.000Z</time>
      </trkpt>
      <trkpt lat="48.75005" lon="1.75963">
        <ele>225.2</ele>
        <time>2026-03-26T09:06:34.000Z</time>
      </trkpt>
      <trkpt lat="48.75006" lon="1.75961">
        <ele>225.4</ele>
        <time>2026-03-26T09:06:35.000Z</time>
      </trkpt>
      <trkpt lat="48.75006" lon="1.75959">
        <ele>225.2</ele>
        <time>2026-03-26T09:06:36.000Z</time>
      </trkpt>
      <trkpt lat="48.75007" lon="1.75957">
        <ele>225</ele>
        <time>2026-03-26T09:06:37.000Z</time>
      </trkpt>
      <trkpt lat="48.75007" lon="1.75956">
        <ele>224.7</ele>
        <time>2026-03-26T09:06:38.000Z</time>
      </trkpt>
      <trkpt lat="48.75008" lon="1.75954">
        <ele>224.3</ele>
        <time>2026-03-26T09:06:39.000Z</time>
      </trkpt>
      <trkpt lat="48.75009" lon="1.75952">
        <ele>224.5</ele>
        <time>2026-03-26T09:06:40.000Z</time>
      </trkpt>
      <trkpt lat="48.75009" lon="1.7595">
        <ele>224.5</ele>
        <time>2026-03-26T09:06:41.000Z</time>
      </trkpt>
      <trkpt lat="48.7501" lon="1.75948">
        <ele>224.4</ele>
        <time>2026-03-26T09:06:42.000Z</time>
      </trkpt>
      <trkpt lat="48.7501" lon="1.75946">
        <ele>224.2</ele>
        <time>2026-03-26T09:06:43.000Z</time>
      </trkpt>
      <trkpt lat="48.75011" lon="1.75944">
        <ele>224.8</ele>
        <time>2026-03-26T09:06:44.000Z</time>
      </trkpt>
      <trkpt lat="48.75012" lon="1.75942">
        <ele>225.5</ele>
        <time>2026-03-26T09:06:45.000Z</time>
      </trkpt>
      <trkpt lat="48.75013" lon="1.7594">
        <ele>225.4</ele>
        <time>2026-03-26T09:06:46.000Z</time>
      </trkpt>
      <trkpt lat="48.75014" lon="1.75939">
        <ele>225.4</ele>
        <time>2026-03-26T09:06:47.000Z</time>
      </trkpt>
      <trkpt lat="48.75014" lon="1.75936">
        <ele>225.2</ele>
        <time>2026-03-26T09:06:48.000Z</time>
      </trkpt>
      <trkpt lat="48.75016" lon="1.75935">
        <ele>226.2</ele>
        <time>2026-03-26T09:06:49.000Z</time>
      </trkpt>
      <trkpt lat="48.75016" lon="1.75932">
        <ele>226.5</ele>
        <time>2026-03-26T09:06:50.000Z</time>
      </trkpt>
      <trkpt lat="48.75017" lon="1.7593">
        <ele>226.2</ele>
        <time>2026-03-26T09:06:51.000Z</time>
      </trkpt>
      <trkpt lat="48.75017" lon="1.75929">
        <ele>226.2</ele>
        <time>2026-03-26T09:06:52.000Z</time>
      </trkpt>
      <trkpt lat="48.75017" lon="1.75927">
        <ele>226.5</ele>
        <time>2026-03-26T09:06:53.000Z</time>
      </trkpt>
      <trkpt lat="48.75018" lon="1.75924">
        <ele>226.2</ele>
        <time>2026-03-26T09:06:54.000Z</time>
      </trkpt>
      <trkpt lat="48.75019" lon="1.75922">
        <ele>225.7</ele>
        <time>2026-03-26T09:06:55.000Z</time>
      </trkpt>
      <trkpt lat="48.7502" lon="1.75921">
        <ele>225.5</ele>
        <time>2026-03-26T09:06:56.000Z</time>
      </trkpt>
      <trkpt lat="48.7502" lon="1.75919">
        <ele>225.2</ele>
        <time>2026-03-26T09:06:57.000Z</time>
      </trkpt>
      <trkpt lat="48.75021" lon="1.75917">
        <ele>225.4</ele>
        <time>2026-03-26T09:06:58.000Z</time>
      </trkpt>
      <trkpt lat="48.75022" lon="1.75915">
        <ele>225.3</ele>
        <time>2026-03-26T09:06:59.000Z</time>
      </trkpt>
      <trkpt lat="48.75023" lon="1.75913">
        <ele>225.2</ele>
        <time>2026-03-26T09:07:00.000Z</time>
      </trkpt>
      <trkpt lat="48.75024" lon="1.75912">
        <ele>225.5</ele>
        <time>2026-03-26T09:07:01.000Z</time>
      </trkpt>
      <trkpt lat="48.75024" lon="1.7591">
        <ele>225.9</ele>
        <time>2026-03-26T09:07:02.000Z</time>
      </trkpt>
      <trkpt lat="48.75025" lon="1.75909">
        <ele>225.4</ele>
        <time>2026-03-26T09:07:03.000Z</time>
      </trkpt>
      <trkpt lat="48.75026" lon="1.75907">
        <ele>225.3</ele>
        <time>2026-03-26T09:07:04.000Z</time>
      </trkpt>
      <trkpt lat="48.75026" lon="1.75905">
        <ele>225.1</ele>
        <time>2026-03-26T09:07:05.000Z</time>
      </trkpt>
      <trkpt lat="48.75027" lon="1.75904">
        <ele>225.8</ele>
        <time>2026-03-26T09:07:06.000Z</time>
      </trkpt>
      <trkpt lat="48.75028" lon="1.75901">
        <ele>225.7</ele>
        <time>2026-03-26T09:07:07.000Z</time>
      </trkpt>
      <trkpt lat="48.75028" lon="1.759">
        <ele>225.4</ele>
        <time>2026-03-26T09:07:08.000Z</time>
      </trkpt>
      <trkpt lat="48.75028" lon="1.75898">
        <ele>225.1</ele>
        <time>2026-03-26T09:07:09.000Z</time>
      </trkpt>
      <trkpt lat="48.75029" lon="1.75896">
        <ele>225.1</ele>
        <time>2026-03-26T09:07:10.000Z</time>
      </trkpt>
      <trkpt lat="48.7503" lon="1.75894">
        <ele>225.3</ele>
        <time>2026-03-26T09:07:11.000Z</time>
      </trkpt>
      <trkpt lat="48.7503" lon="1.75892">
        <ele>225.4</ele>
        <time>2026-03-26T09:07:12.000Z</time>
      </trkpt>
      <trkpt lat="48.75031" lon="1.75891">
        <ele>225.2</ele>
        <time>2026-03-26T09:07:13.000Z</time>
      </trkpt>
      <trkpt lat="48.75032" lon="1.75889">
        <ele>225.1</ele>
        <time>2026-03-26T09:07:14.000Z</time>
      </trkpt>
      <trkpt lat="48.75032" lon="1.75887">
        <ele>225.2</ele>
        <time>2026-03-26T09:07:15.000Z</time>
      </trkpt>
      <trkpt lat="48.75032" lon="1.75884">
        <ele>225.2</ele>
        <time>2026-03-26T09:07:16.000Z</time>
      </trkpt>
      <trkpt lat="48.75033" lon="1.75882">
        <ele>225.1</ele>
        <time>2026-03-26T09:07:17.000Z</time>
      </trkpt>
      <trkpt lat="48.75034" lon="1.7588">
        <ele>225.3</ele>
        <time>2026-03-26T09:07:18.000Z</time>
      </trkpt>
      <trkpt lat="48.75034" lon="1.75878">
        <ele>225.5</ele>
        <time>2026-03-26T09:07:19.000Z</time>
      </trkpt>
      <trkpt lat="48.75035" lon="1.75876">
        <ele>225.5</ele>
        <time>2026-03-26T09:07:20.000Z</time>
      </trkpt>
      <trkpt lat="48.75035" lon="1.75873">
        <ele>227</ele>
        <time>2026-03-26T09:07:21.000Z</time>
      </trkpt>
      <trkpt lat="48.75035" lon="1.75871">
        <ele>227.1</ele>
        <time>2026-03-26T09:07:22.000Z</time>
      </trkpt>
      <trkpt lat="48.75035" lon="1.75867">
        <ele>228</ele>
        <time>2026-03-26T09:07:23.000Z</time>
      </trkpt>
      <trkpt lat="48.75035" lon="1.75865">
        <ele>228.5</ele>
        <time>2026-03-26T09:07:24.000Z</time>
      </trkpt>
      <trkpt lat="48.75036" lon="1.75862">
        <ele>229.2</ele>
        <time>2026-03-26T09:07:25.000Z</time>
      </trkpt>
      <trkpt lat="48.75036" lon="1.75859">
        <ele>230.2</ele>
        <time>2026-03-26T09:07:26.000Z</time>
      </trkpt>
      <trkpt lat="48.75036" lon="1.75856">
        <ele>229.6</ele>
        <time>2026-03-26T09:07:27.000Z</time>
      </trkpt>
      <trkpt lat="48.75037" lon="1.75854">
        <ele>229.4</ele>
        <time>2026-03-26T09:07:28.000Z</time>
      </trkpt>
      <trkpt lat="48.75037" lon="1.75851">
        <ele>228.7</ele>
        <time>2026-03-26T09:07:29.000Z</time>
      </trkpt>
      <trkpt lat="48.75037" lon="1.75849">
        <ele>228.5</ele>
        <time>2026-03-26T09:07:30.000Z</time>
      </trkpt>
      <trkpt lat="48.75038" lon="1.75847">
        <ele>227.9</ele>
        <time>2026-03-26T09:07:31.000Z</time>
      </trkpt>
      <trkpt lat="48.75038" lon="1.75845">
        <ele>228.1</ele>
        <time>2026-03-26T09:07:32.000Z</time>
      </trkpt>
      <trkpt lat="48.75039" lon="1.75844">
        <ele>228.1</ele>
        <time>2026-03-26T09:07:33.000Z</time>
      </trkpt>
      <trkpt lat="48.75039" lon="1.75842">
        <ele>228.1</ele>
        <time>2026-03-26T09:07:34.000Z</time>
      </trkpt>
      <trkpt lat="48.75039" lon="1.7584">
        <ele>228</ele>
        <time>2026-03-26T09:07:35.000Z</time>
      </trkpt>
      <trkpt lat="48.7504" lon="1.75839">
        <ele>228.3</ele>
        <time>2026-03-26T09:07:36.000Z</time>
      </trkpt>
      <trkpt lat="48.75041" lon="1.75837">
        <ele>228.7</ele>
        <time>2026-03-26T09:07:37.000Z</time>
      </trkpt>
      <trkpt lat="48.75041" lon="1.75835">
        <ele>228.8</ele>
        <time>2026-03-26T09:07:38.000Z</time>
      </trkpt>
      <trkpt lat="48.75042" lon="1.75833">
        <ele>228.4</ele>
        <time>2026-03-26T09:07:39.000Z</time>
      </trkpt>
      <trkpt lat="48.75042" lon="1.75831">
        <ele>228.4</ele>
        <time>2026-03-26T09:07:40.000Z</time>
      </trkpt>
      <trkpt lat="48.75042" lon="1.75829">
        <ele>228.7</ele>
        <time>2026-03-26T09:07:41.000Z</time>
      </trkpt>
      <trkpt lat="48.75043" lon="1.75827">
        <ele>228.8</ele>
        <time>2026-03-26T09:07:42.000Z</time>
      </trkpt>
      <trkpt lat="48.75043" lon="1.75825">
        <ele>228.9</ele>
        <time>2026-03-26T09:07:43.000Z</time>
      </trkpt>
      <trkpt lat="48.75044" lon="1.75823">
        <ele>229.2</ele>
        <time>2026-03-26T09:07:44.000Z</time>
      </trkpt>
      <trkpt lat="48.75044" lon="1.75822">
        <ele>228.4</ele>
        <time>2026-03-26T09:07:45.000Z</time>
      </trkpt>
      <trkpt lat="48.75044" lon="1.7582">
        <ele>228.1</ele>
        <time>2026-03-26T09:07:46.000Z</time>
      </trkpt>
      <trkpt lat="48.75045" lon="1.75819">
        <ele>227.8</ele>
        <time>2026-03-26T09:07:47.000Z</time>
      </trkpt>
      <trkpt lat="48.75045" lon="1.75817">
        <ele>227.7</ele>
        <time>2026-03-26T09:07:48.000Z</time>
      </trkpt>
      <trkpt lat="48.75046" lon="1.75816">
        <ele>227.7</ele>
        <time>2026-03-26T09:07:49.000Z</time>
      </trkpt>
      <trkpt lat="48.75046" lon="1.75814">
        <ele>227.6</ele>
        <time>2026-03-26T09:07:50.000Z</time>
      </trkpt>
      <trkpt lat="48.75047" lon="1.75812">
        <ele>227.8</ele>
        <time>2026-03-26T09:07:51.000Z</time>
      </trkpt>
      <trkpt lat="48.75047" lon="1.7581">
        <ele>228.3</ele>
        <time>2026-03-26T09:07:52.000Z</time>
      </trkpt>
      <trkpt lat="48.75047" lon="1.75809">
        <ele>227.6</ele>
        <time>2026-03-26T09:07:53.000Z</time>
      </trkpt>
      <trkpt lat="48.75047" lon="1.75807">
        <ele>227.3</ele>
        <time>2026-03-26T09:07:54.000Z</time>
      </trkpt>
      <trkpt lat="48.75047" lon="1.75805">
        <ele>227.1</ele>
        <time>2026-03-26T09:07:55.000Z</time>
      </trkpt>
      <trkpt lat="48.75047" lon="1.75803">
        <ele>227.2</ele>
        <time>2026-03-26T09:07:56.000Z</time>
      </trkpt>
      <trkpt lat="48.75047" lon="1.758">
        <ele>227.6</ele>
        <time>2026-03-26T09:07:57.000Z</time>
      </trkpt>
      <trkpt lat="48.75047" lon="1.75797">
        <ele>227.6</ele>
        <time>2026-03-26T09:07:58.000Z</time>
      </trkpt>
      <trkpt lat="48.75047" lon="1.75796">
        <ele>227.3</ele>
        <time>2026-03-26T09:07:59.000Z</time>
      </trkpt>
      <trkpt lat="48.75047" lon="1.75794">
        <ele>227</ele>
        <time>2026-03-26T09:08:00.000Z</time>
      </trkpt>
      <trkpt lat="48.75046" lon="1.75792">
        <ele>227</ele>
        <time>2026-03-26T09:08:01.000Z</time>
      </trkpt>
      <trkpt lat="48.75046" lon="1.75791">
        <ele>226.1</ele>
        <time>2026-03-26T09:08:02.000Z</time>
      </trkpt>
      <trkpt lat="48.75046" lon="1.7579">
        <ele>226.2</ele>
        <time>2026-03-26T09:08:03.000Z</time>
      </trkpt>
      <trkpt lat="48.75046" lon="1.75788">
        <ele>226.1</ele>
        <time>2026-03-26T09:08:04.000Z</time>
      </trkpt>
      <trkpt lat="48.75046" lon="1.75787">
        <ele>225.7</ele>
        <time>2026-03-26T09:08:05.000Z</time>
      </trkpt>
      <trkpt lat="48.75046" lon="1.75786">
        <ele>225.4</ele>
        <time>2026-03-26T09:08:06.000Z</time>
      </trkpt>
      <trkpt lat="48.75045" lon="1.75784">
        <ele>225.7</ele>
        <time>2026-03-26T09:08:07.000Z</time>
      </trkpt>
      <trkpt lat="48.75045" lon="1.75783">
        <ele>225.4</ele>
        <time>2026-03-26T09:08:08.000Z</time>
      </trkpt>
      <trkpt lat="48.75045" lon="1.75782">
        <ele>225.3</ele>
        <time>2026-03-26T09:08:09.000Z</time>
      </trkpt>
      <trkpt lat="48.75045" lon="1.75781">
        <ele>225.1</ele>
        <time>2026-03-26T09:08:10.000Z</time>
      </trkpt>
      <trkpt lat="48.75045" lon="1.7578">
        <ele>225.1</ele>
        <time>2026-03-26T09:08:11.000Z</time>
      </trkpt>
      <trkpt lat="48.75044" lon="1.75779">
        <ele>225.2</ele>
        <time>2026-03-26T09:08:12.000Z</time>
      </trkpt>
      <trkpt lat="48.75044" lon="1.75779">
        <ele>224.9</ele>
        <time>2026-03-26T09:08:13.000Z</time>
      </trkpt>
      <trkpt lat="48.75043" lon="1.75778">
        <ele>224.5</ele>
        <time>2026-03-26T09:08:14.000Z</time>
      </trkpt>
      <trkpt lat="48.75042" lon="1.75778">
        <ele>224.2</ele>
        <time>2026-03-26T09:08:15.000Z</time>
      </trkpt>
      <trkpt lat="48.75042" lon="1.75778">
        <ele>224</ele>
        <time>2026-03-26T09:08:16.000Z</time>
      </trkpt>
      <trkpt lat="48.75041" lon="1.75778">
        <ele>223.7</ele>
        <time>2026-03-26T09:08:17.000Z</time>
      </trkpt>
      <trkpt lat="48.7504" lon="1.75779">
        <ele>223.4</ele>
        <time>2026-03-26T09:08:18.000Z</time>
      </trkpt>
      <trkpt lat="48.7504" lon="1.75779">
        <ele>223</ele>
        <time>2026-03-26T09:08:19.000Z</time>
      </trkpt>
      <trkpt lat="48.75039" lon="1.7578">
        <ele>223</ele>
        <time>2026-03-26T09:08:20.000Z</time>
      </trkpt>
      <trkpt lat="48.75039" lon="1.7578">
        <ele>222.7</ele>
        <time>2026-03-26T09:08:21.000Z</time>
      </trkpt>
      <trkpt lat="48.75038" lon="1.75781">
        <ele>222.6</ele>
        <time>2026-03-26T09:08:22.000Z</time>
      </trkpt>
      <trkpt lat="48.75038" lon="1.75782">
        <ele>223.2</ele>
        <time>2026-03-26T09:08:23.000Z</time>
      </trkpt>
      <trkpt lat="48.75038" lon="1.75782">
        <ele>222.8</ele>
        <time>2026-03-26T09:08:24.000Z</time>
      </trkpt>
      <trkpt lat="48.75037" lon="1.75783">
        <ele>223.2</ele>
        <time>2026-03-26T09:08:25.000Z</time>
      </trkpt>
      <trkpt lat="48.75036" lon="1.75783">
        <ele>223.2</ele>
        <time>2026-03-26T09:08:26.000Z</time>
      </trkpt>
      <trkpt lat="48.75035" lon="1.75783">
        <ele>223.2</ele>
        <time>2026-03-26T09:08:27.000Z</time>
      </trkpt>
      <trkpt lat="48.75034" lon="1.75784">
        <ele>223.1</ele>
        <time>2026-03-26T09:08:28.000Z</time>
      </trkpt>
      <trkpt lat="48.75034" lon="1.75784">
        <ele>222.6</ele>
        <time>2026-03-26T09:08:29.000Z</time>
      </trkpt>
      <trkpt lat="48.75033" lon="1.75785">
        <ele>222.7</ele>
        <time>2026-03-26T09:08:30.000Z</time>
      </trkpt>
      <trkpt lat="48.75032" lon="1.75785">
        <ele>222</ele>
        <time>2026-03-26T09:08:31.000Z</time>
      </trkpt>
      <trkpt lat="48.75031" lon="1.75785">
        <ele>221.9</ele>
        <time>2026-03-26T09:08:32.000Z</time>
      </trkpt>
      <trkpt lat="48.7503" lon="1.75785">
        <ele>221</ele>
        <time>2026-03-26T09:08:33.000Z</time>
      </trkpt>
      <trkpt lat="48.75029" lon="1.75785">
        <ele>220.5</ele>
        <time>2026-03-26T09:08:34.000Z</time>
      </trkpt>
      <trkpt lat="48.75028" lon="1.75786">
        <ele>220.1</ele>
        <time>2026-03-26T09:08:35.000Z</time>
      </trkpt>
      <trkpt lat="48.75028" lon="1.75786">
        <ele>219.9</ele>
        <time>2026-03-26T09:08:36.000Z</time>
      </trkpt>
      <trkpt lat="48.75027" lon="1.75786">
        <ele>219.9</ele>
        <time>2026-03-26T09:08:37.000Z</time>
      </trkpt>
      <trkpt lat="48.75026" lon="1.75787">
        <ele>219.8</ele>
        <time>2026-03-26T09:08:38.000Z</time>
      </trkpt>
      <trkpt lat="48.75025" lon="1.75787">
        <ele>219.6</ele>
        <time>2026-03-26T09:08:39.000Z</time>
      </trkpt>
      <trkpt lat="48.75024" lon="1.75788">
        <ele>219.8</ele>
        <time>2026-03-26T09:08:40.000Z</time>
      </trkpt>
      <trkpt lat="48.75023" lon="1.75788">
        <ele>219.6</ele>
        <time>2026-03-26T09:08:41.000Z</time>
      </trkpt>
      <trkpt lat="48.75022" lon="1.75788">
        <ele>219.9</ele>
        <time>2026-03-26T09:08:42.000Z</time>
      </trkpt>
      <trkpt lat="48.75021" lon="1.75789">
        <ele>219.5</ele>
        <time>2026-03-26T09:08:43.000Z</time>
      </trkpt>
      <trkpt lat="48.7502" lon="1.75789">
        <ele>219.1</ele>
        <time>2026-03-26T09:08:44.000Z</time>
      </trkpt>
      <trkpt lat="48.75019" lon="1.75789">
        <ele>219.1</ele>
        <time>2026-03-26T09:08:45.000Z</time>
      </trkpt>
      <trkpt lat="48.75019" lon="1.75789">
        <ele>219.2</ele>
        <time>2026-03-26T09:08:46.000Z</time>
      </trkpt>
      <trkpt lat="48.75018" lon="1.7579">
        <ele>219.7</ele>
        <time>2026-03-26T09:08:47.000Z</time>
      </trkpt>
      <trkpt lat="48.75018" lon="1.7579">
        <ele>219.6</ele>
        <time>2026-03-26T09:08:48.000Z</time>
      </trkpt>
      <trkpt lat="48.75014" lon="1.75791">
        <ele>219.8</ele>
        <time>2026-03-26T09:08:49.000Z</time>
      </trkpt>
      <trkpt lat="48.75013" lon="1.75792">
        <ele>220.5</ele>
        <time>2026-03-26T09:08:50.000Z</time>
      </trkpt>
      <trkpt lat="48.75012" lon="1.75793">
        <ele>222</ele>
        <time>2026-03-26T09:08:51.000Z</time>
      </trkpt>
      <trkpt lat="48.75011" lon="1.75794">
        <ele>222.6</ele>
        <time>2026-03-26T09:08:52.000Z</time>
      </trkpt>
      <trkpt lat="48.7501" lon="1.75795">
        <ele>222.7</ele>
        <time>2026-03-26T09:08:53.000Z</time>
      </trkpt>
      <trkpt lat="48.75009" lon="1.75796">
        <ele>222.8</ele>
        <time>2026-03-26T09:08:54.000Z</time>
      </trkpt>
      <trkpt lat="48.75008" lon="1.75796">
        <ele>222.4</ele>
        <time>2026-03-26T09:08:55.000Z</time>
      </trkpt>
      <trkpt lat="48.75007" lon="1.75796">
        <ele>221.8</ele>
        <time>2026-03-26T09:08:56.000Z</time>
      </trkpt>
      <trkpt lat="48.75007" lon="1.75797">
        <ele>221.6</ele>
        <time>2026-03-26T09:08:57.000Z</time>
      </trkpt>
      <trkpt lat="48.75006" lon="1.75798">
        <ele>221.3</ele>
        <time>2026-03-26T09:08:58.000Z</time>
      </trkpt>
      <trkpt lat="48.75005" lon="1.75799">
        <ele>220.7</ele>
        <time>2026-03-26T09:08:59.000Z</time>
      </trkpt>
      <trkpt lat="48.75004" lon="1.75799">
        <ele>220.6</ele>
        <time>2026-03-26T09:09:00.000Z</time>
      </trkpt>
      <trkpt lat="48.75003" lon="1.758">
        <ele>220</ele>
        <time>2026-03-26T09:09:01.000Z</time>
      </trkpt>
      <trkpt lat="48.75002" lon="1.758">
        <ele>219.4</ele>
        <time>2026-03-26T09:09:02.000Z</time>
      </trkpt>
      <trkpt lat="48.75001" lon="1.75801">
        <ele>219.5</ele>
        <time>2026-03-26T09:09:03.000Z</time>
      </trkpt>
      <trkpt lat="48.75" lon="1.75801">
        <ele>219.8</ele>
        <time>2026-03-26T09:09:04.000Z</time>
      </trkpt>
      <trkpt lat="48.74999" lon="1.75801">
        <ele>219.6</ele>
        <time>2026-03-26T09:09:05.000Z</time>
      </trkpt>
      <trkpt lat="48.74998" lon="1.75802">
        <ele>219</ele>
        <time>2026-03-26T09:09:06.000Z</time>
      </trkpt>
      <trkpt lat="48.74997" lon="1.75802">
        <ele>218.9</ele>
        <time>2026-03-26T09:09:07.000Z</time>
      </trkpt>
      <trkpt lat="48.74996" lon="1.75803">
        <ele>218.6</ele>
        <time>2026-03-26T09:09:08.000Z</time>
      </trkpt>
      <trkpt lat="48.74995" lon="1.75804">
        <ele>218.9</ele>
        <time>2026-03-26T09:09:09.000Z</time>
      </trkpt>
      <trkpt lat="48.74994" lon="1.75804">
        <ele>219.2</ele>
        <time>2026-03-26T09:09:10.000Z</time>
      </trkpt>
      <trkpt lat="48.74992" lon="1.75804">
        <ele>219.1</ele>
        <time>2026-03-26T09:09:11.000Z</time>
      </trkpt>
      <trkpt lat="48.74991" lon="1.75805">
        <ele>219.4</ele>
        <time>2026-03-26T09:09:12.000Z</time>
      </trkpt>
      <trkpt lat="48.7499" lon="1.75805">
        <ele>220.1</ele>
        <time>2026-03-26T09:09:13.000Z</time>
      </trkpt>
      <trkpt lat="48.74989" lon="1.75806">
        <ele>220.3</ele>
        <time>2026-03-26T09:09:14.000Z</time>
      </trkpt>
      <trkpt lat="48.74987" lon="1.75806">
        <ele>220.5</ele>
        <time>2026-03-26T09:09:15.000Z</time>
      </trkpt>
      <trkpt lat="48.74986" lon="1.75807">
        <ele>221.1</ele>
        <time>2026-03-26T09:09:16.000Z</time>
      </trkpt>
      <trkpt lat="48.74985" lon="1.75807">
        <ele>221.4</ele>
        <time>2026-03-26T09:09:17.000Z</time>
      </trkpt>
      <trkpt lat="48.74984" lon="1.75807">
        <ele>220.3</ele>
        <time>2026-03-26T09:09:18.000Z</time>
      </trkpt>
      <trkpt lat="48.74983" lon="1.75807">
        <ele>219.8</ele>
        <time>2026-03-26T09:09:19.000Z</time>
      </trkpt>
      <trkpt lat="48.74981" lon="1.75807">
        <ele>219.6</ele>
        <time>2026-03-26T09:09:20.000Z</time>
      </trkpt>
      <trkpt lat="48.7498" lon="1.75808">
        <ele>218.8</ele>
        <time>2026-03-26T09:09:21.000Z</time>
      </trkpt>
      <trkpt lat="48.74979" lon="1.75809">
        <ele>218.7</ele>
        <time>2026-03-26T09:09:22.000Z</time>
      </trkpt>
      <trkpt lat="48.74978" lon="1.75809">
        <ele>218</ele>
        <time>2026-03-26T09:09:23.000Z</time>
      </trkpt>
      <trkpt lat="48.74977" lon="1.75809">
        <ele>217.4</ele>
        <time>2026-03-26T09:09:24.000Z</time>
      </trkpt>
      <trkpt lat="48.74975" lon="1.75809">
        <ele>217.6</ele>
        <time>2026-03-26T09:09:25.000Z</time>
      </trkpt>
      <trkpt lat="48.74974" lon="1.75809">
        <ele>217.7</ele>
        <time>2026-03-26T09:09:26.000Z</time>
      </trkpt>
      <trkpt lat="48.74973" lon="1.7581">
        <ele>217.7</ele>
        <time>2026-03-26T09:09:27.000Z</time>
      </trkpt>
      <trkpt lat="48.74972" lon="1.7581">
        <ele>218.2</ele>
        <time>2026-03-26T09:09:28.000Z</time>
      </trkpt>
      <trkpt lat="48.74971" lon="1.75811">
        <ele>217.8</ele>
        <time>2026-03-26T09:09:29.000Z</time>
      </trkpt>
      <trkpt lat="48.7497" lon="1.75812">
        <ele>217.5</ele>
        <time>2026-03-26T09:09:30.000Z</time>
      </trkpt>
      <trkpt lat="48.74969" lon="1.75812">
        <ele>218.1</ele>
        <time>2026-03-26T09:09:31.000Z</time>
      </trkpt>
      <trkpt lat="48.74968" lon="1.75814">
        <ele>218.3</ele>
        <time>2026-03-26T09:09:32.000Z</time>
      </trkpt>
      <trkpt lat="48.74968" lon="1.75815">
        <ele>218.6</ele>
        <time>2026-03-26T09:09:33.000Z</time>
      </trkpt>
      <trkpt lat="48.74967" lon="1.75816">
        <ele>219</ele>
        <time>2026-03-26T09:09:34.000Z</time>
      </trkpt>
      <trkpt lat="48.74966" lon="1.75817">
        <ele>218.6</ele>
        <time>2026-03-26T09:09:35.000Z</time>
      </trkpt>
      <trkpt lat="48.74965" lon="1.75817">
        <ele>218.1</ele>
        <time>2026-03-26T09:09:36.000Z</time>
      </trkpt>
      <trkpt lat="48.74964" lon="1.75817">
        <ele>217.4</ele>
        <time>2026-03-26T09:09:37.000Z</time>
      </trkpt>
      <trkpt lat="48.74963" lon="1.75817">
        <ele>216.7</ele>
        <time>2026-03-26T09:09:38.000Z</time>
      </trkpt>
      <trkpt lat="48.74962" lon="1.75816">
        <ele>216.2</ele>
        <time>2026-03-26T09:09:39.000Z</time>
      </trkpt>
      <trkpt lat="48.74961" lon="1.75816">
        <ele>216</ele>
        <time>2026-03-26T09:09:40.000Z</time>
      </trkpt>
      <trkpt lat="48.7496" lon="1.75816">
        <ele>215.4</ele>
        <time>2026-03-26T09:09:41.000Z</time>
      </trkpt>
      <trkpt lat="48.74959" lon="1.75816">
        <ele>215.6</ele>
        <time>2026-03-26T09:09:42.000Z</time>
      </trkpt>
      <trkpt lat="48.74957" lon="1.75817">
        <ele>215.8</ele>
        <time>2026-03-26T09:09:43.000Z</time>
      </trkpt>
      <trkpt lat="48.74956" lon="1.75816">
        <ele>215.1</ele>
        <time>2026-03-26T09:09:44.000Z</time>
      </trkpt>
      <trkpt lat="48.74955" lon="1.75816">
        <ele>214.9</ele>
        <time>2026-03-26T09:09:45.000Z</time>
      </trkpt>
      <trkpt lat="48.74954" lon="1.75815">
        <ele>216</ele>
        <time>2026-03-26T09:09:46.000Z</time>
      </trkpt>
      <trkpt lat="48.74952" lon="1.75815">
        <ele>217.6</ele>
        <time>2026-03-26T09:09:47.000Z</time>
      </trkpt>
      <trkpt lat="48.74951" lon="1.75814">
        <ele>218.3</ele>
        <time>2026-03-26T09:09:48.000Z</time>
      </trkpt>
      <trkpt lat="48.7495" lon="1.75814">
        <ele>216.3</ele>
        <time>2026-03-26T09:09:49.000Z</time>
      </trkpt>
      <trkpt lat="48.7495" lon="1.75814">
        <ele>215.5</ele>
        <time>2026-03-26T09:09:50.000Z</time>
      </trkpt>
      <trkpt lat="48.74949" lon="1.75814">
        <ele>214.8</ele>
        <time>2026-03-26T09:09:51.000Z</time>
      </trkpt>
      <trkpt lat="48.74947" lon="1.75814">
        <ele>214.3</ele>
        <time>2026-03-26T09:09:52.000Z</time>
      </trkpt>
      <trkpt lat="48.74946" lon="1.75814">
        <ele>214.6</ele>
        <time>2026-03-26T09:09:53.000Z</time>
      </trkpt>
      <trkpt lat="48.74945" lon="1.75814">
        <ele>214.4</ele>
        <time>2026-03-26T09:09:54.000Z</time>
      </trkpt>
      <trkpt lat="48.74944" lon="1.75814">
        <ele>214.7</ele>
        <time>2026-03-26T09:09:55.000Z</time>
      </trkpt>
      <trkpt lat="48.74942" lon="1.75815">
        <ele>214.8</ele>
        <time>2026-03-26T09:09:56.000Z</time>
      </trkpt>
      <trkpt lat="48.74941" lon="1.75816">
        <ele>215.1</ele>
        <time>2026-03-26T09:09:57.000Z</time>
      </trkpt>
      <trkpt lat="48.74941" lon="1.75816">
        <ele>214.6</ele>
        <time>2026-03-26T09:09:58.000Z</time>
      </trkpt>
      <trkpt lat="48.7494" lon="1.75815">
        <ele>214.6</ele>
        <time>2026-03-26T09:09:59.000Z</time>
      </trkpt>
      <trkpt lat="48.74939" lon="1.75815">
        <ele>213.9</ele>
        <time>2026-03-26T09:10:00.000Z</time>
      </trkpt>
      <trkpt lat="48.74938" lon="1.75815">
        <ele>213.4</ele>
        <time>2026-03-26T09:10:01.000Z</time>
      </trkpt>
      <trkpt lat="48.74937" lon="1.75815">
        <ele>213.3</ele>
        <time>2026-03-26T09:10:02.000Z</time>
      </trkpt>
      <trkpt lat="48.74936" lon="1.75815">
        <ele>212.8</ele>
        <time>2026-03-26T09:10:03.000Z</time>
      </trkpt>
      <trkpt lat="48.74935" lon="1.75815">
        <ele>212.5</ele>
        <time>2026-03-26T09:10:04.000Z</time>
      </trkpt>
      <trkpt lat="48.74934" lon="1.75815">
        <ele>212.3</ele>
        <time>2026-03-26T09:10:05.000Z</time>
      </trkpt>
      <trkpt lat="48.74933" lon="1.75815">
        <ele>212</ele>
        <time>2026-03-26T09:10:06.000Z</time>
      </trkpt>
      <trkpt lat="48.74933" lon="1.75815">
        <ele>212.3</ele>
        <time>2026-03-26T09:10:07.000Z</time>
      </trkpt>
      <trkpt lat="48.74932" lon="1.75815">
        <ele>212.4</ele>
        <time>2026-03-26T09:10:08.000Z</time>
      </trkpt>
      <trkpt lat="48.74931" lon="1.75815">
        <ele>212.3</ele>
        <time>2026-03-26T09:10:09.000Z</time>
      </trkpt>
      <trkpt lat="48.7493" lon="1.75815">
        <ele>212.2</ele>
        <time>2026-03-26T09:10:10.000Z</time>
      </trkpt>
      <trkpt lat="48.74929" lon="1.75816">
        <ele>211.9</ele>
        <time>2026-03-26T09:10:11.000Z</time>
      </trkpt>
      <trkpt lat="48.74927" lon="1.75816">
        <ele>211.9</ele>
        <time>2026-03-26T09:10:12.000Z</time>
      </trkpt>
      <trkpt lat="48.74926" lon="1.75816">
        <ele>211.3</ele>
        <time>2026-03-26T09:10:13.000Z</time>
      </trkpt>
      <trkpt lat="48.74925" lon="1.75816">
        <ele>210.8</ele>
        <time>2026-03-26T09:10:14.000Z</time>
      </trkpt>
      <trkpt lat="48.74924" lon="1.75816">
        <ele>210.8</ele>
        <time>2026-03-26T09:10:15.000Z</time>
      </trkpt>
      <trkpt lat="48.74923" lon="1.75816">
        <ele>210.3</ele>
        <time>2026-03-26T09:10:16.000Z</time>
      </trkpt>
      <trkpt lat="48.74922" lon="1.75816">
        <ele>210.2</ele>
        <time>2026-03-26T09:10:17.000Z</time>
      </trkpt>
      <trkpt lat="48.74921" lon="1.75816">
        <ele>210.2</ele>
        <time>2026-03-26T09:10:18.000Z</time>
      </trkpt>
      <trkpt lat="48.7492" lon="1.75815">
        <ele>209.6</ele>
        <time>2026-03-26T09:10:19.000Z</time>
      </trkpt>
      <trkpt lat="48.74919" lon="1.75815">
        <ele>209.8</ele>
        <time>2026-03-26T09:10:20.000Z</time>
      </trkpt>
      <trkpt lat="48.74918" lon="1.75815">
        <ele>209.1</ele>
        <time>2026-03-26T09:10:21.000Z</time>
      </trkpt>
      <trkpt lat="48.74917" lon="1.75815">
        <ele>208.6</ele>
        <time>2026-03-26T09:10:22.000Z</time>
      </trkpt>
      <trkpt lat="48.74916" lon="1.75815">
        <ele>208.1</ele>
        <time>2026-03-26T09:10:23.000Z</time>
      </trkpt>
      <trkpt lat="48.74915" lon="1.75814">
        <ele>207.8</ele>
        <time>2026-03-26T09:10:24.000Z</time>
      </trkpt>
      <trkpt lat="48.74914" lon="1.75813">
        <ele>207.5</ele>
        <time>2026-03-26T09:10:25.000Z</time>
      </trkpt>
      <trkpt lat="48.74913" lon="1.75813">
        <ele>208</ele>
        <time>2026-03-26T09:10:26.000Z</time>
      </trkpt>
      <trkpt lat="48.74912" lon="1.75813">
        <ele>207.3</ele>
        <time>2026-03-26T09:10:27.000Z</time>
      </trkpt>
      <trkpt lat="48.74911" lon="1.75813">
        <ele>207.3</ele>
        <time>2026-03-26T09:10:28.000Z</time>
      </trkpt>
      <trkpt lat="48.7491" lon="1.75812">
        <ele>206.7</ele>
        <time>2026-03-26T09:10:29.000Z</time>
      </trkpt>
      <trkpt lat="48.74909" lon="1.75812">
        <ele>206.3</ele>
        <time>2026-03-26T09:10:30.000Z</time>
      </trkpt>
      <trkpt lat="48.74908" lon="1.75812">
        <ele>205.4</ele>
        <time>2026-03-26T09:10:31.000Z</time>
      </trkpt>
      <trkpt lat="48.74906" lon="1.75812">
        <ele>204.8</ele>
        <time>2026-03-26T09:10:32.000Z</time>
      </trkpt>
      <trkpt lat="48.74905" lon="1.75812">
        <ele>204.3</ele>
        <time>2026-03-26T09:10:33.000Z</time>
      </trkpt>
      <trkpt lat="48.74904" lon="1.75812">
        <ele>203.9</ele>
        <time>2026-03-26T09:10:34.000Z</time>
      </trkpt>
      <trkpt lat="48.74903" lon="1.75812">
        <ele>204.3</ele>
        <time>2026-03-26T09:10:35.000Z</time>
      </trkpt>
      <trkpt lat="48.74902" lon="1.75812">
        <ele>203.5</ele>
        <time>2026-03-26T09:10:36.000Z</time>
      </trkpt>
      <trkpt lat="48.74901" lon="1.75812">
        <ele>202.9</ele>
        <time>2026-03-26T09:10:37.000Z</time>
      </trkpt>
      <trkpt lat="48.749" lon="1.75812">
        <ele>203.6</ele>
        <time>2026-03-26T09:10:38.000Z</time>
      </trkpt>
      <trkpt lat="48.74899" lon="1.75812">
        <ele>203.6</ele>
        <time>2026-03-26T09:10:39.000Z</time>
      </trkpt>
      <trkpt lat="48.74898" lon="1.75812">
        <ele>203.4</ele>
        <time>2026-03-26T09:10:40.000Z</time>
      </trkpt>
      <trkpt lat="48.74897" lon="1.75811">
        <ele>202.7</ele>
        <time>2026-03-26T09:10:41.000Z</time>
      </trkpt>
      <trkpt lat="48.74896" lon="1.7581">
        <ele>202.8</ele>
        <time>2026-03-26T09:10:42.000Z</time>
      </trkpt>
      <trkpt lat="48.74896" lon="1.75808">
        <ele>204.8</ele>
        <time>2026-03-26T09:10:43.000Z</time>
      </trkpt>
      <trkpt lat="48.74895" lon="1.75806">
        <ele>205.3</ele>
        <time>2026-03-26T09:10:44.000Z</time>
      </trkpt>
      <trkpt lat="48.74895" lon="1.75805">
        <ele>205.2</ele>
        <time>2026-03-26T09:10:45.000Z</time>
      </trkpt>
      <trkpt lat="48.74894" lon="1.75805">
        <ele>205</ele>
        <time>2026-03-26T09:10:46.000Z</time>
      </trkpt>
      <trkpt lat="48.74893" lon="1.75804">
        <ele>204</ele>
        <time>2026-03-26T09:10:47.000Z</time>
      </trkpt>
      <trkpt lat="48.74892" lon="1.75804">
        <ele>203.4</ele>
        <time>2026-03-26T09:10:48.000Z</time>
      </trkpt>
      <trkpt lat="48.74892" lon="1.75803">
        <ele>202.7</ele>
        <time>2026-03-26T09:10:49.000Z</time>
      </trkpt>
      <trkpt lat="48.74891" lon="1.75803">
        <ele>202</ele>
        <time>2026-03-26T09:10:50.000Z</time>
      </trkpt>
      <trkpt lat="48.7489" lon="1.75802">
        <ele>201.5</ele>
        <time>2026-03-26T09:10:51.000Z</time>
      </trkpt>
      <trkpt lat="48.74889" lon="1.75802">
        <ele>200.9</ele>
        <time>2026-03-26T09:10:52.000Z</time>
      </trkpt>
      <trkpt lat="48.74888" lon="1.75802">
        <ele>200.7</ele>
        <time>2026-03-26T09:10:53.000Z</time>
      </trkpt>
      <trkpt lat="48.74887" lon="1.75801">
        <ele>200.1</ele>
        <time>2026-03-26T09:10:54.000Z</time>
      </trkpt>
      <trkpt lat="48.74886" lon="1.758">
        <ele>199.8</ele>
        <time>2026-03-26T09:10:55.000Z</time>
      </trkpt>
      <trkpt lat="48.74885" lon="1.75799">
        <ele>199.6</ele>
        <time>2026-03-26T09:10:56.000Z</time>
      </trkpt>
      <trkpt lat="48.74884" lon="1.75798">
        <ele>198.8</ele>
        <time>2026-03-26T09:10:57.000Z</time>
      </trkpt>
      <trkpt lat="48.74883" lon="1.75798">
        <ele>198.8</ele>
        <time>2026-03-26T09:10:58.000Z</time>
      </trkpt>
      <trkpt lat="48.74882" lon="1.75797">
        <ele>199.4</ele>
        <time>2026-03-26T09:10:59.000Z</time>
      </trkpt>
      <trkpt lat="48.74881" lon="1.75797">
        <ele>199.1</ele>
        <time>2026-03-26T09:11:00.000Z</time>
      </trkpt>
      <trkpt lat="48.7488" lon="1.75796">
        <ele>199.6</ele>
        <time>2026-03-26T09:11:01.000Z</time>
      </trkpt>
      <trkpt lat="48.74879" lon="1.75796">
        <ele>199.9</ele>
        <time>2026-03-26T09:11:02.000Z</time>
      </trkpt>
      <trkpt lat="48.74878" lon="1.75796">
        <ele>200.4</ele>
        <time>2026-03-26T09:11:03.000Z</time>
      </trkpt>
      <trkpt lat="48.74877" lon="1.75796">
        <ele>200.4</ele>
        <time>2026-03-26T09:11:04.000Z</time>
      </trkpt>
      <trkpt lat="48.74877" lon="1.75794">
        <ele>200.2</ele>
        <time>2026-03-26T09:11:05.000Z</time>
      </trkpt>
      <trkpt lat="48.74876" lon="1.75793">
        <ele>200.4</ele>
        <time>2026-03-26T09:11:06.000Z</time>
      </trkpt>
      <trkpt lat="48.74876" lon="1.75792">
        <ele>200.1</ele>
        <time>2026-03-26T09:11:07.000Z</time>
      </trkpt>
      <trkpt lat="48.74875" lon="1.75791">
        <ele>200.8</ele>
        <time>2026-03-26T09:11:08.000Z</time>
      </trkpt>
      <trkpt lat="48.74874" lon="1.7579">
        <ele>200.2</ele>
        <time>2026-03-26T09:11:09.000Z</time>
      </trkpt>
      <trkpt lat="48.74874" lon="1.75789">
        <ele>200.6</ele>
        <time>2026-03-26T09:11:10.000Z</time>
      </trkpt>
      <trkpt lat="48.74873" lon="1.75789">
        <ele>199.1</ele>
        <time>2026-03-26T09:11:11.000Z</time>
      </trkpt>
      <trkpt lat="48.74872" lon="1.75788">
        <ele>199</ele>
        <time>2026-03-26T09:11:12.000Z</time>
      </trkpt>
      <trkpt lat="48.74872" lon="1.75787">
        <ele>198.9</ele>
        <time>2026-03-26T09:11:13.000Z</time>
      </trkpt>
      <trkpt lat="48.74871" lon="1.75787">
        <ele>198.4</ele>
        <time>2026-03-26T09:11:14.000Z</time>
      </trkpt>
      <trkpt lat="48.7487" lon="1.75786">
        <ele>197.5</ele>
        <time>2026-03-26T09:11:15.000Z</time>
      </trkpt>
      <trkpt lat="48.74869" lon="1.75785">
        <ele>197.8</ele>
        <time>2026-03-26T09:11:16.000Z</time>
      </trkpt>
      <trkpt lat="48.74868" lon="1.75784">
        <ele>196.8</ele>
        <time>2026-03-26T09:11:17.000Z</time>
      </trkpt>
      <trkpt lat="48.74867" lon="1.75783">
        <ele>197.9</ele>
        <time>2026-03-26T09:11:18.000Z</time>
      </trkpt>
      <trkpt lat="48.74867" lon="1.75781">
        <ele>198</ele>
        <time>2026-03-26T09:11:19.000Z</time>
      </trkpt>
      <trkpt lat="48.74866" lon="1.7578">
        <ele>197.3</ele>
        <time>2026-03-26T09:11:20.000Z</time>
      </trkpt>
      <trkpt lat="48.74866" lon="1.75779">
        <ele>195.9</ele>
        <time>2026-03-26T09:11:21.000Z</time>
      </trkpt>
      <trkpt lat="48.74865" lon="1.75777">
        <ele>195.4</ele>
        <time>2026-03-26T09:11:22.000Z</time>
      </trkpt>
      <trkpt lat="48.74864" lon="1.75777">
        <ele>195.2</ele>
        <time>2026-03-26T09:11:23.000Z</time>
      </trkpt>
      <trkpt lat="48.74863" lon="1.75776">
        <ele>195</ele>
        <time>2026-03-26T09:11:24.000Z</time>
      </trkpt>
      <trkpt lat="48.74862" lon="1.75775">
        <ele>194.6</ele>
        <time>2026-03-26T09:11:25.000Z</time>
      </trkpt>
      <trkpt lat="48.7486" lon="1.75774">
        <ele>194.2</ele>
        <time>2026-03-26T09:11:26.000Z</time>
      </trkpt>
      <trkpt lat="48.74859" lon="1.75774">
        <ele>194.1</ele>
        <time>2026-03-26T09:11:27.000Z</time>
      </trkpt>
      <trkpt lat="48.74857" lon="1.75773">
        <ele>193.8</ele>
        <time>2026-03-26T09:11:28.000Z</time>
      </trkpt>
      <trkpt lat="48.74856" lon="1.75772">
        <ele>194</ele>
        <time>2026-03-26T09:11:29.000Z</time>
      </trkpt>
      <trkpt lat="48.74854" lon="1.75771">
        <ele>193.9</ele>
        <time>2026-03-26T09:11:30.000Z</time>
      </trkpt>
      <trkpt lat="48.74853" lon="1.75771">
        <ele>193.9</ele>
        <time>2026-03-26T09:11:31.000Z</time>
      </trkpt>
      <trkpt lat="48.74852" lon="1.7577">
        <ele>194</ele>
        <time>2026-03-26T09:11:32.000Z</time>
      </trkpt>
      <trkpt lat="48.7485" lon="1.7577">
        <ele>194.4</ele>
        <time>2026-03-26T09:11:33.000Z</time>
      </trkpt>
      <trkpt lat="48.74849" lon="1.75769">
        <ele>194.5</ele>
        <time>2026-03-26T09:11:34.000Z</time>
      </trkpt>
      <trkpt lat="48.74848" lon="1.75769">
        <ele>195</ele>
        <time>2026-03-26T09:11:35.000Z</time>
      </trkpt>
      <trkpt lat="48.74846" lon="1.75769">
        <ele>195</ele>
        <time>2026-03-26T09:11:36.000Z</time>
      </trkpt>
      <trkpt lat="48.74845" lon="1.75769">
        <ele>194.3</ele>
        <time>2026-03-26T09:11:37.000Z</time>
      </trkpt>
      <trkpt lat="48.74844" lon="1.75769">
        <ele>194.8</ele>
        <time>2026-03-26T09:11:38.000Z</time>
      </trkpt>
      <trkpt lat="48.74843" lon="1.75768">
        <ele>194.8</ele>
        <time>2026-03-26T09:11:39.000Z</time>
      </trkpt>
      <trkpt lat="48.74843" lon="1.75767">
        <ele>193.9</ele>
        <time>2026-03-26T09:11:40.000Z</time>
      </trkpt>
      <trkpt lat="48.74841" lon="1.75768">
        <ele>193.7</ele>
        <time>2026-03-26T09:11:41.000Z</time>
      </trkpt>
      <trkpt lat="48.7484" lon="1.75768">
        <ele>194</ele>
        <time>2026-03-26T09:11:42.000Z</time>
      </trkpt>
      <trkpt lat="48.74839" lon="1.75768">
        <ele>194.1</ele>
        <time>2026-03-26T09:11:43.000Z</time>
      </trkpt>
      <trkpt lat="48.74838" lon="1.75768">
        <ele>194.5</ele>
        <time>2026-03-26T09:11:44.000Z</time>
      </trkpt>
      <trkpt lat="48.74837" lon="1.75768">
        <ele>195.3</ele>
        <time>2026-03-26T09:11:45.000Z</time>
      </trkpt>
      <trkpt lat="48.74835" lon="1.75768">
        <ele>195.9</ele>
        <time>2026-03-26T09:11:46.000Z</time>
      </trkpt>
      <trkpt lat="48.74834" lon="1.75768">
        <ele>195.7</ele>
        <time>2026-03-26T09:11:47.000Z</time>
      </trkpt>
      <trkpt lat="48.74833" lon="1.75768">
        <ele>195.8</ele>
        <time>2026-03-26T09:11:48.000Z</time>
      </trkpt>
      <trkpt lat="48.74832" lon="1.75769">
        <ele>195.8</ele>
        <time>2026-03-26T09:11:49.000Z</time>
      </trkpt>
      <trkpt lat="48.74831" lon="1.75769">
        <ele>195.1</ele>
        <time>2026-03-26T09:11:50.000Z</time>
      </trkpt>
      <trkpt lat="48.7483" lon="1.75769">
        <ele>195.3</ele>
        <time>2026-03-26T09:11:51.000Z</time>
      </trkpt>
      <trkpt lat="48.74829" lon="1.7577">
        <ele>194.8</ele>
        <time>2026-03-26T09:11:52.000Z</time>
      </trkpt>
      <trkpt lat="48.74828" lon="1.7577">
        <ele>194.6</ele>
        <time>2026-03-26T09:11:53.000Z</time>
      </trkpt>
      <trkpt lat="48.74826" lon="1.75771">
        <ele>195.1</ele>
        <time>2026-03-26T09:11:54.000Z</time>
      </trkpt>
      <trkpt lat="48.74825" lon="1.75771">
        <ele>195</ele>
        <time>2026-03-26T09:11:55.000Z</time>
      </trkpt>
      <trkpt lat="48.74825" lon="1.75772">
        <ele>194.4</ele>
        <time>2026-03-26T09:11:56.000Z</time>
      </trkpt>
      <trkpt lat="48.74824" lon="1.75772">
        <ele>194.2</ele>
        <time>2026-03-26T09:11:57.000Z</time>
      </trkpt>
      <trkpt lat="48.74822" lon="1.75772">
        <ele>192.9</ele>
        <time>2026-03-26T09:11:58.000Z</time>
      </trkpt>
      <trkpt lat="48.74821" lon="1.75772">
        <ele>192.4</ele>
        <time>2026-03-26T09:11:59.000Z</time>
      </trkpt>
      <trkpt lat="48.7482" lon="1.75773">
        <ele>193.5</ele>
        <time>2026-03-26T09:12:00.000Z</time>
      </trkpt>
      <trkpt lat="48.74819" lon="1.75774">
        <ele>192.8</ele>
        <time>2026-03-26T09:12:01.000Z</time>
      </trkpt>
      <trkpt lat="48.74817" lon="1.75774">
        <ele>192</ele>
        <time>2026-03-26T09:12:02.000Z</time>
      </trkpt>
      <trkpt lat="48.74816" lon="1.75775">
        <ele>191.7</ele>
        <time>2026-03-26T09:12:03.000Z</time>
      </trkpt>
      <trkpt lat="48.74815" lon="1.75776">
        <ele>191.2</ele>
        <time>2026-03-26T09:12:04.000Z</time>
      </trkpt>
      <trkpt lat="48.74814" lon="1.75776">
        <ele>191.9</ele>
        <time>2026-03-26T09:12:05.000Z</time>
      </trkpt>
      <trkpt lat="48.74813" lon="1.75777">
        <ele>192.1</ele>
        <time>2026-03-26T09:12:06.000Z</time>
      </trkpt>
      <trkpt lat="48.74811" lon="1.75776">
        <ele>191.6</ele>
        <time>2026-03-26T09:12:07.000Z</time>
      </trkpt>
      <trkpt lat="48.7481" lon="1.75776">
        <ele>191.3</ele>
        <time>2026-03-26T09:12:08.000Z</time>
      </trkpt>
      <trkpt lat="48.74809" lon="1.75777">
        <ele>191.7</ele>
        <time>2026-03-26T09:12:09.000Z</time>
      </trkpt>
      <trkpt lat="48.74808" lon="1.75777">
        <ele>191.7</ele>
        <time>2026-03-26T09:12:10.000Z</time>
      </trkpt>
      <trkpt lat="48.74807" lon="1.75778">
        <ele>191.4</ele>
        <time>2026-03-26T09:12:11.000Z</time>
      </trkpt>
      <trkpt lat="48.74806" lon="1.75779">
        <ele>191.4</ele>
        <time>2026-03-26T09:12:12.000Z</time>
      </trkpt>
      <trkpt lat="48.74805" lon="1.75779">
        <ele>191.3</ele>
        <time>2026-03-26T09:12:13.000Z</time>
      </trkpt>
      <trkpt lat="48.74804" lon="1.75779">
        <ele>191.5</ele>
        <time>2026-03-26T09:12:14.000Z</time>
      </trkpt>
      <trkpt lat="48.74803" lon="1.75779">
        <ele>192.1</ele>
        <time>2026-03-26T09:12:15.000Z</time>
      </trkpt>
      <trkpt lat="48.74802" lon="1.75779">
        <ele>192.2</ele>
        <time>2026-03-26T09:12:16.000Z</time>
      </trkpt>
      <trkpt lat="48.748" lon="1.75779">
        <ele>192.2</ele>
        <time>2026-03-26T09:12:17.000Z</time>
      </trkpt>
      <trkpt lat="48.74799" lon="1.75779">
        <ele>191.8</ele>
        <time>2026-03-26T09:12:18.000Z</time>
      </trkpt>
      <trkpt lat="48.74798" lon="1.75778">
        <ele>190.7</ele>
        <time>2026-03-26T09:12:19.000Z</time>
      </trkpt>
      <trkpt lat="48.74797" lon="1.75778">
        <ele>190.4</ele>
        <time>2026-03-26T09:12:20.000Z</time>
      </trkpt>
      <trkpt lat="48.74795" lon="1.75777">
        <ele>190.8</ele>
        <time>2026-03-26T09:12:21.000Z</time>
      </trkpt>
      <trkpt lat="48.74794" lon="1.75777">
        <ele>191</ele>
        <time>2026-03-26T09:12:22.000Z</time>
      </trkpt>
      <trkpt lat="48.74793" lon="1.75776">
        <ele>190.8</ele>
        <time>2026-03-26T09:12:23.000Z</time>
      </trkpt>
      <trkpt lat="48.74792" lon="1.75776">
        <ele>190.8</ele>
        <time>2026-03-26T09:12:24.000Z</time>
      </trkpt>
      <trkpt lat="48.74791" lon="1.75777">
        <ele>190.6</ele>
        <time>2026-03-26T09:12:25.000Z</time>
      </trkpt>
      <trkpt lat="48.74789" lon="1.75776">
        <ele>190.4</ele>
        <time>2026-03-26T09:12:26.000Z</time>
      </trkpt>
      <trkpt lat="48.74788" lon="1.75777">
        <ele>189.7</ele>
        <time>2026-03-26T09:12:27.000Z</time>
      </trkpt>
      <trkpt lat="48.74787" lon="1.75777">
        <ele>189.4</ele>
        <time>2026-03-26T09:12:28.000Z</time>
      </trkpt>
      <trkpt lat="48.74786" lon="1.75777">
        <ele>189.5</ele>
        <time>2026-03-26T09:12:29.000Z</time>
      </trkpt>
      <trkpt lat="48.74784" lon="1.75778">
        <ele>189.2</ele>
        <time>2026-03-26T09:12:30.000Z</time>
      </trkpt>
      <trkpt lat="48.74783" lon="1.75778">
        <ele>189.2</ele>
        <time>2026-03-26T09:12:31.000Z</time>
      </trkpt>
      <trkpt lat="48.74782" lon="1.75778">
        <ele>189.3</ele>
        <time>2026-03-26T09:12:32.000Z</time>
      </trkpt>
      <trkpt lat="48.74781" lon="1.75778">
        <ele>188.8</ele>
        <time>2026-03-26T09:12:33.000Z</time>
      </trkpt>
      <trkpt lat="48.7478" lon="1.75778">
        <ele>188.4</ele>
        <time>2026-03-26T09:12:34.000Z</time>
      </trkpt>
      <trkpt lat="48.74779" lon="1.75779">
        <ele>188.1</ele>
        <time>2026-03-26T09:12:35.000Z</time>
      </trkpt>
      <trkpt lat="48.74778" lon="1.75779">
        <ele>188</ele>
        <time>2026-03-26T09:12:36.000Z</time>
      </trkpt>
      <trkpt lat="48.74777" lon="1.7578">
        <ele>188</ele>
        <time>2026-03-26T09:12:37.000Z</time>
      </trkpt>
      <trkpt lat="48.74776" lon="1.7578">
        <ele>187.6</ele>
        <time>2026-03-26T09:12:38.000Z</time>
      </trkpt>
      <trkpt lat="48.74775" lon="1.75781">
        <ele>187.7</ele>
        <time>2026-03-26T09:12:39.000Z</time>
      </trkpt>
      <trkpt lat="48.74773" lon="1.75781">
        <ele>187.5</ele>
        <time>2026-03-26T09:12:40.000Z</time>
      </trkpt>
      <trkpt lat="48.74772" lon="1.75781">
        <ele>187.2</ele>
        <time>2026-03-26T09:12:41.000Z</time>
      </trkpt>
      <trkpt lat="48.74771" lon="1.75782">
        <ele>187.2</ele>
        <time>2026-03-26T09:12:42.000Z</time>
      </trkpt>
      <trkpt lat="48.7477" lon="1.75781">
        <ele>187</ele>
        <time>2026-03-26T09:12:43.000Z</time>
      </trkpt>
      <trkpt lat="48.74769" lon="1.75782">
        <ele>187.9</ele>
        <time>2026-03-26T09:12:44.000Z</time>
      </trkpt>
      <trkpt lat="48.74768" lon="1.75782">
        <ele>187.7</ele>
        <time>2026-03-26T09:12:45.000Z</time>
      </trkpt>
      <trkpt lat="48.74767" lon="1.75783">
        <ele>187.5</ele>
        <time>2026-03-26T09:12:46.000Z</time>
      </trkpt>
      <trkpt lat="48.74766" lon="1.75784">
        <ele>187.6</ele>
        <time>2026-03-26T09:12:47.000Z</time>
      </trkpt>
      <trkpt lat="48.74764" lon="1.75784">
        <ele>187.8</ele>
        <time>2026-03-26T09:12:48.000Z</time>
      </trkpt>
      <trkpt lat="48.74763" lon="1.75784">
        <ele>187.6</ele>
        <time>2026-03-26T09:12:49.000Z</time>
      </trkpt>
      <trkpt lat="48.74762" lon="1.75785">
        <ele>188.4</ele>
        <time>2026-03-26T09:12:50.000Z</time>
      </trkpt>
      <trkpt lat="48.74762" lon="1.75787">
        <ele>189.5</ele>
        <time>2026-03-26T09:12:51.000Z</time>
      </trkpt>
      <trkpt lat="48.74762" lon="1.75789">
        <ele>188.8</ele>
        <time>2026-03-26T09:12:52.000Z</time>
      </trkpt>
      <trkpt lat="48.74762" lon="1.7579">
        <ele>189.3</ele>
        <time>2026-03-26T09:12:53.000Z</time>
      </trkpt>
      <trkpt lat="48.74761" lon="1.7579">
        <ele>189.2</ele>
        <time>2026-03-26T09:12:54.000Z</time>
      </trkpt>
      <trkpt lat="48.74761" lon="1.75789">
        <ele>188.4</ele>
        <time>2026-03-26T09:12:55.000Z</time>
      </trkpt>
      <trkpt lat="48.74762" lon="1.75788">
        <ele>188.4</ele>
        <time>2026-03-26T09:12:56.000Z</time>
      </trkpt>
      <trkpt lat="48.74762" lon="1.75788">
        <ele>188.4</ele>
        <time>2026-03-26T09:12:57.000Z</time>
      </trkpt>
      <trkpt lat="48.74762" lon="1.75788">
        <ele>188.4</ele>
        <time>2026-03-26T09:12:58.000Z</time>
      </trkpt>
      <trkpt lat="48.74762" lon="1.75788">
        <ele>188.4</ele>
        <time>2026-03-26T09:12:59.000Z</time>
      </trkpt>
      <trkpt lat="48.74762" lon="1.75788">
        <ele>188.4</ele>
        <time>2026-03-26T09:13:00.000Z</time>
      </trkpt>
      <trkpt lat="48.74762" lon="1.75788">
        <ele>188.4</ele>
        <time>2026-03-26T09:13:01.000Z</time>
      </trkpt>
      <trkpt lat="48.74762" lon="1.75788">
        <ele>188.4</ele>
        <time>2026-03-26T09:13:02.000Z</time>
      </trkpt>
      <trkpt lat="48.74762" lon="1.75788">
        <ele>188.4</ele>
        <time>2026-03-26T09:13:03.000Z</time>
      </trkpt>
      <trkpt lat="48.74762" lon="1.75788">
        <ele>188.4</ele>
        <time>2026-03-26T09:13:04.000Z</time>
      </trkpt>
      <trkpt lat="48.74762" lon="1.75788">
        <ele>188.4</ele>
        <time>2026-03-26T09:13:05.000Z</time>
      </trkpt>
      <trkpt lat="48.74762" lon="1.75788">
        <ele>188.4</ele>
        <time>2026-03-26T09:13:06.000Z</time>
      </trkpt>
      <trkpt lat="48.74762" lon="1.75788">
        <ele>188.4</ele>
        <time>2026-03-26T09:13:07.000Z</time>
      </trkpt>
      <trkpt lat="48.74762" lon="1.75788">
        <ele>188.4</ele>
        <time>2026-03-26T09:13:08.000Z</time>
      </trkpt>
      <trkpt lat="48.74762" lon="1.75788">
        <ele>188.4</ele>
        <time>2026-03-26T09:13:09.000Z</time>
      </trkpt>
      <trkpt lat="48.74762" lon="1.75788">
        <ele>188.4</ele>
        <time>2026-03-26T09:13:10.000Z</time>
      </trkpt>
      <trkpt lat="48.74762" lon="1.75788">
        <ele>188.4</ele>
        <time>2026-03-26T09:13:11.000Z</time>
      </trkpt>
      <trkpt lat="48.74762" lon="1.75788">
        <ele>188.4</ele>
        <time>2026-03-26T09:13:12.000Z</time>
      </trkpt>
      <trkpt lat="48.74762" lon="1.75788">
        <ele>188.4</ele>
        <time>2026-03-26T09:13:13.000Z</time>
      </trkpt>
      <trkpt lat="48.74762" lon="1.75788">
        <ele>188.4</ele>
        <time>2026-03-26T09:13:14.000Z</time>
      </trkpt>
      <trkpt lat="48.74762" lon="1.75788">
        <ele>188.4</ele>
        <time>2026-03-26T09:13:15.000Z</time>
      </trkpt>
      <trkpt lat="48.74762" lon="1.75788">
        <ele>189</ele>
        <time>2026-03-26T09:13:16.000Z</time>
      </trkpt>
      <trkpt lat="48.74762" lon="1.75788">
        <ele>189</ele>
        <time>2026-03-26T09:13:17.000Z</time>
      </trkpt>
      <trkpt lat="48.74761" lon="1.75788">
        <ele>188.8</ele>
        <time>2026-03-26T09:13:18.000Z</time>
      </trkpt>
      <trkpt lat="48.74761" lon="1.75787">
        <ele>188</ele>
        <time>2026-03-26T09:13:19.000Z</time>
      </trkpt>
      <trkpt lat="48.74761" lon="1.75786">
        <ele>187.8</ele>
        <time>2026-03-26T09:13:20.000Z</time>
      </trkpt>
      <trkpt lat="48.74761" lon="1.75786">
        <ele>188</ele>
        <time>2026-03-26T09:13:21.000Z</time>
      </trkpt>
      <trkpt lat="48.7476" lon="1.75786">
        <ele>188.2</ele>
        <time>2026-03-26T09:13:22.000Z</time>
      </trkpt>
      <trkpt lat="48.7476" lon="1.75786">
        <ele>188.2</ele>
        <time>2026-03-26T09:13:23.000Z</time>
      </trkpt>
      <trkpt lat="48.7476" lon="1.75785">
        <ele>188.2</ele>
        <time>2026-03-26T09:13:24.000Z</time>
      </trkpt>
      <trkpt lat="48.7476" lon="1.75785">
        <ele>187.9</ele>
        <time>2026-03-26T09:13:25.000Z</time>
      </trkpt>
      <trkpt lat="48.7476" lon="1.75784">
        <ele>187.8</ele>
        <time>2026-03-26T09:13:26.000Z</time>
      </trkpt>
      <trkpt lat="48.7476" lon="1.75784">
        <ele>187.8</ele>
        <time>2026-03-26T09:13:27.000Z</time>
      </trkpt>
      <trkpt lat="48.74759" lon="1.75784">
        <ele>187.9</ele>
        <time>2026-03-26T09:13:28.000Z</time>
      </trkpt>
      <trkpt lat="48.74759" lon="1.75784">
        <ele>187.9</ele>
        <time>2026-03-26T09:13:29.000Z</time>
      </trkpt>
      <trkpt lat="48.74759" lon="1.75784">
        <ele>187.9</ele>
        <time>2026-03-26T09:13:30.000Z</time>
      </trkpt>
      <trkpt lat="48.74759" lon="1.75784">
        <ele>187.9</ele>
        <time>2026-03-26T09:13:31.000Z</time>
      </trkpt>
      <trkpt lat="48.74759" lon="1.75784">
        <ele>187.9</ele>
        <time>2026-03-26T09:13:32.000Z</time>
      </trkpt>
      <trkpt lat="48.74759" lon="1.75784">
        <ele>187.9</ele>
        <time>2026-03-26T09:13:33.000Z</time>
      </trkpt>
      <trkpt lat="48.74759" lon="1.75785">
        <ele>187.8</ele>
        <time>2026-03-26T09:13:34.000Z</time>
      </trkpt>
      <trkpt lat="48.74759" lon="1.75785">
        <ele>188</ele>
        <time>2026-03-26T09:13:35.000Z</time>
      </trkpt>
      <trkpt lat="48.74759" lon="1.75785">
        <ele>187.8</ele>
        <time>2026-03-26T09:13:36.000Z</time>
      </trkpt>
      <trkpt lat="48.74759" lon="1.75786">
        <ele>188</ele>
        <time>2026-03-26T09:13:37.000Z</time>
      </trkpt>
      <trkpt lat="48.74759" lon="1.75786">
        <ele>188</ele>
        <time>2026-03-26T09:13:38.000Z</time>
      </trkpt>
      <trkpt lat="48.74759" lon="1.75786">
        <ele>188.2</ele>
        <time>2026-03-26T09:13:39.000Z</time>
      </trkpt>
      <trkpt lat="48.7476" lon="1.75786">
        <ele>188</ele>
        <time>2026-03-26T09:13:40.000Z</time>
      </trkpt>
      <trkpt lat="48.74759" lon="1.75787">
        <ele>187.5</ele>
        <time>2026-03-26T09:13:41.000Z</time>
      </trkpt>
      <trkpt lat="48.74759" lon="1.75787">
        <ele>187.5</ele>
        <time>2026-03-26T09:13:42.000Z</time>
      </trkpt>
      <trkpt lat="48.74759" lon="1.75787">
        <ele>187.5</ele>
        <time>2026-03-26T09:13:43.000Z</time>
      </trkpt>
      <trkpt lat="48.74759" lon="1.75787">
        <ele>187.5</ele>
        <time>2026-03-26T09:13:44.000Z</time>
      </trkpt>
      <trkpt lat="48.74759" lon="1.75787">
        <ele>187.5</ele>
        <time>2026-03-26T09:13:45.000Z</time>
      </trkpt>
      <trkpt lat="48.74759" lon="1.75787">
        <ele>187.5</ele>
        <time>2026-03-26T09:13:46.000Z</time>
      </trkpt>
      <trkpt lat="48.7476" lon="1.75787">
        <ele>187.5</ele>
        <time>2026-03-26T09:13:47.000Z</time>
      </trkpt>
      <trkpt lat="48.7476" lon="1.75786">
        <ele>187.5</ele>
        <time>2026-03-26T09:13:48.000Z</time>
      </trkpt>
      <trkpt lat="48.7476" lon="1.75786">
        <ele>187.6</ele>
        <time>2026-03-26T09:13:49.000Z</time>
      </trkpt>
      <trkpt lat="48.7476" lon="1.75786">
        <ele>187.6</ele>
        <time>2026-03-26T09:13:50.000Z</time>
      </trkpt>
      <trkpt lat="48.7476" lon="1.75786">
        <ele>187.6</ele>
        <time>2026-03-26T09:13:51.000Z</time>
      </trkpt>
      <trkpt lat="48.7476" lon="1.75786">
        <ele>187.6</ele>
        <time>2026-03-26T09:13:52.000Z</time>
      </trkpt>
      <trkpt lat="48.7476" lon="1.75786">
        <ele>187.6</ele>
        <time>2026-03-26T09:13:53.000Z</time>
      </trkpt>
      <trkpt lat="48.7476" lon="1.75786">
        <ele>187.6</ele>
        <time>2026-03-26T09:13:54.000Z</time>
      </trkpt>
      <trkpt lat="48.7476" lon="1.75786">
        <ele>187.6</ele>
        <time>2026-03-26T09:13:55.000Z</time>
      </trkpt>
      <trkpt lat="48.7476" lon="1.75786">
        <ele>187.6</ele>
        <time>2026-03-26T09:13:56.000Z</time>
      </trkpt>
      <trkpt lat="48.7476" lon="1.75786">
        <ele>187.6</ele>
        <time>2026-03-26T09:13:57.000Z</time>
      </trkpt>
      <trkpt lat="48.7476" lon="1.75786">
        <ele>187.6</ele>
        <time>2026-03-26T09:13:58.000Z</time>
      </trkpt>
      <trkpt lat="48.7476" lon="1.75786">
        <ele>187.6</ele>
        <time>2026-03-26T09:13:59.000Z</time>
      </trkpt>
      <trkpt lat="48.7476" lon="1.75785">
        <ele>187.2</ele>
        <time>2026-03-26T09:14:00.000Z</time>
      </trkpt>
      <trkpt lat="48.7476" lon="1.75785">
        <ele>187.2</ele>
        <time>2026-03-26T09:14:01.000Z</time>
      </trkpt>
      <trkpt lat="48.7476" lon="1.75785">
        <ele>187.2</ele>
        <time>2026-03-26T09:14:02.000Z</time>
      </trkpt>
      <trkpt lat="48.7476" lon="1.75785">
        <ele>187.2</ele>
        <time>2026-03-26T09:14:03.000Z</time>
      </trkpt>
      <trkpt lat="48.7476" lon="1.75785">
        <ele>187.2</ele>
        <time>2026-03-26T09:14:04.000Z</time>
      </trkpt>
      <trkpt lat="48.7476" lon="1.75785">
        <ele>187.2</ele>
        <time>2026-03-26T09:14:05.000Z</time>
      </trkpt>
      <trkpt lat="48.7476" lon="1.75785">
        <ele>187.2</ele>
        <time>2026-03-26T09:14:06.000Z</time>
      </trkpt>
      <trkpt lat="48.7476" lon="1.75785">
        <ele>187.3</ele>
        <time>2026-03-26T09:14:07.000Z</time>
      </trkpt>
      <trkpt lat="48.7476" lon="1.75785">
        <ele>187.3</ele>
        <time>2026-03-26T09:14:08.000Z</time>
      </trkpt>
      <trkpt lat="48.7476" lon="1.75785">
        <ele>187.3</ele>
        <time>2026-03-26T09:14:09.000Z</time>
      </trkpt>
      <trkpt lat="48.7476" lon="1.75785">
        <ele>187.3</ele>
        <time>2026-03-26T09:14:10.000Z</time>
      </trkpt>
      <trkpt lat="48.7476" lon="1.75785">
        <ele>187.3</ele>
        <time>2026-03-26T09:14:11.000Z</time>
      </trkpt>
      <trkpt lat="48.7476" lon="1.75785">
        <ele>187.3</ele>
        <time>2026-03-26T09:14:12.000Z</time>
      </trkpt>
      <trkpt lat="48.7476" lon="1.75785">
        <ele>187.3</ele>
        <time>2026-03-26T09:14:13.000Z</time>
      </trkpt>
      <trkpt lat="48.7476" lon="1.75785">
        <ele>187.3</ele>
        <time>2026-03-26T09:14:14.000Z</time>
      </trkpt>
      <trkpt lat="48.7476" lon="1.75785">
        <ele>187.3</ele>
        <time>2026-03-26T09:14:15.000Z</time>
      </trkpt>
      <trkpt lat="48.7476" lon="1.75785">
        <ele>187.3</ele>
        <time>2026-03-26T09:14:16.000Z</time>
      </trkpt>
      <trkpt lat="48.7476" lon="1.75785">
        <ele>187.3</ele>
        <time>2026-03-26T09:14:17.000Z</time>
      </trkpt>
      <trkpt lat="48.7476" lon="1.75785">
        <ele>187.3</ele>
        <time>2026-03-26T09:14:18.000Z</time>
      </trkpt>
      <trkpt lat="48.7476" lon="1.75785">
        <ele>187</ele>
        <time>2026-03-26T09:14:19.000Z</time>
      </trkpt>
      <trkpt lat="48.7476" lon="1.75785">
        <ele>187</ele>
        <time>2026-03-26T09:14:20.000Z</time>
      </trkpt>
      <trkpt lat="48.7476" lon="1.75784">
        <ele>187</ele>
        <time>2026-03-26T09:14:21.000Z</time>
      </trkpt>
      <trkpt lat="48.7476" lon="1.75785">
        <ele>187.2</ele>
        <time>2026-03-26T09:14:22.000Z</time>
      </trkpt>
      <trkpt lat="48.7476" lon="1.75785">
        <ele>187.2</ele>
        <time>2026-03-26T09:14:23.000Z</time>
      </trkpt>
      <trkpt lat="48.74761" lon="1.75785">
        <ele>187.2</ele>
        <time>2026-03-26T09:14:24.000Z</time>
      </trkpt>
      <trkpt lat="48.74761" lon="1.75785">
        <ele>187.2</ele>
        <time>2026-03-26T09:14:25.000Z</time>
      </trkpt>
      <trkpt lat="48.74761" lon="1.75785">
        <ele>187.2</ele>
        <time>2026-03-26T09:14:26.000Z</time>
      </trkpt>
      <trkpt lat="48.74761" lon="1.75785">
        <ele>187.2</ele>
        <time>2026-03-26T09:14:27.000Z</time>
      </trkpt>
      <trkpt lat="48.74761" lon="1.75785">
        <ele>187.2</ele>
        <time>2026-03-26T09:14:28.000Z</time>
      </trkpt>
      <trkpt lat="48.74761" lon="1.75785">
        <ele>187.2</ele>
        <time>2026-03-26T09:14:29.000Z</time>
      </trkpt>
      <trkpt lat="48.74761" lon="1.75785">
        <ele>187.2</ele>
        <time>2026-03-26T09:14:30.000Z</time>
      </trkpt>
      <trkpt lat="48.74761" lon="1.75785">
        <ele>187.2</ele>
        <time>2026-03-26T09:14:31.000Z</time>
      </trkpt>
      <trkpt lat="48.74761" lon="1.75785">
        <ele>187.2</ele>
        <time>2026-03-26T09:14:32.000Z</time>
      </trkpt>
      <trkpt lat="48.74761" lon="1.75785">
        <ele>187.2</ele>
        <time>2026-03-26T09:14:33.000Z</time>
      </trkpt>
      <trkpt lat="48.74761" lon="1.75785">
        <ele>187.2</ele>
        <time>2026-03-26T09:14:34.000Z</time>
      </trkpt>
      <trkpt lat="48.74761" lon="1.75785">
        <ele>187.2</ele>
        <time>2026-03-26T09:14:35.000Z</time>
      </trkpt>
      <trkpt lat="48.74761" lon="1.75785">
        <ele>187.2</ele>
        <time>2026-03-26T09:14:36.000Z</time>
      </trkpt>
      <trkpt lat="48.74761" lon="1.75785">
        <ele>187.2</ele>
        <time>2026-03-26T09:14:37.000Z</time>
      </trkpt>
      <trkpt lat="48.74761" lon="1.75785">
        <ele>187.2</ele>
        <time>2026-03-26T09:14:38.000Z</time>
      </trkpt>
      <trkpt lat="48.74761" lon="1.75785">
        <ele>187.2</ele>
        <time>2026-03-26T09:14:39.000Z</time>
      </trkpt>
      <trkpt lat="48.74761" lon="1.75785">
        <ele>187.2</ele>
        <time>2026-03-26T09:14:40.000Z</time>
      </trkpt>
      <trkpt lat="48.74761" lon="1.75785">
        <ele>187.2</ele>
        <time>2026-03-26T09:14:41.000Z</time>
      </trkpt>
      <trkpt lat="48.74761" lon="1.75785">
        <ele>187.2</ele>
        <time>2026-03-26T09:14:42.000Z</time>
      </trkpt>
      <trkpt lat="48.74761" lon="1.75785">
        <ele>187.2</ele>
        <time>2026-03-26T09:14:43.000Z</time>
      </trkpt>
      <trkpt lat="48.74761" lon="1.75785">
        <ele>187.2</ele>
        <time>2026-03-26T09:14:44.000Z</time>
      </trkpt>
      <trkpt lat="48.74761" lon="1.75785">
        <ele>187.2</ele>
        <time>2026-03-26T09:14:45.000Z</time>
      </trkpt>
      <trkpt lat="48.74761" lon="1.75785">
        <ele>187.2</ele>
        <time>2026-03-26T09:14:46.000Z</time>
      </trkpt>
      <trkpt lat="48.74761" lon="1.75785">
        <ele>187.2</ele>
        <time>2026-03-26T09:14:47.000Z</time>
      </trkpt>
      <trkpt lat="48.74761" lon="1.75785">
        <ele>187.2</ele>
        <time>2026-03-26T09:14:48.000Z</time>
      </trkpt>
      <trkpt lat="48.74761" lon="1.75785">
        <ele>187.2</ele>
        <time>2026-03-26T09:14:49.000Z</time>
      </trkpt>
      <trkpt lat="48.74761" lon="1.75785">
        <ele>187.2</ele>
        <time>2026-03-26T09:14:50.000Z</time>
      </trkpt>
      <trkpt lat="48.74761" lon="1.75784">
        <ele>187.2</ele>
        <time>2026-03-26T09:14:51.000Z</time>
      </trkpt>
      <trkpt lat="48.74761" lon="1.75784">
        <ele>187.2</ele>
        <time>2026-03-26T09:14:52.000Z</time>
      </trkpt>
      <trkpt lat="48.74761" lon="1.75784">
        <ele>187.2</ele>
        <time>2026-03-26T09:14:53.000Z</time>
      </trkpt>
      <trkpt lat="48.74761" lon="1.75784">
        <ele>187.2</ele>
        <time>2026-03-26T09:14:54.000Z</time>
      </trkpt>
      <trkpt lat="48.74761" lon="1.75784">
        <ele>187.2</ele>
        <time>2026-03-26T09:14:55.000Z</time>
      </trkpt>
      <trkpt lat="48.74761" lon="1.75784">
        <ele>187.2</ele>
        <time>2026-03-26T09:14:56.000Z</time>
      </trkpt>
      <trkpt lat="48.74761" lon="1.75784">
        <ele>187.2</ele>
        <time>2026-03-26T09:14:57.000Z</time>
      </trkpt>
      <trkpt lat="48.74761" lon="1.75784">
        <ele>187.2</ele>
        <time>2026-03-26T09:14:58.000Z</time>
      </trkpt>
      <trkpt lat="48.74761" lon="1.75784">
        <ele>187.2</ele>
        <time>2026-03-26T09:14:59.000Z</time>
      </trkpt>
      <trkpt lat="48.74761" lon="1.75784">
        <ele>187.2</ele>
        <time>2026-03-26T09:15:00.000Z</time>
      </trkpt>
      <trkpt lat="48.74761" lon="1.75784">
        <ele>187.2</ele>
        <time>2026-03-26T09:15:01.000Z</time>
      </trkpt>
      <trkpt lat="48.74761" lon="1.75784">
        <ele>187.2</ele>
        <time>2026-03-26T09:15:02.000Z</time>
      </trkpt>
      <trkpt lat="48.74761" lon="1.75784">
        <ele>187.2</ele>
        <time>2026-03-26T09:15:03.000Z</time>
      </trkpt>
      <trkpt lat="48.74761" lon="1.75784">
        <ele>187.2</ele>
        <time>2026-03-26T09:15:04.000Z</time>
      </trkpt>
      <trkpt lat="48.74761" lon="1.75784">
        <ele>187.2</ele>
        <time>2026-03-26T09:15:05.000Z</time>
      </trkpt>
      <trkpt lat="48.74761" lon="1.75784">
        <ele>187.2</ele>
        <time>2026-03-26T09:15:06.000Z</time>
      </trkpt>
      <trkpt lat="48.74761" lon="1.75784">
        <ele>187.2</ele>
        <time>2026-03-26T09:15:07.000Z</time>
      </trkpt>
      <trkpt lat="48.74761" lon="1.75784">
        <ele>187.2</ele>
        <time>2026-03-26T09:15:08.000Z</time>
      </trkpt>
      <trkpt lat="48.74761" lon="1.75784">
        <ele>187.2</ele>
        <time>2026-03-26T09:15:09.000Z</time>
      </trkpt>
      <trkpt lat="48.74761" lon="1.75784">
        <ele>187.2</ele>
        <time>2026-03-26T09:15:10.000Z</time>
      </trkpt>
      <trkpt lat="48.74761" lon="1.75784">
        <ele>187.2</ele>
        <time>2026-03-26T09:15:11.000Z</time>
      </trkpt>
      <trkpt lat="48.74761" lon="1.75784">
        <ele>187.2</ele>
        <time>2026-03-26T09:15:12.000Z</time>
      </trkpt>
      <trkpt lat="48.74761" lon="1.75784">
        <ele>187.3</ele>
        <time>2026-03-26T09:15:13.000Z</time>
      </trkpt>
      <trkpt lat="48.74761" lon="1.75784">
        <ele>187.3</ele>
        <time>2026-03-26T09:15:14.000Z</time>
      </trkpt>
      <trkpt lat="48.74761" lon="1.75784">
        <ele>187.3</ele>
        <time>2026-03-26T09:15:15.000Z</time>
      </trkpt>
      <trkpt lat="48.74761" lon="1.75784">
        <ele>187.3</ele>
        <time>2026-03-26T09:15:16.000Z</time>
      </trkpt>
      <trkpt lat="48.74761" lon="1.75784">
        <ele>187.3</ele>
        <time>2026-03-26T09:15:17.000Z</time>
      </trkpt>
      <trkpt lat="48.74761" lon="1.75784">
        <ele>187.3</ele>
        <time>2026-03-26T09:15:18.000Z</time>
      </trkpt>
      <trkpt lat="48.74761" lon="1.75784">
        <ele>187.3</ele>
        <time>2026-03-26T09:15:19.000Z</time>
      </trkpt>
      <trkpt lat="48.74761" lon="1.75784">
        <ele>187.2</ele>
        <time>2026-03-26T09:15:20.000Z</time>
      </trkpt>
      <trkpt lat="48.74761" lon="1.75784">
        <ele>187.2</ele>
        <time>2026-03-26T09:15:21.000Z</time>
      </trkpt>
      <trkpt lat="48.74761" lon="1.75784">
        <ele>187.2</ele>
        <time>2026-03-26T09:15:22.000Z</time>
      </trkpt>
      <trkpt lat="48.74761" lon="1.75784">
        <ele>187.2</ele>
        <time>2026-03-26T09:15:23.000Z</time>
      </trkpt>
      <trkpt lat="48.74761" lon="1.75784">
        <ele>187.2</ele>
        <time>2026-03-26T09:15:24.000Z</time>
      </trkpt>
      <trkpt lat="48.74761" lon="1.75784">
        <ele>187.2</ele>
        <time>2026-03-26T09:15:25.000Z</time>
      </trkpt>
      <trkpt lat="48.74761" lon="1.75784">
        <ele>187.2</ele>
        <time>2026-03-26T09:15:26.000Z</time>
      </trkpt>
      <trkpt lat="48.74761" lon="1.75784">
        <ele>187.2</ele>
        <time>2026-03-26T09:15:27.000Z</time>
      </trkpt>
      <trkpt lat="48.74761" lon="1.75784">
        <ele>187.2</ele>
        <time>2026-03-26T09:15:28.000Z</time>
      </trkpt>
      <trkpt lat="48.74761" lon="1.75784">
        <ele>187.2</ele>
        <time>2026-03-26T09:15:29.000Z</time>
      </trkpt>
      <trkpt lat="48.74761" lon="1.75784">
        <ele>187.2</ele>
        <time>2026-03-26T09:15:30.000Z</time>
      </trkpt>
      <trkpt lat="48.74761" lon="1.75784">
        <ele>187.2</ele>
        <time>2026-03-26T09:15:31.000Z</time>
      </trkpt>
      <trkpt lat="48.74761" lon="1.75784">
        <ele>187.2</ele>
        <time>2026-03-26T09:15:32.000Z</time>
      </trkpt>
      <trkpt lat="48.74761" lon="1.75784">
        <ele>187.2</ele>
        <time>2026-03-26T09:15:33.000Z</time>
      </trkpt>
      <trkpt lat="48.74761" lon="1.75784">
        <ele>187.2</ele>
        <time>2026-03-26T09:15:34.000Z</time>
      </trkpt>
      <trkpt lat="48.74761" lon="1.75784">
        <ele>187.2</ele>
        <time>2026-03-26T09:15:35.000Z</time>
      </trkpt>
      <trkpt lat="48.74761" lon="1.75784">
        <ele>187.2</ele>
        <time>2026-03-26T09:15:36.000Z</time>
      </trkpt>
      <trkpt lat="48.74761" lon="1.75784">
        <ele>187.2</ele>
        <time>2026-03-26T09:15:37.000Z</time>
      </trkpt>
      <trkpt lat="48.74761" lon="1.75784">
        <ele>187.2</ele>
        <time>2026-03-26T09:15:38.000Z</time>
      </trkpt>
      <trkpt lat="48.74761" lon="1.75784">
        <ele>187.2</ele>
        <time>2026-03-26T09:15:39.000Z</time>
      </trkpt>
      <trkpt lat="48.74761" lon="1.75784">
        <ele>187.2</ele>
        <time>2026-03-26T09:15:40.000Z</time>
      </trkpt>
      <trkpt lat="48.74761" lon="1.75784">
        <ele>187.2</ele>
        <time>2026-03-26T09:15:41.000Z</time>
      </trkpt>
      <trkpt lat="48.74761" lon="1.75784">
        <ele>187.2</ele>
        <time>2026-03-26T09:15:42.000Z</time>
      </trkpt>
      <trkpt lat="48.74761" lon="1.75784">
        <ele>187.2</ele>
        <time>2026-03-26T09:15:43.000Z</time>
      </trkpt>
      <trkpt lat="48.74761" lon="1.75784">
        <ele>187.2</ele>
        <time>2026-03-26T09:15:44.000Z</time>
      </trkpt>
      <trkpt lat="48.74761" lon="1.75784">
        <ele>187.2</ele>
        <time>2026-03-26T09:15:45.000Z</time>
      </trkpt>
      <trkpt lat="48.74761" lon="1.75784">
        <ele>187.2</ele>
        <time>2026-03-26T09:15:46.000Z</time>
      </trkpt>
      <trkpt lat="48.74761" lon="1.75784">
        <ele>187.2</ele>
        <time>2026-03-26T09:15:47.000Z</time>
      </trkpt>
      <trkpt lat="48.74761" lon="1.75784">
        <ele>187.2</ele>
        <time>2026-03-26T09:15:48.000Z</time>
      </trkpt>
      <trkpt lat="48.74761" lon="1.75784">
        <ele>187.2</ele>
        <time>2026-03-26T09:15:49.000Z</time>
      </trkpt>
      <trkpt lat="48.74761" lon="1.75784">
        <ele>187.2</ele>
        <time>2026-03-26T09:15:50.000Z</time>
      </trkpt>
      <trkpt lat="48.74761" lon="1.75784">
        <ele>187.2</ele>
        <time>2026-03-26T09:15:51.000Z</time>
      </trkpt>
      <trkpt lat="48.74761" lon="1.75784">
        <ele>187.2</ele>
        <time>2026-03-26T09:15:52.000Z</time>
      </trkpt>
      <trkpt lat="48.74761" lon="1.75784">
        <ele>187.2</ele>
        <time>2026-03-26T09:15:53.000Z</time>
      </trkpt>
      <trkpt lat="48.74761" lon="1.75784">
        <ele>187.2</ele>
        <time>2026-03-26T09:15:54.000Z</time>
      </trkpt>
      <trkpt lat="48.74761" lon="1.75784">
        <ele>187.2</ele>
        <time>2026-03-26T09:15:55.000Z</time>
      </trkpt>
      <trkpt lat="48.74761" lon="1.75784">
        <ele>187.2</ele>
        <time>2026-03-26T09:15:56.000Z</time>
      </trkpt>
      <trkpt lat="48.74761" lon="1.75784">
        <ele>187.2</ele>
        <time>2026-03-26T09:15:57.000Z</time>
      </trkpt>
      <trkpt lat="48.74761" lon="1.75784">
        <ele>187.2</ele>
        <time>2026-03-26T09:15:58.000Z</time>
      </trkpt>
      <trkpt lat="48.74761" lon="1.75784">
        <ele>187.2</ele>
        <time>2026-03-26T09:15:59.000Z</time>
      </trkpt>
      <trkpt lat="48.74761" lon="1.75784">
        <ele>187.2</ele>
        <time>2026-03-26T09:16:00.000Z</time>
      </trkpt>
      <trkpt lat="48.74761" lon="1.75784">
        <ele>187.2</ele>
        <time>2026-03-26T09:16:01.000Z</time>
      </trkpt>
      <trkpt lat="48.74761" lon="1.75784">
        <ele>187.2</ele>
        <time>2026-03-26T09:16:02.000Z</time>
      </trkpt>
      <trkpt lat="48.74761" lon="1.75784">
        <ele>187.2</ele>
        <time>2026-03-26T09:16:03.000Z</time>
      </trkpt>
      <trkpt lat="48.74761" lon="1.75784">
        <ele>187.2</ele>
        <time>2026-03-26T09:16:04.000Z</time>
      </trkpt>
      <trkpt lat="48.74761" lon="1.75784">
        <ele>187.2</ele>
        <time>2026-03-26T09:16:05.000Z</time>
      </trkpt>
      <trkpt lat="48.74761" lon="1.75784">
        <ele>187.2</ele>
        <time>2026-03-26T09:16:06.000Z</time>
      </trkpt>
      <trkpt lat="48.74761" lon="1.75784">
        <ele>187.2</ele>
        <time>2026-03-26T09:16:07.000Z</time>
      </trkpt>
      <trkpt lat="48.74761" lon="1.75784">
        <ele>187.2</ele>
        <time>2026-03-26T09:16:08.000Z</time>
      </trkpt>
      <trkpt lat="48.74761" lon="1.75784">
        <ele>187.2</ele>
        <time>2026-03-26T09:16:09.000Z</time>
      </trkpt>
      <trkpt lat="48.74761" lon="1.75784">
        <ele>187.2</ele>
        <time>2026-03-26T09:16:10.000Z</time>
      </trkpt>
      <trkpt lat="48.74761" lon="1.75784">
        <ele>187.2</ele>
        <time>2026-03-26T09:16:11.000Z</time>
      </trkpt>
      <trkpt lat="48.74761" lon="1.75784">
        <ele>187.2</ele>
        <time>2026-03-26T09:16:12.000Z</time>
      </trkpt>
      <trkpt lat="48.74761" lon="1.75784">
        <ele>187.2</ele>
        <time>2026-03-26T09:16:13.000Z</time>
      </trkpt>
      <trkpt lat="48.74761" lon="1.75784">
        <ele>187.2</ele>
        <time>2026-03-26T09:16:14.000Z</time>
      </trkpt>
      <trkpt lat="48.74761" lon="1.75784">
        <ele>187.2</ele>
        <time>2026-03-26T09:16:15.000Z</time>
      </trkpt>
      <trkpt lat="48.74761" lon="1.75784">
        <ele>187.2</ele>
        <time>2026-03-26T09:16:16.000Z</time>
      </trkpt>
      <trkpt lat="48.74761" lon="1.75784">
        <ele>187.2</ele>
        <time>2026-03-26T09:16:17.000Z</time>
      </trkpt>
      <trkpt lat="48.74761" lon="1.75784">
        <ele>187.2</ele>
        <time>2026-03-26T09:16:18.000Z</time>
      </trkpt>
      <trkpt lat="48.74761" lon="1.75784">
        <ele>187.2</ele>
        <time>2026-03-26T09:16:19.000Z</time>
      </trkpt>
      <trkpt lat="48.74761" lon="1.75784">
        <ele>187.2</ele>
        <time>2026-03-26T09:16:20.000Z</time>
      </trkpt>
      <trkpt lat="48.74761" lon="1.75784">
        <ele>187.2</ele>
        <time>2026-03-26T09:16:21.000Z</time>
      </trkpt>
      <trkpt lat="48.74761" lon="1.75784">
        <ele>187.2</ele>
        <time>2026-03-26T09:16:22.000Z</time>
      </trkpt>
      <trkpt lat="48.74761" lon="1.75784">
        <ele>187.2</ele>
        <time>2026-03-26T09:16:23.000Z</time>
      </trkpt>
      <trkpt lat="48.74761" lon="1.75784">
        <ele>187.2</ele>
        <time>2026-03-26T09:16:24.000Z</time>
      </trkpt>
      <trkpt lat="48.74761" lon="1.75784">
        <ele>187.2</ele>
        <time>2026-03-26T09:16:25.000Z</time>
      </trkpt>
      <trkpt lat="48.74761" lon="1.75784">
        <ele>187.2</ele>
        <time>2026-03-26T09:16:26.000Z</time>
      </trkpt>
      <trkpt lat="48.74761" lon="1.75784">
        <ele>187.2</ele>
        <time>2026-03-26T09:16:27.000Z</time>
      </trkpt>
      <trkpt lat="48.74761" lon="1.75784">
        <ele>187.2</ele>
        <time>2026-03-26T09:16:28.000Z</time>
      </trkpt>
      <trkpt lat="48.74761" lon="1.75784">
        <ele>187.2</ele>
        <time>2026-03-26T09:16:29.000Z</time>
      </trkpt>
      <trkpt lat="48.74761" lon="1.75783">
        <ele>187.4</ele>
        <time>2026-03-26T09:16:30.000Z</time>
      </trkpt>
      <trkpt lat="48.74761" lon="1.75783">
        <ele>187.3</ele>
        <time>2026-03-26T09:16:31.000Z</time>
      </trkpt>
      <trkpt lat="48.74761" lon="1.75783">
        <ele>187.3</ele>
        <time>2026-03-26T09:16:32.000Z</time>
      </trkpt>
      <trkpt lat="48.74761" lon="1.75783">
        <ele>187.3</ele>
        <time>2026-03-26T09:16:33.000Z</time>
      </trkpt>
      <trkpt lat="48.74761" lon="1.75783">
        <ele>187.3</ele>
        <time>2026-03-26T09:16:34.000Z</time>
      </trkpt>
      <trkpt lat="48.74761" lon="1.75783">
        <ele>187.3</ele>
        <time>2026-03-26T09:16:35.000Z</time>
      </trkpt>
      <trkpt lat="48.74761" lon="1.75783">
        <ele>187.3</ele>
        <time>2026-03-26T09:16:36.000Z</time>
      </trkpt>
      <trkpt lat="48.74761" lon="1.75783">
        <ele>187.3</ele>
        <time>2026-03-26T09:16:37.000Z</time>
      </trkpt>
      <trkpt lat="48.74761" lon="1.75783">
        <ele>187.3</ele>
        <time>2026-03-26T09:16:38.000Z</time>
      </trkpt>
      <trkpt lat="48.74761" lon="1.75783">
        <ele>187.4</ele>
        <time>2026-03-26T09:16:39.000Z</time>
      </trkpt>
      <trkpt lat="48.74762" lon="1.75784">
        <ele>187.3</ele>
        <time>2026-03-26T09:16:40.000Z</time>
      </trkpt>
      <trkpt lat="48.74762" lon="1.75783">
        <ele>187.3</ele>
        <time>2026-03-26T09:16:41.000Z</time>
      </trkpt>
      <trkpt lat="48.74762" lon="1.75783">
        <ele>187.3</ele>
        <time>2026-03-26T09:16:42.000Z</time>
      </trkpt>
      <trkpt lat="48.74762" lon="1.75783">
        <ele>187.3</ele>
        <time>2026-03-26T09:16:43.000Z</time>
      </trkpt>
      <trkpt lat="48.74762" lon="1.75783">
        <ele>187.3</ele>
        <time>2026-03-26T09:16:44.000Z</time>
      </trkpt>
      <trkpt lat="48.74762" lon="1.75783">
        <ele>187.3</ele>
        <time>2026-03-26T09:16:45.000Z</time>
      </trkpt>
      <trkpt lat="48.74762" lon="1.75783">
        <ele>187.3</ele>
        <time>2026-03-26T09:16:46.000Z</time>
      </trkpt>
      <trkpt lat="48.74762" lon="1.75783">
        <ele>187.3</ele>
        <time>2026-03-26T09:16:47.000Z</time>
      </trkpt>
      <trkpt lat="48.74762" lon="1.75783">
        <ele>187.3</ele>
        <time>2026-03-26T09:16:48.000Z</time>
      </trkpt>
      <trkpt lat="48.74762" lon="1.75783">
        <ele>187.4</ele>
        <time>2026-03-26T09:16:49.000Z</time>
      </trkpt>
      <trkpt lat="48.74762" lon="1.75783">
        <ele>187.4</ele>
        <time>2026-03-26T09:16:50.000Z</time>
      </trkpt>
      <trkpt lat="48.74762" lon="1.75783">
        <ele>187.4</ele>
        <time>2026-03-26T09:16:51.000Z</time>
      </trkpt>
      <trkpt lat="48.74762" lon="1.75783">
        <ele>187.4</ele>
        <time>2026-03-26T09:16:52.000Z</time>
      </trkpt>
      <trkpt lat="48.74762" lon="1.75783">
        <ele>187.4</ele>
        <time>2026-03-26T09:16:53.000Z</time>
      </trkpt>
      <trkpt lat="48.74762" lon="1.75783">
        <ele>187.4</ele>
        <time>2026-03-26T09:16:54.000Z</time>
      </trkpt>
      <trkpt lat="48.74762" lon="1.75783">
        <ele>187.4</ele>
        <time>2026-03-26T09:16:55.000Z</time>
      </trkpt>
      <trkpt lat="48.74762" lon="1.75783">
        <ele>187.4</ele>
        <time>2026-03-26T09:16:56.000Z</time>
      </trkpt>
      <trkpt lat="48.74762" lon="1.75783">
        <ele>187.5</ele>
        <time>2026-03-26T09:16:57.000Z</time>
      </trkpt>
      <trkpt lat="48.74762" lon="1.75782">
        <ele>187.7</ele>
        <time>2026-03-26T09:16:58.000Z</time>
      </trkpt>
      <trkpt lat="48.74763" lon="1.75782">
        <ele>187.7</ele>
        <time>2026-03-26T09:16:59.000Z</time>
      </trkpt>
      <trkpt lat="48.74763" lon="1.75782">
        <ele>187.7</ele>
        <time>2026-03-26T09:17:00.000Z</time>
      </trkpt>
      <trkpt lat="48.74763" lon="1.75782">
        <ele>187.7</ele>
        <time>2026-03-26T09:17:01.000Z</time>
      </trkpt>
      <trkpt lat="48.74763" lon="1.75782">
        <ele>187.7</ele>
        <time>2026-03-26T09:17:02.000Z</time>
      </trkpt>
      <trkpt lat="48.74763" lon="1.75782">
        <ele>187.7</ele>
        <time>2026-03-26T09:17:03.000Z</time>
      </trkpt>
      <trkpt lat="48.74763" lon="1.75782">
        <ele>187.7</ele>
        <time>2026-03-26T09:17:04.000Z</time>
      </trkpt>
      <trkpt lat="48.74763" lon="1.75782">
        <ele>187.7</ele>
        <time>2026-03-26T09:17:05.000Z</time>
      </trkpt>
      <trkpt lat="48.74763" lon="1.75782">
        <ele>187.7</ele>
        <time>2026-03-26T09:17:06.000Z</time>
      </trkpt>
      <trkpt lat="48.74763" lon="1.75782">
        <ele>188.1</ele>
        <time>2026-03-26T09:17:07.000Z</time>
      </trkpt>
      <trkpt lat="48.74763" lon="1.75781">
        <ele>188.1</ele>
        <time>2026-03-26T09:17:08.000Z</time>
      </trkpt>
      <trkpt lat="48.74763" lon="1.75781">
        <ele>188.1</ele>
        <time>2026-03-26T09:17:09.000Z</time>
      </trkpt>
      <trkpt lat="48.74763" lon="1.75781">
        <ele>188.1</ele>
        <time>2026-03-26T09:17:10.000Z</time>
      </trkpt>
      <trkpt lat="48.74763" lon="1.75781">
        <ele>188.1</ele>
        <time>2026-03-26T09:17:11.000Z</time>
      </trkpt>
      <trkpt lat="48.74763" lon="1.75781">
        <ele>188.1</ele>
        <time>2026-03-26T09:17:12.000Z</time>
      </trkpt>
      <trkpt lat="48.74763" lon="1.75781">
        <ele>188.1</ele>
        <time>2026-03-26T09:17:13.000Z</time>
      </trkpt>
      <trkpt lat="48.74763" lon="1.75781">
        <ele>188.1</ele>
        <time>2026-03-26T09:17:14.000Z</time>
      </trkpt>
      <trkpt lat="48.74763" lon="1.75781">
        <ele>188.1</ele>
        <time>2026-03-26T09:17:15.000Z</time>
      </trkpt>
      <trkpt lat="48.74763" lon="1.75781">
        <ele>188.1</ele>
        <time>2026-03-26T09:17:16.000Z</time>
      </trkpt>
      <trkpt lat="48.74763" lon="1.75781">
        <ele>188.1</ele>
        <time>2026-03-26T09:17:17.000Z</time>
      </trkpt>
      <trkpt lat="48.74763" lon="1.75781">
        <ele>188.1</ele>
        <time>2026-03-26T09:17:18.000Z</time>
      </trkpt>
      <trkpt lat="48.74763" lon="1.75781">
        <ele>188.1</ele>
        <time>2026-03-26T09:17:19.000Z</time>
      </trkpt>
      <trkpt lat="48.74763" lon="1.75781">
        <ele>188.1</ele>
        <time>2026-03-26T09:17:20.000Z</time>
      </trkpt>
      <trkpt lat="48.74763" lon="1.75781">
        <ele>188.1</ele>
        <time>2026-03-26T09:17:21.000Z</time>
      </trkpt>
      <trkpt lat="48.74763" lon="1.75781">
        <ele>188.2</ele>
        <time>2026-03-26T09:17:22.000Z</time>
      </trkpt>
      <trkpt lat="48.74763" lon="1.75781">
        <ele>188.2</ele>
        <time>2026-03-26T09:17:23.000Z</time>
      </trkpt>
      <trkpt lat="48.74763" lon="1.75781">
        <ele>188.2</ele>
        <time>2026-03-26T09:17:24.000Z</time>
      </trkpt>
      <trkpt lat="48.74763" lon="1.75781">
        <ele>188.2</ele>
        <time>2026-03-26T09:17:25.000Z</time>
      </trkpt>
      <trkpt lat="48.74763" lon="1.75781">
        <ele>188.2</ele>
        <time>2026-03-26T09:17:26.000Z</time>
      </trkpt>
      <trkpt lat="48.74763" lon="1.75781">
        <ele>188.2</ele>
        <time>2026-03-26T09:17:27.000Z</time>
      </trkpt>
      <trkpt lat="48.74763" lon="1.75781">
        <ele>188.2</ele>
        <time>2026-03-26T09:17:28.000Z</time>
      </trkpt>
      <trkpt lat="48.74763" lon="1.75781">
        <ele>188.2</ele>
        <time>2026-03-26T09:17:29.000Z</time>
      </trkpt>
      <trkpt lat="48.74763" lon="1.75781">
        <ele>188.2</ele>
        <time>2026-03-26T09:17:30.000Z</time>
      </trkpt>
      <trkpt lat="48.74763" lon="1.75781">
        <ele>188.2</ele>
        <time>2026-03-26T09:17:31.000Z</time>
      </trkpt>
      <trkpt lat="48.74763" lon="1.75781">
        <ele>188.2</ele>
        <time>2026-03-26T09:17:32.000Z</time>
      </trkpt>
      <trkpt lat="48.74763" lon="1.75781">
        <ele>188.2</ele>
        <time>2026-03-26T09:17:33.000Z</time>
      </trkpt>
      <trkpt lat="48.74763" lon="1.75781">
        <ele>188.3</ele>
        <time>2026-03-26T09:17:34.000Z</time>
      </trkpt>
      <trkpt lat="48.74763" lon="1.75781">
        <ele>188.3</ele>
        <time>2026-03-26T09:17:35.000Z</time>
      </trkpt>
      <trkpt lat="48.74763" lon="1.75781">
        <ele>188.3</ele>
        <time>2026-03-26T09:17:36.000Z</time>
      </trkpt>
      <trkpt lat="48.74763" lon="1.75781">
        <ele>188.3</ele>
        <time>2026-03-26T09:17:37.000Z</time>
      </trkpt>
      <trkpt lat="48.74763" lon="1.75781">
        <ele>188.3</ele>
        <time>2026-03-26T09:17:38.000Z</time>
      </trkpt>
      <trkpt lat="48.74763" lon="1.75781">
        <ele>188.6</ele>
        <time>2026-03-26T09:17:39.000Z</time>
      </trkpt>
      <trkpt lat="48.74763" lon="1.75781">
        <ele>188.6</ele>
        <time>2026-03-26T09:17:40.000Z</time>
      </trkpt>
      <trkpt lat="48.74763" lon="1.75781">
        <ele>188.7</ele>
        <time>2026-03-26T09:17:41.000Z</time>
      </trkpt>
      <trkpt lat="48.74763" lon="1.75781">
        <ele>188.7</ele>
        <time>2026-03-26T09:17:42.000Z</time>
      </trkpt>
      <trkpt lat="48.74763" lon="1.75781">
        <ele>188.7</ele>
        <time>2026-03-26T09:17:43.000Z</time>
      </trkpt>
      <trkpt lat="48.74763" lon="1.7578">
        <ele>188.5</ele>
        <time>2026-03-26T09:17:44.000Z</time>
      </trkpt>
      <trkpt lat="48.74763" lon="1.7578">
        <ele>188.5</ele>
        <time>2026-03-26T09:17:45.000Z</time>
      </trkpt>
      <trkpt lat="48.74763" lon="1.7578">
        <ele>188.5</ele>
        <time>2026-03-26T09:17:46.000Z</time>
      </trkpt>
      <trkpt lat="48.74763" lon="1.7578">
        <ele>188.5</ele>
        <time>2026-03-26T09:17:47.000Z</time>
      </trkpt>
      <trkpt lat="48.74763" lon="1.7578">
        <ele>188.5</ele>
        <time>2026-03-26T09:17:48.000Z</time>
      </trkpt>
      <trkpt lat="48.74763" lon="1.7578">
        <ele>188.5</ele>
        <time>2026-03-26T09:17:49.000Z</time>
      </trkpt>
      <trkpt lat="48.74763" lon="1.7578">
        <ele>188.5</ele>
        <time>2026-03-26T09:17:50.000Z</time>
      </trkpt>
      <trkpt lat="48.74763" lon="1.7578">
        <ele>188.5</ele>
        <time>2026-03-26T09:17:51.000Z</time>
      </trkpt>
      <trkpt lat="48.74763" lon="1.7578">
        <ele>188.5</ele>
        <time>2026-03-26T09:17:52.000Z</time>
      </trkpt>
      <trkpt lat="48.74763" lon="1.7578">
        <ele>188.5</ele>
        <time>2026-03-26T09:17:53.000Z</time>
      </trkpt>
      <trkpt lat="48.74763" lon="1.7578">
        <ele>188.5</ele>
        <time>2026-03-26T09:17:54.000Z</time>
      </trkpt>
      <trkpt lat="48.74763" lon="1.7578">
        <ele>188.4</ele>
        <time>2026-03-26T09:17:55.000Z</time>
      </trkpt>
      <trkpt lat="48.74763" lon="1.75781">
        <ele>188</ele>
        <time>2026-03-26T09:17:56.000Z</time>
      </trkpt>
      <trkpt lat="48.74762" lon="1.75781">
        <ele>187.7</ele>
        <time>2026-03-26T09:17:57.000Z</time>
      </trkpt>
      <trkpt lat="48.74762" lon="1.75781">
        <ele>187.1</ele>
        <time>2026-03-26T09:17:58.000Z</time>
      </trkpt>
      <trkpt lat="48.74762" lon="1.75781">
        <ele>187</ele>
        <time>2026-03-26T09:17:59.000Z</time>
      </trkpt>
      <trkpt lat="48.74762" lon="1.7578">
        <ele>187</ele>
        <time>2026-03-26T09:18:00.000Z</time>
      </trkpt>
      <trkpt lat="48.74762" lon="1.7578">
        <ele>187</ele>
        <time>2026-03-26T09:18:01.000Z</time>
      </trkpt>
      <trkpt lat="48.74762" lon="1.7578">
        <ele>187</ele>
        <time>2026-03-26T09:18:02.000Z</time>
      </trkpt>
      <trkpt lat="48.74762" lon="1.7578">
        <ele>187</ele>
        <time>2026-03-26T09:18:03.000Z</time>
      </trkpt>
      <trkpt lat="48.74762" lon="1.7578">
        <ele>187</ele>
        <time>2026-03-26T09:18:04.000Z</time>
      </trkpt>
      <trkpt lat="48.74762" lon="1.7578">
        <ele>187</ele>
        <time>2026-03-26T09:18:05.000Z</time>
      </trkpt>
      <trkpt lat="48.74762" lon="1.7578">
        <ele>187</ele>
        <time>2026-03-26T09:18:06.000Z</time>
      </trkpt>
      <trkpt lat="48.74762" lon="1.7578">
        <ele>187</ele>
        <time>2026-03-26T09:18:07.000Z</time>
      </trkpt>
      <trkpt lat="48.74762" lon="1.7578">
        <ele>187</ele>
        <time>2026-03-26T09:18:08.000Z</time>
      </trkpt>
      <trkpt lat="48.74762" lon="1.7578">
        <ele>187</ele>
        <time>2026-03-26T09:18:09.000Z</time>
      </trkpt>
      <trkpt lat="48.74762" lon="1.7578">
        <ele>187</ele>
        <time>2026-03-26T09:18:10.000Z</time>
      </trkpt>
      <trkpt lat="48.74762" lon="1.7578">
        <ele>187</ele>
        <time>2026-03-26T09:18:11.000Z</time>
      </trkpt>
      <trkpt lat="48.74762" lon="1.75779">
        <ele>187.1</ele>
        <time>2026-03-26T09:18:12.000Z</time>
      </trkpt>
      <trkpt lat="48.74762" lon="1.75778">
        <ele>187</ele>
        <time>2026-03-26T09:18:13.000Z</time>
      </trkpt>
      <trkpt lat="48.74762" lon="1.75777">
        <ele>187</ele>
        <time>2026-03-26T09:18:14.000Z</time>
      </trkpt>
      <trkpt lat="48.74762" lon="1.75776">
        <ele>187.1</ele>
        <time>2026-03-26T09:18:15.000Z</time>
      </trkpt>
      <trkpt lat="48.74762" lon="1.75776">
        <ele>186.7</ele>
        <time>2026-03-26T09:18:16.000Z</time>
      </trkpt>
      <trkpt lat="48.74762" lon="1.75776">
        <ele>186.8</ele>
        <time>2026-03-26T09:18:17.000Z</time>
      </trkpt>
      <trkpt lat="48.74762" lon="1.75776">
        <ele>186.8</ele>
        <time>2026-03-26T09:18:18.000Z</time>
      </trkpt>
      <trkpt lat="48.74762" lon="1.75776">
        <ele>186.8</ele>
        <time>2026-03-26T09:18:19.000Z</time>
      </trkpt>
      <trkpt lat="48.74762" lon="1.75776">
        <ele>186.8</ele>
        <time>2026-03-26T09:18:20.000Z</time>
      </trkpt>
      <trkpt lat="48.74762" lon="1.75776">
        <ele>186.8</ele>
        <time>2026-03-26T09:18:21.000Z</time>
      </trkpt>
      <trkpt lat="48.74762" lon="1.75776">
        <ele>186.8</ele>
        <time>2026-03-26T09:18:22.000Z</time>
      </trkpt>
      <trkpt lat="48.74762" lon="1.75776">
        <ele>186.8</ele>
        <time>2026-03-26T09:18:23.000Z</time>
      </trkpt>
      <trkpt lat="48.74762" lon="1.75776">
        <ele>186.8</ele>
        <time>2026-03-26T09:18:24.000Z</time>
      </trkpt>
      <trkpt lat="48.74762" lon="1.75776">
        <ele>186.8</ele>
        <time>2026-03-26T09:18:25.000Z</time>
      </trkpt>
      <trkpt lat="48.74762" lon="1.75776">
        <ele>186.5</ele>
        <time>2026-03-26T09:18:26.000Z</time>
      </trkpt>
      <trkpt lat="48.74762" lon="1.75775">
        <ele>186.6</ele>
        <time>2026-03-26T09:18:27.000Z</time>
      </trkpt>
      <trkpt lat="48.74761" lon="1.75774">
        <ele>186.5</ele>
        <time>2026-03-26T09:18:28.000Z</time>
      </trkpt>
      <trkpt lat="48.7476" lon="1.75773">
        <ele>186.1</ele>
        <time>2026-03-26T09:18:29.000Z</time>
      </trkpt>
      <trkpt lat="48.7476" lon="1.75773">
        <ele>185.9</ele>
        <time>2026-03-26T09:18:30.000Z</time>
      </trkpt>
      <trkpt lat="48.74759" lon="1.75771">
        <ele>186.2</ele>
        <time>2026-03-26T09:18:31.000Z</time>
      </trkpt>
      <trkpt lat="48.74758" lon="1.7577">
        <ele>186.2</ele>
        <time>2026-03-26T09:18:32.000Z</time>
      </trkpt>
      <trkpt lat="48.74757" lon="1.75768">
        <ele>186.2</ele>
        <time>2026-03-26T09:18:33.000Z</time>
      </trkpt>
      <trkpt lat="48.74757" lon="1.75767">
        <ele>186.3</ele>
        <time>2026-03-26T09:18:34.000Z</time>
      </trkpt>
      <trkpt lat="48.74756" lon="1.75765">
        <ele>185.9</ele>
        <time>2026-03-26T09:18:35.000Z</time>
      </trkpt>
      <trkpt lat="48.74756" lon="1.75763">
        <ele>186.2</ele>
        <time>2026-03-26T09:18:36.000Z</time>
      </trkpt>
      <trkpt lat="48.74756" lon="1.75761">
        <ele>186.6</ele>
        <time>2026-03-26T09:18:37.000Z</time>
      </trkpt>
      <trkpt lat="48.74756" lon="1.75761">
        <ele>186.3</ele>
        <time>2026-03-26T09:18:38.000Z</time>
      </trkpt>
      <trkpt lat="48.74755" lon="1.75759">
        <ele>186.2</ele>
        <time>2026-03-26T09:18:39.000Z</time>
      </trkpt>
      <trkpt lat="48.74755" lon="1.75758">
        <ele>186.2</ele>
        <time>2026-03-26T09:18:40.000Z</time>
      </trkpt>
      <trkpt lat="48.74755" lon="1.75757">
        <ele>186.4</ele>
        <time>2026-03-26T09:18:41.000Z</time>
      </trkpt>
      <trkpt lat="48.74754" lon="1.75755">
        <ele>185.8</ele>
        <time>2026-03-26T09:18:42.000Z</time>
      </trkpt>
      <trkpt lat="48.74754" lon="1.75754">
        <ele>185.8</ele>
        <time>2026-03-26T09:18:43.000Z</time>
      </trkpt>
      <trkpt lat="48.74753" lon="1.75752">
        <ele>186.5</ele>
        <time>2026-03-26T09:18:44.000Z</time>
      </trkpt>
      <trkpt lat="48.74753" lon="1.7575">
        <ele>185.9</ele>
        <time>2026-03-26T09:18:45.000Z</time>
      </trkpt>
      <trkpt lat="48.74752" lon="1.75749">
        <ele>185.7</ele>
        <time>2026-03-26T09:18:46.000Z</time>
      </trkpt>
      <trkpt lat="48.74752" lon="1.75747">
        <ele>185.9</ele>
        <time>2026-03-26T09:18:47.000Z</time>
      </trkpt>
      <trkpt lat="48.74752" lon="1.75746">
        <ele>185.9</ele>
        <time>2026-03-26T09:18:48.000Z</time>
      </trkpt>
      <trkpt lat="48.74751" lon="1.75744">
        <ele>185.4</ele>
        <time>2026-03-26T09:18:49.000Z</time>
      </trkpt>
      <trkpt lat="48.74751" lon="1.75743">
        <ele>185.5</ele>
        <time>2026-03-26T09:18:50.000Z</time>
      </trkpt>
      <trkpt lat="48.7475" lon="1.75741">
        <ele>185.3</ele>
        <time>2026-03-26T09:18:51.000Z</time>
      </trkpt>
      <trkpt lat="48.7475" lon="1.7574">
        <ele>185.5</ele>
        <time>2026-03-26T09:18:52.000Z</time>
      </trkpt>
      <trkpt lat="48.74749" lon="1.75738">
        <ele>185.5</ele>
        <time>2026-03-26T09:18:53.000Z</time>
      </trkpt>
      <trkpt lat="48.74749" lon="1.75736">
        <ele>185.4</ele>
        <time>2026-03-26T09:18:54.000Z</time>
      </trkpt>
      <trkpt lat="48.74748" lon="1.75734">
        <ele>185.2</ele>
        <time>2026-03-26T09:18:55.000Z</time>
      </trkpt>
      <trkpt lat="48.74748" lon="1.75732">
        <ele>185.9</ele>
        <time>2026-03-26T09:18:56.000Z</time>
      </trkpt>
      <trkpt lat="48.74748" lon="1.7573">
        <ele>186.2</ele>
        <time>2026-03-26T09:18:57.000Z</time>
      </trkpt>
      <trkpt lat="48.74747" lon="1.75728">
        <ele>186.5</ele>
        <time>2026-03-26T09:18:58.000Z</time>
      </trkpt>
      <trkpt lat="48.74747" lon="1.75726">
        <ele>186.4</ele>
        <time>2026-03-26T09:18:59.000Z</time>
      </trkpt>
      <trkpt lat="48.74747" lon="1.75724">
        <ele>186.5</ele>
        <time>2026-03-26T09:19:00.000Z</time>
      </trkpt>
      <trkpt lat="48.74747" lon="1.75722">
        <ele>186.2</ele>
        <time>2026-03-26T09:19:01.000Z</time>
      </trkpt>
      <trkpt lat="48.74748" lon="1.7572">
        <ele>186.4</ele>
        <time>2026-03-26T09:19:02.000Z</time>
      </trkpt>
      <trkpt lat="48.74748" lon="1.75718">
        <ele>186.3</ele>
        <time>2026-03-26T09:19:03.000Z</time>
      </trkpt>
      <trkpt lat="48.74748" lon="1.75716">
        <ele>186.6</ele>
        <time>2026-03-26T09:19:04.000Z</time>
      </trkpt>
      <trkpt lat="48.74748" lon="1.75714">
        <ele>186.8</ele>
        <time>2026-03-26T09:19:05.000Z</time>
      </trkpt>
      <trkpt lat="48.74748" lon="1.75712">
        <ele>186.9</ele>
        <time>2026-03-26T09:19:06.000Z</time>
      </trkpt>
      <trkpt lat="48.74748" lon="1.7571">
        <ele>186.9</ele>
        <time>2026-03-26T09:19:07.000Z</time>
      </trkpt>
      <trkpt lat="48.74748" lon="1.75708">
        <ele>186.7</ele>
        <time>2026-03-26T09:19:08.000Z</time>
      </trkpt>
      <trkpt lat="48.74748" lon="1.75706">
        <ele>186.6</ele>
        <time>2026-03-26T09:19:09.000Z</time>
      </trkpt>
      <trkpt lat="48.74748" lon="1.75704">
        <ele>186.4</ele>
        <time>2026-03-26T09:19:10.000Z</time>
      </trkpt>
      <trkpt lat="48.74748" lon="1.75702">
        <ele>186.6</ele>
        <time>2026-03-26T09:19:11.000Z</time>
      </trkpt>
      <trkpt lat="48.74748" lon="1.757">
        <ele>186.5</ele>
        <time>2026-03-26T09:19:12.000Z</time>
      </trkpt>
      <trkpt lat="48.74748" lon="1.75698">
        <ele>186.6</ele>
        <time>2026-03-26T09:19:13.000Z</time>
      </trkpt>
      <trkpt lat="48.74748" lon="1.75697">
        <ele>186.4</ele>
        <time>2026-03-26T09:19:14.000Z</time>
      </trkpt>
      <trkpt lat="48.74748" lon="1.75695">
        <ele>186.4</ele>
        <time>2026-03-26T09:19:15.000Z</time>
      </trkpt>
      <trkpt lat="48.74748" lon="1.75693">
        <ele>186.5</ele>
        <time>2026-03-26T09:19:16.000Z</time>
      </trkpt>
      <trkpt lat="48.74749" lon="1.75691">
        <ele>186.3</ele>
        <time>2026-03-26T09:19:17.000Z</time>
      </trkpt>
      <trkpt lat="48.74749" lon="1.75689">
        <ele>186.3</ele>
        <time>2026-03-26T09:19:18.000Z</time>
      </trkpt>
      <trkpt lat="48.74749" lon="1.75687">
        <ele>186.4</ele>
        <time>2026-03-26T09:19:19.000Z</time>
      </trkpt>
      <trkpt lat="48.74749" lon="1.75685">
        <ele>186.5</ele>
        <time>2026-03-26T09:19:20.000Z</time>
      </trkpt>
      <trkpt lat="48.74749" lon="1.75683">
        <ele>186.4</ele>
        <time>2026-03-26T09:19:21.000Z</time>
      </trkpt>
      <trkpt lat="48.7475" lon="1.75681">
        <ele>186.7</ele>
        <time>2026-03-26T09:19:22.000Z</time>
      </trkpt>
      <trkpt lat="48.7475" lon="1.75678">
        <ele>187.4</ele>
        <time>2026-03-26T09:19:23.000Z</time>
      </trkpt>
      <trkpt lat="48.7475" lon="1.75676">
        <ele>187.1</ele>
        <time>2026-03-26T09:19:24.000Z</time>
      </trkpt>
      <trkpt lat="48.7475" lon="1.75674">
        <ele>187.2</ele>
        <time>2026-03-26T09:19:25.000Z</time>
      </trkpt>
      <trkpt lat="48.7475" lon="1.75672">
        <ele>187.3</ele>
        <time>2026-03-26T09:19:26.000Z</time>
      </trkpt>
      <trkpt lat="48.74751" lon="1.7567">
        <ele>187.6</ele>
        <time>2026-03-26T09:19:27.000Z</time>
      </trkpt>
      <trkpt lat="48.74751" lon="1.75667">
        <ele>188</ele>
        <time>2026-03-26T09:19:28.000Z</time>
      </trkpt>
      <trkpt lat="48.74752" lon="1.75665">
        <ele>187.9</ele>
        <time>2026-03-26T09:19:29.000Z</time>
      </trkpt>
      <trkpt lat="48.74752" lon="1.75663">
        <ele>188</ele>
        <time>2026-03-26T09:19:30.000Z</time>
      </trkpt>
      <trkpt lat="48.74753" lon="1.75661">
        <ele>187.8</ele>
        <time>2026-03-26T09:19:31.000Z</time>
      </trkpt>
      <trkpt lat="48.74753" lon="1.7566">
        <ele>188.1</ele>
        <time>2026-03-26T09:19:32.000Z</time>
      </trkpt>
      <trkpt lat="48.74754" lon="1.75658">
        <ele>188.4</ele>
        <time>2026-03-26T09:19:33.000Z</time>
      </trkpt>
      <trkpt lat="48.74755" lon="1.75656">
        <ele>187.8</ele>
        <time>2026-03-26T09:19:34.000Z</time>
      </trkpt>
      <trkpt lat="48.74756" lon="1.75655">
        <ele>187.2</ele>
        <time>2026-03-26T09:19:35.000Z</time>
      </trkpt>
      <trkpt lat="48.74756" lon="1.75652">
        <ele>187.4</ele>
        <time>2026-03-26T09:19:36.000Z</time>
      </trkpt>
      <trkpt lat="48.74756" lon="1.7565">
        <ele>187.2</ele>
        <time>2026-03-26T09:19:37.000Z</time>
      </trkpt>
      <trkpt lat="48.74757" lon="1.75648">
        <ele>186.8</ele>
        <time>2026-03-26T09:19:38.000Z</time>
      </trkpt>
      <trkpt lat="48.74757" lon="1.75646">
        <ele>186.9</ele>
        <time>2026-03-26T09:19:39.000Z</time>
      </trkpt>
      <trkpt lat="48.74757" lon="1.75644">
        <ele>187.3</ele>
        <time>2026-03-26T09:19:40.000Z</time>
      </trkpt>
      <trkpt lat="48.74758" lon="1.75641">
        <ele>187.7</ele>
        <time>2026-03-26T09:19:41.000Z</time>
      </trkpt>
      <trkpt lat="48.74758" lon="1.75639">
        <ele>187</ele>
        <time>2026-03-26T09:19:42.000Z</time>
      </trkpt>
      <trkpt lat="48.74759" lon="1.75638">
        <ele>187.1</ele>
        <time>2026-03-26T09:19:43.000Z</time>
      </trkpt>
      <trkpt lat="48.7476" lon="1.75636">
        <ele>187</ele>
        <time>2026-03-26T09:19:44.000Z</time>
      </trkpt>
      <trkpt lat="48.74761" lon="1.75634">
        <ele>187.1</ele>
        <time>2026-03-26T09:19:45.000Z</time>
      </trkpt>
      <trkpt lat="48.74762" lon="1.75632">
        <ele>187.1</ele>
        <time>2026-03-26T09:19:46.000Z</time>
      </trkpt>
      <trkpt lat="48.74762" lon="1.7563">
        <ele>186.8</ele>
        <time>2026-03-26T09:19:47.000Z</time>
      </trkpt>
      <trkpt lat="48.74763" lon="1.75628">
        <ele>186.4</ele>
        <time>2026-03-26T09:19:48.000Z</time>
      </trkpt>
      <trkpt lat="48.74764" lon="1.75626">
        <ele>186.7</ele>
        <time>2026-03-26T09:19:49.000Z</time>
      </trkpt>
      <trkpt lat="48.74764" lon="1.75624">
        <ele>187</ele>
        <time>2026-03-26T09:19:50.000Z</time>
      </trkpt>
      <trkpt lat="48.74765" lon="1.75622">
        <ele>186.9</ele>
        <time>2026-03-26T09:19:51.000Z</time>
      </trkpt>
      <trkpt lat="48.74766" lon="1.7562">
        <ele>186.8</ele>
        <time>2026-03-26T09:19:52.000Z</time>
      </trkpt>
      <trkpt lat="48.74766" lon="1.75618">
        <ele>186.6</ele>
        <time>2026-03-26T09:19:53.000Z</time>
      </trkpt>
      <trkpt lat="48.74767" lon="1.75616">
        <ele>186.6</ele>
        <time>2026-03-26T09:19:54.000Z</time>
      </trkpt>
      <trkpt lat="48.74768" lon="1.75614">
        <ele>187.1</ele>
        <time>2026-03-26T09:19:55.000Z</time>
      </trkpt>
      <trkpt lat="48.74768" lon="1.75612">
        <ele>187</ele>
        <time>2026-03-26T09:19:56.000Z</time>
      </trkpt>
      <trkpt lat="48.74769" lon="1.7561">
        <ele>186.5</ele>
        <time>2026-03-26T09:19:57.000Z</time>
      </trkpt>
      <trkpt lat="48.7477" lon="1.75608">
        <ele>186</ele>
        <time>2026-03-26T09:19:58.000Z</time>
      </trkpt>
      <trkpt lat="48.7477" lon="1.75606">
        <ele>186.6</ele>
        <time>2026-03-26T09:19:59.000Z</time>
      </trkpt>
      <trkpt lat="48.74771" lon="1.75605">
        <ele>185.9</ele>
        <time>2026-03-26T09:20:00.000Z</time>
      </trkpt>
      <trkpt lat="48.74772" lon="1.75603">
        <ele>185.9</ele>
        <time>2026-03-26T09:20:01.000Z</time>
      </trkpt>
      <trkpt lat="48.74772" lon="1.75601">
        <ele>185.7</ele>
        <time>2026-03-26T09:20:02.000Z</time>
      </trkpt>
      <trkpt lat="48.74773" lon="1.75599">
        <ele>185.6</ele>
        <time>2026-03-26T09:20:03.000Z</time>
      </trkpt>
      <trkpt lat="48.74774" lon="1.75597">
        <ele>185.8</ele>
        <time>2026-03-26T09:20:04.000Z</time>
      </trkpt>
      <trkpt lat="48.74775" lon="1.75595">
        <ele>185.7</ele>
        <time>2026-03-26T09:20:05.000Z</time>
      </trkpt>
      <trkpt lat="48.74776" lon="1.75594">
        <ele>185.8</ele>
        <time>2026-03-26T09:20:06.000Z</time>
      </trkpt>
      <trkpt lat="48.74776" lon="1.75592">
        <ele>185.8</ele>
        <time>2026-03-26T09:20:07.000Z</time>
      </trkpt>
      <trkpt lat="48.74777" lon="1.7559">
        <ele>186.4</ele>
        <time>2026-03-26T09:20:08.000Z</time>
      </trkpt>
      <trkpt lat="48.74778" lon="1.75588">
        <ele>186.8</ele>
        <time>2026-03-26T09:20:09.000Z</time>
      </trkpt>
      <trkpt lat="48.74779" lon="1.75586">
        <ele>186.8</ele>
        <time>2026-03-26T09:20:10.000Z</time>
      </trkpt>
      <trkpt lat="48.7478" lon="1.75585">
        <ele>186.7</ele>
        <time>2026-03-26T09:20:11.000Z</time>
      </trkpt>
      <trkpt lat="48.74781" lon="1.75583">
        <ele>187.2</ele>
        <time>2026-03-26T09:20:12.000Z</time>
      </trkpt>
      <trkpt lat="48.74781" lon="1.75581">
        <ele>187</ele>
        <time>2026-03-26T09:20:13.000Z</time>
      </trkpt>
      <trkpt lat="48.74782" lon="1.75579">
        <ele>186.7</ele>
        <time>2026-03-26T09:20:14.000Z</time>
      </trkpt>
      <trkpt lat="48.74783" lon="1.75577">
        <ele>186.5</ele>
        <time>2026-03-26T09:20:15.000Z</time>
      </trkpt>
      <trkpt lat="48.74784" lon="1.75576">
        <ele>186</ele>
        <time>2026-03-26T09:20:16.000Z</time>
      </trkpt>
      <trkpt lat="48.74784" lon="1.75574">
        <ele>185.7</ele>
        <time>2026-03-26T09:20:17.000Z</time>
      </trkpt>
      <trkpt lat="48.74785" lon="1.75572">
        <ele>185.6</ele>
        <time>2026-03-26T09:20:18.000Z</time>
      </trkpt>
      <trkpt lat="48.74786" lon="1.7557">
        <ele>185.7</ele>
        <time>2026-03-26T09:20:19.000Z</time>
      </trkpt>
      <trkpt lat="48.74786" lon="1.75568">
        <ele>185.4</ele>
        <time>2026-03-26T09:20:20.000Z</time>
      </trkpt>
      <trkpt lat="48.74787" lon="1.75567">
        <ele>185.2</ele>
        <time>2026-03-26T09:20:21.000Z</time>
      </trkpt>
      <trkpt lat="48.74788" lon="1.75565">
        <ele>185.6</ele>
        <time>2026-03-26T09:20:22.000Z</time>
      </trkpt>
      <trkpt lat="48.74789" lon="1.75563">
        <ele>185.8</ele>
        <time>2026-03-26T09:20:23.000Z</time>
      </trkpt>
      <trkpt lat="48.74789" lon="1.75561">
        <ele>186</ele>
        <time>2026-03-26T09:20:24.000Z</time>
      </trkpt>
      <trkpt lat="48.7479" lon="1.75559">
        <ele>187</ele>
        <time>2026-03-26T09:20:25.000Z</time>
      </trkpt>
      <trkpt lat="48.74791" lon="1.75558">
        <ele>187.2</ele>
        <time>2026-03-26T09:20:26.000Z</time>
      </trkpt>
      <trkpt lat="48.74792" lon="1.75556">
        <ele>187.1</ele>
        <time>2026-03-26T09:20:27.000Z</time>
      </trkpt>
      <trkpt lat="48.74793" lon="1.75555">
        <ele>187.9</ele>
        <time>2026-03-26T09:20:28.000Z</time>
      </trkpt>
      <trkpt lat="48.74793" lon="1.75553">
        <ele>187.8</ele>
        <time>2026-03-26T09:20:29.000Z</time>
      </trkpt>
      <trkpt lat="48.74794" lon="1.75551">
        <ele>188</ele>
        <time>2026-03-26T09:20:30.000Z</time>
      </trkpt>
      <trkpt lat="48.74795" lon="1.7555">
        <ele>188.3</ele>
        <time>2026-03-26T09:20:31.000Z</time>
      </trkpt>
      <trkpt lat="48.74796" lon="1.75548">
        <ele>188.1</ele>
        <time>2026-03-26T09:20:32.000Z</time>
      </trkpt>
      <trkpt lat="48.74797" lon="1.75546">
        <ele>187.8</ele>
        <time>2026-03-26T09:20:33.000Z</time>
      </trkpt>
      <trkpt lat="48.74797" lon="1.75544">
        <ele>187.8</ele>
        <time>2026-03-26T09:20:34.000Z</time>
      </trkpt>
      <trkpt lat="48.74798" lon="1.75543">
        <ele>187.7</ele>
        <time>2026-03-26T09:20:35.000Z</time>
      </trkpt>
      <trkpt lat="48.74799" lon="1.75541">
        <ele>187.2</ele>
        <time>2026-03-26T09:20:36.000Z</time>
      </trkpt>
      <trkpt lat="48.748" lon="1.75539">
        <ele>187.3</ele>
        <time>2026-03-26T09:20:37.000Z</time>
      </trkpt>
      <trkpt lat="48.74801" lon="1.75537">
        <ele>187.4</ele>
        <time>2026-03-26T09:20:38.000Z</time>
      </trkpt>
      <trkpt lat="48.74802" lon="1.75535">
        <ele>186.9</ele>
        <time>2026-03-26T09:20:39.000Z</time>
      </trkpt>
      <trkpt lat="48.74802" lon="1.75533">
        <ele>186.7</ele>
        <time>2026-03-26T09:20:40.000Z</time>
      </trkpt>
      <trkpt lat="48.74803" lon="1.75531">
        <ele>186.4</ele>
        <time>2026-03-26T09:20:41.000Z</time>
      </trkpt>
      <trkpt lat="48.74804" lon="1.7553">
        <ele>187</ele>
        <time>2026-03-26T09:20:42.000Z</time>
      </trkpt>
      <trkpt lat="48.74805" lon="1.75527">
        <ele>187.4</ele>
        <time>2026-03-26T09:20:43.000Z</time>
      </trkpt>
      <trkpt lat="48.74806" lon="1.75525">
        <ele>187.9</ele>
        <time>2026-03-26T09:20:44.000Z</time>
      </trkpt>
      <trkpt lat="48.74807" lon="1.75524">
        <ele>187.7</ele>
        <time>2026-03-26T09:20:45.000Z</time>
      </trkpt>
      <trkpt lat="48.74808" lon="1.75522">
        <ele>187.9</ele>
        <time>2026-03-26T09:20:46.000Z</time>
      </trkpt>
      <trkpt lat="48.74809" lon="1.7552">
        <ele>188.1</ele>
        <time>2026-03-26T09:20:47.000Z</time>
      </trkpt>
      <trkpt lat="48.7481" lon="1.75518">
        <ele>188.3</ele>
        <time>2026-03-26T09:20:48.000Z</time>
      </trkpt>
      <trkpt lat="48.74811" lon="1.75517">
        <ele>188.3</ele>
        <time>2026-03-26T09:20:49.000Z</time>
      </trkpt>
      <trkpt lat="48.74811" lon="1.75514">
        <ele>188.3</ele>
        <time>2026-03-26T09:20:50.000Z</time>
      </trkpt>
      <trkpt lat="48.74812" lon="1.75513">
        <ele>188.1</ele>
        <time>2026-03-26T09:20:51.000Z</time>
      </trkpt>
      <trkpt lat="48.74812" lon="1.75511">
        <ele>187.7</ele>
        <time>2026-03-26T09:20:52.000Z</time>
      </trkpt>
      <trkpt lat="48.74813" lon="1.75509">
        <ele>187.9</ele>
        <time>2026-03-26T09:20:53.000Z</time>
      </trkpt>
      <trkpt lat="48.74813" lon="1.75507">
        <ele>187.6</ele>
        <time>2026-03-26T09:20:54.000Z</time>
      </trkpt>
      <trkpt lat="48.74813" lon="1.75506">
        <ele>187.3</ele>
        <time>2026-03-26T09:20:55.000Z</time>
      </trkpt>
      <trkpt lat="48.74813" lon="1.75504">
        <ele>187.1</ele>
        <time>2026-03-26T09:20:56.000Z</time>
      </trkpt>
      <trkpt lat="48.74814" lon="1.75502">
        <ele>187.5</ele>
        <time>2026-03-26T09:20:57.000Z</time>
      </trkpt>
      <trkpt lat="48.74814" lon="1.755">
        <ele>187.6</ele>
        <time>2026-03-26T09:20:58.000Z</time>
      </trkpt>
      <trkpt lat="48.74814" lon="1.75498">
        <ele>187.5</ele>
        <time>2026-03-26T09:20:59.000Z</time>
      </trkpt>
      <trkpt lat="48.74814" lon="1.75497">
        <ele>187.3</ele>
        <time>2026-03-26T09:21:00.000Z</time>
      </trkpt>
      <trkpt lat="48.74814" lon="1.75495">
        <ele>187.6</ele>
        <time>2026-03-26T09:21:01.000Z</time>
      </trkpt>
      <trkpt lat="48.74814" lon="1.75493">
        <ele>187.3</ele>
        <time>2026-03-26T09:21:02.000Z</time>
      </trkpt>
      <trkpt lat="48.74814" lon="1.75491">
        <ele>186.9</ele>
        <time>2026-03-26T09:21:03.000Z</time>
      </trkpt>
      <trkpt lat="48.74813" lon="1.75489">
        <ele>186.7</ele>
        <time>2026-03-26T09:21:04.000Z</time>
      </trkpt>
      <trkpt lat="48.74813" lon="1.75487">
        <ele>186.2</ele>
        <time>2026-03-26T09:21:05.000Z</time>
      </trkpt>
      <trkpt lat="48.74812" lon="1.75485">
        <ele>186.2</ele>
        <time>2026-03-26T09:21:06.000Z</time>
      </trkpt>
      <trkpt lat="48.74812" lon="1.75484">
        <ele>185.9</ele>
        <time>2026-03-26T09:21:07.000Z</time>
      </trkpt>
      <trkpt lat="48.74811" lon="1.75482">
        <ele>185.7</ele>
        <time>2026-03-26T09:21:08.000Z</time>
      </trkpt>
      <trkpt lat="48.74811" lon="1.7548">
        <ele>185.5</ele>
        <time>2026-03-26T09:21:09.000Z</time>
      </trkpt>
      <trkpt lat="48.7481" lon="1.75478">
        <ele>185.2</ele>
        <time>2026-03-26T09:21:10.000Z</time>
      </trkpt>
      <trkpt lat="48.74809" lon="1.75477">
        <ele>184.9</ele>
        <time>2026-03-26T09:21:11.000Z</time>
      </trkpt>
      <trkpt lat="48.74809" lon="1.75476">
        <ele>184.7</ele>
        <time>2026-03-26T09:21:12.000Z</time>
      </trkpt>
      <trkpt lat="48.74808" lon="1.75474">
        <ele>184.2</ele>
        <time>2026-03-26T09:21:13.000Z</time>
      </trkpt>
      <trkpt lat="48.74807" lon="1.75472">
        <ele>184</ele>
        <time>2026-03-26T09:21:14.000Z</time>
      </trkpt>
      <trkpt lat="48.74806" lon="1.7547">
        <ele>183.8</ele>
        <time>2026-03-26T09:21:15.000Z</time>
      </trkpt>
      <trkpt lat="48.74805" lon="1.75469">
        <ele>183.4</ele>
        <time>2026-03-26T09:21:16.000Z</time>
      </trkpt>
      <trkpt lat="48.74805" lon="1.75467">
        <ele>183.2</ele>
        <time>2026-03-26T09:21:17.000Z</time>
      </trkpt>
      <trkpt lat="48.74804" lon="1.75465">
        <ele>183.1</ele>
        <time>2026-03-26T09:21:18.000Z</time>
      </trkpt>
      <trkpt lat="48.74804" lon="1.75464">
        <ele>183.2</ele>
        <time>2026-03-26T09:21:19.000Z</time>
      </trkpt>
      <trkpt lat="48.74803" lon="1.75462">
        <ele>183.2</ele>
        <time>2026-03-26T09:21:20.000Z</time>
      </trkpt>
      <trkpt lat="48.74803" lon="1.7546">
        <ele>183.2</ele>
        <time>2026-03-26T09:21:21.000Z</time>
      </trkpt>
      <trkpt lat="48.74802" lon="1.75458">
        <ele>183.1</ele>
        <time>2026-03-26T09:21:22.000Z</time>
      </trkpt>
      <trkpt lat="48.74802" lon="1.75457">
        <ele>183.1</ele>
        <time>2026-03-26T09:21:23.000Z</time>
      </trkpt>
      <trkpt lat="48.74801" lon="1.75455">
        <ele>183.1</ele>
        <time>2026-03-26T09:21:24.000Z</time>
      </trkpt>
      <trkpt lat="48.748" lon="1.75454">
        <ele>183.1</ele>
        <time>2026-03-26T09:21:25.000Z</time>
      </trkpt>
      <trkpt lat="48.74799" lon="1.75453">
        <ele>183.4</ele>
        <time>2026-03-26T09:21:26.000Z</time>
      </trkpt>
      <trkpt lat="48.74798" lon="1.75452">
        <ele>183.2</ele>
        <time>2026-03-26T09:21:27.000Z</time>
      </trkpt>
      <trkpt lat="48.74796" lon="1.75451">
        <ele>183.3</ele>
        <time>2026-03-26T09:21:28.000Z</time>
      </trkpt>
      <trkpt lat="48.74795" lon="1.7545">
        <ele>182.5</ele>
        <time>2026-03-26T09:21:29.000Z</time>
      </trkpt>
      <trkpt lat="48.74794" lon="1.75449">
        <ele>181.6</ele>
        <time>2026-03-26T09:21:30.000Z</time>
      </trkpt>
      <trkpt lat="48.74793" lon="1.75447">
        <ele>181.8</ele>
        <time>2026-03-26T09:21:31.000Z</time>
      </trkpt>
      <trkpt lat="48.74792" lon="1.75445">
        <ele>181.9</ele>
        <time>2026-03-26T09:21:32.000Z</time>
      </trkpt>
      <trkpt lat="48.74791" lon="1.75443">
        <ele>181.8</ele>
        <time>2026-03-26T09:21:33.000Z</time>
      </trkpt>
      <trkpt lat="48.7479" lon="1.75442">
        <ele>182.4</ele>
        <time>2026-03-26T09:21:34.000Z</time>
      </trkpt>
      <trkpt lat="48.74789" lon="1.7544">
        <ele>183.7</ele>
        <time>2026-03-26T09:21:35.000Z</time>
      </trkpt>
      <trkpt lat="48.74787" lon="1.75439">
        <ele>183.9</ele>
        <time>2026-03-26T09:21:36.000Z</time>
      </trkpt>
      <trkpt lat="48.74786" lon="1.75438">
        <ele>183.7</ele>
        <time>2026-03-26T09:21:37.000Z</time>
      </trkpt>
      <trkpt lat="48.74785" lon="1.75436">
        <ele>183.7</ele>
        <time>2026-03-26T09:21:38.000Z</time>
      </trkpt>
      <trkpt lat="48.74784" lon="1.75435">
        <ele>183.1</ele>
        <time>2026-03-26T09:21:39.000Z</time>
      </trkpt>
      <trkpt lat="48.74782" lon="1.75434">
        <ele>182.8</ele>
        <time>2026-03-26T09:21:40.000Z</time>
      </trkpt>
      <trkpt lat="48.74781" lon="1.75433">
        <ele>182.6</ele>
        <time>2026-03-26T09:21:41.000Z</time>
      </trkpt>
      <trkpt lat="48.7478" lon="1.75432">
        <ele>182.5</ele>
        <time>2026-03-26T09:21:42.000Z</time>
      </trkpt>
      <trkpt lat="48.74778" lon="1.75431">
        <ele>182.5</ele>
        <time>2026-03-26T09:21:43.000Z</time>
      </trkpt>
      <trkpt lat="48.74777" lon="1.7543">
        <ele>182.3</ele>
        <time>2026-03-26T09:21:44.000Z</time>
      </trkpt>
      <trkpt lat="48.74776" lon="1.75429">
        <ele>182.5</ele>
        <time>2026-03-26T09:21:45.000Z</time>
      </trkpt>
      <trkpt lat="48.74774" lon="1.75427">
        <ele>182.2</ele>
        <time>2026-03-26T09:21:46.000Z</time>
      </trkpt>
      <trkpt lat="48.74773" lon="1.75426">
        <ele>182</ele>
        <time>2026-03-26T09:21:47.000Z</time>
      </trkpt>
      <trkpt lat="48.74772" lon="1.75425">
        <ele>182.2</ele>
        <time>2026-03-26T09:21:48.000Z</time>
      </trkpt>
      <trkpt lat="48.74771" lon="1.75423">
        <ele>182</ele>
        <time>2026-03-26T09:21:49.000Z</time>
      </trkpt>
      <trkpt lat="48.7477" lon="1.75422">
        <ele>182.3</ele>
        <time>2026-03-26T09:21:50.000Z</time>
      </trkpt>
      <trkpt lat="48.74769" lon="1.75421">
        <ele>182.4</ele>
        <time>2026-03-26T09:21:51.000Z</time>
      </trkpt>
      <trkpt lat="48.74768" lon="1.7542">
        <ele>182.1</ele>
        <time>2026-03-26T09:21:52.000Z</time>
      </trkpt>
      <trkpt lat="48.74767" lon="1.75419">
        <ele>182.3</ele>
        <time>2026-03-26T09:21:53.000Z</time>
      </trkpt>
      <trkpt lat="48.74766" lon="1.75417">
        <ele>182.2</ele>
        <time>2026-03-26T09:21:54.000Z</time>
      </trkpt>
      <trkpt lat="48.74765" lon="1.75416">
        <ele>182.1</ele>
        <time>2026-03-26T09:21:55.000Z</time>
      </trkpt>
      <trkpt lat="48.74763" lon="1.75415">
        <ele>182.4</ele>
        <time>2026-03-26T09:21:56.000Z</time>
      </trkpt>
      <trkpt lat="48.74762" lon="1.75414">
        <ele>182.2</ele>
        <time>2026-03-26T09:21:57.000Z</time>
      </trkpt>
      <trkpt lat="48.7476" lon="1.75413">
        <ele>182.3</ele>
        <time>2026-03-26T09:21:58.000Z</time>
      </trkpt>
      <trkpt lat="48.74759" lon="1.75412">
        <ele>182.1</ele>
        <time>2026-03-26T09:21:59.000Z</time>
      </trkpt>
      <trkpt lat="48.74758" lon="1.75411">
        <ele>182.1</ele>
        <time>2026-03-26T09:22:00.000Z</time>
      </trkpt>
      <trkpt lat="48.74757" lon="1.7541">
        <ele>182.4</ele>
        <time>2026-03-26T09:22:01.000Z</time>
      </trkpt>
      <trkpt lat="48.74755" lon="1.75409">
        <ele>182.8</ele>
        <time>2026-03-26T09:22:02.000Z</time>
      </trkpt>
      <trkpt lat="48.74754" lon="1.75408">
        <ele>182.9</ele>
        <time>2026-03-26T09:22:03.000Z</time>
      </trkpt>
      <trkpt lat="48.74753" lon="1.75407">
        <ele>183.4</ele>
        <time>2026-03-26T09:22:04.000Z</time>
      </trkpt>
      <trkpt lat="48.74752" lon="1.75405">
        <ele>184</ele>
        <time>2026-03-26T09:22:05.000Z</time>
      </trkpt>
      <trkpt lat="48.74751" lon="1.75405">
        <ele>183.7</ele>
        <time>2026-03-26T09:22:06.000Z</time>
      </trkpt>
      <trkpt lat="48.74749" lon="1.75404">
        <ele>184</ele>
        <time>2026-03-26T09:22:07.000Z</time>
      </trkpt>
      <trkpt lat="48.74748" lon="1.75402">
        <ele>184.1</ele>
        <time>2026-03-26T09:22:08.000Z</time>
      </trkpt>
      <trkpt lat="48.74747" lon="1.75401">
        <ele>184.8</ele>
        <time>2026-03-26T09:22:09.000Z</time>
      </trkpt>
      <trkpt lat="48.74746" lon="1.754">
        <ele>185.6</ele>
        <time>2026-03-26T09:22:10.000Z</time>
      </trkpt>
      <trkpt lat="48.74745" lon="1.75399">
        <ele>186</ele>
        <time>2026-03-26T09:22:11.000Z</time>
      </trkpt>
      <trkpt lat="48.74743" lon="1.75398">
        <ele>186</ele>
        <time>2026-03-26T09:22:12.000Z</time>
      </trkpt>
      <trkpt lat="48.74742" lon="1.75396">
        <ele>186.2</ele>
        <time>2026-03-26T09:22:13.000Z</time>
      </trkpt>
      <trkpt lat="48.74741" lon="1.75395">
        <ele>186.3</ele>
        <time>2026-03-26T09:22:14.000Z</time>
      </trkpt>
      <trkpt lat="48.7474" lon="1.75394">
        <ele>185.5</ele>
        <time>2026-03-26T09:22:15.000Z</time>
      </trkpt>
      <trkpt lat="48.74739" lon="1.75393">
        <ele>185.5</ele>
        <time>2026-03-26T09:22:16.000Z</time>
      </trkpt>
      <trkpt lat="48.74738" lon="1.75392">
        <ele>185.7</ele>
        <time>2026-03-26T09:22:17.000Z</time>
      </trkpt>
      <trkpt lat="48.74737" lon="1.75391">
        <ele>185.6</ele>
        <time>2026-03-26T09:22:18.000Z</time>
      </trkpt>
      <trkpt lat="48.74736" lon="1.75389">
        <ele>185.9</ele>
        <time>2026-03-26T09:22:19.000Z</time>
      </trkpt>
      <trkpt lat="48.74734" lon="1.75388">
        <ele>186.3</ele>
        <time>2026-03-26T09:22:20.000Z</time>
      </trkpt>
      <trkpt lat="48.74733" lon="1.75387">
        <ele>186.3</ele>
        <time>2026-03-26T09:22:21.000Z</time>
      </trkpt>
      <trkpt lat="48.74732" lon="1.75386">
        <ele>186</ele>
        <time>2026-03-26T09:22:22.000Z</time>
      </trkpt>
      <trkpt lat="48.74731" lon="1.75385">
        <ele>186</ele>
        <time>2026-03-26T09:22:23.000Z</time>
      </trkpt>
      <trkpt lat="48.7473" lon="1.75384">
        <ele>186</ele>
        <time>2026-03-26T09:22:24.000Z</time>
      </trkpt>
      <trkpt lat="48.74728" lon="1.75383">
        <ele>185.9</ele>
        <time>2026-03-26T09:22:25.000Z</time>
      </trkpt>
      <trkpt lat="48.74727" lon="1.75382">
        <ele>185.7</ele>
        <time>2026-03-26T09:22:26.000Z</time>
      </trkpt>
      <trkpt lat="48.74726" lon="1.7538">
        <ele>185.5</ele>
        <time>2026-03-26T09:22:27.000Z</time>
      </trkpt>
      <trkpt lat="48.74725" lon="1.75379">
        <ele>185.4</ele>
        <time>2026-03-26T09:22:28.000Z</time>
      </trkpt>
      <trkpt lat="48.74724" lon="1.75378">
        <ele>184.9</ele>
        <time>2026-03-26T09:22:29.000Z</time>
      </trkpt>
      <trkpt lat="48.74722" lon="1.75377">
        <ele>184.9</ele>
        <time>2026-03-26T09:22:30.000Z</time>
      </trkpt>
      <trkpt lat="48.74721" lon="1.75376">
        <ele>185.3</ele>
        <time>2026-03-26T09:22:31.000Z</time>
      </trkpt>
      <trkpt lat="48.7472" lon="1.75374">
        <ele>185.3</ele>
        <time>2026-03-26T09:22:32.000Z</time>
      </trkpt>
      <trkpt lat="48.74719" lon="1.75374">
        <ele>185.8</ele>
        <time>2026-03-26T09:22:33.000Z</time>
      </trkpt>
      <trkpt lat="48.74718" lon="1.75373">
        <ele>185.9</ele>
        <time>2026-03-26T09:22:34.000Z</time>
      </trkpt>
      <trkpt lat="48.74717" lon="1.75371">
        <ele>186.3</ele>
        <time>2026-03-26T09:22:35.000Z</time>
      </trkpt>
      <trkpt lat="48.74716" lon="1.7537">
        <ele>187</ele>
        <time>2026-03-26T09:22:36.000Z</time>
      </trkpt>
      <trkpt lat="48.74715" lon="1.75369">
        <ele>187.7</ele>
        <time>2026-03-26T09:22:37.000Z</time>
      </trkpt>
      <trkpt lat="48.74714" lon="1.75368">
        <ele>188.4</ele>
        <time>2026-03-26T09:22:38.000Z</time>
      </trkpt>
      <trkpt lat="48.74713" lon="1.75367">
        <ele>188.7</ele>
        <time>2026-03-26T09:22:39.000Z</time>
      </trkpt>
      <trkpt lat="48.74712" lon="1.75366">
        <ele>188.6</ele>
        <time>2026-03-26T09:22:40.000Z</time>
      </trkpt>
      <trkpt lat="48.7471" lon="1.75364">
        <ele>188.6</ele>
        <time>2026-03-26T09:22:41.000Z</time>
      </trkpt>
      <trkpt lat="48.74709" lon="1.75363">
        <ele>188.7</ele>
        <time>2026-03-26T09:22:42.000Z</time>
      </trkpt>
      <trkpt lat="48.74709" lon="1.75361">
        <ele>188.4</ele>
        <time>2026-03-26T09:22:43.000Z</time>
      </trkpt>
      <trkpt lat="48.74708" lon="1.75361">
        <ele>188.2</ele>
        <time>2026-03-26T09:22:44.000Z</time>
      </trkpt>
      <trkpt lat="48.74707" lon="1.7536">
        <ele>188.3</ele>
        <time>2026-03-26T09:22:45.000Z</time>
      </trkpt>
      <trkpt lat="48.74705" lon="1.75358">
        <ele>188.2</ele>
        <time>2026-03-26T09:22:46.000Z</time>
      </trkpt>
      <trkpt lat="48.74704" lon="1.75357">
        <ele>188</ele>
        <time>2026-03-26T09:22:47.000Z</time>
      </trkpt>
      <trkpt lat="48.74703" lon="1.75356">
        <ele>187.8</ele>
        <time>2026-03-26T09:22:48.000Z</time>
      </trkpt>
      <trkpt lat="48.74702" lon="1.75355">
        <ele>187.3</ele>
        <time>2026-03-26T09:22:49.000Z</time>
      </trkpt>
      <trkpt lat="48.74701" lon="1.75354">
        <ele>187.1</ele>
        <time>2026-03-26T09:22:50.000Z</time>
      </trkpt>
      <trkpt lat="48.747" lon="1.75353">
        <ele>187</ele>
        <time>2026-03-26T09:22:51.000Z</time>
      </trkpt>
      <trkpt lat="48.74699" lon="1.75351">
        <ele>187.1</ele>
        <time>2026-03-26T09:22:52.000Z</time>
      </trkpt>
      <trkpt lat="48.74698" lon="1.7535">
        <ele>187.5</ele>
        <time>2026-03-26T09:22:53.000Z</time>
      </trkpt>
      <trkpt lat="48.74696" lon="1.75349">
        <ele>187.5</ele>
        <time>2026-03-26T09:22:54.000Z</time>
      </trkpt>
      <trkpt lat="48.74695" lon="1.75348">
        <ele>187.4</ele>
        <time>2026-03-26T09:22:55.000Z</time>
      </trkpt>
      <trkpt lat="48.74694" lon="1.75347">
        <ele>187.5</ele>
        <time>2026-03-26T09:22:56.000Z</time>
      </trkpt>
      <trkpt lat="48.74693" lon="1.75346">
        <ele>187.4</ele>
        <time>2026-03-26T09:22:57.000Z</time>
      </trkpt>
      <trkpt lat="48.74692" lon="1.75345">
        <ele>186.9</ele>
        <time>2026-03-26T09:22:58.000Z</time>
      </trkpt>
      <trkpt lat="48.7469" lon="1.75344">
        <ele>186.9</ele>
        <time>2026-03-26T09:22:59.000Z</time>
      </trkpt>
      <trkpt lat="48.74689" lon="1.75343">
        <ele>186.9</ele>
        <time>2026-03-26T09:23:00.000Z</time>
      </trkpt>
      <trkpt lat="48.74688" lon="1.75342">
        <ele>187.4</ele>
        <time>2026-03-26T09:23:01.000Z</time>
      </trkpt>
      <trkpt lat="48.74687" lon="1.75341">
        <ele>187.7</ele>
        <time>2026-03-26T09:23:02.000Z</time>
      </trkpt>
      <trkpt lat="48.74686" lon="1.7534">
        <ele>187.8</ele>
        <time>2026-03-26T09:23:03.000Z</time>
      </trkpt>
      <trkpt lat="48.74684" lon="1.75339">
        <ele>187.9</ele>
        <time>2026-03-26T09:23:04.000Z</time>
      </trkpt>
      <trkpt lat="48.74683" lon="1.75338">
        <ele>187.9</ele>
        <time>2026-03-26T09:23:05.000Z</time>
      </trkpt>
      <trkpt lat="48.74682" lon="1.75337">
        <ele>188.5</ele>
        <time>2026-03-26T09:23:06.000Z</time>
      </trkpt>
      <trkpt lat="48.74681" lon="1.75336">
        <ele>188.2</ele>
        <time>2026-03-26T09:23:07.000Z</time>
      </trkpt>
      <trkpt lat="48.7468" lon="1.75335">
        <ele>188.3</ele>
        <time>2026-03-26T09:23:08.000Z</time>
      </trkpt>
      <trkpt lat="48.74679" lon="1.75335">
        <ele>188.6</ele>
        <time>2026-03-26T09:23:09.000Z</time>
      </trkpt>
      <trkpt lat="48.74678" lon="1.75335">
        <ele>188.8</ele>
        <time>2026-03-26T09:23:10.000Z</time>
      </trkpt>
      <trkpt lat="48.74677" lon="1.75335">
        <ele>188.3</ele>
        <time>2026-03-26T09:23:11.000Z</time>
      </trkpt>
      <trkpt lat="48.74676" lon="1.75336">
        <ele>188.1</ele>
        <time>2026-03-26T09:23:12.000Z</time>
      </trkpt>
      <trkpt lat="48.74675" lon="1.75338">
        <ele>188</ele>
        <time>2026-03-26T09:23:13.000Z</time>
      </trkpt>
      <trkpt lat="48.74674" lon="1.7534">
        <ele>186.7</ele>
        <time>2026-03-26T09:23:14.000Z</time>
      </trkpt>
      <trkpt lat="48.74674" lon="1.75342">
        <ele>186.4</ele>
        <time>2026-03-26T09:23:15.000Z</time>
      </trkpt>
      <trkpt lat="48.74673" lon="1.75344">
        <ele>186.4</ele>
        <time>2026-03-26T09:23:16.000Z</time>
      </trkpt>
      <trkpt lat="48.74672" lon="1.75346">
        <ele>187</ele>
        <time>2026-03-26T09:23:17.000Z</time>
      </trkpt>
      <trkpt lat="48.74672" lon="1.75348">
        <ele>187.6</ele>
        <time>2026-03-26T09:23:18.000Z</time>
      </trkpt>
      <trkpt lat="48.74671" lon="1.75351">
        <ele>188.1</ele>
        <time>2026-03-26T09:23:19.000Z</time>
      </trkpt>
      <trkpt lat="48.7467" lon="1.75353">
        <ele>189</ele>
        <time>2026-03-26T09:23:20.000Z</time>
      </trkpt>
      <trkpt lat="48.74669" lon="1.75355">
        <ele>189.2</ele>
        <time>2026-03-26T09:23:21.000Z</time>
      </trkpt>
      <trkpt lat="48.74668" lon="1.75356">
        <ele>189.4</ele>
        <time>2026-03-26T09:23:22.000Z</time>
      </trkpt>
      <trkpt lat="48.74667" lon="1.75358">
        <ele>189.6</ele>
        <time>2026-03-26T09:23:23.000Z</time>
      </trkpt>
      <trkpt lat="48.74666" lon="1.75359">
        <ele>189.5</ele>
        <time>2026-03-26T09:23:24.000Z</time>
      </trkpt>
      <trkpt lat="48.74666" lon="1.75361">
        <ele>189.6</ele>
        <time>2026-03-26T09:23:25.000Z</time>
      </trkpt>
      <trkpt lat="48.74665" lon="1.75362">
        <ele>189.8</ele>
        <time>2026-03-26T09:23:26.000Z</time>
      </trkpt>
      <trkpt lat="48.74664" lon="1.75363">
        <ele>190.2</ele>
        <time>2026-03-26T09:23:27.000Z</time>
      </trkpt>
      <trkpt lat="48.74663" lon="1.75365">
        <ele>189.9</ele>
        <time>2026-03-26T09:23:28.000Z</time>
      </trkpt>
      <trkpt lat="48.74663" lon="1.75366">
        <ele>189.8</ele>
        <time>2026-03-26T09:23:29.000Z</time>
      </trkpt>
      <trkpt lat="48.74662" lon="1.75367">
        <ele>190.2</ele>
        <time>2026-03-26T09:23:30.000Z</time>
      </trkpt>
      <trkpt lat="48.74661" lon="1.75369">
        <ele>189.9</ele>
        <time>2026-03-26T09:23:31.000Z</time>
      </trkpt>
      <trkpt lat="48.7466" lon="1.7537">
        <ele>189.9</ele>
        <time>2026-03-26T09:23:32.000Z</time>
      </trkpt>
      <trkpt lat="48.74659" lon="1.75371">
        <ele>190</ele>
        <time>2026-03-26T09:23:33.000Z</time>
      </trkpt>
      <trkpt lat="48.74659" lon="1.75373">
        <ele>190.7</ele>
        <time>2026-03-26T09:23:34.000Z</time>
      </trkpt>
      <trkpt lat="48.74658" lon="1.75374">
        <ele>190.6</ele>
        <time>2026-03-26T09:23:35.000Z</time>
      </trkpt>
      <trkpt lat="48.74657" lon="1.75375">
        <ele>190.2</ele>
        <time>2026-03-26T09:23:36.000Z</time>
      </trkpt>
      <trkpt lat="48.74656" lon="1.75376">
        <ele>190.6</ele>
        <time>2026-03-26T09:23:37.000Z</time>
      </trkpt>
      <trkpt lat="48.74655" lon="1.75378">
        <ele>190.2</ele>
        <time>2026-03-26T09:23:38.000Z</time>
      </trkpt>
      <trkpt lat="48.74654" lon="1.75379">
        <ele>189.5</ele>
        <time>2026-03-26T09:23:39.000Z</time>
      </trkpt>
      <trkpt lat="48.74653" lon="1.7538">
        <ele>189.5</ele>
        <time>2026-03-26T09:23:40.000Z</time>
      </trkpt>
      <trkpt lat="48.74652" lon="1.75382">
        <ele>189.5</ele>
        <time>2026-03-26T09:23:41.000Z</time>
      </trkpt>
      <trkpt lat="48.74652" lon="1.75383">
        <ele>189.5</ele>
        <time>2026-03-26T09:23:42.000Z</time>
      </trkpt>
      <trkpt lat="48.74651" lon="1.75384">
        <ele>189.4</ele>
        <time>2026-03-26T09:23:43.000Z</time>
      </trkpt>
      <trkpt lat="48.7465" lon="1.75386">
        <ele>189.2</ele>
        <time>2026-03-26T09:23:44.000Z</time>
      </trkpt>
      <trkpt lat="48.74649" lon="1.75387">
        <ele>189.6</ele>
        <time>2026-03-26T09:23:45.000Z</time>
      </trkpt>
      <trkpt lat="48.74649" lon="1.75388">
        <ele>190</ele>
        <time>2026-03-26T09:23:46.000Z</time>
      </trkpt>
      <trkpt lat="48.74648" lon="1.7539">
        <ele>190.2</ele>
        <time>2026-03-26T09:23:47.000Z</time>
      </trkpt>
      <trkpt lat="48.74647" lon="1.75391">
        <ele>190.4</ele>
        <time>2026-03-26T09:23:48.000Z</time>
      </trkpt>
      <trkpt lat="48.74646" lon="1.75392">
        <ele>190.5</ele>
        <time>2026-03-26T09:23:49.000Z</time>
      </trkpt>
      <trkpt lat="48.74645" lon="1.75394">
        <ele>190</ele>
        <time>2026-03-26T09:23:50.000Z</time>
      </trkpt>
      <trkpt lat="48.74644" lon="1.75395">
        <ele>190.4</ele>
        <time>2026-03-26T09:23:51.000Z</time>
      </trkpt>
      <trkpt lat="48.74643" lon="1.75396">
        <ele>190.3</ele>
        <time>2026-03-26T09:23:52.000Z</time>
      </trkpt>
      <trkpt lat="48.74642" lon="1.75398">
        <ele>190.5</ele>
        <time>2026-03-26T09:23:53.000Z</time>
      </trkpt>
      <trkpt lat="48.74641" lon="1.75399">
        <ele>189.9</ele>
        <time>2026-03-26T09:23:54.000Z</time>
      </trkpt>
      <trkpt lat="48.7464" lon="1.754">
        <ele>190</ele>
        <time>2026-03-26T09:23:55.000Z</time>
      </trkpt>
      <trkpt lat="48.74639" lon="1.75402">
        <ele>190.2</ele>
        <time>2026-03-26T09:23:56.000Z</time>
      </trkpt>
      <trkpt lat="48.74638" lon="1.75403">
        <ele>190.6</ele>
        <time>2026-03-26T09:23:57.000Z</time>
      </trkpt>
      <trkpt lat="48.74637" lon="1.75404">
        <ele>190.9</ele>
        <time>2026-03-26T09:23:58.000Z</time>
      </trkpt>
      <trkpt lat="48.74636" lon="1.75406">
        <ele>190.7</ele>
        <time>2026-03-26T09:23:59.000Z</time>
      </trkpt>
      <trkpt lat="48.74635" lon="1.75407">
        <ele>190.3</ele>
        <time>2026-03-26T09:24:00.000Z</time>
      </trkpt>
      <trkpt lat="48.74635" lon="1.75409">
        <ele>190.4</ele>
        <time>2026-03-26T09:24:01.000Z</time>
      </trkpt>
      <trkpt lat="48.74633" lon="1.75411">
        <ele>190.1</ele>
        <time>2026-03-26T09:24:02.000Z</time>
      </trkpt>
      <trkpt lat="48.74633" lon="1.75412">
        <ele>189.7</ele>
        <time>2026-03-26T09:24:03.000Z</time>
      </trkpt>
      <trkpt lat="48.74631" lon="1.75413">
        <ele>189.3</ele>
        <time>2026-03-26T09:24:04.000Z</time>
      </trkpt>
      <trkpt lat="48.7463" lon="1.75415">
        <ele>188.7</ele>
        <time>2026-03-26T09:24:05.000Z</time>
      </trkpt>
      <trkpt lat="48.7463" lon="1.75416">
        <ele>188.4</ele>
        <time>2026-03-26T09:24:06.000Z</time>
      </trkpt>
      <trkpt lat="48.74628" lon="1.75417">
        <ele>188.3</ele>
        <time>2026-03-26T09:24:07.000Z</time>
      </trkpt>
      <trkpt lat="48.74627" lon="1.75418">
        <ele>188.9</ele>
        <time>2026-03-26T09:24:08.000Z</time>
      </trkpt>
      <trkpt lat="48.74626" lon="1.7542">
        <ele>189.6</ele>
        <time>2026-03-26T09:24:09.000Z</time>
      </trkpt>
      <trkpt lat="48.74625" lon="1.75422">
        <ele>191.1</ele>
        <time>2026-03-26T09:24:10.000Z</time>
      </trkpt>
      <trkpt lat="48.74624" lon="1.75424">
        <ele>191.7</ele>
        <time>2026-03-26T09:24:11.000Z</time>
      </trkpt>
      <trkpt lat="48.74623" lon="1.75426">
        <ele>192.1</ele>
        <time>2026-03-26T09:24:12.000Z</time>
      </trkpt>
      <trkpt lat="48.74622" lon="1.75428">
        <ele>192.6</ele>
        <time>2026-03-26T09:24:13.000Z</time>
      </trkpt>
      <trkpt lat="48.74621" lon="1.75429">
        <ele>192.8</ele>
        <time>2026-03-26T09:24:14.000Z</time>
      </trkpt>
      <trkpt lat="48.7462" lon="1.75431">
        <ele>192.8</ele>
        <time>2026-03-26T09:24:15.000Z</time>
      </trkpt>
      <trkpt lat="48.74619" lon="1.75433">
        <ele>192.8</ele>
        <time>2026-03-26T09:24:16.000Z</time>
      </trkpt>
      <trkpt lat="48.74618" lon="1.75434">
        <ele>192.7</ele>
        <time>2026-03-26T09:24:17.000Z</time>
      </trkpt>
      <trkpt lat="48.74617" lon="1.75436">
        <ele>193.1</ele>
        <time>2026-03-26T09:24:18.000Z</time>
      </trkpt>
      <trkpt lat="48.74616" lon="1.75437">
        <ele>193</ele>
        <time>2026-03-26T09:24:19.000Z</time>
      </trkpt>
      <trkpt lat="48.74615" lon="1.75438">
        <ele>192.8</ele>
        <time>2026-03-26T09:24:20.000Z</time>
      </trkpt>
      <trkpt lat="48.74614" lon="1.7544">
        <ele>193</ele>
        <time>2026-03-26T09:24:21.000Z</time>
      </trkpt>
      <trkpt lat="48.74613" lon="1.75441">
        <ele>192.9</ele>
        <time>2026-03-26T09:24:22.000Z</time>
      </trkpt>
      <trkpt lat="48.74612" lon="1.75443">
        <ele>192.6</ele>
        <time>2026-03-26T09:24:23.000Z</time>
      </trkpt>
      <trkpt lat="48.74612" lon="1.75444">
        <ele>191.9</ele>
        <time>2026-03-26T09:24:24.000Z</time>
      </trkpt>
      <trkpt lat="48.74611" lon="1.75446">
        <ele>192</ele>
        <time>2026-03-26T09:24:25.000Z</time>
      </trkpt>
      <trkpt lat="48.7461" lon="1.75447">
        <ele>192.2</ele>
        <time>2026-03-26T09:24:26.000Z</time>
      </trkpt>
      <trkpt lat="48.74609" lon="1.75448">
        <ele>191.9</ele>
        <time>2026-03-26T09:24:27.000Z</time>
      </trkpt>
      <trkpt lat="48.74608" lon="1.7545">
        <ele>192</ele>
        <time>2026-03-26T09:24:28.000Z</time>
      </trkpt>
      <trkpt lat="48.74607" lon="1.75451">
        <ele>192.6</ele>
        <time>2026-03-26T09:24:29.000Z</time>
      </trkpt>
      <trkpt lat="48.74606" lon="1.75452">
        <ele>192.6</ele>
        <time>2026-03-26T09:24:30.000Z</time>
      </trkpt>
      <trkpt lat="48.74605" lon="1.75454">
        <ele>192.8</ele>
        <time>2026-03-26T09:24:31.000Z</time>
      </trkpt>
      <trkpt lat="48.74604" lon="1.75456">
        <ele>192.7</ele>
        <time>2026-03-26T09:24:32.000Z</time>
      </trkpt>
      <trkpt lat="48.74603" lon="1.75457">
        <ele>192.8</ele>
        <time>2026-03-26T09:24:33.000Z</time>
      </trkpt>
      <trkpt lat="48.74602" lon="1.75458">
        <ele>193.8</ele>
        <time>2026-03-26T09:24:34.000Z</time>
      </trkpt>
      <trkpt lat="48.74601" lon="1.75459">
        <ele>193.6</ele>
        <time>2026-03-26T09:24:35.000Z</time>
      </trkpt>
      <trkpt lat="48.746" lon="1.75461">
        <ele>193.2</ele>
        <time>2026-03-26T09:24:36.000Z</time>
      </trkpt>
      <trkpt lat="48.74599" lon="1.75463">
        <ele>193.6</ele>
        <time>2026-03-26T09:24:37.000Z</time>
      </trkpt>
      <trkpt lat="48.74598" lon="1.75464">
        <ele>193.2</ele>
        <time>2026-03-26T09:24:38.000Z</time>
      </trkpt>
      <trkpt lat="48.74597" lon="1.75466">
        <ele>193.8</ele>
        <time>2026-03-26T09:24:39.000Z</time>
      </trkpt>
      <trkpt lat="48.74596" lon="1.75468">
        <ele>194.9</ele>
        <time>2026-03-26T09:24:40.000Z</time>
      </trkpt>
      <trkpt lat="48.74596" lon="1.75469">
        <ele>194.9</ele>
        <time>2026-03-26T09:24:41.000Z</time>
      </trkpt>
      <trkpt lat="48.74594" lon="1.75471">
        <ele>194.6</ele>
        <time>2026-03-26T09:24:42.000Z</time>
      </trkpt>
      <trkpt lat="48.74593" lon="1.75472">
        <ele>195.5</ele>
        <time>2026-03-26T09:24:43.000Z</time>
      </trkpt>
      <trkpt lat="48.74592" lon="1.75473">
        <ele>195</ele>
        <time>2026-03-26T09:24:44.000Z</time>
      </trkpt>
      <trkpt lat="48.74591" lon="1.75474">
        <ele>195.2</ele>
        <time>2026-03-26T09:24:45.000Z</time>
      </trkpt>
      <trkpt lat="48.7459" lon="1.75475">
        <ele>195.1</ele>
        <time>2026-03-26T09:24:46.000Z</time>
      </trkpt>
      <trkpt lat="48.74589" lon="1.75477">
        <ele>194.6</ele>
        <time>2026-03-26T09:24:47.000Z</time>
      </trkpt>
      <trkpt lat="48.74588" lon="1.75478">
        <ele>194.4</ele>
        <time>2026-03-26T09:24:48.000Z</time>
      </trkpt>
      <trkpt lat="48.74587" lon="1.75479">
        <ele>193.9</ele>
        <time>2026-03-26T09:24:49.000Z</time>
      </trkpt>
      <trkpt lat="48.74586" lon="1.75481">
        <ele>193.8</ele>
        <time>2026-03-26T09:24:50.000Z</time>
      </trkpt>
      <trkpt lat="48.74586" lon="1.75482">
        <ele>193.6</ele>
        <time>2026-03-26T09:24:51.000Z</time>
      </trkpt>
      <trkpt lat="48.74584" lon="1.75483">
        <ele>193.7</ele>
        <time>2026-03-26T09:24:52.000Z</time>
      </trkpt>
      <trkpt lat="48.74583" lon="1.75485">
        <ele>194</ele>
        <time>2026-03-26T09:24:53.000Z</time>
      </trkpt>
      <trkpt lat="48.74582" lon="1.75486">
        <ele>193.6</ele>
        <time>2026-03-26T09:24:54.000Z</time>
      </trkpt>
      <trkpt lat="48.74581" lon="1.75487">
        <ele>193.8</ele>
        <time>2026-03-26T09:24:55.000Z</time>
      </trkpt>
      <trkpt lat="48.7458" lon="1.75488">
        <ele>193.9</ele>
        <time>2026-03-26T09:24:56.000Z</time>
      </trkpt>
      <trkpt lat="48.74579" lon="1.75489">
        <ele>193.4</ele>
        <time>2026-03-26T09:24:57.000Z</time>
      </trkpt>
      <trkpt lat="48.74578" lon="1.75491">
        <ele>193.1</ele>
        <time>2026-03-26T09:24:58.000Z</time>
      </trkpt>
      <trkpt lat="48.74577" lon="1.75493">
        <ele>193.7</ele>
        <time>2026-03-26T09:24:59.000Z</time>
      </trkpt>
      <trkpt lat="48.74576" lon="1.75494">
        <ele>194.1</ele>
        <time>2026-03-26T09:25:00.000Z</time>
      </trkpt>
      <trkpt lat="48.74575" lon="1.75496">
        <ele>193.9</ele>
        <time>2026-03-26T09:25:01.000Z</time>
      </trkpt>
      <trkpt lat="48.74574" lon="1.75497">
        <ele>194.2</ele>
        <time>2026-03-26T09:25:02.000Z</time>
      </trkpt>
      <trkpt lat="48.74573" lon="1.75499">
        <ele>194.9</ele>
        <time>2026-03-26T09:25:03.000Z</time>
      </trkpt>
      <trkpt lat="48.74571" lon="1.755">
        <ele>195</ele>
        <time>2026-03-26T09:25:04.000Z</time>
      </trkpt>
      <trkpt lat="48.7457" lon="1.75502">
        <ele>195.1</ele>
        <time>2026-03-26T09:25:05.000Z</time>
      </trkpt>
      <trkpt lat="48.74569" lon="1.75503">
        <ele>195.4</ele>
        <time>2026-03-26T09:25:06.000Z</time>
      </trkpt>
      <trkpt lat="48.74568" lon="1.75504">
        <ele>196.1</ele>
        <time>2026-03-26T09:25:07.000Z</time>
      </trkpt>
      <trkpt lat="48.74567" lon="1.75505">
        <ele>195.4</ele>
        <time>2026-03-26T09:25:08.000Z</time>
      </trkpt>
      <trkpt lat="48.74566" lon="1.75506">
        <ele>195.6</ele>
        <time>2026-03-26T09:25:09.000Z</time>
      </trkpt>
      <trkpt lat="48.74565" lon="1.75507">
        <ele>196</ele>
        <time>2026-03-26T09:25:10.000Z</time>
      </trkpt>
      <trkpt lat="48.74564" lon="1.75508">
        <ele>195.3</ele>
        <time>2026-03-26T09:25:11.000Z</time>
      </trkpt>
      <trkpt lat="48.74563" lon="1.75509">
        <ele>194.6</ele>
        <time>2026-03-26T09:25:12.000Z</time>
      </trkpt>
      <trkpt lat="48.74562" lon="1.7551">
        <ele>194.3</ele>
        <time>2026-03-26T09:25:13.000Z</time>
      </trkpt>
      <trkpt lat="48.74561" lon="1.75511">
        <ele>193.5</ele>
        <time>2026-03-26T09:25:14.000Z</time>
      </trkpt>
      <trkpt lat="48.7456" lon="1.75513">
        <ele>193.4</ele>
        <time>2026-03-26T09:25:15.000Z</time>
      </trkpt>
      <trkpt lat="48.74559" lon="1.75514">
        <ele>194</ele>
        <time>2026-03-26T09:25:16.000Z</time>
      </trkpt>
      <trkpt lat="48.74558" lon="1.75515">
        <ele>194.1</ele>
        <time>2026-03-26T09:25:17.000Z</time>
      </trkpt>
      <trkpt lat="48.74557" lon="1.75516">
        <ele>193.8</ele>
        <time>2026-03-26T09:25:18.000Z</time>
      </trkpt>
      <trkpt lat="48.74556" lon="1.75517">
        <ele>194.5</ele>
        <time>2026-03-26T09:25:19.000Z</time>
      </trkpt>
      <trkpt lat="48.74554" lon="1.75518">
        <ele>194.5</ele>
        <time>2026-03-26T09:25:20.000Z</time>
      </trkpt>
      <trkpt lat="48.74553" lon="1.75519">
        <ele>195</ele>
        <time>2026-03-26T09:25:21.000Z</time>
      </trkpt>
      <trkpt lat="48.74552" lon="1.7552">
        <ele>195.4</ele>
        <time>2026-03-26T09:25:22.000Z</time>
      </trkpt>
      <trkpt lat="48.7455" lon="1.75521">
        <ele>196.3</ele>
        <time>2026-03-26T09:25:23.000Z</time>
      </trkpt>
      <trkpt lat="48.74549" lon="1.75522">
        <ele>196.4</ele>
        <time>2026-03-26T09:25:24.000Z</time>
      </trkpt>
      <trkpt lat="48.74548" lon="1.75523">
        <ele>196.9</ele>
        <time>2026-03-26T09:25:25.000Z</time>
      </trkpt>
      <trkpt lat="48.74547" lon="1.75524">
        <ele>198</ele>
        <time>2026-03-26T09:25:26.000Z</time>
      </trkpt>
      <trkpt lat="48.74546" lon="1.75525">
        <ele>198.1</ele>
        <time>2026-03-26T09:25:27.000Z</time>
      </trkpt>
      <trkpt lat="48.74544" lon="1.75526">
        <ele>198.3</ele>
        <time>2026-03-26T09:25:28.000Z</time>
      </trkpt>
      <trkpt lat="48.74544" lon="1.75527">
        <ele>198.1</ele>
        <time>2026-03-26T09:25:29.000Z</time>
      </trkpt>
      <trkpt lat="48.74543" lon="1.75528">
        <ele>198.7</ele>
        <time>2026-03-26T09:25:30.000Z</time>
      </trkpt>
      <trkpt lat="48.74541" lon="1.75529">
        <ele>198.4</ele>
        <time>2026-03-26T09:25:31.000Z</time>
      </trkpt>
      <trkpt lat="48.7454" lon="1.7553">
        <ele>199.3</ele>
        <time>2026-03-26T09:25:32.000Z</time>
      </trkpt>
      <trkpt lat="48.74538" lon="1.7553">
        <ele>199.4</ele>
        <time>2026-03-26T09:25:33.000Z</time>
      </trkpt>
      <trkpt lat="48.74537" lon="1.7553">
        <ele>199.3</ele>
        <time>2026-03-26T09:25:34.000Z</time>
      </trkpt>
      <trkpt lat="48.74536" lon="1.75531">
        <ele>199.3</ele>
        <time>2026-03-26T09:25:35.000Z</time>
      </trkpt>
      <trkpt lat="48.74535" lon="1.75531">
        <ele>199.4</ele>
        <time>2026-03-26T09:25:36.000Z</time>
      </trkpt>
      <trkpt lat="48.74533" lon="1.75531">
        <ele>200.4</ele>
        <time>2026-03-26T09:25:37.000Z</time>
      </trkpt>
      <trkpt lat="48.74532" lon="1.75531">
        <ele>201.1</ele>
        <time>2026-03-26T09:25:38.000Z</time>
      </trkpt>
      <trkpt lat="48.74531" lon="1.75532">
        <ele>201.3</ele>
        <time>2026-03-26T09:25:39.000Z</time>
      </trkpt>
      <trkpt lat="48.74529" lon="1.75532">
        <ele>201.2</ele>
        <time>2026-03-26T09:25:40.000Z</time>
      </trkpt>
      <trkpt lat="48.74528" lon="1.75532">
        <ele>201.4</ele>
        <time>2026-03-26T09:25:41.000Z</time>
      </trkpt>
      <trkpt lat="48.74527" lon="1.75533">
        <ele>201.9</ele>
        <time>2026-03-26T09:25:42.000Z</time>
      </trkpt>
      <trkpt lat="48.74526" lon="1.75533">
        <ele>201.8</ele>
        <time>2026-03-26T09:25:43.000Z</time>
      </trkpt>
      <trkpt lat="48.74525" lon="1.75534">
        <ele>202.4</ele>
        <time>2026-03-26T09:25:44.000Z</time>
      </trkpt>
      <trkpt lat="48.74523" lon="1.75534">
        <ele>203.1</ele>
        <time>2026-03-26T09:25:45.000Z</time>
      </trkpt>
      <trkpt lat="48.74522" lon="1.75534">
        <ele>203.8</ele>
        <time>2026-03-26T09:25:46.000Z</time>
      </trkpt>
      <trkpt lat="48.74521" lon="1.75534">
        <ele>204.5</ele>
        <time>2026-03-26T09:25:47.000Z</time>
      </trkpt>
      <trkpt lat="48.7452" lon="1.75535">
        <ele>204.8</ele>
        <time>2026-03-26T09:25:48.000Z</time>
      </trkpt>
      <trkpt lat="48.74518" lon="1.75535">
        <ele>204.9</ele>
        <time>2026-03-26T09:25:49.000Z</time>
      </trkpt>
      <trkpt lat="48.74517" lon="1.75536">
        <ele>205.1</ele>
        <time>2026-03-26T09:25:50.000Z</time>
      </trkpt>
      <trkpt lat="48.74516" lon="1.75535">
        <ele>205.4</ele>
        <time>2026-03-26T09:25:51.000Z</time>
      </trkpt>
      <trkpt lat="48.74515" lon="1.75536">
        <ele>205.7</ele>
        <time>2026-03-26T09:25:52.000Z</time>
      </trkpt>
      <trkpt lat="48.74514" lon="1.75536">
        <ele>206.2</ele>
        <time>2026-03-26T09:25:53.000Z</time>
      </trkpt>
      <trkpt lat="48.74513" lon="1.75537">
        <ele>205.6</ele>
        <time>2026-03-26T09:25:54.000Z</time>
      </trkpt>
      <trkpt lat="48.74512" lon="1.75537">
        <ele>206.1</ele>
        <time>2026-03-26T09:25:55.000Z</time>
      </trkpt>
      <trkpt lat="48.74511" lon="1.75537">
        <ele>205.8</ele>
        <time>2026-03-26T09:25:56.000Z</time>
      </trkpt>
      <trkpt lat="48.7451" lon="1.75537">
        <ele>206</ele>
        <time>2026-03-26T09:25:57.000Z</time>
      </trkpt>
      <trkpt lat="48.74509" lon="1.75537">
        <ele>206.4</ele>
        <time>2026-03-26T09:25:58.000Z</time>
      </trkpt>
      <trkpt lat="48.74508" lon="1.75537">
        <ele>206</ele>
        <time>2026-03-26T09:25:59.000Z</time>
      </trkpt>
      <trkpt lat="48.74507" lon="1.75537">
        <ele>205.8</ele>
        <time>2026-03-26T09:26:00.000Z</time>
      </trkpt>
      <trkpt lat="48.74506" lon="1.75537">
        <ele>204.8</ele>
        <time>2026-03-26T09:26:01.000Z</time>
      </trkpt>
      <trkpt lat="48.74505" lon="1.75537">
        <ele>205.5</ele>
        <time>2026-03-26T09:26:02.000Z</time>
      </trkpt>
      <trkpt lat="48.74504" lon="1.75538">
        <ele>205.7</ele>
        <time>2026-03-26T09:26:03.000Z</time>
      </trkpt>
      <trkpt lat="48.74503" lon="1.75538">
        <ele>205.9</ele>
        <time>2026-03-26T09:26:04.000Z</time>
      </trkpt>
      <trkpt lat="48.74502" lon="1.75539">
        <ele>205.8</ele>
        <time>2026-03-26T09:26:05.000Z</time>
      </trkpt>
      <trkpt lat="48.74501" lon="1.7554">
        <ele>206.2</ele>
        <time>2026-03-26T09:26:06.000Z</time>
      </trkpt>
      <trkpt lat="48.745" lon="1.75541">
        <ele>206.2</ele>
        <time>2026-03-26T09:26:07.000Z</time>
      </trkpt>
      <trkpt lat="48.74499" lon="1.75542">
        <ele>206.4</ele>
        <time>2026-03-26T09:26:08.000Z</time>
      </trkpt>
      <trkpt lat="48.74498" lon="1.75542">
        <ele>205.4</ele>
        <time>2026-03-26T09:26:09.000Z</time>
      </trkpt>
      <trkpt lat="48.74497" lon="1.75542">
        <ele>205.1</ele>
        <time>2026-03-26T09:26:10.000Z</time>
      </trkpt>
      <trkpt lat="48.74496" lon="1.75543">
        <ele>206.4</ele>
        <time>2026-03-26T09:26:11.000Z</time>
      </trkpt>
      <trkpt lat="48.74495" lon="1.75544">
        <ele>206.6</ele>
        <time>2026-03-26T09:26:12.000Z</time>
      </trkpt>
      <trkpt lat="48.74494" lon="1.75544">
        <ele>206.9</ele>
        <time>2026-03-26T09:26:13.000Z</time>
      </trkpt>
      <trkpt lat="48.74493" lon="1.75545">
        <ele>207.2</ele>
        <time>2026-03-26T09:26:14.000Z</time>
      </trkpt>
      <trkpt lat="48.74492" lon="1.75546">
        <ele>207</ele>
        <time>2026-03-26T09:26:15.000Z</time>
      </trkpt>
      <trkpt lat="48.74491" lon="1.75546">
        <ele>207.4</ele>
        <time>2026-03-26T09:26:16.000Z</time>
      </trkpt>
      <trkpt lat="48.7449" lon="1.75547">
        <ele>207.5</ele>
        <time>2026-03-26T09:26:17.000Z</time>
      </trkpt>
      <trkpt lat="48.74488" lon="1.75547">
        <ele>208</ele>
        <time>2026-03-26T09:26:18.000Z</time>
      </trkpt>
      <trkpt lat="48.74487" lon="1.75548">
        <ele>208.1</ele>
        <time>2026-03-26T09:26:19.000Z</time>
      </trkpt>
      <trkpt lat="48.74486" lon="1.75549">
        <ele>207.9</ele>
        <time>2026-03-26T09:26:20.000Z</time>
      </trkpt>
      <trkpt lat="48.74486" lon="1.75549">
        <ele>207.7</ele>
        <time>2026-03-26T09:26:21.000Z</time>
      </trkpt>
      <trkpt lat="48.74485" lon="1.7555">
        <ele>207.6</ele>
        <time>2026-03-26T09:26:22.000Z</time>
      </trkpt>
      <trkpt lat="48.74484" lon="1.75551">
        <ele>207.5</ele>
        <time>2026-03-26T09:26:23.000Z</time>
      </trkpt>
      <trkpt lat="48.74483" lon="1.75552">
        <ele>207.8</ele>
        <time>2026-03-26T09:26:24.000Z</time>
      </trkpt>
      <trkpt lat="48.74482" lon="1.75552">
        <ele>207.7</ele>
        <time>2026-03-26T09:26:25.000Z</time>
      </trkpt>
      <trkpt lat="48.74481" lon="1.75553">
        <ele>207.7</ele>
        <time>2026-03-26T09:26:26.000Z</time>
      </trkpt>
      <trkpt lat="48.7448" lon="1.75553">
        <ele>206.6</ele>
        <time>2026-03-26T09:26:27.000Z</time>
      </trkpt>
      <trkpt lat="48.74479" lon="1.75554">
        <ele>206.5</ele>
        <time>2026-03-26T09:26:28.000Z</time>
      </trkpt>
      <trkpt lat="48.74478" lon="1.75555">
        <ele>206.2</ele>
        <time>2026-03-26T09:26:29.000Z</time>
      </trkpt>
      <trkpt lat="48.74478" lon="1.75556">
        <ele>205.9</ele>
        <time>2026-03-26T09:26:30.000Z</time>
      </trkpt>
      <trkpt lat="48.74477" lon="1.75557">
        <ele>205.7</ele>
        <time>2026-03-26T09:26:31.000Z</time>
      </trkpt>
      <trkpt lat="48.74476" lon="1.75557">
        <ele>205.4</ele>
        <time>2026-03-26T09:26:32.000Z</time>
      </trkpt>
      <trkpt lat="48.74475" lon="1.75558">
        <ele>205.3</ele>
        <time>2026-03-26T09:26:33.000Z</time>
      </trkpt>
      <trkpt lat="48.74474" lon="1.75559">
        <ele>205.1</ele>
        <time>2026-03-26T09:26:34.000Z</time>
      </trkpt>
      <trkpt lat="48.74473" lon="1.75559">
        <ele>205.3</ele>
        <time>2026-03-26T09:26:35.000Z</time>
      </trkpt>
      <trkpt lat="48.74471" lon="1.7556">
        <ele>205.3</ele>
        <time>2026-03-26T09:26:36.000Z</time>
      </trkpt>
      <trkpt lat="48.7447" lon="1.75561">
        <ele>205.6</ele>
        <time>2026-03-26T09:26:37.000Z</time>
      </trkpt>
      <trkpt lat="48.74469" lon="1.75562">
        <ele>205.6</ele>
        <time>2026-03-26T09:26:38.000Z</time>
      </trkpt>
      <trkpt lat="48.74468" lon="1.75563">
        <ele>205.7</ele>
        <time>2026-03-26T09:26:39.000Z</time>
      </trkpt>
      <trkpt lat="48.74467" lon="1.75563">
        <ele>205.9</ele>
        <time>2026-03-26T09:26:40.000Z</time>
      </trkpt>
      <trkpt lat="48.74465" lon="1.75563">
        <ele>206.3</ele>
        <time>2026-03-26T09:26:41.000Z</time>
      </trkpt>
      <trkpt lat="48.74464" lon="1.75564">
        <ele>206.6</ele>
        <time>2026-03-26T09:26:42.000Z</time>
      </trkpt>
      <trkpt lat="48.74463" lon="1.75565">
        <ele>206.8</ele>
        <time>2026-03-26T09:26:43.000Z</time>
      </trkpt>
      <trkpt lat="48.74462" lon="1.75565">
        <ele>206.9</ele>
        <time>2026-03-26T09:26:44.000Z</time>
      </trkpt>
      <trkpt lat="48.74461" lon="1.75566">
        <ele>207</ele>
        <time>2026-03-26T09:26:45.000Z</time>
      </trkpt>
      <trkpt lat="48.7446" lon="1.75566">
        <ele>207.3</ele>
        <time>2026-03-26T09:26:46.000Z</time>
      </trkpt>
      <trkpt lat="48.74459" lon="1.75567">
        <ele>207.5</ele>
        <time>2026-03-26T09:26:47.000Z</time>
      </trkpt>
      <trkpt lat="48.74458" lon="1.75568">
        <ele>207.6</ele>
        <time>2026-03-26T09:26:48.000Z</time>
      </trkpt>
      <trkpt lat="48.74457" lon="1.75568">
        <ele>208.1</ele>
        <time>2026-03-26T09:26:49.000Z</time>
      </trkpt>
      <trkpt lat="48.74457" lon="1.75569">
        <ele>208.9</ele>
        <time>2026-03-26T09:26:50.000Z</time>
      </trkpt>
      <trkpt lat="48.74456" lon="1.7557">
        <ele>209.2</ele>
        <time>2026-03-26T09:26:51.000Z</time>
      </trkpt>
      <trkpt lat="48.74455" lon="1.75571">
        <ele>209.9</ele>
        <time>2026-03-26T09:26:52.000Z</time>
      </trkpt>
      <trkpt lat="48.74454" lon="1.75571">
        <ele>209.7</ele>
        <time>2026-03-26T09:26:53.000Z</time>
      </trkpt>
      <trkpt lat="48.74452" lon="1.75572">
        <ele>209.8</ele>
        <time>2026-03-26T09:26:54.000Z</time>
      </trkpt>
      <trkpt lat="48.74451" lon="1.75573">
        <ele>209.4</ele>
        <time>2026-03-26T09:26:55.000Z</time>
      </trkpt>
      <trkpt lat="48.7445" lon="1.75573">
        <ele>209.3</ele>
        <time>2026-03-26T09:26:56.000Z</time>
      </trkpt>
      <trkpt lat="48.74449" lon="1.75574">
        <ele>209.2</ele>
        <time>2026-03-26T09:26:57.000Z</time>
      </trkpt>
      <trkpt lat="48.74449" lon="1.75575">
        <ele>208.5</ele>
        <time>2026-03-26T09:26:58.000Z</time>
      </trkpt>
      <trkpt lat="48.74448" lon="1.75576">
        <ele>208.1</ele>
        <time>2026-03-26T09:26:59.000Z</time>
      </trkpt>
      <trkpt lat="48.74447" lon="1.75576">
        <ele>207.9</ele>
        <time>2026-03-26T09:27:00.000Z</time>
      </trkpt>
      <trkpt lat="48.74446" lon="1.75577">
        <ele>208</ele>
        <time>2026-03-26T09:27:01.000Z</time>
      </trkpt>
      <trkpt lat="48.74446" lon="1.75578">
        <ele>208.5</ele>
        <time>2026-03-26T09:27:02.000Z</time>
      </trkpt>
      <trkpt lat="48.74445" lon="1.75579">
        <ele>208</ele>
        <time>2026-03-26T09:27:03.000Z</time>
      </trkpt>
      <trkpt lat="48.74444" lon="1.7558">
        <ele>208.2</ele>
        <time>2026-03-26T09:27:04.000Z</time>
      </trkpt>
      <trkpt lat="48.74443" lon="1.75581">
        <ele>208.3</ele>
        <time>2026-03-26T09:27:05.000Z</time>
      </trkpt>
      <trkpt lat="48.74442" lon="1.75581">
        <ele>208.4</ele>
        <time>2026-03-26T09:27:06.000Z</time>
      </trkpt>
      <trkpt lat="48.74441" lon="1.75582">
        <ele>209.1</ele>
        <time>2026-03-26T09:27:07.000Z</time>
      </trkpt>
      <trkpt lat="48.7444" lon="1.75583">
        <ele>209.7</ele>
        <time>2026-03-26T09:27:08.000Z</time>
      </trkpt>
      <trkpt lat="48.74439" lon="1.75584">
        <ele>208.9</ele>
        <time>2026-03-26T09:27:09.000Z</time>
      </trkpt>
      <trkpt lat="48.74438" lon="1.75584">
        <ele>208.8</ele>
        <time>2026-03-26T09:27:10.000Z</time>
      </trkpt>
      <trkpt lat="48.74437" lon="1.75585">
        <ele>208.7</ele>
        <time>2026-03-26T09:27:11.000Z</time>
      </trkpt>
      <trkpt lat="48.74436" lon="1.75586">
        <ele>208.7</ele>
        <time>2026-03-26T09:27:12.000Z</time>
      </trkpt>
      <trkpt lat="48.74435" lon="1.75587">
        <ele>208</ele>
        <time>2026-03-26T09:27:13.000Z</time>
      </trkpt>
      <trkpt lat="48.74435" lon="1.75587">
        <ele>208.1</ele>
        <time>2026-03-26T09:27:14.000Z</time>
      </trkpt>
      <trkpt lat="48.74434" lon="1.75588">
        <ele>208.1</ele>
        <time>2026-03-26T09:27:15.000Z</time>
      </trkpt>
      <trkpt lat="48.74433" lon="1.75589">
        <ele>207.5</ele>
        <time>2026-03-26T09:27:16.000Z</time>
      </trkpt>
      <trkpt lat="48.74432" lon="1.75589">
        <ele>207.7</ele>
        <time>2026-03-26T09:27:17.000Z</time>
      </trkpt>
      <trkpt lat="48.74431" lon="1.7559">
        <ele>207.9</ele>
        <time>2026-03-26T09:27:18.000Z</time>
      </trkpt>
      <trkpt lat="48.7443" lon="1.75591">
        <ele>207.9</ele>
        <time>2026-03-26T09:27:19.000Z</time>
      </trkpt>
      <trkpt lat="48.74429" lon="1.75592">
        <ele>207.6</ele>
        <time>2026-03-26T09:27:20.000Z</time>
      </trkpt>
      <trkpt lat="48.74428" lon="1.75592">
        <ele>207.7</ele>
        <time>2026-03-26T09:27:21.000Z</time>
      </trkpt>
      <trkpt lat="48.74427" lon="1.75593">
        <ele>207.4</ele>
        <time>2026-03-26T09:27:22.000Z</time>
      </trkpt>
      <trkpt lat="48.74426" lon="1.75594">
        <ele>207.3</ele>
        <time>2026-03-26T09:27:23.000Z</time>
      </trkpt>
      <trkpt lat="48.74425" lon="1.75594">
        <ele>207.1</ele>
        <time>2026-03-26T09:27:24.000Z</time>
      </trkpt>
      <trkpt lat="48.74424" lon="1.75595">
        <ele>207.7</ele>
        <time>2026-03-26T09:27:25.000Z</time>
      </trkpt>
      <trkpt lat="48.74423" lon="1.75595">
        <ele>207.6</ele>
        <time>2026-03-26T09:27:26.000Z</time>
      </trkpt>
      <trkpt lat="48.74423" lon="1.75595">
        <ele>207.4</ele>
        <time>2026-03-26T09:27:27.000Z</time>
      </trkpt>
      <trkpt lat="48.74422" lon="1.75595">
        <ele>207.4</ele>
        <time>2026-03-26T09:27:28.000Z</time>
      </trkpt>
      <trkpt lat="48.74421" lon="1.75595">
        <ele>207.2</ele>
        <time>2026-03-26T09:27:29.000Z</time>
      </trkpt>
      <trkpt lat="48.7442" lon="1.75596">
        <ele>207.5</ele>
        <time>2026-03-26T09:27:30.000Z</time>
      </trkpt>
      <trkpt lat="48.74419" lon="1.75596">
        <ele>207.4</ele>
        <time>2026-03-26T09:27:31.000Z</time>
      </trkpt>
      <trkpt lat="48.74418" lon="1.75596">
        <ele>207.9</ele>
        <time>2026-03-26T09:27:32.000Z</time>
      </trkpt>
      <trkpt lat="48.74417" lon="1.75597">
        <ele>207.5</ele>
        <time>2026-03-26T09:27:33.000Z</time>
      </trkpt>
      <trkpt lat="48.74416" lon="1.75599">
        <ele>207.3</ele>
        <time>2026-03-26T09:27:34.000Z</time>
      </trkpt>
      <trkpt lat="48.74416" lon="1.75601">
        <ele>206.9</ele>
        <time>2026-03-26T09:27:35.000Z</time>
      </trkpt>
      <trkpt lat="48.74416" lon="1.75602">
        <ele>206.4</ele>
        <time>2026-03-26T09:27:36.000Z</time>
      </trkpt>
      <trkpt lat="48.74416" lon="1.75604">
        <ele>207.2</ele>
        <time>2026-03-26T09:27:37.000Z</time>
      </trkpt>
      <trkpt lat="48.74417" lon="1.75605">
        <ele>207.2</ele>
        <time>2026-03-26T09:27:38.000Z</time>
      </trkpt>
      <trkpt lat="48.74417" lon="1.75607">
        <ele>208</ele>
        <time>2026-03-26T09:27:39.000Z</time>
      </trkpt>
      <trkpt lat="48.74418" lon="1.75608">
        <ele>207.9</ele>
        <time>2026-03-26T09:27:40.000Z</time>
      </trkpt>
      <trkpt lat="48.74418" lon="1.75609">
        <ele>209</ele>
        <time>2026-03-26T09:27:41.000Z</time>
      </trkpt>
      <trkpt lat="48.74418" lon="1.75611">
        <ele>209</ele>
        <time>2026-03-26T09:27:42.000Z</time>
      </trkpt>
      <trkpt lat="48.74417" lon="1.75612">
        <ele>208.9</ele>
        <time>2026-03-26T09:27:43.000Z</time>
      </trkpt>
      <trkpt lat="48.74416" lon="1.75613">
        <ele>208.1</ele>
        <time>2026-03-26T09:27:44.000Z</time>
      </trkpt>
      <trkpt lat="48.74415" lon="1.75614">
        <ele>208.4</ele>
        <time>2026-03-26T09:27:45.000Z</time>
      </trkpt>
      <trkpt lat="48.74414" lon="1.75615">
        <ele>209</ele>
        <time>2026-03-26T09:27:46.000Z</time>
      </trkpt>
      <trkpt lat="48.74414" lon="1.75616">
        <ele>209.2</ele>
        <time>2026-03-26T09:27:47.000Z</time>
      </trkpt>
      <trkpt lat="48.74413" lon="1.75618">
        <ele>209.2</ele>
        <time>2026-03-26T09:27:48.000Z</time>
      </trkpt>
      <trkpt lat="48.74412" lon="1.75619">
        <ele>209.1</ele>
        <time>2026-03-26T09:27:49.000Z</time>
      </trkpt>
      <trkpt lat="48.74411" lon="1.7562">
        <ele>209.4</ele>
        <time>2026-03-26T09:27:50.000Z</time>
      </trkpt>
      <trkpt lat="48.7441" lon="1.7562">
        <ele>208.8</ele>
        <time>2026-03-26T09:27:51.000Z</time>
      </trkpt>
      <trkpt lat="48.74409" lon="1.75621">
        <ele>208.3</ele>
        <time>2026-03-26T09:27:52.000Z</time>
      </trkpt>
      <trkpt lat="48.74408" lon="1.75622">
        <ele>207.6</ele>
        <time>2026-03-26T09:27:53.000Z</time>
      </trkpt>
      <trkpt lat="48.74407" lon="1.75621">
        <ele>207.2</ele>
        <time>2026-03-26T09:27:54.000Z</time>
      </trkpt>
      <trkpt lat="48.74406" lon="1.75622">
        <ele>208</ele>
        <time>2026-03-26T09:27:55.000Z</time>
      </trkpt>
      <trkpt lat="48.74406" lon="1.75622">
        <ele>207.9</ele>
        <time>2026-03-26T09:27:56.000Z</time>
      </trkpt>
      <trkpt lat="48.74405" lon="1.75622">
        <ele>208.3</ele>
        <time>2026-03-26T09:27:57.000Z</time>
      </trkpt>
      <trkpt lat="48.74404" lon="1.75623">
        <ele>208.9</ele>
        <time>2026-03-26T09:27:58.000Z</time>
      </trkpt>
      <trkpt lat="48.74403" lon="1.75623">
        <ele>209</ele>
        <time>2026-03-26T09:27:59.000Z</time>
      </trkpt>
      <trkpt lat="48.74402" lon="1.75623">
        <ele>208.7</ele>
        <time>2026-03-26T09:28:00.000Z</time>
      </trkpt>
      <trkpt lat="48.74401" lon="1.75623">
        <ele>207.9</ele>
        <time>2026-03-26T09:28:01.000Z</time>
      </trkpt>
      <trkpt lat="48.744" lon="1.75624">
        <ele>207.4</ele>
        <time>2026-03-26T09:28:02.000Z</time>
      </trkpt>
      <trkpt lat="48.74399" lon="1.75624">
        <ele>207.2</ele>
        <time>2026-03-26T09:28:03.000Z</time>
      </trkpt>
      <trkpt lat="48.74398" lon="1.75625">
        <ele>206.7</ele>
        <time>2026-03-26T09:28:04.000Z</time>
      </trkpt>
      <trkpt lat="48.74397" lon="1.75626">
        <ele>206.9</ele>
        <time>2026-03-26T09:28:05.000Z</time>
      </trkpt>
      <trkpt lat="48.74396" lon="1.75626">
        <ele>207.2</ele>
        <time>2026-03-26T09:28:06.000Z</time>
      </trkpt>
      <trkpt lat="48.74395" lon="1.75627">
        <ele>207.1</ele>
        <time>2026-03-26T09:28:07.000Z</time>
      </trkpt>
      <trkpt lat="48.74393" lon="1.75627">
        <ele>206.7</ele>
        <time>2026-03-26T09:28:08.000Z</time>
      </trkpt>
      <trkpt lat="48.74392" lon="1.75628">
        <ele>207.2</ele>
        <time>2026-03-26T09:28:09.000Z</time>
      </trkpt>
      <trkpt lat="48.74391" lon="1.75628">
        <ele>207.7</ele>
        <time>2026-03-26T09:28:10.000Z</time>
      </trkpt>
      <trkpt lat="48.7439" lon="1.75628">
        <ele>208.5</ele>
        <time>2026-03-26T09:28:11.000Z</time>
      </trkpt>
      <trkpt lat="48.74389" lon="1.75629">
        <ele>207.9</ele>
        <time>2026-03-26T09:28:12.000Z</time>
      </trkpt>
      <trkpt lat="48.74388" lon="1.75629">
        <ele>207.6</ele>
        <time>2026-03-26T09:28:13.000Z</time>
      </trkpt>
      <trkpt lat="48.74387" lon="1.7563">
        <ele>208</ele>
        <time>2026-03-26T09:28:14.000Z</time>
      </trkpt>
      <trkpt lat="48.74386" lon="1.75631">
        <ele>207.4</ele>
        <time>2026-03-26T09:28:15.000Z</time>
      </trkpt>
      <trkpt lat="48.74385" lon="1.75632">
        <ele>208</ele>
        <time>2026-03-26T09:28:16.000Z</time>
      </trkpt>
      <trkpt lat="48.74384" lon="1.75632">
        <ele>207.5</ele>
        <time>2026-03-26T09:28:17.000Z</time>
      </trkpt>
      <trkpt lat="48.74383" lon="1.75633">
        <ele>207.5</ele>
        <time>2026-03-26T09:28:18.000Z</time>
      </trkpt>
      <trkpt lat="48.74382" lon="1.75633">
        <ele>207</ele>
        <time>2026-03-26T09:28:19.000Z</time>
      </trkpt>
      <trkpt lat="48.74381" lon="1.75634">
        <ele>206.3</ele>
        <time>2026-03-26T09:28:20.000Z</time>
      </trkpt>
      <trkpt lat="48.7438" lon="1.75635">
        <ele>206.6</ele>
        <time>2026-03-26T09:28:21.000Z</time>
      </trkpt>
      <trkpt lat="48.74379" lon="1.75635">
        <ele>206.8</ele>
        <time>2026-03-26T09:28:22.000Z</time>
      </trkpt>
      <trkpt lat="48.74378" lon="1.75636">
        <ele>206.9</ele>
        <time>2026-03-26T09:28:23.000Z</time>
      </trkpt>
      <trkpt lat="48.74377" lon="1.75636">
        <ele>207.6</ele>
        <time>2026-03-26T09:28:24.000Z</time>
      </trkpt>
      <trkpt lat="48.74376" lon="1.75636">
        <ele>207.4</ele>
        <time>2026-03-26T09:28:25.000Z</time>
      </trkpt>
      <trkpt lat="48.74375" lon="1.75636">
        <ele>206.6</ele>
        <time>2026-03-26T09:28:26.000Z</time>
      </trkpt>
      <trkpt lat="48.74374" lon="1.75636">
        <ele>206</ele>
        <time>2026-03-26T09:28:27.000Z</time>
      </trkpt>
      <trkpt lat="48.74373" lon="1.75637">
        <ele>206</ele>
        <time>2026-03-26T09:28:28.000Z</time>
      </trkpt>
      <trkpt lat="48.74372" lon="1.75637">
        <ele>206.3</ele>
        <time>2026-03-26T09:28:29.000Z</time>
      </trkpt>
      <trkpt lat="48.74371" lon="1.75638">
        <ele>205.9</ele>
        <time>2026-03-26T09:28:30.000Z</time>
      </trkpt>
      <trkpt lat="48.7437" lon="1.75638">
        <ele>205.6</ele>
        <time>2026-03-26T09:28:31.000Z</time>
      </trkpt>
      <trkpt lat="48.74369" lon="1.75639">
        <ele>206</ele>
        <time>2026-03-26T09:28:32.000Z</time>
      </trkpt>
      <trkpt lat="48.74368" lon="1.75639">
        <ele>205.5</ele>
        <time>2026-03-26T09:28:33.000Z</time>
      </trkpt>
      <trkpt lat="48.74366" lon="1.7564">
        <ele>206.6</ele>
        <time>2026-03-26T09:28:34.000Z</time>
      </trkpt>
      <trkpt lat="48.74365" lon="1.75641">
        <ele>207.1</ele>
        <time>2026-03-26T09:28:35.000Z</time>
      </trkpt>
      <trkpt lat="48.74364" lon="1.75641">
        <ele>207.2</ele>
        <time>2026-03-26T09:28:36.000Z</time>
      </trkpt>
      <trkpt lat="48.74363" lon="1.75642">
        <ele>208.2</ele>
        <time>2026-03-26T09:28:37.000Z</time>
      </trkpt>
      <trkpt lat="48.74362" lon="1.75643">
        <ele>208.4</ele>
        <time>2026-03-26T09:28:38.000Z</time>
      </trkpt>
      <trkpt lat="48.74361" lon="1.75644">
        <ele>209.2</ele>
        <time>2026-03-26T09:28:39.000Z</time>
      </trkpt>
      <trkpt lat="48.7436" lon="1.75644">
        <ele>209.2</ele>
        <time>2026-03-26T09:28:40.000Z</time>
      </trkpt>
      <trkpt lat="48.74358" lon="1.75644">
        <ele>210.5</ele>
        <time>2026-03-26T09:28:41.000Z</time>
      </trkpt>
      <trkpt lat="48.74357" lon="1.75644">
        <ele>210.7</ele>
        <time>2026-03-26T09:28:42.000Z</time>
      </trkpt>
      <trkpt lat="48.74356" lon="1.75644">
        <ele>211.1</ele>
        <time>2026-03-26T09:28:43.000Z</time>
      </trkpt>
      <trkpt lat="48.74355" lon="1.75645">
        <ele>211</ele>
        <time>2026-03-26T09:28:44.000Z</time>
      </trkpt>
      <trkpt lat="48.74354" lon="1.75645">
        <ele>211.2</ele>
        <time>2026-03-26T09:28:45.000Z</time>
      </trkpt>
      <trkpt lat="48.74353" lon="1.75646">
        <ele>211.2</ele>
        <time>2026-03-26T09:28:46.000Z</time>
      </trkpt>
      <trkpt lat="48.74352" lon="1.75647">
        <ele>212</ele>
        <time>2026-03-26T09:28:47.000Z</time>
      </trkpt>
      <trkpt lat="48.74351" lon="1.75648">
        <ele>212.2</ele>
        <time>2026-03-26T09:28:48.000Z</time>
      </trkpt>
      <trkpt lat="48.7435" lon="1.75648">
        <ele>212.2</ele>
        <time>2026-03-26T09:28:49.000Z</time>
      </trkpt>
      <trkpt lat="48.74348" lon="1.75648">
        <ele>211.5</ele>
        <time>2026-03-26T09:28:50.000Z</time>
      </trkpt>
      <trkpt lat="48.74347" lon="1.75648">
        <ele>211.3</ele>
        <time>2026-03-26T09:28:51.000Z</time>
      </trkpt>
      <trkpt lat="48.74346" lon="1.75649">
        <ele>211.5</ele>
        <time>2026-03-26T09:28:52.000Z</time>
      </trkpt>
      <trkpt lat="48.74345" lon="1.7565">
        <ele>211.2</ele>
        <time>2026-03-26T09:28:53.000Z</time>
      </trkpt>
      <trkpt lat="48.74344" lon="1.7565">
        <ele>210.8</ele>
        <time>2026-03-26T09:28:54.000Z</time>
      </trkpt>
      <trkpt lat="48.74343" lon="1.7565">
        <ele>211.9</ele>
        <time>2026-03-26T09:28:55.000Z</time>
      </trkpt>
      <trkpt lat="48.74341" lon="1.7565">
        <ele>212</ele>
        <time>2026-03-26T09:28:56.000Z</time>
      </trkpt>
      <trkpt lat="48.7434" lon="1.7565">
        <ele>212.5</ele>
        <time>2026-03-26T09:28:57.000Z</time>
      </trkpt>
      <trkpt lat="48.74339" lon="1.7565">
        <ele>212.3</ele>
        <time>2026-03-26T09:28:58.000Z</time>
      </trkpt>
      <trkpt lat="48.74338" lon="1.75649">
        <ele>212.4</ele>
        <time>2026-03-26T09:28:59.000Z</time>
      </trkpt>
      <trkpt lat="48.74337" lon="1.75648">
        <ele>212.8</ele>
        <time>2026-03-26T09:29:00.000Z</time>
      </trkpt>
      <trkpt lat="48.74336" lon="1.75648">
        <ele>212.8</ele>
        <time>2026-03-26T09:29:01.000Z</time>
      </trkpt>
      <trkpt lat="48.74334" lon="1.75648">
        <ele>212.3</ele>
        <time>2026-03-26T09:29:02.000Z</time>
      </trkpt>
      <trkpt lat="48.74333" lon="1.75648">
        <ele>212.2</ele>
        <time>2026-03-26T09:29:03.000Z</time>
      </trkpt>
      <trkpt lat="48.74332" lon="1.75647">
        <ele>212.2</ele>
        <time>2026-03-26T09:29:04.000Z</time>
      </trkpt>
      <trkpt lat="48.74331" lon="1.75647">
        <ele>212.3</ele>
        <time>2026-03-26T09:29:05.000Z</time>
      </trkpt>
      <trkpt lat="48.7433" lon="1.75647">
        <ele>212.7</ele>
        <time>2026-03-26T09:29:06.000Z</time>
      </trkpt>
      <trkpt lat="48.74329" lon="1.75646">
        <ele>212.6</ele>
        <time>2026-03-26T09:29:07.000Z</time>
      </trkpt>
      <trkpt lat="48.74328" lon="1.75646">
        <ele>213</ele>
        <time>2026-03-26T09:29:08.000Z</time>
      </trkpt>
      <trkpt lat="48.74327" lon="1.75646">
        <ele>212.9</ele>
        <time>2026-03-26T09:29:09.000Z</time>
      </trkpt>
      <trkpt lat="48.74326" lon="1.75646">
        <ele>213.2</ele>
        <time>2026-03-26T09:29:10.000Z</time>
      </trkpt>
      <trkpt lat="48.74325" lon="1.75646">
        <ele>212.7</ele>
        <time>2026-03-26T09:29:11.000Z</time>
      </trkpt>
      <trkpt lat="48.74324" lon="1.75646">
        <ele>213.2</ele>
        <time>2026-03-26T09:29:12.000Z</time>
      </trkpt>
      <trkpt lat="48.74323" lon="1.75646">
        <ele>213.3</ele>
        <time>2026-03-26T09:29:13.000Z</time>
      </trkpt>
      <trkpt lat="48.74322" lon="1.75646">
        <ele>213.2</ele>
        <time>2026-03-26T09:29:14.000Z</time>
      </trkpt>
      <trkpt lat="48.74321" lon="1.75646">
        <ele>212.8</ele>
        <time>2026-03-26T09:29:15.000Z</time>
      </trkpt>
      <trkpt lat="48.7432" lon="1.75646">
        <ele>212.2</ele>
        <time>2026-03-26T09:29:16.000Z</time>
      </trkpt>
      <trkpt lat="48.74319" lon="1.75646">
        <ele>213.1</ele>
        <time>2026-03-26T09:29:17.000Z</time>
      </trkpt>
      <trkpt lat="48.74318" lon="1.75646">
        <ele>213.1</ele>
        <time>2026-03-26T09:29:18.000Z</time>
      </trkpt>
      <trkpt lat="48.74317" lon="1.75646">
        <ele>213.6</ele>
        <time>2026-03-26T09:29:19.000Z</time>
      </trkpt>
      <trkpt lat="48.74315" lon="1.75645">
        <ele>213.7</ele>
        <time>2026-03-26T09:29:20.000Z</time>
      </trkpt>
      <trkpt lat="48.74314" lon="1.75645">
        <ele>213.9</ele>
        <time>2026-03-26T09:29:21.000Z</time>
      </trkpt>
      <trkpt lat="48.74313" lon="1.75645">
        <ele>214</ele>
        <time>2026-03-26T09:29:22.000Z</time>
      </trkpt>
      <trkpt lat="48.74312" lon="1.75645">
        <ele>214.3</ele>
        <time>2026-03-26T09:29:23.000Z</time>
      </trkpt>
      <trkpt lat="48.74311" lon="1.75645">
        <ele>215.2</ele>
        <time>2026-03-26T09:29:24.000Z</time>
      </trkpt>
      <trkpt lat="48.7431" lon="1.75645">
        <ele>215.4</ele>
        <time>2026-03-26T09:29:25.000Z</time>
      </trkpt>
      <trkpt lat="48.74309" lon="1.75645">
        <ele>215.2</ele>
        <time>2026-03-26T09:29:26.000Z</time>
      </trkpt>
      <trkpt lat="48.74308" lon="1.75644">
        <ele>215.2</ele>
        <time>2026-03-26T09:29:27.000Z</time>
      </trkpt>
      <trkpt lat="48.74307" lon="1.75644">
        <ele>215</ele>
        <time>2026-03-26T09:29:28.000Z</time>
      </trkpt>
      <trkpt lat="48.74306" lon="1.75644">
        <ele>215.1</ele>
        <time>2026-03-26T09:29:29.000Z</time>
      </trkpt>
      <trkpt lat="48.74304" lon="1.75644">
        <ele>215.5</ele>
        <time>2026-03-26T09:29:30.000Z</time>
      </trkpt>
      <trkpt lat="48.74303" lon="1.75644">
        <ele>215.1</ele>
        <time>2026-03-26T09:29:31.000Z</time>
      </trkpt>
      <trkpt lat="48.74302" lon="1.75643">
        <ele>215.1</ele>
        <time>2026-03-26T09:29:32.000Z</time>
      </trkpt>
      <trkpt lat="48.74301" lon="1.75643">
        <ele>214.6</ele>
        <time>2026-03-26T09:29:33.000Z</time>
      </trkpt>
      <trkpt lat="48.743" lon="1.75642">
        <ele>214.2</ele>
        <time>2026-03-26T09:29:34.000Z</time>
      </trkpt>
      <trkpt lat="48.74299" lon="1.75642">
        <ele>214.2</ele>
        <time>2026-03-26T09:29:35.000Z</time>
      </trkpt>
      <trkpt lat="48.74298" lon="1.75642">
        <ele>214</ele>
        <time>2026-03-26T09:29:36.000Z</time>
      </trkpt>
      <trkpt lat="48.74298" lon="1.75642">
        <ele>214.1</ele>
        <time>2026-03-26T09:29:37.000Z</time>
      </trkpt>
      <trkpt lat="48.74297" lon="1.75641">
        <ele>214.5</ele>
        <time>2026-03-26T09:29:38.000Z</time>
      </trkpt>
      <trkpt lat="48.74296" lon="1.75641">
        <ele>213.7</ele>
        <time>2026-03-26T09:29:39.000Z</time>
      </trkpt>
      <trkpt lat="48.74295" lon="1.7564">
        <ele>213.6</ele>
        <time>2026-03-26T09:29:40.000Z</time>
      </trkpt>
      <trkpt lat="48.74294" lon="1.75639">
        <ele>213.8</ele>
        <time>2026-03-26T09:29:41.000Z</time>
      </trkpt>
      <trkpt lat="48.74293" lon="1.75639">
        <ele>213.6</ele>
        <time>2026-03-26T09:29:42.000Z</time>
      </trkpt>
      <trkpt lat="48.74292" lon="1.75639">
        <ele>213.5</ele>
        <time>2026-03-26T09:29:43.000Z</time>
      </trkpt>
      <trkpt lat="48.74291" lon="1.75638">
        <ele>213.5</ele>
        <time>2026-03-26T09:29:44.000Z</time>
      </trkpt>
      <trkpt lat="48.7429" lon="1.75638">
        <ele>212.9</ele>
        <time>2026-03-26T09:29:45.000Z</time>
      </trkpt>
      <trkpt lat="48.74289" lon="1.75637">
        <ele>212.3</ele>
        <time>2026-03-26T09:29:46.000Z</time>
      </trkpt>
      <trkpt lat="48.74288" lon="1.75637">
        <ele>211.4</ele>
        <time>2026-03-26T09:29:47.000Z</time>
      </trkpt>
      <trkpt lat="48.74287" lon="1.75636">
        <ele>211.7</ele>
        <time>2026-03-26T09:29:48.000Z</time>
      </trkpt>
      <trkpt lat="48.74286" lon="1.75635">
        <ele>212</ele>
        <time>2026-03-26T09:29:49.000Z</time>
      </trkpt>
      <trkpt lat="48.74284" lon="1.75635">
        <ele>212.5</ele>
        <time>2026-03-26T09:29:50.000Z</time>
      </trkpt>
      <trkpt lat="48.74283" lon="1.75635">
        <ele>212.7</ele>
        <time>2026-03-26T09:29:51.000Z</time>
      </trkpt>
      <trkpt lat="48.74282" lon="1.75634">
        <ele>212.9</ele>
        <time>2026-03-26T09:29:52.000Z</time>
      </trkpt>
      <trkpt lat="48.74281" lon="1.75634">
        <ele>213.3</ele>
        <time>2026-03-26T09:29:53.000Z</time>
      </trkpt>
      <trkpt lat="48.7428" lon="1.75634">
        <ele>213.3</ele>
        <time>2026-03-26T09:29:54.000Z</time>
      </trkpt>
      <trkpt lat="48.74278" lon="1.75633">
        <ele>213.7</ele>
        <time>2026-03-26T09:29:55.000Z</time>
      </trkpt>
      <trkpt lat="48.74277" lon="1.75633">
        <ele>214.3</ele>
        <time>2026-03-26T09:29:56.000Z</time>
      </trkpt>
      <trkpt lat="48.74276" lon="1.75633">
        <ele>214.2</ele>
        <time>2026-03-26T09:29:57.000Z</time>
      </trkpt>
      <trkpt lat="48.74274" lon="1.75633">
        <ele>214.8</ele>
        <time>2026-03-26T09:29:58.000Z</time>
      </trkpt>
      <trkpt lat="48.74273" lon="1.75632">
        <ele>214.7</ele>
        <time>2026-03-26T09:29:59.000Z</time>
      </trkpt>
      <trkpt lat="48.74272" lon="1.75632">
        <ele>215.1</ele>
        <time>2026-03-26T09:30:00.000Z</time>
      </trkpt>
      <trkpt lat="48.74271" lon="1.75632">
        <ele>215.5</ele>
        <time>2026-03-26T09:30:01.000Z</time>
      </trkpt>
      <trkpt lat="48.7427" lon="1.75632">
        <ele>216.3</ele>
        <time>2026-03-26T09:30:02.000Z</time>
      </trkpt>
      <trkpt lat="48.74269" lon="1.75632">
        <ele>216.5</ele>
        <time>2026-03-26T09:30:03.000Z</time>
      </trkpt>
      <trkpt lat="48.74267" lon="1.75632">
        <ele>216.7</ele>
        <time>2026-03-26T09:30:04.000Z</time>
      </trkpt>
      <trkpt lat="48.74266" lon="1.75632">
        <ele>216.4</ele>
        <time>2026-03-26T09:30:05.000Z</time>
      </trkpt>
      <trkpt lat="48.74265" lon="1.75631">
        <ele>216.1</ele>
        <time>2026-03-26T09:30:06.000Z</time>
      </trkpt>
      <trkpt lat="48.74264" lon="1.75631">
        <ele>216.6</ele>
        <time>2026-03-26T09:30:07.000Z</time>
      </trkpt>
      <trkpt lat="48.74262" lon="1.75631">
        <ele>216.7</ele>
        <time>2026-03-26T09:30:08.000Z</time>
      </trkpt>
      <trkpt lat="48.74261" lon="1.75631">
        <ele>217.1</ele>
        <time>2026-03-26T09:30:09.000Z</time>
      </trkpt>
      <trkpt lat="48.74259" lon="1.75631">
        <ele>217.7</ele>
        <time>2026-03-26T09:30:10.000Z</time>
      </trkpt>
      <trkpt lat="48.74258" lon="1.75631">
        <ele>217.4</ele>
        <time>2026-03-26T09:30:11.000Z</time>
      </trkpt>
      <trkpt lat="48.74256" lon="1.75631">
        <ele>217.2</ele>
        <time>2026-03-26T09:30:12.000Z</time>
      </trkpt>
      <trkpt lat="48.74255" lon="1.75632">
        <ele>216.3</ele>
        <time>2026-03-26T09:30:13.000Z</time>
      </trkpt>
      <trkpt lat="48.74254" lon="1.75632">
        <ele>215.4</ele>
        <time>2026-03-26T09:30:14.000Z</time>
      </trkpt>
      <trkpt lat="48.74253" lon="1.75632">
        <ele>214.9</ele>
        <time>2026-03-26T09:30:15.000Z</time>
      </trkpt>
      <trkpt lat="48.74251" lon="1.75632">
        <ele>214.9</ele>
        <time>2026-03-26T09:30:16.000Z</time>
      </trkpt>
      <trkpt lat="48.7425" lon="1.75632">
        <ele>214.7</ele>
        <time>2026-03-26T09:30:17.000Z</time>
      </trkpt>
      <trkpt lat="48.74249" lon="1.75632">
        <ele>214.8</ele>
        <time>2026-03-26T09:30:18.000Z</time>
      </trkpt>
      <trkpt lat="48.74247" lon="1.75633">
        <ele>214.8</ele>
        <time>2026-03-26T09:30:19.000Z</time>
      </trkpt>
      <trkpt lat="48.74246" lon="1.75633">
        <ele>215.3</ele>
        <time>2026-03-26T09:30:20.000Z</time>
      </trkpt>
      <trkpt lat="48.74245" lon="1.75633">
        <ele>215.8</ele>
        <time>2026-03-26T09:30:21.000Z</time>
      </trkpt>
      <trkpt lat="48.74243" lon="1.75633">
        <ele>215.5</ele>
        <time>2026-03-26T09:30:22.000Z</time>
      </trkpt>
      <trkpt lat="48.74242" lon="1.75633">
        <ele>215.8</ele>
        <time>2026-03-26T09:30:23.000Z</time>
      </trkpt>
      <trkpt lat="48.74241" lon="1.75633">
        <ele>215.8</ele>
        <time>2026-03-26T09:30:24.000Z</time>
      </trkpt>
      <trkpt lat="48.74239" lon="1.75633">
        <ele>215.8</ele>
        <time>2026-03-26T09:30:25.000Z</time>
      </trkpt>
      <trkpt lat="48.74238" lon="1.75634">
        <ele>215.5</ele>
        <time>2026-03-26T09:30:26.000Z</time>
      </trkpt>
      <trkpt lat="48.74237" lon="1.75634">
        <ele>216.1</ele>
        <time>2026-03-26T09:30:27.000Z</time>
      </trkpt>
      <trkpt lat="48.74235" lon="1.75634">
        <ele>216.2</ele>
        <time>2026-03-26T09:30:28.000Z</time>
      </trkpt>
      <trkpt lat="48.74234" lon="1.75634">
        <ele>216.3</ele>
        <time>2026-03-26T09:30:29.000Z</time>
      </trkpt>
      <trkpt lat="48.74232" lon="1.75634">
        <ele>216.3</ele>
        <time>2026-03-26T09:30:30.000Z</time>
      </trkpt>
      <trkpt lat="48.74231" lon="1.75634">
        <ele>216.8</ele>
        <time>2026-03-26T09:30:31.000Z</time>
      </trkpt>
      <trkpt lat="48.7423" lon="1.75634">
        <ele>217.5</ele>
        <time>2026-03-26T09:30:32.000Z</time>
      </trkpt>
      <trkpt lat="48.74228" lon="1.75635">
        <ele>217.4</ele>
        <time>2026-03-26T09:30:33.000Z</time>
      </trkpt>
      <trkpt lat="48.74227" lon="1.75635">
        <ele>217.5</ele>
        <time>2026-03-26T09:30:34.000Z</time>
      </trkpt>
      <trkpt lat="48.74226" lon="1.75635">
        <ele>217.5</ele>
        <time>2026-03-26T09:30:35.000Z</time>
      </trkpt>
      <trkpt lat="48.74225" lon="1.75635">
        <ele>218</ele>
        <time>2026-03-26T09:30:36.000Z</time>
      </trkpt>
      <trkpt lat="48.74224" lon="1.75635">
        <ele>218.5</ele>
        <time>2026-03-26T09:30:37.000Z</time>
      </trkpt>
      <trkpt lat="48.74223" lon="1.75635">
        <ele>218</ele>
        <time>2026-03-26T09:30:38.000Z</time>
      </trkpt>
      <trkpt lat="48.74223" lon="1.75635">
        <ele>217.9</ele>
        <time>2026-03-26T09:30:39.000Z</time>
      </trkpt>
      <trkpt lat="48.74222" lon="1.75634">
        <ele>217.3</ele>
        <time>2026-03-26T09:30:40.000Z</time>
      </trkpt>
      <trkpt lat="48.74221" lon="1.75635">
        <ele>217.8</ele>
        <time>2026-03-26T09:30:41.000Z</time>
      </trkpt>
      <trkpt lat="48.7422" lon="1.75635">
        <ele>218.2</ele>
        <time>2026-03-26T09:30:42.000Z</time>
      </trkpt>
      <trkpt lat="48.74219" lon="1.75634">
        <ele>218.2</ele>
        <time>2026-03-26T09:30:43.000Z</time>
      </trkpt>
      <trkpt lat="48.74218" lon="1.75634">
        <ele>218.2</ele>
        <time>2026-03-26T09:30:44.000Z</time>
      </trkpt>
      <trkpt lat="48.74217" lon="1.75633">
        <ele>217.8</ele>
        <time>2026-03-26T09:30:45.000Z</time>
      </trkpt>
      <trkpt lat="48.74216" lon="1.75633">
        <ele>217.7</ele>
        <time>2026-03-26T09:30:46.000Z</time>
      </trkpt>
      <trkpt lat="48.74215" lon="1.75633">
        <ele>217.8</ele>
        <time>2026-03-26T09:30:47.000Z</time>
      </trkpt>
      <trkpt lat="48.74213" lon="1.75633">
        <ele>218.4</ele>
        <time>2026-03-26T09:30:48.000Z</time>
      </trkpt>
      <trkpt lat="48.74212" lon="1.75633">
        <ele>218.2</ele>
        <time>2026-03-26T09:30:49.000Z</time>
      </trkpt>
      <trkpt lat="48.74211" lon="1.75633">
        <ele>218.1</ele>
        <time>2026-03-26T09:30:50.000Z</time>
      </trkpt>
      <trkpt lat="48.7421" lon="1.75632">
        <ele>217.9</ele>
        <time>2026-03-26T09:30:51.000Z</time>
      </trkpt>
      <trkpt lat="48.74209" lon="1.75632">
        <ele>217.8</ele>
        <time>2026-03-26T09:30:52.000Z</time>
      </trkpt>
      <trkpt lat="48.74208" lon="1.75632">
        <ele>217.7</ele>
        <time>2026-03-26T09:30:53.000Z</time>
      </trkpt>
      <trkpt lat="48.74206" lon="1.75632">
        <ele>217.6</ele>
        <time>2026-03-26T09:30:54.000Z</time>
      </trkpt>
      <trkpt lat="48.74205" lon="1.75632">
        <ele>218.3</ele>
        <time>2026-03-26T09:30:55.000Z</time>
      </trkpt>
      <trkpt lat="48.74204" lon="1.75632">
        <ele>219</ele>
        <time>2026-03-26T09:30:56.000Z</time>
      </trkpt>
      <trkpt lat="48.74203" lon="1.75632">
        <ele>219.7</ele>
        <time>2026-03-26T09:30:57.000Z</time>
      </trkpt>
      <trkpt lat="48.74202" lon="1.75631">
        <ele>219.8</ele>
        <time>2026-03-26T09:30:58.000Z</time>
      </trkpt>
      <trkpt lat="48.742" lon="1.75631">
        <ele>219.9</ele>
        <time>2026-03-26T09:30:59.000Z</time>
      </trkpt>
      <trkpt lat="48.74199" lon="1.75631">
        <ele>220.3</ele>
        <time>2026-03-26T09:31:00.000Z</time>
      </trkpt>
      <trkpt lat="48.74198" lon="1.75631">
        <ele>220.1</ele>
        <time>2026-03-26T09:31:01.000Z</time>
      </trkpt>
      <trkpt lat="48.74197" lon="1.75632">
        <ele>220.7</ele>
        <time>2026-03-26T09:31:02.000Z</time>
      </trkpt>
      <trkpt lat="48.74196" lon="1.75632">
        <ele>220.5</ele>
        <time>2026-03-26T09:31:03.000Z</time>
      </trkpt>
      <trkpt lat="48.74195" lon="1.75632">
        <ele>220.5</ele>
        <time>2026-03-26T09:31:04.000Z</time>
      </trkpt>
      <trkpt lat="48.74193" lon="1.75632">
        <ele>220.3</ele>
        <time>2026-03-26T09:31:05.000Z</time>
      </trkpt>
      <trkpt lat="48.74193" lon="1.75631">
        <ele>220.8</ele>
        <time>2026-03-26T09:31:06.000Z</time>
      </trkpt>
      <trkpt lat="48.74192" lon="1.75631">
        <ele>221.2</ele>
        <time>2026-03-26T09:31:07.000Z</time>
      </trkpt>
      <trkpt lat="48.74191" lon="1.75631">
        <ele>221.7</ele>
        <time>2026-03-26T09:31:08.000Z</time>
      </trkpt>
      <trkpt lat="48.74189" lon="1.75631">
        <ele>221.8</ele>
        <time>2026-03-26T09:31:09.000Z</time>
      </trkpt>
      <trkpt lat="48.74188" lon="1.75631">
        <ele>222.1</ele>
        <time>2026-03-26T09:31:10.000Z</time>
      </trkpt>
      <trkpt lat="48.74187" lon="1.7563">
        <ele>221.7</ele>
        <time>2026-03-26T09:31:11.000Z</time>
      </trkpt>
      <trkpt lat="48.74186" lon="1.7563">
        <ele>221.6</ele>
        <time>2026-03-26T09:31:12.000Z</time>
      </trkpt>
      <trkpt lat="48.74185" lon="1.7563">
        <ele>221.6</ele>
        <time>2026-03-26T09:31:13.000Z</time>
      </trkpt>
      <trkpt lat="48.74184" lon="1.7563">
        <ele>220.7</ele>
        <time>2026-03-26T09:31:14.000Z</time>
      </trkpt>
      <trkpt lat="48.74183" lon="1.75629">
        <ele>220.8</ele>
        <time>2026-03-26T09:31:15.000Z</time>
      </trkpt>
      <trkpt lat="48.74182" lon="1.75629">
        <ele>220.6</ele>
        <time>2026-03-26T09:31:16.000Z</time>
      </trkpt>
      <trkpt lat="48.74181" lon="1.75629">
        <ele>220.3</ele>
        <time>2026-03-26T09:31:17.000Z</time>
      </trkpt>
      <trkpt lat="48.7418" lon="1.75629">
        <ele>220.4</ele>
        <time>2026-03-26T09:31:18.000Z</time>
      </trkpt>
      <trkpt lat="48.74179" lon="1.75629">
        <ele>220.3</ele>
        <time>2026-03-26T09:31:19.000Z</time>
      </trkpt>
      <trkpt lat="48.74178" lon="1.75629">
        <ele>220.4</ele>
        <time>2026-03-26T09:31:20.000Z</time>
      </trkpt>
      <trkpt lat="48.74177" lon="1.75629">
        <ele>220.6</ele>
        <time>2026-03-26T09:31:21.000Z</time>
      </trkpt>
      <trkpt lat="48.74176" lon="1.75629">
        <ele>221</ele>
        <time>2026-03-26T09:31:22.000Z</time>
      </trkpt>
      <trkpt lat="48.74175" lon="1.75629">
        <ele>222.1</ele>
        <time>2026-03-26T09:31:23.000Z</time>
      </trkpt>
      <trkpt lat="48.74173" lon="1.75629">
        <ele>222.4</ele>
        <time>2026-03-26T09:31:24.000Z</time>
      </trkpt>
      <trkpt lat="48.74173" lon="1.75628">
        <ele>222.2</ele>
        <time>2026-03-26T09:31:25.000Z</time>
      </trkpt>
      <trkpt lat="48.74172" lon="1.75628">
        <ele>221.5</ele>
        <time>2026-03-26T09:31:26.000Z</time>
      </trkpt>
      <trkpt lat="48.74171" lon="1.75628">
        <ele>221.3</ele>
        <time>2026-03-26T09:31:27.000Z</time>
      </trkpt>
      <trkpt lat="48.7417" lon="1.75628">
        <ele>221.6</ele>
        <time>2026-03-26T09:31:28.000Z</time>
      </trkpt>
      <trkpt lat="48.74169" lon="1.75629">
        <ele>222</ele>
        <time>2026-03-26T09:31:29.000Z</time>
      </trkpt>
      <trkpt lat="48.74167" lon="1.75629">
        <ele>222.2</ele>
        <time>2026-03-26T09:31:30.000Z</time>
      </trkpt>
      <trkpt lat="48.74166" lon="1.75629">
        <ele>222.5</ele>
        <time>2026-03-26T09:31:31.000Z</time>
      </trkpt>
      <trkpt lat="48.74165" lon="1.75629">
        <ele>222.3</ele>
        <time>2026-03-26T09:31:32.000Z</time>
      </trkpt>
      <trkpt lat="48.74164" lon="1.75629">
        <ele>222.5</ele>
        <time>2026-03-26T09:31:33.000Z</time>
      </trkpt>
      <trkpt lat="48.74162" lon="1.75629">
        <ele>222.4</ele>
        <time>2026-03-26T09:31:34.000Z</time>
      </trkpt>
      <trkpt lat="48.74161" lon="1.7563">
        <ele>222.5</ele>
        <time>2026-03-26T09:31:35.000Z</time>
      </trkpt>
      <trkpt lat="48.7416" lon="1.75631">
        <ele>221.9</ele>
        <time>2026-03-26T09:31:36.000Z</time>
      </trkpt>
      <trkpt lat="48.74159" lon="1.75631">
        <ele>221.7</ele>
        <time>2026-03-26T09:31:37.000Z</time>
      </trkpt>
      <trkpt lat="48.74158" lon="1.75631">
        <ele>221.4</ele>
        <time>2026-03-26T09:31:38.000Z</time>
      </trkpt>
      <trkpt lat="48.74157" lon="1.75632">
        <ele>221.2</ele>
        <time>2026-03-26T09:31:39.000Z</time>
      </trkpt>
      <trkpt lat="48.74156" lon="1.75632">
        <ele>220.6</ele>
        <time>2026-03-26T09:31:40.000Z</time>
      </trkpt>
      <trkpt lat="48.74154" lon="1.75632">
        <ele>220.7</ele>
        <time>2026-03-26T09:31:41.000Z</time>
      </trkpt>
      <trkpt lat="48.74153" lon="1.75633">
        <ele>220.9</ele>
        <time>2026-03-26T09:31:42.000Z</time>
      </trkpt>
      <trkpt lat="48.74152" lon="1.75633">
        <ele>220.9</ele>
        <time>2026-03-26T09:31:43.000Z</time>
      </trkpt>
      <trkpt lat="48.74151" lon="1.75633">
        <ele>220.7</ele>
        <time>2026-03-26T09:31:44.000Z</time>
      </trkpt>
      <trkpt lat="48.7415" lon="1.75633">
        <ele>221.2</ele>
        <time>2026-03-26T09:31:45.000Z</time>
      </trkpt>
      <trkpt lat="48.74148" lon="1.75633">
        <ele>220.8</ele>
        <time>2026-03-26T09:31:46.000Z</time>
      </trkpt>
      <trkpt lat="48.74147" lon="1.75633">
        <ele>220.7</ele>
        <time>2026-03-26T09:31:47.000Z</time>
      </trkpt>
      <trkpt lat="48.74146" lon="1.75633">
        <ele>220.4</ele>
        <time>2026-03-26T09:31:48.000Z</time>
      </trkpt>
      <trkpt lat="48.74145" lon="1.75633">
        <ele>221.1</ele>
        <time>2026-03-26T09:31:49.000Z</time>
      </trkpt>
      <trkpt lat="48.74143" lon="1.75633">
        <ele>221.7</ele>
        <time>2026-03-26T09:31:50.000Z</time>
      </trkpt>
      <trkpt lat="48.74142" lon="1.75632">
        <ele>222</ele>
        <time>2026-03-26T09:31:51.000Z</time>
      </trkpt>
      <trkpt lat="48.74141" lon="1.75632">
        <ele>221.8</ele>
        <time>2026-03-26T09:31:52.000Z</time>
      </trkpt>
      <trkpt lat="48.74139" lon="1.75632">
        <ele>221.6</ele>
        <time>2026-03-26T09:31:53.000Z</time>
      </trkpt>
      <trkpt lat="48.74138" lon="1.75632">
        <ele>222</ele>
        <time>2026-03-26T09:31:54.000Z</time>
      </trkpt>
      <trkpt lat="48.74137" lon="1.75632">
        <ele>221.6</ele>
        <time>2026-03-26T09:31:55.000Z</time>
      </trkpt>
      <trkpt lat="48.74136" lon="1.75632">
        <ele>221.7</ele>
        <time>2026-03-26T09:31:56.000Z</time>
      </trkpt>
      <trkpt lat="48.74135" lon="1.75632">
        <ele>221.6</ele>
        <time>2026-03-26T09:31:57.000Z</time>
      </trkpt>
      <trkpt lat="48.74133" lon="1.75632">
        <ele>221.5</ele>
        <time>2026-03-26T09:31:58.000Z</time>
      </trkpt>
      <trkpt lat="48.74132" lon="1.75632">
        <ele>222.1</ele>
        <time>2026-03-26T09:31:59.000Z</time>
      </trkpt>
      <trkpt lat="48.74131" lon="1.75632">
        <ele>221.8</ele>
        <time>2026-03-26T09:32:00.000Z</time>
      </trkpt>
      <trkpt lat="48.7413" lon="1.75632">
        <ele>222</ele>
        <time>2026-03-26T09:32:01.000Z</time>
      </trkpt>
      <trkpt lat="48.74129" lon="1.75632">
        <ele>222.4</ele>
        <time>2026-03-26T09:32:02.000Z</time>
      </trkpt>
      <trkpt lat="48.74127" lon="1.75631">
        <ele>222.3</ele>
        <time>2026-03-26T09:32:03.000Z</time>
      </trkpt>
      <trkpt lat="48.74126" lon="1.75631">
        <ele>222.3</ele>
        <time>2026-03-26T09:32:04.000Z</time>
      </trkpt>
      <trkpt lat="48.74125" lon="1.75631">
        <ele>223.1</ele>
        <time>2026-03-26T09:32:05.000Z</time>
      </trkpt>
      <trkpt lat="48.74124" lon="1.75631">
        <ele>223.2</ele>
        <time>2026-03-26T09:32:06.000Z</time>
      </trkpt>
      <trkpt lat="48.74122" lon="1.7563">
        <ele>223.2</ele>
        <time>2026-03-26T09:32:07.000Z</time>
      </trkpt>
      <trkpt lat="48.74121" lon="1.7563">
        <ele>222.8</ele>
        <time>2026-03-26T09:32:08.000Z</time>
      </trkpt>
      <trkpt lat="48.7412" lon="1.7563">
        <ele>222.8</ele>
        <time>2026-03-26T09:32:09.000Z</time>
      </trkpt>
      <trkpt lat="48.74119" lon="1.7563">
        <ele>222.9</ele>
        <time>2026-03-26T09:32:10.000Z</time>
      </trkpt>
      <trkpt lat="48.74118" lon="1.7563">
        <ele>223.6</ele>
        <time>2026-03-26T09:32:11.000Z</time>
      </trkpt>
      <trkpt lat="48.74116" lon="1.7563">
        <ele>223.6</ele>
        <time>2026-03-26T09:32:12.000Z</time>
      </trkpt>
      <trkpt lat="48.74115" lon="1.75629">
        <ele>224</ele>
        <time>2026-03-26T09:32:13.000Z</time>
      </trkpt>
      <trkpt lat="48.74114" lon="1.75629">
        <ele>224.1</ele>
        <time>2026-03-26T09:32:14.000Z</time>
      </trkpt>
      <trkpt lat="48.74113" lon="1.75628">
        <ele>224.6</ele>
        <time>2026-03-26T09:32:15.000Z</time>
      </trkpt>
      <trkpt lat="48.74112" lon="1.75628">
        <ele>224.6</ele>
        <time>2026-03-26T09:32:16.000Z</time>
      </trkpt>
      <trkpt lat="48.74111" lon="1.75628">
        <ele>223.8</ele>
        <time>2026-03-26T09:32:17.000Z</time>
      </trkpt>
      <trkpt lat="48.74109" lon="1.75627">
        <ele>224</ele>
        <time>2026-03-26T09:32:18.000Z</time>
      </trkpt>
      <trkpt lat="48.74108" lon="1.75627">
        <ele>223.6</ele>
        <time>2026-03-26T09:32:19.000Z</time>
      </trkpt>
      <trkpt lat="48.74107" lon="1.75627">
        <ele>223.5</ele>
        <time>2026-03-26T09:32:20.000Z</time>
      </trkpt>
      <trkpt lat="48.74106" lon="1.75627">
        <ele>223.3</ele>
        <time>2026-03-26T09:32:21.000Z</time>
      </trkpt>
      <trkpt lat="48.74105" lon="1.75627">
        <ele>223</ele>
        <time>2026-03-26T09:32:22.000Z</time>
      </trkpt>
      <trkpt lat="48.74104" lon="1.75627">
        <ele>223</ele>
        <time>2026-03-26T09:32:23.000Z</time>
      </trkpt>
      <trkpt lat="48.74103" lon="1.75627">
        <ele>223.1</ele>
        <time>2026-03-26T09:32:24.000Z</time>
      </trkpt>
      <trkpt lat="48.74101" lon="1.75627">
        <ele>223.4</ele>
        <time>2026-03-26T09:32:25.000Z</time>
      </trkpt>
      <trkpt lat="48.741" lon="1.75626">
        <ele>223.3</ele>
        <time>2026-03-26T09:32:26.000Z</time>
      </trkpt>
      <trkpt lat="48.74099" lon="1.75625">
        <ele>223.2</ele>
        <time>2026-03-26T09:32:27.000Z</time>
      </trkpt>
      <trkpt lat="48.74098" lon="1.75625">
        <ele>223.2</ele>
        <time>2026-03-26T09:32:28.000Z</time>
      </trkpt>
      <trkpt lat="48.74097" lon="1.75624">
        <ele>223.2</ele>
        <time>2026-03-26T09:32:29.000Z</time>
      </trkpt>
      <trkpt lat="48.74096" lon="1.75623">
        <ele>223.9</ele>
        <time>2026-03-26T09:32:30.000Z</time>
      </trkpt>
      <trkpt lat="48.74095" lon="1.75623">
        <ele>224.5</ele>
        <time>2026-03-26T09:32:31.000Z</time>
      </trkpt>
      <trkpt lat="48.74093" lon="1.75623">
        <ele>224.4</ele>
        <time>2026-03-26T09:32:32.000Z</time>
      </trkpt>
      <trkpt lat="48.74092" lon="1.75622">
        <ele>224.3</ele>
        <time>2026-03-26T09:32:33.000Z</time>
      </trkpt>
      <trkpt lat="48.74091" lon="1.75622">
        <ele>224.2</ele>
        <time>2026-03-26T09:32:34.000Z</time>
      </trkpt>
      <trkpt lat="48.7409" lon="1.75621">
        <ele>224.5</ele>
        <time>2026-03-26T09:32:35.000Z</time>
      </trkpt>
      <trkpt lat="48.74089" lon="1.75621">
        <ele>224.4</ele>
        <time>2026-03-26T09:32:36.000Z</time>
      </trkpt>
      <trkpt lat="48.74087" lon="1.7562">
        <ele>224.8</ele>
        <time>2026-03-26T09:32:37.000Z</time>
      </trkpt>
      <trkpt lat="48.74086" lon="1.7562">
        <ele>224.7</ele>
        <time>2026-03-26T09:32:38.000Z</time>
      </trkpt>
      <trkpt lat="48.74085" lon="1.7562">
        <ele>225.1</ele>
        <time>2026-03-26T09:32:39.000Z</time>
      </trkpt>
      <trkpt lat="48.74084" lon="1.75619">
        <ele>225</ele>
        <time>2026-03-26T09:32:40.000Z</time>
      </trkpt>
      <trkpt lat="48.74083" lon="1.75618">
        <ele>224.4</ele>
        <time>2026-03-26T09:32:41.000Z</time>
      </trkpt>
      <trkpt lat="48.74082" lon="1.75618">
        <ele>224.8</ele>
        <time>2026-03-26T09:32:42.000Z</time>
      </trkpt>
      <trkpt lat="48.74081" lon="1.75618">
        <ele>224.8</ele>
        <time>2026-03-26T09:32:43.000Z</time>
      </trkpt>
      <trkpt lat="48.7408" lon="1.75619">
        <ele>224.9</ele>
        <time>2026-03-26T09:32:44.000Z</time>
      </trkpt>
      <trkpt lat="48.74079" lon="1.75619">
        <ele>224.6</ele>
        <time>2026-03-26T09:32:45.000Z</time>
      </trkpt>
      <trkpt lat="48.74078" lon="1.7562">
        <ele>224.5</ele>
        <time>2026-03-26T09:32:46.000Z</time>
      </trkpt>
      <trkpt lat="48.74077" lon="1.75619">
        <ele>224.5</ele>
        <time>2026-03-26T09:32:47.000Z</time>
      </trkpt>
      <trkpt lat="48.74076" lon="1.75619">
        <ele>224.4</ele>
        <time>2026-03-26T09:32:48.000Z</time>
      </trkpt>
      <trkpt lat="48.74075" lon="1.75618">
        <ele>224.7</ele>
        <time>2026-03-26T09:32:49.000Z</time>
      </trkpt>
      <trkpt lat="48.74074" lon="1.75618">
        <ele>224.5</ele>
        <time>2026-03-26T09:32:50.000Z</time>
      </trkpt>
      <trkpt lat="48.74072" lon="1.75619">
        <ele>224.8</ele>
        <time>2026-03-26T09:32:51.000Z</time>
      </trkpt>
      <trkpt lat="48.74071" lon="1.75619">
        <ele>224.7</ele>
        <time>2026-03-26T09:32:52.000Z</time>
      </trkpt>
      <trkpt lat="48.7407" lon="1.75619">
        <ele>225.2</ele>
        <time>2026-03-26T09:32:53.000Z</time>
      </trkpt>
      <trkpt lat="48.74069" lon="1.75618">
        <ele>224.9</ele>
        <time>2026-03-26T09:32:54.000Z</time>
      </trkpt>
      <trkpt lat="48.74068" lon="1.75617">
        <ele>224.9</ele>
        <time>2026-03-26T09:32:55.000Z</time>
      </trkpt>
      <trkpt lat="48.74067" lon="1.75617">
        <ele>224.5</ele>
        <time>2026-03-26T09:32:56.000Z</time>
      </trkpt>
      <trkpt lat="48.74066" lon="1.75617">
        <ele>224.1</ele>
        <time>2026-03-26T09:32:57.000Z</time>
      </trkpt>
      <trkpt lat="48.74065" lon="1.75616">
        <ele>223.7</ele>
        <time>2026-03-26T09:32:58.000Z</time>
      </trkpt>
      <trkpt lat="48.74064" lon="1.75615">
        <ele>223.1</ele>
        <time>2026-03-26T09:32:59.000Z</time>
      </trkpt>
      <trkpt lat="48.74062" lon="1.75614">
        <ele>223</ele>
        <time>2026-03-26T09:33:00.000Z</time>
      </trkpt>
      <trkpt lat="48.74061" lon="1.75614">
        <ele>223.4</ele>
        <time>2026-03-26T09:33:01.000Z</time>
      </trkpt>
      <trkpt lat="48.7406" lon="1.75614">
        <ele>223.3</ele>
        <time>2026-03-26T09:33:02.000Z</time>
      </trkpt>
      <trkpt lat="48.74059" lon="1.75614">
        <ele>223.3</ele>
        <time>2026-03-26T09:33:03.000Z</time>
      </trkpt>
      <trkpt lat="48.74058" lon="1.75614">
        <ele>223.2</ele>
        <time>2026-03-26T09:33:04.000Z</time>
      </trkpt>
      <trkpt lat="48.74057" lon="1.75614">
        <ele>223.2</ele>
        <time>2026-03-26T09:33:05.000Z</time>
      </trkpt>
      <trkpt lat="48.74056" lon="1.75613">
        <ele>223.3</ele>
        <time>2026-03-26T09:33:06.000Z</time>
      </trkpt>
      <trkpt lat="48.74054" lon="1.75612">
        <ele>224.4</ele>
        <time>2026-03-26T09:33:07.000Z</time>
      </trkpt>
      <trkpt lat="48.74053" lon="1.75612">
        <ele>224.5</ele>
        <time>2026-03-26T09:33:08.000Z</time>
      </trkpt>
      <trkpt lat="48.74052" lon="1.75612">
        <ele>224.3</ele>
        <time>2026-03-26T09:33:09.000Z</time>
      </trkpt>
      <trkpt lat="48.74051" lon="1.75612">
        <ele>224.1</ele>
        <time>2026-03-26T09:33:10.000Z</time>
      </trkpt>
      <trkpt lat="48.7405" lon="1.75611">
        <ele>224.2</ele>
        <time>2026-03-26T09:33:11.000Z</time>
      </trkpt>
      <trkpt lat="48.74048" lon="1.75611">
        <ele>224.3</ele>
        <time>2026-03-26T09:33:12.000Z</time>
      </trkpt>
      <trkpt lat="48.74047" lon="1.75611">
        <ele>224.1</ele>
        <time>2026-03-26T09:33:13.000Z</time>
      </trkpt>
      <trkpt lat="48.74046" lon="1.75611">
        <ele>224.1</ele>
        <time>2026-03-26T09:33:14.000Z</time>
      </trkpt>
      <trkpt lat="48.74045" lon="1.75611">
        <ele>223.9</ele>
        <time>2026-03-26T09:33:15.000Z</time>
      </trkpt>
      <trkpt lat="48.74044" lon="1.75611">
        <ele>224.1</ele>
        <time>2026-03-26T09:33:16.000Z</time>
      </trkpt>
      <trkpt lat="48.74043" lon="1.75611">
        <ele>224.5</ele>
        <time>2026-03-26T09:33:17.000Z</time>
      </trkpt>
      <trkpt lat="48.74042" lon="1.7561">
        <ele>224.7</ele>
        <time>2026-03-26T09:33:18.000Z</time>
      </trkpt>
      <trkpt lat="48.74041" lon="1.7561">
        <ele>224.4</ele>
        <time>2026-03-26T09:33:19.000Z</time>
      </trkpt>
      <trkpt lat="48.74039" lon="1.75609">
        <ele>223.9</ele>
        <time>2026-03-26T09:33:20.000Z</time>
      </trkpt>
      <trkpt lat="48.74038" lon="1.75609">
        <ele>223.7</ele>
        <time>2026-03-26T09:33:21.000Z</time>
      </trkpt>
      <trkpt lat="48.74037" lon="1.75609">
        <ele>224.3</ele>
        <time>2026-03-26T09:33:22.000Z</time>
      </trkpt>
      <trkpt lat="48.74036" lon="1.75608">
        <ele>224.4</ele>
        <time>2026-03-26T09:33:23.000Z</time>
      </trkpt>
      <trkpt lat="48.74035" lon="1.75608">
        <ele>224.2</ele>
        <time>2026-03-26T09:33:24.000Z</time>
      </trkpt>
      <trkpt lat="48.74033" lon="1.75607">
        <ele>225</ele>
        <time>2026-03-26T09:33:25.000Z</time>
      </trkpt>
      <trkpt lat="48.74032" lon="1.75607">
        <ele>225.1</ele>
        <time>2026-03-26T09:33:26.000Z</time>
      </trkpt>
      <trkpt lat="48.74031" lon="1.75607">
        <ele>224.9</ele>
        <time>2026-03-26T09:33:27.000Z</time>
      </trkpt>
      <trkpt lat="48.7403" lon="1.75607">
        <ele>225.3</ele>
        <time>2026-03-26T09:33:28.000Z</time>
      </trkpt>
      <trkpt lat="48.74029" lon="1.75606">
        <ele>226.1</ele>
        <time>2026-03-26T09:33:29.000Z</time>
      </trkpt>
      <trkpt lat="48.74027" lon="1.75606">
        <ele>226.1</ele>
        <time>2026-03-26T09:33:30.000Z</time>
      </trkpt>
      <trkpt lat="48.74026" lon="1.75605">
        <ele>225.9</ele>
        <time>2026-03-26T09:33:31.000Z</time>
      </trkpt>
      <trkpt lat="48.74025" lon="1.75605">
        <ele>225.6</ele>
        <time>2026-03-26T09:33:32.000Z</time>
      </trkpt>
      <trkpt lat="48.74024" lon="1.75605">
        <ele>225.2</ele>
        <time>2026-03-26T09:33:33.000Z</time>
      </trkpt>
      <trkpt lat="48.74023" lon="1.75604">
        <ele>225.3</ele>
        <time>2026-03-26T09:33:34.000Z</time>
      </trkpt>
      <trkpt lat="48.74022" lon="1.75603">
        <ele>225</ele>
        <time>2026-03-26T09:33:35.000Z</time>
      </trkpt>
      <trkpt lat="48.74021" lon="1.75603">
        <ele>224.2</ele>
        <time>2026-03-26T09:33:36.000Z</time>
      </trkpt>
      <trkpt lat="48.74019" lon="1.75602">
        <ele>223.9</ele>
        <time>2026-03-26T09:33:37.000Z</time>
      </trkpt>
      <trkpt lat="48.74018" lon="1.75602">
        <ele>224.5</ele>
        <time>2026-03-26T09:33:38.000Z</time>
      </trkpt>
      <trkpt lat="48.74017" lon="1.75602">
        <ele>224.3</ele>
        <time>2026-03-26T09:33:39.000Z</time>
      </trkpt>
      <trkpt lat="48.74016" lon="1.75602">
        <ele>224.4</ele>
        <time>2026-03-26T09:33:40.000Z</time>
      </trkpt>
      <trkpt lat="48.74014" lon="1.75602">
        <ele>224.7</ele>
        <time>2026-03-26T09:33:41.000Z</time>
      </trkpt>
      <trkpt lat="48.74013" lon="1.75602">
        <ele>224.6</ele>
        <time>2026-03-26T09:33:42.000Z</time>
      </trkpt>
      <trkpt lat="48.74012" lon="1.75602">
        <ele>224.2</ele>
        <time>2026-03-26T09:33:43.000Z</time>
      </trkpt>
      <trkpt lat="48.74011" lon="1.75602">
        <ele>224.1</ele>
        <time>2026-03-26T09:33:44.000Z</time>
      </trkpt>
      <trkpt lat="48.7401" lon="1.75602">
        <ele>223.8</ele>
        <time>2026-03-26T09:33:45.000Z</time>
      </trkpt>
      <trkpt lat="48.74009" lon="1.75602">
        <ele>224.4</ele>
        <time>2026-03-26T09:33:46.000Z</time>
      </trkpt>
      <trkpt lat="48.74008" lon="1.75602">
        <ele>223.8</ele>
        <time>2026-03-26T09:33:47.000Z</time>
      </trkpt>
      <trkpt lat="48.74006" lon="1.75603">
        <ele>224.5</ele>
        <time>2026-03-26T09:33:48.000Z</time>
      </trkpt>
      <trkpt lat="48.74005" lon="1.75603">
        <ele>225.1</ele>
        <time>2026-03-26T09:33:49.000Z</time>
      </trkpt>
      <trkpt lat="48.74004" lon="1.75604">
        <ele>224.9</ele>
        <time>2026-03-26T09:33:50.000Z</time>
      </trkpt>
      <trkpt lat="48.74003" lon="1.75604">
        <ele>224.7</ele>
        <time>2026-03-26T09:33:51.000Z</time>
      </trkpt>
      <trkpt lat="48.74001" lon="1.75604">
        <ele>224.7</ele>
        <time>2026-03-26T09:33:52.000Z</time>
      </trkpt>
      <trkpt lat="48.74" lon="1.75604">
        <ele>224.7</ele>
        <time>2026-03-26T09:33:53.000Z</time>
      </trkpt>
      <trkpt lat="48.73999" lon="1.75605">
        <ele>225.6</ele>
        <time>2026-03-26T09:33:54.000Z</time>
      </trkpt>
      <trkpt lat="48.73998" lon="1.75605">
        <ele>226</ele>
        <time>2026-03-26T09:33:55.000Z</time>
      </trkpt>
      <trkpt lat="48.73996" lon="1.75605">
        <ele>225.8</ele>
        <time>2026-03-26T09:33:56.000Z</time>
      </trkpt>
      <trkpt lat="48.73995" lon="1.75606">
        <ele>225.6</ele>
        <time>2026-03-26T09:33:57.000Z</time>
      </trkpt>
      <trkpt lat="48.73994" lon="1.75606">
        <ele>225</ele>
        <time>2026-03-26T09:33:58.000Z</time>
      </trkpt>
      <trkpt lat="48.73992" lon="1.75606">
        <ele>224.6</ele>
        <time>2026-03-26T09:33:59.000Z</time>
      </trkpt>
      <trkpt lat="48.73991" lon="1.75607">
        <ele>224.5</ele>
        <time>2026-03-26T09:34:00.000Z</time>
      </trkpt>
      <trkpt lat="48.7399" lon="1.75607">
        <ele>224.8</ele>
        <time>2026-03-26T09:34:01.000Z</time>
      </trkpt>
      <trkpt lat="48.73989" lon="1.75608">
        <ele>224.9</ele>
        <time>2026-03-26T09:34:02.000Z</time>
      </trkpt>
      <trkpt lat="48.73988" lon="1.75609">
        <ele>224.8</ele>
        <time>2026-03-26T09:34:03.000Z</time>
      </trkpt>
      <trkpt lat="48.73987" lon="1.75609">
        <ele>225.1</ele>
        <time>2026-03-26T09:34:04.000Z</time>
      </trkpt>
      <trkpt lat="48.73986" lon="1.7561">
        <ele>225.2</ele>
        <time>2026-03-26T09:34:05.000Z</time>
      </trkpt>
      <trkpt lat="48.73985" lon="1.75611">
        <ele>225</ele>
        <time>2026-03-26T09:34:06.000Z</time>
      </trkpt>
      <trkpt lat="48.73984" lon="1.75612">
        <ele>224.7</ele>
        <time>2026-03-26T09:34:07.000Z</time>
      </trkpt>
      <trkpt lat="48.73982" lon="1.75612">
        <ele>224.9</ele>
        <time>2026-03-26T09:34:08.000Z</time>
      </trkpt>
      <trkpt lat="48.73981" lon="1.75613">
        <ele>224.4</ele>
        <time>2026-03-26T09:34:09.000Z</time>
      </trkpt>
      <trkpt lat="48.7398" lon="1.75614">
        <ele>224.3</ele>
        <time>2026-03-26T09:34:10.000Z</time>
      </trkpt>
      <trkpt lat="48.73979" lon="1.75615">
        <ele>224.3</ele>
        <time>2026-03-26T09:34:11.000Z</time>
      </trkpt>
      <trkpt lat="48.73978" lon="1.75616">
        <ele>224.6</ele>
        <time>2026-03-26T09:34:12.000Z</time>
      </trkpt>
      <trkpt lat="48.73977" lon="1.75617">
        <ele>224.6</ele>
        <time>2026-03-26T09:34:13.000Z</time>
      </trkpt>
      <trkpt lat="48.73976" lon="1.75618">
        <ele>224.7</ele>
        <time>2026-03-26T09:34:14.000Z</time>
      </trkpt>
      <trkpt lat="48.73975" lon="1.75619">
        <ele>224.4</ele>
        <time>2026-03-26T09:34:15.000Z</time>
      </trkpt>
      <trkpt lat="48.73974" lon="1.7562">
        <ele>224.4</ele>
        <time>2026-03-26T09:34:16.000Z</time>
      </trkpt>
      <trkpt lat="48.73972" lon="1.7562">
        <ele>224.3</ele>
        <time>2026-03-26T09:34:17.000Z</time>
      </trkpt>
      <trkpt lat="48.73971" lon="1.75621">
        <ele>224.2</ele>
        <time>2026-03-26T09:34:18.000Z</time>
      </trkpt>
      <trkpt lat="48.7397" lon="1.75622">
        <ele>224.1</ele>
        <time>2026-03-26T09:34:19.000Z</time>
      </trkpt>
      <trkpt lat="48.73969" lon="1.75622">
        <ele>223.7</ele>
        <time>2026-03-26T09:34:20.000Z</time>
      </trkpt>
      <trkpt lat="48.73968" lon="1.75623">
        <ele>223.5</ele>
        <time>2026-03-26T09:34:21.000Z</time>
      </trkpt>
      <trkpt lat="48.73967" lon="1.75624">
        <ele>223.8</ele>
        <time>2026-03-26T09:34:22.000Z</time>
      </trkpt>
      <trkpt lat="48.73966" lon="1.75624">
        <ele>223.6</ele>
        <time>2026-03-26T09:34:23.000Z</time>
      </trkpt>
      <trkpt lat="48.73964" lon="1.75624">
        <ele>224</ele>
        <time>2026-03-26T09:34:24.000Z</time>
      </trkpt>
      <trkpt lat="48.73963" lon="1.75624">
        <ele>224.1</ele>
        <time>2026-03-26T09:34:25.000Z</time>
      </trkpt>
      <trkpt lat="48.73962" lon="1.75624">
        <ele>224.2</ele>
        <time>2026-03-26T09:34:26.000Z</time>
      </trkpt>
      <trkpt lat="48.7396" lon="1.75625">
        <ele>224.2</ele>
        <time>2026-03-26T09:34:27.000Z</time>
      </trkpt>
      <trkpt lat="48.73959" lon="1.75625">
        <ele>223.5</ele>
        <time>2026-03-26T09:34:28.000Z</time>
      </trkpt>
      <trkpt lat="48.73958" lon="1.75626">
        <ele>223.5</ele>
        <time>2026-03-26T09:34:29.000Z</time>
      </trkpt>
      <trkpt lat="48.73957" lon="1.75627">
        <ele>222.8</ele>
        <time>2026-03-26T09:34:30.000Z</time>
      </trkpt>
      <trkpt lat="48.73956" lon="1.75628">
        <ele>222.1</ele>
        <time>2026-03-26T09:34:31.000Z</time>
      </trkpt>
      <trkpt lat="48.73956" lon="1.7563">
        <ele>221.5</ele>
        <time>2026-03-26T09:34:32.000Z</time>
      </trkpt>
      <trkpt lat="48.73956" lon="1.75632">
        <ele>221.9</ele>
        <time>2026-03-26T09:34:33.000Z</time>
      </trkpt>
      <trkpt lat="48.73955" lon="1.75634">
        <ele>221.1</ele>
        <time>2026-03-26T09:34:34.000Z</time>
      </trkpt>
      <trkpt lat="48.73955" lon="1.75636">
        <ele>221.4</ele>
        <time>2026-03-26T09:34:35.000Z</time>
      </trkpt>
      <trkpt lat="48.73955" lon="1.75638">
        <ele>221.4</ele>
        <time>2026-03-26T09:34:36.000Z</time>
      </trkpt>
      <trkpt lat="48.73955" lon="1.7564">
        <ele>220.3</ele>
        <time>2026-03-26T09:34:37.000Z</time>
      </trkpt>
      <trkpt lat="48.73954" lon="1.75642">
        <ele>220.3</ele>
        <time>2026-03-26T09:34:38.000Z</time>
      </trkpt>
      <trkpt lat="48.73954" lon="1.75644">
        <ele>220</ele>
        <time>2026-03-26T09:34:39.000Z</time>
      </trkpt>
      <trkpt lat="48.73953" lon="1.75646">
        <ele>220.9</ele>
        <time>2026-03-26T09:34:40.000Z</time>
      </trkpt>
      <trkpt lat="48.73953" lon="1.75648">
        <ele>221</ele>
        <time>2026-03-26T09:34:41.000Z</time>
      </trkpt>
      <trkpt lat="48.73953" lon="1.7565">
        <ele>220.6</ele>
        <time>2026-03-26T09:34:42.000Z</time>
      </trkpt>
      <trkpt lat="48.73953" lon="1.75651">
        <ele>220.5</ele>
        <time>2026-03-26T09:34:43.000Z</time>
      </trkpt>
      <trkpt lat="48.73952" lon="1.75653">
        <ele>220.2</ele>
        <time>2026-03-26T09:34:44.000Z</time>
      </trkpt>
      <trkpt lat="48.73952" lon="1.75655">
        <ele>220.2</ele>
        <time>2026-03-26T09:34:45.000Z</time>
      </trkpt>
      <trkpt lat="48.73952" lon="1.75657">
        <ele>220.5</ele>
        <time>2026-03-26T09:34:46.000Z</time>
      </trkpt>
      <trkpt lat="48.73952" lon="1.75659">
        <ele>220.1</ele>
        <time>2026-03-26T09:34:47.000Z</time>
      </trkpt>
      <trkpt lat="48.73951" lon="1.75661">
        <ele>220.1</ele>
        <time>2026-03-26T09:34:48.000Z</time>
      </trkpt>
      <trkpt lat="48.73951" lon="1.75663">
        <ele>219.8</ele>
        <time>2026-03-26T09:34:49.000Z</time>
      </trkpt>
      <trkpt lat="48.73951" lon="1.75665">
        <ele>219.8</ele>
        <time>2026-03-26T09:34:50.000Z</time>
      </trkpt>
      <trkpt lat="48.73951" lon="1.75667">
        <ele>220.3</ele>
        <time>2026-03-26T09:34:51.000Z</time>
      </trkpt>
      <trkpt lat="48.7395" lon="1.75669">
        <ele>220.4</ele>
        <time>2026-03-26T09:34:52.000Z</time>
      </trkpt>
      <trkpt lat="48.7395" lon="1.75671">
        <ele>220.2</ele>
        <time>2026-03-26T09:34:53.000Z</time>
      </trkpt>
      <trkpt lat="48.7395" lon="1.75674">
        <ele>220.3</ele>
        <time>2026-03-26T09:34:54.000Z</time>
      </trkpt>
      <trkpt lat="48.73949" lon="1.75676">
        <ele>220.8</ele>
        <time>2026-03-26T09:34:55.000Z</time>
      </trkpt>
      <trkpt lat="48.73949" lon="1.75678">
        <ele>221</ele>
        <time>2026-03-26T09:34:56.000Z</time>
      </trkpt>
      <trkpt lat="48.73949" lon="1.7568">
        <ele>221.7</ele>
        <time>2026-03-26T09:34:57.000Z</time>
      </trkpt>
      <trkpt lat="48.73948" lon="1.75682">
        <ele>221.9</ele>
        <time>2026-03-26T09:34:58.000Z</time>
      </trkpt>
      <trkpt lat="48.73948" lon="1.75684">
        <ele>222.6</ele>
        <time>2026-03-26T09:34:59.000Z</time>
      </trkpt>
      <trkpt lat="48.73947" lon="1.75686">
        <ele>222.1</ele>
        <time>2026-03-26T09:35:00.000Z</time>
      </trkpt>
      <trkpt lat="48.73947" lon="1.75688">
        <ele>221.9</ele>
        <time>2026-03-26T09:35:01.000Z</time>
      </trkpt>
      <trkpt lat="48.73946" lon="1.7569">
        <ele>222</ele>
        <time>2026-03-26T09:35:02.000Z</time>
      </trkpt>
      <trkpt lat="48.73946" lon="1.75692">
        <ele>222.2</ele>
        <time>2026-03-26T09:35:03.000Z</time>
      </trkpt>
      <trkpt lat="48.73945" lon="1.75694">
        <ele>222.4</ele>
        <time>2026-03-26T09:35:04.000Z</time>
      </trkpt>
      <trkpt lat="48.73945" lon="1.75697">
        <ele>222.2</ele>
        <time>2026-03-26T09:35:05.000Z</time>
      </trkpt>
      <trkpt lat="48.73945" lon="1.75699">
        <ele>222.2</ele>
        <time>2026-03-26T09:35:06.000Z</time>
      </trkpt>
      <trkpt lat="48.73944" lon="1.75701">
        <ele>222.6</ele>
        <time>2026-03-26T09:35:07.000Z</time>
      </trkpt>
      <trkpt lat="48.73944" lon="1.75703">
        <ele>222.7</ele>
        <time>2026-03-26T09:35:08.000Z</time>
      </trkpt>
      <trkpt lat="48.73943" lon="1.75705">
        <ele>222.6</ele>
        <time>2026-03-26T09:35:09.000Z</time>
      </trkpt>
      <trkpt lat="48.73943" lon="1.75706">
        <ele>223</ele>
        <time>2026-03-26T09:35:10.000Z</time>
      </trkpt>
      <trkpt lat="48.73942" lon="1.75708">
        <ele>222.9</ele>
        <time>2026-03-26T09:35:11.000Z</time>
      </trkpt>
      <trkpt lat="48.73942" lon="1.7571">
        <ele>222.7</ele>
        <time>2026-03-26T09:35:12.000Z</time>
      </trkpt>
      <trkpt lat="48.73942" lon="1.75712">
        <ele>222.4</ele>
        <time>2026-03-26T09:35:13.000Z</time>
      </trkpt>
      <trkpt lat="48.73942" lon="1.75714">
        <ele>222.8</ele>
        <time>2026-03-26T09:35:14.000Z</time>
      </trkpt>
      <trkpt lat="48.73941" lon="1.75716">
        <ele>222.9</ele>
        <time>2026-03-26T09:35:15.000Z</time>
      </trkpt>
      <trkpt lat="48.73941" lon="1.75718">
        <ele>223.1</ele>
        <time>2026-03-26T09:35:16.000Z</time>
      </trkpt>
      <trkpt lat="48.73941" lon="1.75721">
        <ele>223</ele>
        <time>2026-03-26T09:35:17.000Z</time>
      </trkpt>
      <trkpt lat="48.7394" lon="1.75722">
        <ele>223</ele>
        <time>2026-03-26T09:35:18.000Z</time>
      </trkpt>
      <trkpt lat="48.73939" lon="1.75725">
        <ele>223.5</ele>
        <time>2026-03-26T09:35:19.000Z</time>
      </trkpt>
      <trkpt lat="48.73939" lon="1.75727">
        <ele>223.3</ele>
        <time>2026-03-26T09:35:20.000Z</time>
      </trkpt>
      <trkpt lat="48.73939" lon="1.75729">
        <ele>222.8</ele>
        <time>2026-03-26T09:35:21.000Z</time>
      </trkpt>
      <trkpt lat="48.73938" lon="1.75731">
        <ele>222.9</ele>
        <time>2026-03-26T09:35:22.000Z</time>
      </trkpt>
      <trkpt lat="48.73938" lon="1.75733">
        <ele>223.1</ele>
        <time>2026-03-26T09:35:23.000Z</time>
      </trkpt>
      <trkpt lat="48.73938" lon="1.75735">
        <ele>223.6</ele>
        <time>2026-03-26T09:35:24.000Z</time>
      </trkpt>
      <trkpt lat="48.73937" lon="1.75737">
        <ele>223.5</ele>
        <time>2026-03-26T09:35:25.000Z</time>
      </trkpt>
      <trkpt lat="48.73937" lon="1.75739">
        <ele>223.7</ele>
        <time>2026-03-26T09:35:26.000Z</time>
      </trkpt>
      <trkpt lat="48.73937" lon="1.75741">
        <ele>224.2</ele>
        <time>2026-03-26T09:35:27.000Z</time>
      </trkpt>
      <trkpt lat="48.73937" lon="1.75743">
        <ele>223.8</ele>
        <time>2026-03-26T09:35:28.000Z</time>
      </trkpt>
      <trkpt lat="48.73936" lon="1.75745">
        <ele>224.1</ele>
        <time>2026-03-26T09:35:29.000Z</time>
      </trkpt>
      <trkpt lat="48.73936" lon="1.75747">
        <ele>224.2</ele>
        <time>2026-03-26T09:35:30.000Z</time>
      </trkpt>
      <trkpt lat="48.73936" lon="1.75749">
        <ele>224.5</ele>
        <time>2026-03-26T09:35:31.000Z</time>
      </trkpt>
      <trkpt lat="48.73935" lon="1.75751">
        <ele>224.5</ele>
        <time>2026-03-26T09:35:32.000Z</time>
      </trkpt>
      <trkpt lat="48.73935" lon="1.75753">
        <ele>224.5</ele>
        <time>2026-03-26T09:35:33.000Z</time>
      </trkpt>
      <trkpt lat="48.73933" lon="1.75755">
        <ele>224.8</ele>
        <time>2026-03-26T09:35:34.000Z</time>
      </trkpt>
      <trkpt lat="48.73933" lon="1.75756">
        <ele>224.7</ele>
        <time>2026-03-26T09:35:35.000Z</time>
      </trkpt>
      <trkpt lat="48.73932" lon="1.75758">
        <ele>223.3</ele>
        <time>2026-03-26T09:35:36.000Z</time>
      </trkpt>
      <trkpt lat="48.73931" lon="1.75759">
        <ele>223.1</ele>
        <time>2026-03-26T09:35:37.000Z</time>
      </trkpt>
      <trkpt lat="48.7393" lon="1.75761">
        <ele>223.4</ele>
        <time>2026-03-26T09:35:38.000Z</time>
      </trkpt>
      <trkpt lat="48.73929" lon="1.75762">
        <ele>223.1</ele>
        <time>2026-03-26T09:35:39.000Z</time>
      </trkpt>
      <trkpt lat="48.73929" lon="1.75764">
        <ele>223.1</ele>
        <time>2026-03-26T09:35:40.000Z</time>
      </trkpt>
      <trkpt lat="48.73928" lon="1.75765">
        <ele>222.8</ele>
        <time>2026-03-26T09:35:41.000Z</time>
      </trkpt>
      <trkpt lat="48.73927" lon="1.75767">
        <ele>223.6</ele>
        <time>2026-03-26T09:35:42.000Z</time>
      </trkpt>
      <trkpt lat="48.73927" lon="1.75769">
        <ele>223.5</ele>
        <time>2026-03-26T09:35:43.000Z</time>
      </trkpt>
      <trkpt lat="48.73927" lon="1.75771">
        <ele>223.6</ele>
        <time>2026-03-26T09:35:44.000Z</time>
      </trkpt>
      <trkpt lat="48.73927" lon="1.75773">
        <ele>223.7</ele>
        <time>2026-03-26T09:35:45.000Z</time>
      </trkpt>
      <trkpt lat="48.73926" lon="1.75775">
        <ele>223.4</ele>
        <time>2026-03-26T09:35:46.000Z</time>
      </trkpt>
      <trkpt lat="48.73926" lon="1.75777">
        <ele>223.4</ele>
        <time>2026-03-26T09:35:47.000Z</time>
      </trkpt>
      <trkpt lat="48.73926" lon="1.75779">
        <ele>223.4</ele>
        <time>2026-03-26T09:35:48.000Z</time>
      </trkpt>
      <trkpt lat="48.73927" lon="1.75781">
        <ele>223.9</ele>
        <time>2026-03-26T09:35:49.000Z</time>
      </trkpt>
      <trkpt lat="48.73927" lon="1.75783">
        <ele>224.2</ele>
        <time>2026-03-26T09:35:50.000Z</time>
      </trkpt>
      <trkpt lat="48.73926" lon="1.75785">
        <ele>224.4</ele>
        <time>2026-03-26T09:35:51.000Z</time>
      </trkpt>
      <trkpt lat="48.73926" lon="1.75787">
        <ele>224.4</ele>
        <time>2026-03-26T09:35:52.000Z</time>
      </trkpt>
      <trkpt lat="48.73926" lon="1.75789">
        <ele>225</ele>
        <time>2026-03-26T09:35:53.000Z</time>
      </trkpt>
      <trkpt lat="48.73925" lon="1.75791">
        <ele>225.2</ele>
        <time>2026-03-26T09:35:54.000Z</time>
      </trkpt>
      <trkpt lat="48.73925" lon="1.75793">
        <ele>225.8</ele>
        <time>2026-03-26T09:35:55.000Z</time>
      </trkpt>
      <trkpt lat="48.73925" lon="1.75795">
        <ele>225.3</ele>
        <time>2026-03-26T09:35:56.000Z</time>
      </trkpt>
      <trkpt lat="48.73925" lon="1.75797">
        <ele>225.4</ele>
        <time>2026-03-26T09:35:57.000Z</time>
      </trkpt>
      <trkpt lat="48.73924" lon="1.758">
        <ele>225.5</ele>
        <time>2026-03-26T09:35:58.000Z</time>
      </trkpt>
      <trkpt lat="48.73924" lon="1.75802">
        <ele>225.6</ele>
        <time>2026-03-26T09:35:59.000Z</time>
      </trkpt>
      <trkpt lat="48.73924" lon="1.75804">
        <ele>225.5</ele>
        <time>2026-03-26T09:36:00.000Z</time>
      </trkpt>
      <trkpt lat="48.73923" lon="1.75806">
        <ele>225.6</ele>
        <time>2026-03-26T09:36:01.000Z</time>
      </trkpt>
      <trkpt lat="48.73923" lon="1.75808">
        <ele>225.3</ele>
        <time>2026-03-26T09:36:02.000Z</time>
      </trkpt>
      <trkpt lat="48.73923" lon="1.7581">
        <ele>225.1</ele>
        <time>2026-03-26T09:36:03.000Z</time>
      </trkpt>
      <trkpt lat="48.73922" lon="1.75812">
        <ele>224.8</ele>
        <time>2026-03-26T09:36:04.000Z</time>
      </trkpt>
      <trkpt lat="48.73922" lon="1.75814">
        <ele>225.1</ele>
        <time>2026-03-26T09:36:05.000Z</time>
      </trkpt>
      <trkpt lat="48.73921" lon="1.75816">
        <ele>225</ele>
        <time>2026-03-26T09:36:06.000Z</time>
      </trkpt>
      <trkpt lat="48.73921" lon="1.75818">
        <ele>225.6</ele>
        <time>2026-03-26T09:36:07.000Z</time>
      </trkpt>
      <trkpt lat="48.7392" lon="1.7582">
        <ele>225.5</ele>
        <time>2026-03-26T09:36:08.000Z</time>
      </trkpt>
      <trkpt lat="48.7392" lon="1.75822">
        <ele>225.4</ele>
        <time>2026-03-26T09:36:09.000Z</time>
      </trkpt>
      <trkpt lat="48.7392" lon="1.75824">
        <ele>225.3</ele>
        <time>2026-03-26T09:36:10.000Z</time>
      </trkpt>
      <trkpt lat="48.73919" lon="1.75826">
        <ele>225.2</ele>
        <time>2026-03-26T09:36:11.000Z</time>
      </trkpt>
      <trkpt lat="48.73919" lon="1.75828">
        <ele>225.2</ele>
        <time>2026-03-26T09:36:12.000Z</time>
      </trkpt>
      <trkpt lat="48.73918" lon="1.7583">
        <ele>225.9</ele>
        <time>2026-03-26T09:36:13.000Z</time>
      </trkpt>
      <trkpt lat="48.73917" lon="1.75832">
        <ele>225.7</ele>
        <time>2026-03-26T09:36:14.000Z</time>
      </trkpt>
      <trkpt lat="48.73917" lon="1.75835">
        <ele>225.8</ele>
        <time>2026-03-26T09:36:15.000Z</time>
      </trkpt>
      <trkpt lat="48.73916" lon="1.75837">
        <ele>226</ele>
        <time>2026-03-26T09:36:16.000Z</time>
      </trkpt>
      <trkpt lat="48.73916" lon="1.75839">
        <ele>226.4</ele>
        <time>2026-03-26T09:36:17.000Z</time>
      </trkpt>
      <trkpt lat="48.73916" lon="1.75841">
        <ele>226.2</ele>
        <time>2026-03-26T09:36:18.000Z</time>
      </trkpt>
      <trkpt lat="48.73915" lon="1.75843">
        <ele>226.2</ele>
        <time>2026-03-26T09:36:19.000Z</time>
      </trkpt>
      <trkpt lat="48.73915" lon="1.75845">
        <ele>226.2</ele>
        <time>2026-03-26T09:36:20.000Z</time>
      </trkpt>
      <trkpt lat="48.73915" lon="1.75847">
        <ele>226.4</ele>
        <time>2026-03-26T09:36:21.000Z</time>
      </trkpt>
      <trkpt lat="48.73914" lon="1.75849">
        <ele>226.4</ele>
        <time>2026-03-26T09:36:22.000Z</time>
      </trkpt>
      <trkpt lat="48.73914" lon="1.75851">
        <ele>226.6</ele>
        <time>2026-03-26T09:36:23.000Z</time>
      </trkpt>
      <trkpt lat="48.73913" lon="1.75853">
        <ele>227.5</ele>
        <time>2026-03-26T09:36:24.000Z</time>
      </trkpt>
      <trkpt lat="48.73913" lon="1.75855">
        <ele>227.7</ele>
        <time>2026-03-26T09:36:25.000Z</time>
      </trkpt>
      <trkpt lat="48.73913" lon="1.75857">
        <ele>228</ele>
        <time>2026-03-26T09:36:26.000Z</time>
      </trkpt>
      <trkpt lat="48.73912" lon="1.75859">
        <ele>228.2</ele>
        <time>2026-03-26T09:36:27.000Z</time>
      </trkpt>
      <trkpt lat="48.73912" lon="1.75861">
        <ele>228.6</ele>
        <time>2026-03-26T09:36:28.000Z</time>
      </trkpt>
      <trkpt lat="48.73911" lon="1.75863">
        <ele>228.8</ele>
        <time>2026-03-26T09:36:29.000Z</time>
      </trkpt>
      <trkpt lat="48.73911" lon="1.75865">
        <ele>228.8</ele>
        <time>2026-03-26T09:36:30.000Z</time>
      </trkpt>
      <trkpt lat="48.7391" lon="1.75867">
        <ele>228.8</ele>
        <time>2026-03-26T09:36:31.000Z</time>
      </trkpt>
      <trkpt lat="48.7391" lon="1.75869">
        <ele>229.7</ele>
        <time>2026-03-26T09:36:32.000Z</time>
      </trkpt>
      <trkpt lat="48.7391" lon="1.75871">
        <ele>229.6</ele>
        <time>2026-03-26T09:36:33.000Z</time>
      </trkpt>
      <trkpt lat="48.73909" lon="1.75873">
        <ele>230.1</ele>
        <time>2026-03-26T09:36:34.000Z</time>
      </trkpt>
      <trkpt lat="48.73909" lon="1.75875">
        <ele>230.4</ele>
        <time>2026-03-26T09:36:35.000Z</time>
      </trkpt>
      <trkpt lat="48.73909" lon="1.75877">
        <ele>230.8</ele>
        <time>2026-03-26T09:36:36.000Z</time>
      </trkpt>
      <trkpt lat="48.73908" lon="1.7588">
        <ele>230.7</ele>
        <time>2026-03-26T09:36:37.000Z</time>
      </trkpt>
      <trkpt lat="48.73908" lon="1.75882">
        <ele>230.3</ele>
        <time>2026-03-26T09:36:38.000Z</time>
      </trkpt>
      <trkpt lat="48.73907" lon="1.75884">
        <ele>229.8</ele>
        <time>2026-03-26T09:36:39.000Z</time>
      </trkpt>
      <trkpt lat="48.73907" lon="1.75886">
        <ele>229.2</ele>
        <time>2026-03-26T09:36:40.000Z</time>
      </trkpt>
      <trkpt lat="48.73906" lon="1.75888">
        <ele>228.8</ele>
        <time>2026-03-26T09:36:41.000Z</time>
      </trkpt>
      <trkpt lat="48.73906" lon="1.7589">
        <ele>228.9</ele>
        <time>2026-03-26T09:36:42.000Z</time>
      </trkpt>
      <trkpt lat="48.73906" lon="1.75892">
        <ele>228.6</ele>
        <time>2026-03-26T09:36:43.000Z</time>
      </trkpt>
      <trkpt lat="48.73905" lon="1.75894">
        <ele>228.3</ele>
        <time>2026-03-26T09:36:44.000Z</time>
      </trkpt>
      <trkpt lat="48.73905" lon="1.75896">
        <ele>228</ele>
        <time>2026-03-26T09:36:45.000Z</time>
      </trkpt>
      <trkpt lat="48.73905" lon="1.75898">
        <ele>227.3</ele>
        <time>2026-03-26T09:36:46.000Z</time>
      </trkpt>
      <trkpt lat="48.73905" lon="1.759">
        <ele>226.9</ele>
        <time>2026-03-26T09:36:47.000Z</time>
      </trkpt>
      <trkpt lat="48.73904" lon="1.75901">
        <ele>226.1</ele>
        <time>2026-03-26T09:36:48.000Z</time>
      </trkpt>
      <trkpt lat="48.73904" lon="1.75903">
        <ele>226.3</ele>
        <time>2026-03-26T09:36:49.000Z</time>
      </trkpt>
      <trkpt lat="48.73904" lon="1.75905">
        <ele>226.2</ele>
        <time>2026-03-26T09:36:50.000Z</time>
      </trkpt>
      <trkpt lat="48.73903" lon="1.75908">
        <ele>226.1</ele>
        <time>2026-03-26T09:36:51.000Z</time>
      </trkpt>
      <trkpt lat="48.73903" lon="1.7591">
        <ele>226.3</ele>
        <time>2026-03-26T09:36:52.000Z</time>
      </trkpt>
      <trkpt lat="48.73902" lon="1.75912">
        <ele>226.6</ele>
        <time>2026-03-26T09:36:53.000Z</time>
      </trkpt>
      <trkpt lat="48.73902" lon="1.75913">
        <ele>227</ele>
        <time>2026-03-26T09:36:54.000Z</time>
      </trkpt>
      <trkpt lat="48.73902" lon="1.75915">
        <ele>227.5</ele>
        <time>2026-03-26T09:36:55.000Z</time>
      </trkpt>
      <trkpt lat="48.73903" lon="1.75917">
        <ele>227.1</ele>
        <time>2026-03-26T09:36:56.000Z</time>
      </trkpt>
      <trkpt lat="48.73902" lon="1.75919">
        <ele>226.7</ele>
        <time>2026-03-26T09:36:57.000Z</time>
      </trkpt>
      <trkpt lat="48.73902" lon="1.75921">
        <ele>226.8</ele>
        <time>2026-03-26T09:36:58.000Z</time>
      </trkpt>
      <trkpt lat="48.73902" lon="1.75923">
        <ele>226.4</ele>
        <time>2026-03-26T09:36:59.000Z</time>
      </trkpt>
      <trkpt lat="48.73901" lon="1.75926">
        <ele>226.7</ele>
        <time>2026-03-26T09:37:00.000Z</time>
      </trkpt>
      <trkpt lat="48.73901" lon="1.75928">
        <ele>226.6</ele>
        <time>2026-03-26T09:37:01.000Z</time>
      </trkpt>
      <trkpt lat="48.739" lon="1.7593">
        <ele>226.4</ele>
        <time>2026-03-26T09:37:02.000Z</time>
      </trkpt>
      <trkpt lat="48.739" lon="1.75932">
        <ele>226.5</ele>
        <time>2026-03-26T09:37:03.000Z</time>
      </trkpt>
      <trkpt lat="48.739" lon="1.75934">
        <ele>226.9</ele>
        <time>2026-03-26T09:37:04.000Z</time>
      </trkpt>
      <trkpt lat="48.73899" lon="1.75936">
        <ele>226.7</ele>
        <time>2026-03-26T09:37:05.000Z</time>
      </trkpt>
      <trkpt lat="48.73899" lon="1.75939">
        <ele>226.4</ele>
        <time>2026-03-26T09:37:06.000Z</time>
      </trkpt>
      <trkpt lat="48.73898" lon="1.75941">
        <ele>226.5</ele>
        <time>2026-03-26T09:37:07.000Z</time>
      </trkpt>
      <trkpt lat="48.73898" lon="1.75943">
        <ele>226.4</ele>
        <time>2026-03-26T09:37:08.000Z</time>
      </trkpt>
      <trkpt lat="48.73898" lon="1.75945">
        <ele>226.1</ele>
        <time>2026-03-26T09:37:09.000Z</time>
      </trkpt>
      <trkpt lat="48.73897" lon="1.75947">
        <ele>226.4</ele>
        <time>2026-03-26T09:37:10.000Z</time>
      </trkpt>
      <trkpt lat="48.73897" lon="1.75949">
        <ele>226.6</ele>
        <time>2026-03-26T09:37:11.000Z</time>
      </trkpt>
      <trkpt lat="48.73897" lon="1.75951">
        <ele>226.6</ele>
        <time>2026-03-26T09:37:12.000Z</time>
      </trkpt>
      <trkpt lat="48.73896" lon="1.75953">
        <ele>226.2</ele>
        <time>2026-03-26T09:37:13.000Z</time>
      </trkpt>
      <trkpt lat="48.73896" lon="1.75956">
        <ele>226.7</ele>
        <time>2026-03-26T09:37:14.000Z</time>
      </trkpt>
      <trkpt lat="48.73895" lon="1.75958">
        <ele>226.7</ele>
        <time>2026-03-26T09:37:15.000Z</time>
      </trkpt>
      <trkpt lat="48.73895" lon="1.7596">
        <ele>226.9</ele>
        <time>2026-03-26T09:37:16.000Z</time>
      </trkpt>
      <trkpt lat="48.73894" lon="1.75962">
        <ele>226.9</ele>
        <time>2026-03-26T09:37:17.000Z</time>
      </trkpt>
      <trkpt lat="48.73894" lon="1.75964">
        <ele>226.8</ele>
        <time>2026-03-26T09:37:18.000Z</time>
      </trkpt>
      <trkpt lat="48.73893" lon="1.75966">
        <ele>226.8</ele>
        <time>2026-03-26T09:37:19.000Z</time>
      </trkpt>
      <trkpt lat="48.73893" lon="1.75968">
        <ele>226.8</ele>
        <time>2026-03-26T09:37:20.000Z</time>
      </trkpt>
      <trkpt lat="48.73892" lon="1.75969">
        <ele>226.6</ele>
        <time>2026-03-26T09:37:21.000Z</time>
      </trkpt>
      <trkpt lat="48.73892" lon="1.75971">
        <ele>226.5</ele>
        <time>2026-03-26T09:37:22.000Z</time>
      </trkpt>
      <trkpt lat="48.73892" lon="1.75974">
        <ele>227</ele>
        <time>2026-03-26T09:37:23.000Z</time>
      </trkpt>
      <trkpt lat="48.73892" lon="1.75976">
        <ele>227.3</ele>
        <time>2026-03-26T09:37:24.000Z</time>
      </trkpt>
      <trkpt lat="48.73891" lon="1.75978">
        <ele>227.1</ele>
        <time>2026-03-26T09:37:25.000Z</time>
      </trkpt>
      <trkpt lat="48.73891" lon="1.7598">
        <ele>227.2</ele>
        <time>2026-03-26T09:37:26.000Z</time>
      </trkpt>
      <trkpt lat="48.7389" lon="1.75982">
        <ele>226.9</ele>
        <time>2026-03-26T09:37:27.000Z</time>
      </trkpt>
      <trkpt lat="48.7389" lon="1.75985">
        <ele>226.8</ele>
        <time>2026-03-26T09:37:28.000Z</time>
      </trkpt>
      <trkpt lat="48.73889" lon="1.75987">
        <ele>226.7</ele>
        <time>2026-03-26T09:37:29.000Z</time>
      </trkpt>
      <trkpt lat="48.73889" lon="1.75989">
        <ele>226.5</ele>
        <time>2026-03-26T09:37:30.000Z</time>
      </trkpt>
      <trkpt lat="48.73889" lon="1.75991">
        <ele>226.6</ele>
        <time>2026-03-26T09:37:31.000Z</time>
      </trkpt>
      <trkpt lat="48.73888" lon="1.75993">
        <ele>227.1</ele>
        <time>2026-03-26T09:37:32.000Z</time>
      </trkpt>
      <trkpt lat="48.73888" lon="1.75995">
        <ele>226.6</ele>
        <time>2026-03-26T09:37:33.000Z</time>
      </trkpt>
      <trkpt lat="48.73887" lon="1.75997">
        <ele>226.7</ele>
        <time>2026-03-26T09:37:34.000Z</time>
      </trkpt>
      <trkpt lat="48.73887" lon="1.75999">
        <ele>226.9</ele>
        <time>2026-03-26T09:37:35.000Z</time>
      </trkpt>
      <trkpt lat="48.73886" lon="1.76001">
        <ele>226.6</ele>
        <time>2026-03-26T09:37:36.000Z</time>
      </trkpt>
      <trkpt lat="48.73886" lon="1.76003">
        <ele>227.1</ele>
        <time>2026-03-26T09:37:37.000Z</time>
      </trkpt>
      <trkpt lat="48.73885" lon="1.76005">
        <ele>227.5</ele>
        <time>2026-03-26T09:37:38.000Z</time>
      </trkpt>
      <trkpt lat="48.73885" lon="1.76007">
        <ele>227.4</ele>
        <time>2026-03-26T09:37:39.000Z</time>
      </trkpt>
      <trkpt lat="48.73884" lon="1.76009">
        <ele>227.4</ele>
        <time>2026-03-26T09:37:40.000Z</time>
      </trkpt>
      <trkpt lat="48.73884" lon="1.76011">
        <ele>227</ele>
        <time>2026-03-26T09:37:41.000Z</time>
      </trkpt>
      <trkpt lat="48.73883" lon="1.76013">
        <ele>226.8</ele>
        <time>2026-03-26T09:37:42.000Z</time>
      </trkpt>
      <trkpt lat="48.73883" lon="1.76015">
        <ele>226.5</ele>
        <time>2026-03-26T09:37:43.000Z</time>
      </trkpt>
      <trkpt lat="48.73883" lon="1.76017">
        <ele>226.6</ele>
        <time>2026-03-26T09:37:44.000Z</time>
      </trkpt>
      <trkpt lat="48.73882" lon="1.76018">
        <ele>227.2</ele>
        <time>2026-03-26T09:37:45.000Z</time>
      </trkpt>
      <trkpt lat="48.73882" lon="1.76021">
        <ele>227.5</ele>
        <time>2026-03-26T09:37:46.000Z</time>
      </trkpt>
      <trkpt lat="48.73881" lon="1.76023">
        <ele>226.7</ele>
        <time>2026-03-26T09:37:47.000Z</time>
      </trkpt>
      <trkpt lat="48.73881" lon="1.76024">
        <ele>226.6</ele>
        <time>2026-03-26T09:37:48.000Z</time>
      </trkpt>
      <trkpt lat="48.7388" lon="1.76027">
        <ele>226.7</ele>
        <time>2026-03-26T09:37:49.000Z</time>
      </trkpt>
      <trkpt lat="48.7388" lon="1.76029">
        <ele>227.1</ele>
        <time>2026-03-26T09:37:50.000Z</time>
      </trkpt>
      <trkpt lat="48.73879" lon="1.76031">
        <ele>228.1</ele>
        <time>2026-03-26T09:37:51.000Z</time>
      </trkpt>
      <trkpt lat="48.73879" lon="1.76034">
        <ele>228.4</ele>
        <time>2026-03-26T09:37:52.000Z</time>
      </trkpt>
      <trkpt lat="48.73878" lon="1.76036">
        <ele>228.5</ele>
        <time>2026-03-26T09:37:53.000Z</time>
      </trkpt>
      <trkpt lat="48.73878" lon="1.76038">
        <ele>228.4</ele>
        <time>2026-03-26T09:37:54.000Z</time>
      </trkpt>
      <trkpt lat="48.73877" lon="1.76039">
        <ele>228.8</ele>
        <time>2026-03-26T09:37:55.000Z</time>
      </trkpt>
      <trkpt lat="48.73877" lon="1.76041">
        <ele>228.6</ele>
        <time>2026-03-26T09:37:56.000Z</time>
      </trkpt>
      <trkpt lat="48.73876" lon="1.76043">
        <ele>229.1</ele>
        <time>2026-03-26T09:37:57.000Z</time>
      </trkpt>
      <trkpt lat="48.73876" lon="1.76045">
        <ele>229.4</ele>
        <time>2026-03-26T09:37:58.000Z</time>
      </trkpt>
      <trkpt lat="48.73876" lon="1.76047">
        <ele>228.6</ele>
        <time>2026-03-26T09:37:59.000Z</time>
      </trkpt>
      <trkpt lat="48.73875" lon="1.76049">
        <ele>228.5</ele>
        <time>2026-03-26T09:38:00.000Z</time>
      </trkpt>
      <trkpt lat="48.73875" lon="1.76051">
        <ele>228.2</ele>
        <time>2026-03-26T09:38:01.000Z</time>
      </trkpt>
      <trkpt lat="48.73874" lon="1.76052">
        <ele>227.8</ele>
        <time>2026-03-26T09:38:02.000Z</time>
      </trkpt>
      <trkpt lat="48.73874" lon="1.76054">
        <ele>227.5</ele>
        <time>2026-03-26T09:38:03.000Z</time>
      </trkpt>
      <trkpt lat="48.73873" lon="1.76056">
        <ele>227.3</ele>
        <time>2026-03-26T09:38:04.000Z</time>
      </trkpt>
      <trkpt lat="48.73873" lon="1.76058">
        <ele>227</ele>
        <time>2026-03-26T09:38:05.000Z</time>
      </trkpt>
      <trkpt lat="48.73872" lon="1.7606">
        <ele>226.7</ele>
        <time>2026-03-26T09:38:06.000Z</time>
      </trkpt>
      <trkpt lat="48.73872" lon="1.76062">
        <ele>226.3</ele>
        <time>2026-03-26T09:38:07.000Z</time>
      </trkpt>
      <trkpt lat="48.73872" lon="1.76064">
        <ele>226.2</ele>
        <time>2026-03-26T09:38:08.000Z</time>
      </trkpt>
      <trkpt lat="48.73872" lon="1.76066">
        <ele>225.9</ele>
        <time>2026-03-26T09:38:09.000Z</time>
      </trkpt>
      <trkpt lat="48.73871" lon="1.76068">
        <ele>225.7</ele>
        <time>2026-03-26T09:38:10.000Z</time>
      </trkpt>
      <trkpt lat="48.73871" lon="1.7607">
        <ele>225.6</ele>
        <time>2026-03-26T09:38:11.000Z</time>
      </trkpt>
      <trkpt lat="48.7387" lon="1.76072">
        <ele>225.7</ele>
        <time>2026-03-26T09:38:12.000Z</time>
      </trkpt>
      <trkpt lat="48.7387" lon="1.76074">
        <ele>225.3</ele>
        <time>2026-03-26T09:38:13.000Z</time>
      </trkpt>
      <trkpt lat="48.7387" lon="1.76076">
        <ele>225.2</ele>
        <time>2026-03-26T09:38:14.000Z</time>
      </trkpt>
      <trkpt lat="48.7387" lon="1.76078">
        <ele>225.1</ele>
        <time>2026-03-26T09:38:15.000Z</time>
      </trkpt>
      <trkpt lat="48.73869" lon="1.7608">
        <ele>224.7</ele>
        <time>2026-03-26T09:38:16.000Z</time>
      </trkpt>
      <trkpt lat="48.73869" lon="1.76082">
        <ele>225</ele>
        <time>2026-03-26T09:38:17.000Z</time>
      </trkpt>
      <trkpt lat="48.73869" lon="1.76084">
        <ele>225.1</ele>
        <time>2026-03-26T09:38:18.000Z</time>
      </trkpt>
      <trkpt lat="48.73868" lon="1.76086">
        <ele>225</ele>
        <time>2026-03-26T09:38:19.000Z</time>
      </trkpt>
      <trkpt lat="48.73868" lon="1.76088">
        <ele>224.7</ele>
        <time>2026-03-26T09:38:20.000Z</time>
      </trkpt>
      <trkpt lat="48.73867" lon="1.7609">
        <ele>224.5</ele>
        <time>2026-03-26T09:38:21.000Z</time>
      </trkpt>
      <trkpt lat="48.73867" lon="1.76092">
        <ele>224.2</ele>
        <time>2026-03-26T09:38:22.000Z</time>
      </trkpt>
      <trkpt lat="48.73867" lon="1.76094">
        <ele>224.1</ele>
        <time>2026-03-26T09:38:23.000Z</time>
      </trkpt>
      <trkpt lat="48.73866" lon="1.76096">
        <ele>224.2</ele>
        <time>2026-03-26T09:38:24.000Z</time>
      </trkpt>
      <trkpt lat="48.73866" lon="1.76098">
        <ele>224.3</ele>
        <time>2026-03-26T09:38:25.000Z</time>
      </trkpt>
      <trkpt lat="48.73865" lon="1.761">
        <ele>224.4</ele>
        <time>2026-03-26T09:38:26.000Z</time>
      </trkpt>
      <trkpt lat="48.73865" lon="1.76102">
        <ele>224.3</ele>
        <time>2026-03-26T09:38:27.000Z</time>
      </trkpt>
      <trkpt lat="48.73865" lon="1.76104">
        <ele>224.1</ele>
        <time>2026-03-26T09:38:28.000Z</time>
      </trkpt>
      <trkpt lat="48.73864" lon="1.76106">
        <ele>223.9</ele>
        <time>2026-03-26T09:38:29.000Z</time>
      </trkpt>
      <trkpt lat="48.73864" lon="1.76108">
        <ele>223.7</ele>
        <time>2026-03-26T09:38:30.000Z</time>
      </trkpt>
      <trkpt lat="48.73863" lon="1.7611">
        <ele>223.3</ele>
        <time>2026-03-26T09:38:31.000Z</time>
      </trkpt>
      <trkpt lat="48.73863" lon="1.76112">
        <ele>223.4</ele>
        <time>2026-03-26T09:38:32.000Z</time>
      </trkpt>
      <trkpt lat="48.73862" lon="1.76114">
        <ele>223</ele>
        <time>2026-03-26T09:38:33.000Z</time>
      </trkpt>
      <trkpt lat="48.73862" lon="1.76116">
        <ele>222.9</ele>
        <time>2026-03-26T09:38:34.000Z</time>
      </trkpt>
      <trkpt lat="48.73862" lon="1.76118">
        <ele>222.8</ele>
        <time>2026-03-26T09:38:35.000Z</time>
      </trkpt>
      <trkpt lat="48.73861" lon="1.7612">
        <ele>222.7</ele>
        <time>2026-03-26T09:38:36.000Z</time>
      </trkpt>
      <trkpt lat="48.73861" lon="1.76122">
        <ele>222.8</ele>
        <time>2026-03-26T09:38:37.000Z</time>
      </trkpt>
      <trkpt lat="48.73861" lon="1.76124">
        <ele>222.6</ele>
        <time>2026-03-26T09:38:38.000Z</time>
      </trkpt>
      <trkpt lat="48.7386" lon="1.76126">
        <ele>222.5</ele>
        <time>2026-03-26T09:38:39.000Z</time>
      </trkpt>
      <trkpt lat="48.7386" lon="1.76128">
        <ele>222.4</ele>
        <time>2026-03-26T09:38:40.000Z</time>
      </trkpt>
      <trkpt lat="48.73859" lon="1.7613">
        <ele>222.4</ele>
        <time>2026-03-26T09:38:41.000Z</time>
      </trkpt>
      <trkpt lat="48.73859" lon="1.76132">
        <ele>222.5</ele>
        <time>2026-03-26T09:38:42.000Z</time>
      </trkpt>
      <trkpt lat="48.73859" lon="1.76134">
        <ele>222.6</ele>
        <time>2026-03-26T09:38:43.000Z</time>
      </trkpt>
      <trkpt lat="48.73858" lon="1.76136">
        <ele>222.9</ele>
        <time>2026-03-26T09:38:44.000Z</time>
      </trkpt>
      <trkpt lat="48.73858" lon="1.76138">
        <ele>222.9</ele>
        <time>2026-03-26T09:38:45.000Z</time>
      </trkpt>
      <trkpt lat="48.73857" lon="1.7614">
        <ele>223.1</ele>
        <time>2026-03-26T09:38:46.000Z</time>
      </trkpt>
      <trkpt lat="48.73857" lon="1.76142">
        <ele>223.3</ele>
        <time>2026-03-26T09:38:47.000Z</time>
      </trkpt>
      <trkpt lat="48.73856" lon="1.76144">
        <ele>223.9</ele>
        <time>2026-03-26T09:38:48.000Z</time>
      </trkpt>
      <trkpt lat="48.73856" lon="1.76146">
        <ele>223.8</ele>
        <time>2026-03-26T09:38:49.000Z</time>
      </trkpt>
      <trkpt lat="48.73855" lon="1.76148">
        <ele>224</ele>
        <time>2026-03-26T09:38:50.000Z</time>
      </trkpt>
      <trkpt lat="48.73855" lon="1.7615">
        <ele>224.6</ele>
        <time>2026-03-26T09:38:51.000Z</time>
      </trkpt>
      <trkpt lat="48.73854" lon="1.76152">
        <ele>224.3</ele>
        <time>2026-03-26T09:38:52.000Z</time>
      </trkpt>
      <trkpt lat="48.73854" lon="1.76154">
        <ele>224</ele>
        <time>2026-03-26T09:38:53.000Z</time>
      </trkpt>
      <trkpt lat="48.73854" lon="1.76156">
        <ele>224.1</ele>
        <time>2026-03-26T09:38:54.000Z</time>
      </trkpt>
      <trkpt lat="48.73853" lon="1.76158">
        <ele>223.7</ele>
        <time>2026-03-26T09:38:55.000Z</time>
      </trkpt>
      <trkpt lat="48.73853" lon="1.7616">
        <ele>223.4</ele>
        <time>2026-03-26T09:38:56.000Z</time>
      </trkpt>
      <trkpt lat="48.73852" lon="1.76162">
        <ele>223.4</ele>
        <time>2026-03-26T09:38:57.000Z</time>
      </trkpt>
      <trkpt lat="48.73852" lon="1.76164">
        <ele>223.3</ele>
        <time>2026-03-26T09:38:58.000Z</time>
      </trkpt>
      <trkpt lat="48.73851" lon="1.76166">
        <ele>223.1</ele>
        <time>2026-03-26T09:38:59.000Z</time>
      </trkpt>
      <trkpt lat="48.73851" lon="1.76168">
        <ele>223.2</ele>
        <time>2026-03-26T09:39:00.000Z</time>
      </trkpt>
      <trkpt lat="48.73851" lon="1.7617">
        <ele>223.6</ele>
        <time>2026-03-26T09:39:01.000Z</time>
      </trkpt>
      <trkpt lat="48.7385" lon="1.76172">
        <ele>224</ele>
        <time>2026-03-26T09:39:02.000Z</time>
      </trkpt>
      <trkpt lat="48.7385" lon="1.76174">
        <ele>224.4</ele>
        <time>2026-03-26T09:39:03.000Z</time>
      </trkpt>
      <trkpt lat="48.73849" lon="1.76176">
        <ele>224.2</ele>
        <time>2026-03-26T09:39:04.000Z</time>
      </trkpt>
      <trkpt lat="48.73849" lon="1.76178">
        <ele>224.4</ele>
        <time>2026-03-26T09:39:05.000Z</time>
      </trkpt>
      <trkpt lat="48.73849" lon="1.7618">
        <ele>224.8</ele>
        <time>2026-03-26T09:39:06.000Z</time>
      </trkpt>
      <trkpt lat="48.73848" lon="1.76182">
        <ele>224.5</ele>
        <time>2026-03-26T09:39:07.000Z</time>
      </trkpt>
      <trkpt lat="48.73848" lon="1.76185">
        <ele>224.3</ele>
        <time>2026-03-26T09:39:08.000Z</time>
      </trkpt>
      <trkpt lat="48.73847" lon="1.76187">
        <ele>224.1</ele>
        <time>2026-03-26T09:39:09.000Z</time>
      </trkpt>
      <trkpt lat="48.73847" lon="1.76189">
        <ele>223.8</ele>
        <time>2026-03-26T09:39:10.000Z</time>
      </trkpt>
      <trkpt lat="48.73846" lon="1.76191">
        <ele>224</ele>
        <time>2026-03-26T09:39:11.000Z</time>
      </trkpt>
      <trkpt lat="48.73846" lon="1.76193">
        <ele>224</ele>
        <time>2026-03-26T09:39:12.000Z</time>
      </trkpt>
      <trkpt lat="48.73846" lon="1.76197">
        <ele>224.9</ele>
        <time>2026-03-26T09:39:13.000Z</time>
      </trkpt>
      <trkpt lat="48.73845" lon="1.76198">
        <ele>224.9</ele>
        <time>2026-03-26T09:39:14.000Z</time>
      </trkpt>
      <trkpt lat="48.73844" lon="1.762">
        <ele>224.7</ele>
        <time>2026-03-26T09:39:15.000Z</time>
      </trkpt>
      <trkpt lat="48.73844" lon="1.76202">
        <ele>224.8</ele>
        <time>2026-03-26T09:39:16.000Z</time>
      </trkpt>
      <trkpt lat="48.73843" lon="1.76204">
        <ele>224.7</ele>
        <time>2026-03-26T09:39:17.000Z</time>
      </trkpt>
      <trkpt lat="48.73843" lon="1.76206">
        <ele>224.5</ele>
        <time>2026-03-26T09:39:18.000Z</time>
      </trkpt>
      <trkpt lat="48.73843" lon="1.76208">
        <ele>224.3</ele>
        <time>2026-03-26T09:39:19.000Z</time>
      </trkpt>
      <trkpt lat="48.73842" lon="1.7621">
        <ele>224.1</ele>
        <time>2026-03-26T09:39:20.000Z</time>
      </trkpt>
      <trkpt lat="48.73842" lon="1.76212">
        <ele>224</ele>
        <time>2026-03-26T09:39:21.000Z</time>
      </trkpt>
      <trkpt lat="48.73841" lon="1.76213">
        <ele>224.1</ele>
        <time>2026-03-26T09:39:22.000Z</time>
      </trkpt>
      <trkpt lat="48.73841" lon="1.76216">
        <ele>224.2</ele>
        <time>2026-03-26T09:39:23.000Z</time>
      </trkpt>
      <trkpt lat="48.7384" lon="1.76218">
        <ele>223.9</ele>
        <time>2026-03-26T09:39:24.000Z</time>
      </trkpt>
      <trkpt lat="48.7384" lon="1.7622">
        <ele>223.7</ele>
        <time>2026-03-26T09:39:25.000Z</time>
      </trkpt>
      <trkpt lat="48.73839" lon="1.76222">
        <ele>223</ele>
        <time>2026-03-26T09:39:26.000Z</time>
      </trkpt>
      <trkpt lat="48.73839" lon="1.76225">
        <ele>223.7</ele>
        <time>2026-03-26T09:39:27.000Z</time>
      </trkpt>
      <trkpt lat="48.73839" lon="1.76227">
        <ele>223.7</ele>
        <time>2026-03-26T09:39:28.000Z</time>
      </trkpt>
      <trkpt lat="48.73838" lon="1.76229">
        <ele>224</ele>
        <time>2026-03-26T09:39:29.000Z</time>
      </trkpt>
      <trkpt lat="48.73838" lon="1.76231">
        <ele>224.1</ele>
        <time>2026-03-26T09:39:30.000Z</time>
      </trkpt>
      <trkpt lat="48.73837" lon="1.76233">
        <ele>224.1</ele>
        <time>2026-03-26T09:39:31.000Z</time>
      </trkpt>
      <trkpt lat="48.73836" lon="1.76235">
        <ele>224.3</ele>
        <time>2026-03-26T09:39:32.000Z</time>
      </trkpt>
      <trkpt lat="48.73836" lon="1.76237">
        <ele>224.4</ele>
        <time>2026-03-26T09:39:33.000Z</time>
      </trkpt>
      <trkpt lat="48.73835" lon="1.76239">
        <ele>224</ele>
        <time>2026-03-26T09:39:34.000Z</time>
      </trkpt>
      <trkpt lat="48.73835" lon="1.76241">
        <ele>224</ele>
        <time>2026-03-26T09:39:35.000Z</time>
      </trkpt>
      <trkpt lat="48.73834" lon="1.76243">
        <ele>224.1</ele>
        <time>2026-03-26T09:39:36.000Z</time>
      </trkpt>
      <trkpt lat="48.73834" lon="1.76245">
        <ele>223.9</ele>
        <time>2026-03-26T09:39:37.000Z</time>
      </trkpt>
      <trkpt lat="48.73834" lon="1.76247">
        <ele>224.1</ele>
        <time>2026-03-26T09:39:38.000Z</time>
      </trkpt>
      <trkpt lat="48.73833" lon="1.76249">
        <ele>223.9</ele>
        <time>2026-03-26T09:39:39.000Z</time>
      </trkpt>
      <trkpt lat="48.73833" lon="1.76251">
        <ele>224.3</ele>
        <time>2026-03-26T09:39:40.000Z</time>
      </trkpt>
      <trkpt lat="48.73832" lon="1.76253">
        <ele>224.1</ele>
        <time>2026-03-26T09:39:41.000Z</time>
      </trkpt>
      <trkpt lat="48.73832" lon="1.76255">
        <ele>223.7</ele>
        <time>2026-03-26T09:39:42.000Z</time>
      </trkpt>
      <trkpt lat="48.73832" lon="1.76258">
        <ele>223.8</ele>
        <time>2026-03-26T09:39:43.000Z</time>
      </trkpt>
      <trkpt lat="48.73832" lon="1.7626">
        <ele>224.1</ele>
        <time>2026-03-26T09:39:44.000Z</time>
      </trkpt>
      <trkpt lat="48.73831" lon="1.76262">
        <ele>224.3</ele>
        <time>2026-03-26T09:39:45.000Z</time>
      </trkpt>
      <trkpt lat="48.73831" lon="1.76264">
        <ele>224.3</ele>
        <time>2026-03-26T09:39:46.000Z</time>
      </trkpt>
      <trkpt lat="48.7383" lon="1.76266">
        <ele>224.3</ele>
        <time>2026-03-26T09:39:47.000Z</time>
      </trkpt>
      <trkpt lat="48.7383" lon="1.76268">
        <ele>224.4</ele>
        <time>2026-03-26T09:39:48.000Z</time>
      </trkpt>
      <trkpt lat="48.73829" lon="1.76271">
        <ele>224.2</ele>
        <time>2026-03-26T09:39:49.000Z</time>
      </trkpt>
      <trkpt lat="48.73829" lon="1.76273">
        <ele>224.2</ele>
        <time>2026-03-26T09:39:50.000Z</time>
      </trkpt>
      <trkpt lat="48.73828" lon="1.76275">
        <ele>224.1</ele>
        <time>2026-03-26T09:39:51.000Z</time>
      </trkpt>
      <trkpt lat="48.73828" lon="1.76277">
        <ele>224.2</ele>
        <time>2026-03-26T09:39:52.000Z</time>
      </trkpt>
      <trkpt lat="48.73827" lon="1.76279">
        <ele>224.3</ele>
        <time>2026-03-26T09:39:53.000Z</time>
      </trkpt>
      <trkpt lat="48.73827" lon="1.76282">
        <ele>224.7</ele>
        <time>2026-03-26T09:39:54.000Z</time>
      </trkpt>
      <trkpt lat="48.73826" lon="1.76284">
        <ele>224.8</ele>
        <time>2026-03-26T09:39:55.000Z</time>
      </trkpt>
      <trkpt lat="48.73826" lon="1.76286">
        <ele>224.7</ele>
        <time>2026-03-26T09:39:56.000Z</time>
      </trkpt>
      <trkpt lat="48.73825" lon="1.76289">
        <ele>224.7</ele>
        <time>2026-03-26T09:39:57.000Z</time>
      </trkpt>
      <trkpt lat="48.73825" lon="1.76291">
        <ele>224.8</ele>
        <time>2026-03-26T09:39:58.000Z</time>
      </trkpt>
      <trkpt lat="48.73824" lon="1.76293">
        <ele>224.8</ele>
        <time>2026-03-26T09:39:59.000Z</time>
      </trkpt>
      <trkpt lat="48.73824" lon="1.76295">
        <ele>224.5</ele>
        <time>2026-03-26T09:40:00.000Z</time>
      </trkpt>
      <trkpt lat="48.73823" lon="1.76297">
        <ele>224.9</ele>
        <time>2026-03-26T09:40:01.000Z</time>
      </trkpt>
      <trkpt lat="48.73823" lon="1.76299">
        <ele>224.5</ele>
        <time>2026-03-26T09:40:02.000Z</time>
      </trkpt>
      <trkpt lat="48.73822" lon="1.76301">
        <ele>224.4</ele>
        <time>2026-03-26T09:40:03.000Z</time>
      </trkpt>
      <trkpt lat="48.73822" lon="1.76303">
        <ele>224.1</ele>
        <time>2026-03-26T09:40:04.000Z</time>
      </trkpt>
      <trkpt lat="48.73821" lon="1.76305">
        <ele>223.9</ele>
        <time>2026-03-26T09:40:05.000Z</time>
      </trkpt>
      <trkpt lat="48.73821" lon="1.76307">
        <ele>224.2</ele>
        <time>2026-03-26T09:40:06.000Z</time>
      </trkpt>
      <trkpt lat="48.7382" lon="1.76309">
        <ele>224.1</ele>
        <time>2026-03-26T09:40:07.000Z</time>
      </trkpt>
      <trkpt lat="48.7382" lon="1.76311">
        <ele>224.6</ele>
        <time>2026-03-26T09:40:08.000Z</time>
      </trkpt>
      <trkpt lat="48.7382" lon="1.76314">
        <ele>224</ele>
        <time>2026-03-26T09:40:09.000Z</time>
      </trkpt>
      <trkpt lat="48.73819" lon="1.76316">
        <ele>223.9</ele>
        <time>2026-03-26T09:40:10.000Z</time>
      </trkpt>
      <trkpt lat="48.73819" lon="1.76317">
        <ele>223.9</ele>
        <time>2026-03-26T09:40:11.000Z</time>
      </trkpt>
      <trkpt lat="48.73818" lon="1.76319">
        <ele>223.9</ele>
        <time>2026-03-26T09:40:12.000Z</time>
      </trkpt>
      <trkpt lat="48.73818" lon="1.76321">
        <ele>223.5</ele>
        <time>2026-03-26T09:40:13.000Z</time>
      </trkpt>
      <trkpt lat="48.73818" lon="1.76323">
        <ele>223.4</ele>
        <time>2026-03-26T09:40:14.000Z</time>
      </trkpt>
      <trkpt lat="48.73818" lon="1.76325">
        <ele>223.5</ele>
        <time>2026-03-26T09:40:15.000Z</time>
      </trkpt>
      <trkpt lat="48.73818" lon="1.76327">
        <ele>223.7</ele>
        <time>2026-03-26T09:40:16.000Z</time>
      </trkpt>
      <trkpt lat="48.73818" lon="1.76329">
        <ele>223.9</ele>
        <time>2026-03-26T09:40:17.000Z</time>
      </trkpt>
      <trkpt lat="48.73818" lon="1.76331">
        <ele>224.3</ele>
        <time>2026-03-26T09:40:18.000Z</time>
      </trkpt>
      <trkpt lat="48.73817" lon="1.76333">
        <ele>224.2</ele>
        <time>2026-03-26T09:40:19.000Z</time>
      </trkpt>
      <trkpt lat="48.73817" lon="1.76335">
        <ele>224.2</ele>
        <time>2026-03-26T09:40:20.000Z</time>
      </trkpt>
      <trkpt lat="48.73817" lon="1.76337">
        <ele>224.5</ele>
        <time>2026-03-26T09:40:21.000Z</time>
      </trkpt>
      <trkpt lat="48.73817" lon="1.7634">
        <ele>224.3</ele>
        <time>2026-03-26T09:40:22.000Z</time>
      </trkpt>
      <trkpt lat="48.73816" lon="1.76342">
        <ele>223.9</ele>
        <time>2026-03-26T09:40:23.000Z</time>
      </trkpt>
      <trkpt lat="48.73815" lon="1.76344">
        <ele>222.9</ele>
        <time>2026-03-26T09:40:24.000Z</time>
      </trkpt>
      <trkpt lat="48.73815" lon="1.76346">
        <ele>222.7</ele>
        <time>2026-03-26T09:40:25.000Z</time>
      </trkpt>
      <trkpt lat="48.73815" lon="1.76349">
        <ele>222.5</ele>
        <time>2026-03-26T09:40:26.000Z</time>
      </trkpt>
      <trkpt lat="48.73814" lon="1.76351">
        <ele>222.6</ele>
        <time>2026-03-26T09:40:27.000Z</time>
      </trkpt>
      <trkpt lat="48.73814" lon="1.76353">
        <ele>222.7</ele>
        <time>2026-03-26T09:40:28.000Z</time>
      </trkpt>
      <trkpt lat="48.73813" lon="1.76355">
        <ele>222.5</ele>
        <time>2026-03-26T09:40:29.000Z</time>
      </trkpt>
      <trkpt lat="48.73813" lon="1.76357">
        <ele>222.2</ele>
        <time>2026-03-26T09:40:30.000Z</time>
      </trkpt>
      <trkpt lat="48.73812" lon="1.76359">
        <ele>222</ele>
        <time>2026-03-26T09:40:31.000Z</time>
      </trkpt>
      <trkpt lat="48.73812" lon="1.76361">
        <ele>222.2</ele>
        <time>2026-03-26T09:40:32.000Z</time>
      </trkpt>
      <trkpt lat="48.73811" lon="1.76363">
        <ele>222.5</ele>
        <time>2026-03-26T09:40:33.000Z</time>
      </trkpt>
      <trkpt lat="48.73811" lon="1.76365">
        <ele>222.8</ele>
        <time>2026-03-26T09:40:34.000Z</time>
      </trkpt>
      <trkpt lat="48.7381" lon="1.76368">
        <ele>222.8</ele>
        <time>2026-03-26T09:40:35.000Z</time>
      </trkpt>
      <trkpt lat="48.7381" lon="1.7637">
        <ele>223.3</ele>
        <time>2026-03-26T09:40:36.000Z</time>
      </trkpt>
      <trkpt lat="48.73809" lon="1.76372">
        <ele>223.5</ele>
        <time>2026-03-26T09:40:37.000Z</time>
      </trkpt>
      <trkpt lat="48.73809" lon="1.76374">
        <ele>223.6</ele>
        <time>2026-03-26T09:40:38.000Z</time>
      </trkpt>
      <trkpt lat="48.73808" lon="1.76376">
        <ele>223.8</ele>
        <time>2026-03-26T09:40:39.000Z</time>
      </trkpt>
      <trkpt lat="48.73808" lon="1.76378">
        <ele>223.2</ele>
        <time>2026-03-26T09:40:40.000Z</time>
      </trkpt>
      <trkpt lat="48.73808" lon="1.7638">
        <ele>223.3</ele>
        <time>2026-03-26T09:40:41.000Z</time>
      </trkpt>
      <trkpt lat="48.73807" lon="1.76382">
        <ele>223.6</ele>
        <time>2026-03-26T09:40:42.000Z</time>
      </trkpt>
      <trkpt lat="48.73807" lon="1.76384">
        <ele>223.2</ele>
        <time>2026-03-26T09:40:43.000Z</time>
      </trkpt>
      <trkpt lat="48.73806" lon="1.76386">
        <ele>223.4</ele>
        <time>2026-03-26T09:40:44.000Z</time>
      </trkpt>
      <trkpt lat="48.73806" lon="1.76388">
        <ele>223.6</ele>
        <time>2026-03-26T09:40:45.000Z</time>
      </trkpt>
      <trkpt lat="48.73805" lon="1.7639">
        <ele>223.7</ele>
        <time>2026-03-26T09:40:46.000Z</time>
      </trkpt>
      <trkpt lat="48.73805" lon="1.76392">
        <ele>223.4</ele>
        <time>2026-03-26T09:40:47.000Z</time>
      </trkpt>
      <trkpt lat="48.73804" lon="1.76394">
        <ele>223.7</ele>
        <time>2026-03-26T09:40:48.000Z</time>
      </trkpt>
      <trkpt lat="48.73804" lon="1.76396">
        <ele>223.5</ele>
        <time>2026-03-26T09:40:49.000Z</time>
      </trkpt>
      <trkpt lat="48.73803" lon="1.76398">
        <ele>223.9</ele>
        <time>2026-03-26T09:40:50.000Z</time>
      </trkpt>
      <trkpt lat="48.73802" lon="1.764">
        <ele>224.5</ele>
        <time>2026-03-26T09:40:51.000Z</time>
      </trkpt>
      <trkpt lat="48.73801" lon="1.76401">
        <ele>225</ele>
        <time>2026-03-26T09:40:52.000Z</time>
      </trkpt>
      <trkpt lat="48.738" lon="1.76402">
        <ele>224.7</ele>
        <time>2026-03-26T09:40:53.000Z</time>
      </trkpt>
      <trkpt lat="48.738" lon="1.76404">
        <ele>224.1</ele>
        <time>2026-03-26T09:40:54.000Z</time>
      </trkpt>
      <trkpt lat="48.73799" lon="1.76406">
        <ele>224.1</ele>
        <time>2026-03-26T09:40:55.000Z</time>
      </trkpt>
      <trkpt lat="48.73798" lon="1.76407">
        <ele>223.6</ele>
        <time>2026-03-26T09:40:56.000Z</time>
      </trkpt>
      <trkpt lat="48.73797" lon="1.76408">
        <ele>223.5</ele>
        <time>2026-03-26T09:40:57.000Z</time>
      </trkpt>
      <trkpt lat="48.73795" lon="1.76408">
        <ele>223.7</ele>
        <time>2026-03-26T09:40:58.000Z</time>
      </trkpt>
      <trkpt lat="48.73794" lon="1.76409">
        <ele>223.9</ele>
        <time>2026-03-26T09:40:59.000Z</time>
      </trkpt>
      <trkpt lat="48.73793" lon="1.76409">
        <ele>224</ele>
        <time>2026-03-26T09:41:00.000Z</time>
      </trkpt>
      <trkpt lat="48.73791" lon="1.7641">
        <ele>223.6</ele>
        <time>2026-03-26T09:41:01.000Z</time>
      </trkpt>
      <trkpt lat="48.7379" lon="1.76411">
        <ele>223.4</ele>
        <time>2026-03-26T09:41:02.000Z</time>
      </trkpt>
      <trkpt lat="48.73789" lon="1.76411">
        <ele>223</ele>
        <time>2026-03-26T09:41:03.000Z</time>
      </trkpt>
      <trkpt lat="48.73789" lon="1.76413">
        <ele>223.1</ele>
        <time>2026-03-26T09:41:04.000Z</time>
      </trkpt>
      <trkpt lat="48.73788" lon="1.76415">
        <ele>222.7</ele>
        <time>2026-03-26T09:41:05.000Z</time>
      </trkpt>
      <trkpt lat="48.73788" lon="1.76417">
        <ele>222.3</ele>
        <time>2026-03-26T09:41:06.000Z</time>
      </trkpt>
      <trkpt lat="48.73787" lon="1.76418">
        <ele>222.5</ele>
        <time>2026-03-26T09:41:07.000Z</time>
      </trkpt>
      <trkpt lat="48.73787" lon="1.7642">
        <ele>222.7</ele>
        <time>2026-03-26T09:41:08.000Z</time>
      </trkpt>
      <trkpt lat="48.73786" lon="1.76422">
        <ele>222.8</ele>
        <time>2026-03-26T09:41:09.000Z</time>
      </trkpt>
      <trkpt lat="48.73785" lon="1.76424">
        <ele>222.7</ele>
        <time>2026-03-26T09:41:10.000Z</time>
      </trkpt>
      <trkpt lat="48.73784" lon="1.76425">
        <ele>222.9</ele>
        <time>2026-03-26T09:41:11.000Z</time>
      </trkpt>
      <trkpt lat="48.73783" lon="1.76427">
        <ele>222.5</ele>
        <time>2026-03-26T09:41:12.000Z</time>
      </trkpt>
      <trkpt lat="48.73783" lon="1.76429">
        <ele>222.5</ele>
        <time>2026-03-26T09:41:13.000Z</time>
      </trkpt>
      <trkpt lat="48.73782" lon="1.76431">
        <ele>222.4</ele>
        <time>2026-03-26T09:41:14.000Z</time>
      </trkpt>
      <trkpt lat="48.73781" lon="1.76432">
        <ele>222.1</ele>
        <time>2026-03-26T09:41:15.000Z</time>
      </trkpt>
      <trkpt lat="48.7378" lon="1.76434">
        <ele>221.7</ele>
        <time>2026-03-26T09:41:16.000Z</time>
      </trkpt>
      <trkpt lat="48.73779" lon="1.76435">
        <ele>221.6</ele>
        <time>2026-03-26T09:41:17.000Z</time>
      </trkpt>
      <trkpt lat="48.73778" lon="1.76437">
        <ele>221.7</ele>
        <time>2026-03-26T09:41:18.000Z</time>
      </trkpt>
      <trkpt lat="48.73777" lon="1.76439">
        <ele>221.6</ele>
        <time>2026-03-26T09:41:19.000Z</time>
      </trkpt>
      <trkpt lat="48.73776" lon="1.7644">
        <ele>221.4</ele>
        <time>2026-03-26T09:41:20.000Z</time>
      </trkpt>
      <trkpt lat="48.73775" lon="1.76441">
        <ele>221.6</ele>
        <time>2026-03-26T09:41:21.000Z</time>
      </trkpt>
      <trkpt lat="48.73774" lon="1.76443">
        <ele>221.8</ele>
        <time>2026-03-26T09:41:22.000Z</time>
      </trkpt>
      <trkpt lat="48.73773" lon="1.76444">
        <ele>221.6</ele>
        <time>2026-03-26T09:41:23.000Z</time>
      </trkpt>
      <trkpt lat="48.73772" lon="1.76446">
        <ele>221.7</ele>
        <time>2026-03-26T09:41:24.000Z</time>
      </trkpt>
      <trkpt lat="48.73771" lon="1.76448">
        <ele>221.8</ele>
        <time>2026-03-26T09:41:25.000Z</time>
      </trkpt>
      <trkpt lat="48.7377" lon="1.7645">
        <ele>221.8</ele>
        <time>2026-03-26T09:41:26.000Z</time>
      </trkpt>
      <trkpt lat="48.73769" lon="1.76451">
        <ele>221.8</ele>
        <time>2026-03-26T09:41:27.000Z</time>
      </trkpt>
      <trkpt lat="48.73768" lon="1.76453">
        <ele>221.8</ele>
        <time>2026-03-26T09:41:28.000Z</time>
      </trkpt>
      <trkpt lat="48.73767" lon="1.76454">
        <ele>222.3</ele>
        <time>2026-03-26T09:41:29.000Z</time>
      </trkpt>
      <trkpt lat="48.73766" lon="1.76456">
        <ele>222.7</ele>
        <time>2026-03-26T09:41:30.000Z</time>
      </trkpt>
      <trkpt lat="48.73765" lon="1.76457">
        <ele>222.9</ele>
        <time>2026-03-26T09:41:31.000Z</time>
      </trkpt>
      <trkpt lat="48.73764" lon="1.76459">
        <ele>222.9</ele>
        <time>2026-03-26T09:41:32.000Z</time>
      </trkpt>
      <trkpt lat="48.73762" lon="1.76461">
        <ele>223.4</ele>
        <time>2026-03-26T09:41:33.000Z</time>
      </trkpt>
      <trkpt lat="48.73761" lon="1.76462">
        <ele>223.3</ele>
        <time>2026-03-26T09:41:34.000Z</time>
      </trkpt>
      <trkpt lat="48.7376" lon="1.76464">
        <ele>223.1</ele>
        <time>2026-03-26T09:41:35.000Z</time>
      </trkpt>
      <trkpt lat="48.73759" lon="1.76465">
        <ele>223.4</ele>
        <time>2026-03-26T09:41:36.000Z</time>
      </trkpt>
      <trkpt lat="48.73758" lon="1.76467">
        <ele>223.5</ele>
        <time>2026-03-26T09:41:37.000Z</time>
      </trkpt>
      <trkpt lat="48.73757" lon="1.76469">
        <ele>223.4</ele>
        <time>2026-03-26T09:41:38.000Z</time>
      </trkpt>
      <trkpt lat="48.73756" lon="1.7647">
        <ele>223.3</ele>
        <time>2026-03-26T09:41:39.000Z</time>
      </trkpt>
      <trkpt lat="48.73755" lon="1.76471">
        <ele>223.3</ele>
        <time>2026-03-26T09:41:40.000Z</time>
      </trkpt>
      <trkpt lat="48.73754" lon="1.76473">
        <ele>222.8</ele>
        <time>2026-03-26T09:41:41.000Z</time>
      </trkpt>
      <trkpt lat="48.73753" lon="1.76474">
        <ele>222.7</ele>
        <time>2026-03-26T09:41:42.000Z</time>
      </trkpt>
      <trkpt lat="48.73752" lon="1.76476">
        <ele>222.6</ele>
        <time>2026-03-26T09:41:43.000Z</time>
      </trkpt>
      <trkpt lat="48.73751" lon="1.76477">
        <ele>222.2</ele>
        <time>2026-03-26T09:41:44.000Z</time>
      </trkpt>
      <trkpt lat="48.73749" lon="1.76479">
        <ele>222.1</ele>
        <time>2026-03-26T09:41:45.000Z</time>
      </trkpt>
      <trkpt lat="48.73748" lon="1.7648">
        <ele>222.2</ele>
        <time>2026-03-26T09:41:46.000Z</time>
      </trkpt>
      <trkpt lat="48.73747" lon="1.76482">
        <ele>222.3</ele>
        <time>2026-03-26T09:41:47.000Z</time>
      </trkpt>
      <trkpt lat="48.73746" lon="1.76483">
        <ele>222.7</ele>
        <time>2026-03-26T09:41:48.000Z</time>
      </trkpt>
      <trkpt lat="48.73745" lon="1.76484">
        <ele>222.5</ele>
        <time>2026-03-26T09:41:49.000Z</time>
      </trkpt>
      <trkpt lat="48.73744" lon="1.76486">
        <ele>222.4</ele>
        <time>2026-03-26T09:41:50.000Z</time>
      </trkpt>
      <trkpt lat="48.73744" lon="1.76488">
        <ele>222.4</ele>
        <time>2026-03-26T09:41:51.000Z</time>
      </trkpt>
      <trkpt lat="48.73743" lon="1.76489">
        <ele>222.3</ele>
        <time>2026-03-26T09:41:52.000Z</time>
      </trkpt>
      <trkpt lat="48.73741" lon="1.76491">
        <ele>222.3</ele>
        <time>2026-03-26T09:41:53.000Z</time>
      </trkpt>
      <trkpt lat="48.7374" lon="1.76493">
        <ele>222.5</ele>
        <time>2026-03-26T09:41:54.000Z</time>
      </trkpt>
      <trkpt lat="48.73739" lon="1.76494">
        <ele>222.4</ele>
        <time>2026-03-26T09:41:55.000Z</time>
      </trkpt>
      <trkpt lat="48.73738" lon="1.76496">
        <ele>222.2</ele>
        <time>2026-03-26T09:41:56.000Z</time>
      </trkpt>
      <trkpt lat="48.73737" lon="1.76497">
        <ele>222.3</ele>
        <time>2026-03-26T09:41:57.000Z</time>
      </trkpt>
      <trkpt lat="48.73736" lon="1.76499">
        <ele>222.5</ele>
        <time>2026-03-26T09:41:58.000Z</time>
      </trkpt>
      <trkpt lat="48.73735" lon="1.765">
        <ele>222.4</ele>
        <time>2026-03-26T09:41:59.000Z</time>
      </trkpt>
      <trkpt lat="48.73734" lon="1.76502">
        <ele>222.2</ele>
        <time>2026-03-26T09:42:00.000Z</time>
      </trkpt>
      <trkpt lat="48.73733" lon="1.76504">
        <ele>222.3</ele>
        <time>2026-03-26T09:42:01.000Z</time>
      </trkpt>
      <trkpt lat="48.73732" lon="1.76505">
        <ele>222.2</ele>
        <time>2026-03-26T09:42:02.000Z</time>
      </trkpt>
      <trkpt lat="48.73731" lon="1.76507">
        <ele>221.8</ele>
        <time>2026-03-26T09:42:03.000Z</time>
      </trkpt>
      <trkpt lat="48.7373" lon="1.76508">
        <ele>221.8</ele>
        <time>2026-03-26T09:42:04.000Z</time>
      </trkpt>
      <trkpt lat="48.73729" lon="1.76509">
        <ele>221.5</ele>
        <time>2026-03-26T09:42:05.000Z</time>
      </trkpt>
      <trkpt lat="48.73727" lon="1.76511">
        <ele>221.3</ele>
        <time>2026-03-26T09:42:06.000Z</time>
      </trkpt>
      <trkpt lat="48.73726" lon="1.76513">
        <ele>221.6</ele>
        <time>2026-03-26T09:42:07.000Z</time>
      </trkpt>
      <trkpt lat="48.73725" lon="1.76514">
        <ele>221.4</ele>
        <time>2026-03-26T09:42:08.000Z</time>
      </trkpt>
      <trkpt lat="48.73724" lon="1.76516">
        <ele>221.7</ele>
        <time>2026-03-26T09:42:09.000Z</time>
      </trkpt>
      <trkpt lat="48.73723" lon="1.76517">
        <ele>221.7</ele>
        <time>2026-03-26T09:42:10.000Z</time>
      </trkpt>
      <trkpt lat="48.73722" lon="1.76519">
        <ele>221.8</ele>
        <time>2026-03-26T09:42:11.000Z</time>
      </trkpt>
      <trkpt lat="48.73721" lon="1.7652">
        <ele>221.4</ele>
        <time>2026-03-26T09:42:12.000Z</time>
      </trkpt>
      <trkpt lat="48.7372" lon="1.76522">
        <ele>221.7</ele>
        <time>2026-03-26T09:42:13.000Z</time>
      </trkpt>
      <trkpt lat="48.73719" lon="1.76524">
        <ele>221.6</ele>
        <time>2026-03-26T09:42:14.000Z</time>
      </trkpt>
      <trkpt lat="48.73718" lon="1.76525">
        <ele>221.6</ele>
        <time>2026-03-26T09:42:15.000Z</time>
      </trkpt>
      <trkpt lat="48.73717" lon="1.76527">
        <ele>221.7</ele>
        <time>2026-03-26T09:42:16.000Z</time>
      </trkpt>
      <trkpt lat="48.73716" lon="1.76529">
        <ele>222</ele>
        <time>2026-03-26T09:42:17.000Z</time>
      </trkpt>
      <trkpt lat="48.73715" lon="1.76531">
        <ele>222</ele>
        <time>2026-03-26T09:42:18.000Z</time>
      </trkpt>
      <trkpt lat="48.73714" lon="1.76532">
        <ele>222</ele>
        <time>2026-03-26T09:42:19.000Z</time>
      </trkpt>
      <trkpt lat="48.73713" lon="1.76534">
        <ele>222.1</ele>
        <time>2026-03-26T09:42:20.000Z</time>
      </trkpt>
      <trkpt lat="48.73712" lon="1.76536">
        <ele>222.6</ele>
        <time>2026-03-26T09:42:21.000Z</time>
      </trkpt>
      <trkpt lat="48.73711" lon="1.76537">
        <ele>222.8</ele>
        <time>2026-03-26T09:42:22.000Z</time>
      </trkpt>
      <trkpt lat="48.73709" lon="1.76539">
        <ele>222.5</ele>
        <time>2026-03-26T09:42:23.000Z</time>
      </trkpt>
      <trkpt lat="48.73708" lon="1.7654">
        <ele>222.2</ele>
        <time>2026-03-26T09:42:24.000Z</time>
      </trkpt>
      <trkpt lat="48.73707" lon="1.76542">
        <ele>222.3</ele>
        <time>2026-03-26T09:42:25.000Z</time>
      </trkpt>
      <trkpt lat="48.73706" lon="1.76543">
        <ele>222.3</ele>
        <time>2026-03-26T09:42:26.000Z</time>
      </trkpt>
      <trkpt lat="48.73705" lon="1.76545">
        <ele>222.3</ele>
        <time>2026-03-26T09:42:27.000Z</time>
      </trkpt>
      <trkpt lat="48.73704" lon="1.76546">
        <ele>222.3</ele>
        <time>2026-03-26T09:42:28.000Z</time>
      </trkpt>
      <trkpt lat="48.73703" lon="1.76548">
        <ele>222.4</ele>
        <time>2026-03-26T09:42:29.000Z</time>
      </trkpt>
      <trkpt lat="48.73702" lon="1.76549">
        <ele>222.5</ele>
        <time>2026-03-26T09:42:30.000Z</time>
      </trkpt>
      <trkpt lat="48.73701" lon="1.76551">
        <ele>222.2</ele>
        <time>2026-03-26T09:42:31.000Z</time>
      </trkpt>
      <trkpt lat="48.737" lon="1.76552">
        <ele>222.4</ele>
        <time>2026-03-26T09:42:32.000Z</time>
      </trkpt>
      <trkpt lat="48.73699" lon="1.76554">
        <ele>222.7</ele>
        <time>2026-03-26T09:42:33.000Z</time>
      </trkpt>
      <trkpt lat="48.73697" lon="1.76556">
        <ele>222.5</ele>
        <time>2026-03-26T09:42:34.000Z</time>
      </trkpt>
      <trkpt lat="48.73696" lon="1.76557">
        <ele>221.5</ele>
        <time>2026-03-26T09:42:35.000Z</time>
      </trkpt>
      <trkpt lat="48.73695" lon="1.76559">
        <ele>221.4</ele>
        <time>2026-03-26T09:42:36.000Z</time>
      </trkpt>
      <trkpt lat="48.73694" lon="1.7656">
        <ele>221.3</ele>
        <time>2026-03-26T09:42:37.000Z</time>
      </trkpt>
      <trkpt lat="48.73693" lon="1.76561">
        <ele>221.1</ele>
        <time>2026-03-26T09:42:38.000Z</time>
      </trkpt>
      <trkpt lat="48.73692" lon="1.76563">
        <ele>221</ele>
        <time>2026-03-26T09:42:39.000Z</time>
      </trkpt>
      <trkpt lat="48.73691" lon="1.76565">
        <ele>221.2</ele>
        <time>2026-03-26T09:42:40.000Z</time>
      </trkpt>
      <trkpt lat="48.7369" lon="1.76567">
        <ele>221.4</ele>
        <time>2026-03-26T09:42:41.000Z</time>
      </trkpt>
      <trkpt lat="48.73689" lon="1.76568">
        <ele>221.5</ele>
        <time>2026-03-26T09:42:42.000Z</time>
      </trkpt>
      <trkpt lat="48.73688" lon="1.7657">
        <ele>221.7</ele>
        <time>2026-03-26T09:42:43.000Z</time>
      </trkpt>
      <trkpt lat="48.73687" lon="1.76572">
        <ele>221.7</ele>
        <time>2026-03-26T09:42:44.000Z</time>
      </trkpt>
      <trkpt lat="48.73685" lon="1.76573">
        <ele>221.6</ele>
        <time>2026-03-26T09:42:45.000Z</time>
      </trkpt>
      <trkpt lat="48.73684" lon="1.76575">
        <ele>221.8</ele>
        <time>2026-03-26T09:42:46.000Z</time>
      </trkpt>
      <trkpt lat="48.73683" lon="1.76576">
        <ele>221.8</ele>
        <time>2026-03-26T09:42:47.000Z</time>
      </trkpt>
      <trkpt lat="48.73682" lon="1.76578">
        <ele>221.6</ele>
        <time>2026-03-26T09:42:48.000Z</time>
      </trkpt>
      <trkpt lat="48.73681" lon="1.76579">
        <ele>221.4</ele>
        <time>2026-03-26T09:42:49.000Z</time>
      </trkpt>
      <trkpt lat="48.7368" lon="1.76581">
        <ele>221.6</ele>
        <time>2026-03-26T09:42:50.000Z</time>
      </trkpt>
      <trkpt lat="48.73679" lon="1.76582">
        <ele>221.5</ele>
        <time>2026-03-26T09:42:51.000Z</time>
      </trkpt>
      <trkpt lat="48.73678" lon="1.76584">
        <ele>221.5</ele>
        <time>2026-03-26T09:42:52.000Z</time>
      </trkpt>
      <trkpt lat="48.73677" lon="1.76585">
        <ele>221.6</ele>
        <time>2026-03-26T09:42:53.000Z</time>
      </trkpt>
      <trkpt lat="48.73676" lon="1.76587">
        <ele>221.6</ele>
        <time>2026-03-26T09:42:54.000Z</time>
      </trkpt>
      <trkpt lat="48.73675" lon="1.76588">
        <ele>222.1</ele>
        <time>2026-03-26T09:42:55.000Z</time>
      </trkpt>
      <trkpt lat="48.73674" lon="1.7659">
        <ele>222.8</ele>
        <time>2026-03-26T09:42:56.000Z</time>
      </trkpt>
      <trkpt lat="48.73673" lon="1.76592">
        <ele>222.8</ele>
        <time>2026-03-26T09:42:57.000Z</time>
      </trkpt>
      <trkpt lat="48.73672" lon="1.76594">
        <ele>223.1</ele>
        <time>2026-03-26T09:42:58.000Z</time>
      </trkpt>
      <trkpt lat="48.73671" lon="1.76596">
        <ele>223.2</ele>
        <time>2026-03-26T09:42:59.000Z</time>
      </trkpt>
      <trkpt lat="48.7367" lon="1.76598">
        <ele>223.1</ele>
        <time>2026-03-26T09:43:00.000Z</time>
      </trkpt>
      <trkpt lat="48.73668" lon="1.766">
        <ele>223.1</ele>
        <time>2026-03-26T09:43:01.000Z</time>
      </trkpt>
      <trkpt lat="48.73667" lon="1.76601">
        <ele>222.5</ele>
        <time>2026-03-26T09:43:02.000Z</time>
      </trkpt>
      <trkpt lat="48.73666" lon="1.76603">
        <ele>222.7</ele>
        <time>2026-03-26T09:43:03.000Z</time>
      </trkpt>
      <trkpt lat="48.73665" lon="1.76605">
        <ele>222.5</ele>
        <time>2026-03-26T09:43:04.000Z</time>
      </trkpt>
      <trkpt lat="48.73664" lon="1.76606">
        <ele>222.8</ele>
        <time>2026-03-26T09:43:05.000Z</time>
      </trkpt>
      <trkpt lat="48.73663" lon="1.76608">
        <ele>223.1</ele>
        <time>2026-03-26T09:43:06.000Z</time>
      </trkpt>
      <trkpt lat="48.73662" lon="1.76609">
        <ele>223</ele>
        <time>2026-03-26T09:43:07.000Z</time>
      </trkpt>
      <trkpt lat="48.73661" lon="1.76611">
        <ele>223.2</ele>
        <time>2026-03-26T09:43:08.000Z</time>
      </trkpt>
      <trkpt lat="48.7366" lon="1.76613">
        <ele>223.1</ele>
        <time>2026-03-26T09:43:09.000Z</time>
      </trkpt>
      <trkpt lat="48.73659" lon="1.76615">
        <ele>222.8</ele>
        <time>2026-03-26T09:43:10.000Z</time>
      </trkpt>
      <trkpt lat="48.73658" lon="1.76616">
        <ele>222.8</ele>
        <time>2026-03-26T09:43:11.000Z</time>
      </trkpt>
      <trkpt lat="48.73656" lon="1.76618">
        <ele>222.7</ele>
        <time>2026-03-26T09:43:12.000Z</time>
      </trkpt>
      <trkpt lat="48.73655" lon="1.7662">
        <ele>223.2</ele>
        <time>2026-03-26T09:43:13.000Z</time>
      </trkpt>
      <trkpt lat="48.73654" lon="1.76621">
        <ele>223.3</ele>
        <time>2026-03-26T09:43:14.000Z</time>
      </trkpt>
      <trkpt lat="48.73653" lon="1.76623">
        <ele>223</ele>
        <time>2026-03-26T09:43:15.000Z</time>
      </trkpt>
      <trkpt lat="48.73652" lon="1.76624">
        <ele>222.8</ele>
        <time>2026-03-26T09:43:16.000Z</time>
      </trkpt>
      <trkpt lat="48.73651" lon="1.76626">
        <ele>223</ele>
        <time>2026-03-26T09:43:17.000Z</time>
      </trkpt>
      <trkpt lat="48.7365" lon="1.76627">
        <ele>222.9</ele>
        <time>2026-03-26T09:43:18.000Z</time>
      </trkpt>
      <trkpt lat="48.73649" lon="1.76628">
        <ele>222.6</ele>
        <time>2026-03-26T09:43:19.000Z</time>
      </trkpt>
      <trkpt lat="48.73648" lon="1.7663">
        <ele>222.7</ele>
        <time>2026-03-26T09:43:20.000Z</time>
      </trkpt>
      <trkpt lat="48.73647" lon="1.76631">
        <ele>222.5</ele>
        <time>2026-03-26T09:43:21.000Z</time>
      </trkpt>
      <trkpt lat="48.73646" lon="1.76633">
        <ele>222.5</ele>
        <time>2026-03-26T09:43:22.000Z</time>
      </trkpt>
      <trkpt lat="48.73645" lon="1.76634">
        <ele>222.7</ele>
        <time>2026-03-26T09:43:23.000Z</time>
      </trkpt>
      <trkpt lat="48.73644" lon="1.76636">
        <ele>222.9</ele>
        <time>2026-03-26T09:43:24.000Z</time>
      </trkpt>
      <trkpt lat="48.73643" lon="1.76637">
        <ele>222.9</ele>
        <time>2026-03-26T09:43:25.000Z</time>
      </trkpt>
      <trkpt lat="48.73641" lon="1.76639">
        <ele>222.5</ele>
        <time>2026-03-26T09:43:26.000Z</time>
      </trkpt>
      <trkpt lat="48.7364" lon="1.7664">
        <ele>222.2</ele>
        <time>2026-03-26T09:43:27.000Z</time>
      </trkpt>
      <trkpt lat="48.73639" lon="1.76642">
        <ele>222</ele>
        <time>2026-03-26T09:43:28.000Z</time>
      </trkpt>
      <trkpt lat="48.73638" lon="1.76643">
        <ele>222</ele>
        <time>2026-03-26T09:43:29.000Z</time>
      </trkpt>
      <trkpt lat="48.73637" lon="1.76645">
        <ele>222</ele>
        <time>2026-03-26T09:43:30.000Z</time>
      </trkpt>
      <trkpt lat="48.73636" lon="1.76647">
        <ele>222.2</ele>
        <time>2026-03-26T09:43:31.000Z</time>
      </trkpt>
      <trkpt lat="48.73635" lon="1.76648">
        <ele>222.8</ele>
        <time>2026-03-26T09:43:32.000Z</time>
      </trkpt>
      <trkpt lat="48.73634" lon="1.7665">
        <ele>222.9</ele>
        <time>2026-03-26T09:43:33.000Z</time>
      </trkpt>
      <trkpt lat="48.73633" lon="1.76652">
        <ele>223.1</ele>
        <time>2026-03-26T09:43:34.000Z</time>
      </trkpt>
      <trkpt lat="48.73632" lon="1.76654">
        <ele>223.3</ele>
        <time>2026-03-26T09:43:35.000Z</time>
      </trkpt>
      <trkpt lat="48.73631" lon="1.76656">
        <ele>223.6</ele>
        <time>2026-03-26T09:43:36.000Z</time>
      </trkpt>
      <trkpt lat="48.7363" lon="1.76657">
        <ele>223.7</ele>
        <time>2026-03-26T09:43:37.000Z</time>
      </trkpt>
      <trkpt lat="48.73628" lon="1.76659">
        <ele>224.4</ele>
        <time>2026-03-26T09:43:38.000Z</time>
      </trkpt>
      <trkpt lat="48.73627" lon="1.76661">
        <ele>224.5</ele>
        <time>2026-03-26T09:43:39.000Z</time>
      </trkpt>
      <trkpt lat="48.73626" lon="1.76662">
        <ele>224.2</ele>
        <time>2026-03-26T09:43:40.000Z</time>
      </trkpt>
      <trkpt lat="48.73625" lon="1.76664">
        <ele>224</ele>
        <time>2026-03-26T09:43:41.000Z</time>
      </trkpt>
      <trkpt lat="48.73624" lon="1.76666">
        <ele>223.9</ele>
        <time>2026-03-26T09:43:42.000Z</time>
      </trkpt>
      <trkpt lat="48.73623" lon="1.76667">
        <ele>223.7</ele>
        <time>2026-03-26T09:43:43.000Z</time>
      </trkpt>
      <trkpt lat="48.73622" lon="1.76669">
        <ele>223.9</ele>
        <time>2026-03-26T09:43:44.000Z</time>
      </trkpt>
      <trkpt lat="48.73621" lon="1.7667">
        <ele>223.8</ele>
        <time>2026-03-26T09:43:45.000Z</time>
      </trkpt>
      <trkpt lat="48.7362" lon="1.76672">
        <ele>223.8</ele>
        <time>2026-03-26T09:43:46.000Z</time>
      </trkpt>
      <trkpt lat="48.73619" lon="1.76674">
        <ele>223.8</ele>
        <time>2026-03-26T09:43:47.000Z</time>
      </trkpt>
      <trkpt lat="48.73618" lon="1.76676">
        <ele>224.2</ele>
        <time>2026-03-26T09:43:48.000Z</time>
      </trkpt>
      <trkpt lat="48.73617" lon="1.76677">
        <ele>224.4</ele>
        <time>2026-03-26T09:43:49.000Z</time>
      </trkpt>
      <trkpt lat="48.73616" lon="1.76678">
        <ele>224.2</ele>
        <time>2026-03-26T09:43:50.000Z</time>
      </trkpt>
      <trkpt lat="48.73615" lon="1.7668">
        <ele>223.8</ele>
        <time>2026-03-26T09:43:51.000Z</time>
      </trkpt>
      <trkpt lat="48.73614" lon="1.76681">
        <ele>223.8</ele>
        <time>2026-03-26T09:43:52.000Z</time>
      </trkpt>
      <trkpt lat="48.73613" lon="1.76683">
        <ele>223.4</ele>
        <time>2026-03-26T09:43:53.000Z</time>
      </trkpt>
      <trkpt lat="48.73612" lon="1.76685">
        <ele>223.5</ele>
        <time>2026-03-26T09:43:54.000Z</time>
      </trkpt>
      <trkpt lat="48.73611" lon="1.76686">
        <ele>223.5</ele>
        <time>2026-03-26T09:43:55.000Z</time>
      </trkpt>
      <trkpt lat="48.7361" lon="1.76688">
        <ele>223.2</ele>
        <time>2026-03-26T09:43:56.000Z</time>
      </trkpt>
      <trkpt lat="48.73609" lon="1.76689">
        <ele>223.3</ele>
        <time>2026-03-26T09:43:57.000Z</time>
      </trkpt>
      <trkpt lat="48.73608" lon="1.76691">
        <ele>223.1</ele>
        <time>2026-03-26T09:43:58.000Z</time>
      </trkpt>
      <trkpt lat="48.73607" lon="1.76692">
        <ele>223.2</ele>
        <time>2026-03-26T09:43:59.000Z</time>
      </trkpt>
      <trkpt lat="48.73606" lon="1.76694">
        <ele>223.6</ele>
        <time>2026-03-26T09:44:00.000Z</time>
      </trkpt>
      <trkpt lat="48.73605" lon="1.76695">
        <ele>223.5</ele>
        <time>2026-03-26T09:44:01.000Z</time>
      </trkpt>
      <trkpt lat="48.73604" lon="1.76697">
        <ele>223.3</ele>
        <time>2026-03-26T09:44:02.000Z</time>
      </trkpt>
      <trkpt lat="48.73603" lon="1.76699">
        <ele>223.3</ele>
        <time>2026-03-26T09:44:03.000Z</time>
      </trkpt>
      <trkpt lat="48.73601" lon="1.767">
        <ele>223.3</ele>
        <time>2026-03-26T09:44:04.000Z</time>
      </trkpt>
      <trkpt lat="48.736" lon="1.76702">
        <ele>223.2</ele>
        <time>2026-03-26T09:44:05.000Z</time>
      </trkpt>
      <trkpt lat="48.73599" lon="1.76703">
        <ele>223.3</ele>
        <time>2026-03-26T09:44:06.000Z</time>
      </trkpt>
      <trkpt lat="48.73598" lon="1.76705">
        <ele>223.2</ele>
        <time>2026-03-26T09:44:07.000Z</time>
      </trkpt>
      <trkpt lat="48.73597" lon="1.76706">
        <ele>223.1</ele>
        <time>2026-03-26T09:44:08.000Z</time>
      </trkpt>
      <trkpt lat="48.73596" lon="1.76708">
        <ele>223.3</ele>
        <time>2026-03-26T09:44:09.000Z</time>
      </trkpt>
      <trkpt lat="48.73595" lon="1.7671">
        <ele>223.5</ele>
        <time>2026-03-26T09:44:10.000Z</time>
      </trkpt>
      <trkpt lat="48.73594" lon="1.76711">
        <ele>223.5</ele>
        <time>2026-03-26T09:44:11.000Z</time>
      </trkpt>
      <trkpt lat="48.73592" lon="1.76713">
        <ele>223.7</ele>
        <time>2026-03-26T09:44:12.000Z</time>
      </trkpt>
      <trkpt lat="48.73591" lon="1.76715">
        <ele>223.9</ele>
        <time>2026-03-26T09:44:13.000Z</time>
      </trkpt>
      <trkpt lat="48.7359" lon="1.76717">
        <ele>223.9</ele>
        <time>2026-03-26T09:44:14.000Z</time>
      </trkpt>
      <trkpt lat="48.73589" lon="1.76719">
        <ele>224</ele>
        <time>2026-03-26T09:44:15.000Z</time>
      </trkpt>
      <trkpt lat="48.73588" lon="1.7672">
        <ele>224</ele>
        <time>2026-03-26T09:44:16.000Z</time>
      </trkpt>
      <trkpt lat="48.73587" lon="1.76722">
        <ele>223.9</ele>
        <time>2026-03-26T09:44:17.000Z</time>
      </trkpt>
      <trkpt lat="48.73586" lon="1.76723">
        <ele>224</ele>
        <time>2026-03-26T09:44:18.000Z</time>
      </trkpt>
      <trkpt lat="48.73585" lon="1.76725">
        <ele>224</ele>
        <time>2026-03-26T09:44:19.000Z</time>
      </trkpt>
      <trkpt lat="48.73584" lon="1.76727">
        <ele>224.2</ele>
        <time>2026-03-26T09:44:20.000Z</time>
      </trkpt>
      <trkpt lat="48.73583" lon="1.76729">
        <ele>224.5</ele>
        <time>2026-03-26T09:44:21.000Z</time>
      </trkpt>
      <trkpt lat="48.73582" lon="1.7673">
        <ele>224.6</ele>
        <time>2026-03-26T09:44:22.000Z</time>
      </trkpt>
      <trkpt lat="48.73581" lon="1.76732">
        <ele>224.8</ele>
        <time>2026-03-26T09:44:23.000Z</time>
      </trkpt>
      <trkpt lat="48.7358" lon="1.76734">
        <ele>224.6</ele>
        <time>2026-03-26T09:44:24.000Z</time>
      </trkpt>
      <trkpt lat="48.73579" lon="1.76735">
        <ele>225</ele>
        <time>2026-03-26T09:44:25.000Z</time>
      </trkpt>
      <trkpt lat="48.73577" lon="1.76736">
        <ele>224.6</ele>
        <time>2026-03-26T09:44:26.000Z</time>
      </trkpt>
      <trkpt lat="48.73576" lon="1.76737">
        <ele>224.4</ele>
        <time>2026-03-26T09:44:27.000Z</time>
      </trkpt>
      <trkpt lat="48.73576" lon="1.76739">
        <ele>224.5</ele>
        <time>2026-03-26T09:44:28.000Z</time>
      </trkpt>
      <trkpt lat="48.73575" lon="1.76741">
        <ele>224.6</ele>
        <time>2026-03-26T09:44:29.000Z</time>
      </trkpt>
      <trkpt lat="48.73574" lon="1.76743">
        <ele>225</ele>
        <time>2026-03-26T09:44:30.000Z</time>
      </trkpt>
      <trkpt lat="48.73573" lon="1.76744">
        <ele>225.2</ele>
        <time>2026-03-26T09:44:31.000Z</time>
      </trkpt>
      <trkpt lat="48.73572" lon="1.76746">
        <ele>225.2</ele>
        <time>2026-03-26T09:44:32.000Z</time>
      </trkpt>
      <trkpt lat="48.73571" lon="1.76747">
        <ele>225.2</ele>
        <time>2026-03-26T09:44:33.000Z</time>
      </trkpt>
      <trkpt lat="48.7357" lon="1.76749">
        <ele>225.4</ele>
        <time>2026-03-26T09:44:34.000Z</time>
      </trkpt>
      <trkpt lat="48.73569" lon="1.7675">
        <ele>225.3</ele>
        <time>2026-03-26T09:44:35.000Z</time>
      </trkpt>
      <trkpt lat="48.73568" lon="1.76752">
        <ele>225.5</ele>
        <time>2026-03-26T09:44:36.000Z</time>
      </trkpt>
      <trkpt lat="48.73567" lon="1.76753">
        <ele>225.3</ele>
        <time>2026-03-26T09:44:37.000Z</time>
      </trkpt>
      <trkpt lat="48.73566" lon="1.76755">
        <ele>225.2</ele>
        <time>2026-03-26T09:44:38.000Z</time>
      </trkpt>
      <trkpt lat="48.73565" lon="1.76756">
        <ele>225</ele>
        <time>2026-03-26T09:44:39.000Z</time>
      </trkpt>
      <trkpt lat="48.73563" lon="1.76758">
        <ele>224.9</ele>
        <time>2026-03-26T09:44:40.000Z</time>
      </trkpt>
      <trkpt lat="48.73562" lon="1.76759">
        <ele>224.8</ele>
        <time>2026-03-26T09:44:41.000Z</time>
      </trkpt>
      <trkpt lat="48.73562" lon="1.7676">
        <ele>224.6</ele>
        <time>2026-03-26T09:44:42.000Z</time>
      </trkpt>
      <trkpt lat="48.7356" lon="1.76762">
        <ele>224.6</ele>
        <time>2026-03-26T09:44:43.000Z</time>
      </trkpt>
      <trkpt lat="48.73559" lon="1.76763">
        <ele>224.6</ele>
        <time>2026-03-26T09:44:44.000Z</time>
      </trkpt>
      <trkpt lat="48.73558" lon="1.76765">
        <ele>224.9</ele>
        <time>2026-03-26T09:44:45.000Z</time>
      </trkpt>
      <trkpt lat="48.73557" lon="1.76767">
        <ele>225.1</ele>
        <time>2026-03-26T09:44:46.000Z</time>
      </trkpt>
      <trkpt lat="48.73556" lon="1.76769">
        <ele>225</ele>
        <time>2026-03-26T09:44:47.000Z</time>
      </trkpt>
      <trkpt lat="48.73555" lon="1.7677">
        <ele>224.7</ele>
        <time>2026-03-26T09:44:48.000Z</time>
      </trkpt>
      <trkpt lat="48.73554" lon="1.76772">
        <ele>224.7</ele>
        <time>2026-03-26T09:44:49.000Z</time>
      </trkpt>
      <trkpt lat="48.73553" lon="1.76773">
        <ele>224.7</ele>
        <time>2026-03-26T09:44:50.000Z</time>
      </trkpt>
      <trkpt lat="48.73552" lon="1.76775">
        <ele>224.8</ele>
        <time>2026-03-26T09:44:51.000Z</time>
      </trkpt>
      <trkpt lat="48.73551" lon="1.76776">
        <ele>224.7</ele>
        <time>2026-03-26T09:44:52.000Z</time>
      </trkpt>
      <trkpt lat="48.7355" lon="1.76778">
        <ele>224.7</ele>
        <time>2026-03-26T09:44:53.000Z</time>
      </trkpt>
      <trkpt lat="48.73549" lon="1.76779">
        <ele>225.1</ele>
        <time>2026-03-26T09:44:54.000Z</time>
      </trkpt>
      <trkpt lat="48.73548" lon="1.76781">
        <ele>225.2</ele>
        <time>2026-03-26T09:44:55.000Z</time>
      </trkpt>
      <trkpt lat="48.73547" lon="1.76782">
        <ele>225.1</ele>
        <time>2026-03-26T09:44:56.000Z</time>
      </trkpt>
      <trkpt lat="48.73546" lon="1.76784">
        <ele>225.1</ele>
        <time>2026-03-26T09:44:57.000Z</time>
      </trkpt>
      <trkpt lat="48.73545" lon="1.76785">
        <ele>225.1</ele>
        <time>2026-03-26T09:44:58.000Z</time>
      </trkpt>
      <trkpt lat="48.73544" lon="1.76787">
        <ele>224.9</ele>
        <time>2026-03-26T09:44:59.000Z</time>
      </trkpt>
      <trkpt lat="48.73543" lon="1.76788">
        <ele>224.8</ele>
        <time>2026-03-26T09:45:00.000Z</time>
      </trkpt>
      <trkpt lat="48.73542" lon="1.7679">
        <ele>224.5</ele>
        <time>2026-03-26T09:45:01.000Z</time>
      </trkpt>
      <trkpt lat="48.73541" lon="1.76791">
        <ele>223.9</ele>
        <time>2026-03-26T09:45:02.000Z</time>
      </trkpt>
      <trkpt lat="48.7354" lon="1.76792">
        <ele>223.6</ele>
        <time>2026-03-26T09:45:03.000Z</time>
      </trkpt>
      <trkpt lat="48.73539" lon="1.76794">
        <ele>223.2</ele>
        <time>2026-03-26T09:45:04.000Z</time>
      </trkpt>
      <trkpt lat="48.73539" lon="1.76795">
        <ele>223.1</ele>
        <time>2026-03-26T09:45:05.000Z</time>
      </trkpt>
      <trkpt lat="48.73537" lon="1.76796">
        <ele>223.6</ele>
        <time>2026-03-26T09:45:06.000Z</time>
      </trkpt>
      <trkpt lat="48.73536" lon="1.76798">
        <ele>223.5</ele>
        <time>2026-03-26T09:45:07.000Z</time>
      </trkpt>
      <trkpt lat="48.73535" lon="1.76799">
        <ele>223.3</ele>
        <time>2026-03-26T09:45:08.000Z</time>
      </trkpt>
      <trkpt lat="48.73534" lon="1.768">
        <ele>223.3</ele>
        <time>2026-03-26T09:45:09.000Z</time>
      </trkpt>
      <trkpt lat="48.73533" lon="1.76802">
        <ele>223.2</ele>
        <time>2026-03-26T09:45:10.000Z</time>
      </trkpt>
      <trkpt lat="48.73532" lon="1.76803">
        <ele>223.1</ele>
        <time>2026-03-26T09:45:11.000Z</time>
      </trkpt>
      <trkpt lat="48.73531" lon="1.76805">
        <ele>222.9</ele>
        <time>2026-03-26T09:45:12.000Z</time>
      </trkpt>
      <trkpt lat="48.7353" lon="1.76806">
        <ele>222.8</ele>
        <time>2026-03-26T09:45:13.000Z</time>
      </trkpt>
      <trkpt lat="48.73529" lon="1.76808">
        <ele>222.8</ele>
        <time>2026-03-26T09:45:14.000Z</time>
      </trkpt>
      <trkpt lat="48.73527" lon="1.7681">
        <ele>222.7</ele>
        <time>2026-03-26T09:45:15.000Z</time>
      </trkpt>
      <trkpt lat="48.73526" lon="1.76811">
        <ele>222.6</ele>
        <time>2026-03-26T09:45:16.000Z</time>
      </trkpt>
      <trkpt lat="48.73525" lon="1.76813">
        <ele>222.6</ele>
        <time>2026-03-26T09:45:17.000Z</time>
      </trkpt>
      <trkpt lat="48.73524" lon="1.76814">
        <ele>222.6</ele>
        <time>2026-03-26T09:45:18.000Z</time>
      </trkpt>
      <trkpt lat="48.73523" lon="1.76816">
        <ele>222.6</ele>
        <time>2026-03-26T09:45:19.000Z</time>
      </trkpt>
      <trkpt lat="48.73522" lon="1.76817">
        <ele>222.7</ele>
        <time>2026-03-26T09:45:20.000Z</time>
      </trkpt>
      <trkpt lat="48.73521" lon="1.76819">
        <ele>222.8</ele>
        <time>2026-03-26T09:45:21.000Z</time>
      </trkpt>
      <trkpt lat="48.7352" lon="1.7682">
        <ele>223</ele>
        <time>2026-03-26T09:45:22.000Z</time>
      </trkpt>
      <trkpt lat="48.73519" lon="1.76822">
        <ele>222.9</ele>
        <time>2026-03-26T09:45:23.000Z</time>
      </trkpt>
      <trkpt lat="48.73518" lon="1.76823">
        <ele>222.9</ele>
        <time>2026-03-26T09:45:24.000Z</time>
      </trkpt>
      <trkpt lat="48.73517" lon="1.76824">
        <ele>222.6</ele>
        <time>2026-03-26T09:45:25.000Z</time>
      </trkpt>
      <trkpt lat="48.73516" lon="1.76826">
        <ele>222.2</ele>
        <time>2026-03-26T09:45:26.000Z</time>
      </trkpt>
      <trkpt lat="48.73515" lon="1.76828">
        <ele>222.5</ele>
        <time>2026-03-26T09:45:27.000Z</time>
      </trkpt>
      <trkpt lat="48.73514" lon="1.7683">
        <ele>222.3</ele>
        <time>2026-03-26T09:45:28.000Z</time>
      </trkpt>
      <trkpt lat="48.73513" lon="1.76832">
        <ele>222.5</ele>
        <time>2026-03-26T09:45:29.000Z</time>
      </trkpt>
      <trkpt lat="48.73513" lon="1.76834">
        <ele>222.4</ele>
        <time>2026-03-26T09:45:30.000Z</time>
      </trkpt>
      <trkpt lat="48.73511" lon="1.76835">
        <ele>222.8</ele>
        <time>2026-03-26T09:45:31.000Z</time>
      </trkpt>
      <trkpt lat="48.7351" lon="1.76837">
        <ele>223</ele>
        <time>2026-03-26T09:45:32.000Z</time>
      </trkpt>
      <trkpt lat="48.73509" lon="1.76838">
        <ele>222.9</ele>
        <time>2026-03-26T09:45:33.000Z</time>
      </trkpt>
      <trkpt lat="48.73508" lon="1.7684">
        <ele>223.2</ele>
        <time>2026-03-26T09:45:34.000Z</time>
      </trkpt>
      <trkpt lat="48.73507" lon="1.76842">
        <ele>223.8</ele>
        <time>2026-03-26T09:45:35.000Z</time>
      </trkpt>
      <trkpt lat="48.73506" lon="1.76843">
        <ele>224.3</ele>
        <time>2026-03-26T09:45:36.000Z</time>
      </trkpt>
      <trkpt lat="48.73505" lon="1.76845">
        <ele>224.4</ele>
        <time>2026-03-26T09:45:37.000Z</time>
      </trkpt>
      <trkpt lat="48.73504" lon="1.76846">
        <ele>224.1</ele>
        <time>2026-03-26T09:45:38.000Z</time>
      </trkpt>
      <trkpt lat="48.73503" lon="1.76848">
        <ele>224.3</ele>
        <time>2026-03-26T09:45:39.000Z</time>
      </trkpt>
      <trkpt lat="48.73502" lon="1.7685">
        <ele>224.8</ele>
        <time>2026-03-26T09:45:40.000Z</time>
      </trkpt>
      <trkpt lat="48.735" lon="1.76851">
        <ele>224.9</ele>
        <time>2026-03-26T09:45:41.000Z</time>
      </trkpt>
      <trkpt lat="48.73499" lon="1.76852">
        <ele>225.1</ele>
        <time>2026-03-26T09:45:42.000Z</time>
      </trkpt>
      <trkpt lat="48.73498" lon="1.76853">
        <ele>225.4</ele>
        <time>2026-03-26T09:45:43.000Z</time>
      </trkpt>
      <trkpt lat="48.73497" lon="1.76855">
        <ele>225.7</ele>
        <time>2026-03-26T09:45:44.000Z</time>
      </trkpt>
      <trkpt lat="48.73496" lon="1.76856">
        <ele>225.9</ele>
        <time>2026-03-26T09:45:45.000Z</time>
      </trkpt>
      <trkpt lat="48.73495" lon="1.76858">
        <ele>225.9</ele>
        <time>2026-03-26T09:45:46.000Z</time>
      </trkpt>
      <trkpt lat="48.73494" lon="1.7686">
        <ele>225.8</ele>
        <time>2026-03-26T09:45:47.000Z</time>
      </trkpt>
      <trkpt lat="48.73493" lon="1.76861">
        <ele>225.8</ele>
        <time>2026-03-26T09:45:48.000Z</time>
      </trkpt>
      <trkpt lat="48.73492" lon="1.76863">
        <ele>225.6</ele>
        <time>2026-03-26T09:45:49.000Z</time>
      </trkpt>
      <trkpt lat="48.73492" lon="1.76865">
        <ele>225.7</ele>
        <time>2026-03-26T09:45:50.000Z</time>
      </trkpt>
      <trkpt lat="48.73491" lon="1.76867">
        <ele>226</ele>
        <time>2026-03-26T09:45:51.000Z</time>
      </trkpt>
      <trkpt lat="48.7349" lon="1.76869">
        <ele>225.6</ele>
        <time>2026-03-26T09:45:52.000Z</time>
      </trkpt>
      <trkpt lat="48.73489" lon="1.76871">
        <ele>225.3</ele>
        <time>2026-03-26T09:45:53.000Z</time>
      </trkpt>
      <trkpt lat="48.73489" lon="1.76872">
        <ele>224.9</ele>
        <time>2026-03-26T09:45:54.000Z</time>
      </trkpt>
      <trkpt lat="48.73488" lon="1.76873">
        <ele>225.1</ele>
        <time>2026-03-26T09:45:55.000Z</time>
      </trkpt>
      <trkpt lat="48.73486" lon="1.76875">
        <ele>224.6</ele>
        <time>2026-03-26T09:45:56.000Z</time>
      </trkpt>
      <trkpt lat="48.73485" lon="1.76876">
        <ele>224.9</ele>
        <time>2026-03-26T09:45:57.000Z</time>
      </trkpt>
      <trkpt lat="48.73484" lon="1.76877">
        <ele>224.8</ele>
        <time>2026-03-26T09:45:58.000Z</time>
      </trkpt>
      <trkpt lat="48.73483" lon="1.76879">
        <ele>224.6</ele>
        <time>2026-03-26T09:45:59.000Z</time>
      </trkpt>
      <trkpt lat="48.73482" lon="1.7688">
        <ele>224.1</ele>
        <time>2026-03-26T09:46:00.000Z</time>
      </trkpt>
      <trkpt lat="48.73481" lon="1.76882">
        <ele>223.6</ele>
        <time>2026-03-26T09:46:01.000Z</time>
      </trkpt>
      <trkpt lat="48.7348" lon="1.76883">
        <ele>223.6</ele>
        <time>2026-03-26T09:46:02.000Z</time>
      </trkpt>
      <trkpt lat="48.73479" lon="1.76885">
        <ele>223.7</ele>
        <time>2026-03-26T09:46:03.000Z</time>
      </trkpt>
      <trkpt lat="48.73478" lon="1.76886">
        <ele>224.4</ele>
        <time>2026-03-26T09:46:04.000Z</time>
      </trkpt>
      <trkpt lat="48.73478" lon="1.76887">
        <ele>224.1</ele>
        <time>2026-03-26T09:46:05.000Z</time>
      </trkpt>
      <trkpt lat="48.73477" lon="1.76889">
        <ele>224.2</ele>
        <time>2026-03-26T09:46:06.000Z</time>
      </trkpt>
      <trkpt lat="48.73476" lon="1.7689">
        <ele>224.4</ele>
        <time>2026-03-26T09:46:07.000Z</time>
      </trkpt>
      <trkpt lat="48.73475" lon="1.76892">
        <ele>224.6</ele>
        <time>2026-03-26T09:46:08.000Z</time>
      </trkpt>
      <trkpt lat="48.73474" lon="1.76894">
        <ele>224.7</ele>
        <time>2026-03-26T09:46:09.000Z</time>
      </trkpt>
      <trkpt lat="48.73473" lon="1.76895">
        <ele>224.7</ele>
        <time>2026-03-26T09:46:10.000Z</time>
      </trkpt>
      <trkpt lat="48.73472" lon="1.76896">
        <ele>224.7</ele>
        <time>2026-03-26T09:46:11.000Z</time>
      </trkpt>
      <trkpt lat="48.73471" lon="1.76898">
        <ele>225</ele>
        <time>2026-03-26T09:46:12.000Z</time>
      </trkpt>
      <trkpt lat="48.7347" lon="1.76899">
        <ele>224.6</ele>
        <time>2026-03-26T09:46:13.000Z</time>
      </trkpt>
      <trkpt lat="48.73469" lon="1.76901">
        <ele>224.4</ele>
        <time>2026-03-26T09:46:14.000Z</time>
      </trkpt>
      <trkpt lat="48.73468" lon="1.76902">
        <ele>225</ele>
        <time>2026-03-26T09:46:15.000Z</time>
      </trkpt>
      <trkpt lat="48.73467" lon="1.76904">
        <ele>225.2</ele>
        <time>2026-03-26T09:46:16.000Z</time>
      </trkpt>
      <trkpt lat="48.73465" lon="1.76905">
        <ele>225.1</ele>
        <time>2026-03-26T09:46:17.000Z</time>
      </trkpt>
      <trkpt lat="48.73464" lon="1.76907">
        <ele>224.8</ele>
        <time>2026-03-26T09:46:18.000Z</time>
      </trkpt>
      <trkpt lat="48.73463" lon="1.76908">
        <ele>225.4</ele>
        <time>2026-03-26T09:46:19.000Z</time>
      </trkpt>
      <trkpt lat="48.73462" lon="1.7691">
        <ele>225.1</ele>
        <time>2026-03-26T09:46:20.000Z</time>
      </trkpt>
      <trkpt lat="48.7346" lon="1.76911">
        <ele>225.3</ele>
        <time>2026-03-26T09:46:21.000Z</time>
      </trkpt>
      <trkpt lat="48.73459" lon="1.76912">
        <ele>225.1</ele>
        <time>2026-03-26T09:46:22.000Z</time>
      </trkpt>
      <trkpt lat="48.73458" lon="1.76914">
        <ele>224.9</ele>
        <time>2026-03-26T09:46:23.000Z</time>
      </trkpt>
      <trkpt lat="48.73457" lon="1.76915">
        <ele>224.5</ele>
        <time>2026-03-26T09:46:24.000Z</time>
      </trkpt>
      <trkpt lat="48.73456" lon="1.76917">
        <ele>224.1</ele>
        <time>2026-03-26T09:46:25.000Z</time>
      </trkpt>
      <trkpt lat="48.73455" lon="1.76918">
        <ele>224.5</ele>
        <time>2026-03-26T09:46:26.000Z</time>
      </trkpt>
      <trkpt lat="48.73454" lon="1.76919">
        <ele>224.6</ele>
        <time>2026-03-26T09:46:27.000Z</time>
      </trkpt>
      <trkpt lat="48.73453" lon="1.7692">
        <ele>224.4</ele>
        <time>2026-03-26T09:46:28.000Z</time>
      </trkpt>
      <trkpt lat="48.73452" lon="1.76922">
        <ele>224.4</ele>
        <time>2026-03-26T09:46:29.000Z</time>
      </trkpt>
      <trkpt lat="48.73451" lon="1.76923">
        <ele>224.5</ele>
        <time>2026-03-26T09:46:30.000Z</time>
      </trkpt>
      <trkpt lat="48.7345" lon="1.76925">
        <ele>224.5</ele>
        <time>2026-03-26T09:46:31.000Z</time>
      </trkpt>
      <trkpt lat="48.7345" lon="1.76926">
        <ele>224.4</ele>
        <time>2026-03-26T09:46:32.000Z</time>
      </trkpt>
      <trkpt lat="48.73449" lon="1.76927">
        <ele>224.2</ele>
        <time>2026-03-26T09:46:33.000Z</time>
      </trkpt>
      <trkpt lat="48.73447" lon="1.76929">
        <ele>223.8</ele>
        <time>2026-03-26T09:46:34.000Z</time>
      </trkpt>
      <trkpt lat="48.73447" lon="1.76931">
        <ele>224</ele>
        <time>2026-03-26T09:46:35.000Z</time>
      </trkpt>
      <trkpt lat="48.73446" lon="1.76932">
        <ele>224.2</ele>
        <time>2026-03-26T09:46:36.000Z</time>
      </trkpt>
      <trkpt lat="48.73444" lon="1.76934">
        <ele>224.2</ele>
        <time>2026-03-26T09:46:37.000Z</time>
      </trkpt>
      <trkpt lat="48.73443" lon="1.76935">
        <ele>224.4</ele>
        <time>2026-03-26T09:46:38.000Z</time>
      </trkpt>
      <trkpt lat="48.73442" lon="1.76937">
        <ele>224.4</ele>
        <time>2026-03-26T09:46:39.000Z</time>
      </trkpt>
      <trkpt lat="48.73441" lon="1.76938">
        <ele>224.5</ele>
        <time>2026-03-26T09:46:40.000Z</time>
      </trkpt>
      <trkpt lat="48.7344" lon="1.7694">
        <ele>224.6</ele>
        <time>2026-03-26T09:46:41.000Z</time>
      </trkpt>
      <trkpt lat="48.73439" lon="1.76942">
        <ele>224.6</ele>
        <time>2026-03-26T09:46:42.000Z</time>
      </trkpt>
      <trkpt lat="48.73438" lon="1.76943">
        <ele>224.5</ele>
        <time>2026-03-26T09:46:43.000Z</time>
      </trkpt>
      <trkpt lat="48.73437" lon="1.76944">
        <ele>224</ele>
        <time>2026-03-26T09:46:44.000Z</time>
      </trkpt>
      <trkpt lat="48.73436" lon="1.76946">
        <ele>223.6</ele>
        <time>2026-03-26T09:46:45.000Z</time>
      </trkpt>
      <trkpt lat="48.73435" lon="1.76947">
        <ele>223.4</ele>
        <time>2026-03-26T09:46:46.000Z</time>
      </trkpt>
      <trkpt lat="48.73434" lon="1.76949">
        <ele>223.5</ele>
        <time>2026-03-26T09:46:47.000Z</time>
      </trkpt>
      <trkpt lat="48.73433" lon="1.7695">
        <ele>223.4</ele>
        <time>2026-03-26T09:46:48.000Z</time>
      </trkpt>
      <trkpt lat="48.73432" lon="1.76952">
        <ele>223.3</ele>
        <time>2026-03-26T09:46:49.000Z</time>
      </trkpt>
      <trkpt lat="48.73431" lon="1.76953">
        <ele>223.3</ele>
        <time>2026-03-26T09:46:50.000Z</time>
      </trkpt>
      <trkpt lat="48.73429" lon="1.76954">
        <ele>223.3</ele>
        <time>2026-03-26T09:46:51.000Z</time>
      </trkpt>
      <trkpt lat="48.73428" lon="1.76956">
        <ele>223.1</ele>
        <time>2026-03-26T09:46:52.000Z</time>
      </trkpt>
      <trkpt lat="48.73427" lon="1.76957">
        <ele>223.1</ele>
        <time>2026-03-26T09:46:53.000Z</time>
      </trkpt>
      <trkpt lat="48.73426" lon="1.76959">
        <ele>223.3</ele>
        <time>2026-03-26T09:46:54.000Z</time>
      </trkpt>
      <trkpt lat="48.73425" lon="1.7696">
        <ele>223.1</ele>
        <time>2026-03-26T09:46:55.000Z</time>
      </trkpt>
      <trkpt lat="48.73424" lon="1.76962">
        <ele>223.2</ele>
        <time>2026-03-26T09:46:56.000Z</time>
      </trkpt>
      <trkpt lat="48.73423" lon="1.76964">
        <ele>223</ele>
        <time>2026-03-26T09:46:57.000Z</time>
      </trkpt>
      <trkpt lat="48.73422" lon="1.76965">
        <ele>223</ele>
        <time>2026-03-26T09:46:58.000Z</time>
      </trkpt>
      <trkpt lat="48.73421" lon="1.76967">
        <ele>223.1</ele>
        <time>2026-03-26T09:46:59.000Z</time>
      </trkpt>
      <trkpt lat="48.7342" lon="1.76969">
        <ele>222.9</ele>
        <time>2026-03-26T09:47:00.000Z</time>
      </trkpt>
      <trkpt lat="48.73419" lon="1.76971">
        <ele>223.2</ele>
        <time>2026-03-26T09:47:01.000Z</time>
      </trkpt>
      <trkpt lat="48.73418" lon="1.76972">
        <ele>223.2</ele>
        <time>2026-03-26T09:47:02.000Z</time>
      </trkpt>
      <trkpt lat="48.73417" lon="1.76974">
        <ele>223</ele>
        <time>2026-03-26T09:47:03.000Z</time>
      </trkpt>
      <trkpt lat="48.73416" lon="1.76976">
        <ele>223.1</ele>
        <time>2026-03-26T09:47:04.000Z</time>
      </trkpt>
      <trkpt lat="48.73415" lon="1.76977">
        <ele>223.2</ele>
        <time>2026-03-26T09:47:05.000Z</time>
      </trkpt>
      <trkpt lat="48.73414" lon="1.76979">
        <ele>223.2</ele>
        <time>2026-03-26T09:47:06.000Z</time>
      </trkpt>
      <trkpt lat="48.73413" lon="1.7698">
        <ele>223.4</ele>
        <time>2026-03-26T09:47:07.000Z</time>
      </trkpt>
      <trkpt lat="48.73412" lon="1.76982">
        <ele>223.2</ele>
        <time>2026-03-26T09:47:08.000Z</time>
      </trkpt>
      <trkpt lat="48.73411" lon="1.76983">
        <ele>223.6</ele>
        <time>2026-03-26T09:47:09.000Z</time>
      </trkpt>
      <trkpt lat="48.7341" lon="1.76985">
        <ele>223.8</ele>
        <time>2026-03-26T09:47:10.000Z</time>
      </trkpt>
      <trkpt lat="48.7341" lon="1.76986">
        <ele>224</ele>
        <time>2026-03-26T09:47:11.000Z</time>
      </trkpt>
      <trkpt lat="48.73409" lon="1.76988">
        <ele>223.9</ele>
        <time>2026-03-26T09:47:12.000Z</time>
      </trkpt>
      <trkpt lat="48.73408" lon="1.7699">
        <ele>224.1</ele>
        <time>2026-03-26T09:47:13.000Z</time>
      </trkpt>
      <trkpt lat="48.73407" lon="1.76992">
        <ele>224.2</ele>
        <time>2026-03-26T09:47:14.000Z</time>
      </trkpt>
      <trkpt lat="48.73407" lon="1.76993">
        <ele>224.2</ele>
        <time>2026-03-26T09:47:15.000Z</time>
      </trkpt>
      <trkpt lat="48.73406" lon="1.76995">
        <ele>224.3</ele>
        <time>2026-03-26T09:47:16.000Z</time>
      </trkpt>
      <trkpt lat="48.73405" lon="1.76997">
        <ele>223.9</ele>
        <time>2026-03-26T09:47:17.000Z</time>
      </trkpt>
      <trkpt lat="48.73405" lon="1.76999">
        <ele>223.9</ele>
        <time>2026-03-26T09:47:18.000Z</time>
      </trkpt>
      <trkpt lat="48.73404" lon="1.77001">
        <ele>224</ele>
        <time>2026-03-26T09:47:19.000Z</time>
      </trkpt>
      <trkpt lat="48.73404" lon="1.77003">
        <ele>224.1</ele>
        <time>2026-03-26T09:47:20.000Z</time>
      </trkpt>
      <trkpt lat="48.73403" lon="1.77005">
        <ele>224.1</ele>
        <time>2026-03-26T09:47:21.000Z</time>
      </trkpt>
      <trkpt lat="48.73403" lon="1.77008">
        <ele>224.4</ele>
        <time>2026-03-26T09:47:22.000Z</time>
      </trkpt>
      <trkpt lat="48.73402" lon="1.7701">
        <ele>224.4</ele>
        <time>2026-03-26T09:47:23.000Z</time>
      </trkpt>
      <trkpt lat="48.73402" lon="1.77012">
        <ele>224.8</ele>
        <time>2026-03-26T09:47:24.000Z</time>
      </trkpt>
      <trkpt lat="48.73401" lon="1.77014">
        <ele>224.7</ele>
        <time>2026-03-26T09:47:25.000Z</time>
      </trkpt>
      <trkpt lat="48.73401" lon="1.77016">
        <ele>224.7</ele>
        <time>2026-03-26T09:47:26.000Z</time>
      </trkpt>
      <trkpt lat="48.734" lon="1.77018">
        <ele>224.7</ele>
        <time>2026-03-26T09:47:27.000Z</time>
      </trkpt>
      <trkpt lat="48.734" lon="1.77021">
        <ele>224.6</ele>
        <time>2026-03-26T09:47:28.000Z</time>
      </trkpt>
      <trkpt lat="48.73399" lon="1.77023">
        <ele>224.7</ele>
        <time>2026-03-26T09:47:29.000Z</time>
      </trkpt>
      <trkpt lat="48.73399" lon="1.77025">
        <ele>224.7</ele>
        <time>2026-03-26T09:47:30.000Z</time>
      </trkpt>
      <trkpt lat="48.73398" lon="1.77027">
        <ele>224.6</ele>
        <time>2026-03-26T09:47:31.000Z</time>
      </trkpt>
      <trkpt lat="48.73398" lon="1.77029">
        <ele>224.7</ele>
        <time>2026-03-26T09:47:32.000Z</time>
      </trkpt>
      <trkpt lat="48.73397" lon="1.77031">
        <ele>224.6</ele>
        <time>2026-03-26T09:47:33.000Z</time>
      </trkpt>
      <trkpt lat="48.73397" lon="1.77033">
        <ele>225.2</ele>
        <time>2026-03-26T09:47:34.000Z</time>
      </trkpt>
      <trkpt lat="48.73396" lon="1.77035">
        <ele>225</ele>
        <time>2026-03-26T09:47:35.000Z</time>
      </trkpt>
      <trkpt lat="48.73396" lon="1.77037">
        <ele>225</ele>
        <time>2026-03-26T09:47:36.000Z</time>
      </trkpt>
      <trkpt lat="48.73395" lon="1.77039">
        <ele>224.8</ele>
        <time>2026-03-26T09:47:37.000Z</time>
      </trkpt>
      <trkpt lat="48.73394" lon="1.77041">
        <ele>224.9</ele>
        <time>2026-03-26T09:47:38.000Z</time>
      </trkpt>
      <trkpt lat="48.73394" lon="1.77043">
        <ele>225</ele>
        <time>2026-03-26T09:47:39.000Z</time>
      </trkpt>
      <trkpt lat="48.73394" lon="1.77045">
        <ele>224.7</ele>
        <time>2026-03-26T09:47:40.000Z</time>
      </trkpt>
      <trkpt lat="48.73393" lon="1.77047">
        <ele>225.4</ele>
        <time>2026-03-26T09:47:41.000Z</time>
      </trkpt>
      <trkpt lat="48.73393" lon="1.77049">
        <ele>225.6</ele>
        <time>2026-03-26T09:47:42.000Z</time>
      </trkpt>
      <trkpt lat="48.73392" lon="1.7705">
        <ele>225.5</ele>
        <time>2026-03-26T09:47:43.000Z</time>
      </trkpt>
      <trkpt lat="48.73391" lon="1.77052">
        <ele>225.5</ele>
        <time>2026-03-26T09:47:44.000Z</time>
      </trkpt>
      <trkpt lat="48.73391" lon="1.77054">
        <ele>225.4</ele>
        <time>2026-03-26T09:47:45.000Z</time>
      </trkpt>
      <trkpt lat="48.7339" lon="1.77056">
        <ele>225.3</ele>
        <time>2026-03-26T09:47:46.000Z</time>
      </trkpt>
      <trkpt lat="48.7339" lon="1.77058">
        <ele>225.4</ele>
        <time>2026-03-26T09:47:47.000Z</time>
      </trkpt>
      <trkpt lat="48.73389" lon="1.77059">
        <ele>225.6</ele>
        <time>2026-03-26T09:47:48.000Z</time>
      </trkpt>
      <trkpt lat="48.73389" lon="1.77061">
        <ele>225.6</ele>
        <time>2026-03-26T09:47:49.000Z</time>
      </trkpt>
      <trkpt lat="48.73388" lon="1.77062">
        <ele>225.5</ele>
        <time>2026-03-26T09:47:50.000Z</time>
      </trkpt>
      <trkpt lat="48.73388" lon="1.77064">
        <ele>225.7</ele>
        <time>2026-03-26T09:47:51.000Z</time>
      </trkpt>
      <trkpt lat="48.73387" lon="1.77065">
        <ele>225.9</ele>
        <time>2026-03-26T09:47:52.000Z</time>
      </trkpt>
      <trkpt lat="48.73387" lon="1.77067">
        <ele>226.1</ele>
        <time>2026-03-26T09:47:53.000Z</time>
      </trkpt>
      <trkpt lat="48.73387" lon="1.77069">
        <ele>226.3</ele>
        <time>2026-03-26T09:47:54.000Z</time>
      </trkpt>
      <trkpt lat="48.73387" lon="1.7707">
        <ele>226.4</ele>
        <time>2026-03-26T09:47:55.000Z</time>
      </trkpt>
      <trkpt lat="48.73387" lon="1.77072">
        <ele>226.3</ele>
        <time>2026-03-26T09:47:56.000Z</time>
      </trkpt>
      <trkpt lat="48.73386" lon="1.77073">
        <ele>226.6</ele>
        <time>2026-03-26T09:47:57.000Z</time>
      </trkpt>
      <trkpt lat="48.73386" lon="1.77074">
        <ele>226.6</ele>
        <time>2026-03-26T09:47:58.000Z</time>
      </trkpt>
      <trkpt lat="48.73385" lon="1.77073">
        <ele>226.1</ele>
        <time>2026-03-26T09:47:59.000Z</time>
      </trkpt>
      <trkpt lat="48.73385" lon="1.77073">
        <ele>226.1</ele>
        <time>2026-03-26T09:48:00.000Z</time>
      </trkpt>
      <trkpt lat="48.73384" lon="1.77072">
        <ele>226.5</ele>
        <time>2026-03-26T09:48:01.000Z</time>
      </trkpt>
      <trkpt lat="48.73383" lon="1.77072">
        <ele>226.6</ele>
        <time>2026-03-26T09:48:02.000Z</time>
      </trkpt>
      <trkpt lat="48.73383" lon="1.77072">
        <ele>226.6</ele>
        <time>2026-03-26T09:48:03.000Z</time>
      </trkpt>
      <trkpt lat="48.73383" lon="1.77072">
        <ele>226.6</ele>
        <time>2026-03-26T09:48:04.000Z</time>
      </trkpt>
      <trkpt lat="48.73383" lon="1.77072">
        <ele>226.6</ele>
        <time>2026-03-26T09:48:05.000Z</time>
      </trkpt>
      <trkpt lat="48.73383" lon="1.77072">
        <ele>226.6</ele>
        <time>2026-03-26T09:48:06.000Z</time>
      </trkpt>
      <trkpt lat="48.73383" lon="1.77072">
        <ele>226.6</ele>
        <time>2026-03-26T09:48:07.000Z</time>
      </trkpt>
      <trkpt lat="48.73383" lon="1.77072">
        <ele>226.5</ele>
        <time>2026-03-26T09:48:08.000Z</time>
      </trkpt>
      <trkpt lat="48.73383" lon="1.77073">
        <ele>226.3</ele>
        <time>2026-03-26T09:48:09.000Z</time>
      </trkpt>
      <trkpt lat="48.73383" lon="1.77073">
        <ele>225.9</ele>
        <time>2026-03-26T09:48:10.000Z</time>
      </trkpt>
      <trkpt lat="48.73384" lon="1.77073">
        <ele>225.9</ele>
        <time>2026-03-26T09:48:11.000Z</time>
      </trkpt>
      <trkpt lat="48.73384" lon="1.77073">
        <ele>225.9</ele>
        <time>2026-03-26T09:48:12.000Z</time>
      </trkpt>
      <trkpt lat="48.73384" lon="1.77073">
        <ele>225.6</ele>
        <time>2026-03-26T09:48:13.000Z</time>
      </trkpt>
      <trkpt lat="48.73384" lon="1.77072">
        <ele>225.6</ele>
        <time>2026-03-26T09:48:14.000Z</time>
      </trkpt>
      <trkpt lat="48.73384" lon="1.77072">
        <ele>225.6</ele>
        <time>2026-03-26T09:48:15.000Z</time>
      </trkpt>
      <trkpt lat="48.73384" lon="1.77072">
        <ele>225.6</ele>
        <time>2026-03-26T09:48:16.000Z</time>
      </trkpt>
      <trkpt lat="48.73384" lon="1.77072">
        <ele>225.6</ele>
        <time>2026-03-26T09:48:17.000Z</time>
      </trkpt>
      <trkpt lat="48.73383" lon="1.77072">
        <ele>225.5</ele>
        <time>2026-03-26T09:48:18.000Z</time>
      </trkpt>
      <trkpt lat="48.73383" lon="1.77073">
        <ele>225.2</ele>
        <time>2026-03-26T09:48:19.000Z</time>
      </trkpt>
      <trkpt lat="48.73383" lon="1.77072">
        <ele>225.2</ele>
        <time>2026-03-26T09:48:20.000Z</time>
      </trkpt>
      <trkpt lat="48.73383" lon="1.77072">
        <ele>225.2</ele>
        <time>2026-03-26T09:48:21.000Z</time>
      </trkpt>
      <trkpt lat="48.73383" lon="1.77072">
        <ele>224.8</ele>
        <time>2026-03-26T09:48:22.000Z</time>
      </trkpt>
      <trkpt lat="48.73383" lon="1.77072">
        <ele>224.7</ele>
        <time>2026-03-26T09:48:23.000Z</time>
      </trkpt>
      <trkpt lat="48.73383" lon="1.77072">
        <ele>224.7</ele>
        <time>2026-03-26T09:48:24.000Z</time>
      </trkpt>
      <trkpt lat="48.73383" lon="1.77072">
        <ele>224.7</ele>
        <time>2026-03-26T09:48:25.000Z</time>
      </trkpt>
      <trkpt lat="48.73383" lon="1.77072">
        <ele>224.7</ele>
        <time>2026-03-26T09:48:26.000Z</time>
      </trkpt>
      <trkpt lat="48.73383" lon="1.77072">
        <ele>224.7</ele>
        <time>2026-03-26T09:48:27.000Z</time>
      </trkpt>
      <trkpt lat="48.73383" lon="1.77072">
        <ele>224.7</ele>
        <time>2026-03-26T09:48:28.000Z</time>
      </trkpt>
      <trkpt lat="48.73383" lon="1.77072">
        <ele>224.6</ele>
        <time>2026-03-26T09:48:29.000Z</time>
      </trkpt>
      <trkpt lat="48.73383" lon="1.77072">
        <ele>224.6</ele>
        <time>2026-03-26T09:48:30.000Z</time>
      </trkpt>
      <trkpt lat="48.73383" lon="1.77072">
        <ele>224.6</ele>
        <time>2026-03-26T09:48:31.000Z</time>
      </trkpt>
      <trkpt lat="48.73383" lon="1.77072">
        <ele>224.6</ele>
        <time>2026-03-26T09:48:32.000Z</time>
      </trkpt>
      <trkpt lat="48.73383" lon="1.77072">
        <ele>224.6</ele>
        <time>2026-03-26T09:48:33.000Z</time>
      </trkpt>
      <trkpt lat="48.73383" lon="1.77072">
        <ele>224.6</ele>
        <time>2026-03-26T09:48:34.000Z</time>
      </trkpt>
      <trkpt lat="48.73383" lon="1.77072">
        <ele>224.6</ele>
        <time>2026-03-26T09:48:35.000Z</time>
      </trkpt>
      <trkpt lat="48.73383" lon="1.77072">
        <ele>224.6</ele>
        <time>2026-03-26T09:48:36.000Z</time>
      </trkpt>
      <trkpt lat="48.73383" lon="1.77072">
        <ele>224.2</ele>
        <time>2026-03-26T09:48:37.000Z</time>
      </trkpt>
      <trkpt lat="48.73382" lon="1.77073">
        <ele>223.7</ele>
        <time>2026-03-26T09:48:38.000Z</time>
      </trkpt>
      <trkpt lat="48.73381" lon="1.77075">
        <ele>223.6</ele>
        <time>2026-03-26T09:48:39.000Z</time>
      </trkpt>
      <trkpt lat="48.73381" lon="1.77076">
        <ele>223.4</ele>
        <time>2026-03-26T09:48:40.000Z</time>
      </trkpt>
      <trkpt lat="48.7338" lon="1.77077">
        <ele>223.1</ele>
        <time>2026-03-26T09:48:41.000Z</time>
      </trkpt>
      <trkpt lat="48.73379" lon="1.77077">
        <ele>223.3</ele>
        <time>2026-03-26T09:48:42.000Z</time>
      </trkpt>
      <trkpt lat="48.73378" lon="1.77077">
        <ele>223.1</ele>
        <time>2026-03-26T09:48:43.000Z</time>
      </trkpt>
      <trkpt lat="48.73377" lon="1.77078">
        <ele>223.3</ele>
        <time>2026-03-26T09:48:44.000Z</time>
      </trkpt>
      <trkpt lat="48.73376" lon="1.77078">
        <ele>223</ele>
        <time>2026-03-26T09:48:45.000Z</time>
      </trkpt>
      <trkpt lat="48.73375" lon="1.77078">
        <ele>223</ele>
        <time>2026-03-26T09:48:46.000Z</time>
      </trkpt>
      <trkpt lat="48.73374" lon="1.77078">
        <ele>222.9</ele>
        <time>2026-03-26T09:48:47.000Z</time>
      </trkpt>
      <trkpt lat="48.73373" lon="1.77077">
        <ele>223.3</ele>
        <time>2026-03-26T09:48:48.000Z</time>
      </trkpt>
      <trkpt lat="48.73372" lon="1.77075">
        <ele>222.7</ele>
        <time>2026-03-26T09:48:49.000Z</time>
      </trkpt>
      <trkpt lat="48.73371" lon="1.77075">
        <ele>222.3</ele>
        <time>2026-03-26T09:48:50.000Z</time>
      </trkpt>
      <trkpt lat="48.73371" lon="1.77076">
        <ele>222.2</ele>
        <time>2026-03-26T09:48:51.000Z</time>
      </trkpt>
      <trkpt lat="48.7337" lon="1.77077">
        <ele>221.1</ele>
        <time>2026-03-26T09:48:52.000Z</time>
      </trkpt>
      <trkpt lat="48.7337" lon="1.77079">
        <ele>220.4</ele>
        <time>2026-03-26T09:48:53.000Z</time>
      </trkpt>
      <trkpt lat="48.7337" lon="1.77081">
        <ele>220.2</ele>
        <time>2026-03-26T09:48:54.000Z</time>
      </trkpt>
      <trkpt lat="48.7337" lon="1.77083">
        <ele>220.4</ele>
        <time>2026-03-26T09:48:55.000Z</time>
      </trkpt>
      <trkpt lat="48.73369" lon="1.77084">
        <ele>220.6</ele>
        <time>2026-03-26T09:48:56.000Z</time>
      </trkpt>
      <trkpt lat="48.73369" lon="1.77086">
        <ele>220.7</ele>
        <time>2026-03-26T09:48:57.000Z</time>
      </trkpt>
      <trkpt lat="48.73368" lon="1.77087">
        <ele>220.7</ele>
        <time>2026-03-26T09:48:58.000Z</time>
      </trkpt>
      <trkpt lat="48.73367" lon="1.77088">
        <ele>220.9</ele>
        <time>2026-03-26T09:48:59.000Z</time>
      </trkpt>
      <trkpt lat="48.73367" lon="1.7709">
        <ele>220.7</ele>
        <time>2026-03-26T09:49:00.000Z</time>
      </trkpt>
      <trkpt lat="48.73366" lon="1.77091">
        <ele>221</ele>
        <time>2026-03-26T09:49:01.000Z</time>
      </trkpt>
      <trkpt lat="48.73366" lon="1.77093">
        <ele>221.4</ele>
        <time>2026-03-26T09:49:02.000Z</time>
      </trkpt>
      <trkpt lat="48.73365" lon="1.77094">
        <ele>222</ele>
        <time>2026-03-26T09:49:03.000Z</time>
      </trkpt>
      <trkpt lat="48.73364" lon="1.77096">
        <ele>222.6</ele>
        <time>2026-03-26T09:49:04.000Z</time>
      </trkpt>
      <trkpt lat="48.73364" lon="1.77097">
        <ele>223.1</ele>
        <time>2026-03-26T09:49:05.000Z</time>
      </trkpt>
      <trkpt lat="48.73363" lon="1.77098">
        <ele>223.4</ele>
        <time>2026-03-26T09:49:06.000Z</time>
      </trkpt>
      <trkpt lat="48.73363" lon="1.77098">
        <ele>223.3</ele>
        <time>2026-03-26T09:49:07.000Z</time>
      </trkpt>
      <trkpt lat="48.73362" lon="1.77099">
        <ele>223.9</ele>
        <time>2026-03-26T09:49:08.000Z</time>
      </trkpt>
      <trkpt lat="48.73362" lon="1.77101">
        <ele>224.1</ele>
        <time>2026-03-26T09:49:09.000Z</time>
      </trkpt>
      <trkpt lat="48.73363" lon="1.77102">
        <ele>224.4</ele>
        <time>2026-03-26T09:49:10.000Z</time>
      </trkpt>
      <trkpt lat="48.73363" lon="1.77104">
        <ele>224.2</ele>
        <time>2026-03-26T09:49:11.000Z</time>
      </trkpt>
      <trkpt lat="48.73363" lon="1.77106">
        <ele>224.4</ele>
        <time>2026-03-26T09:49:12.000Z</time>
      </trkpt>
      <trkpt lat="48.73362" lon="1.77107">
        <ele>224.2</ele>
        <time>2026-03-26T09:49:13.000Z</time>
      </trkpt>
      <trkpt lat="48.73362" lon="1.77109">
        <ele>224.5</ele>
        <time>2026-03-26T09:49:14.000Z</time>
      </trkpt>
      <trkpt lat="48.73361" lon="1.7711">
        <ele>224.3</ele>
        <time>2026-03-26T09:49:15.000Z</time>
      </trkpt>
      <trkpt lat="48.7336" lon="1.77111">
        <ele>224.2</ele>
        <time>2026-03-26T09:49:16.000Z</time>
      </trkpt>
      <trkpt lat="48.7336" lon="1.77113">
        <ele>224.5</ele>
        <time>2026-03-26T09:49:17.000Z</time>
      </trkpt>
      <trkpt lat="48.73359" lon="1.77114">
        <ele>224.6</ele>
        <time>2026-03-26T09:49:18.000Z</time>
      </trkpt>
      <trkpt lat="48.73358" lon="1.77116">
        <ele>224.6</ele>
        <time>2026-03-26T09:49:19.000Z</time>
      </trkpt>
      <trkpt lat="48.73358" lon="1.77117">
        <ele>224.7</ele>
        <time>2026-03-26T09:49:20.000Z</time>
      </trkpt>
      <trkpt lat="48.73357" lon="1.77118">
        <ele>224.9</ele>
        <time>2026-03-26T09:49:21.000Z</time>
      </trkpt>
      <trkpt lat="48.73356" lon="1.7712">
        <ele>224.9</ele>
        <time>2026-03-26T09:49:22.000Z</time>
      </trkpt>
      <trkpt lat="48.73355" lon="1.77121">
        <ele>225.2</ele>
        <time>2026-03-26T09:49:23.000Z</time>
      </trkpt>
      <trkpt lat="48.73355" lon="1.77123">
        <ele>225.3</ele>
        <time>2026-03-26T09:49:24.000Z</time>
      </trkpt>
      <trkpt lat="48.73354" lon="1.77124">
        <ele>225</ele>
        <time>2026-03-26T09:49:25.000Z</time>
      </trkpt>
      <trkpt lat="48.73353" lon="1.77125">
        <ele>225.2</ele>
        <time>2026-03-26T09:49:26.000Z</time>
      </trkpt>
      <trkpt lat="48.73353" lon="1.77127">
        <ele>224.8</ele>
        <time>2026-03-26T09:49:27.000Z</time>
      </trkpt>
      <trkpt lat="48.73352" lon="1.77128">
        <ele>224.5</ele>
        <time>2026-03-26T09:49:28.000Z</time>
      </trkpt>
      <trkpt lat="48.73351" lon="1.7713">
        <ele>224.5</ele>
        <time>2026-03-26T09:49:29.000Z</time>
      </trkpt>
      <trkpt lat="48.73351" lon="1.77132">
        <ele>224.5</ele>
        <time>2026-03-26T09:49:30.000Z</time>
      </trkpt>
      <trkpt lat="48.7335" lon="1.77133">
        <ele>224.4</ele>
        <time>2026-03-26T09:49:31.000Z</time>
      </trkpt>
      <trkpt lat="48.73349" lon="1.77135">
        <ele>224</ele>
        <time>2026-03-26T09:49:32.000Z</time>
      </trkpt>
      <trkpt lat="48.73348" lon="1.77136">
        <ele>224.1</ele>
        <time>2026-03-26T09:49:33.000Z</time>
      </trkpt>
      <trkpt lat="48.73347" lon="1.77138">
        <ele>224.4</ele>
        <time>2026-03-26T09:49:34.000Z</time>
      </trkpt>
      <trkpt lat="48.73347" lon="1.77139">
        <ele>224.4</ele>
        <time>2026-03-26T09:49:35.000Z</time>
      </trkpt>
      <trkpt lat="48.73346" lon="1.77141">
        <ele>224.6</ele>
        <time>2026-03-26T09:49:36.000Z</time>
      </trkpt>
      <trkpt lat="48.73346" lon="1.77143">
        <ele>224.4</ele>
        <time>2026-03-26T09:49:37.000Z</time>
      </trkpt>
      <trkpt lat="48.73345" lon="1.77145">
        <ele>224.6</ele>
        <time>2026-03-26T09:49:38.000Z</time>
      </trkpt>
      <trkpt lat="48.73344" lon="1.77147">
        <ele>224.8</ele>
        <time>2026-03-26T09:49:39.000Z</time>
      </trkpt>
      <trkpt lat="48.73344" lon="1.7715">
        <ele>225</ele>
        <time>2026-03-26T09:49:40.000Z</time>
      </trkpt>
      <trkpt lat="48.73344" lon="1.77152">
        <ele>224.7</ele>
        <time>2026-03-26T09:49:41.000Z</time>
      </trkpt>
      <trkpt lat="48.73343" lon="1.77154">
        <ele>225</ele>
        <time>2026-03-26T09:49:42.000Z</time>
      </trkpt>
      <trkpt lat="48.73343" lon="1.77156">
        <ele>224.7</ele>
        <time>2026-03-26T09:49:43.000Z</time>
      </trkpt>
      <trkpt lat="48.73342" lon="1.77158">
        <ele>225.2</ele>
        <time>2026-03-26T09:49:44.000Z</time>
      </trkpt>
      <trkpt lat="48.73341" lon="1.77159">
        <ele>224.7</ele>
        <time>2026-03-26T09:49:45.000Z</time>
      </trkpt>
      <trkpt lat="48.73341" lon="1.77161">
        <ele>224.5</ele>
        <time>2026-03-26T09:49:46.000Z</time>
      </trkpt>
      <trkpt lat="48.7334" lon="1.77163">
        <ele>224.3</ele>
        <time>2026-03-26T09:49:47.000Z</time>
      </trkpt>
      <trkpt lat="48.7334" lon="1.77165">
        <ele>224.5</ele>
        <time>2026-03-26T09:49:48.000Z</time>
      </trkpt>
      <trkpt lat="48.73339" lon="1.77167">
        <ele>224.7</ele>
        <time>2026-03-26T09:49:49.000Z</time>
      </trkpt>
      <trkpt lat="48.73338" lon="1.77169">
        <ele>224.5</ele>
        <time>2026-03-26T09:49:50.000Z</time>
      </trkpt>
      <trkpt lat="48.73338" lon="1.77171">
        <ele>225.1</ele>
        <time>2026-03-26T09:49:51.000Z</time>
      </trkpt>
      <trkpt lat="48.73337" lon="1.77173">
        <ele>224.8</ele>
        <time>2026-03-26T09:49:52.000Z</time>
      </trkpt>
      <trkpt lat="48.73336" lon="1.77174">
        <ele>224.4</ele>
        <time>2026-03-26T09:49:53.000Z</time>
      </trkpt>
      <trkpt lat="48.73335" lon="1.77175">
        <ele>224.5</ele>
        <time>2026-03-26T09:49:54.000Z</time>
      </trkpt>
      <trkpt lat="48.73334" lon="1.77177">
        <ele>224.8</ele>
        <time>2026-03-26T09:49:55.000Z</time>
      </trkpt>
      <trkpt lat="48.73333" lon="1.77179">
        <ele>224.8</ele>
        <time>2026-03-26T09:49:56.000Z</time>
      </trkpt>
      <trkpt lat="48.73332" lon="1.7718">
        <ele>224.7</ele>
        <time>2026-03-26T09:49:57.000Z</time>
      </trkpt>
      <trkpt lat="48.73331" lon="1.77182">
        <ele>224.9</ele>
        <time>2026-03-26T09:49:58.000Z</time>
      </trkpt>
      <trkpt lat="48.7333" lon="1.77183">
        <ele>224.8</ele>
        <time>2026-03-26T09:49:59.000Z</time>
      </trkpt>
      <trkpt lat="48.73329" lon="1.77185">
        <ele>224.5</ele>
        <time>2026-03-26T09:50:00.000Z</time>
      </trkpt>
      <trkpt lat="48.73329" lon="1.77187">
        <ele>224.6</ele>
        <time>2026-03-26T09:50:01.000Z</time>
      </trkpt>
      <trkpt lat="48.73328" lon="1.77188">
        <ele>224.5</ele>
        <time>2026-03-26T09:50:02.000Z</time>
      </trkpt>
      <trkpt lat="48.73327" lon="1.7719">
        <ele>224.8</ele>
        <time>2026-03-26T09:50:03.000Z</time>
      </trkpt>
      <trkpt lat="48.73326" lon="1.77191">
        <ele>224.8</ele>
        <time>2026-03-26T09:50:04.000Z</time>
      </trkpt>
      <trkpt lat="48.73326" lon="1.77192">
        <ele>225</ele>
        <time>2026-03-26T09:50:05.000Z</time>
      </trkpt>
      <trkpt lat="48.73325" lon="1.77194">
        <ele>225</ele>
        <time>2026-03-26T09:50:06.000Z</time>
      </trkpt>
      <trkpt lat="48.73324" lon="1.77195">
        <ele>225.6</ele>
        <time>2026-03-26T09:50:07.000Z</time>
      </trkpt>
      <trkpt lat="48.73323" lon="1.77197">
        <ele>225.7</ele>
        <time>2026-03-26T09:50:08.000Z</time>
      </trkpt>
      <trkpt lat="48.73323" lon="1.77198">
        <ele>225.5</ele>
        <time>2026-03-26T09:50:09.000Z</time>
      </trkpt>
      <trkpt lat="48.73323" lon="1.772">
        <ele>225.5</ele>
        <time>2026-03-26T09:50:10.000Z</time>
      </trkpt>
      <trkpt lat="48.73322" lon="1.77202">
        <ele>225</ele>
        <time>2026-03-26T09:50:11.000Z</time>
      </trkpt>
      <trkpt lat="48.73322" lon="1.77204">
        <ele>225.4</ele>
        <time>2026-03-26T09:50:12.000Z</time>
      </trkpt>
      <trkpt lat="48.73322" lon="1.77206">
        <ele>225.2</ele>
        <time>2026-03-26T09:50:13.000Z</time>
      </trkpt>
      <trkpt lat="48.73322" lon="1.77209">
        <ele>225.2</ele>
        <time>2026-03-26T09:50:14.000Z</time>
      </trkpt>
      <trkpt lat="48.73323" lon="1.77211">
        <ele>225.6</ele>
        <time>2026-03-26T09:50:15.000Z</time>
      </trkpt>
      <trkpt lat="48.73323" lon="1.77213">
        <ele>225.3</ele>
        <time>2026-03-26T09:50:16.000Z</time>
      </trkpt>
      <trkpt lat="48.73324" lon="1.77214">
        <ele>225.5</ele>
        <time>2026-03-26T09:50:17.000Z</time>
      </trkpt>
      <trkpt lat="48.73323" lon="1.77216">
        <ele>225.7</ele>
        <time>2026-03-26T09:50:18.000Z</time>
      </trkpt>
      <trkpt lat="48.73323" lon="1.77218">
        <ele>225.3</ele>
        <time>2026-03-26T09:50:19.000Z</time>
      </trkpt>
      <trkpt lat="48.73322" lon="1.7722">
        <ele>225.3</ele>
        <time>2026-03-26T09:50:20.000Z</time>
      </trkpt>
      <trkpt lat="48.73321" lon="1.77222">
        <ele>225</ele>
        <time>2026-03-26T09:50:21.000Z</time>
      </trkpt>
      <trkpt lat="48.7332" lon="1.77223">
        <ele>224.9</ele>
        <time>2026-03-26T09:50:22.000Z</time>
      </trkpt>
      <trkpt lat="48.73319" lon="1.77225">
        <ele>225</ele>
        <time>2026-03-26T09:50:23.000Z</time>
      </trkpt>
      <trkpt lat="48.73319" lon="1.77227">
        <ele>225.2</ele>
        <time>2026-03-26T09:50:24.000Z</time>
      </trkpt>
      <trkpt lat="48.73318" lon="1.77229">
        <ele>225.3</ele>
        <time>2026-03-26T09:50:25.000Z</time>
      </trkpt>
      <trkpt lat="48.73317" lon="1.77231">
        <ele>225.3</ele>
        <time>2026-03-26T09:50:26.000Z</time>
      </trkpt>
      <trkpt lat="48.73317" lon="1.77233">
        <ele>225.3</ele>
        <time>2026-03-26T09:50:27.000Z</time>
      </trkpt>
      <trkpt lat="48.73316" lon="1.77235">
        <ele>225</ele>
        <time>2026-03-26T09:50:28.000Z</time>
      </trkpt>
      <trkpt lat="48.73316" lon="1.77236">
        <ele>225.1</ele>
        <time>2026-03-26T09:50:29.000Z</time>
      </trkpt>
      <trkpt lat="48.73315" lon="1.77238">
        <ele>224.6</ele>
        <time>2026-03-26T09:50:30.000Z</time>
      </trkpt>
      <trkpt lat="48.73315" lon="1.7724">
        <ele>224.9</ele>
        <time>2026-03-26T09:50:31.000Z</time>
      </trkpt>
      <trkpt lat="48.73315" lon="1.77242">
        <ele>224.8</ele>
        <time>2026-03-26T09:50:32.000Z</time>
      </trkpt>
      <trkpt lat="48.73314" lon="1.77244">
        <ele>224.7</ele>
        <time>2026-03-26T09:50:33.000Z</time>
      </trkpt>
      <trkpt lat="48.73314" lon="1.77246">
        <ele>224.5</ele>
        <time>2026-03-26T09:50:34.000Z</time>
      </trkpt>
      <trkpt lat="48.73313" lon="1.77248">
        <ele>224.5</ele>
        <time>2026-03-26T09:50:35.000Z</time>
      </trkpt>
      <trkpt lat="48.73313" lon="1.7725">
        <ele>224.9</ele>
        <time>2026-03-26T09:50:36.000Z</time>
      </trkpt>
      <trkpt lat="48.73312" lon="1.77252">
        <ele>224.8</ele>
        <time>2026-03-26T09:50:37.000Z</time>
      </trkpt>
      <trkpt lat="48.73312" lon="1.77254">
        <ele>225</ele>
        <time>2026-03-26T09:50:38.000Z</time>
      </trkpt>
      <trkpt lat="48.73311" lon="1.77256">
        <ele>225.2</ele>
        <time>2026-03-26T09:50:39.000Z</time>
      </trkpt>
      <trkpt lat="48.73311" lon="1.77258">
        <ele>225.3</ele>
        <time>2026-03-26T09:50:40.000Z</time>
      </trkpt>
      <trkpt lat="48.7331" lon="1.7726">
        <ele>225.5</ele>
        <time>2026-03-26T09:50:41.000Z</time>
      </trkpt>
      <trkpt lat="48.7331" lon="1.77262">
        <ele>226.1</ele>
        <time>2026-03-26T09:50:42.000Z</time>
      </trkpt>
      <trkpt lat="48.7331" lon="1.77264">
        <ele>226.2</ele>
        <time>2026-03-26T09:50:43.000Z</time>
      </trkpt>
      <trkpt lat="48.7331" lon="1.77266">
        <ele>225.9</ele>
        <time>2026-03-26T09:50:44.000Z</time>
      </trkpt>
      <trkpt lat="48.7331" lon="1.77268">
        <ele>226.2</ele>
        <time>2026-03-26T09:50:45.000Z</time>
      </trkpt>
      <trkpt lat="48.73309" lon="1.77271">
        <ele>226.6</ele>
        <time>2026-03-26T09:50:46.000Z</time>
      </trkpt>
      <trkpt lat="48.73309" lon="1.77272">
        <ele>226.9</ele>
        <time>2026-03-26T09:50:47.000Z</time>
      </trkpt>
      <trkpt lat="48.73308" lon="1.77274">
        <ele>226.6</ele>
        <time>2026-03-26T09:50:48.000Z</time>
      </trkpt>
      <trkpt lat="48.73308" lon="1.77276">
        <ele>226.7</ele>
        <time>2026-03-26T09:50:49.000Z</time>
      </trkpt>
      <trkpt lat="48.73307" lon="1.77278">
        <ele>226.3</ele>
        <time>2026-03-26T09:50:50.000Z</time>
      </trkpt>
      <trkpt lat="48.73307" lon="1.7728">
        <ele>226.2</ele>
        <time>2026-03-26T09:50:51.000Z</time>
      </trkpt>
      <trkpt lat="48.73306" lon="1.77282">
        <ele>226.3</ele>
        <time>2026-03-26T09:50:52.000Z</time>
      </trkpt>
      <trkpt lat="48.73306" lon="1.77284">
        <ele>226.2</ele>
        <time>2026-03-26T09:50:53.000Z</time>
      </trkpt>
      <trkpt lat="48.73305" lon="1.77285">
        <ele>226.1</ele>
        <time>2026-03-26T09:50:54.000Z</time>
      </trkpt>
      <trkpt lat="48.73305" lon="1.77287">
        <ele>225.5</ele>
        <time>2026-03-26T09:50:55.000Z</time>
      </trkpt>
      <trkpt lat="48.73304" lon="1.77289">
        <ele>225.9</ele>
        <time>2026-03-26T09:50:56.000Z</time>
      </trkpt>
      <trkpt lat="48.73304" lon="1.77291">
        <ele>225.4</ele>
        <time>2026-03-26T09:50:57.000Z</time>
      </trkpt>
      <trkpt lat="48.73303" lon="1.77293">
        <ele>225.7</ele>
        <time>2026-03-26T09:50:58.000Z</time>
      </trkpt>
      <trkpt lat="48.73303" lon="1.77295">
        <ele>225.6</ele>
        <time>2026-03-26T09:50:59.000Z</time>
      </trkpt>
      <trkpt lat="48.73303" lon="1.77298">
        <ele>225.5</ele>
        <time>2026-03-26T09:51:00.000Z</time>
      </trkpt>
      <trkpt lat="48.73302" lon="1.773">
        <ele>225.4</ele>
        <time>2026-03-26T09:51:01.000Z</time>
      </trkpt>
      <trkpt lat="48.73302" lon="1.77302">
        <ele>225.1</ele>
        <time>2026-03-26T09:51:02.000Z</time>
      </trkpt>
      <trkpt lat="48.73301" lon="1.77305">
        <ele>225.7</ele>
        <time>2026-03-26T09:51:03.000Z</time>
      </trkpt>
      <trkpt lat="48.73301" lon="1.77307">
        <ele>225.8</ele>
        <time>2026-03-26T09:51:04.000Z</time>
      </trkpt>
      <trkpt lat="48.73301" lon="1.77309">
        <ele>226.1</ele>
        <time>2026-03-26T09:51:05.000Z</time>
      </trkpt>
      <trkpt lat="48.733" lon="1.77311">
        <ele>226.3</ele>
        <time>2026-03-26T09:51:06.000Z</time>
      </trkpt>
      <trkpt lat="48.733" lon="1.77313">
        <ele>226.3</ele>
        <time>2026-03-26T09:51:07.000Z</time>
      </trkpt>
      <trkpt lat="48.73299" lon="1.77315">
        <ele>226.2</ele>
        <time>2026-03-26T09:51:08.000Z</time>
      </trkpt>
      <trkpt lat="48.73299" lon="1.77317">
        <ele>225.8</ele>
        <time>2026-03-26T09:51:09.000Z</time>
      </trkpt>
      <trkpt lat="48.73298" lon="1.77319">
        <ele>225.7</ele>
        <time>2026-03-26T09:51:10.000Z</time>
      </trkpt>
      <trkpt lat="48.73298" lon="1.77321">
        <ele>226.6</ele>
        <time>2026-03-26T09:51:11.000Z</time>
      </trkpt>
      <trkpt lat="48.73298" lon="1.77324">
        <ele>226.1</ele>
        <time>2026-03-26T09:51:12.000Z</time>
      </trkpt>
      <trkpt lat="48.73297" lon="1.77326">
        <ele>226.3</ele>
        <time>2026-03-26T09:51:13.000Z</time>
      </trkpt>
      <trkpt lat="48.73297" lon="1.77328">
        <ele>226.3</ele>
        <time>2026-03-26T09:51:14.000Z</time>
      </trkpt>
      <trkpt lat="48.73296" lon="1.7733">
        <ele>227.1</ele>
        <time>2026-03-26T09:51:15.000Z</time>
      </trkpt>
      <trkpt lat="48.73296" lon="1.77333">
        <ele>227.4</ele>
        <time>2026-03-26T09:51:16.000Z</time>
      </trkpt>
      <trkpt lat="48.73296" lon="1.77335">
        <ele>227.6</ele>
        <time>2026-03-26T09:51:17.000Z</time>
      </trkpt>
      <trkpt lat="48.73295" lon="1.77337">
        <ele>227.6</ele>
        <time>2026-03-26T09:51:18.000Z</time>
      </trkpt>
      <trkpt lat="48.73295" lon="1.77339">
        <ele>227.2</ele>
        <time>2026-03-26T09:51:19.000Z</time>
      </trkpt>
      <trkpt lat="48.73294" lon="1.77341">
        <ele>227.4</ele>
        <time>2026-03-26T09:51:20.000Z</time>
      </trkpt>
      <trkpt lat="48.73294" lon="1.77343">
        <ele>227.4</ele>
        <time>2026-03-26T09:51:21.000Z</time>
      </trkpt>
      <trkpt lat="48.73293" lon="1.77345">
        <ele>227.2</ele>
        <time>2026-03-26T09:51:22.000Z</time>
      </trkpt>
      <trkpt lat="48.73293" lon="1.77347">
        <ele>226.7</ele>
        <time>2026-03-26T09:51:23.000Z</time>
      </trkpt>
      <trkpt lat="48.73292" lon="1.77349">
        <ele>226.7</ele>
        <time>2026-03-26T09:51:24.000Z</time>
      </trkpt>
      <trkpt lat="48.73292" lon="1.77351">
        <ele>226.9</ele>
        <time>2026-03-26T09:51:25.000Z</time>
      </trkpt>
      <trkpt lat="48.73291" lon="1.77353">
        <ele>226.5</ele>
        <time>2026-03-26T09:51:26.000Z</time>
      </trkpt>
      <trkpt lat="48.73291" lon="1.77355">
        <ele>226</ele>
        <time>2026-03-26T09:51:27.000Z</time>
      </trkpt>
      <trkpt lat="48.7329" lon="1.77358">
        <ele>226</ele>
        <time>2026-03-26T09:51:28.000Z</time>
      </trkpt>
      <trkpt lat="48.7329" lon="1.7736">
        <ele>226.3</ele>
        <time>2026-03-26T09:51:29.000Z</time>
      </trkpt>
      <trkpt lat="48.7329" lon="1.77362">
        <ele>226.3</ele>
        <time>2026-03-26T09:51:30.000Z</time>
      </trkpt>
      <trkpt lat="48.73289" lon="1.77364">
        <ele>226.6</ele>
        <time>2026-03-26T09:51:31.000Z</time>
      </trkpt>
      <trkpt lat="48.73289" lon="1.77365">
        <ele>226.7</ele>
        <time>2026-03-26T09:51:32.000Z</time>
      </trkpt>
      <trkpt lat="48.73289" lon="1.77367">
        <ele>226.9</ele>
        <time>2026-03-26T09:51:33.000Z</time>
      </trkpt>
      <trkpt lat="48.73288" lon="1.77369">
        <ele>226.4</ele>
        <time>2026-03-26T09:51:34.000Z</time>
      </trkpt>
      <trkpt lat="48.73288" lon="1.77371">
        <ele>226.6</ele>
        <time>2026-03-26T09:51:35.000Z</time>
      </trkpt>
      <trkpt lat="48.73288" lon="1.77373">
        <ele>226.1</ele>
        <time>2026-03-26T09:51:36.000Z</time>
      </trkpt>
      <trkpt lat="48.73287" lon="1.77375">
        <ele>226.4</ele>
        <time>2026-03-26T09:51:37.000Z</time>
      </trkpt>
      <trkpt lat="48.73287" lon="1.77377">
        <ele>225.7</ele>
        <time>2026-03-26T09:51:38.000Z</time>
      </trkpt>
      <trkpt lat="48.73286" lon="1.77379">
        <ele>225.2</ele>
        <time>2026-03-26T09:51:39.000Z</time>
      </trkpt>
      <trkpt lat="48.73286" lon="1.77381">
        <ele>225.1</ele>
        <time>2026-03-26T09:51:40.000Z</time>
      </trkpt>
      <trkpt lat="48.73286" lon="1.77384">
        <ele>225.8</ele>
        <time>2026-03-26T09:51:41.000Z</time>
      </trkpt>
      <trkpt lat="48.73285" lon="1.77386">
        <ele>225.3</ele>
        <time>2026-03-26T09:51:42.000Z</time>
      </trkpt>
      <trkpt lat="48.73285" lon="1.77388">
        <ele>225.5</ele>
        <time>2026-03-26T09:51:43.000Z</time>
      </trkpt>
      <trkpt lat="48.73285" lon="1.7739">
        <ele>225.9</ele>
        <time>2026-03-26T09:51:44.000Z</time>
      </trkpt>
      <trkpt lat="48.73284" lon="1.77393">
        <ele>226</ele>
        <time>2026-03-26T09:51:45.000Z</time>
      </trkpt>
      <trkpt lat="48.73283" lon="1.77395">
        <ele>226.1</ele>
        <time>2026-03-26T09:51:46.000Z</time>
      </trkpt>
      <trkpt lat="48.73283" lon="1.77397">
        <ele>226.6</ele>
        <time>2026-03-26T09:51:47.000Z</time>
      </trkpt>
      <trkpt lat="48.73283" lon="1.774">
        <ele>226.5</ele>
        <time>2026-03-26T09:51:48.000Z</time>
      </trkpt>
      <trkpt lat="48.73282" lon="1.77402">
        <ele>226.6</ele>
        <time>2026-03-26T09:51:49.000Z</time>
      </trkpt>
      <trkpt lat="48.73282" lon="1.77404">
        <ele>226.8</ele>
        <time>2026-03-26T09:51:50.000Z</time>
      </trkpt>
      <trkpt lat="48.73281" lon="1.77406">
        <ele>226.8</ele>
        <time>2026-03-26T09:51:51.000Z</time>
      </trkpt>
      <trkpt lat="48.73281" lon="1.77408">
        <ele>227</ele>
        <time>2026-03-26T09:51:52.000Z</time>
      </trkpt>
      <trkpt lat="48.7328" lon="1.7741">
        <ele>227.3</ele>
        <time>2026-03-26T09:51:53.000Z</time>
      </trkpt>
      <trkpt lat="48.7328" lon="1.77412">
        <ele>227.3</ele>
        <time>2026-03-26T09:51:54.000Z</time>
      </trkpt>
      <trkpt lat="48.7328" lon="1.77414">
        <ele>227.1</ele>
        <time>2026-03-26T09:51:55.000Z</time>
      </trkpt>
      <trkpt lat="48.73279" lon="1.77416">
        <ele>227.2</ele>
        <time>2026-03-26T09:51:56.000Z</time>
      </trkpt>
      <trkpt lat="48.7328" lon="1.77418">
        <ele>227.5</ele>
        <time>2026-03-26T09:51:57.000Z</time>
      </trkpt>
      <trkpt lat="48.7328" lon="1.7742">
        <ele>227.8</ele>
        <time>2026-03-26T09:51:58.000Z</time>
      </trkpt>
      <trkpt lat="48.7328" lon="1.77422">
        <ele>227.6</ele>
        <time>2026-03-26T09:51:59.000Z</time>
      </trkpt>
      <trkpt lat="48.7328" lon="1.77424">
        <ele>227.6</ele>
        <time>2026-03-26T09:52:00.000Z</time>
      </trkpt>
      <trkpt lat="48.73279" lon="1.77426">
        <ele>227.1</ele>
        <time>2026-03-26T09:52:01.000Z</time>
      </trkpt>
      <trkpt lat="48.73279" lon="1.77427">
        <ele>227</ele>
        <time>2026-03-26T09:52:02.000Z</time>
      </trkpt>
      <trkpt lat="48.73279" lon="1.77429">
        <ele>227.3</ele>
        <time>2026-03-26T09:52:03.000Z</time>
      </trkpt>
      <trkpt lat="48.73278" lon="1.77431">
        <ele>227.3</ele>
        <time>2026-03-26T09:52:04.000Z</time>
      </trkpt>
      <trkpt lat="48.73278" lon="1.77433">
        <ele>227.6</ele>
        <time>2026-03-26T09:52:05.000Z</time>
      </trkpt>
      <trkpt lat="48.73278" lon="1.77434">
        <ele>227.4</ele>
        <time>2026-03-26T09:52:06.000Z</time>
      </trkpt>
      <trkpt lat="48.73277" lon="1.77436">
        <ele>227.4</ele>
        <time>2026-03-26T09:52:07.000Z</time>
      </trkpt>
      <trkpt lat="48.73277" lon="1.77437">
        <ele>227.3</ele>
        <time>2026-03-26T09:52:08.000Z</time>
      </trkpt>
      <trkpt lat="48.73276" lon="1.77439">
        <ele>227.3</ele>
        <time>2026-03-26T09:52:09.000Z</time>
      </trkpt>
      <trkpt lat="48.73276" lon="1.77441">
        <ele>226.9</ele>
        <time>2026-03-26T09:52:10.000Z</time>
      </trkpt>
      <trkpt lat="48.73276" lon="1.77442">
        <ele>227.5</ele>
        <time>2026-03-26T09:52:11.000Z</time>
      </trkpt>
      <trkpt lat="48.73275" lon="1.77444">
        <ele>227.2</ele>
        <time>2026-03-26T09:52:12.000Z</time>
      </trkpt>
      <trkpt lat="48.73275" lon="1.77446">
        <ele>227.1</ele>
        <time>2026-03-26T09:52:13.000Z</time>
      </trkpt>
      <trkpt lat="48.73275" lon="1.77448">
        <ele>227.1</ele>
        <time>2026-03-26T09:52:14.000Z</time>
      </trkpt>
      <trkpt lat="48.73274" lon="1.7745">
        <ele>227.4</ele>
        <time>2026-03-26T09:52:15.000Z</time>
      </trkpt>
      <trkpt lat="48.73273" lon="1.77451">
        <ele>226.8</ele>
        <time>2026-03-26T09:52:16.000Z</time>
      </trkpt>
      <trkpt lat="48.73273" lon="1.77453">
        <ele>227</ele>
        <time>2026-03-26T09:52:17.000Z</time>
      </trkpt>
      <trkpt lat="48.73273" lon="1.77455">
        <ele>227.3</ele>
        <time>2026-03-26T09:52:18.000Z</time>
      </trkpt>
      <trkpt lat="48.73273" lon="1.77456">
        <ele>227.2</ele>
        <time>2026-03-26T09:52:19.000Z</time>
      </trkpt>
      <trkpt lat="48.73273" lon="1.77458">
        <ele>227.4</ele>
        <time>2026-03-26T09:52:20.000Z</time>
      </trkpt>
      <trkpt lat="48.73273" lon="1.7746">
        <ele>227.3</ele>
        <time>2026-03-26T09:52:21.000Z</time>
      </trkpt>
      <trkpt lat="48.73272" lon="1.77462">
        <ele>227.3</ele>
        <time>2026-03-26T09:52:22.000Z</time>
      </trkpt>
      <trkpt lat="48.73272" lon="1.77464">
        <ele>227.1</ele>
        <time>2026-03-26T09:52:23.000Z</time>
      </trkpt>
      <trkpt lat="48.73272" lon="1.77467">
        <ele>227.3</ele>
        <time>2026-03-26T09:52:24.000Z</time>
      </trkpt>
      <trkpt lat="48.73272" lon="1.77469">
        <ele>227.2</ele>
        <time>2026-03-26T09:52:25.000Z</time>
      </trkpt>
      <trkpt lat="48.73272" lon="1.77471">
        <ele>227.1</ele>
        <time>2026-03-26T09:52:26.000Z</time>
      </trkpt>
      <trkpt lat="48.73271" lon="1.77473">
        <ele>227.2</ele>
        <time>2026-03-26T09:52:27.000Z</time>
      </trkpt>
      <trkpt lat="48.73271" lon="1.77475">
        <ele>226.9</ele>
        <time>2026-03-26T09:52:28.000Z</time>
      </trkpt>
      <trkpt lat="48.7327" lon="1.77477">
        <ele>226.6</ele>
        <time>2026-03-26T09:52:29.000Z</time>
      </trkpt>
      <trkpt lat="48.7327" lon="1.77479">
        <ele>226.6</ele>
        <time>2026-03-26T09:52:30.000Z</time>
      </trkpt>
      <trkpt lat="48.7327" lon="1.77481">
        <ele>226.2</ele>
        <time>2026-03-26T09:52:31.000Z</time>
      </trkpt>
      <trkpt lat="48.73269" lon="1.77483">
        <ele>226.4</ele>
        <time>2026-03-26T09:52:32.000Z</time>
      </trkpt>
      <trkpt lat="48.73268" lon="1.77484">
        <ele>226.5</ele>
        <time>2026-03-26T09:52:33.000Z</time>
      </trkpt>
      <trkpt lat="48.73268" lon="1.77486">
        <ele>226.5</ele>
        <time>2026-03-26T09:52:34.000Z</time>
      </trkpt>
      <trkpt lat="48.73267" lon="1.77488">
        <ele>226.3</ele>
        <time>2026-03-26T09:52:35.000Z</time>
      </trkpt>
      <trkpt lat="48.73266" lon="1.7749">
        <ele>226.2</ele>
        <time>2026-03-26T09:52:36.000Z</time>
      </trkpt>
      <trkpt lat="48.73266" lon="1.77492">
        <ele>226.6</ele>
        <time>2026-03-26T09:52:37.000Z</time>
      </trkpt>
      <trkpt lat="48.73265" lon="1.77494">
        <ele>226.4</ele>
        <time>2026-03-26T09:52:38.000Z</time>
      </trkpt>
      <trkpt lat="48.73265" lon="1.77496">
        <ele>226.4</ele>
        <time>2026-03-26T09:52:39.000Z</time>
      </trkpt>
      <trkpt lat="48.73264" lon="1.77498">
        <ele>226.9</ele>
        <time>2026-03-26T09:52:40.000Z</time>
      </trkpt>
      <trkpt lat="48.73264" lon="1.775">
        <ele>226.4</ele>
        <time>2026-03-26T09:52:41.000Z</time>
      </trkpt>
      <trkpt lat="48.73263" lon="1.77502">
        <ele>226.2</ele>
        <time>2026-03-26T09:52:42.000Z</time>
      </trkpt>
      <trkpt lat="48.73263" lon="1.77504">
        <ele>226.3</ele>
        <time>2026-03-26T09:52:43.000Z</time>
      </trkpt>
      <trkpt lat="48.73263" lon="1.77507">
        <ele>226.8</ele>
        <time>2026-03-26T09:52:44.000Z</time>
      </trkpt>
      <trkpt lat="48.73263" lon="1.77509">
        <ele>226.6</ele>
        <time>2026-03-26T09:52:45.000Z</time>
      </trkpt>
      <trkpt lat="48.73263" lon="1.77511">
        <ele>226.7</ele>
        <time>2026-03-26T09:52:46.000Z</time>
      </trkpt>
      <trkpt lat="48.73262" lon="1.77513">
        <ele>226.5</ele>
        <time>2026-03-26T09:52:47.000Z</time>
      </trkpt>
      <trkpt lat="48.73262" lon="1.77515">
        <ele>226</ele>
        <time>2026-03-26T09:52:48.000Z</time>
      </trkpt>
      <trkpt lat="48.73262" lon="1.77517">
        <ele>226.2</ele>
        <time>2026-03-26T09:52:49.000Z</time>
      </trkpt>
      <trkpt lat="48.73261" lon="1.77519">
        <ele>226.8</ele>
        <time>2026-03-26T09:52:50.000Z</time>
      </trkpt>
      <trkpt lat="48.73261" lon="1.77521">
        <ele>226.6</ele>
        <time>2026-03-26T09:52:51.000Z</time>
      </trkpt>
      <trkpt lat="48.73261" lon="1.77524">
        <ele>226.7</ele>
        <time>2026-03-26T09:52:52.000Z</time>
      </trkpt>
      <trkpt lat="48.73261" lon="1.77526">
        <ele>227.3</ele>
        <time>2026-03-26T09:52:53.000Z</time>
      </trkpt>
      <trkpt lat="48.73261" lon="1.77528">
        <ele>227.8</ele>
        <time>2026-03-26T09:52:54.000Z</time>
      </trkpt>
      <trkpt lat="48.7326" lon="1.7753">
        <ele>227.8</ele>
        <time>2026-03-26T09:52:55.000Z</time>
      </trkpt>
      <trkpt lat="48.7326" lon="1.77532">
        <ele>227.7</ele>
        <time>2026-03-26T09:52:56.000Z</time>
      </trkpt>
      <trkpt lat="48.73259" lon="1.77534">
        <ele>227.8</ele>
        <time>2026-03-26T09:52:57.000Z</time>
      </trkpt>
      <trkpt lat="48.73258" lon="1.77536">
        <ele>228.5</ele>
        <time>2026-03-26T09:52:58.000Z</time>
      </trkpt>
      <trkpt lat="48.73257" lon="1.77538">
        <ele>228.6</ele>
        <time>2026-03-26T09:52:59.000Z</time>
      </trkpt>
      <trkpt lat="48.73256" lon="1.77539">
        <ele>228.2</ele>
        <time>2026-03-26T09:53:00.000Z</time>
      </trkpt>
      <trkpt lat="48.73256" lon="1.77541">
        <ele>228.3</ele>
        <time>2026-03-26T09:53:01.000Z</time>
      </trkpt>
      <trkpt lat="48.73256" lon="1.77543">
        <ele>227.5</ele>
        <time>2026-03-26T09:53:02.000Z</time>
      </trkpt>
      <trkpt lat="48.73255" lon="1.77545">
        <ele>227.1</ele>
        <time>2026-03-26T09:53:03.000Z</time>
      </trkpt>
      <trkpt lat="48.73255" lon="1.77547">
        <ele>227.2</ele>
        <time>2026-03-26T09:53:04.000Z</time>
      </trkpt>
      <trkpt lat="48.73254" lon="1.77549">
        <ele>227.1</ele>
        <time>2026-03-26T09:53:05.000Z</time>
      </trkpt>
      <trkpt lat="48.73254" lon="1.77551">
        <ele>227</ele>
        <time>2026-03-26T09:53:06.000Z</time>
      </trkpt>
      <trkpt lat="48.73254" lon="1.77553">
        <ele>226.9</ele>
        <time>2026-03-26T09:53:07.000Z</time>
      </trkpt>
      <trkpt lat="48.73253" lon="1.77555">
        <ele>227.2</ele>
        <time>2026-03-26T09:53:08.000Z</time>
      </trkpt>
      <trkpt lat="48.73253" lon="1.77557">
        <ele>227.6</ele>
        <time>2026-03-26T09:53:09.000Z</time>
      </trkpt>
      <trkpt lat="48.73253" lon="1.77559">
        <ele>227.8</ele>
        <time>2026-03-26T09:53:10.000Z</time>
      </trkpt>
      <trkpt lat="48.73253" lon="1.77561">
        <ele>227.9</ele>
        <time>2026-03-26T09:53:11.000Z</time>
      </trkpt>
      <trkpt lat="48.73252" lon="1.77563">
        <ele>228.2</ele>
        <time>2026-03-26T09:53:12.000Z</time>
      </trkpt>
      <trkpt lat="48.73251" lon="1.77564">
        <ele>227.5</ele>
        <time>2026-03-26T09:53:13.000Z</time>
      </trkpt>
      <trkpt lat="48.7325" lon="1.77565">
        <ele>227</ele>
        <time>2026-03-26T09:53:14.000Z</time>
      </trkpt>
      <trkpt lat="48.7325" lon="1.77567">
        <ele>227.1</ele>
        <time>2026-03-26T09:53:15.000Z</time>
      </trkpt>
      <trkpt lat="48.7325" lon="1.77569">
        <ele>226.9</ele>
        <time>2026-03-26T09:53:16.000Z</time>
      </trkpt>
      <trkpt lat="48.73249" lon="1.77571">
        <ele>227.2</ele>
        <time>2026-03-26T09:53:17.000Z</time>
      </trkpt>
      <trkpt lat="48.73249" lon="1.77573">
        <ele>227.1</ele>
        <time>2026-03-26T09:53:18.000Z</time>
      </trkpt>
      <trkpt lat="48.73248" lon="1.77575">
        <ele>226.8</ele>
        <time>2026-03-26T09:53:19.000Z</time>
      </trkpt>
      <trkpt lat="48.73247" lon="1.77576">
        <ele>226.4</ele>
        <time>2026-03-26T09:53:20.000Z</time>
      </trkpt>
      <trkpt lat="48.73247" lon="1.77577">
        <ele>226.6</ele>
        <time>2026-03-26T09:53:21.000Z</time>
      </trkpt>
      <trkpt lat="48.73246" lon="1.77579">
        <ele>226.3</ele>
        <time>2026-03-26T09:53:22.000Z</time>
      </trkpt>
      <trkpt lat="48.73245" lon="1.7758">
        <ele>226.3</ele>
        <time>2026-03-26T09:53:23.000Z</time>
      </trkpt>
      <trkpt lat="48.73245" lon="1.77582">
        <ele>226.6</ele>
        <time>2026-03-26T09:53:24.000Z</time>
      </trkpt>
      <trkpt lat="48.73245" lon="1.77583">
        <ele>226.9</ele>
        <time>2026-03-26T09:53:25.000Z</time>
      </trkpt>
      <trkpt lat="48.73245" lon="1.77585">
        <ele>226.8</ele>
        <time>2026-03-26T09:53:26.000Z</time>
      </trkpt>
      <trkpt lat="48.73244" lon="1.77587">
        <ele>226.6</ele>
        <time>2026-03-26T09:53:27.000Z</time>
      </trkpt>
      <trkpt lat="48.73244" lon="1.77589">
        <ele>226.3</ele>
        <time>2026-03-26T09:53:28.000Z</time>
      </trkpt>
      <trkpt lat="48.73244" lon="1.7759">
        <ele>226</ele>
        <time>2026-03-26T09:53:29.000Z</time>
      </trkpt>
      <trkpt lat="48.73244" lon="1.77592">
        <ele>226.2</ele>
        <time>2026-03-26T09:53:30.000Z</time>
      </trkpt>
      <trkpt lat="48.73244" lon="1.77593">
        <ele>226.2</ele>
        <time>2026-03-26T09:53:31.000Z</time>
      </trkpt>
      <trkpt lat="48.73243" lon="1.77595">
        <ele>225.8</ele>
        <time>2026-03-26T09:53:32.000Z</time>
      </trkpt>
      <trkpt lat="48.73243" lon="1.77597">
        <ele>225.4</ele>
        <time>2026-03-26T09:53:33.000Z</time>
      </trkpt>
      <trkpt lat="48.73243" lon="1.77599">
        <ele>225</ele>
        <time>2026-03-26T09:53:34.000Z</time>
      </trkpt>
      <trkpt lat="48.73242" lon="1.77601">
        <ele>225.1</ele>
        <time>2026-03-26T09:53:35.000Z</time>
      </trkpt>
      <trkpt lat="48.73242" lon="1.77603">
        <ele>224.8</ele>
        <time>2026-03-26T09:53:36.000Z</time>
      </trkpt>
      <trkpt lat="48.73242" lon="1.77605">
        <ele>224.8</ele>
        <time>2026-03-26T09:53:37.000Z</time>
      </trkpt>
      <trkpt lat="48.73241" lon="1.77607">
        <ele>225</ele>
        <time>2026-03-26T09:53:38.000Z</time>
      </trkpt>
      <trkpt lat="48.73241" lon="1.77608">
        <ele>224.9</ele>
        <time>2026-03-26T09:53:39.000Z</time>
      </trkpt>
      <trkpt lat="48.73241" lon="1.7761">
        <ele>225.5</ele>
        <time>2026-03-26T09:53:40.000Z</time>
      </trkpt>
      <trkpt lat="48.7324" lon="1.77612">
        <ele>225.6</ele>
        <time>2026-03-26T09:53:41.000Z</time>
      </trkpt>
      <trkpt lat="48.73239" lon="1.77615">
        <ele>226</ele>
        <time>2026-03-26T09:53:42.000Z</time>
      </trkpt>
      <trkpt lat="48.73239" lon="1.77617">
        <ele>226.2</ele>
        <time>2026-03-26T09:53:43.000Z</time>
      </trkpt>
      <trkpt lat="48.73238" lon="1.77618">
        <ele>226.3</ele>
        <time>2026-03-26T09:53:44.000Z</time>
      </trkpt>
      <trkpt lat="48.73238" lon="1.7762">
        <ele>226.6</ele>
        <time>2026-03-26T09:53:45.000Z</time>
      </trkpt>
      <trkpt lat="48.73237" lon="1.77622">
        <ele>227.1</ele>
        <time>2026-03-26T09:53:46.000Z</time>
      </trkpt>
      <trkpt lat="48.73237" lon="1.77625">
        <ele>227</ele>
        <time>2026-03-26T09:53:47.000Z</time>
      </trkpt>
      <trkpt lat="48.73237" lon="1.77627">
        <ele>226.8</ele>
        <time>2026-03-26T09:53:48.000Z</time>
      </trkpt>
      <trkpt lat="48.73237" lon="1.77629">
        <ele>226.7</ele>
        <time>2026-03-26T09:53:49.000Z</time>
      </trkpt>
      <trkpt lat="48.73237" lon="1.77631">
        <ele>226.5</ele>
        <time>2026-03-26T09:53:50.000Z</time>
      </trkpt>
      <trkpt lat="48.73236" lon="1.77633">
        <ele>226.5</ele>
        <time>2026-03-26T09:53:51.000Z</time>
      </trkpt>
      <trkpt lat="48.73236" lon="1.77635">
        <ele>226.4</ele>
        <time>2026-03-26T09:53:52.000Z</time>
      </trkpt>
      <trkpt lat="48.73236" lon="1.77637">
        <ele>226.4</ele>
        <time>2026-03-26T09:53:53.000Z</time>
      </trkpt>
      <trkpt lat="48.73235" lon="1.77639">
        <ele>226.5</ele>
        <time>2026-03-26T09:53:54.000Z</time>
      </trkpt>
      <trkpt lat="48.73235" lon="1.77641">
        <ele>226.3</ele>
        <time>2026-03-26T09:53:55.000Z</time>
      </trkpt>
      <trkpt lat="48.73235" lon="1.77642">
        <ele>226.5</ele>
        <time>2026-03-26T09:53:56.000Z</time>
      </trkpt>
      <trkpt lat="48.73234" lon="1.77644">
        <ele>226.5</ele>
        <time>2026-03-26T09:53:57.000Z</time>
      </trkpt>
      <trkpt lat="48.73234" lon="1.77646">
        <ele>226.4</ele>
        <time>2026-03-26T09:53:58.000Z</time>
      </trkpt>
      <trkpt lat="48.73233" lon="1.77649">
        <ele>226.7</ele>
        <time>2026-03-26T09:53:59.000Z</time>
      </trkpt>
      <trkpt lat="48.73233" lon="1.77651">
        <ele>227</ele>
        <time>2026-03-26T09:54:00.000Z</time>
      </trkpt>
      <trkpt lat="48.73233" lon="1.77653">
        <ele>226.7</ele>
        <time>2026-03-26T09:54:01.000Z</time>
      </trkpt>
      <trkpt lat="48.73232" lon="1.77655">
        <ele>226.4</ele>
        <time>2026-03-26T09:54:02.000Z</time>
      </trkpt>
      <trkpt lat="48.73232" lon="1.77657">
        <ele>226</ele>
        <time>2026-03-26T09:54:03.000Z</time>
      </trkpt>
      <trkpt lat="48.73231" lon="1.77659">
        <ele>226</ele>
        <time>2026-03-26T09:54:04.000Z</time>
      </trkpt>
      <trkpt lat="48.73231" lon="1.77661">
        <ele>225.4</ele>
        <time>2026-03-26T09:54:05.000Z</time>
      </trkpt>
      <trkpt lat="48.7323" lon="1.77663">
        <ele>225.1</ele>
        <time>2026-03-26T09:54:06.000Z</time>
      </trkpt>
      <trkpt lat="48.7323" lon="1.77665">
        <ele>225.1</ele>
        <time>2026-03-26T09:54:07.000Z</time>
      </trkpt>
      <trkpt lat="48.7323" lon="1.77667">
        <ele>225</ele>
        <time>2026-03-26T09:54:08.000Z</time>
      </trkpt>
      <trkpt lat="48.7323" lon="1.77669">
        <ele>225.5</ele>
        <time>2026-03-26T09:54:09.000Z</time>
      </trkpt>
      <trkpt lat="48.73229" lon="1.7767">
        <ele>225.4</ele>
        <time>2026-03-26T09:54:10.000Z</time>
      </trkpt>
      <trkpt lat="48.73229" lon="1.77672">
        <ele>225.6</ele>
        <time>2026-03-26T09:54:11.000Z</time>
      </trkpt>
      <trkpt lat="48.73229" lon="1.77675">
        <ele>225.6</ele>
        <time>2026-03-26T09:54:12.000Z</time>
      </trkpt>
      <trkpt lat="48.73228" lon="1.77677">
        <ele>225.8</ele>
        <time>2026-03-26T09:54:13.000Z</time>
      </trkpt>
      <trkpt lat="48.73228" lon="1.77679">
        <ele>226.1</ele>
        <time>2026-03-26T09:54:14.000Z</time>
      </trkpt>
      <trkpt lat="48.73228" lon="1.77681">
        <ele>226.2</ele>
        <time>2026-03-26T09:54:15.000Z</time>
      </trkpt>
      <trkpt lat="48.73227" lon="1.77683">
        <ele>226</ele>
        <time>2026-03-26T09:54:16.000Z</time>
      </trkpt>
      <trkpt lat="48.73227" lon="1.77685">
        <ele>225.8</ele>
        <time>2026-03-26T09:54:17.000Z</time>
      </trkpt>
      <trkpt lat="48.73226" lon="1.77687">
        <ele>226.1</ele>
        <time>2026-03-26T09:54:18.000Z</time>
      </trkpt>
      <trkpt lat="48.73226" lon="1.77689">
        <ele>226.1</ele>
        <time>2026-03-26T09:54:19.000Z</time>
      </trkpt>
      <trkpt lat="48.73226" lon="1.77692">
        <ele>226.4</ele>
        <time>2026-03-26T09:54:20.000Z</time>
      </trkpt>
      <trkpt lat="48.73225" lon="1.77694">
        <ele>226.3</ele>
        <time>2026-03-26T09:54:21.000Z</time>
      </trkpt>
      <trkpt lat="48.73224" lon="1.77695">
        <ele>225.8</ele>
        <time>2026-03-26T09:54:22.000Z</time>
      </trkpt>
      <trkpt lat="48.73224" lon="1.77697">
        <ele>225.8</ele>
        <time>2026-03-26T09:54:23.000Z</time>
      </trkpt>
      <trkpt lat="48.73224" lon="1.77699">
        <ele>226</ele>
        <time>2026-03-26T09:54:24.000Z</time>
      </trkpt>
      <trkpt lat="48.73223" lon="1.777">
        <ele>225.8</ele>
        <time>2026-03-26T09:54:25.000Z</time>
      </trkpt>
      <trkpt lat="48.73223" lon="1.77702">
        <ele>225.9</ele>
        <time>2026-03-26T09:54:26.000Z</time>
      </trkpt>
      <trkpt lat="48.73223" lon="1.77704">
        <ele>225.7</ele>
        <time>2026-03-26T09:54:27.000Z</time>
      </trkpt>
      <trkpt lat="48.73223" lon="1.77706">
        <ele>225.8</ele>
        <time>2026-03-26T09:54:28.000Z</time>
      </trkpt>
      <trkpt lat="48.73222" lon="1.77708">
        <ele>225.9</ele>
        <time>2026-03-26T09:54:29.000Z</time>
      </trkpt>
      <trkpt lat="48.73222" lon="1.7771">
        <ele>226</ele>
        <time>2026-03-26T09:54:30.000Z</time>
      </trkpt>
      <trkpt lat="48.73222" lon="1.77712">
        <ele>226.3</ele>
        <time>2026-03-26T09:54:31.000Z</time>
      </trkpt>
      <trkpt lat="48.73222" lon="1.77714">
        <ele>226.4</ele>
        <time>2026-03-26T09:54:32.000Z</time>
      </trkpt>
      <trkpt lat="48.73222" lon="1.77716">
        <ele>226.8</ele>
        <time>2026-03-26T09:54:33.000Z</time>
      </trkpt>
      <trkpt lat="48.73222" lon="1.77718">
        <ele>226.8</ele>
        <time>2026-03-26T09:54:34.000Z</time>
      </trkpt>
      <trkpt lat="48.73221" lon="1.77719">
        <ele>226.4</ele>
        <time>2026-03-26T09:54:35.000Z</time>
      </trkpt>
      <trkpt lat="48.73221" lon="1.77721">
        <ele>226.4</ele>
        <time>2026-03-26T09:54:36.000Z</time>
      </trkpt>
      <trkpt lat="48.73221" lon="1.77723">
        <ele>226.3</ele>
        <time>2026-03-26T09:54:37.000Z</time>
      </trkpt>
      <trkpt lat="48.7322" lon="1.77725">
        <ele>226.3</ele>
        <time>2026-03-26T09:54:38.000Z</time>
      </trkpt>
      <trkpt lat="48.7322" lon="1.77727">
        <ele>226.3</ele>
        <time>2026-03-26T09:54:39.000Z</time>
      </trkpt>
      <trkpt lat="48.73219" lon="1.77729">
        <ele>226.5</ele>
        <time>2026-03-26T09:54:40.000Z</time>
      </trkpt>
      <trkpt lat="48.73218" lon="1.77731">
        <ele>226.2</ele>
        <time>2026-03-26T09:54:41.000Z</time>
      </trkpt>
      <trkpt lat="48.73218" lon="1.77733">
        <ele>226.1</ele>
        <time>2026-03-26T09:54:42.000Z</time>
      </trkpt>
      <trkpt lat="48.73217" lon="1.77735">
        <ele>226.1</ele>
        <time>2026-03-26T09:54:43.000Z</time>
      </trkpt>
      <trkpt lat="48.73217" lon="1.77737">
        <ele>226.5</ele>
        <time>2026-03-26T09:54:44.000Z</time>
      </trkpt>
      <trkpt lat="48.73217" lon="1.77739">
        <ele>226.7</ele>
        <time>2026-03-26T09:54:45.000Z</time>
      </trkpt>
      <trkpt lat="48.73216" lon="1.77741">
        <ele>226.8</ele>
        <time>2026-03-26T09:54:46.000Z</time>
      </trkpt>
      <trkpt lat="48.73216" lon="1.77743">
        <ele>226.8</ele>
        <time>2026-03-26T09:54:47.000Z</time>
      </trkpt>
      <trkpt lat="48.73215" lon="1.77745">
        <ele>226.4</ele>
        <time>2026-03-26T09:54:48.000Z</time>
      </trkpt>
      <trkpt lat="48.73215" lon="1.77746">
        <ele>226.4</ele>
        <time>2026-03-26T09:54:49.000Z</time>
      </trkpt>
      <trkpt lat="48.73214" lon="1.77748">
        <ele>226.3</ele>
        <time>2026-03-26T09:54:50.000Z</time>
      </trkpt>
      <trkpt lat="48.73214" lon="1.7775">
        <ele>226.5</ele>
        <time>2026-03-26T09:54:51.000Z</time>
      </trkpt>
      <trkpt lat="48.73213" lon="1.77751">
        <ele>226.6</ele>
        <time>2026-03-26T09:54:52.000Z</time>
      </trkpt>
      <trkpt lat="48.73212" lon="1.77753">
        <ele>226.8</ele>
        <time>2026-03-26T09:54:53.000Z</time>
      </trkpt>
      <trkpt lat="48.73212" lon="1.77756">
        <ele>227.5</ele>
        <time>2026-03-26T09:54:54.000Z</time>
      </trkpt>
      <trkpt lat="48.73212" lon="1.77758">
        <ele>227.6</ele>
        <time>2026-03-26T09:54:55.000Z</time>
      </trkpt>
      <trkpt lat="48.73211" lon="1.77759">
        <ele>227.8</ele>
        <time>2026-03-26T09:54:56.000Z</time>
      </trkpt>
      <trkpt lat="48.73211" lon="1.77761">
        <ele>227.6</ele>
        <time>2026-03-26T09:54:57.000Z</time>
      </trkpt>
      <trkpt lat="48.7321" lon="1.77763">
        <ele>227.1</ele>
        <time>2026-03-26T09:54:58.000Z</time>
      </trkpt>
      <trkpt lat="48.7321" lon="1.77764">
        <ele>227</ele>
        <time>2026-03-26T09:54:59.000Z</time>
      </trkpt>
      <trkpt lat="48.7321" lon="1.77766">
        <ele>226.8</ele>
        <time>2026-03-26T09:55:00.000Z</time>
      </trkpt>
      <trkpt lat="48.73209" lon="1.77768">
        <ele>226.4</ele>
        <time>2026-03-26T09:55:01.000Z</time>
      </trkpt>
      <trkpt lat="48.73209" lon="1.7777">
        <ele>227</ele>
        <time>2026-03-26T09:55:02.000Z</time>
      </trkpt>
      <trkpt lat="48.73208" lon="1.77772">
        <ele>226.8</ele>
        <time>2026-03-26T09:55:03.000Z</time>
      </trkpt>
      <trkpt lat="48.73208" lon="1.77774">
        <ele>226.8</ele>
        <time>2026-03-26T09:55:04.000Z</time>
      </trkpt>
      <trkpt lat="48.73208" lon="1.77776">
        <ele>226.4</ele>
        <time>2026-03-26T09:55:05.000Z</time>
      </trkpt>
      <trkpt lat="48.73208" lon="1.77779">
        <ele>226.5</ele>
        <time>2026-03-26T09:55:06.000Z</time>
      </trkpt>
      <trkpt lat="48.73207" lon="1.7778">
        <ele>225.9</ele>
        <time>2026-03-26T09:55:07.000Z</time>
      </trkpt>
      <trkpt lat="48.73207" lon="1.77782">
        <ele>226.1</ele>
        <time>2026-03-26T09:55:08.000Z</time>
      </trkpt>
      <trkpt lat="48.73207" lon="1.77785">
        <ele>226</ele>
        <time>2026-03-26T09:55:09.000Z</time>
      </trkpt>
      <trkpt lat="48.73207" lon="1.77787">
        <ele>225.8</ele>
        <time>2026-03-26T09:55:10.000Z</time>
      </trkpt>
      <trkpt lat="48.73206" lon="1.77789">
        <ele>225.7</ele>
        <time>2026-03-26T09:55:11.000Z</time>
      </trkpt>
      <trkpt lat="48.73206" lon="1.77791">
        <ele>225.8</ele>
        <time>2026-03-26T09:55:12.000Z</time>
      </trkpt>
      <trkpt lat="48.73205" lon="1.77793">
        <ele>225.9</ele>
        <time>2026-03-26T09:55:13.000Z</time>
      </trkpt>
      <trkpt lat="48.73205" lon="1.77795">
        <ele>226.2</ele>
        <time>2026-03-26T09:55:14.000Z</time>
      </trkpt>
      <trkpt lat="48.73204" lon="1.77797">
        <ele>226.7</ele>
        <time>2026-03-26T09:55:15.000Z</time>
      </trkpt>
      <trkpt lat="48.73204" lon="1.77799">
        <ele>226.7</ele>
        <time>2026-03-26T09:55:16.000Z</time>
      </trkpt>
      <trkpt lat="48.73204" lon="1.77801">
        <ele>226.7</ele>
        <time>2026-03-26T09:55:17.000Z</time>
      </trkpt>
      <trkpt lat="48.73203" lon="1.77803">
        <ele>226.3</ele>
        <time>2026-03-26T09:55:18.000Z</time>
      </trkpt>
      <trkpt lat="48.73203" lon="1.77805">
        <ele>226.1</ele>
        <time>2026-03-26T09:55:19.000Z</time>
      </trkpt>
      <trkpt lat="48.73202" lon="1.77807">
        <ele>226.3</ele>
        <time>2026-03-26T09:55:20.000Z</time>
      </trkpt>
      <trkpt lat="48.73202" lon="1.77809">
        <ele>226.2</ele>
        <time>2026-03-26T09:55:21.000Z</time>
      </trkpt>
      <trkpt lat="48.73202" lon="1.77811">
        <ele>226.5</ele>
        <time>2026-03-26T09:55:22.000Z</time>
      </trkpt>
      <trkpt lat="48.73201" lon="1.77813">
        <ele>226.4</ele>
        <time>2026-03-26T09:55:23.000Z</time>
      </trkpt>
      <trkpt lat="48.73201" lon="1.77815">
        <ele>226.3</ele>
        <time>2026-03-26T09:55:24.000Z</time>
      </trkpt>
      <trkpt lat="48.73201" lon="1.77817">
        <ele>226.5</ele>
        <time>2026-03-26T09:55:25.000Z</time>
      </trkpt>
      <trkpt lat="48.73201" lon="1.77818">
        <ele>226.2</ele>
        <time>2026-03-26T09:55:26.000Z</time>
      </trkpt>
      <trkpt lat="48.732" lon="1.7782">
        <ele>225.9</ele>
        <time>2026-03-26T09:55:27.000Z</time>
      </trkpt>
      <trkpt lat="48.73199" lon="1.77822">
        <ele>225.6</ele>
        <time>2026-03-26T09:55:28.000Z</time>
      </trkpt>
      <trkpt lat="48.73199" lon="1.77823">
        <ele>225.1</ele>
        <time>2026-03-26T09:55:29.000Z</time>
      </trkpt>
      <trkpt lat="48.73198" lon="1.77825">
        <ele>225.4</ele>
        <time>2026-03-26T09:55:30.000Z</time>
      </trkpt>
      <trkpt lat="48.73198" lon="1.77827">
        <ele>225.3</ele>
        <time>2026-03-26T09:55:31.000Z</time>
      </trkpt>
      <trkpt lat="48.73198" lon="1.77829">
        <ele>225.1</ele>
        <time>2026-03-26T09:55:32.000Z</time>
      </trkpt>
      <trkpt lat="48.73198" lon="1.7783">
        <ele>225</ele>
        <time>2026-03-26T09:55:33.000Z</time>
      </trkpt>
      <trkpt lat="48.73197" lon="1.77832">
        <ele>224.9</ele>
        <time>2026-03-26T09:55:34.000Z</time>
      </trkpt>
      <trkpt lat="48.73197" lon="1.77833">
        <ele>224.7</ele>
        <time>2026-03-26T09:55:35.000Z</time>
      </trkpt>
      <trkpt lat="48.73196" lon="1.77835">
        <ele>225</ele>
        <time>2026-03-26T09:55:36.000Z</time>
      </trkpt>
      <trkpt lat="48.73195" lon="1.77836">
        <ele>225.1</ele>
        <time>2026-03-26T09:55:37.000Z</time>
      </trkpt>
      <trkpt lat="48.73195" lon="1.77838">
        <ele>225.2</ele>
        <time>2026-03-26T09:55:38.000Z</time>
      </trkpt>
      <trkpt lat="48.73194" lon="1.7784">
        <ele>225.3</ele>
        <time>2026-03-26T09:55:39.000Z</time>
      </trkpt>
      <trkpt lat="48.73194" lon="1.77842">
        <ele>225.6</ele>
        <time>2026-03-26T09:55:40.000Z</time>
      </trkpt>
      <trkpt lat="48.73193" lon="1.77844">
        <ele>225.7</ele>
        <time>2026-03-26T09:55:41.000Z</time>
      </trkpt>
      <trkpt lat="48.73193" lon="1.77846">
        <ele>225.5</ele>
        <time>2026-03-26T09:55:42.000Z</time>
      </trkpt>
      <trkpt lat="48.73193" lon="1.77848">
        <ele>225.5</ele>
        <time>2026-03-26T09:55:43.000Z</time>
      </trkpt>
      <trkpt lat="48.73193" lon="1.7785">
        <ele>225.7</ele>
        <time>2026-03-26T09:55:44.000Z</time>
      </trkpt>
      <trkpt lat="48.73193" lon="1.77852">
        <ele>226.1</ele>
        <time>2026-03-26T09:55:45.000Z</time>
      </trkpt>
      <trkpt lat="48.73193" lon="1.77854">
        <ele>226.6</ele>
        <time>2026-03-26T09:55:46.000Z</time>
      </trkpt>
      <trkpt lat="48.73193" lon="1.77855">
        <ele>226.6</ele>
        <time>2026-03-26T09:55:47.000Z</time>
      </trkpt>
      <trkpt lat="48.73193" lon="1.77857">
        <ele>226.3</ele>
        <time>2026-03-26T09:55:48.000Z</time>
      </trkpt>
      <trkpt lat="48.73192" lon="1.77859">
        <ele>226.1</ele>
        <time>2026-03-26T09:55:49.000Z</time>
      </trkpt>
      <trkpt lat="48.73192" lon="1.7786">
        <ele>226.2</ele>
        <time>2026-03-26T09:55:50.000Z</time>
      </trkpt>
      <trkpt lat="48.73192" lon="1.77862">
        <ele>226</ele>
        <time>2026-03-26T09:55:51.000Z</time>
      </trkpt>
      <trkpt lat="48.73191" lon="1.77864">
        <ele>226.1</ele>
        <time>2026-03-26T09:55:52.000Z</time>
      </trkpt>
      <trkpt lat="48.73191" lon="1.77865">
        <ele>226</ele>
        <time>2026-03-26T09:55:53.000Z</time>
      </trkpt>
      <trkpt lat="48.7319" lon="1.77867">
        <ele>225.7</ele>
        <time>2026-03-26T09:55:54.000Z</time>
      </trkpt>
      <trkpt lat="48.7319" lon="1.77869">
        <ele>225.8</ele>
        <time>2026-03-26T09:55:55.000Z</time>
      </trkpt>
      <trkpt lat="48.7319" lon="1.7787">
        <ele>225.5</ele>
        <time>2026-03-26T09:55:56.000Z</time>
      </trkpt>
      <trkpt lat="48.7319" lon="1.77872">
        <ele>225.3</ele>
        <time>2026-03-26T09:55:57.000Z</time>
      </trkpt>
      <trkpt lat="48.73189" lon="1.77874">
        <ele>225</ele>
        <time>2026-03-26T09:55:58.000Z</time>
      </trkpt>
      <trkpt lat="48.73189" lon="1.77875">
        <ele>224.8</ele>
        <time>2026-03-26T09:55:59.000Z</time>
      </trkpt>
      <trkpt lat="48.73189" lon="1.77877">
        <ele>224.8</ele>
        <time>2026-03-26T09:56:00.000Z</time>
      </trkpt>
      <trkpt lat="48.73189" lon="1.77879">
        <ele>224.9</ele>
        <time>2026-03-26T09:56:01.000Z</time>
      </trkpt>
      <trkpt lat="48.73188" lon="1.77881">
        <ele>224.9</ele>
        <time>2026-03-26T09:56:02.000Z</time>
      </trkpt>
      <trkpt lat="48.73188" lon="1.77883">
        <ele>224.7</ele>
        <time>2026-03-26T09:56:03.000Z</time>
      </trkpt>
      <trkpt lat="48.73187" lon="1.77884">
        <ele>224.3</ele>
        <time>2026-03-26T09:56:04.000Z</time>
      </trkpt>
      <trkpt lat="48.73186" lon="1.77886">
        <ele>224.4</ele>
        <time>2026-03-26T09:56:05.000Z</time>
      </trkpt>
      <trkpt lat="48.73186" lon="1.77888">
        <ele>224.6</ele>
        <time>2026-03-26T09:56:06.000Z</time>
      </trkpt>
      <trkpt lat="48.73185" lon="1.77889">
        <ele>224.4</ele>
        <time>2026-03-26T09:56:07.000Z</time>
      </trkpt>
      <trkpt lat="48.73185" lon="1.77891">
        <ele>224.6</ele>
        <time>2026-03-26T09:56:08.000Z</time>
      </trkpt>
      <trkpt lat="48.73184" lon="1.77892">
        <ele>224.7</ele>
        <time>2026-03-26T09:56:09.000Z</time>
      </trkpt>
      <trkpt lat="48.73183" lon="1.77893">
        <ele>224.6</ele>
        <time>2026-03-26T09:56:10.000Z</time>
      </trkpt>
      <trkpt lat="48.73183" lon="1.77895">
        <ele>224.2</ele>
        <time>2026-03-26T09:56:11.000Z</time>
      </trkpt>
      <trkpt lat="48.73182" lon="1.77896">
        <ele>224</ele>
        <time>2026-03-26T09:56:12.000Z</time>
      </trkpt>
      <trkpt lat="48.73182" lon="1.77898">
        <ele>223.9</ele>
        <time>2026-03-26T09:56:13.000Z</time>
      </trkpt>
      <trkpt lat="48.73181" lon="1.77899">
        <ele>224</ele>
        <time>2026-03-26T09:56:14.000Z</time>
      </trkpt>
      <trkpt lat="48.7318" lon="1.779">
        <ele>223.6</ele>
        <time>2026-03-26T09:56:15.000Z</time>
      </trkpt>
      <trkpt lat="48.73179" lon="1.77901">
        <ele>223.7</ele>
        <time>2026-03-26T09:56:16.000Z</time>
      </trkpt>
      <trkpt lat="48.73179" lon="1.77903">
        <ele>223.6</ele>
        <time>2026-03-26T09:56:17.000Z</time>
      </trkpt>
      <trkpt lat="48.73179" lon="1.77904">
        <ele>223.6</ele>
        <time>2026-03-26T09:56:18.000Z</time>
      </trkpt>
      <trkpt lat="48.73178" lon="1.77906">
        <ele>223.6</ele>
        <time>2026-03-26T09:56:19.000Z</time>
      </trkpt>
      <trkpt lat="48.73178" lon="1.77907">
        <ele>223.8</ele>
        <time>2026-03-26T09:56:20.000Z</time>
      </trkpt>
      <trkpt lat="48.73177" lon="1.77909">
        <ele>223.4</ele>
        <time>2026-03-26T09:56:21.000Z</time>
      </trkpt>
      <trkpt lat="48.73176" lon="1.7791">
        <ele>223.5</ele>
        <time>2026-03-26T09:56:22.000Z</time>
      </trkpt>
      <trkpt lat="48.73176" lon="1.77911">
        <ele>223.2</ele>
        <time>2026-03-26T09:56:23.000Z</time>
      </trkpt>
      <trkpt lat="48.73175" lon="1.77913">
        <ele>223.4</ele>
        <time>2026-03-26T09:56:24.000Z</time>
      </trkpt>
      <trkpt lat="48.73174" lon="1.77914">
        <ele>223.9</ele>
        <time>2026-03-26T09:56:25.000Z</time>
      </trkpt>
      <trkpt lat="48.73174" lon="1.77915">
        <ele>224</ele>
        <time>2026-03-26T09:56:26.000Z</time>
      </trkpt>
      <trkpt lat="48.73174" lon="1.77917">
        <ele>224.2</ele>
        <time>2026-03-26T09:56:27.000Z</time>
      </trkpt>
      <trkpt lat="48.73173" lon="1.77918">
        <ele>224.3</ele>
        <time>2026-03-26T09:56:28.000Z</time>
      </trkpt>
      <trkpt lat="48.73172" lon="1.77919">
        <ele>224.3</ele>
        <time>2026-03-26T09:56:29.000Z</time>
      </trkpt>
      <trkpt lat="48.73172" lon="1.77919">
        <ele>224.3</ele>
        <time>2026-03-26T09:56:30.000Z</time>
      </trkpt>
      <trkpt lat="48.73172" lon="1.77921">
        <ele>224.2</ele>
        <time>2026-03-26T09:56:31.000Z</time>
      </trkpt>
      <trkpt lat="48.73171" lon="1.77922">
        <ele>223.5</ele>
        <time>2026-03-26T09:56:32.000Z</time>
      </trkpt>
      <trkpt lat="48.73171" lon="1.77924">
        <ele>223.3</ele>
        <time>2026-03-26T09:56:33.000Z</time>
      </trkpt>
      <trkpt lat="48.73171" lon="1.77926">
        <ele>223</ele>
        <time>2026-03-26T09:56:34.000Z</time>
      </trkpt>
      <trkpt lat="48.73171" lon="1.77927">
        <ele>223</ele>
        <time>2026-03-26T09:56:35.000Z</time>
      </trkpt>
      <trkpt lat="48.7317" lon="1.77929">
        <ele>223.2</ele>
        <time>2026-03-26T09:56:36.000Z</time>
      </trkpt>
      <trkpt lat="48.7317" lon="1.7793">
        <ele>222.7</ele>
        <time>2026-03-26T09:56:37.000Z</time>
      </trkpt>
      <trkpt lat="48.7317" lon="1.77932">
        <ele>222.7</ele>
        <time>2026-03-26T09:56:38.000Z</time>
      </trkpt>
      <trkpt lat="48.7317" lon="1.77934">
        <ele>222.7</ele>
        <time>2026-03-26T09:56:39.000Z</time>
      </trkpt>
      <trkpt lat="48.73169" lon="1.77935">
        <ele>222.9</ele>
        <time>2026-03-26T09:56:40.000Z</time>
      </trkpt>
      <trkpt lat="48.73169" lon="1.77937">
        <ele>223.6</ele>
        <time>2026-03-26T09:56:41.000Z</time>
      </trkpt>
      <trkpt lat="48.73169" lon="1.77939">
        <ele>223.8</ele>
        <time>2026-03-26T09:56:42.000Z</time>
      </trkpt>
      <trkpt lat="48.73168" lon="1.7794">
        <ele>223.3</ele>
        <time>2026-03-26T09:56:43.000Z</time>
      </trkpt>
      <trkpt lat="48.73168" lon="1.77941">
        <ele>223.3</ele>
        <time>2026-03-26T09:56:44.000Z</time>
      </trkpt>
      <trkpt lat="48.73168" lon="1.77943">
        <ele>223.4</ele>
        <time>2026-03-26T09:56:45.000Z</time>
      </trkpt>
      <trkpt lat="48.73167" lon="1.77944">
        <ele>223.7</ele>
        <time>2026-03-26T09:56:46.000Z</time>
      </trkpt>
      <trkpt lat="48.73167" lon="1.77946">
        <ele>223.9</ele>
        <time>2026-03-26T09:56:47.000Z</time>
      </trkpt>
      <trkpt lat="48.73167" lon="1.77947">
        <ele>224</ele>
        <time>2026-03-26T09:56:48.000Z</time>
      </trkpt>
      <trkpt lat="48.73167" lon="1.77949">
        <ele>223.9</ele>
        <time>2026-03-26T09:56:49.000Z</time>
      </trkpt>
      <trkpt lat="48.73167" lon="1.77951">
        <ele>224</ele>
        <time>2026-03-26T09:56:50.000Z</time>
      </trkpt>
      <trkpt lat="48.73167" lon="1.77952">
        <ele>224.2</ele>
        <time>2026-03-26T09:56:51.000Z</time>
      </trkpt>
      <trkpt lat="48.73166" lon="1.77954">
        <ele>224.1</ele>
        <time>2026-03-26T09:56:52.000Z</time>
      </trkpt>
      <trkpt lat="48.73165" lon="1.77955">
        <ele>224</ele>
        <time>2026-03-26T09:56:53.000Z</time>
      </trkpt>
      <trkpt lat="48.73164" lon="1.77955">
        <ele>223.2</ele>
        <time>2026-03-26T09:56:54.000Z</time>
      </trkpt>
      <trkpt lat="48.73162" lon="1.77955">
        <ele>223.6</ele>
        <time>2026-03-26T09:56:55.000Z</time>
      </trkpt>
      <trkpt lat="48.73161" lon="1.77956">
        <ele>223.7</ele>
        <time>2026-03-26T09:56:56.000Z</time>
      </trkpt>
      <trkpt lat="48.7316" lon="1.77955">
        <ele>223.7</ele>
        <time>2026-03-26T09:56:57.000Z</time>
      </trkpt>
      <trkpt lat="48.73159" lon="1.77955">
        <ele>223.2</ele>
        <time>2026-03-26T09:56:58.000Z</time>
      </trkpt>
      <trkpt lat="48.73158" lon="1.77956">
        <ele>222.8</ele>
        <time>2026-03-26T09:56:59.000Z</time>
      </trkpt>
      <trkpt lat="48.73158" lon="1.77957">
        <ele>222.7</ele>
        <time>2026-03-26T09:57:00.000Z</time>
      </trkpt>
      <trkpt lat="48.73157" lon="1.77959">
        <ele>222.6</ele>
        <time>2026-03-26T09:57:01.000Z</time>
      </trkpt>
      <trkpt lat="48.73157" lon="1.7796">
        <ele>222.3</ele>
        <time>2026-03-26T09:57:02.000Z</time>
      </trkpt>
      <trkpt lat="48.73156" lon="1.77962">
        <ele>222.2</ele>
        <time>2026-03-26T09:57:03.000Z</time>
      </trkpt>
      <trkpt lat="48.73156" lon="1.77963">
        <ele>222</ele>
        <time>2026-03-26T09:57:04.000Z</time>
      </trkpt>
      <trkpt lat="48.73156" lon="1.77965">
        <ele>222.5</ele>
        <time>2026-03-26T09:57:05.000Z</time>
      </trkpt>
      <trkpt lat="48.73155" lon="1.77967">
        <ele>222.6</ele>
        <time>2026-03-26T09:57:06.000Z</time>
      </trkpt>
      <trkpt lat="48.73154" lon="1.77967">
        <ele>222.1</ele>
        <time>2026-03-26T09:57:07.000Z</time>
      </trkpt>
      <trkpt lat="48.73153" lon="1.77968">
        <ele>221.6</ele>
        <time>2026-03-26T09:57:08.000Z</time>
      </trkpt>
      <trkpt lat="48.73152" lon="1.77969">
        <ele>222</ele>
        <time>2026-03-26T09:57:09.000Z</time>
      </trkpt>
      <trkpt lat="48.73151" lon="1.7797">
        <ele>222.1</ele>
        <time>2026-03-26T09:57:10.000Z</time>
      </trkpt>
      <trkpt lat="48.7315" lon="1.77971">
        <ele>222</ele>
        <time>2026-03-26T09:57:11.000Z</time>
      </trkpt>
      <trkpt lat="48.73149" lon="1.77972">
        <ele>222.3</ele>
        <time>2026-03-26T09:57:12.000Z</time>
      </trkpt>
      <trkpt lat="48.73147" lon="1.77973">
        <ele>222.6</ele>
        <time>2026-03-26T09:57:13.000Z</time>
      </trkpt>
      <trkpt lat="48.73146" lon="1.77973">
        <ele>222.4</ele>
        <time>2026-03-26T09:57:14.000Z</time>
      </trkpt>
      <trkpt lat="48.73145" lon="1.77974">
        <ele>222.3</ele>
        <time>2026-03-26T09:57:15.000Z</time>
      </trkpt>
      <trkpt lat="48.73144" lon="1.77975">
        <ele>222.1</ele>
        <time>2026-03-26T09:57:16.000Z</time>
      </trkpt>
      <trkpt lat="48.73143" lon="1.77977">
        <ele>222.2</ele>
        <time>2026-03-26T09:57:17.000Z</time>
      </trkpt>
      <trkpt lat="48.73143" lon="1.77978">
        <ele>222.1</ele>
        <time>2026-03-26T09:57:18.000Z</time>
      </trkpt>
      <trkpt lat="48.73142" lon="1.77979">
        <ele>222</ele>
        <time>2026-03-26T09:57:19.000Z</time>
      </trkpt>
      <trkpt lat="48.73141" lon="1.7798">
        <ele>221.8</ele>
        <time>2026-03-26T09:57:20.000Z</time>
      </trkpt>
      <trkpt lat="48.7314" lon="1.77982">
        <ele>222.8</ele>
        <time>2026-03-26T09:57:21.000Z</time>
      </trkpt>
      <trkpt lat="48.73139" lon="1.77983">
        <ele>222.9</ele>
        <time>2026-03-26T09:57:22.000Z</time>
      </trkpt>
      <trkpt lat="48.73138" lon="1.77984">
        <ele>222.7</ele>
        <time>2026-03-26T09:57:23.000Z</time>
      </trkpt>
      <trkpt lat="48.73137" lon="1.77985">
        <ele>223.1</ele>
        <time>2026-03-26T09:57:24.000Z</time>
      </trkpt>
      <trkpt lat="48.73136" lon="1.77986">
        <ele>223.2</ele>
        <time>2026-03-26T09:57:25.000Z</time>
      </trkpt>
      <trkpt lat="48.73135" lon="1.77987">
        <ele>223.7</ele>
        <time>2026-03-26T09:57:26.000Z</time>
      </trkpt>
      <trkpt lat="48.73133" lon="1.77987">
        <ele>223.9</ele>
        <time>2026-03-26T09:57:27.000Z</time>
      </trkpt>
      <trkpt lat="48.73132" lon="1.77987">
        <ele>223.9</ele>
        <time>2026-03-26T09:57:28.000Z</time>
      </trkpt>
      <trkpt lat="48.73131" lon="1.77987">
        <ele>223.8</ele>
        <time>2026-03-26T09:57:29.000Z</time>
      </trkpt>
      <trkpt lat="48.7313" lon="1.77988">
        <ele>223.9</ele>
        <time>2026-03-26T09:57:30.000Z</time>
      </trkpt>
      <trkpt lat="48.73129" lon="1.7799">
        <ele>223.9</ele>
        <time>2026-03-26T09:57:31.000Z</time>
      </trkpt>
      <trkpt lat="48.73128" lon="1.77991">
        <ele>223.7</ele>
        <time>2026-03-26T09:57:32.000Z</time>
      </trkpt>
      <trkpt lat="48.73127" lon="1.77992">
        <ele>224.3</ele>
        <time>2026-03-26T09:57:33.000Z</time>
      </trkpt>
      <trkpt lat="48.73126" lon="1.77993">
        <ele>223.9</ele>
        <time>2026-03-26T09:57:34.000Z</time>
      </trkpt>
      <trkpt lat="48.73125" lon="1.77993">
        <ele>223.9</ele>
        <time>2026-03-26T09:57:35.000Z</time>
      </trkpt>
      <trkpt lat="48.73124" lon="1.77993">
        <ele>223.5</ele>
        <time>2026-03-26T09:57:36.000Z</time>
      </trkpt>
      <trkpt lat="48.73122" lon="1.77994">
        <ele>223.3</ele>
        <time>2026-03-26T09:57:37.000Z</time>
      </trkpt>
      <trkpt lat="48.73121" lon="1.77995">
        <ele>223.9</ele>
        <time>2026-03-26T09:57:38.000Z</time>
      </trkpt>
      <trkpt lat="48.73121" lon="1.77996">
        <ele>224</ele>
        <time>2026-03-26T09:57:39.000Z</time>
      </trkpt>
      <trkpt lat="48.7312" lon="1.77997">
        <ele>224.1</ele>
        <time>2026-03-26T09:57:40.000Z</time>
      </trkpt>
      <trkpt lat="48.73119" lon="1.77998">
        <ele>223.6</ele>
        <time>2026-03-26T09:57:41.000Z</time>
      </trkpt>
      <trkpt lat="48.73118" lon="1.77999">
        <ele>223.9</ele>
        <time>2026-03-26T09:57:42.000Z</time>
      </trkpt>
      <trkpt lat="48.73117" lon="1.78">
        <ele>224.2</ele>
        <time>2026-03-26T09:57:43.000Z</time>
      </trkpt>
      <trkpt lat="48.73115" lon="1.78">
        <ele>224.4</ele>
        <time>2026-03-26T09:57:44.000Z</time>
      </trkpt>
      <trkpt lat="48.73114" lon="1.78">
        <ele>224.3</ele>
        <time>2026-03-26T09:57:45.000Z</time>
      </trkpt>
      <trkpt lat="48.73113" lon="1.78001">
        <ele>223.7</ele>
        <time>2026-03-26T09:57:46.000Z</time>
      </trkpt>
      <trkpt lat="48.73112" lon="1.78001">
        <ele>224.2</ele>
        <time>2026-03-26T09:57:47.000Z</time>
      </trkpt>
      <trkpt lat="48.7311" lon="1.78001">
        <ele>224.3</ele>
        <time>2026-03-26T09:57:48.000Z</time>
      </trkpt>
      <trkpt lat="48.73109" lon="1.78001">
        <ele>224.5</ele>
        <time>2026-03-26T09:57:49.000Z</time>
      </trkpt>
      <trkpt lat="48.73108" lon="1.78001">
        <ele>224.8</ele>
        <time>2026-03-26T09:57:50.000Z</time>
      </trkpt>
      <trkpt lat="48.73107" lon="1.78002">
        <ele>224.6</ele>
        <time>2026-03-26T09:57:51.000Z</time>
      </trkpt>
      <trkpt lat="48.73106" lon="1.78002">
        <ele>224.5</ele>
        <time>2026-03-26T09:57:52.000Z</time>
      </trkpt>
      <trkpt lat="48.73105" lon="1.78003">
        <ele>224.7</ele>
        <time>2026-03-26T09:57:53.000Z</time>
      </trkpt>
      <trkpt lat="48.73105" lon="1.78004">
        <ele>224.8</ele>
        <time>2026-03-26T09:57:54.000Z</time>
      </trkpt>
      <trkpt lat="48.73104" lon="1.78006">
        <ele>224.6</ele>
        <time>2026-03-26T09:57:55.000Z</time>
      </trkpt>
      <trkpt lat="48.73104" lon="1.78007">
        <ele>224.2</ele>
        <time>2026-03-26T09:57:56.000Z</time>
      </trkpt>
      <trkpt lat="48.73103" lon="1.78008">
        <ele>223.9</ele>
        <time>2026-03-26T09:57:57.000Z</time>
      </trkpt>
      <trkpt lat="48.73103" lon="1.7801">
        <ele>223.7</ele>
        <time>2026-03-26T09:57:58.000Z</time>
      </trkpt>
      <trkpt lat="48.73103" lon="1.78011">
        <ele>223.9</ele>
        <time>2026-03-26T09:57:59.000Z</time>
      </trkpt>
      <trkpt lat="48.73102" lon="1.78012">
        <ele>224.1</ele>
        <time>2026-03-26T09:58:00.000Z</time>
      </trkpt>
      <trkpt lat="48.73101" lon="1.78013">
        <ele>224.4</ele>
        <time>2026-03-26T09:58:01.000Z</time>
      </trkpt>
      <trkpt lat="48.731" lon="1.78014">
        <ele>224.4</ele>
        <time>2026-03-26T09:58:02.000Z</time>
      </trkpt>
      <trkpt lat="48.73099" lon="1.78014">
        <ele>224.4</ele>
        <time>2026-03-26T09:58:03.000Z</time>
      </trkpt>
      <trkpt lat="48.73098" lon="1.78015">
        <ele>224.1</ele>
        <time>2026-03-26T09:58:04.000Z</time>
      </trkpt>
      <trkpt lat="48.73097" lon="1.78015">
        <ele>224</ele>
        <time>2026-03-26T09:58:05.000Z</time>
      </trkpt>
      <trkpt lat="48.73096" lon="1.78016">
        <ele>224</ele>
        <time>2026-03-26T09:58:06.000Z</time>
      </trkpt>
      <trkpt lat="48.73095" lon="1.78016">
        <ele>224.1</ele>
        <time>2026-03-26T09:58:07.000Z</time>
      </trkpt>
      <trkpt lat="48.73094" lon="1.78017">
        <ele>224.2</ele>
        <time>2026-03-26T09:58:08.000Z</time>
      </trkpt>
      <trkpt lat="48.73093" lon="1.78017">
        <ele>224</ele>
        <time>2026-03-26T09:58:09.000Z</time>
      </trkpt>
      <trkpt lat="48.73091" lon="1.78017">
        <ele>224.1</ele>
        <time>2026-03-26T09:58:10.000Z</time>
      </trkpt>
      <trkpt lat="48.7309" lon="1.78017">
        <ele>223.7</ele>
        <time>2026-03-26T09:58:11.000Z</time>
      </trkpt>
      <trkpt lat="48.73089" lon="1.78017">
        <ele>224</ele>
        <time>2026-03-26T09:58:12.000Z</time>
      </trkpt>
      <trkpt lat="48.73087" lon="1.78018">
        <ele>224</ele>
        <time>2026-03-26T09:58:13.000Z</time>
      </trkpt>
      <trkpt lat="48.73086" lon="1.78019">
        <ele>224.2</ele>
        <time>2026-03-26T09:58:14.000Z</time>
      </trkpt>
      <trkpt lat="48.73085" lon="1.78019">
        <ele>224.3</ele>
        <time>2026-03-26T09:58:15.000Z</time>
      </trkpt>
      <trkpt lat="48.73083" lon="1.7802">
        <ele>224.2</ele>
        <time>2026-03-26T09:58:16.000Z</time>
      </trkpt>
      <trkpt lat="48.73082" lon="1.78021">
        <ele>224.2</ele>
        <time>2026-03-26T09:58:17.000Z</time>
      </trkpt>
      <trkpt lat="48.73081" lon="1.78021">
        <ele>224.1</ele>
        <time>2026-03-26T09:58:18.000Z</time>
      </trkpt>
      <trkpt lat="48.7308" lon="1.78022">
        <ele>224</ele>
        <time>2026-03-26T09:58:19.000Z</time>
      </trkpt>
      <trkpt lat="48.73078" lon="1.78023">
        <ele>224</ele>
        <time>2026-03-26T09:58:20.000Z</time>
      </trkpt>
      <trkpt lat="48.73078" lon="1.78025">
        <ele>223.9</ele>
        <time>2026-03-26T09:58:21.000Z</time>
      </trkpt>
      <trkpt lat="48.73077" lon="1.78026">
        <ele>224.1</ele>
        <time>2026-03-26T09:58:22.000Z</time>
      </trkpt>
      <trkpt lat="48.73076" lon="1.78027">
        <ele>224.1</ele>
        <time>2026-03-26T09:58:23.000Z</time>
      </trkpt>
      <trkpt lat="48.73075" lon="1.78028">
        <ele>224.2</ele>
        <time>2026-03-26T09:58:24.000Z</time>
      </trkpt>
      <trkpt lat="48.73075" lon="1.78029">
        <ele>225.2</ele>
        <time>2026-03-26T09:58:25.000Z</time>
      </trkpt>
      <trkpt lat="48.73076" lon="1.78032">
        <ele>225.4</ele>
        <time>2026-03-26T09:58:26.000Z</time>
      </trkpt>
      <trkpt lat="48.73077" lon="1.78033">
        <ele>227.1</ele>
        <time>2026-03-26T09:58:27.000Z</time>
      </trkpt>
      <trkpt lat="48.73079" lon="1.78031">
        <ele>227.1</ele>
        <time>2026-03-26T09:58:28.000Z</time>
      </trkpt>
      <trkpt lat="48.7308" lon="1.7803">
        <ele>226.3</ele>
        <time>2026-03-26T09:58:29.000Z</time>
      </trkpt>
      <trkpt lat="48.73081" lon="1.78027">
        <ele>226.2</ele>
        <time>2026-03-26T09:58:30.000Z</time>
      </trkpt>
      <trkpt lat="48.73082" lon="1.78025">
        <ele>225.9</ele>
        <time>2026-03-26T09:58:31.000Z</time>
      </trkpt>
      <trkpt lat="48.73082" lon="1.78023">
        <ele>225.7</ele>
        <time>2026-03-26T09:58:32.000Z</time>
      </trkpt>
      <trkpt lat="48.73083" lon="1.78021">
        <ele>226.1</ele>
        <time>2026-03-26T09:58:33.000Z</time>
      </trkpt>
      <trkpt lat="48.73083" lon="1.78019">
        <ele>227.1</ele>
        <time>2026-03-26T09:58:34.000Z</time>
      </trkpt>
      <trkpt lat="48.73083" lon="1.78017">
        <ele>227.5</ele>
        <time>2026-03-26T09:58:35.000Z</time>
      </trkpt>
      <trkpt lat="48.73083" lon="1.78014">
        <ele>228.3</ele>
        <time>2026-03-26T09:58:36.000Z</time>
      </trkpt>
      <trkpt lat="48.73083" lon="1.78012">
        <ele>227</ele>
        <time>2026-03-26T09:58:37.000Z</time>
      </trkpt>
      <trkpt lat="48.73083" lon="1.7801">
        <ele>227.6</ele>
        <time>2026-03-26T09:58:38.000Z</time>
      </trkpt>
      <trkpt lat="48.73083" lon="1.7801">
        <ele>227.4</ele>
        <time>2026-03-26T09:58:39.000Z</time>
      </trkpt>
      <trkpt lat="48.73083" lon="1.7801">
        <ele>227.4</ele>
        <time>2026-03-26T09:58:40.000Z</time>
      </trkpt>
      <trkpt lat="48.73083" lon="1.7801">
        <ele>227.4</ele>
        <time>2026-03-26T09:58:41.000Z</time>
      </trkpt>
      <trkpt lat="48.73083" lon="1.7801">
        <ele>227.4</ele>
        <time>2026-03-26T09:58:42.000Z</time>
      </trkpt>
      <trkpt lat="48.73083" lon="1.7801">
        <ele>227.4</ele>
        <time>2026-03-26T09:58:43.000Z</time>
      </trkpt>
      <trkpt lat="48.73083" lon="1.7801">
        <ele>227.5</ele>
        <time>2026-03-26T09:58:44.000Z</time>
      </trkpt>
      <trkpt lat="48.73083" lon="1.7801">
        <ele>227.5</ele>
        <time>2026-03-26T09:58:45.000Z</time>
      </trkpt>
      <trkpt lat="48.73083" lon="1.7801">
        <ele>227.5</ele>
        <time>2026-03-26T09:58:46.000Z</time>
      </trkpt>
      <trkpt lat="48.73083" lon="1.7801">
        <ele>227.5</ele>
        <time>2026-03-26T09:58:47.000Z</time>
      </trkpt>
      <trkpt lat="48.73083" lon="1.7801">
        <ele>227.5</ele>
        <time>2026-03-26T09:58:48.000Z</time>
      </trkpt>
      <trkpt lat="48.73083" lon="1.7801">
        <ele>227.5</ele>
        <time>2026-03-26T09:58:49.000Z</time>
      </trkpt>
      <trkpt lat="48.73083" lon="1.7801">
        <ele>227.5</ele>
        <time>2026-03-26T09:58:50.000Z</time>
      </trkpt>
      <trkpt lat="48.73083" lon="1.7801">
        <ele>227.5</ele>
        <time>2026-03-26T09:58:51.000Z</time>
      </trkpt>
      <trkpt lat="48.73083" lon="1.7801">
        <ele>227.5</ele>
        <time>2026-03-26T09:58:52.000Z</time>
      </trkpt>
      <trkpt lat="48.73083" lon="1.7801">
        <ele>227.5</ele>
        <time>2026-03-26T09:58:53.000Z</time>
      </trkpt>
      <trkpt lat="48.73083" lon="1.7801">
        <ele>227.5</ele>
        <time>2026-03-26T09:58:54.000Z</time>
      </trkpt>
      <trkpt lat="48.73083" lon="1.7801">
        <ele>227.5</ele>
        <time>2026-03-26T09:58:55.000Z</time>
      </trkpt>
      <trkpt lat="48.73083" lon="1.7801">
        <ele>227.5</ele>
        <time>2026-03-26T09:58:56.000Z</time>
      </trkpt>
      <trkpt lat="48.73083" lon="1.7801">
        <ele>227.5</ele>
        <time>2026-03-26T09:58:57.000Z</time>
      </trkpt>
      <trkpt lat="48.73083" lon="1.7801">
        <ele>227.5</ele>
        <time>2026-03-26T09:58:58.000Z</time>
      </trkpt>
      <trkpt lat="48.73083" lon="1.7801">
        <ele>227.5</ele>
        <time>2026-03-26T09:58:59.000Z</time>
      </trkpt>
      <trkpt lat="48.73083" lon="1.7801">
        <ele>227.2</ele>
        <time>2026-03-26T09:59:00.000Z</time>
      </trkpt>
      <trkpt lat="48.73083" lon="1.7801">
        <ele>227.2</ele>
        <time>2026-03-26T09:59:01.000Z</time>
      </trkpt>
      <trkpt lat="48.73083" lon="1.78011">
        <ele>226.9</ele>
        <time>2026-03-26T09:59:02.000Z</time>
      </trkpt>
      <trkpt lat="48.73083" lon="1.78011">
        <ele>226.9</ele>
        <time>2026-03-26T09:59:03.000Z</time>
      </trkpt>
      <trkpt lat="48.73083" lon="1.78011">
        <ele>226.9</ele>
        <time>2026-03-26T09:59:04.000Z</time>
      </trkpt>
      <trkpt lat="48.73083" lon="1.78011">
        <ele>227.4</ele>
        <time>2026-03-26T09:59:05.000Z</time>
      </trkpt>
      <trkpt lat="48.73083" lon="1.78011">
        <ele>227.4</ele>
        <time>2026-03-26T09:59:06.000Z</time>
      </trkpt>
      <trkpt lat="48.73084" lon="1.78012">
        <ele>227.3</ele>
        <time>2026-03-26T09:59:07.000Z</time>
      </trkpt>
      <trkpt lat="48.73084" lon="1.78012">
        <ele>225.9</ele>
        <time>2026-03-26T09:59:08.000Z</time>
      </trkpt>
      <trkpt lat="48.73084" lon="1.78013">
        <ele>225</ele>
        <time>2026-03-26T09:59:09.000Z</time>
      </trkpt>
      <trkpt lat="48.73084" lon="1.78014">
        <ele>224.3</ele>
        <time>2026-03-26T09:59:10.000Z</time>
      </trkpt>
      <trkpt lat="48.73083" lon="1.78016">
        <ele>224.1</ele>
        <time>2026-03-26T09:59:11.000Z</time>
      </trkpt>
      <trkpt lat="48.73083" lon="1.78018">
        <ele>223.6</ele>
        <time>2026-03-26T09:59:12.000Z</time>
      </trkpt>
      <trkpt lat="48.73082" lon="1.78019">
        <ele>223.7</ele>
        <time>2026-03-26T09:59:13.000Z</time>
      </trkpt>
      <trkpt lat="48.73081" lon="1.7802">
        <ele>224</ele>
        <time>2026-03-26T09:59:14.000Z</time>
      </trkpt>
      <trkpt lat="48.7308" lon="1.7802">
        <ele>224.8</ele>
        <time>2026-03-26T09:59:15.000Z</time>
      </trkpt>
      <trkpt lat="48.73079" lon="1.78022">
        <ele>225</ele>
        <time>2026-03-26T09:59:16.000Z</time>
      </trkpt>
      <trkpt lat="48.73078" lon="1.78024">
        <ele>224</ele>
        <time>2026-03-26T09:59:17.000Z</time>
      </trkpt>
      <trkpt lat="48.73077" lon="1.78025">
        <ele>224.6</ele>
        <time>2026-03-26T09:59:18.000Z</time>
      </trkpt>
      <trkpt lat="48.73075" lon="1.78026">
        <ele>225.3</ele>
        <time>2026-03-26T09:59:19.000Z</time>
      </trkpt>
      <trkpt lat="48.73074" lon="1.78027">
        <ele>224.9</ele>
        <time>2026-03-26T09:59:20.000Z</time>
      </trkpt>
      <trkpt lat="48.73073" lon="1.78027">
        <ele>225</ele>
        <time>2026-03-26T09:59:21.000Z</time>
      </trkpt>
      <trkpt lat="48.73072" lon="1.78026">
        <ele>224.8</ele>
        <time>2026-03-26T09:59:22.000Z</time>
      </trkpt>
      <trkpt lat="48.73071" lon="1.78024">
        <ele>224.6</ele>
        <time>2026-03-26T09:59:23.000Z</time>
      </trkpt>
      <trkpt lat="48.73069" lon="1.78024">
        <ele>224.2</ele>
        <time>2026-03-26T09:59:24.000Z</time>
      </trkpt>
      <trkpt lat="48.73068" lon="1.78023">
        <ele>223.9</ele>
        <time>2026-03-26T09:59:25.000Z</time>
      </trkpt>
      <trkpt lat="48.73067" lon="1.78023">
        <ele>223.2</ele>
        <time>2026-03-26T09:59:26.000Z</time>
      </trkpt>
      <trkpt lat="48.73066" lon="1.78024">
        <ele>223.5</ele>
        <time>2026-03-26T09:59:27.000Z</time>
      </trkpt>
      <trkpt lat="48.73064" lon="1.78026">
        <ele>223.4</ele>
        <time>2026-03-26T09:59:28.000Z</time>
      </trkpt>
      <trkpt lat="48.73063" lon="1.78027">
        <ele>223.5</ele>
        <time>2026-03-26T09:59:29.000Z</time>
      </trkpt>
      <trkpt lat="48.73062" lon="1.78029">
        <ele>223.8</ele>
        <time>2026-03-26T09:59:30.000Z</time>
      </trkpt>
      <trkpt lat="48.73061" lon="1.78031">
        <ele>224.1</ele>
        <time>2026-03-26T09:59:31.000Z</time>
      </trkpt>
      <trkpt lat="48.7306" lon="1.78032">
        <ele>224.3</ele>
        <time>2026-03-26T09:59:32.000Z</time>
      </trkpt>
      <trkpt lat="48.73058" lon="1.78034">
        <ele>224.4</ele>
        <time>2026-03-26T09:59:33.000Z</time>
      </trkpt>
      <trkpt lat="48.73058" lon="1.78035">
        <ele>223.5</ele>
        <time>2026-03-26T09:59:34.000Z</time>
      </trkpt>
      <trkpt lat="48.73057" lon="1.78037">
        <ele>223</ele>
        <time>2026-03-26T09:59:35.000Z</time>
      </trkpt>
      <trkpt lat="48.73057" lon="1.78038">
        <ele>223</ele>
        <time>2026-03-26T09:59:36.000Z</time>
      </trkpt>
      <trkpt lat="48.73056" lon="1.7804">
        <ele>222.8</ele>
        <time>2026-03-26T09:59:37.000Z</time>
      </trkpt>
      <trkpt lat="48.73055" lon="1.78042">
        <ele>223</ele>
        <time>2026-03-26T09:59:38.000Z</time>
      </trkpt>
      <trkpt lat="48.73054" lon="1.78042">
        <ele>223.4</ele>
        <time>2026-03-26T09:59:39.000Z</time>
      </trkpt>
      <trkpt lat="48.73053" lon="1.78043">
        <ele>223.4</ele>
        <time>2026-03-26T09:59:40.000Z</time>
      </trkpt>
      <trkpt lat="48.73052" lon="1.78043">
        <ele>223.3</ele>
        <time>2026-03-26T09:59:41.000Z</time>
      </trkpt>
      <trkpt lat="48.73051" lon="1.78043">
        <ele>223.5</ele>
        <time>2026-03-26T09:59:42.000Z</time>
      </trkpt>
      <trkpt lat="48.73049" lon="1.78043">
        <ele>223.4</ele>
        <time>2026-03-26T09:59:43.000Z</time>
      </trkpt>
      <trkpt lat="48.73048" lon="1.78042">
        <ele>223.5</ele>
        <time>2026-03-26T09:59:44.000Z</time>
      </trkpt>
      <trkpt lat="48.73047" lon="1.78042">
        <ele>223.3</ele>
        <time>2026-03-26T09:59:45.000Z</time>
      </trkpt>
      <trkpt lat="48.73046" lon="1.78041">
        <ele>223.6</ele>
        <time>2026-03-26T09:59:46.000Z</time>
      </trkpt>
      <trkpt lat="48.73045" lon="1.78041">
        <ele>224.1</ele>
        <time>2026-03-26T09:59:47.000Z</time>
      </trkpt>
      <trkpt lat="48.73044" lon="1.78042">
        <ele>224</ele>
        <time>2026-03-26T09:59:48.000Z</time>
      </trkpt>
      <trkpt lat="48.73043" lon="1.78044">
        <ele>223.7</ele>
        <time>2026-03-26T09:59:49.000Z</time>
      </trkpt>
      <trkpt lat="48.73043" lon="1.78045">
        <ele>223.2</ele>
        <time>2026-03-26T09:59:50.000Z</time>
      </trkpt>
      <trkpt lat="48.73044" lon="1.78047">
        <ele>223.2</ele>
        <time>2026-03-26T09:59:51.000Z</time>
      </trkpt>
      <trkpt lat="48.73044" lon="1.78049">
        <ele>223.2</ele>
        <time>2026-03-26T09:59:52.000Z</time>
      </trkpt>
      <trkpt lat="48.73045" lon="1.7805">
        <ele>222.9</ele>
        <time>2026-03-26T09:59:53.000Z</time>
      </trkpt>
      <trkpt lat="48.73045" lon="1.78052">
        <ele>222.4</ele>
        <time>2026-03-26T09:59:54.000Z</time>
      </trkpt>
      <trkpt lat="48.73045" lon="1.78054">
        <ele>221.8</ele>
        <time>2026-03-26T09:59:55.000Z</time>
      </trkpt>
      <trkpt lat="48.73046" lon="1.78056">
        <ele>221.7</ele>
        <time>2026-03-26T09:59:56.000Z</time>
      </trkpt>
      <trkpt lat="48.73046" lon="1.78057">
        <ele>222</ele>
        <time>2026-03-26T09:59:57.000Z</time>
      </trkpt>
      <trkpt lat="48.73046" lon="1.78059">
        <ele>221.6</ele>
        <time>2026-03-26T09:59:58.000Z</time>
      </trkpt>
      <trkpt lat="48.73046" lon="1.78061">
        <ele>221.4</ele>
        <time>2026-03-26T09:59:59.000Z</time>
      </trkpt>
      <trkpt lat="48.73046" lon="1.78063">
        <ele>221.2</ele>
        <time>2026-03-26T10:00:00.000Z</time>
      </trkpt>
      <trkpt lat="48.73047" lon="1.78064">
        <ele>221.5</ele>
        <time>2026-03-26T10:00:01.000Z</time>
      </trkpt>
      <trkpt lat="48.73048" lon="1.78066">
        <ele>221.4</ele>
        <time>2026-03-26T10:00:02.000Z</time>
      </trkpt>
      <trkpt lat="48.73049" lon="1.78068">
        <ele>221.1</ele>
        <time>2026-03-26T10:00:03.000Z</time>
      </trkpt>
      <trkpt lat="48.73049" lon="1.7807">
        <ele>221.7</ele>
        <time>2026-03-26T10:00:04.000Z</time>
      </trkpt>
      <trkpt lat="48.7305" lon="1.78072">
        <ele>223.2</ele>
        <time>2026-03-26T10:00:05.000Z</time>
      </trkpt>
      <trkpt lat="48.73051" lon="1.78074">
        <ele>223.5</ele>
        <time>2026-03-26T10:00:06.000Z</time>
      </trkpt>
      <trkpt lat="48.73052" lon="1.78076">
        <ele>223.4</ele>
        <time>2026-03-26T10:00:07.000Z</time>
      </trkpt>
      <trkpt lat="48.73052" lon="1.78078">
        <ele>223.6</ele>
        <time>2026-03-26T10:00:08.000Z</time>
      </trkpt>
      <trkpt lat="48.73052" lon="1.78081">
        <ele>223.5</ele>
        <time>2026-03-26T10:00:09.000Z</time>
      </trkpt>
      <trkpt lat="48.73053" lon="1.78083">
        <ele>223.6</ele>
        <time>2026-03-26T10:00:10.000Z</time>
      </trkpt>
      <trkpt lat="48.73053" lon="1.78086">
        <ele>223.7</ele>
        <time>2026-03-26T10:00:11.000Z</time>
      </trkpt>
      <trkpt lat="48.73053" lon="1.78088">
        <ele>223.4</ele>
        <time>2026-03-26T10:00:12.000Z</time>
      </trkpt>
      <trkpt lat="48.73053" lon="1.7809">
        <ele>223.9</ele>
        <time>2026-03-26T10:00:13.000Z</time>
      </trkpt>
      <trkpt lat="48.73053" lon="1.78092">
        <ele>223.5</ele>
        <time>2026-03-26T10:00:14.000Z</time>
      </trkpt>
      <trkpt lat="48.73054" lon="1.78094">
        <ele>223.2</ele>
        <time>2026-03-26T10:00:15.000Z</time>
      </trkpt>
      <trkpt lat="48.73054" lon="1.78095">
        <ele>223.1</ele>
        <time>2026-03-26T10:00:16.000Z</time>
      </trkpt>
      <trkpt lat="48.73054" lon="1.78098">
        <ele>223.1</ele>
        <time>2026-03-26T10:00:17.000Z</time>
      </trkpt>
      <trkpt lat="48.73054" lon="1.781">
        <ele>223</ele>
        <time>2026-03-26T10:00:18.000Z</time>
      </trkpt>
      <trkpt lat="48.73055" lon="1.78102">
        <ele>223.6</ele>
        <time>2026-03-26T10:00:19.000Z</time>
      </trkpt>
      <trkpt lat="48.73055" lon="1.78104">
        <ele>223.3</ele>
        <time>2026-03-26T10:00:20.000Z</time>
      </trkpt>
      <trkpt lat="48.73055" lon="1.78107">
        <ele>223.4</ele>
        <time>2026-03-26T10:00:21.000Z</time>
      </trkpt>
      <trkpt lat="48.73055" lon="1.78109">
        <ele>223.8</ele>
        <time>2026-03-26T10:00:22.000Z</time>
      </trkpt>
      <trkpt lat="48.73056" lon="1.78111">
        <ele>223.5</ele>
        <time>2026-03-26T10:00:23.000Z</time>
      </trkpt>
      <trkpt lat="48.73056" lon="1.78112">
        <ele>223.4</ele>
        <time>2026-03-26T10:00:24.000Z</time>
      </trkpt>
      <trkpt lat="48.73057" lon="1.78114">
        <ele>223.3</ele>
        <time>2026-03-26T10:00:25.000Z</time>
      </trkpt>
      <trkpt lat="48.73057" lon="1.78116">
        <ele>223</ele>
        <time>2026-03-26T10:00:26.000Z</time>
      </trkpt>
      <trkpt lat="48.73058" lon="1.78118">
        <ele>222.8</ele>
        <time>2026-03-26T10:00:27.000Z</time>
      </trkpt>
      <trkpt lat="48.73058" lon="1.78119">
        <ele>222.6</ele>
        <time>2026-03-26T10:00:28.000Z</time>
      </trkpt>
      <trkpt lat="48.73058" lon="1.78121">
        <ele>222.1</ele>
        <time>2026-03-26T10:00:29.000Z</time>
      </trkpt>
      <trkpt lat="48.73058" lon="1.78123">
        <ele>221.8</ele>
        <time>2026-03-26T10:00:30.000Z</time>
      </trkpt>
      <trkpt lat="48.73059" lon="1.78125">
        <ele>221.8</ele>
        <time>2026-03-26T10:00:31.000Z</time>
      </trkpt>
      <trkpt lat="48.73059" lon="1.78127">
        <ele>221.7</ele>
        <time>2026-03-26T10:00:32.000Z</time>
      </trkpt>
      <trkpt lat="48.7306" lon="1.7813">
        <ele>222.5</ele>
        <time>2026-03-26T10:00:33.000Z</time>
      </trkpt>
      <trkpt lat="48.7306" lon="1.78132">
        <ele>222.8</ele>
        <time>2026-03-26T10:00:34.000Z</time>
      </trkpt>
      <trkpt lat="48.73061" lon="1.78134">
        <ele>222.8</ele>
        <time>2026-03-26T10:00:35.000Z</time>
      </trkpt>
      <trkpt lat="48.73061" lon="1.78136">
        <ele>222.6</ele>
        <time>2026-03-26T10:00:36.000Z</time>
      </trkpt>
      <trkpt lat="48.73062" lon="1.78139">
        <ele>222.5</ele>
        <time>2026-03-26T10:00:37.000Z</time>
      </trkpt>
      <trkpt lat="48.73062" lon="1.7814">
        <ele>222.8</ele>
        <time>2026-03-26T10:00:38.000Z</time>
      </trkpt>
      <trkpt lat="48.73062" lon="1.78142">
        <ele>222.8</ele>
        <time>2026-03-26T10:00:39.000Z</time>
      </trkpt>
      <trkpt lat="48.73063" lon="1.78144">
        <ele>222.9</ele>
        <time>2026-03-26T10:00:40.000Z</time>
      </trkpt>
      <trkpt lat="48.73063" lon="1.78146">
        <ele>222.8</ele>
        <time>2026-03-26T10:00:41.000Z</time>
      </trkpt>
      <trkpt lat="48.73063" lon="1.78147">
        <ele>222.7</ele>
        <time>2026-03-26T10:00:42.000Z</time>
      </trkpt>
      <trkpt lat="48.73064" lon="1.78149">
        <ele>222.8</ele>
        <time>2026-03-26T10:00:43.000Z</time>
      </trkpt>
      <trkpt lat="48.73064" lon="1.78151">
        <ele>222.9</ele>
        <time>2026-03-26T10:00:44.000Z</time>
      </trkpt>
      <trkpt lat="48.73064" lon="1.78153">
        <ele>223</ele>
        <time>2026-03-26T10:00:45.000Z</time>
      </trkpt>
      <trkpt lat="48.73064" lon="1.78155">
        <ele>223</ele>
        <time>2026-03-26T10:00:46.000Z</time>
      </trkpt>
      <trkpt lat="48.73065" lon="1.78157">
        <ele>223</ele>
        <time>2026-03-26T10:00:47.000Z</time>
      </trkpt>
      <trkpt lat="48.73065" lon="1.78159">
        <ele>222.9</ele>
        <time>2026-03-26T10:00:48.000Z</time>
      </trkpt>
      <trkpt lat="48.73066" lon="1.78161">
        <ele>223</ele>
        <time>2026-03-26T10:00:49.000Z</time>
      </trkpt>
      <trkpt lat="48.73066" lon="1.78163">
        <ele>223.2</ele>
        <time>2026-03-26T10:00:50.000Z</time>
      </trkpt>
      <trkpt lat="48.73066" lon="1.78165">
        <ele>223.3</ele>
        <time>2026-03-26T10:00:51.000Z</time>
      </trkpt>
      <trkpt lat="48.73067" lon="1.78167">
        <ele>223.2</ele>
        <time>2026-03-26T10:00:52.000Z</time>
      </trkpt>
      <trkpt lat="48.73067" lon="1.78169">
        <ele>222.8</ele>
        <time>2026-03-26T10:00:53.000Z</time>
      </trkpt>
      <trkpt lat="48.73068" lon="1.78171">
        <ele>223.2</ele>
        <time>2026-03-26T10:00:54.000Z</time>
      </trkpt>
      <trkpt lat="48.73068" lon="1.78173">
        <ele>223.3</ele>
        <time>2026-03-26T10:00:55.000Z</time>
      </trkpt>
      <trkpt lat="48.73068" lon="1.78175">
        <ele>223.2</ele>
        <time>2026-03-26T10:00:56.000Z</time>
      </trkpt>
      <trkpt lat="48.73068" lon="1.78177">
        <ele>223</ele>
        <time>2026-03-26T10:00:57.000Z</time>
      </trkpt>
      <trkpt lat="48.73069" lon="1.78179">
        <ele>222.2</ele>
        <time>2026-03-26T10:00:58.000Z</time>
      </trkpt>
      <trkpt lat="48.73069" lon="1.78181">
        <ele>222.5</ele>
        <time>2026-03-26T10:00:59.000Z</time>
      </trkpt>
      <trkpt lat="48.73069" lon="1.78183">
        <ele>222.5</ele>
        <time>2026-03-26T10:01:00.000Z</time>
      </trkpt>
      <trkpt lat="48.7307" lon="1.78185">
        <ele>222.9</ele>
        <time>2026-03-26T10:01:01.000Z</time>
      </trkpt>
      <trkpt lat="48.7307" lon="1.78187">
        <ele>222.6</ele>
        <time>2026-03-26T10:01:02.000Z</time>
      </trkpt>
      <trkpt lat="48.7307" lon="1.78189">
        <ele>222.5</ele>
        <time>2026-03-26T10:01:03.000Z</time>
      </trkpt>
      <trkpt lat="48.7307" lon="1.78191">
        <ele>222.6</ele>
        <time>2026-03-26T10:01:04.000Z</time>
      </trkpt>
      <trkpt lat="48.7307" lon="1.78192">
        <ele>222.3</ele>
        <time>2026-03-26T10:01:05.000Z</time>
      </trkpt>
      <trkpt lat="48.7307" lon="1.78195">
        <ele>222.9</ele>
        <time>2026-03-26T10:01:06.000Z</time>
      </trkpt>
      <trkpt lat="48.73071" lon="1.78197">
        <ele>222.8</ele>
        <time>2026-03-26T10:01:07.000Z</time>
      </trkpt>
      <trkpt lat="48.73071" lon="1.78199">
        <ele>223.4</ele>
        <time>2026-03-26T10:01:08.000Z</time>
      </trkpt>
      <trkpt lat="48.73071" lon="1.78201">
        <ele>223.8</ele>
        <time>2026-03-26T10:01:09.000Z</time>
      </trkpt>
      <trkpt lat="48.73072" lon="1.78203">
        <ele>224.7</ele>
        <time>2026-03-26T10:01:10.000Z</time>
      </trkpt>
      <trkpt lat="48.73073" lon="1.78205">
        <ele>224.7</ele>
        <time>2026-03-26T10:01:11.000Z</time>
      </trkpt>
      <trkpt lat="48.73073" lon="1.78207">
        <ele>224.2</ele>
        <time>2026-03-26T10:01:12.000Z</time>
      </trkpt>
      <trkpt lat="48.73073" lon="1.78209">
        <ele>224</ele>
        <time>2026-03-26T10:01:13.000Z</time>
      </trkpt>
      <trkpt lat="48.73073" lon="1.7821">
        <ele>224</ele>
        <time>2026-03-26T10:01:14.000Z</time>
      </trkpt>
      <trkpt lat="48.73073" lon="1.78212">
        <ele>224.3</ele>
        <time>2026-03-26T10:01:15.000Z</time>
      </trkpt>
      <trkpt lat="48.73074" lon="1.78214">
        <ele>223.8</ele>
        <time>2026-03-26T10:01:16.000Z</time>
      </trkpt>
      <trkpt lat="48.73074" lon="1.78216">
        <ele>223.3</ele>
        <time>2026-03-26T10:01:17.000Z</time>
      </trkpt>
      <trkpt lat="48.73074" lon="1.78218">
        <ele>222.6</ele>
        <time>2026-03-26T10:01:18.000Z</time>
      </trkpt>
      <trkpt lat="48.73074" lon="1.7822">
        <ele>221.7</ele>
        <time>2026-03-26T10:01:19.000Z</time>
      </trkpt>
      <trkpt lat="48.73074" lon="1.78221">
        <ele>222.8</ele>
        <time>2026-03-26T10:01:20.000Z</time>
      </trkpt>
      <trkpt lat="48.73074" lon="1.78223">
        <ele>223.1</ele>
        <time>2026-03-26T10:01:21.000Z</time>
      </trkpt>
      <trkpt lat="48.73075" lon="1.78225">
        <ele>221.8</ele>
        <time>2026-03-26T10:01:22.000Z</time>
      </trkpt>
      <trkpt lat="48.73075" lon="1.78227">
        <ele>221.4</ele>
        <time>2026-03-26T10:01:23.000Z</time>
      </trkpt>
      <trkpt lat="48.73075" lon="1.7823">
        <ele>221.8</ele>
        <time>2026-03-26T10:01:24.000Z</time>
      </trkpt>
      <trkpt lat="48.73076" lon="1.78232">
        <ele>221.7</ele>
        <time>2026-03-26T10:01:25.000Z</time>
      </trkpt>
      <trkpt lat="48.73076" lon="1.78234">
        <ele>222</ele>
        <time>2026-03-26T10:01:26.000Z</time>
      </trkpt>
      <trkpt lat="48.73076" lon="1.78236">
        <ele>221.8</ele>
        <time>2026-03-26T10:01:27.000Z</time>
      </trkpt>
      <trkpt lat="48.73076" lon="1.78238">
        <ele>222.5</ele>
        <time>2026-03-26T10:01:28.000Z</time>
      </trkpt>
      <trkpt lat="48.73076" lon="1.78241">
        <ele>222.8</ele>
        <time>2026-03-26T10:01:29.000Z</time>
      </trkpt>
      <trkpt lat="48.73076" lon="1.78243">
        <ele>222.9</ele>
        <time>2026-03-26T10:01:30.000Z</time>
      </trkpt>
      <trkpt lat="48.73076" lon="1.78246">
        <ele>222.2</ele>
        <time>2026-03-26T10:01:31.000Z</time>
      </trkpt>
      <trkpt lat="48.73076" lon="1.78248">
        <ele>222</ele>
        <time>2026-03-26T10:01:32.000Z</time>
      </trkpt>
      <trkpt lat="48.73076" lon="1.7825">
        <ele>221.3</ele>
        <time>2026-03-26T10:01:33.000Z</time>
      </trkpt>
      <trkpt lat="48.73076" lon="1.78252">
        <ele>221.3</ele>
        <time>2026-03-26T10:01:34.000Z</time>
      </trkpt>
      <trkpt lat="48.73076" lon="1.78254">
        <ele>220.9</ele>
        <time>2026-03-26T10:01:35.000Z</time>
      </trkpt>
      <trkpt lat="48.73077" lon="1.78256">
        <ele>220.5</ele>
        <time>2026-03-26T10:01:36.000Z</time>
      </trkpt>
      <trkpt lat="48.73077" lon="1.78258">
        <ele>220.3</ele>
        <time>2026-03-26T10:01:37.000Z</time>
      </trkpt>
      <trkpt lat="48.73076" lon="1.7826">
        <ele>220.6</ele>
        <time>2026-03-26T10:01:38.000Z</time>
      </trkpt>
      <trkpt lat="48.73076" lon="1.78263">
        <ele>220.7</ele>
        <time>2026-03-26T10:01:39.000Z</time>
      </trkpt>
      <trkpt lat="48.73076" lon="1.78265">
        <ele>220.3</ele>
        <time>2026-03-26T10:01:40.000Z</time>
      </trkpt>
      <trkpt lat="48.73076" lon="1.78268">
        <ele>220.5</ele>
        <time>2026-03-26T10:01:41.000Z</time>
      </trkpt>
      <trkpt lat="48.73076" lon="1.7827">
        <ele>222</ele>
        <time>2026-03-26T10:01:42.000Z</time>
      </trkpt>
      <trkpt lat="48.73077" lon="1.78273">
        <ele>222.4</ele>
        <time>2026-03-26T10:01:43.000Z</time>
      </trkpt>
      <trkpt lat="48.73077" lon="1.78275">
        <ele>222.3</ele>
        <time>2026-03-26T10:01:44.000Z</time>
      </trkpt>
      <trkpt lat="48.73077" lon="1.78278">
        <ele>223.1</ele>
        <time>2026-03-26T10:01:45.000Z</time>
      </trkpt>
      <trkpt lat="48.73077" lon="1.7828">
        <ele>223</ele>
        <time>2026-03-26T10:01:46.000Z</time>
      </trkpt>
      <trkpt lat="48.73078" lon="1.78282">
        <ele>223</ele>
        <time>2026-03-26T10:01:47.000Z</time>
      </trkpt>
      <trkpt lat="48.73078" lon="1.78285">
        <ele>222.9</ele>
        <time>2026-03-26T10:01:48.000Z</time>
      </trkpt>
      <trkpt lat="48.73079" lon="1.78287">
        <ele>222.7</ele>
        <time>2026-03-26T10:01:49.000Z</time>
      </trkpt>
      <trkpt lat="48.73079" lon="1.78289">
        <ele>222.1</ele>
        <time>2026-03-26T10:01:50.000Z</time>
      </trkpt>
      <trkpt lat="48.73079" lon="1.78291">
        <ele>222.6</ele>
        <time>2026-03-26T10:01:51.000Z</time>
      </trkpt>
      <trkpt lat="48.73079" lon="1.78294">
        <ele>223.4</ele>
        <time>2026-03-26T10:01:52.000Z</time>
      </trkpt>
      <trkpt lat="48.73079" lon="1.78297">
        <ele>223.8</ele>
        <time>2026-03-26T10:01:53.000Z</time>
      </trkpt>
      <trkpt lat="48.73079" lon="1.78299">
        <ele>223.6</ele>
        <time>2026-03-26T10:01:54.000Z</time>
      </trkpt>
      <trkpt lat="48.73079" lon="1.78302">
        <ele>223.8</ele>
        <time>2026-03-26T10:01:55.000Z</time>
      </trkpt>
      <trkpt lat="48.73079" lon="1.78304">
        <ele>224.1</ele>
        <time>2026-03-26T10:01:56.000Z</time>
      </trkpt>
      <trkpt lat="48.7308" lon="1.78307">
        <ele>225.1</ele>
        <time>2026-03-26T10:01:57.000Z</time>
      </trkpt>
      <trkpt lat="48.73081" lon="1.78309">
        <ele>225.6</ele>
        <time>2026-03-26T10:01:58.000Z</time>
      </trkpt>
      <trkpt lat="48.73081" lon="1.78312">
        <ele>225.9</ele>
        <time>2026-03-26T10:01:59.000Z</time>
      </trkpt>
      <trkpt lat="48.73081" lon="1.78314">
        <ele>225.9</ele>
        <time>2026-03-26T10:02:00.000Z</time>
      </trkpt>
      <trkpt lat="48.73082" lon="1.78316">
        <ele>226.1</ele>
        <time>2026-03-26T10:02:01.000Z</time>
      </trkpt>
      <trkpt lat="48.73082" lon="1.78319">
        <ele>226.8</ele>
        <time>2026-03-26T10:02:02.000Z</time>
      </trkpt>
      <trkpt lat="48.73082" lon="1.78321">
        <ele>226.9</ele>
        <time>2026-03-26T10:02:03.000Z</time>
      </trkpt>
      <trkpt lat="48.73082" lon="1.78323">
        <ele>225.9</ele>
        <time>2026-03-26T10:02:04.000Z</time>
      </trkpt>
      <trkpt lat="48.73082" lon="1.78325">
        <ele>226</ele>
        <time>2026-03-26T10:02:05.000Z</time>
      </trkpt>
      <trkpt lat="48.73083" lon="1.78327">
        <ele>225.7</ele>
        <time>2026-03-26T10:02:06.000Z</time>
      </trkpt>
      <trkpt lat="48.73083" lon="1.78329">
        <ele>225.8</ele>
        <time>2026-03-26T10:02:07.000Z</time>
      </trkpt>
      <trkpt lat="48.73083" lon="1.78331">
        <ele>225.6</ele>
        <time>2026-03-26T10:02:08.000Z</time>
      </trkpt>
      <trkpt lat="48.73084" lon="1.78333">
        <ele>225.4</ele>
        <time>2026-03-26T10:02:09.000Z</time>
      </trkpt>
      <trkpt lat="48.73084" lon="1.78335">
        <ele>225.1</ele>
        <time>2026-03-26T10:02:10.000Z</time>
      </trkpt>
      <trkpt lat="48.73085" lon="1.78337">
        <ele>225.1</ele>
        <time>2026-03-26T10:02:11.000Z</time>
      </trkpt>
      <trkpt lat="48.73085" lon="1.78339">
        <ele>224.9</ele>
        <time>2026-03-26T10:02:12.000Z</time>
      </trkpt>
      <trkpt lat="48.73086" lon="1.78341">
        <ele>224.5</ele>
        <time>2026-03-26T10:02:13.000Z</time>
      </trkpt>
      <trkpt lat="48.73087" lon="1.78343">
        <ele>224</ele>
        <time>2026-03-26T10:02:14.000Z</time>
      </trkpt>
      <trkpt lat="48.73087" lon="1.78345">
        <ele>224.1</ele>
        <time>2026-03-26T10:02:15.000Z</time>
      </trkpt>
      <trkpt lat="48.73087" lon="1.78347">
        <ele>223.9</ele>
        <time>2026-03-26T10:02:16.000Z</time>
      </trkpt>
      <trkpt lat="48.73088" lon="1.78349">
        <ele>223.8</ele>
        <time>2026-03-26T10:02:17.000Z</time>
      </trkpt>
      <trkpt lat="48.73088" lon="1.78352">
        <ele>223.4</ele>
        <time>2026-03-26T10:02:18.000Z</time>
      </trkpt>
      <trkpt lat="48.73089" lon="1.78354">
        <ele>223.2</ele>
        <time>2026-03-26T10:02:19.000Z</time>
      </trkpt>
      <trkpt lat="48.73089" lon="1.78356">
        <ele>223.3</ele>
        <time>2026-03-26T10:02:20.000Z</time>
      </trkpt>
      <trkpt lat="48.73089" lon="1.78358">
        <ele>223.2</ele>
        <time>2026-03-26T10:02:21.000Z</time>
      </trkpt>
      <trkpt lat="48.7309" lon="1.7836">
        <ele>223.1</ele>
        <time>2026-03-26T10:02:22.000Z</time>
      </trkpt>
      <trkpt lat="48.7309" lon="1.78362">
        <ele>223.1</ele>
        <time>2026-03-26T10:02:23.000Z</time>
      </trkpt>
      <trkpt lat="48.73091" lon="1.78364">
        <ele>223.2</ele>
        <time>2026-03-26T10:02:24.000Z</time>
      </trkpt>
      <trkpt lat="48.73092" lon="1.78365">
        <ele>222.8</ele>
        <time>2026-03-26T10:02:25.000Z</time>
      </trkpt>
      <trkpt lat="48.73092" lon="1.78367">
        <ele>222.7</ele>
        <time>2026-03-26T10:02:26.000Z</time>
      </trkpt>
      <trkpt lat="48.73093" lon="1.78369">
        <ele>222.8</ele>
        <time>2026-03-26T10:02:27.000Z</time>
      </trkpt>
      <trkpt lat="48.73093" lon="1.78371">
        <ele>222.8</ele>
        <time>2026-03-26T10:02:28.000Z</time>
      </trkpt>
      <trkpt lat="48.73094" lon="1.78373">
        <ele>222.7</ele>
        <time>2026-03-26T10:02:29.000Z</time>
      </trkpt>
      <trkpt lat="48.73094" lon="1.78375">
        <ele>222.9</ele>
        <time>2026-03-26T10:02:30.000Z</time>
      </trkpt>
      <trkpt lat="48.73094" lon="1.78377">
        <ele>222.8</ele>
        <time>2026-03-26T10:02:31.000Z</time>
      </trkpt>
      <trkpt lat="48.73094" lon="1.78379">
        <ele>222.7</ele>
        <time>2026-03-26T10:02:32.000Z</time>
      </trkpt>
      <trkpt lat="48.73094" lon="1.78381">
        <ele>222.8</ele>
        <time>2026-03-26T10:02:33.000Z</time>
      </trkpt>
      <trkpt lat="48.73094" lon="1.78383">
        <ele>223</ele>
        <time>2026-03-26T10:02:34.000Z</time>
      </trkpt>
      <trkpt lat="48.73095" lon="1.78385">
        <ele>222.7</ele>
        <time>2026-03-26T10:02:35.000Z</time>
      </trkpt>
      <trkpt lat="48.73095" lon="1.78387">
        <ele>222.7</ele>
        <time>2026-03-26T10:02:36.000Z</time>
      </trkpt>
      <trkpt lat="48.73095" lon="1.78389">
        <ele>222.6</ele>
        <time>2026-03-26T10:02:37.000Z</time>
      </trkpt>
      <trkpt lat="48.73095" lon="1.78391">
        <ele>222.7</ele>
        <time>2026-03-26T10:02:38.000Z</time>
      </trkpt>
      <trkpt lat="48.73095" lon="1.78393">
        <ele>222.6</ele>
        <time>2026-03-26T10:02:39.000Z</time>
      </trkpt>
      <trkpt lat="48.73095" lon="1.78395">
        <ele>222.5</ele>
        <time>2026-03-26T10:02:40.000Z</time>
      </trkpt>
      <trkpt lat="48.73095" lon="1.78397">
        <ele>222.8</ele>
        <time>2026-03-26T10:02:41.000Z</time>
      </trkpt>
      <trkpt lat="48.73095" lon="1.78398">
        <ele>223.3</ele>
        <time>2026-03-26T10:02:42.000Z</time>
      </trkpt>
      <trkpt lat="48.73096" lon="1.78399">
        <ele>223.4</ele>
        <time>2026-03-26T10:02:43.000Z</time>
      </trkpt>
      <trkpt lat="48.73096" lon="1.784">
        <ele>223.5</ele>
        <time>2026-03-26T10:02:44.000Z</time>
      </trkpt>
      <trkpt lat="48.73097" lon="1.78402">
        <ele>223.4</ele>
        <time>2026-03-26T10:02:45.000Z</time>
      </trkpt>
      <trkpt lat="48.73098" lon="1.78403">
        <ele>223.1</ele>
        <time>2026-03-26T10:02:46.000Z</time>
      </trkpt>
      <trkpt lat="48.73097" lon="1.78403">
        <ele>223</ele>
        <time>2026-03-26T10:02:47.000Z</time>
      </trkpt>
      <trkpt lat="48.73097" lon="1.78403">
        <ele>223.1</ele>
        <time>2026-03-26T10:02:48.000Z</time>
      </trkpt>
      <trkpt lat="48.73097" lon="1.78403">
        <ele>223.1</ele>
        <time>2026-03-26T10:02:49.000Z</time>
      </trkpt>
      <trkpt lat="48.73097" lon="1.78403">
        <ele>223.1</ele>
        <time>2026-03-26T10:02:50.000Z</time>
      </trkpt>
      <trkpt lat="48.73097" lon="1.78404">
        <ele>223.1</ele>
        <time>2026-03-26T10:02:51.000Z</time>
      </trkpt>
      <trkpt lat="48.73097" lon="1.78405">
        <ele>222.8</ele>
        <time>2026-03-26T10:02:52.000Z</time>
      </trkpt>
      <trkpt lat="48.73097" lon="1.78405">
        <ele>222.7</ele>
        <time>2026-03-26T10:02:53.000Z</time>
      </trkpt>
      <trkpt lat="48.73097" lon="1.78405">
        <ele>222.7</ele>
        <time>2026-03-26T10:02:54.000Z</time>
      </trkpt>
      <trkpt lat="48.73097" lon="1.78405">
        <ele>222.7</ele>
        <time>2026-03-26T10:02:55.000Z</time>
      </trkpt>
      <trkpt lat="48.73097" lon="1.78406">
        <ele>223</ele>
        <time>2026-03-26T10:02:56.000Z</time>
      </trkpt>
      <trkpt lat="48.73097" lon="1.78406">
        <ele>223.2</ele>
        <time>2026-03-26T10:02:57.000Z</time>
      </trkpt>
      <trkpt lat="48.73097" lon="1.78407">
        <ele>223.4</ele>
        <time>2026-03-26T10:02:58.000Z</time>
      </trkpt>
      <trkpt lat="48.73098" lon="1.78408">
        <ele>223.5</ele>
        <time>2026-03-26T10:02:59.000Z</time>
      </trkpt>
      <trkpt lat="48.73098" lon="1.78409">
        <ele>223.6</ele>
        <time>2026-03-26T10:03:00.000Z</time>
      </trkpt>
      <trkpt lat="48.73098" lon="1.78411">
        <ele>223.8</ele>
        <time>2026-03-26T10:03:01.000Z</time>
      </trkpt>
      <trkpt lat="48.73098" lon="1.78412">
        <ele>223.8</ele>
        <time>2026-03-26T10:03:02.000Z</time>
      </trkpt>
      <trkpt lat="48.73098" lon="1.78414">
        <ele>223.7</ele>
        <time>2026-03-26T10:03:03.000Z</time>
      </trkpt>
      <trkpt lat="48.73098" lon="1.78415">
        <ele>223.5</ele>
        <time>2026-03-26T10:03:04.000Z</time>
      </trkpt>
      <trkpt lat="48.73099" lon="1.78416">
        <ele>223</ele>
        <time>2026-03-26T10:03:05.000Z</time>
      </trkpt>
      <trkpt lat="48.73099" lon="1.78418">
        <ele>222.9</ele>
        <time>2026-03-26T10:03:06.000Z</time>
      </trkpt>
      <trkpt lat="48.73099" lon="1.7842">
        <ele>223</ele>
        <time>2026-03-26T10:03:07.000Z</time>
      </trkpt>
      <trkpt lat="48.73099" lon="1.7842">
        <ele>222.2</ele>
        <time>2026-03-26T10:03:08.000Z</time>
      </trkpt>
      <trkpt lat="48.73099" lon="1.78422">
        <ele>222.3</ele>
        <time>2026-03-26T10:03:09.000Z</time>
      </trkpt>
      <trkpt lat="48.731" lon="1.78424">
        <ele>222.6</ele>
        <time>2026-03-26T10:03:10.000Z</time>
      </trkpt>
      <trkpt lat="48.731" lon="1.78425">
        <ele>222.8</ele>
        <time>2026-03-26T10:03:11.000Z</time>
      </trkpt>
      <trkpt lat="48.731" lon="1.78427">
        <ele>222.6</ele>
        <time>2026-03-26T10:03:12.000Z</time>
      </trkpt>
      <trkpt lat="48.73102" lon="1.78429">
        <ele>223.9</ele>
        <time>2026-03-26T10:03:13.000Z</time>
      </trkpt>
      <trkpt lat="48.73104" lon="1.78432">
        <ele>225.4</ele>
        <time>2026-03-26T10:03:14.000Z</time>
      </trkpt>
      <trkpt lat="48.73104" lon="1.78435">
        <ele>225.3</ele>
        <time>2026-03-26T10:03:15.000Z</time>
      </trkpt>
      <trkpt lat="48.73104" lon="1.78436">
        <ele>225</ele>
        <time>2026-03-26T10:03:16.000Z</time>
      </trkpt>
      <trkpt lat="48.73104" lon="1.78438">
        <ele>224.8</ele>
        <time>2026-03-26T10:03:17.000Z</time>
      </trkpt>
      <trkpt lat="48.73104" lon="1.7844">
        <ele>224.8</ele>
        <time>2026-03-26T10:03:18.000Z</time>
      </trkpt>
      <trkpt lat="48.73103" lon="1.78442">
        <ele>225</ele>
        <time>2026-03-26T10:03:19.000Z</time>
      </trkpt>
      <trkpt lat="48.73103" lon="1.78444">
        <ele>225.4</ele>
        <time>2026-03-26T10:03:20.000Z</time>
      </trkpt>
      <trkpt lat="48.73103" lon="1.78446">
        <ele>225.1</ele>
        <time>2026-03-26T10:03:21.000Z</time>
      </trkpt>
      <trkpt lat="48.73103" lon="1.78448">
        <ele>225.1</ele>
        <time>2026-03-26T10:03:22.000Z</time>
      </trkpt>
      <trkpt lat="48.73103" lon="1.7845">
        <ele>225.6</ele>
        <time>2026-03-26T10:03:23.000Z</time>
      </trkpt>
      <trkpt lat="48.73103" lon="1.78452">
        <ele>225.5</ele>
        <time>2026-03-26T10:03:24.000Z</time>
      </trkpt>
      <trkpt lat="48.73103" lon="1.78454">
        <ele>225.3</ele>
        <time>2026-03-26T10:03:25.000Z</time>
      </trkpt>
      <trkpt lat="48.73103" lon="1.78455">
        <ele>225.1</ele>
        <time>2026-03-26T10:03:26.000Z</time>
      </trkpt>
      <trkpt lat="48.73103" lon="1.78457">
        <ele>224.7</ele>
        <time>2026-03-26T10:03:27.000Z</time>
      </trkpt>
      <trkpt lat="48.73103" lon="1.78458">
        <ele>224.7</ele>
        <time>2026-03-26T10:03:28.000Z</time>
      </trkpt>
      <trkpt lat="48.73103" lon="1.7846">
        <ele>224.6</ele>
        <time>2026-03-26T10:03:29.000Z</time>
      </trkpt>
      <trkpt lat="48.73103" lon="1.78463">
        <ele>225</ele>
        <time>2026-03-26T10:03:30.000Z</time>
      </trkpt>
      <trkpt lat="48.73103" lon="1.78464">
        <ele>225</ele>
        <time>2026-03-26T10:03:31.000Z</time>
      </trkpt>
      <trkpt lat="48.73103" lon="1.78466">
        <ele>226.1</ele>
        <time>2026-03-26T10:03:32.000Z</time>
      </trkpt>
      <trkpt lat="48.73104" lon="1.78467">
        <ele>225.3</ele>
        <time>2026-03-26T10:03:33.000Z</time>
      </trkpt>
      <trkpt lat="48.73104" lon="1.78469">
        <ele>225.2</ele>
        <time>2026-03-26T10:03:34.000Z</time>
      </trkpt>
      <trkpt lat="48.73104" lon="1.78471">
        <ele>225</ele>
        <time>2026-03-26T10:03:35.000Z</time>
      </trkpt>
      <trkpt lat="48.73105" lon="1.78473">
        <ele>225.3</ele>
        <time>2026-03-26T10:03:36.000Z</time>
      </trkpt>
      <trkpt lat="48.73105" lon="1.78475">
        <ele>225.7</ele>
        <time>2026-03-26T10:03:37.000Z</time>
      </trkpt>
      <trkpt lat="48.73105" lon="1.78477">
        <ele>225</ele>
        <time>2026-03-26T10:03:38.000Z</time>
      </trkpt>
      <trkpt lat="48.73106" lon="1.78478">
        <ele>223.9</ele>
        <time>2026-03-26T10:03:39.000Z</time>
      </trkpt>
      <trkpt lat="48.73106" lon="1.78479">
        <ele>224.1</ele>
        <time>2026-03-26T10:03:40.000Z</time>
      </trkpt>
      <trkpt lat="48.73106" lon="1.7848">
        <ele>223.7</ele>
        <time>2026-03-26T10:03:41.000Z</time>
      </trkpt>
      <trkpt lat="48.73107" lon="1.78482">
        <ele>223.6</ele>
        <time>2026-03-26T10:03:42.000Z</time>
      </trkpt>
      <trkpt lat="48.73107" lon="1.78483">
        <ele>223.2</ele>
        <time>2026-03-26T10:03:43.000Z</time>
      </trkpt>
      <trkpt lat="48.73108" lon="1.78485">
        <ele>223.2</ele>
        <time>2026-03-26T10:03:44.000Z</time>
      </trkpt>
      <trkpt lat="48.73109" lon="1.78486">
        <ele>222.9</ele>
        <time>2026-03-26T10:03:45.000Z</time>
      </trkpt>
      <trkpt lat="48.73109" lon="1.78487">
        <ele>222.6</ele>
        <time>2026-03-26T10:03:46.000Z</time>
      </trkpt>
      <trkpt lat="48.7311" lon="1.78489">
        <ele>222.6</ele>
        <time>2026-03-26T10:03:47.000Z</time>
      </trkpt>
      <trkpt lat="48.7311" lon="1.78491">
        <ele>221.8</ele>
        <time>2026-03-26T10:03:48.000Z</time>
      </trkpt>
      <trkpt lat="48.73111" lon="1.78492">
        <ele>221.7</ele>
        <time>2026-03-26T10:03:49.000Z</time>
      </trkpt>
      <trkpt lat="48.73111" lon="1.78494">
        <ele>221.6</ele>
        <time>2026-03-26T10:03:50.000Z</time>
      </trkpt>
      <trkpt lat="48.73112" lon="1.78496">
        <ele>221.2</ele>
        <time>2026-03-26T10:03:51.000Z</time>
      </trkpt>
      <trkpt lat="48.73113" lon="1.78498">
        <ele>220.9</ele>
        <time>2026-03-26T10:03:52.000Z</time>
      </trkpt>
      <trkpt lat="48.73113" lon="1.785">
        <ele>221.1</ele>
        <time>2026-03-26T10:03:53.000Z</time>
      </trkpt>
      <trkpt lat="48.73114" lon="1.78501">
        <ele>220.6</ele>
        <time>2026-03-26T10:03:54.000Z</time>
      </trkpt>
      <trkpt lat="48.73115" lon="1.78503">
        <ele>220.7</ele>
        <time>2026-03-26T10:03:55.000Z</time>
      </trkpt>
      <trkpt lat="48.73115" lon="1.78505">
        <ele>221</ele>
        <time>2026-03-26T10:03:56.000Z</time>
      </trkpt>
      <trkpt lat="48.73116" lon="1.78507">
        <ele>220.9</ele>
        <time>2026-03-26T10:03:57.000Z</time>
      </trkpt>
      <trkpt lat="48.73116" lon="1.78508">
        <ele>220.5</ele>
        <time>2026-03-26T10:03:58.000Z</time>
      </trkpt>
      <trkpt lat="48.73117" lon="1.7851">
        <ele>220.8</ele>
        <time>2026-03-26T10:03:59.000Z</time>
      </trkpt>
      <trkpt lat="48.73117" lon="1.78512">
        <ele>221</ele>
        <time>2026-03-26T10:04:00.000Z</time>
      </trkpt>
      <trkpt lat="48.73117" lon="1.78514">
        <ele>221.5</ele>
        <time>2026-03-26T10:04:01.000Z</time>
      </trkpt>
      <trkpt lat="48.73118" lon="1.78516">
        <ele>221.1</ele>
        <time>2026-03-26T10:04:02.000Z</time>
      </trkpt>
      <trkpt lat="48.73118" lon="1.78518">
        <ele>220.8</ele>
        <time>2026-03-26T10:04:03.000Z</time>
      </trkpt>
      <trkpt lat="48.73118" lon="1.7852">
        <ele>220.5</ele>
        <time>2026-03-26T10:04:04.000Z</time>
      </trkpt>
      <trkpt lat="48.73119" lon="1.78521">
        <ele>220.3</ele>
        <time>2026-03-26T10:04:05.000Z</time>
      </trkpt>
      <trkpt lat="48.73119" lon="1.78523">
        <ele>220.3</ele>
        <time>2026-03-26T10:04:06.000Z</time>
      </trkpt>
      <trkpt lat="48.7312" lon="1.78524">
        <ele>220.6</ele>
        <time>2026-03-26T10:04:07.000Z</time>
      </trkpt>
      <trkpt lat="48.7312" lon="1.78526">
        <ele>220.8</ele>
        <time>2026-03-26T10:04:08.000Z</time>
      </trkpt>
      <trkpt lat="48.73121" lon="1.78528">
        <ele>220</ele>
        <time>2026-03-26T10:04:09.000Z</time>
      </trkpt>
      <trkpt lat="48.73121" lon="1.7853">
        <ele>220.3</ele>
        <time>2026-03-26T10:04:10.000Z</time>
      </trkpt>
      <trkpt lat="48.73121" lon="1.78531">
        <ele>220.1</ele>
        <time>2026-03-26T10:04:11.000Z</time>
      </trkpt>
      <trkpt lat="48.73121" lon="1.78533">
        <ele>220.1</ele>
        <time>2026-03-26T10:04:12.000Z</time>
      </trkpt>
      <trkpt lat="48.73122" lon="1.78535">
        <ele>220.2</ele>
        <time>2026-03-26T10:04:13.000Z</time>
      </trkpt>
      <trkpt lat="48.73122" lon="1.78537">
        <ele>220.4</ele>
        <time>2026-03-26T10:04:14.000Z</time>
      </trkpt>
      <trkpt lat="48.73123" lon="1.78538">
        <ele>220</ele>
        <time>2026-03-26T10:04:15.000Z</time>
      </trkpt>
      <trkpt lat="48.73123" lon="1.7854">
        <ele>220.2</ele>
        <time>2026-03-26T10:04:16.000Z</time>
      </trkpt>
      <trkpt lat="48.73123" lon="1.78542">
        <ele>220.6</ele>
        <time>2026-03-26T10:04:17.000Z</time>
      </trkpt>
      <trkpt lat="48.73124" lon="1.78544">
        <ele>220.7</ele>
        <time>2026-03-26T10:04:18.000Z</time>
      </trkpt>
      <trkpt lat="48.73124" lon="1.78546">
        <ele>221</ele>
        <time>2026-03-26T10:04:19.000Z</time>
      </trkpt>
      <trkpt lat="48.73125" lon="1.78547">
        <ele>221.2</ele>
        <time>2026-03-26T10:04:20.000Z</time>
      </trkpt>
      <trkpt lat="48.73125" lon="1.78549">
        <ele>220.9</ele>
        <time>2026-03-26T10:04:21.000Z</time>
      </trkpt>
      <trkpt lat="48.73125" lon="1.78551">
        <ele>221.8</ele>
        <time>2026-03-26T10:04:22.000Z</time>
      </trkpt>
      <trkpt lat="48.73126" lon="1.78553">
        <ele>222.1</ele>
        <time>2026-03-26T10:04:23.000Z</time>
      </trkpt>
      <trkpt lat="48.73126" lon="1.78555">
        <ele>221.8</ele>
        <time>2026-03-26T10:04:24.000Z</time>
      </trkpt>
      <trkpt lat="48.73126" lon="1.78557">
        <ele>222.5</ele>
        <time>2026-03-26T10:04:25.000Z</time>
      </trkpt>
      <trkpt lat="48.73126" lon="1.78558">
        <ele>221.7</ele>
        <time>2026-03-26T10:04:26.000Z</time>
      </trkpt>
      <trkpt lat="48.73127" lon="1.7856">
        <ele>221.3</ele>
        <time>2026-03-26T10:04:27.000Z</time>
      </trkpt>
      <trkpt lat="48.73127" lon="1.78561">
        <ele>221.8</ele>
        <time>2026-03-26T10:04:28.000Z</time>
      </trkpt>
      <trkpt lat="48.73128" lon="1.78562">
        <ele>221.6</ele>
        <time>2026-03-26T10:04:29.000Z</time>
      </trkpt>
      <trkpt lat="48.73131" lon="1.7856">
        <ele>221.6</ele>
        <time>2026-03-26T10:04:30.000Z</time>
      </trkpt>
      <trkpt lat="48.7313" lon="1.78557">
        <ele>215.4</ele>
        <time>2026-03-26T10:04:31.000Z</time>
      </trkpt>
      <trkpt lat="48.73129" lon="1.78555">
        <ele>214.2</ele>
        <time>2026-03-26T10:04:32.000Z</time>
      </trkpt>
      <trkpt lat="48.73126" lon="1.78556">
        <ele>214.1</ele>
        <time>2026-03-26T10:04:33.000Z</time>
      </trkpt>
      <trkpt lat="48.73126" lon="1.78562">
        <ele>214</ele>
        <time>2026-03-26T10:04:34.000Z</time>
      </trkpt>
      <trkpt lat="48.73126" lon="1.78565">
        <ele>215</ele>
        <time>2026-03-26T10:04:35.000Z</time>
      </trkpt>
      <trkpt lat="48.73127" lon="1.78567">
        <ele>216</ele>
        <time>2026-03-26T10:04:36.000Z</time>
      </trkpt>
      <trkpt lat="48.73128" lon="1.78569">
        <ele>216.3</ele>
        <time>2026-03-26T10:04:37.000Z</time>
      </trkpt>
      <trkpt lat="48.73128" lon="1.78571">
        <ele>216.4</ele>
        <time>2026-03-26T10:04:38.000Z</time>
      </trkpt>
      <trkpt lat="48.73129" lon="1.78573">
        <ele>217</ele>
        <time>2026-03-26T10:04:39.000Z</time>
      </trkpt>
      <trkpt lat="48.73129" lon="1.78574">
        <ele>217.2</ele>
        <time>2026-03-26T10:04:40.000Z</time>
      </trkpt>
      <trkpt lat="48.73129" lon="1.78576">
        <ele>217</ele>
        <time>2026-03-26T10:04:41.000Z</time>
      </trkpt>
      <trkpt lat="48.7313" lon="1.78578">
        <ele>217.5</ele>
        <time>2026-03-26T10:04:42.000Z</time>
      </trkpt>
      <trkpt lat="48.73131" lon="1.7858">
        <ele>217.5</ele>
        <time>2026-03-26T10:04:43.000Z</time>
      </trkpt>
      <trkpt lat="48.73131" lon="1.78582">
        <ele>217.5</ele>
        <time>2026-03-26T10:04:44.000Z</time>
      </trkpt>
      <trkpt lat="48.73132" lon="1.78584">
        <ele>217.7</ele>
        <time>2026-03-26T10:04:45.000Z</time>
      </trkpt>
      <trkpt lat="48.73133" lon="1.78586">
        <ele>218.7</ele>
        <time>2026-03-26T10:04:46.000Z</time>
      </trkpt>
      <trkpt lat="48.73133" lon="1.78588">
        <ele>219.5</ele>
        <time>2026-03-26T10:04:47.000Z</time>
      </trkpt>
      <trkpt lat="48.73133" lon="1.7859">
        <ele>219.8</ele>
        <time>2026-03-26T10:04:48.000Z</time>
      </trkpt>
      <trkpt lat="48.73133" lon="1.78592">
        <ele>220.7</ele>
        <time>2026-03-26T10:04:49.000Z</time>
      </trkpt>
      <trkpt lat="48.73134" lon="1.78593">
        <ele>220.6</ele>
        <time>2026-03-26T10:04:50.000Z</time>
      </trkpt>
      <trkpt lat="48.73135" lon="1.78595">
        <ele>221</ele>
        <time>2026-03-26T10:04:51.000Z</time>
      </trkpt>
      <trkpt lat="48.73135" lon="1.78597">
        <ele>221.2</ele>
        <time>2026-03-26T10:04:52.000Z</time>
      </trkpt>
      <trkpt lat="48.73136" lon="1.78599">
        <ele>221.4</ele>
        <time>2026-03-26T10:04:53.000Z</time>
      </trkpt>
      <trkpt lat="48.73136" lon="1.78601">
        <ele>221.4</ele>
        <time>2026-03-26T10:04:54.000Z</time>
      </trkpt>
      <trkpt lat="48.73136" lon="1.78603">
        <ele>220.7</ele>
        <time>2026-03-26T10:04:55.000Z</time>
      </trkpt>
      <trkpt lat="48.73137" lon="1.78605">
        <ele>220.1</ele>
        <time>2026-03-26T10:04:56.000Z</time>
      </trkpt>
      <trkpt lat="48.73137" lon="1.78607">
        <ele>220.2</ele>
        <time>2026-03-26T10:04:57.000Z</time>
      </trkpt>
      <trkpt lat="48.73138" lon="1.78609">
        <ele>220</ele>
        <time>2026-03-26T10:04:58.000Z</time>
      </trkpt>
      <trkpt lat="48.73139" lon="1.7861">
        <ele>219.4</ele>
        <time>2026-03-26T10:04:59.000Z</time>
      </trkpt>
      <trkpt lat="48.7314" lon="1.78612">
        <ele>218.8</ele>
        <time>2026-03-26T10:05:00.000Z</time>
      </trkpt>
      <trkpt lat="48.7314" lon="1.78614">
        <ele>218.7</ele>
        <time>2026-03-26T10:05:01.000Z</time>
      </trkpt>
      <trkpt lat="48.73141" lon="1.78616">
        <ele>218.7</ele>
        <time>2026-03-26T10:05:02.000Z</time>
      </trkpt>
      <trkpt lat="48.73141" lon="1.78618">
        <ele>218.5</ele>
        <time>2026-03-26T10:05:03.000Z</time>
      </trkpt>
      <trkpt lat="48.73141" lon="1.78619">
        <ele>218.4</ele>
        <time>2026-03-26T10:05:04.000Z</time>
      </trkpt>
      <trkpt lat="48.73141" lon="1.78621">
        <ele>218.1</ele>
        <time>2026-03-26T10:05:05.000Z</time>
      </trkpt>
      <trkpt lat="48.73141" lon="1.78623">
        <ele>218.6</ele>
        <time>2026-03-26T10:05:06.000Z</time>
      </trkpt>
      <trkpt lat="48.73142" lon="1.78625">
        <ele>218.6</ele>
        <time>2026-03-26T10:05:07.000Z</time>
      </trkpt>
      <trkpt lat="48.73142" lon="1.78628">
        <ele>219</ele>
        <time>2026-03-26T10:05:08.000Z</time>
      </trkpt>
      <trkpt lat="48.73142" lon="1.7863">
        <ele>219.3</ele>
        <time>2026-03-26T10:05:09.000Z</time>
      </trkpt>
      <trkpt lat="48.73142" lon="1.78632">
        <ele>219.2</ele>
        <time>2026-03-26T10:05:10.000Z</time>
      </trkpt>
      <trkpt lat="48.73143" lon="1.78634">
        <ele>219.3</ele>
        <time>2026-03-26T10:05:11.000Z</time>
      </trkpt>
      <trkpt lat="48.73143" lon="1.78636">
        <ele>219.3</ele>
        <time>2026-03-26T10:05:12.000Z</time>
      </trkpt>
      <trkpt lat="48.73143" lon="1.78637">
        <ele>220.5</ele>
        <time>2026-03-26T10:05:13.000Z</time>
      </trkpt>
      <trkpt lat="48.73143" lon="1.78639">
        <ele>220.5</ele>
        <time>2026-03-26T10:05:14.000Z</time>
      </trkpt>
      <trkpt lat="48.73143" lon="1.78641">
        <ele>220.8</ele>
        <time>2026-03-26T10:05:15.000Z</time>
      </trkpt>
      <trkpt lat="48.73144" lon="1.78643">
        <ele>220.2</ele>
        <time>2026-03-26T10:05:16.000Z</time>
      </trkpt>
      <trkpt lat="48.73144" lon="1.78644">
        <ele>220.4</ele>
        <time>2026-03-26T10:05:17.000Z</time>
      </trkpt>
      <trkpt lat="48.73144" lon="1.78646">
        <ele>220.3</ele>
        <time>2026-03-26T10:05:18.000Z</time>
      </trkpt>
      <trkpt lat="48.73145" lon="1.78647">
        <ele>220.6</ele>
        <time>2026-03-26T10:05:19.000Z</time>
      </trkpt>
      <trkpt lat="48.73145" lon="1.78648">
        <ele>220.8</ele>
        <time>2026-03-26T10:05:20.000Z</time>
      </trkpt>
      <trkpt lat="48.73147" lon="1.78649">
        <ele>220.7</ele>
        <time>2026-03-26T10:05:21.000Z</time>
      </trkpt>
      <trkpt lat="48.73147" lon="1.78651">
        <ele>220.3</ele>
        <time>2026-03-26T10:05:22.000Z</time>
      </trkpt>
      <trkpt lat="48.73147" lon="1.78653">
        <ele>220.1</ele>
        <time>2026-03-26T10:05:23.000Z</time>
      </trkpt>
      <trkpt lat="48.73144" lon="1.78654">
        <ele>220.5</ele>
        <time>2026-03-26T10:05:24.000Z</time>
      </trkpt>
      <trkpt lat="48.73143" lon="1.78654">
        <ele>220.7</ele>
        <time>2026-03-26T10:05:25.000Z</time>
      </trkpt>
      <trkpt lat="48.73143" lon="1.78658">
        <ele>221.2</ele>
        <time>2026-03-26T10:05:26.000Z</time>
      </trkpt>
      <trkpt lat="48.73145" lon="1.7866">
        <ele>220.9</ele>
        <time>2026-03-26T10:05:27.000Z</time>
      </trkpt>
      <trkpt lat="48.73146" lon="1.78661">
        <ele>220.4</ele>
        <time>2026-03-26T10:05:28.000Z</time>
      </trkpt>
      <trkpt lat="48.73147" lon="1.78662">
        <ele>220</ele>
        <time>2026-03-26T10:05:29.000Z</time>
      </trkpt>
      <trkpt lat="48.73148" lon="1.78664">
        <ele>219</ele>
        <time>2026-03-26T10:05:30.000Z</time>
      </trkpt>
      <trkpt lat="48.73148" lon="1.78665">
        <ele>218.9</ele>
        <time>2026-03-26T10:05:31.000Z</time>
      </trkpt>
      <trkpt lat="48.73149" lon="1.78666">
        <ele>219.3</ele>
        <time>2026-03-26T10:05:32.000Z</time>
      </trkpt>
      <trkpt lat="48.7315" lon="1.78668">
        <ele>219.4</ele>
        <time>2026-03-26T10:05:33.000Z</time>
      </trkpt>
      <trkpt lat="48.73151" lon="1.78669">
        <ele>219.9</ele>
        <time>2026-03-26T10:05:34.000Z</time>
      </trkpt>
      <trkpt lat="48.73152" lon="1.78671">
        <ele>219.7</ele>
        <time>2026-03-26T10:05:35.000Z</time>
      </trkpt>
      <trkpt lat="48.73152" lon="1.78673">
        <ele>219.2</ele>
        <time>2026-03-26T10:05:36.000Z</time>
      </trkpt>
      <trkpt lat="48.73153" lon="1.78674">
        <ele>218.9</ele>
        <time>2026-03-26T10:05:37.000Z</time>
      </trkpt>
      <trkpt lat="48.73154" lon="1.78676">
        <ele>218.2</ele>
        <time>2026-03-26T10:05:38.000Z</time>
      </trkpt>
      <trkpt lat="48.73154" lon="1.78677">
        <ele>218</ele>
        <time>2026-03-26T10:05:39.000Z</time>
      </trkpt>
      <trkpt lat="48.73155" lon="1.78679">
        <ele>218.6</ele>
        <time>2026-03-26T10:05:40.000Z</time>
      </trkpt>
      <trkpt lat="48.73156" lon="1.78681">
        <ele>218.8</ele>
        <time>2026-03-26T10:05:41.000Z</time>
      </trkpt>
      <trkpt lat="48.73156" lon="1.78683">
        <ele>218.5</ele>
        <time>2026-03-26T10:05:42.000Z</time>
      </trkpt>
      <trkpt lat="48.73157" lon="1.78684">
        <ele>218.1</ele>
        <time>2026-03-26T10:05:43.000Z</time>
      </trkpt>
      <trkpt lat="48.73157" lon="1.78686">
        <ele>217.7</ele>
        <time>2026-03-26T10:05:44.000Z</time>
      </trkpt>
      <trkpt lat="48.73158" lon="1.78688">
        <ele>217.6</ele>
        <time>2026-03-26T10:05:45.000Z</time>
      </trkpt>
      <trkpt lat="48.73158" lon="1.7869">
        <ele>217.6</ele>
        <time>2026-03-26T10:05:46.000Z</time>
      </trkpt>
      <trkpt lat="48.73158" lon="1.78691">
        <ele>216.9</ele>
        <time>2026-03-26T10:05:47.000Z</time>
      </trkpt>
      <trkpt lat="48.73159" lon="1.78693">
        <ele>216.9</ele>
        <time>2026-03-26T10:05:48.000Z</time>
      </trkpt>
      <trkpt lat="48.7316" lon="1.78695">
        <ele>216.6</ele>
        <time>2026-03-26T10:05:49.000Z</time>
      </trkpt>
      <trkpt lat="48.73161" lon="1.78697">
        <ele>217.3</ele>
        <time>2026-03-26T10:05:50.000Z</time>
      </trkpt>
      <trkpt lat="48.73161" lon="1.78699">
        <ele>218.3</ele>
        <time>2026-03-26T10:05:51.000Z</time>
      </trkpt>
      <trkpt lat="48.73162" lon="1.78701">
        <ele>218.7</ele>
        <time>2026-03-26T10:05:52.000Z</time>
      </trkpt>
      <trkpt lat="48.73163" lon="1.78704">
        <ele>219.7</ele>
        <time>2026-03-26T10:05:53.000Z</time>
      </trkpt>
      <trkpt lat="48.73163" lon="1.78706">
        <ele>219.8</ele>
        <time>2026-03-26T10:05:54.000Z</time>
      </trkpt>
      <trkpt lat="48.73164" lon="1.78708">
        <ele>219.8</ele>
        <time>2026-03-26T10:05:55.000Z</time>
      </trkpt>
      <trkpt lat="48.73164" lon="1.7871">
        <ele>219.4</ele>
        <time>2026-03-26T10:05:56.000Z</time>
      </trkpt>
      <trkpt lat="48.73165" lon="1.78712">
        <ele>220.2</ele>
        <time>2026-03-26T10:05:57.000Z</time>
      </trkpt>
      <trkpt lat="48.73166" lon="1.78714">
        <ele>219.9</ele>
        <time>2026-03-26T10:05:58.000Z</time>
      </trkpt>
      <trkpt lat="48.73166" lon="1.78716">
        <ele>218.8</ele>
        <time>2026-03-26T10:05:59.000Z</time>
      </trkpt>
      <trkpt lat="48.73167" lon="1.78718">
        <ele>218</ele>
        <time>2026-03-26T10:06:00.000Z</time>
      </trkpt>
      <trkpt lat="48.73168" lon="1.78719">
        <ele>217.5</ele>
        <time>2026-03-26T10:06:01.000Z</time>
      </trkpt>
      <trkpt lat="48.73168" lon="1.78721">
        <ele>216.9</ele>
        <time>2026-03-26T10:06:02.000Z</time>
      </trkpt>
      <trkpt lat="48.73169" lon="1.78723">
        <ele>217</ele>
        <time>2026-03-26T10:06:03.000Z</time>
      </trkpt>
      <trkpt lat="48.7317" lon="1.78725">
        <ele>215.8</ele>
        <time>2026-03-26T10:06:04.000Z</time>
      </trkpt>
      <trkpt lat="48.7317" lon="1.78727">
        <ele>216.1</ele>
        <time>2026-03-26T10:06:05.000Z</time>
      </trkpt>
      <trkpt lat="48.7317" lon="1.7873">
        <ele>215.8</ele>
        <time>2026-03-26T10:06:06.000Z</time>
      </trkpt>
      <trkpt lat="48.7317" lon="1.78733">
        <ele>216.2</ele>
        <time>2026-03-26T10:06:07.000Z</time>
      </trkpt>
      <trkpt lat="48.7317" lon="1.78735">
        <ele>215.9</ele>
        <time>2026-03-26T10:06:08.000Z</time>
      </trkpt>
      <trkpt lat="48.7317" lon="1.78737">
        <ele>215.9</ele>
        <time>2026-03-26T10:06:09.000Z</time>
      </trkpt>
      <trkpt lat="48.7317" lon="1.78739">
        <ele>216.4</ele>
        <time>2026-03-26T10:06:10.000Z</time>
      </trkpt>
      <trkpt lat="48.73171" lon="1.78741">
        <ele>216.1</ele>
        <time>2026-03-26T10:06:11.000Z</time>
      </trkpt>
      <trkpt lat="48.73171" lon="1.78743">
        <ele>215.8</ele>
        <time>2026-03-26T10:06:12.000Z</time>
      </trkpt>
      <trkpt lat="48.73171" lon="1.78746">
        <ele>217</ele>
        <time>2026-03-26T10:06:13.000Z</time>
      </trkpt>
      <trkpt lat="48.73172" lon="1.78748">
        <ele>216.7</ele>
        <time>2026-03-26T10:06:14.000Z</time>
      </trkpt>
      <trkpt lat="48.73173" lon="1.7875">
        <ele>216.6</ele>
        <time>2026-03-26T10:06:15.000Z</time>
      </trkpt>
      <trkpt lat="48.73173" lon="1.78751">
        <ele>215.9</ele>
        <time>2026-03-26T10:06:16.000Z</time>
      </trkpt>
      <trkpt lat="48.73174" lon="1.78753">
        <ele>216.2</ele>
        <time>2026-03-26T10:06:17.000Z</time>
      </trkpt>
      <trkpt lat="48.73174" lon="1.78756">
        <ele>215.6</ele>
        <time>2026-03-26T10:06:18.000Z</time>
      </trkpt>
      <trkpt lat="48.73174" lon="1.78758">
        <ele>215.9</ele>
        <time>2026-03-26T10:06:19.000Z</time>
      </trkpt>
      <trkpt lat="48.73174" lon="1.7876">
        <ele>215.9</ele>
        <time>2026-03-26T10:06:20.000Z</time>
      </trkpt>
      <trkpt lat="48.73175" lon="1.78762">
        <ele>215.8</ele>
        <time>2026-03-26T10:06:21.000Z</time>
      </trkpt>
      <trkpt lat="48.73175" lon="1.78764">
        <ele>215.7</ele>
        <time>2026-03-26T10:06:22.000Z</time>
      </trkpt>
      <trkpt lat="48.73176" lon="1.78766">
        <ele>216.5</ele>
        <time>2026-03-26T10:06:23.000Z</time>
      </trkpt>
      <trkpt lat="48.73177" lon="1.78767">
        <ele>217.1</ele>
        <time>2026-03-26T10:06:24.000Z</time>
      </trkpt>
      <trkpt lat="48.73178" lon="1.78769">
        <ele>216.3</ele>
        <time>2026-03-26T10:06:25.000Z</time>
      </trkpt>
      <trkpt lat="48.73178" lon="1.78771">
        <ele>216</ele>
        <time>2026-03-26T10:06:26.000Z</time>
      </trkpt>
      <trkpt lat="48.73178" lon="1.78773">
        <ele>215.9</ele>
        <time>2026-03-26T10:06:27.000Z</time>
      </trkpt>
      <trkpt lat="48.73178" lon="1.78775">
        <ele>216.6</ele>
        <time>2026-03-26T10:06:28.000Z</time>
      </trkpt>
      <trkpt lat="48.73179" lon="1.78777">
        <ele>216.7</ele>
        <time>2026-03-26T10:06:29.000Z</time>
      </trkpt>
      <trkpt lat="48.73179" lon="1.78778">
        <ele>217.1</ele>
        <time>2026-03-26T10:06:30.000Z</time>
      </trkpt>
      <trkpt lat="48.73179" lon="1.7878">
        <ele>217.2</ele>
        <time>2026-03-26T10:06:31.000Z</time>
      </trkpt>
      <trkpt lat="48.7318" lon="1.78782">
        <ele>216.9</ele>
        <time>2026-03-26T10:06:32.000Z</time>
      </trkpt>
      <trkpt lat="48.73181" lon="1.78783">
        <ele>216.7</ele>
        <time>2026-03-26T10:06:33.000Z</time>
      </trkpt>
      <trkpt lat="48.73182" lon="1.78784">
        <ele>215.7</ele>
        <time>2026-03-26T10:06:34.000Z</time>
      </trkpt>
      <trkpt lat="48.73183" lon="1.78786">
        <ele>215.5</ele>
        <time>2026-03-26T10:06:35.000Z</time>
      </trkpt>
      <trkpt lat="48.73183" lon="1.78788">
        <ele>215.9</ele>
        <time>2026-03-26T10:06:36.000Z</time>
      </trkpt>
      <trkpt lat="48.73184" lon="1.78789">
        <ele>216.6</ele>
        <time>2026-03-26T10:06:37.000Z</time>
      </trkpt>
      <trkpt lat="48.73185" lon="1.7879">
        <ele>217.2</ele>
        <time>2026-03-26T10:06:38.000Z</time>
      </trkpt>
      <trkpt lat="48.73186" lon="1.78791">
        <ele>216.5</ele>
        <time>2026-03-26T10:06:39.000Z</time>
      </trkpt>
      <trkpt lat="48.73187" lon="1.78792">
        <ele>216.2</ele>
        <time>2026-03-26T10:06:40.000Z</time>
      </trkpt>
      <trkpt lat="48.73188" lon="1.78794">
        <ele>216.9</ele>
        <time>2026-03-26T10:06:41.000Z</time>
      </trkpt>
      <trkpt lat="48.73189" lon="1.78797">
        <ele>216.7</ele>
        <time>2026-03-26T10:06:42.000Z</time>
      </trkpt>
      <trkpt lat="48.7319" lon="1.78798">
        <ele>216.6</ele>
        <time>2026-03-26T10:06:43.000Z</time>
      </trkpt>
      <trkpt lat="48.73191" lon="1.788">
        <ele>216.7</ele>
        <time>2026-03-26T10:06:44.000Z</time>
      </trkpt>
      <trkpt lat="48.73191" lon="1.78802">
        <ele>215.7</ele>
        <time>2026-03-26T10:06:45.000Z</time>
      </trkpt>
      <trkpt lat="48.73192" lon="1.78803">
        <ele>215.8</ele>
        <time>2026-03-26T10:06:46.000Z</time>
      </trkpt>
      <trkpt lat="48.73192" lon="1.78805">
        <ele>215.9</ele>
        <time>2026-03-26T10:06:47.000Z</time>
      </trkpt>
      <trkpt lat="48.73193" lon="1.78806">
        <ele>215.4</ele>
        <time>2026-03-26T10:06:48.000Z</time>
      </trkpt>
      <trkpt lat="48.73194" lon="1.78807">
        <ele>215</ele>
        <time>2026-03-26T10:06:49.000Z</time>
      </trkpt>
      <trkpt lat="48.73195" lon="1.78808">
        <ele>214.9</ele>
        <time>2026-03-26T10:06:50.000Z</time>
      </trkpt>
      <trkpt lat="48.73196" lon="1.7881">
        <ele>215.5</ele>
        <time>2026-03-26T10:06:51.000Z</time>
      </trkpt>
      <trkpt lat="48.73197" lon="1.78811">
        <ele>215.7</ele>
        <time>2026-03-26T10:06:52.000Z</time>
      </trkpt>
      <trkpt lat="48.73199" lon="1.78812">
        <ele>215.8</ele>
        <time>2026-03-26T10:06:53.000Z</time>
      </trkpt>
      <trkpt lat="48.732" lon="1.78813">
        <ele>216.1</ele>
        <time>2026-03-26T10:06:54.000Z</time>
      </trkpt>
      <trkpt lat="48.732" lon="1.78815">
        <ele>216.3</ele>
        <time>2026-03-26T10:06:55.000Z</time>
      </trkpt>
      <trkpt lat="48.73201" lon="1.78816">
        <ele>216.2</ele>
        <time>2026-03-26T10:06:56.000Z</time>
      </trkpt>
      <trkpt lat="48.73201" lon="1.78817">
        <ele>215.9</ele>
        <time>2026-03-26T10:06:57.000Z</time>
      </trkpt>
      <trkpt lat="48.73201" lon="1.78819">
        <ele>215</ele>
        <time>2026-03-26T10:06:58.000Z</time>
      </trkpt>
      <trkpt lat="48.73202" lon="1.78819">
        <ele>215.2</ele>
        <time>2026-03-26T10:06:59.000Z</time>
      </trkpt>
      <trkpt lat="48.73202" lon="1.7882">
        <ele>215.3</ele>
        <time>2026-03-26T10:07:00.000Z</time>
      </trkpt>
      <trkpt lat="48.73201" lon="1.78821">
        <ele>215.8</ele>
        <time>2026-03-26T10:07:01.000Z</time>
      </trkpt>
      <trkpt lat="48.732" lon="1.78819">
        <ele>214</ele>
        <time>2026-03-26T10:07:02.000Z</time>
      </trkpt>
      <trkpt lat="48.732" lon="1.78819">
        <ele>214</ele>
        <time>2026-03-26T10:07:03.000Z</time>
      </trkpt>
      <trkpt lat="48.73199" lon="1.78819">
        <ele>214</ele>
        <time>2026-03-26T10:07:04.000Z</time>
      </trkpt>
      <trkpt lat="48.73199" lon="1.78819">
        <ele>214.1</ele>
        <time>2026-03-26T10:07:05.000Z</time>
      </trkpt>
      <trkpt lat="48.73199" lon="1.78819">
        <ele>214.1</ele>
        <time>2026-03-26T10:07:06.000Z</time>
      </trkpt>
      <trkpt lat="48.73199" lon="1.78819">
        <ele>214.1</ele>
        <time>2026-03-26T10:07:07.000Z</time>
      </trkpt>
      <trkpt lat="48.732" lon="1.78819">
        <ele>214.1</ele>
        <time>2026-03-26T10:07:08.000Z</time>
      </trkpt>
      <trkpt lat="48.732" lon="1.78819">
        <ele>214.1</ele>
        <time>2026-03-26T10:07:09.000Z</time>
      </trkpt>
      <trkpt lat="48.732" lon="1.78819">
        <ele>214.1</ele>
        <time>2026-03-26T10:07:10.000Z</time>
      </trkpt>
      <trkpt lat="48.732" lon="1.78819">
        <ele>214.2</ele>
        <time>2026-03-26T10:07:11.000Z</time>
      </trkpt>
      <trkpt lat="48.732" lon="1.78819">
        <ele>214.2</ele>
        <time>2026-03-26T10:07:12.000Z</time>
      </trkpt>
      <trkpt lat="48.732" lon="1.78819">
        <ele>214.2</ele>
        <time>2026-03-26T10:07:13.000Z</time>
      </trkpt>
      <trkpt lat="48.732" lon="1.78819">
        <ele>214.2</ele>
        <time>2026-03-26T10:07:14.000Z</time>
      </trkpt>
      <trkpt lat="48.732" lon="1.78819">
        <ele>214.2</ele>
        <time>2026-03-26T10:07:15.000Z</time>
      </trkpt>
      <trkpt lat="48.732" lon="1.78819">
        <ele>214.2</ele>
        <time>2026-03-26T10:07:16.000Z</time>
      </trkpt>
      <trkpt lat="48.732" lon="1.78819">
        <ele>214.4</ele>
        <time>2026-03-26T10:07:17.000Z</time>
      </trkpt>
      <trkpt lat="48.732" lon="1.78819">
        <ele>214.4</ele>
        <time>2026-03-26T10:07:18.000Z</time>
      </trkpt>
      <trkpt lat="48.73201" lon="1.7882">
        <ele>214.5</ele>
        <time>2026-03-26T10:07:19.000Z</time>
      </trkpt>
      <trkpt lat="48.73201" lon="1.78821">
        <ele>214.6</ele>
        <time>2026-03-26T10:07:20.000Z</time>
      </trkpt>
      <trkpt lat="48.73201" lon="1.78822">
        <ele>215.3</ele>
        <time>2026-03-26T10:07:21.000Z</time>
      </trkpt>
      <trkpt lat="48.73201" lon="1.78822">
        <ele>214.8</ele>
        <time>2026-03-26T10:07:22.000Z</time>
      </trkpt>
      <trkpt lat="48.73202" lon="1.78823">
        <ele>214.9</ele>
        <time>2026-03-26T10:07:23.000Z</time>
      </trkpt>
      <trkpt lat="48.73202" lon="1.78824">
        <ele>214.9</ele>
        <time>2026-03-26T10:07:24.000Z</time>
      </trkpt>
      <trkpt lat="48.73203" lon="1.78824">
        <ele>215.3</ele>
        <time>2026-03-26T10:07:25.000Z</time>
      </trkpt>
      <trkpt lat="48.73203" lon="1.78824">
        <ele>215.1</ele>
        <time>2026-03-26T10:07:26.000Z</time>
      </trkpt>
      <trkpt lat="48.73204" lon="1.78824">
        <ele>215.2</ele>
        <time>2026-03-26T10:07:27.000Z</time>
      </trkpt>
      <trkpt lat="48.73204" lon="1.78825">
        <ele>215.6</ele>
        <time>2026-03-26T10:07:28.000Z</time>
      </trkpt>
      <trkpt lat="48.73205" lon="1.78826">
        <ele>216.2</ele>
        <time>2026-03-26T10:07:29.000Z</time>
      </trkpt>
      <trkpt lat="48.73205" lon="1.78827">
        <ele>216.2</ele>
        <time>2026-03-26T10:07:30.000Z</time>
      </trkpt>
      <trkpt lat="48.73206" lon="1.78829">
        <ele>216.1</ele>
        <time>2026-03-26T10:07:31.000Z</time>
      </trkpt>
      <trkpt lat="48.73206" lon="1.7883">
        <ele>216.3</ele>
        <time>2026-03-26T10:07:32.000Z</time>
      </trkpt>
      <trkpt lat="48.73206" lon="1.78831">
        <ele>216.6</ele>
        <time>2026-03-26T10:07:33.000Z</time>
      </trkpt>
      <trkpt lat="48.73206" lon="1.78831">
        <ele>216.6</ele>
        <time>2026-03-26T10:07:34.000Z</time>
      </trkpt>
      <trkpt lat="48.73206" lon="1.78832">
        <ele>216.8</ele>
        <time>2026-03-26T10:07:35.000Z</time>
      </trkpt>
      <trkpt lat="48.73206" lon="1.78832">
        <ele>216.8</ele>
        <time>2026-03-26T10:07:36.000Z</time>
      </trkpt>
      <trkpt lat="48.73206" lon="1.78833">
        <ele>217</ele>
        <time>2026-03-26T10:07:37.000Z</time>
      </trkpt>
      <trkpt lat="48.73206" lon="1.78834">
        <ele>217</ele>
        <time>2026-03-26T10:07:38.000Z</time>
      </trkpt>
      <trkpt lat="48.73206" lon="1.78835">
        <ele>217</ele>
        <time>2026-03-26T10:07:39.000Z</time>
      </trkpt>
      <trkpt lat="48.73205" lon="1.78836">
        <ele>217.2</ele>
        <time>2026-03-26T10:07:40.000Z</time>
      </trkpt>
      <trkpt lat="48.73205" lon="1.78837">
        <ele>217.4</ele>
        <time>2026-03-26T10:07:41.000Z</time>
      </trkpt>
      <trkpt lat="48.73204" lon="1.78838">
        <ele>217.9</ele>
        <time>2026-03-26T10:07:42.000Z</time>
      </trkpt>
      <trkpt lat="48.73204" lon="1.7884">
        <ele>217.9</ele>
        <time>2026-03-26T10:07:43.000Z</time>
      </trkpt>
      <trkpt lat="48.73203" lon="1.78841">
        <ele>217.6</ele>
        <time>2026-03-26T10:07:44.000Z</time>
      </trkpt>
      <trkpt lat="48.73203" lon="1.78842">
        <ele>217.6</ele>
        <time>2026-03-26T10:07:45.000Z</time>
      </trkpt>
      <trkpt lat="48.73202" lon="1.78843">
        <ele>217.4</ele>
        <time>2026-03-26T10:07:46.000Z</time>
      </trkpt>
      <trkpt lat="48.73202" lon="1.78844">
        <ele>217.7</ele>
        <time>2026-03-26T10:07:47.000Z</time>
      </trkpt>
      <trkpt lat="48.73201" lon="1.78845">
        <ele>217.2</ele>
        <time>2026-03-26T10:07:48.000Z</time>
      </trkpt>
      <trkpt lat="48.732" lon="1.78846">
        <ele>216.9</ele>
        <time>2026-03-26T10:07:49.000Z</time>
      </trkpt>
      <trkpt lat="48.732" lon="1.78847">
        <ele>216.8</ele>
        <time>2026-03-26T10:07:50.000Z</time>
      </trkpt>
      <trkpt lat="48.73199" lon="1.78849">
        <ele>216.7</ele>
        <time>2026-03-26T10:07:51.000Z</time>
      </trkpt>
      <trkpt lat="48.73199" lon="1.7885">
        <ele>216.7</ele>
        <time>2026-03-26T10:07:52.000Z</time>
      </trkpt>
      <trkpt lat="48.73198" lon="1.78851">
        <ele>216.3</ele>
        <time>2026-03-26T10:07:53.000Z</time>
      </trkpt>
      <trkpt lat="48.73198" lon="1.78852">
        <ele>216.3</ele>
        <time>2026-03-26T10:07:54.000Z</time>
      </trkpt>
      <trkpt lat="48.73197" lon="1.78854">
        <ele>216.3</ele>
        <time>2026-03-26T10:07:55.000Z</time>
      </trkpt>
      <trkpt lat="48.73196" lon="1.78855">
        <ele>216.6</ele>
        <time>2026-03-26T10:07:56.000Z</time>
      </trkpt>
      <trkpt lat="48.73195" lon="1.78857">
        <ele>217</ele>
        <time>2026-03-26T10:07:57.000Z</time>
      </trkpt>
      <trkpt lat="48.73195" lon="1.78858">
        <ele>217.5</ele>
        <time>2026-03-26T10:07:58.000Z</time>
      </trkpt>
      <trkpt lat="48.73194" lon="1.78859">
        <ele>217.7</ele>
        <time>2026-03-26T10:07:59.000Z</time>
      </trkpt>
      <trkpt lat="48.73193" lon="1.78861">
        <ele>217.7</ele>
        <time>2026-03-26T10:08:00.000Z</time>
      </trkpt>
      <trkpt lat="48.73192" lon="1.78862">
        <ele>217.4</ele>
        <time>2026-03-26T10:08:01.000Z</time>
      </trkpt>
      <trkpt lat="48.73191" lon="1.78863">
        <ele>217.1</ele>
        <time>2026-03-26T10:08:02.000Z</time>
      </trkpt>
      <trkpt lat="48.73191" lon="1.78865">
        <ele>217</ele>
        <time>2026-03-26T10:08:03.000Z</time>
      </trkpt>
      <trkpt lat="48.7319" lon="1.78866">
        <ele>216.6</ele>
        <time>2026-03-26T10:08:04.000Z</time>
      </trkpt>
      <trkpt lat="48.7319" lon="1.78868">
        <ele>217.1</ele>
        <time>2026-03-26T10:08:05.000Z</time>
      </trkpt>
      <trkpt lat="48.73189" lon="1.78869">
        <ele>217.4</ele>
        <time>2026-03-26T10:08:06.000Z</time>
      </trkpt>
      <trkpt lat="48.73188" lon="1.7887">
        <ele>217.7</ele>
        <time>2026-03-26T10:08:07.000Z</time>
      </trkpt>
      <trkpt lat="48.73188" lon="1.78872">
        <ele>217.7</ele>
        <time>2026-03-26T10:08:08.000Z</time>
      </trkpt>
      <trkpt lat="48.73187" lon="1.78873">
        <ele>217</ele>
        <time>2026-03-26T10:08:09.000Z</time>
      </trkpt>
      <trkpt lat="48.73186" lon="1.78874">
        <ele>217.3</ele>
        <time>2026-03-26T10:08:10.000Z</time>
      </trkpt>
      <trkpt lat="48.73185" lon="1.78876">
        <ele>217.4</ele>
        <time>2026-03-26T10:08:11.000Z</time>
      </trkpt>
      <trkpt lat="48.73184" lon="1.78877">
        <ele>217.3</ele>
        <time>2026-03-26T10:08:12.000Z</time>
      </trkpt>
      <trkpt lat="48.73183" lon="1.78879">
        <ele>217.3</ele>
        <time>2026-03-26T10:08:13.000Z</time>
      </trkpt>
      <trkpt lat="48.73182" lon="1.7888">
        <ele>217.3</ele>
        <time>2026-03-26T10:08:14.000Z</time>
      </trkpt>
      <trkpt lat="48.73181" lon="1.78882">
        <ele>217.2</ele>
        <time>2026-03-26T10:08:15.000Z</time>
      </trkpt>
      <trkpt lat="48.7318" lon="1.78883">
        <ele>217.2</ele>
        <time>2026-03-26T10:08:16.000Z</time>
      </trkpt>
      <trkpt lat="48.73179" lon="1.78884">
        <ele>217.3</ele>
        <time>2026-03-26T10:08:17.000Z</time>
      </trkpt>
      <trkpt lat="48.73178" lon="1.78886">
        <ele>217.4</ele>
        <time>2026-03-26T10:08:18.000Z</time>
      </trkpt>
      <trkpt lat="48.73177" lon="1.78887">
        <ele>217.4</ele>
        <time>2026-03-26T10:08:19.000Z</time>
      </trkpt>
      <trkpt lat="48.73177" lon="1.78888">
        <ele>217.4</ele>
        <time>2026-03-26T10:08:20.000Z</time>
      </trkpt>
      <trkpt lat="48.73176" lon="1.78889">
        <ele>217.1</ele>
        <time>2026-03-26T10:08:21.000Z</time>
      </trkpt>
      <trkpt lat="48.73175" lon="1.78891">
        <ele>217</ele>
        <time>2026-03-26T10:08:22.000Z</time>
      </trkpt>
      <trkpt lat="48.73174" lon="1.78892">
        <ele>216.9</ele>
        <time>2026-03-26T10:08:23.000Z</time>
      </trkpt>
      <trkpt lat="48.73174" lon="1.78893">
        <ele>216.7</ele>
        <time>2026-03-26T10:08:24.000Z</time>
      </trkpt>
      <trkpt lat="48.73173" lon="1.78894">
        <ele>216.5</ele>
        <time>2026-03-26T10:08:25.000Z</time>
      </trkpt>
      <trkpt lat="48.73173" lon="1.78896">
        <ele>216.4</ele>
        <time>2026-03-26T10:08:26.000Z</time>
      </trkpt>
      <trkpt lat="48.73172" lon="1.78897">
        <ele>216.3</ele>
        <time>2026-03-26T10:08:27.000Z</time>
      </trkpt>
      <trkpt lat="48.73171" lon="1.78899">
        <ele>216.1</ele>
        <time>2026-03-26T10:08:28.000Z</time>
      </trkpt>
      <trkpt lat="48.7317" lon="1.789">
        <ele>216.1</ele>
        <time>2026-03-26T10:08:29.000Z</time>
      </trkpt>
      <trkpt lat="48.73169" lon="1.78901">
        <ele>216.2</ele>
        <time>2026-03-26T10:08:30.000Z</time>
      </trkpt>
      <trkpt lat="48.73168" lon="1.78903">
        <ele>216.3</ele>
        <time>2026-03-26T10:08:31.000Z</time>
      </trkpt>
      <trkpt lat="48.73168" lon="1.78905">
        <ele>216.3</ele>
        <time>2026-03-26T10:08:32.000Z</time>
      </trkpt>
      <trkpt lat="48.73167" lon="1.78906">
        <ele>216.4</ele>
        <time>2026-03-26T10:08:33.000Z</time>
      </trkpt>
      <trkpt lat="48.73166" lon="1.78908">
        <ele>216.2</ele>
        <time>2026-03-26T10:08:34.000Z</time>
      </trkpt>
      <trkpt lat="48.73165" lon="1.7891">
        <ele>216.4</ele>
        <time>2026-03-26T10:08:35.000Z</time>
      </trkpt>
      <trkpt lat="48.73165" lon="1.78911">
        <ele>216.2</ele>
        <time>2026-03-26T10:08:36.000Z</time>
      </trkpt>
      <trkpt lat="48.73164" lon="1.78913">
        <ele>215.8</ele>
        <time>2026-03-26T10:08:37.000Z</time>
      </trkpt>
      <trkpt lat="48.73164" lon="1.78915">
        <ele>216</ele>
        <time>2026-03-26T10:08:38.000Z</time>
      </trkpt>
      <trkpt lat="48.73163" lon="1.78916">
        <ele>217.1</ele>
        <time>2026-03-26T10:08:39.000Z</time>
      </trkpt>
      <trkpt lat="48.73162" lon="1.78918">
        <ele>216.7</ele>
        <time>2026-03-26T10:08:40.000Z</time>
      </trkpt>
      <trkpt lat="48.73161" lon="1.7892">
        <ele>216.4</ele>
        <time>2026-03-26T10:08:41.000Z</time>
      </trkpt>
      <trkpt lat="48.7316" lon="1.78921">
        <ele>216.6</ele>
        <time>2026-03-26T10:08:42.000Z</time>
      </trkpt>
      <trkpt lat="48.73159" lon="1.78922">
        <ele>216.7</ele>
        <time>2026-03-26T10:08:43.000Z</time>
      </trkpt>
      <trkpt lat="48.73158" lon="1.78924">
        <ele>216.5</ele>
        <time>2026-03-26T10:08:44.000Z</time>
      </trkpt>
      <trkpt lat="48.73158" lon="1.78925">
        <ele>216.4</ele>
        <time>2026-03-26T10:08:45.000Z</time>
      </trkpt>
      <trkpt lat="48.73157" lon="1.78927">
        <ele>215.8</ele>
        <time>2026-03-26T10:08:46.000Z</time>
      </trkpt>
      <trkpt lat="48.73156" lon="1.78929">
        <ele>215.6</ele>
        <time>2026-03-26T10:08:47.000Z</time>
      </trkpt>
      <trkpt lat="48.73155" lon="1.7893">
        <ele>215.8</ele>
        <time>2026-03-26T10:08:48.000Z</time>
      </trkpt>
      <trkpt lat="48.73154" lon="1.78932">
        <ele>216</ele>
        <time>2026-03-26T10:08:49.000Z</time>
      </trkpt>
      <trkpt lat="48.73154" lon="1.78934">
        <ele>216.4</ele>
        <time>2026-03-26T10:08:50.000Z</time>
      </trkpt>
      <trkpt lat="48.73153" lon="1.78936">
        <ele>216.8</ele>
        <time>2026-03-26T10:08:51.000Z</time>
      </trkpt>
      <trkpt lat="48.73153" lon="1.78937">
        <ele>216.9</ele>
        <time>2026-03-26T10:08:52.000Z</time>
      </trkpt>
      <trkpt lat="48.73152" lon="1.78939">
        <ele>217</ele>
        <time>2026-03-26T10:08:53.000Z</time>
      </trkpt>
      <trkpt lat="48.73151" lon="1.78941">
        <ele>217</ele>
        <time>2026-03-26T10:08:54.000Z</time>
      </trkpt>
      <trkpt lat="48.73151" lon="1.78943">
        <ele>217</ele>
        <time>2026-03-26T10:08:55.000Z</time>
      </trkpt>
      <trkpt lat="48.7315" lon="1.78945">
        <ele>217.1</ele>
        <time>2026-03-26T10:08:56.000Z</time>
      </trkpt>
      <trkpt lat="48.73149" lon="1.78946">
        <ele>216.9</ele>
        <time>2026-03-26T10:08:57.000Z</time>
      </trkpt>
      <trkpt lat="48.73149" lon="1.78948">
        <ele>217</ele>
        <time>2026-03-26T10:08:58.000Z</time>
      </trkpt>
      <trkpt lat="48.73148" lon="1.7895">
        <ele>217</ele>
        <time>2026-03-26T10:08:59.000Z</time>
      </trkpt>
      <trkpt lat="48.73147" lon="1.78952">
        <ele>216.9</ele>
        <time>2026-03-26T10:09:00.000Z</time>
      </trkpt>
      <trkpt lat="48.73147" lon="1.78954">
        <ele>216.9</ele>
        <time>2026-03-26T10:09:01.000Z</time>
      </trkpt>
      <trkpt lat="48.73146" lon="1.78956">
        <ele>216.9</ele>
        <time>2026-03-26T10:09:02.000Z</time>
      </trkpt>
      <trkpt lat="48.73145" lon="1.78957">
        <ele>216.8</ele>
        <time>2026-03-26T10:09:03.000Z</time>
      </trkpt>
      <trkpt lat="48.73144" lon="1.78959">
        <ele>216.7</ele>
        <time>2026-03-26T10:09:04.000Z</time>
      </trkpt>
      <trkpt lat="48.73143" lon="1.7896">
        <ele>216.8</ele>
        <time>2026-03-26T10:09:05.000Z</time>
      </trkpt>
      <trkpt lat="48.73142" lon="1.78962">
        <ele>216.9</ele>
        <time>2026-03-26T10:09:06.000Z</time>
      </trkpt>
      <trkpt lat="48.73142" lon="1.78964">
        <ele>216.8</ele>
        <time>2026-03-26T10:09:07.000Z</time>
      </trkpt>
      <trkpt lat="48.73141" lon="1.78965">
        <ele>216.7</ele>
        <time>2026-03-26T10:09:08.000Z</time>
      </trkpt>
      <trkpt lat="48.7314" lon="1.78967">
        <ele>216.5</ele>
        <time>2026-03-26T10:09:09.000Z</time>
      </trkpt>
      <trkpt lat="48.7314" lon="1.78969">
        <ele>216.5</ele>
        <time>2026-03-26T10:09:10.000Z</time>
      </trkpt>
      <trkpt lat="48.73139" lon="1.78971">
        <ele>216.4</ele>
        <time>2026-03-26T10:09:11.000Z</time>
      </trkpt>
      <trkpt lat="48.73138" lon="1.78972">
        <ele>216.4</ele>
        <time>2026-03-26T10:09:12.000Z</time>
      </trkpt>
      <trkpt lat="48.73137" lon="1.78974">
        <ele>216.2</ele>
        <time>2026-03-26T10:09:13.000Z</time>
      </trkpt>
      <trkpt lat="48.73136" lon="1.78976">
        <ele>216.5</ele>
        <time>2026-03-26T10:09:14.000Z</time>
      </trkpt>
      <trkpt lat="48.73135" lon="1.78977">
        <ele>216.4</ele>
        <time>2026-03-26T10:09:15.000Z</time>
      </trkpt>
      <trkpt lat="48.73135" lon="1.78979">
        <ele>216.7</ele>
        <time>2026-03-26T10:09:16.000Z</time>
      </trkpt>
      <trkpt lat="48.73134" lon="1.78981">
        <ele>216.9</ele>
        <time>2026-03-26T10:09:17.000Z</time>
      </trkpt>
      <trkpt lat="48.73134" lon="1.78982">
        <ele>217</ele>
        <time>2026-03-26T10:09:18.000Z</time>
      </trkpt>
      <trkpt lat="48.73133" lon="1.78984">
        <ele>217.3</ele>
        <time>2026-03-26T10:09:19.000Z</time>
      </trkpt>
      <trkpt lat="48.73132" lon="1.78985">
        <ele>217.3</ele>
        <time>2026-03-26T10:09:20.000Z</time>
      </trkpt>
      <trkpt lat="48.73132" lon="1.78987">
        <ele>217</ele>
        <time>2026-03-26T10:09:21.000Z</time>
      </trkpt>
      <trkpt lat="48.73131" lon="1.78988">
        <ele>217.1</ele>
        <time>2026-03-26T10:09:22.000Z</time>
      </trkpt>
      <trkpt lat="48.7313" lon="1.78989">
        <ele>217.2</ele>
        <time>2026-03-26T10:09:23.000Z</time>
      </trkpt>
      <trkpt lat="48.7313" lon="1.78991">
        <ele>216.9</ele>
        <time>2026-03-26T10:09:24.000Z</time>
      </trkpt>
      <trkpt lat="48.73129" lon="1.78993">
        <ele>216.7</ele>
        <time>2026-03-26T10:09:25.000Z</time>
      </trkpt>
      <trkpt lat="48.73128" lon="1.78994">
        <ele>216.6</ele>
        <time>2026-03-26T10:09:26.000Z</time>
      </trkpt>
      <trkpt lat="48.73128" lon="1.78996">
        <ele>216.8</ele>
        <time>2026-03-26T10:09:27.000Z</time>
      </trkpt>
      <trkpt lat="48.73127" lon="1.78998">
        <ele>217.1</ele>
        <time>2026-03-26T10:09:28.000Z</time>
      </trkpt>
      <trkpt lat="48.73127" lon="1.79">
        <ele>217</ele>
        <time>2026-03-26T10:09:29.000Z</time>
      </trkpt>
      <trkpt lat="48.73126" lon="1.79002">
        <ele>217</ele>
        <time>2026-03-26T10:09:30.000Z</time>
      </trkpt>
      <trkpt lat="48.73125" lon="1.79003">
        <ele>217.1</ele>
        <time>2026-03-26T10:09:31.000Z</time>
      </trkpt>
      <trkpt lat="48.73125" lon="1.79005">
        <ele>217</ele>
        <time>2026-03-26T10:09:32.000Z</time>
      </trkpt>
      <trkpt lat="48.73124" lon="1.79007">
        <ele>217.1</ele>
        <time>2026-03-26T10:09:33.000Z</time>
      </trkpt>
      <trkpt lat="48.73123" lon="1.79009">
        <ele>216.8</ele>
        <time>2026-03-26T10:09:34.000Z</time>
      </trkpt>
      <trkpt lat="48.73122" lon="1.7901">
        <ele>216.8</ele>
        <time>2026-03-26T10:09:35.000Z</time>
      </trkpt>
      <trkpt lat="48.73121" lon="1.79012">
        <ele>217.1</ele>
        <time>2026-03-26T10:09:36.000Z</time>
      </trkpt>
      <trkpt lat="48.7312" lon="1.79014">
        <ele>217.5</ele>
        <time>2026-03-26T10:09:37.000Z</time>
      </trkpt>
      <trkpt lat="48.73119" lon="1.79015">
        <ele>217.2</ele>
        <time>2026-03-26T10:09:38.000Z</time>
      </trkpt>
      <trkpt lat="48.73118" lon="1.79017">
        <ele>217.2</ele>
        <time>2026-03-26T10:09:39.000Z</time>
      </trkpt>
      <trkpt lat="48.73117" lon="1.79018">
        <ele>217.2</ele>
        <time>2026-03-26T10:09:40.000Z</time>
      </trkpt>
      <trkpt lat="48.73117" lon="1.7902">
        <ele>217.7</ele>
        <time>2026-03-26T10:09:41.000Z</time>
      </trkpt>
      <trkpt lat="48.73116" lon="1.79022">
        <ele>217.5</ele>
        <time>2026-03-26T10:09:42.000Z</time>
      </trkpt>
      <trkpt lat="48.73115" lon="1.79023">
        <ele>217.3</ele>
        <time>2026-03-26T10:09:43.000Z</time>
      </trkpt>
      <trkpt lat="48.73114" lon="1.79025">
        <ele>217.3</ele>
        <time>2026-03-26T10:09:44.000Z</time>
      </trkpt>
      <trkpt lat="48.73114" lon="1.79027">
        <ele>217.2</ele>
        <time>2026-03-26T10:09:45.000Z</time>
      </trkpt>
      <trkpt lat="48.73113" lon="1.79029">
        <ele>217.6</ele>
        <time>2026-03-26T10:09:46.000Z</time>
      </trkpt>
      <trkpt lat="48.73112" lon="1.79031">
        <ele>217.9</ele>
        <time>2026-03-26T10:09:47.000Z</time>
      </trkpt>
      <trkpt lat="48.73112" lon="1.79032">
        <ele>217.8</ele>
        <time>2026-03-26T10:09:48.000Z</time>
      </trkpt>
      <trkpt lat="48.73111" lon="1.79034">
        <ele>217.4</ele>
        <time>2026-03-26T10:09:49.000Z</time>
      </trkpt>
      <trkpt lat="48.7311" lon="1.79035">
        <ele>217.2</ele>
        <time>2026-03-26T10:09:50.000Z</time>
      </trkpt>
      <trkpt lat="48.73109" lon="1.79037">
        <ele>217.1</ele>
        <time>2026-03-26T10:09:51.000Z</time>
      </trkpt>
      <trkpt lat="48.73109" lon="1.79039">
        <ele>217</ele>
        <time>2026-03-26T10:09:52.000Z</time>
      </trkpt>
      <trkpt lat="48.73108" lon="1.7904">
        <ele>216.9</ele>
        <time>2026-03-26T10:09:53.000Z</time>
      </trkpt>
      <trkpt lat="48.73107" lon="1.79042">
        <ele>217</ele>
        <time>2026-03-26T10:09:54.000Z</time>
      </trkpt>
      <trkpt lat="48.73107" lon="1.79044">
        <ele>217</ele>
        <time>2026-03-26T10:09:55.000Z</time>
      </trkpt>
      <trkpt lat="48.73106" lon="1.79045">
        <ele>216.9</ele>
        <time>2026-03-26T10:09:56.000Z</time>
      </trkpt>
      <trkpt lat="48.73105" lon="1.79047">
        <ele>216.5</ele>
        <time>2026-03-26T10:09:57.000Z</time>
      </trkpt>
      <trkpt lat="48.73105" lon="1.79049">
        <ele>216.5</ele>
        <time>2026-03-26T10:09:58.000Z</time>
      </trkpt>
      <trkpt lat="48.73104" lon="1.7905">
        <ele>216.4</ele>
        <time>2026-03-26T10:09:59.000Z</time>
      </trkpt>
      <trkpt lat="48.73103" lon="1.79052">
        <ele>216.4</ele>
        <time>2026-03-26T10:10:00.000Z</time>
      </trkpt>
      <trkpt lat="48.73102" lon="1.79054">
        <ele>216.6</ele>
        <time>2026-03-26T10:10:01.000Z</time>
      </trkpt>
      <trkpt lat="48.73102" lon="1.79055">
        <ele>216.9</ele>
        <time>2026-03-26T10:10:02.000Z</time>
      </trkpt>
      <trkpt lat="48.73101" lon="1.79057">
        <ele>216.8</ele>
        <time>2026-03-26T10:10:03.000Z</time>
      </trkpt>
      <trkpt lat="48.731" lon="1.79058">
        <ele>216.6</ele>
        <time>2026-03-26T10:10:04.000Z</time>
      </trkpt>
      <trkpt lat="48.73099" lon="1.7906">
        <ele>217</ele>
        <time>2026-03-26T10:10:05.000Z</time>
      </trkpt>
      <trkpt lat="48.73098" lon="1.79062">
        <ele>217.1</ele>
        <time>2026-03-26T10:10:06.000Z</time>
      </trkpt>
      <trkpt lat="48.73097" lon="1.79063">
        <ele>217.2</ele>
        <time>2026-03-26T10:10:07.000Z</time>
      </trkpt>
      <trkpt lat="48.73096" lon="1.79065">
        <ele>217.1</ele>
        <time>2026-03-26T10:10:08.000Z</time>
      </trkpt>
      <trkpt lat="48.73096" lon="1.79066">
        <ele>217.1</ele>
        <time>2026-03-26T10:10:09.000Z</time>
      </trkpt>
      <trkpt lat="48.73095" lon="1.79068">
        <ele>217</ele>
        <time>2026-03-26T10:10:10.000Z</time>
      </trkpt>
      <trkpt lat="48.73094" lon="1.79069">
        <ele>217.1</ele>
        <time>2026-03-26T10:10:11.000Z</time>
      </trkpt>
      <trkpt lat="48.73093" lon="1.79071">
        <ele>216.7</ele>
        <time>2026-03-26T10:10:12.000Z</time>
      </trkpt>
      <trkpt lat="48.73092" lon="1.79073">
        <ele>216.8</ele>
        <time>2026-03-26T10:10:13.000Z</time>
      </trkpt>
      <trkpt lat="48.73092" lon="1.79074">
        <ele>217</ele>
        <time>2026-03-26T10:10:14.000Z</time>
      </trkpt>
      <trkpt lat="48.73091" lon="1.79076">
        <ele>217.5</ele>
        <time>2026-03-26T10:10:15.000Z</time>
      </trkpt>
      <trkpt lat="48.7309" lon="1.79078">
        <ele>217.7</ele>
        <time>2026-03-26T10:10:16.000Z</time>
      </trkpt>
      <trkpt lat="48.7309" lon="1.79079">
        <ele>217.7</ele>
        <time>2026-03-26T10:10:17.000Z</time>
      </trkpt>
      <trkpt lat="48.73089" lon="1.79081">
        <ele>217.7</ele>
        <time>2026-03-26T10:10:18.000Z</time>
      </trkpt>
      <trkpt lat="48.73088" lon="1.79083">
        <ele>217.9</ele>
        <time>2026-03-26T10:10:19.000Z</time>
      </trkpt>
      <trkpt lat="48.73088" lon="1.79084">
        <ele>217.8</ele>
        <time>2026-03-26T10:10:20.000Z</time>
      </trkpt>
      <trkpt lat="48.73087" lon="1.79086">
        <ele>217.6</ele>
        <time>2026-03-26T10:10:21.000Z</time>
      </trkpt>
      <trkpt lat="48.73086" lon="1.79087">
        <ele>217.5</ele>
        <time>2026-03-26T10:10:22.000Z</time>
      </trkpt>
      <trkpt lat="48.73085" lon="1.79089">
        <ele>217.6</ele>
        <time>2026-03-26T10:10:23.000Z</time>
      </trkpt>
      <trkpt lat="48.73085" lon="1.7909">
        <ele>218</ele>
        <time>2026-03-26T10:10:24.000Z</time>
      </trkpt>
      <trkpt lat="48.73084" lon="1.79092">
        <ele>218.2</ele>
        <time>2026-03-26T10:10:25.000Z</time>
      </trkpt>
      <trkpt lat="48.73083" lon="1.79093">
        <ele>218.8</ele>
        <time>2026-03-26T10:10:26.000Z</time>
      </trkpt>
      <trkpt lat="48.73083" lon="1.79095">
        <ele>218.8</ele>
        <time>2026-03-26T10:10:27.000Z</time>
      </trkpt>
      <trkpt lat="48.73082" lon="1.79096">
        <ele>218.7</ele>
        <time>2026-03-26T10:10:28.000Z</time>
      </trkpt>
      <trkpt lat="48.73081" lon="1.79098">
        <ele>218.6</ele>
        <time>2026-03-26T10:10:29.000Z</time>
      </trkpt>
      <trkpt lat="48.73081" lon="1.791">
        <ele>218.3</ele>
        <time>2026-03-26T10:10:30.000Z</time>
      </trkpt>
      <trkpt lat="48.7308" lon="1.79101">
        <ele>217.9</ele>
        <time>2026-03-26T10:10:31.000Z</time>
      </trkpt>
      <trkpt lat="48.73079" lon="1.79103">
        <ele>218</ele>
        <time>2026-03-26T10:10:32.000Z</time>
      </trkpt>
      <trkpt lat="48.73079" lon="1.79104">
        <ele>218.1</ele>
        <time>2026-03-26T10:10:33.000Z</time>
      </trkpt>
      <trkpt lat="48.73078" lon="1.79106">
        <ele>218.1</ele>
        <time>2026-03-26T10:10:34.000Z</time>
      </trkpt>
      <trkpt lat="48.73077" lon="1.79107">
        <ele>217.9</ele>
        <time>2026-03-26T10:10:35.000Z</time>
      </trkpt>
      <trkpt lat="48.73076" lon="1.79109">
        <ele>218.1</ele>
        <time>2026-03-26T10:10:36.000Z</time>
      </trkpt>
      <trkpt lat="48.73075" lon="1.79111">
        <ele>217.9</ele>
        <time>2026-03-26T10:10:37.000Z</time>
      </trkpt>
      <trkpt lat="48.73075" lon="1.79113">
        <ele>217.8</ele>
        <time>2026-03-26T10:10:38.000Z</time>
      </trkpt>
      <trkpt lat="48.73074" lon="1.79114">
        <ele>217.5</ele>
        <time>2026-03-26T10:10:39.000Z</time>
      </trkpt>
      <trkpt lat="48.73073" lon="1.79116">
        <ele>217.4</ele>
        <time>2026-03-26T10:10:40.000Z</time>
      </trkpt>
      <trkpt lat="48.73072" lon="1.79118">
        <ele>217.5</ele>
        <time>2026-03-26T10:10:41.000Z</time>
      </trkpt>
      <trkpt lat="48.73072" lon="1.7912">
        <ele>217.2</ele>
        <time>2026-03-26T10:10:42.000Z</time>
      </trkpt>
      <trkpt lat="48.73071" lon="1.79122">
        <ele>217.2</ele>
        <time>2026-03-26T10:10:43.000Z</time>
      </trkpt>
      <trkpt lat="48.7307" lon="1.79124">
        <ele>217.1</ele>
        <time>2026-03-26T10:10:44.000Z</time>
      </trkpt>
      <trkpt lat="48.7307" lon="1.79126">
        <ele>217.1</ele>
        <time>2026-03-26T10:10:45.000Z</time>
      </trkpt>
      <trkpt lat="48.73069" lon="1.79128">
        <ele>217.3</ele>
        <time>2026-03-26T10:10:46.000Z</time>
      </trkpt>
      <trkpt lat="48.73068" lon="1.79129">
        <ele>217.2</ele>
        <time>2026-03-26T10:10:47.000Z</time>
      </trkpt>
      <trkpt lat="48.73068" lon="1.79131">
        <ele>217.4</ele>
        <time>2026-03-26T10:10:48.000Z</time>
      </trkpt>
      <trkpt lat="48.73067" lon="1.79133">
        <ele>217.7</ele>
        <time>2026-03-26T10:10:49.000Z</time>
      </trkpt>
      <trkpt lat="48.73066" lon="1.79135">
        <ele>217.8</ele>
        <time>2026-03-26T10:10:50.000Z</time>
      </trkpt>
      <trkpt lat="48.73065" lon="1.79136">
        <ele>217.5</ele>
        <time>2026-03-26T10:10:51.000Z</time>
      </trkpt>
      <trkpt lat="48.73065" lon="1.79138">
        <ele>217.6</ele>
        <time>2026-03-26T10:10:52.000Z</time>
      </trkpt>
      <trkpt lat="48.73064" lon="1.7914">
        <ele>217.4</ele>
        <time>2026-03-26T10:10:53.000Z</time>
      </trkpt>
      <trkpt lat="48.73063" lon="1.79141">
        <ele>217.4</ele>
        <time>2026-03-26T10:10:54.000Z</time>
      </trkpt>
      <trkpt lat="48.73063" lon="1.79143">
        <ele>217.5</ele>
        <time>2026-03-26T10:10:55.000Z</time>
      </trkpt>
      <trkpt lat="48.73062" lon="1.79145">
        <ele>217.6</ele>
        <time>2026-03-26T10:10:56.000Z</time>
      </trkpt>
      <trkpt lat="48.73061" lon="1.79146">
        <ele>217.7</ele>
        <time>2026-03-26T10:10:57.000Z</time>
      </trkpt>
      <trkpt lat="48.73061" lon="1.79147">
        <ele>217.6</ele>
        <time>2026-03-26T10:10:58.000Z</time>
      </trkpt>
      <trkpt lat="48.7306" lon="1.79149">
        <ele>217.3</ele>
        <time>2026-03-26T10:10:59.000Z</time>
      </trkpt>
      <trkpt lat="48.73059" lon="1.7915">
        <ele>216.8</ele>
        <time>2026-03-26T10:11:00.000Z</time>
      </trkpt>
      <trkpt lat="48.73059" lon="1.79152">
        <ele>216.7</ele>
        <time>2026-03-26T10:11:01.000Z</time>
      </trkpt>
      <trkpt lat="48.73058" lon="1.79153">
        <ele>216.6</ele>
        <time>2026-03-26T10:11:02.000Z</time>
      </trkpt>
      <trkpt lat="48.73057" lon="1.79155">
        <ele>216.5</ele>
        <time>2026-03-26T10:11:03.000Z</time>
      </trkpt>
      <trkpt lat="48.73056" lon="1.79157">
        <ele>216.4</ele>
        <time>2026-03-26T10:11:04.000Z</time>
      </trkpt>
      <trkpt lat="48.73056" lon="1.79158">
        <ele>216.3</ele>
        <time>2026-03-26T10:11:05.000Z</time>
      </trkpt>
      <trkpt lat="48.73055" lon="1.7916">
        <ele>216.4</ele>
        <time>2026-03-26T10:11:06.000Z</time>
      </trkpt>
      <trkpt lat="48.73054" lon="1.79161">
        <ele>216.3</ele>
        <time>2026-03-26T10:11:07.000Z</time>
      </trkpt>
      <trkpt lat="48.73053" lon="1.79163">
        <ele>216.4</ele>
        <time>2026-03-26T10:11:08.000Z</time>
      </trkpt>
      <trkpt lat="48.73052" lon="1.79165">
        <ele>216.3</ele>
        <time>2026-03-26T10:11:09.000Z</time>
      </trkpt>
      <trkpt lat="48.73052" lon="1.79166">
        <ele>216.2</ele>
        <time>2026-03-26T10:11:10.000Z</time>
      </trkpt>
      <trkpt lat="48.73051" lon="1.79168">
        <ele>216.1</ele>
        <time>2026-03-26T10:11:11.000Z</time>
      </trkpt>
      <trkpt lat="48.7305" lon="1.7917">
        <ele>216</ele>
        <time>2026-03-26T10:11:12.000Z</time>
      </trkpt>
      <trkpt lat="48.7305" lon="1.79171">
        <ele>216.1</ele>
        <time>2026-03-26T10:11:13.000Z</time>
      </trkpt>
      <trkpt lat="48.73049" lon="1.79173">
        <ele>216.3</ele>
        <time>2026-03-26T10:11:14.000Z</time>
      </trkpt>
      <trkpt lat="48.73048" lon="1.79175">
        <ele>216.3</ele>
        <time>2026-03-26T10:11:15.000Z</time>
      </trkpt>
      <trkpt lat="48.73048" lon="1.79176">
        <ele>216.4</ele>
        <time>2026-03-26T10:11:16.000Z</time>
      </trkpt>
      <trkpt lat="48.73047" lon="1.79178">
        <ele>216.7</ele>
        <time>2026-03-26T10:11:17.000Z</time>
      </trkpt>
      <trkpt lat="48.73046" lon="1.7918">
        <ele>216.7</ele>
        <time>2026-03-26T10:11:18.000Z</time>
      </trkpt>
      <trkpt lat="48.73046" lon="1.79181">
        <ele>216.7</ele>
        <time>2026-03-26T10:11:19.000Z</time>
      </trkpt>
      <trkpt lat="48.73045" lon="1.79183">
        <ele>216.8</ele>
        <time>2026-03-26T10:11:20.000Z</time>
      </trkpt>
      <trkpt lat="48.73044" lon="1.79185">
        <ele>216.8</ele>
        <time>2026-03-26T10:11:21.000Z</time>
      </trkpt>
      <trkpt lat="48.73044" lon="1.79186">
        <ele>216.6</ele>
        <time>2026-03-26T10:11:22.000Z</time>
      </trkpt>
      <trkpt lat="48.73043" lon="1.79188">
        <ele>216.7</ele>
        <time>2026-03-26T10:11:23.000Z</time>
      </trkpt>
      <trkpt lat="48.73042" lon="1.7919">
        <ele>216.7</ele>
        <time>2026-03-26T10:11:24.000Z</time>
      </trkpt>
      <trkpt lat="48.73041" lon="1.79191">
        <ele>216.5</ele>
        <time>2026-03-26T10:11:25.000Z</time>
      </trkpt>
      <trkpt lat="48.73041" lon="1.79193">
        <ele>216.6</ele>
        <time>2026-03-26T10:11:26.000Z</time>
      </trkpt>
      <trkpt lat="48.7304" lon="1.79194">
        <ele>216.7</ele>
        <time>2026-03-26T10:11:27.000Z</time>
      </trkpt>
      <trkpt lat="48.7304" lon="1.79196">
        <ele>216.6</ele>
        <time>2026-03-26T10:11:28.000Z</time>
      </trkpt>
      <trkpt lat="48.73039" lon="1.79197">
        <ele>216.6</ele>
        <time>2026-03-26T10:11:29.000Z</time>
      </trkpt>
      <trkpt lat="48.73038" lon="1.79199">
        <ele>216.4</ele>
        <time>2026-03-26T10:11:30.000Z</time>
      </trkpt>
      <trkpt lat="48.73037" lon="1.792">
        <ele>216.4</ele>
        <time>2026-03-26T10:11:31.000Z</time>
      </trkpt>
      <trkpt lat="48.73036" lon="1.79202">
        <ele>216.7</ele>
        <time>2026-03-26T10:11:32.000Z</time>
      </trkpt>
      <trkpt lat="48.73036" lon="1.79204">
        <ele>216.6</ele>
        <time>2026-03-26T10:11:33.000Z</time>
      </trkpt>
      <trkpt lat="48.73035" lon="1.79205">
        <ele>216.7</ele>
        <time>2026-03-26T10:11:34.000Z</time>
      </trkpt>
      <trkpt lat="48.73034" lon="1.79207">
        <ele>216.6</ele>
        <time>2026-03-26T10:11:35.000Z</time>
      </trkpt>
      <trkpt lat="48.73033" lon="1.79209">
        <ele>216.5</ele>
        <time>2026-03-26T10:11:36.000Z</time>
      </trkpt>
      <trkpt lat="48.73033" lon="1.7921">
        <ele>216.5</ele>
        <time>2026-03-26T10:11:37.000Z</time>
      </trkpt>
      <trkpt lat="48.73032" lon="1.79212">
        <ele>216.4</ele>
        <time>2026-03-26T10:11:38.000Z</time>
      </trkpt>
      <trkpt lat="48.73031" lon="1.79214">
        <ele>216.3</ele>
        <time>2026-03-26T10:11:39.000Z</time>
      </trkpt>
      <trkpt lat="48.7303" lon="1.79215">
        <ele>216.2</ele>
        <time>2026-03-26T10:11:40.000Z</time>
      </trkpt>
      <trkpt lat="48.7303" lon="1.79216">
        <ele>216.4</ele>
        <time>2026-03-26T10:11:41.000Z</time>
      </trkpt>
      <trkpt lat="48.73029" lon="1.79218">
        <ele>216.1</ele>
        <time>2026-03-26T10:11:42.000Z</time>
      </trkpt>
      <trkpt lat="48.73029" lon="1.79219">
        <ele>216.1</ele>
        <time>2026-03-26T10:11:43.000Z</time>
      </trkpt>
      <trkpt lat="48.73028" lon="1.79221">
        <ele>216.2</ele>
        <time>2026-03-26T10:11:44.000Z</time>
      </trkpt>
      <trkpt lat="48.73027" lon="1.79222">
        <ele>216.4</ele>
        <time>2026-03-26T10:11:45.000Z</time>
      </trkpt>
      <trkpt lat="48.73026" lon="1.79224">
        <ele>216.5</ele>
        <time>2026-03-26T10:11:46.000Z</time>
      </trkpt>
      <trkpt lat="48.73026" lon="1.79226">
        <ele>216.8</ele>
        <time>2026-03-26T10:11:47.000Z</time>
      </trkpt>
      <trkpt lat="48.73025" lon="1.79227">
        <ele>216.6</ele>
        <time>2026-03-26T10:11:48.000Z</time>
      </trkpt>
      <trkpt lat="48.73024" lon="1.79229">
        <ele>216.6</ele>
        <time>2026-03-26T10:11:49.000Z</time>
      </trkpt>
      <trkpt lat="48.73024" lon="1.7923">
        <ele>216.5</ele>
        <time>2026-03-26T10:11:50.000Z</time>
      </trkpt>
      <trkpt lat="48.73023" lon="1.79232">
        <ele>216.5</ele>
        <time>2026-03-26T10:11:51.000Z</time>
      </trkpt>
      <trkpt lat="48.73022" lon="1.79233">
        <ele>216.4</ele>
        <time>2026-03-26T10:11:52.000Z</time>
      </trkpt>
      <trkpt lat="48.73022" lon="1.79235">
        <ele>216.5</ele>
        <time>2026-03-26T10:11:53.000Z</time>
      </trkpt>
      <trkpt lat="48.73021" lon="1.79237">
        <ele>216.3</ele>
        <time>2026-03-26T10:11:54.000Z</time>
      </trkpt>
      <trkpt lat="48.7302" lon="1.79238">
        <ele>216.3</ele>
        <time>2026-03-26T10:11:55.000Z</time>
      </trkpt>
      <trkpt lat="48.7302" lon="1.7924">
        <ele>216.1</ele>
        <time>2026-03-26T10:11:56.000Z</time>
      </trkpt>
      <trkpt lat="48.73019" lon="1.79241">
        <ele>216</ele>
        <time>2026-03-26T10:11:57.000Z</time>
      </trkpt>
      <trkpt lat="48.73018" lon="1.79243">
        <ele>215.8</ele>
        <time>2026-03-26T10:11:58.000Z</time>
      </trkpt>
      <trkpt lat="48.73018" lon="1.79245">
        <ele>215.6</ele>
        <time>2026-03-26T10:11:59.000Z</time>
      </trkpt>
      <trkpt lat="48.73017" lon="1.79246">
        <ele>215.6</ele>
        <time>2026-03-26T10:12:00.000Z</time>
      </trkpt>
      <trkpt lat="48.73016" lon="1.79248">
        <ele>215.6</ele>
        <time>2026-03-26T10:12:01.000Z</time>
      </trkpt>
      <trkpt lat="48.73015" lon="1.79249">
        <ele>215.7</ele>
        <time>2026-03-26T10:12:02.000Z</time>
      </trkpt>
      <trkpt lat="48.73015" lon="1.79251">
        <ele>215.8</ele>
        <time>2026-03-26T10:12:03.000Z</time>
      </trkpt>
      <trkpt lat="48.73014" lon="1.79252">
        <ele>215.6</ele>
        <time>2026-03-26T10:12:04.000Z</time>
      </trkpt>
      <trkpt lat="48.73013" lon="1.79254">
        <ele>215.6</ele>
        <time>2026-03-26T10:12:05.000Z</time>
      </trkpt>
      <trkpt lat="48.73013" lon="1.79255">
        <ele>215.6</ele>
        <time>2026-03-26T10:12:06.000Z</time>
      </trkpt>
      <trkpt lat="48.73012" lon="1.79257">
        <ele>215.8</ele>
        <time>2026-03-26T10:12:07.000Z</time>
      </trkpt>
      <trkpt lat="48.73011" lon="1.79258">
        <ele>215.9</ele>
        <time>2026-03-26T10:12:08.000Z</time>
      </trkpt>
      <trkpt lat="48.7301" lon="1.7926">
        <ele>216</ele>
        <time>2026-03-26T10:12:09.000Z</time>
      </trkpt>
      <trkpt lat="48.73009" lon="1.79262">
        <ele>216.2</ele>
        <time>2026-03-26T10:12:10.000Z</time>
      </trkpt>
      <trkpt lat="48.73009" lon="1.79263">
        <ele>216.4</ele>
        <time>2026-03-26T10:12:11.000Z</time>
      </trkpt>
      <trkpt lat="48.73008" lon="1.79265">
        <ele>216.4</ele>
        <time>2026-03-26T10:12:12.000Z</time>
      </trkpt>
      <trkpt lat="48.73007" lon="1.79267">
        <ele>216.7</ele>
        <time>2026-03-26T10:12:13.000Z</time>
      </trkpt>
      <trkpt lat="48.73006" lon="1.79268">
        <ele>216.8</ele>
        <time>2026-03-26T10:12:14.000Z</time>
      </trkpt>
      <trkpt lat="48.73006" lon="1.7927">
        <ele>217.3</ele>
        <time>2026-03-26T10:12:15.000Z</time>
      </trkpt>
      <trkpt lat="48.73005" lon="1.79272">
        <ele>217.5</ele>
        <time>2026-03-26T10:12:16.000Z</time>
      </trkpt>
      <trkpt lat="48.73004" lon="1.79273">
        <ele>217.4</ele>
        <time>2026-03-26T10:12:17.000Z</time>
      </trkpt>
      <trkpt lat="48.73003" lon="1.79275">
        <ele>217.2</ele>
        <time>2026-03-26T10:12:18.000Z</time>
      </trkpt>
      <trkpt lat="48.73002" lon="1.79276">
        <ele>217.2</ele>
        <time>2026-03-26T10:12:19.000Z</time>
      </trkpt>
      <trkpt lat="48.73001" lon="1.79278">
        <ele>217.5</ele>
        <time>2026-03-26T10:12:20.000Z</time>
      </trkpt>
      <trkpt lat="48.73001" lon="1.79279">
        <ele>217.4</ele>
        <time>2026-03-26T10:12:21.000Z</time>
      </trkpt>
      <trkpt lat="48.73" lon="1.79281">
        <ele>217.4</ele>
        <time>2026-03-26T10:12:22.000Z</time>
      </trkpt>
      <trkpt lat="48.72999" lon="1.79282">
        <ele>217.2</ele>
        <time>2026-03-26T10:12:23.000Z</time>
      </trkpt>
      <trkpt lat="48.72999" lon="1.79284">
        <ele>217.1</ele>
        <time>2026-03-26T10:12:24.000Z</time>
      </trkpt>
      <trkpt lat="48.72998" lon="1.79285">
        <ele>217</ele>
        <time>2026-03-26T10:12:25.000Z</time>
      </trkpt>
      <trkpt lat="48.72997" lon="1.79287">
        <ele>217</ele>
        <time>2026-03-26T10:12:26.000Z</time>
      </trkpt>
      <trkpt lat="48.72996" lon="1.79288">
        <ele>216.7</ele>
        <time>2026-03-26T10:12:27.000Z</time>
      </trkpt>
      <trkpt lat="48.72996" lon="1.79289">
        <ele>216.4</ele>
        <time>2026-03-26T10:12:28.000Z</time>
      </trkpt>
      <trkpt lat="48.72995" lon="1.79291">
        <ele>216.4</ele>
        <time>2026-03-26T10:12:29.000Z</time>
      </trkpt>
      <trkpt lat="48.72994" lon="1.79293">
        <ele>216.3</ele>
        <time>2026-03-26T10:12:30.000Z</time>
      </trkpt>
      <trkpt lat="48.72994" lon="1.79294">
        <ele>216</ele>
        <time>2026-03-26T10:12:31.000Z</time>
      </trkpt>
      <trkpt lat="48.72993" lon="1.79296">
        <ele>216</ele>
        <time>2026-03-26T10:12:32.000Z</time>
      </trkpt>
      <trkpt lat="48.72993" lon="1.79298">
        <ele>216.3</ele>
        <time>2026-03-26T10:12:33.000Z</time>
      </trkpt>
      <trkpt lat="48.72992" lon="1.793">
        <ele>216.1</ele>
        <time>2026-03-26T10:12:34.000Z</time>
      </trkpt>
      <trkpt lat="48.72992" lon="1.79302">
        <ele>216</ele>
        <time>2026-03-26T10:12:35.000Z</time>
      </trkpt>
      <trkpt lat="48.72991" lon="1.79304">
        <ele>216.1</ele>
        <time>2026-03-26T10:12:36.000Z</time>
      </trkpt>
      <trkpt lat="48.72991" lon="1.79306">
        <ele>216.2</ele>
        <time>2026-03-26T10:12:37.000Z</time>
      </trkpt>
      <trkpt lat="48.7299" lon="1.79307">
        <ele>215.8</ele>
        <time>2026-03-26T10:12:38.000Z</time>
      </trkpt>
      <trkpt lat="48.72989" lon="1.79309">
        <ele>215.9</ele>
        <time>2026-03-26T10:12:39.000Z</time>
      </trkpt>
      <trkpt lat="48.72988" lon="1.7931">
        <ele>215.9</ele>
        <time>2026-03-26T10:12:40.000Z</time>
      </trkpt>
      <trkpt lat="48.72988" lon="1.79312">
        <ele>215.6</ele>
        <time>2026-03-26T10:12:41.000Z</time>
      </trkpt>
      <trkpt lat="48.72987" lon="1.79313">
        <ele>215.6</ele>
        <time>2026-03-26T10:12:42.000Z</time>
      </trkpt>
      <trkpt lat="48.72986" lon="1.79314">
        <ele>215.6</ele>
        <time>2026-03-26T10:12:43.000Z</time>
      </trkpt>
      <trkpt lat="48.72986" lon="1.79316">
        <ele>215.6</ele>
        <time>2026-03-26T10:12:44.000Z</time>
      </trkpt>
      <trkpt lat="48.72985" lon="1.79317">
        <ele>215.7</ele>
        <time>2026-03-26T10:12:45.000Z</time>
      </trkpt>
      <trkpt lat="48.72984" lon="1.79318">
        <ele>215.7</ele>
        <time>2026-03-26T10:12:46.000Z</time>
      </trkpt>
      <trkpt lat="48.72984" lon="1.7932">
        <ele>215.5</ele>
        <time>2026-03-26T10:12:47.000Z</time>
      </trkpt>
      <trkpt lat="48.72984" lon="1.79321">
        <ele>215.4</ele>
        <time>2026-03-26T10:12:48.000Z</time>
      </trkpt>
      <trkpt lat="48.72984" lon="1.79323">
        <ele>215.5</ele>
        <time>2026-03-26T10:12:49.000Z</time>
      </trkpt>
      <trkpt lat="48.72984" lon="1.79324">
        <ele>215.8</ele>
        <time>2026-03-26T10:12:50.000Z</time>
      </trkpt>
      <trkpt lat="48.72983" lon="1.79326">
        <ele>215.9</ele>
        <time>2026-03-26T10:12:51.000Z</time>
      </trkpt>
      <trkpt lat="48.72983" lon="1.79327">
        <ele>216</ele>
        <time>2026-03-26T10:12:52.000Z</time>
      </trkpt>
      <trkpt lat="48.72982" lon="1.79328">
        <ele>216.1</ele>
        <time>2026-03-26T10:12:53.000Z</time>
      </trkpt>
      <trkpt lat="48.72981" lon="1.79329">
        <ele>216.1</ele>
        <time>2026-03-26T10:12:54.000Z</time>
      </trkpt>
      <trkpt lat="48.72981" lon="1.7933">
        <ele>216.3</ele>
        <time>2026-03-26T10:12:55.000Z</time>
      </trkpt>
      <trkpt lat="48.7298" lon="1.79331">
        <ele>216.4</ele>
        <time>2026-03-26T10:12:56.000Z</time>
      </trkpt>
      <trkpt lat="48.72979" lon="1.79332">
        <ele>216.3</ele>
        <time>2026-03-26T10:12:57.000Z</time>
      </trkpt>
      <trkpt lat="48.72979" lon="1.79333">
        <ele>216.4</ele>
        <time>2026-03-26T10:12:58.000Z</time>
      </trkpt>
      <trkpt lat="48.72978" lon="1.79334">
        <ele>216.5</ele>
        <time>2026-03-26T10:12:59.000Z</time>
      </trkpt>
      <trkpt lat="48.72978" lon="1.79335">
        <ele>216.9</ele>
        <time>2026-03-26T10:13:00.000Z</time>
      </trkpt>
      <trkpt lat="48.72978" lon="1.79336">
        <ele>217.2</ele>
        <time>2026-03-26T10:13:01.000Z</time>
      </trkpt>
      <trkpt lat="48.72978" lon="1.79336">
        <ele>217.1</ele>
        <time>2026-03-26T10:13:02.000Z</time>
      </trkpt>
      <trkpt lat="48.72978" lon="1.79336">
        <ele>217.1</ele>
        <time>2026-03-26T10:13:03.000Z</time>
      </trkpt>
      <trkpt lat="48.72978" lon="1.79336">
        <ele>217.1</ele>
        <time>2026-03-26T10:13:04.000Z</time>
      </trkpt>
      <trkpt lat="48.72978" lon="1.79336">
        <ele>217.1</ele>
        <time>2026-03-26T10:13:05.000Z</time>
      </trkpt>
      <trkpt lat="48.72978" lon="1.79336">
        <ele>217.1</ele>
        <time>2026-03-26T10:13:06.000Z</time>
      </trkpt>
      <trkpt lat="48.72978" lon="1.79336">
        <ele>217.1</ele>
        <time>2026-03-26T10:13:07.000Z</time>
      </trkpt>
      <trkpt lat="48.72978" lon="1.79337">
        <ele>217.3</ele>
        <time>2026-03-26T10:13:08.000Z</time>
      </trkpt>
      <trkpt lat="48.72977" lon="1.79337">
        <ele>217.3</ele>
        <time>2026-03-26T10:13:09.000Z</time>
      </trkpt>
      <trkpt lat="48.72976" lon="1.79338">
        <ele>217.2</ele>
        <time>2026-03-26T10:13:10.000Z</time>
      </trkpt>
      <trkpt lat="48.72975" lon="1.79338">
        <ele>217.1</ele>
        <time>2026-03-26T10:13:11.000Z</time>
      </trkpt>
      <trkpt lat="48.72975" lon="1.79339">
        <ele>217</ele>
        <time>2026-03-26T10:13:12.000Z</time>
      </trkpt>
      <trkpt lat="48.72975" lon="1.79341">
        <ele>217</ele>
        <time>2026-03-26T10:13:13.000Z</time>
      </trkpt>
      <trkpt lat="48.72974" lon="1.79342">
        <ele>216.8</ele>
        <time>2026-03-26T10:13:14.000Z</time>
      </trkpt>
      <trkpt lat="48.72973" lon="1.79343">
        <ele>217.2</ele>
        <time>2026-03-26T10:13:15.000Z</time>
      </trkpt>
      <trkpt lat="48.72972" lon="1.79344">
        <ele>217.4</ele>
        <time>2026-03-26T10:13:16.000Z</time>
      </trkpt>
      <trkpt lat="48.72971" lon="1.79345">
        <ele>217.3</ele>
        <time>2026-03-26T10:13:17.000Z</time>
      </trkpt>
      <trkpt lat="48.72971" lon="1.79347">
        <ele>217.4</ele>
        <time>2026-03-26T10:13:18.000Z</time>
      </trkpt>
      <trkpt lat="48.7297" lon="1.79348">
        <ele>217.2</ele>
        <time>2026-03-26T10:13:19.000Z</time>
      </trkpt>
      <trkpt lat="48.72969" lon="1.7935">
        <ele>217.5</ele>
        <time>2026-03-26T10:13:20.000Z</time>
      </trkpt>
      <trkpt lat="48.72969" lon="1.79351">
        <ele>217.1</ele>
        <time>2026-03-26T10:13:21.000Z</time>
      </trkpt>
      <trkpt lat="48.72968" lon="1.79353">
        <ele>217.1</ele>
        <time>2026-03-26T10:13:22.000Z</time>
      </trkpt>
      <trkpt lat="48.72968" lon="1.79354">
        <ele>217.4</ele>
        <time>2026-03-26T10:13:23.000Z</time>
      </trkpt>
      <trkpt lat="48.72968" lon="1.79356">
        <ele>217.2</ele>
        <time>2026-03-26T10:13:24.000Z</time>
      </trkpt>
      <trkpt lat="48.72967" lon="1.79358">
        <ele>217.1</ele>
        <time>2026-03-26T10:13:25.000Z</time>
      </trkpt>
      <trkpt lat="48.72967" lon="1.79359">
        <ele>217.2</ele>
        <time>2026-03-26T10:13:26.000Z</time>
      </trkpt>
      <trkpt lat="48.72967" lon="1.79361">
        <ele>217.4</ele>
        <time>2026-03-26T10:13:27.000Z</time>
      </trkpt>
      <trkpt lat="48.72967" lon="1.79363">
        <ele>217.2</ele>
        <time>2026-03-26T10:13:28.000Z</time>
      </trkpt>
      <trkpt lat="48.72966" lon="1.79365">
        <ele>216.8</ele>
        <time>2026-03-26T10:13:29.000Z</time>
      </trkpt>
      <trkpt lat="48.72966" lon="1.79366">
        <ele>216.9</ele>
        <time>2026-03-26T10:13:30.000Z</time>
      </trkpt>
      <trkpt lat="48.72966" lon="1.79368">
        <ele>217.3</ele>
        <time>2026-03-26T10:13:31.000Z</time>
      </trkpt>
      <trkpt lat="48.72966" lon="1.7937">
        <ele>217.6</ele>
        <time>2026-03-26T10:13:32.000Z</time>
      </trkpt>
      <trkpt lat="48.72966" lon="1.79372">
        <ele>217.9</ele>
        <time>2026-03-26T10:13:33.000Z</time>
      </trkpt>
      <trkpt lat="48.72965" lon="1.79374">
        <ele>217.7</ele>
        <time>2026-03-26T10:13:34.000Z</time>
      </trkpt>
      <trkpt lat="48.72965" lon="1.79375">
        <ele>217.5</ele>
        <time>2026-03-26T10:13:35.000Z</time>
      </trkpt>
      <trkpt lat="48.72964" lon="1.79377">
        <ele>217.4</ele>
        <time>2026-03-26T10:13:36.000Z</time>
      </trkpt>
      <trkpt lat="48.72964" lon="1.79379">
        <ele>217.3</ele>
        <time>2026-03-26T10:13:37.000Z</time>
      </trkpt>
      <trkpt lat="48.72963" lon="1.7938">
        <ele>217</ele>
        <time>2026-03-26T10:13:38.000Z</time>
      </trkpt>
      <trkpt lat="48.72962" lon="1.79382">
        <ele>217.1</ele>
        <time>2026-03-26T10:13:39.000Z</time>
      </trkpt>
      <trkpt lat="48.72962" lon="1.79384">
        <ele>217.7</ele>
        <time>2026-03-26T10:13:40.000Z</time>
      </trkpt>
      <trkpt lat="48.72961" lon="1.79386">
        <ele>217.9</ele>
        <time>2026-03-26T10:13:41.000Z</time>
      </trkpt>
      <trkpt lat="48.72961" lon="1.79388">
        <ele>217.6</ele>
        <time>2026-03-26T10:13:42.000Z</time>
      </trkpt>
      <trkpt lat="48.7296" lon="1.7939">
        <ele>217.7</ele>
        <time>2026-03-26T10:13:43.000Z</time>
      </trkpt>
      <trkpt lat="48.7296" lon="1.79392">
        <ele>217.7</ele>
        <time>2026-03-26T10:13:44.000Z</time>
      </trkpt>
      <trkpt lat="48.72959" lon="1.79394">
        <ele>217.8</ele>
        <time>2026-03-26T10:13:45.000Z</time>
      </trkpt>
      <trkpt lat="48.72959" lon="1.79396">
        <ele>217.8</ele>
        <time>2026-03-26T10:13:46.000Z</time>
      </trkpt>
      <trkpt lat="48.72958" lon="1.79397">
        <ele>218.1</ele>
        <time>2026-03-26T10:13:47.000Z</time>
      </trkpt>
      <trkpt lat="48.72957" lon="1.79399">
        <ele>218.9</ele>
        <time>2026-03-26T10:13:48.000Z</time>
      </trkpt>
      <trkpt lat="48.72957" lon="1.79401">
        <ele>219.6</ele>
        <time>2026-03-26T10:13:49.000Z</time>
      </trkpt>
      <trkpt lat="48.72956" lon="1.79403">
        <ele>219.3</ele>
        <time>2026-03-26T10:13:50.000Z</time>
      </trkpt>
      <trkpt lat="48.72955" lon="1.79405">
        <ele>219.3</ele>
        <time>2026-03-26T10:13:51.000Z</time>
      </trkpt>
      <trkpt lat="48.72955" lon="1.79406">
        <ele>219.3</ele>
        <time>2026-03-26T10:13:52.000Z</time>
      </trkpt>
      <trkpt lat="48.72954" lon="1.79408">
        <ele>219</ele>
        <time>2026-03-26T10:13:53.000Z</time>
      </trkpt>
      <trkpt lat="48.72954" lon="1.7941">
        <ele>219.1</ele>
        <time>2026-03-26T10:13:54.000Z</time>
      </trkpt>
      <trkpt lat="48.72953" lon="1.79411">
        <ele>219.1</ele>
        <time>2026-03-26T10:13:55.000Z</time>
      </trkpt>
      <trkpt lat="48.72953" lon="1.79412">
        <ele>219.6</ele>
        <time>2026-03-26T10:13:56.000Z</time>
      </trkpt>
      <trkpt lat="48.72952" lon="1.79414">
        <ele>219.5</ele>
        <time>2026-03-26T10:13:57.000Z</time>
      </trkpt>
      <trkpt lat="48.72952" lon="1.79415">
        <ele>219.4</ele>
        <time>2026-03-26T10:13:58.000Z</time>
      </trkpt>
      <trkpt lat="48.72951" lon="1.79417">
        <ele>219.2</ele>
        <time>2026-03-26T10:13:59.000Z</time>
      </trkpt>
      <trkpt lat="48.72951" lon="1.79418">
        <ele>219.2</ele>
        <time>2026-03-26T10:14:00.000Z</time>
      </trkpt>
      <trkpt lat="48.7295" lon="1.7942">
        <ele>219.1</ele>
        <time>2026-03-26T10:14:01.000Z</time>
      </trkpt>
      <trkpt lat="48.7295" lon="1.79422">
        <ele>218.7</ele>
        <time>2026-03-26T10:14:02.000Z</time>
      </trkpt>
      <trkpt lat="48.72949" lon="1.79423">
        <ele>218.9</ele>
        <time>2026-03-26T10:14:03.000Z</time>
      </trkpt>
      <trkpt lat="48.72948" lon="1.79425">
        <ele>218.4</ele>
        <time>2026-03-26T10:14:04.000Z</time>
      </trkpt>
      <trkpt lat="48.72948" lon="1.79426">
        <ele>218.3</ele>
        <time>2026-03-26T10:14:05.000Z</time>
      </trkpt>
      <trkpt lat="48.72947" lon="1.79428">
        <ele>218.2</ele>
        <time>2026-03-26T10:14:06.000Z</time>
      </trkpt>
      <trkpt lat="48.72947" lon="1.79429">
        <ele>218.1</ele>
        <time>2026-03-26T10:14:07.000Z</time>
      </trkpt>
      <trkpt lat="48.72946" lon="1.79431">
        <ele>218.2</ele>
        <time>2026-03-26T10:14:08.000Z</time>
      </trkpt>
      <trkpt lat="48.72945" lon="1.79432">
        <ele>218.4</ele>
        <time>2026-03-26T10:14:09.000Z</time>
      </trkpt>
      <trkpt lat="48.72945" lon="1.79434">
        <ele>218.5</ele>
        <time>2026-03-26T10:14:10.000Z</time>
      </trkpt>
      <trkpt lat="48.72945" lon="1.79436">
        <ele>218.5</ele>
        <time>2026-03-26T10:14:11.000Z</time>
      </trkpt>
      <trkpt lat="48.72945" lon="1.79438">
        <ele>218.2</ele>
        <time>2026-03-26T10:14:12.000Z</time>
      </trkpt>
      <trkpt lat="48.72945" lon="1.7944">
        <ele>218.6</ele>
        <time>2026-03-26T10:14:13.000Z</time>
      </trkpt>
      <trkpt lat="48.72944" lon="1.79441">
        <ele>218.7</ele>
        <time>2026-03-26T10:14:14.000Z</time>
      </trkpt>
      <trkpt lat="48.72944" lon="1.79443">
        <ele>218.6</ele>
        <time>2026-03-26T10:14:15.000Z</time>
      </trkpt>
      <trkpt lat="48.72944" lon="1.79445">
        <ele>219.3</ele>
        <time>2026-03-26T10:14:16.000Z</time>
      </trkpt>
      <trkpt lat="48.72943" lon="1.79447">
        <ele>219.9</ele>
        <time>2026-03-26T10:14:17.000Z</time>
      </trkpt>
      <trkpt lat="48.72942" lon="1.79448">
        <ele>219.7</ele>
        <time>2026-03-26T10:14:18.000Z</time>
      </trkpt>
      <trkpt lat="48.72941" lon="1.7945">
        <ele>219.4</ele>
        <time>2026-03-26T10:14:19.000Z</time>
      </trkpt>
      <trkpt lat="48.7294" lon="1.79451">
        <ele>219</ele>
        <time>2026-03-26T10:14:20.000Z</time>
      </trkpt>
      <trkpt lat="48.72939" lon="1.79453">
        <ele>219.1</ele>
        <time>2026-03-26T10:14:21.000Z</time>
      </trkpt>
      <trkpt lat="48.72939" lon="1.79454">
        <ele>219</ele>
        <time>2026-03-26T10:14:22.000Z</time>
      </trkpt>
      <trkpt lat="48.72938" lon="1.79456">
        <ele>218.9</ele>
        <time>2026-03-26T10:14:23.000Z</time>
      </trkpt>
      <trkpt lat="48.72938" lon="1.79458">
        <ele>219.3</ele>
        <time>2026-03-26T10:14:24.000Z</time>
      </trkpt>
      <trkpt lat="48.72937" lon="1.79461">
        <ele>219.5</ele>
        <time>2026-03-26T10:14:25.000Z</time>
      </trkpt>
      <trkpt lat="48.72937" lon="1.79463">
        <ele>219.4</ele>
        <time>2026-03-26T10:14:26.000Z</time>
      </trkpt>
      <trkpt lat="48.72936" lon="1.79465">
        <ele>219.4</ele>
        <time>2026-03-26T10:14:27.000Z</time>
      </trkpt>
      <trkpt lat="48.72936" lon="1.79466">
        <ele>219.2</ele>
        <time>2026-03-26T10:14:28.000Z</time>
      </trkpt>
      <trkpt lat="48.72935" lon="1.79467">
        <ele>218.9</ele>
        <time>2026-03-26T10:14:29.000Z</time>
      </trkpt>
      <trkpt lat="48.72934" lon="1.79469">
        <ele>218.8</ele>
        <time>2026-03-26T10:14:30.000Z</time>
      </trkpt>
      <trkpt lat="48.72933" lon="1.7947">
        <ele>218.9</ele>
        <time>2026-03-26T10:14:31.000Z</time>
      </trkpt>
      <trkpt lat="48.72933" lon="1.79472">
        <ele>219.2</ele>
        <time>2026-03-26T10:14:32.000Z</time>
      </trkpt>
      <trkpt lat="48.72933" lon="1.79474">
        <ele>219</ele>
        <time>2026-03-26T10:14:33.000Z</time>
      </trkpt>
      <trkpt lat="48.72932" lon="1.79475">
        <ele>218.8</ele>
        <time>2026-03-26T10:14:34.000Z</time>
      </trkpt>
      <trkpt lat="48.72931" lon="1.79477">
        <ele>218.6</ele>
        <time>2026-03-26T10:14:35.000Z</time>
      </trkpt>
      <trkpt lat="48.72931" lon="1.79479">
        <ele>218.4</ele>
        <time>2026-03-26T10:14:36.000Z</time>
      </trkpt>
      <trkpt lat="48.7293" lon="1.7948">
        <ele>218.1</ele>
        <time>2026-03-26T10:14:37.000Z</time>
      </trkpt>
      <trkpt lat="48.72929" lon="1.79482">
        <ele>218.5</ele>
        <time>2026-03-26T10:14:38.000Z</time>
      </trkpt>
      <trkpt lat="48.72929" lon="1.79484">
        <ele>218.8</ele>
        <time>2026-03-26T10:14:39.000Z</time>
      </trkpt>
      <trkpt lat="48.72928" lon="1.79486">
        <ele>218.9</ele>
        <time>2026-03-26T10:14:40.000Z</time>
      </trkpt>
      <trkpt lat="48.72927" lon="1.79488">
        <ele>218.9</ele>
        <time>2026-03-26T10:14:41.000Z</time>
      </trkpt>
      <trkpt lat="48.72927" lon="1.79489">
        <ele>219</ele>
        <time>2026-03-26T10:14:42.000Z</time>
      </trkpt>
      <trkpt lat="48.72927" lon="1.79491">
        <ele>218.7</ele>
        <time>2026-03-26T10:14:43.000Z</time>
      </trkpt>
      <trkpt lat="48.72926" lon="1.79493">
        <ele>218.9</ele>
        <time>2026-03-26T10:14:44.000Z</time>
      </trkpt>
      <trkpt lat="48.72926" lon="1.79495">
        <ele>218.6</ele>
        <time>2026-03-26T10:14:45.000Z</time>
      </trkpt>
      <trkpt lat="48.72925" lon="1.79496">
        <ele>218.7</ele>
        <time>2026-03-26T10:14:46.000Z</time>
      </trkpt>
      <trkpt lat="48.72925" lon="1.79498">
        <ele>218.3</ele>
        <time>2026-03-26T10:14:47.000Z</time>
      </trkpt>
      <trkpt lat="48.72924" lon="1.795">
        <ele>218.7</ele>
        <time>2026-03-26T10:14:48.000Z</time>
      </trkpt>
      <trkpt lat="48.72924" lon="1.79501">
        <ele>219.1</ele>
        <time>2026-03-26T10:14:49.000Z</time>
      </trkpt>
      <trkpt lat="48.72923" lon="1.79503">
        <ele>219.2</ele>
        <time>2026-03-26T10:14:50.000Z</time>
      </trkpt>
      <trkpt lat="48.72923" lon="1.79505">
        <ele>218.8</ele>
        <time>2026-03-26T10:14:51.000Z</time>
      </trkpt>
      <trkpt lat="48.72922" lon="1.79506">
        <ele>218.5</ele>
        <time>2026-03-26T10:14:52.000Z</time>
      </trkpt>
      <trkpt lat="48.72922" lon="1.79507">
        <ele>218.9</ele>
        <time>2026-03-26T10:14:53.000Z</time>
      </trkpt>
      <trkpt lat="48.72921" lon="1.79509">
        <ele>219.2</ele>
        <time>2026-03-26T10:14:54.000Z</time>
      </trkpt>
      <trkpt lat="48.72921" lon="1.79511">
        <ele>219.2</ele>
        <time>2026-03-26T10:14:55.000Z</time>
      </trkpt>
      <trkpt lat="48.7292" lon="1.79512">
        <ele>218.9</ele>
        <time>2026-03-26T10:14:56.000Z</time>
      </trkpt>
      <trkpt lat="48.72919" lon="1.79514">
        <ele>218.8</ele>
        <time>2026-03-26T10:14:57.000Z</time>
      </trkpt>
      <trkpt lat="48.72918" lon="1.79515">
        <ele>218.9</ele>
        <time>2026-03-26T10:14:58.000Z</time>
      </trkpt>
      <trkpt lat="48.72918" lon="1.79516">
        <ele>218.6</ele>
        <time>2026-03-26T10:14:59.000Z</time>
      </trkpt>
      <trkpt lat="48.72916" lon="1.79516">
        <ele>218.9</ele>
        <time>2026-03-26T10:15:00.000Z</time>
      </trkpt>
      <trkpt lat="48.72915" lon="1.79516">
        <ele>218.6</ele>
        <time>2026-03-26T10:15:01.000Z</time>
      </trkpt>
      <trkpt lat="48.72914" lon="1.79517">
        <ele>218.9</ele>
        <time>2026-03-26T10:15:02.000Z</time>
      </trkpt>
      <trkpt lat="48.72913" lon="1.79519">
        <ele>218.9</ele>
        <time>2026-03-26T10:15:03.000Z</time>
      </trkpt>
      <trkpt lat="48.72913" lon="1.79521">
        <ele>219.2</ele>
        <time>2026-03-26T10:15:04.000Z</time>
      </trkpt>
      <trkpt lat="48.72913" lon="1.79522">
        <ele>219.3</ele>
        <time>2026-03-26T10:15:05.000Z</time>
      </trkpt>
      <trkpt lat="48.72913" lon="1.79524">
        <ele>219.3</ele>
        <time>2026-03-26T10:15:06.000Z</time>
      </trkpt>
      <trkpt lat="48.72913" lon="1.79526">
        <ele>219.4</ele>
        <time>2026-03-26T10:15:07.000Z</time>
      </trkpt>
      <trkpt lat="48.72913" lon="1.79527">
        <ele>219.6</ele>
        <time>2026-03-26T10:15:08.000Z</time>
      </trkpt>
      <trkpt lat="48.72912" lon="1.79529">
        <ele>219.6</ele>
        <time>2026-03-26T10:15:09.000Z</time>
      </trkpt>
      <trkpt lat="48.72912" lon="1.7953">
        <ele>219.4</ele>
        <time>2026-03-26T10:15:10.000Z</time>
      </trkpt>
      <trkpt lat="48.72911" lon="1.79531">
        <ele>219.6</ele>
        <time>2026-03-26T10:15:11.000Z</time>
      </trkpt>
      <trkpt lat="48.72911" lon="1.79533">
        <ele>219.4</ele>
        <time>2026-03-26T10:15:12.000Z</time>
      </trkpt>
      <trkpt lat="48.72911" lon="1.79535">
        <ele>219.6</ele>
        <time>2026-03-26T10:15:13.000Z</time>
      </trkpt>
      <trkpt lat="48.7291" lon="1.79536">
        <ele>219.7</ele>
        <time>2026-03-26T10:15:14.000Z</time>
      </trkpt>
      <trkpt lat="48.72909" lon="1.79538">
        <ele>219.4</ele>
        <time>2026-03-26T10:15:15.000Z</time>
      </trkpt>
      <trkpt lat="48.72908" lon="1.79539">
        <ele>219.1</ele>
        <time>2026-03-26T10:15:16.000Z</time>
      </trkpt>
      <trkpt lat="48.72908" lon="1.79541">
        <ele>219</ele>
        <time>2026-03-26T10:15:17.000Z</time>
      </trkpt>
      <trkpt lat="48.72907" lon="1.79543">
        <ele>218.7</ele>
        <time>2026-03-26T10:15:18.000Z</time>
      </trkpt>
      <trkpt lat="48.72907" lon="1.79545">
        <ele>218.5</ele>
        <time>2026-03-26T10:15:19.000Z</time>
      </trkpt>
      <trkpt lat="48.72906" lon="1.79547">
        <ele>218.6</ele>
        <time>2026-03-26T10:15:20.000Z</time>
      </trkpt>
      <trkpt lat="48.72905" lon="1.79549">
        <ele>218.4</ele>
        <time>2026-03-26T10:15:21.000Z</time>
      </trkpt>
      <trkpt lat="48.72905" lon="1.7955">
        <ele>218.7</ele>
        <time>2026-03-26T10:15:22.000Z</time>
      </trkpt>
      <trkpt lat="48.72904" lon="1.79552">
        <ele>219</ele>
        <time>2026-03-26T10:15:23.000Z</time>
      </trkpt>
      <trkpt lat="48.72903" lon="1.79553">
        <ele>219</ele>
        <time>2026-03-26T10:15:24.000Z</time>
      </trkpt>
      <trkpt lat="48.72903" lon="1.79555">
        <ele>218.7</ele>
        <time>2026-03-26T10:15:25.000Z</time>
      </trkpt>
      <trkpt lat="48.72902" lon="1.79557">
        <ele>218.9</ele>
        <time>2026-03-26T10:15:26.000Z</time>
      </trkpt>
      <trkpt lat="48.72902" lon="1.79559">
        <ele>218.8</ele>
        <time>2026-03-26T10:15:27.000Z</time>
      </trkpt>
      <trkpt lat="48.72901" lon="1.79561">
        <ele>218.7</ele>
        <time>2026-03-26T10:15:28.000Z</time>
      </trkpt>
      <trkpt lat="48.72901" lon="1.79562">
        <ele>218.9</ele>
        <time>2026-03-26T10:15:29.000Z</time>
      </trkpt>
      <trkpt lat="48.729" lon="1.79564">
        <ele>218.7</ele>
        <time>2026-03-26T10:15:30.000Z</time>
      </trkpt>
      <trkpt lat="48.72899" lon="1.79566">
        <ele>218.6</ele>
        <time>2026-03-26T10:15:31.000Z</time>
      </trkpt>
      <trkpt lat="48.72899" lon="1.79567">
        <ele>219.1</ele>
        <time>2026-03-26T10:15:32.000Z</time>
      </trkpt>
      <trkpt lat="48.72897" lon="1.79567">
        <ele>220.8</ele>
        <time>2026-03-26T10:15:33.000Z</time>
      </trkpt>
      <trkpt lat="48.72895" lon="1.79565">
        <ele>220.6</ele>
        <time>2026-03-26T10:15:34.000Z</time>
      </trkpt>
      <trkpt lat="48.72895" lon="1.79568">
        <ele>220.9</ele>
        <time>2026-03-26T10:15:35.000Z</time>
      </trkpt>
      <trkpt lat="48.72895" lon="1.7957">
        <ele>220.2</ele>
        <time>2026-03-26T10:15:36.000Z</time>
      </trkpt>
      <trkpt lat="48.72895" lon="1.79572">
        <ele>219.8</ele>
        <time>2026-03-26T10:15:37.000Z</time>
      </trkpt>
      <trkpt lat="48.72894" lon="1.79574">
        <ele>219.6</ele>
        <time>2026-03-26T10:15:38.000Z</time>
      </trkpt>
      <trkpt lat="48.72894" lon="1.79576">
        <ele>219.2</ele>
        <time>2026-03-26T10:15:39.000Z</time>
      </trkpt>
      <trkpt lat="48.72893" lon="1.79577">
        <ele>218.8</ele>
        <time>2026-03-26T10:15:40.000Z</time>
      </trkpt>
      <trkpt lat="48.72892" lon="1.79578">
        <ele>219.1</ele>
        <time>2026-03-26T10:15:41.000Z</time>
      </trkpt>
      <trkpt lat="48.72891" lon="1.79576">
        <ele>219</ele>
        <time>2026-03-26T10:15:42.000Z</time>
      </trkpt>
      <trkpt lat="48.7289" lon="1.79575">
        <ele>220.3</ele>
        <time>2026-03-26T10:15:43.000Z</time>
      </trkpt>
      <trkpt lat="48.72889" lon="1.79575">
        <ele>221.7</ele>
        <time>2026-03-26T10:15:44.000Z</time>
      </trkpt>
      <trkpt lat="48.72889" lon="1.79575">
        <ele>220.9</ele>
        <time>2026-03-26T10:15:45.000Z</time>
      </trkpt>
      <trkpt lat="48.72888" lon="1.79576">
        <ele>220.1</ele>
        <time>2026-03-26T10:15:46.000Z</time>
      </trkpt>
      <trkpt lat="48.72888" lon="1.79577">
        <ele>219.3</ele>
        <time>2026-03-26T10:15:47.000Z</time>
      </trkpt>
      <trkpt lat="48.72888" lon="1.79579">
        <ele>218.9</ele>
        <time>2026-03-26T10:15:48.000Z</time>
      </trkpt>
      <trkpt lat="48.72888" lon="1.79581">
        <ele>218.6</ele>
        <time>2026-03-26T10:15:49.000Z</time>
      </trkpt>
      <trkpt lat="48.72888" lon="1.79583">
        <ele>218.3</ele>
        <time>2026-03-26T10:15:50.000Z</time>
      </trkpt>
      <trkpt lat="48.72887" lon="1.79585">
        <ele>218.6</ele>
        <time>2026-03-26T10:15:51.000Z</time>
      </trkpt>
      <trkpt lat="48.72887" lon="1.79587">
        <ele>218.9</ele>
        <time>2026-03-26T10:15:52.000Z</time>
      </trkpt>
      <trkpt lat="48.72887" lon="1.7959">
        <ele>218.5</ele>
        <time>2026-03-26T10:15:53.000Z</time>
      </trkpt>
      <trkpt lat="48.72887" lon="1.79592">
        <ele>218.8</ele>
        <time>2026-03-26T10:15:54.000Z</time>
      </trkpt>
      <trkpt lat="48.72887" lon="1.79593">
        <ele>218.5</ele>
        <time>2026-03-26T10:15:55.000Z</time>
      </trkpt>
      <trkpt lat="48.72886" lon="1.79596">
        <ele>218.6</ele>
        <time>2026-03-26T10:15:56.000Z</time>
      </trkpt>
      <trkpt lat="48.72886" lon="1.79597">
        <ele>218.5</ele>
        <time>2026-03-26T10:15:57.000Z</time>
      </trkpt>
      <trkpt lat="48.72885" lon="1.79599">
        <ele>218.4</ele>
        <time>2026-03-26T10:15:58.000Z</time>
      </trkpt>
      <trkpt lat="48.72885" lon="1.79601">
        <ele>218.3</ele>
        <time>2026-03-26T10:15:59.000Z</time>
      </trkpt>
      <trkpt lat="48.72884" lon="1.79602">
        <ele>217.8</ele>
        <time>2026-03-26T10:16:00.000Z</time>
      </trkpt>
      <trkpt lat="48.72884" lon="1.79605">
        <ele>218.1</ele>
        <time>2026-03-26T10:16:01.000Z</time>
      </trkpt>
      <trkpt lat="48.72884" lon="1.79607">
        <ele>218</ele>
        <time>2026-03-26T10:16:02.000Z</time>
      </trkpt>
      <trkpt lat="48.72883" lon="1.79608">
        <ele>218.3</ele>
        <time>2026-03-26T10:16:03.000Z</time>
      </trkpt>
      <trkpt lat="48.72883" lon="1.7961">
        <ele>218.6</ele>
        <time>2026-03-26T10:16:04.000Z</time>
      </trkpt>
      <trkpt lat="48.72882" lon="1.79612">
        <ele>218.5</ele>
        <time>2026-03-26T10:16:05.000Z</time>
      </trkpt>
      <trkpt lat="48.72882" lon="1.79614">
        <ele>218.3</ele>
        <time>2026-03-26T10:16:06.000Z</time>
      </trkpt>
      <trkpt lat="48.72882" lon="1.79616">
        <ele>217.6</ele>
        <time>2026-03-26T10:16:07.000Z</time>
      </trkpt>
      <trkpt lat="48.72881" lon="1.79617">
        <ele>217.2</ele>
        <time>2026-03-26T10:16:08.000Z</time>
      </trkpt>
      <trkpt lat="48.7288" lon="1.79619">
        <ele>217</ele>
        <time>2026-03-26T10:16:09.000Z</time>
      </trkpt>
      <trkpt lat="48.7288" lon="1.79621">
        <ele>217</ele>
        <time>2026-03-26T10:16:10.000Z</time>
      </trkpt>
      <trkpt lat="48.7288" lon="1.79623">
        <ele>217.5</ele>
        <time>2026-03-26T10:16:11.000Z</time>
      </trkpt>
      <trkpt lat="48.72879" lon="1.79625">
        <ele>217.5</ele>
        <time>2026-03-26T10:16:12.000Z</time>
      </trkpt>
      <trkpt lat="48.72878" lon="1.79627">
        <ele>218.1</ele>
        <time>2026-03-26T10:16:13.000Z</time>
      </trkpt>
      <trkpt lat="48.72878" lon="1.79628">
        <ele>218</ele>
        <time>2026-03-26T10:16:14.000Z</time>
      </trkpt>
      <trkpt lat="48.72877" lon="1.7963">
        <ele>218</ele>
        <time>2026-03-26T10:16:15.000Z</time>
      </trkpt>
      <trkpt lat="48.72877" lon="1.79632">
        <ele>218.5</ele>
        <time>2026-03-26T10:16:16.000Z</time>
      </trkpt>
      <trkpt lat="48.72876" lon="1.79633">
        <ele>218.3</ele>
        <time>2026-03-26T10:16:17.000Z</time>
      </trkpt>
      <trkpt lat="48.72875" lon="1.79634">
        <ele>218.2</ele>
        <time>2026-03-26T10:16:18.000Z</time>
      </trkpt>
      <trkpt lat="48.72874" lon="1.79636">
        <ele>218.4</ele>
        <time>2026-03-26T10:16:19.000Z</time>
      </trkpt>
      <trkpt lat="48.72873" lon="1.79638">
        <ele>218.4</ele>
        <time>2026-03-26T10:16:20.000Z</time>
      </trkpt>
      <trkpt lat="48.72873" lon="1.79639">
        <ele>218.7</ele>
        <time>2026-03-26T10:16:21.000Z</time>
      </trkpt>
      <trkpt lat="48.72873" lon="1.79641">
        <ele>218.8</ele>
        <time>2026-03-26T10:16:22.000Z</time>
      </trkpt>
      <trkpt lat="48.72872" lon="1.79643">
        <ele>218.6</ele>
        <time>2026-03-26T10:16:23.000Z</time>
      </trkpt>
      <trkpt lat="48.72871" lon="1.79645">
        <ele>218.6</ele>
        <time>2026-03-26T10:16:24.000Z</time>
      </trkpt>
      <trkpt lat="48.72871" lon="1.79646">
        <ele>218.6</ele>
        <time>2026-03-26T10:16:25.000Z</time>
      </trkpt>
      <trkpt lat="48.7287" lon="1.79648">
        <ele>218.5</ele>
        <time>2026-03-26T10:16:26.000Z</time>
      </trkpt>
      <trkpt lat="48.72869" lon="1.7965">
        <ele>218.7</ele>
        <time>2026-03-26T10:16:27.000Z</time>
      </trkpt>
      <trkpt lat="48.72868" lon="1.79652">
        <ele>218.3</ele>
        <time>2026-03-26T10:16:28.000Z</time>
      </trkpt>
      <trkpt lat="48.72868" lon="1.79654">
        <ele>217.8</ele>
        <time>2026-03-26T10:16:29.000Z</time>
      </trkpt>
      <trkpt lat="48.72867" lon="1.79656">
        <ele>218</ele>
        <time>2026-03-26T10:16:30.000Z</time>
      </trkpt>
      <trkpt lat="48.72866" lon="1.79657">
        <ele>217.9</ele>
        <time>2026-03-26T10:16:31.000Z</time>
      </trkpt>
      <trkpt lat="48.72866" lon="1.79659">
        <ele>218.4</ele>
        <time>2026-03-26T10:16:32.000Z</time>
      </trkpt>
      <trkpt lat="48.72865" lon="1.79661">
        <ele>218.2</ele>
        <time>2026-03-26T10:16:33.000Z</time>
      </trkpt>
      <trkpt lat="48.72865" lon="1.79663">
        <ele>218.3</ele>
        <time>2026-03-26T10:16:34.000Z</time>
      </trkpt>
      <trkpt lat="48.72864" lon="1.79664">
        <ele>218.2</ele>
        <time>2026-03-26T10:16:35.000Z</time>
      </trkpt>
      <trkpt lat="48.72863" lon="1.79666">
        <ele>218.6</ele>
        <time>2026-03-26T10:16:36.000Z</time>
      </trkpt>
      <trkpt lat="48.72863" lon="1.79668">
        <ele>218.6</ele>
        <time>2026-03-26T10:16:37.000Z</time>
      </trkpt>
      <trkpt lat="48.72862" lon="1.79669">
        <ele>218.7</ele>
        <time>2026-03-26T10:16:38.000Z</time>
      </trkpt>
      <trkpt lat="48.72861" lon="1.79671">
        <ele>218.6</ele>
        <time>2026-03-26T10:16:39.000Z</time>
      </trkpt>
      <trkpt lat="48.72861" lon="1.79673">
        <ele>218.7</ele>
        <time>2026-03-26T10:16:40.000Z</time>
      </trkpt>
      <trkpt lat="48.7286" lon="1.79674">
        <ele>218.4</ele>
        <time>2026-03-26T10:16:41.000Z</time>
      </trkpt>
      <trkpt lat="48.7286" lon="1.79676">
        <ele>218.6</ele>
        <time>2026-03-26T10:16:42.000Z</time>
      </trkpt>
      <trkpt lat="48.72859" lon="1.79678">
        <ele>218.3</ele>
        <time>2026-03-26T10:16:43.000Z</time>
      </trkpt>
      <trkpt lat="48.72859" lon="1.7968">
        <ele>218</ele>
        <time>2026-03-26T10:16:44.000Z</time>
      </trkpt>
      <trkpt lat="48.72858" lon="1.79682">
        <ele>218.2</ele>
        <time>2026-03-26T10:16:45.000Z</time>
      </trkpt>
      <trkpt lat="48.72857" lon="1.79684">
        <ele>218</ele>
        <time>2026-03-26T10:16:46.000Z</time>
      </trkpt>
      <trkpt lat="48.72857" lon="1.79685">
        <ele>217.9</ele>
        <time>2026-03-26T10:16:47.000Z</time>
      </trkpt>
      <trkpt lat="48.72856" lon="1.79687">
        <ele>217.8</ele>
        <time>2026-03-26T10:16:48.000Z</time>
      </trkpt>
      <trkpt lat="48.72855" lon="1.79689">
        <ele>218.5</ele>
        <time>2026-03-26T10:16:49.000Z</time>
      </trkpt>
      <trkpt lat="48.72854" lon="1.7969">
        <ele>218.5</ele>
        <time>2026-03-26T10:16:50.000Z</time>
      </trkpt>
      <trkpt lat="48.72854" lon="1.79692">
        <ele>218.8</ele>
        <time>2026-03-26T10:16:51.000Z</time>
      </trkpt>
      <trkpt lat="48.72853" lon="1.79693">
        <ele>218.8</ele>
        <time>2026-03-26T10:16:52.000Z</time>
      </trkpt>
      <trkpt lat="48.72852" lon="1.79695">
        <ele>219</ele>
        <time>2026-03-26T10:16:53.000Z</time>
      </trkpt>
      <trkpt lat="48.72852" lon="1.79696">
        <ele>219.2</ele>
        <time>2026-03-26T10:16:54.000Z</time>
      </trkpt>
      <trkpt lat="48.72851" lon="1.79698">
        <ele>219.3</ele>
        <time>2026-03-26T10:16:55.000Z</time>
      </trkpt>
      <trkpt lat="48.72851" lon="1.797">
        <ele>219.3</ele>
        <time>2026-03-26T10:16:56.000Z</time>
      </trkpt>
      <trkpt lat="48.7285" lon="1.79702">
        <ele>219.5</ele>
        <time>2026-03-26T10:16:57.000Z</time>
      </trkpt>
      <trkpt lat="48.72849" lon="1.79704">
        <ele>219.6</ele>
        <time>2026-03-26T10:16:58.000Z</time>
      </trkpt>
      <trkpt lat="48.72848" lon="1.79706">
        <ele>220.2</ele>
        <time>2026-03-26T10:16:59.000Z</time>
      </trkpt>
      <trkpt lat="48.72847" lon="1.79707">
        <ele>220.3</ele>
        <time>2026-03-26T10:17:00.000Z</time>
      </trkpt>
      <trkpt lat="48.72846" lon="1.79708">
        <ele>220.2</ele>
        <time>2026-03-26T10:17:01.000Z</time>
      </trkpt>
      <trkpt lat="48.72845" lon="1.7971">
        <ele>220.4</ele>
        <time>2026-03-26T10:17:02.000Z</time>
      </trkpt>
      <trkpt lat="48.72844" lon="1.79711">
        <ele>220.3</ele>
        <time>2026-03-26T10:17:03.000Z</time>
      </trkpt>
      <trkpt lat="48.72843" lon="1.79712">
        <ele>220.1</ele>
        <time>2026-03-26T10:17:04.000Z</time>
      </trkpt>
      <trkpt lat="48.72842" lon="1.79714">
        <ele>220.1</ele>
        <time>2026-03-26T10:17:05.000Z</time>
      </trkpt>
      <trkpt lat="48.72842" lon="1.79716">
        <ele>219.8</ele>
        <time>2026-03-26T10:17:06.000Z</time>
      </trkpt>
      <trkpt lat="48.72841" lon="1.79717">
        <ele>219.8</ele>
        <time>2026-03-26T10:17:07.000Z</time>
      </trkpt>
      <trkpt lat="48.7284" lon="1.79719">
        <ele>219.2</ele>
        <time>2026-03-26T10:17:08.000Z</time>
      </trkpt>
      <trkpt lat="48.72839" lon="1.7972">
        <ele>219.2</ele>
        <time>2026-03-26T10:17:09.000Z</time>
      </trkpt>
      <trkpt lat="48.72838" lon="1.79722">
        <ele>219.1</ele>
        <time>2026-03-26T10:17:10.000Z</time>
      </trkpt>
      <trkpt lat="48.72837" lon="1.79723">
        <ele>218.6</ele>
        <time>2026-03-26T10:17:11.000Z</time>
      </trkpt>
      <trkpt lat="48.72837" lon="1.79725">
        <ele>218.3</ele>
        <time>2026-03-26T10:17:12.000Z</time>
      </trkpt>
      <trkpt lat="48.72836" lon="1.79726">
        <ele>218.5</ele>
        <time>2026-03-26T10:17:13.000Z</time>
      </trkpt>
      <trkpt lat="48.72835" lon="1.79728">
        <ele>217.9</ele>
        <time>2026-03-26T10:17:14.000Z</time>
      </trkpt>
      <trkpt lat="48.72835" lon="1.7973">
        <ele>217.6</ele>
        <time>2026-03-26T10:17:15.000Z</time>
      </trkpt>
      <trkpt lat="48.72834" lon="1.79731">
        <ele>217.9</ele>
        <time>2026-03-26T10:17:16.000Z</time>
      </trkpt>
      <trkpt lat="48.72833" lon="1.79733">
        <ele>217.8</ele>
        <time>2026-03-26T10:17:17.000Z</time>
      </trkpt>
      <trkpt lat="48.72832" lon="1.79734">
        <ele>217.8</ele>
        <time>2026-03-26T10:17:18.000Z</time>
      </trkpt>
      <trkpt lat="48.72832" lon="1.79735">
        <ele>217.5</ele>
        <time>2026-03-26T10:17:19.000Z</time>
      </trkpt>
      <trkpt lat="48.72831" lon="1.79737">
        <ele>217.7</ele>
        <time>2026-03-26T10:17:20.000Z</time>
      </trkpt>
      <trkpt lat="48.7283" lon="1.79738">
        <ele>217.8</ele>
        <time>2026-03-26T10:17:21.000Z</time>
      </trkpt>
      <trkpt lat="48.7283" lon="1.7974">
        <ele>217.8</ele>
        <time>2026-03-26T10:17:22.000Z</time>
      </trkpt>
      <trkpt lat="48.72829" lon="1.79742">
        <ele>218.4</ele>
        <time>2026-03-26T10:17:23.000Z</time>
      </trkpt>
      <trkpt lat="48.72829" lon="1.79744">
        <ele>218.3</ele>
        <time>2026-03-26T10:17:24.000Z</time>
      </trkpt>
      <trkpt lat="48.72828" lon="1.79745">
        <ele>218.5</ele>
        <time>2026-03-26T10:17:25.000Z</time>
      </trkpt>
      <trkpt lat="48.72828" lon="1.79747">
        <ele>218.5</ele>
        <time>2026-03-26T10:17:26.000Z</time>
      </trkpt>
      <trkpt lat="48.72827" lon="1.79749">
        <ele>218.5</ele>
        <time>2026-03-26T10:17:27.000Z</time>
      </trkpt>
      <trkpt lat="48.72827" lon="1.79751">
        <ele>218.9</ele>
        <time>2026-03-26T10:17:28.000Z</time>
      </trkpt>
      <trkpt lat="48.72826" lon="1.79752">
        <ele>219</ele>
        <time>2026-03-26T10:17:29.000Z</time>
      </trkpt>
      <trkpt lat="48.72825" lon="1.79754">
        <ele>219.1</ele>
        <time>2026-03-26T10:17:30.000Z</time>
      </trkpt>
      <trkpt lat="48.72825" lon="1.79755">
        <ele>219</ele>
        <time>2026-03-26T10:17:31.000Z</time>
      </trkpt>
      <trkpt lat="48.72824" lon="1.79757">
        <ele>219.6</ele>
        <time>2026-03-26T10:17:32.000Z</time>
      </trkpt>
      <trkpt lat="48.72824" lon="1.79759">
        <ele>219.6</ele>
        <time>2026-03-26T10:17:33.000Z</time>
      </trkpt>
      <trkpt lat="48.72823" lon="1.79761">
        <ele>219.5</ele>
        <time>2026-03-26T10:17:34.000Z</time>
      </trkpt>
      <trkpt lat="48.72822" lon="1.79762">
        <ele>219</ele>
        <time>2026-03-26T10:17:35.000Z</time>
      </trkpt>
      <trkpt lat="48.72822" lon="1.79764">
        <ele>219.4</ele>
        <time>2026-03-26T10:17:36.000Z</time>
      </trkpt>
      <trkpt lat="48.72821" lon="1.79766">
        <ele>219.1</ele>
        <time>2026-03-26T10:17:37.000Z</time>
      </trkpt>
      <trkpt lat="48.7282" lon="1.79767">
        <ele>218.6</ele>
        <time>2026-03-26T10:17:38.000Z</time>
      </trkpt>
      <trkpt lat="48.7282" lon="1.79769">
        <ele>219.1</ele>
        <time>2026-03-26T10:17:39.000Z</time>
      </trkpt>
      <trkpt lat="48.72819" lon="1.79771">
        <ele>219.4</ele>
        <time>2026-03-26T10:17:40.000Z</time>
      </trkpt>
      <trkpt lat="48.72819" lon="1.79772">
        <ele>218.4</ele>
        <time>2026-03-26T10:17:41.000Z</time>
      </trkpt>
      <trkpt lat="48.72818" lon="1.79774">
        <ele>218.4</ele>
        <time>2026-03-26T10:17:42.000Z</time>
      </trkpt>
      <trkpt lat="48.72818" lon="1.79775">
        <ele>218</ele>
        <time>2026-03-26T10:17:43.000Z</time>
      </trkpt>
      <trkpt lat="48.72817" lon="1.79777">
        <ele>218.2</ele>
        <time>2026-03-26T10:17:44.000Z</time>
      </trkpt>
      <trkpt lat="48.72816" lon="1.79778">
        <ele>218.2</ele>
        <time>2026-03-26T10:17:45.000Z</time>
      </trkpt>
      <trkpt lat="48.72816" lon="1.7978">
        <ele>217.9</ele>
        <time>2026-03-26T10:17:46.000Z</time>
      </trkpt>
      <trkpt lat="48.72815" lon="1.79781">
        <ele>217.6</ele>
        <time>2026-03-26T10:17:47.000Z</time>
      </trkpt>
      <trkpt lat="48.72814" lon="1.79783">
        <ele>218.2</ele>
        <time>2026-03-26T10:17:48.000Z</time>
      </trkpt>
      <trkpt lat="48.72814" lon="1.79784">
        <ele>218.6</ele>
        <time>2026-03-26T10:17:49.000Z</time>
      </trkpt>
      <trkpt lat="48.72814" lon="1.79786">
        <ele>218.9</ele>
        <time>2026-03-26T10:17:50.000Z</time>
      </trkpt>
      <trkpt lat="48.72814" lon="1.79788">
        <ele>219.3</ele>
        <time>2026-03-26T10:17:51.000Z</time>
      </trkpt>
      <trkpt lat="48.72813" lon="1.7979">
        <ele>219.8</ele>
        <time>2026-03-26T10:17:52.000Z</time>
      </trkpt>
      <trkpt lat="48.72813" lon="1.79792">
        <ele>219.5</ele>
        <time>2026-03-26T10:17:53.000Z</time>
      </trkpt>
      <trkpt lat="48.72812" lon="1.79794">
        <ele>219.3</ele>
        <time>2026-03-26T10:17:54.000Z</time>
      </trkpt>
      <trkpt lat="48.72812" lon="1.79796">
        <ele>219.8</ele>
        <time>2026-03-26T10:17:55.000Z</time>
      </trkpt>
      <trkpt lat="48.72811" lon="1.79797">
        <ele>219.9</ele>
        <time>2026-03-26T10:17:56.000Z</time>
      </trkpt>
      <trkpt lat="48.7281" lon="1.79799">
        <ele>219.3</ele>
        <time>2026-03-26T10:17:57.000Z</time>
      </trkpt>
      <trkpt lat="48.7281" lon="1.798">
        <ele>218.9</ele>
        <time>2026-03-26T10:17:58.000Z</time>
      </trkpt>
      <trkpt lat="48.72809" lon="1.79802">
        <ele>219.2</ele>
        <time>2026-03-26T10:17:59.000Z</time>
      </trkpt>
      <trkpt lat="48.72809" lon="1.79804">
        <ele>219.2</ele>
        <time>2026-03-26T10:18:00.000Z</time>
      </trkpt>
      <trkpt lat="48.72808" lon="1.79806">
        <ele>219.3</ele>
        <time>2026-03-26T10:18:01.000Z</time>
      </trkpt>
      <trkpt lat="48.72807" lon="1.79807">
        <ele>219.1</ele>
        <time>2026-03-26T10:18:02.000Z</time>
      </trkpt>
      <trkpt lat="48.72807" lon="1.79808">
        <ele>219.8</ele>
        <time>2026-03-26T10:18:03.000Z</time>
      </trkpt>
      <trkpt lat="48.72807" lon="1.7981">
        <ele>219.6</ele>
        <time>2026-03-26T10:18:04.000Z</time>
      </trkpt>
      <trkpt lat="48.72807" lon="1.79812">
        <ele>219.4</ele>
        <time>2026-03-26T10:18:05.000Z</time>
      </trkpt>
      <trkpt lat="48.72807" lon="1.79814">
        <ele>219.2</ele>
        <time>2026-03-26T10:18:06.000Z</time>
      </trkpt>
      <trkpt lat="48.72807" lon="1.79816">
        <ele>219.2</ele>
        <time>2026-03-26T10:18:07.000Z</time>
      </trkpt>
      <trkpt lat="48.72807" lon="1.79817">
        <ele>219</ele>
        <time>2026-03-26T10:18:08.000Z</time>
      </trkpt>
      <trkpt lat="48.72806" lon="1.79819">
        <ele>219</ele>
        <time>2026-03-26T10:18:09.000Z</time>
      </trkpt>
      <trkpt lat="48.72806" lon="1.79821">
        <ele>218.5</ele>
        <time>2026-03-26T10:18:10.000Z</time>
      </trkpt>
      <trkpt lat="48.72804" lon="1.79822">
        <ele>218.5</ele>
        <time>2026-03-26T10:18:11.000Z</time>
      </trkpt>
      <trkpt lat="48.72803" lon="1.79822">
        <ele>217.5</ele>
        <time>2026-03-26T10:18:12.000Z</time>
      </trkpt>
      <trkpt lat="48.72802" lon="1.79823">
        <ele>217.4</ele>
        <time>2026-03-26T10:18:13.000Z</time>
      </trkpt>
      <trkpt lat="48.72801" lon="1.79824">
        <ele>217.5</ele>
        <time>2026-03-26T10:18:14.000Z</time>
      </trkpt>
      <trkpt lat="48.728" lon="1.79826">
        <ele>217.7</ele>
        <time>2026-03-26T10:18:15.000Z</time>
      </trkpt>
      <trkpt lat="48.728" lon="1.79828">
        <ele>217.5</ele>
        <time>2026-03-26T10:18:16.000Z</time>
      </trkpt>
      <trkpt lat="48.72799" lon="1.79829">
        <ele>217.2</ele>
        <time>2026-03-26T10:18:17.000Z</time>
      </trkpt>
      <trkpt lat="48.72798" lon="1.79831">
        <ele>217.1</ele>
        <time>2026-03-26T10:18:18.000Z</time>
      </trkpt>
      <trkpt lat="48.72797" lon="1.79832">
        <ele>216.9</ele>
        <time>2026-03-26T10:18:19.000Z</time>
      </trkpt>
      <trkpt lat="48.72797" lon="1.79834">
        <ele>216.9</ele>
        <time>2026-03-26T10:18:20.000Z</time>
      </trkpt>
      <trkpt lat="48.72796" lon="1.79836">
        <ele>217</ele>
        <time>2026-03-26T10:18:21.000Z</time>
      </trkpt>
      <trkpt lat="48.72796" lon="1.79838">
        <ele>217.3</ele>
        <time>2026-03-26T10:18:22.000Z</time>
      </trkpt>
      <trkpt lat="48.72795" lon="1.79839">
        <ele>217.8</ele>
        <time>2026-03-26T10:18:23.000Z</time>
      </trkpt>
      <trkpt lat="48.72794" lon="1.79841">
        <ele>217.6</ele>
        <time>2026-03-26T10:18:24.000Z</time>
      </trkpt>
      <trkpt lat="48.72794" lon="1.79843">
        <ele>217.6</ele>
        <time>2026-03-26T10:18:25.000Z</time>
      </trkpt>
      <trkpt lat="48.72793" lon="1.79845">
        <ele>218.1</ele>
        <time>2026-03-26T10:18:26.000Z</time>
      </trkpt>
      <trkpt lat="48.72792" lon="1.79846">
        <ele>218.5</ele>
        <time>2026-03-26T10:18:27.000Z</time>
      </trkpt>
      <trkpt lat="48.72792" lon="1.79847">
        <ele>218.5</ele>
        <time>2026-03-26T10:18:28.000Z</time>
      </trkpt>
      <trkpt lat="48.72791" lon="1.79848">
        <ele>218.7</ele>
        <time>2026-03-26T10:18:29.000Z</time>
      </trkpt>
      <trkpt lat="48.7279" lon="1.79849">
        <ele>217.8</ele>
        <time>2026-03-26T10:18:30.000Z</time>
      </trkpt>
      <trkpt lat="48.72788" lon="1.7985">
        <ele>217.6</ele>
        <time>2026-03-26T10:18:31.000Z</time>
      </trkpt>
      <trkpt lat="48.72788" lon="1.79852">
        <ele>218.3</ele>
        <time>2026-03-26T10:18:32.000Z</time>
      </trkpt>
      <trkpt lat="48.72788" lon="1.79854">
        <ele>218.8</ele>
        <time>2026-03-26T10:18:33.000Z</time>
      </trkpt>
      <trkpt lat="48.72787" lon="1.79855">
        <ele>219.1</ele>
        <time>2026-03-26T10:18:34.000Z</time>
      </trkpt>
      <trkpt lat="48.72787" lon="1.79857">
        <ele>219.5</ele>
        <time>2026-03-26T10:18:35.000Z</time>
      </trkpt>
      <trkpt lat="48.72786" lon="1.79859">
        <ele>219.5</ele>
        <time>2026-03-26T10:18:36.000Z</time>
      </trkpt>
      <trkpt lat="48.72786" lon="1.79861">
        <ele>219.5</ele>
        <time>2026-03-26T10:18:37.000Z</time>
      </trkpt>
      <trkpt lat="48.72785" lon="1.79863">
        <ele>219.5</ele>
        <time>2026-03-26T10:18:38.000Z</time>
      </trkpt>
      <trkpt lat="48.72785" lon="1.79865">
        <ele>219.3</ele>
        <time>2026-03-26T10:18:39.000Z</time>
      </trkpt>
      <trkpt lat="48.72784" lon="1.79866">
        <ele>219.6</ele>
        <time>2026-03-26T10:18:40.000Z</time>
      </trkpt>
      <trkpt lat="48.72784" lon="1.79868">
        <ele>219.5</ele>
        <time>2026-03-26T10:18:41.000Z</time>
      </trkpt>
      <trkpt lat="48.72783" lon="1.79869">
        <ele>219.3</ele>
        <time>2026-03-26T10:18:42.000Z</time>
      </trkpt>
      <trkpt lat="48.72782" lon="1.79871">
        <ele>219.3</ele>
        <time>2026-03-26T10:18:43.000Z</time>
      </trkpt>
      <trkpt lat="48.72782" lon="1.79873">
        <ele>219.4</ele>
        <time>2026-03-26T10:18:44.000Z</time>
      </trkpt>
      <trkpt lat="48.72781" lon="1.79874">
        <ele>219.6</ele>
        <time>2026-03-26T10:18:45.000Z</time>
      </trkpt>
      <trkpt lat="48.72781" lon="1.79876">
        <ele>219.7</ele>
        <time>2026-03-26T10:18:46.000Z</time>
      </trkpt>
      <trkpt lat="48.7278" lon="1.79878">
        <ele>219.3</ele>
        <time>2026-03-26T10:18:47.000Z</time>
      </trkpt>
      <trkpt lat="48.72779" lon="1.79879">
        <ele>219.3</ele>
        <time>2026-03-26T10:18:48.000Z</time>
      </trkpt>
      <trkpt lat="48.72778" lon="1.7988">
        <ele>219.1</ele>
        <time>2026-03-26T10:18:49.000Z</time>
      </trkpt>
      <trkpt lat="48.72777" lon="1.79881">
        <ele>219.1</ele>
        <time>2026-03-26T10:18:50.000Z</time>
      </trkpt>
      <trkpt lat="48.72776" lon="1.79883">
        <ele>219.2</ele>
        <time>2026-03-26T10:18:51.000Z</time>
      </trkpt>
      <trkpt lat="48.72776" lon="1.79884">
        <ele>219.1</ele>
        <time>2026-03-26T10:18:52.000Z</time>
      </trkpt>
      <trkpt lat="48.72775" lon="1.79886">
        <ele>219.4</ele>
        <time>2026-03-26T10:18:53.000Z</time>
      </trkpt>
      <trkpt lat="48.72774" lon="1.79887">
        <ele>219.4</ele>
        <time>2026-03-26T10:18:54.000Z</time>
      </trkpt>
      <trkpt lat="48.72773" lon="1.79889">
        <ele>219.2</ele>
        <time>2026-03-26T10:18:55.000Z</time>
      </trkpt>
      <trkpt lat="48.72773" lon="1.7989">
        <ele>218.7</ele>
        <time>2026-03-26T10:18:56.000Z</time>
      </trkpt>
      <trkpt lat="48.72772" lon="1.79892">
        <ele>218.8</ele>
        <time>2026-03-26T10:18:57.000Z</time>
      </trkpt>
      <trkpt lat="48.72772" lon="1.79894">
        <ele>219.2</ele>
        <time>2026-03-26T10:18:58.000Z</time>
      </trkpt>
      <trkpt lat="48.72771" lon="1.79895">
        <ele>219.7</ele>
        <time>2026-03-26T10:18:59.000Z</time>
      </trkpt>
      <trkpt lat="48.72771" lon="1.79897">
        <ele>219.7</ele>
        <time>2026-03-26T10:19:00.000Z</time>
      </trkpt>
      <trkpt lat="48.7277" lon="1.79898">
        <ele>220</ele>
        <time>2026-03-26T10:19:01.000Z</time>
      </trkpt>
      <trkpt lat="48.7277" lon="1.799">
        <ele>220</ele>
        <time>2026-03-26T10:19:02.000Z</time>
      </trkpt>
      <trkpt lat="48.72769" lon="1.79902">
        <ele>220.3</ele>
        <time>2026-03-26T10:19:03.000Z</time>
      </trkpt>
      <trkpt lat="48.72769" lon="1.79904">
        <ele>220.1</ele>
        <time>2026-03-26T10:19:04.000Z</time>
      </trkpt>
      <trkpt lat="48.72768" lon="1.79905">
        <ele>220.5</ele>
        <time>2026-03-26T10:19:05.000Z</time>
      </trkpt>
      <trkpt lat="48.72768" lon="1.79906">
        <ele>220</ele>
        <time>2026-03-26T10:19:06.000Z</time>
      </trkpt>
      <trkpt lat="48.72768" lon="1.79908">
        <ele>220.3</ele>
        <time>2026-03-26T10:19:07.000Z</time>
      </trkpt>
      <trkpt lat="48.72767" lon="1.7991">
        <ele>220.5</ele>
        <time>2026-03-26T10:19:08.000Z</time>
      </trkpt>
      <trkpt lat="48.72767" lon="1.79911">
        <ele>220.6</ele>
        <time>2026-03-26T10:19:09.000Z</time>
      </trkpt>
      <trkpt lat="48.72766" lon="1.79913">
        <ele>220.4</ele>
        <time>2026-03-26T10:19:10.000Z</time>
      </trkpt>
      <trkpt lat="48.72766" lon="1.79914">
        <ele>220.4</ele>
        <time>2026-03-26T10:19:11.000Z</time>
      </trkpt>
      <trkpt lat="48.72765" lon="1.79916">
        <ele>220.3</ele>
        <time>2026-03-26T10:19:12.000Z</time>
      </trkpt>
      <trkpt lat="48.72764" lon="1.79917">
        <ele>220.1</ele>
        <time>2026-03-26T10:19:13.000Z</time>
      </trkpt>
      <trkpt lat="48.72764" lon="1.79919">
        <ele>220.1</ele>
        <time>2026-03-26T10:19:14.000Z</time>
      </trkpt>
      <trkpt lat="48.72763" lon="1.7992">
        <ele>220.2</ele>
        <time>2026-03-26T10:19:15.000Z</time>
      </trkpt>
      <trkpt lat="48.72763" lon="1.79922">
        <ele>220.4</ele>
        <time>2026-03-26T10:19:16.000Z</time>
      </trkpt>
      <trkpt lat="48.72762" lon="1.79924">
        <ele>220.1</ele>
        <time>2026-03-26T10:19:17.000Z</time>
      </trkpt>
      <trkpt lat="48.72761" lon="1.79925">
        <ele>219.4</ele>
        <time>2026-03-26T10:19:18.000Z</time>
      </trkpt>
      <trkpt lat="48.7276" lon="1.79926">
        <ele>219.2</ele>
        <time>2026-03-26T10:19:19.000Z</time>
      </trkpt>
      <trkpt lat="48.72759" lon="1.79927">
        <ele>218.7</ele>
        <time>2026-03-26T10:19:20.000Z</time>
      </trkpt>
      <trkpt lat="48.72758" lon="1.79929">
        <ele>218.5</ele>
        <time>2026-03-26T10:19:21.000Z</time>
      </trkpt>
      <trkpt lat="48.72757" lon="1.7993">
        <ele>218.1</ele>
        <time>2026-03-26T10:19:22.000Z</time>
      </trkpt>
      <trkpt lat="48.72757" lon="1.79932">
        <ele>218.4</ele>
        <time>2026-03-26T10:19:23.000Z</time>
      </trkpt>
      <trkpt lat="48.72756" lon="1.79934">
        <ele>218.5</ele>
        <time>2026-03-26T10:19:24.000Z</time>
      </trkpt>
      <trkpt lat="48.72755" lon="1.79935">
        <ele>218.6</ele>
        <time>2026-03-26T10:19:25.000Z</time>
      </trkpt>
      <trkpt lat="48.72754" lon="1.79937">
        <ele>218.6</ele>
        <time>2026-03-26T10:19:26.000Z</time>
      </trkpt>
      <trkpt lat="48.72754" lon="1.79938">
        <ele>218.8</ele>
        <time>2026-03-26T10:19:27.000Z</time>
      </trkpt>
      <trkpt lat="48.72753" lon="1.7994">
        <ele>219.3</ele>
        <time>2026-03-26T10:19:28.000Z</time>
      </trkpt>
      <trkpt lat="48.72753" lon="1.79942">
        <ele>219.6</ele>
        <time>2026-03-26T10:19:29.000Z</time>
      </trkpt>
      <trkpt lat="48.72753" lon="1.79944">
        <ele>219.9</ele>
        <time>2026-03-26T10:19:30.000Z</time>
      </trkpt>
      <trkpt lat="48.72752" lon="1.79946">
        <ele>220.5</ele>
        <time>2026-03-26T10:19:31.000Z</time>
      </trkpt>
      <trkpt lat="48.72752" lon="1.79948">
        <ele>220.8</ele>
        <time>2026-03-26T10:19:32.000Z</time>
      </trkpt>
      <trkpt lat="48.72751" lon="1.7995">
        <ele>221.2</ele>
        <time>2026-03-26T10:19:33.000Z</time>
      </trkpt>
      <trkpt lat="48.7275" lon="1.79951">
        <ele>220.8</ele>
        <time>2026-03-26T10:19:34.000Z</time>
      </trkpt>
      <trkpt lat="48.72749" lon="1.79953">
        <ele>220.4</ele>
        <time>2026-03-26T10:19:35.000Z</time>
      </trkpt>
      <trkpt lat="48.72748" lon="1.79954">
        <ele>221.2</ele>
        <time>2026-03-26T10:19:36.000Z</time>
      </trkpt>
      <trkpt lat="48.72748" lon="1.79956">
        <ele>221.4</ele>
        <time>2026-03-26T10:19:37.000Z</time>
      </trkpt>
      <trkpt lat="48.72747" lon="1.79958">
        <ele>221.9</ele>
        <time>2026-03-26T10:19:38.000Z</time>
      </trkpt>
      <trkpt lat="48.72747" lon="1.7996">
        <ele>221.7</ele>
        <time>2026-03-26T10:19:39.000Z</time>
      </trkpt>
      <trkpt lat="48.72746" lon="1.79962">
        <ele>221.7</ele>
        <time>2026-03-26T10:19:40.000Z</time>
      </trkpt>
      <trkpt lat="48.72745" lon="1.79963">
        <ele>221.3</ele>
        <time>2026-03-26T10:19:41.000Z</time>
      </trkpt>
      <trkpt lat="48.72744" lon="1.79964">
        <ele>220.9</ele>
        <time>2026-03-26T10:19:42.000Z</time>
      </trkpt>
      <trkpt lat="48.72743" lon="1.79965">
        <ele>220.6</ele>
        <time>2026-03-26T10:19:43.000Z</time>
      </trkpt>
      <trkpt lat="48.72743" lon="1.79967">
        <ele>220.8</ele>
        <time>2026-03-26T10:19:44.000Z</time>
      </trkpt>
      <trkpt lat="48.72743" lon="1.79969">
        <ele>220.8</ele>
        <time>2026-03-26T10:19:45.000Z</time>
      </trkpt>
      <trkpt lat="48.72742" lon="1.7997">
        <ele>220.6</ele>
        <time>2026-03-26T10:19:46.000Z</time>
      </trkpt>
      <trkpt lat="48.72742" lon="1.79972">
        <ele>220.7</ele>
        <time>2026-03-26T10:19:47.000Z</time>
      </trkpt>
      <trkpt lat="48.72741" lon="1.79974">
        <ele>220.2</ele>
        <time>2026-03-26T10:19:48.000Z</time>
      </trkpt>
      <trkpt lat="48.72741" lon="1.79976">
        <ele>220.1</ele>
        <time>2026-03-26T10:19:49.000Z</time>
      </trkpt>
      <trkpt lat="48.72741" lon="1.79978">
        <ele>220</ele>
        <time>2026-03-26T10:19:50.000Z</time>
      </trkpt>
      <trkpt lat="48.7274" lon="1.79979">
        <ele>219.2</ele>
        <time>2026-03-26T10:19:51.000Z</time>
      </trkpt>
      <trkpt lat="48.7274" lon="1.79981">
        <ele>219</ele>
        <time>2026-03-26T10:19:52.000Z</time>
      </trkpt>
      <trkpt lat="48.7274" lon="1.79983">
        <ele>219.6</ele>
        <time>2026-03-26T10:19:53.000Z</time>
      </trkpt>
      <trkpt lat="48.72739" lon="1.79984">
        <ele>219.6</ele>
        <time>2026-03-26T10:19:54.000Z</time>
      </trkpt>
      <trkpt lat="48.72739" lon="1.79986">
        <ele>218.8</ele>
        <time>2026-03-26T10:19:55.000Z</time>
      </trkpt>
      <trkpt lat="48.72738" lon="1.79987">
        <ele>218.7</ele>
        <time>2026-03-26T10:19:56.000Z</time>
      </trkpt>
      <trkpt lat="48.72737" lon="1.79988">
        <ele>219.2</ele>
        <time>2026-03-26T10:19:57.000Z</time>
      </trkpt>
      <trkpt lat="48.72737" lon="1.7999">
        <ele>219.6</ele>
        <time>2026-03-26T10:19:58.000Z</time>
      </trkpt>
      <trkpt lat="48.72737" lon="1.79992">
        <ele>219.7</ele>
        <time>2026-03-26T10:19:59.000Z</time>
      </trkpt>
      <trkpt lat="48.72737" lon="1.79994">
        <ele>220.5</ele>
        <time>2026-03-26T10:20:00.000Z</time>
      </trkpt>
      <trkpt lat="48.72737" lon="1.79996">
        <ele>221.2</ele>
        <time>2026-03-26T10:20:01.000Z</time>
      </trkpt>
      <trkpt lat="48.72736" lon="1.79997">
        <ele>220.8</ele>
        <time>2026-03-26T10:20:02.000Z</time>
      </trkpt>
      <trkpt lat="48.72735" lon="1.79999">
        <ele>220.9</ele>
        <time>2026-03-26T10:20:03.000Z</time>
      </trkpt>
      <trkpt lat="48.72735" lon="1.8">
        <ele>220.6</ele>
        <time>2026-03-26T10:20:04.000Z</time>
      </trkpt>
      <trkpt lat="48.72734" lon="1.80001">
        <ele>220.8</ele>
        <time>2026-03-26T10:20:05.000Z</time>
      </trkpt>
      <trkpt lat="48.72733" lon="1.80003">
        <ele>221.3</ele>
        <time>2026-03-26T10:20:06.000Z</time>
      </trkpt>
      <trkpt lat="48.72732" lon="1.80004">
        <ele>221.3</ele>
        <time>2026-03-26T10:20:07.000Z</time>
      </trkpt>
      <trkpt lat="48.72731" lon="1.80005">
        <ele>221.2</ele>
        <time>2026-03-26T10:20:08.000Z</time>
      </trkpt>
      <trkpt lat="48.7273" lon="1.80006">
        <ele>221.4</ele>
        <time>2026-03-26T10:20:09.000Z</time>
      </trkpt>
      <trkpt lat="48.72729" lon="1.80006">
        <ele>220.8</ele>
        <time>2026-03-26T10:20:10.000Z</time>
      </trkpt>
      <trkpt lat="48.72728" lon="1.80007">
        <ele>220.6</ele>
        <time>2026-03-26T10:20:11.000Z</time>
      </trkpt>
      <trkpt lat="48.72727" lon="1.80008">
        <ele>220.4</ele>
        <time>2026-03-26T10:20:12.000Z</time>
      </trkpt>
      <trkpt lat="48.72727" lon="1.8001">
        <ele>220.8</ele>
        <time>2026-03-26T10:20:13.000Z</time>
      </trkpt>
      <trkpt lat="48.72727" lon="1.80012">
        <ele>220.6</ele>
        <time>2026-03-26T10:20:14.000Z</time>
      </trkpt>
      <trkpt lat="48.72727" lon="1.80014">
        <ele>220.4</ele>
        <time>2026-03-26T10:20:15.000Z</time>
      </trkpt>
      <trkpt lat="48.72727" lon="1.80015">
        <ele>220.5</ele>
        <time>2026-03-26T10:20:16.000Z</time>
      </trkpt>
      <trkpt lat="48.72726" lon="1.80017">
        <ele>220.1</ele>
        <time>2026-03-26T10:20:17.000Z</time>
      </trkpt>
      <trkpt lat="48.72726" lon="1.80018">
        <ele>219.6</ele>
        <time>2026-03-26T10:20:18.000Z</time>
      </trkpt>
      <trkpt lat="48.72725" lon="1.8002">
        <ele>219.3</ele>
        <time>2026-03-26T10:20:19.000Z</time>
      </trkpt>
      <trkpt lat="48.72724" lon="1.80021">
        <ele>219.1</ele>
        <time>2026-03-26T10:20:20.000Z</time>
      </trkpt>
      <trkpt lat="48.72723" lon="1.80023">
        <ele>219.1</ele>
        <time>2026-03-26T10:20:21.000Z</time>
      </trkpt>
      <trkpt lat="48.72723" lon="1.80024">
        <ele>219</ele>
        <time>2026-03-26T10:20:22.000Z</time>
      </trkpt>
      <trkpt lat="48.72722" lon="1.80026">
        <ele>218.9</ele>
        <time>2026-03-26T10:20:23.000Z</time>
      </trkpt>
      <trkpt lat="48.72722" lon="1.80028">
        <ele>218.4</ele>
        <time>2026-03-26T10:20:24.000Z</time>
      </trkpt>
      <trkpt lat="48.72721" lon="1.8003">
        <ele>218.7</ele>
        <time>2026-03-26T10:20:25.000Z</time>
      </trkpt>
      <trkpt lat="48.7272" lon="1.80031">
        <ele>218.3</ele>
        <time>2026-03-26T10:20:26.000Z</time>
      </trkpt>
      <trkpt lat="48.7272" lon="1.80033">
        <ele>218.2</ele>
        <time>2026-03-26T10:20:27.000Z</time>
      </trkpt>
      <trkpt lat="48.72719" lon="1.80035">
        <ele>218.3</ele>
        <time>2026-03-26T10:20:28.000Z</time>
      </trkpt>
      <trkpt lat="48.72718" lon="1.80036">
        <ele>218.4</ele>
        <time>2026-03-26T10:20:29.000Z</time>
      </trkpt>
      <trkpt lat="48.72718" lon="1.80038">
        <ele>218.3</ele>
        <time>2026-03-26T10:20:30.000Z</time>
      </trkpt>
      <trkpt lat="48.72717" lon="1.8004">
        <ele>218</ele>
        <time>2026-03-26T10:20:31.000Z</time>
      </trkpt>
      <trkpt lat="48.72717" lon="1.80041">
        <ele>217.6</ele>
        <time>2026-03-26T10:20:32.000Z</time>
      </trkpt>
      <trkpt lat="48.72716" lon="1.80043">
        <ele>217.6</ele>
        <time>2026-03-26T10:20:33.000Z</time>
      </trkpt>
      <trkpt lat="48.72715" lon="1.80045">
        <ele>217.8</ele>
        <time>2026-03-26T10:20:34.000Z</time>
      </trkpt>
      <trkpt lat="48.72715" lon="1.80046">
        <ele>217.6</ele>
        <time>2026-03-26T10:20:35.000Z</time>
      </trkpt>
      <trkpt lat="48.72714" lon="1.80048">
        <ele>217.3</ele>
        <time>2026-03-26T10:20:36.000Z</time>
      </trkpt>
      <trkpt lat="48.72713" lon="1.8005">
        <ele>217.2</ele>
        <time>2026-03-26T10:20:37.000Z</time>
      </trkpt>
      <trkpt lat="48.72713" lon="1.80052">
        <ele>217.1</ele>
        <time>2026-03-26T10:20:38.000Z</time>
      </trkpt>
      <trkpt lat="48.72712" lon="1.80053">
        <ele>217.2</ele>
        <time>2026-03-26T10:20:39.000Z</time>
      </trkpt>
      <trkpt lat="48.72712" lon="1.80055">
        <ele>217.4</ele>
        <time>2026-03-26T10:20:40.000Z</time>
      </trkpt>
      <trkpt lat="48.72711" lon="1.80057">
        <ele>217.6</ele>
        <time>2026-03-26T10:20:41.000Z</time>
      </trkpt>
      <trkpt lat="48.7271" lon="1.80058">
        <ele>217.8</ele>
        <time>2026-03-26T10:20:42.000Z</time>
      </trkpt>
      <trkpt lat="48.72709" lon="1.8006">
        <ele>217.7</ele>
        <time>2026-03-26T10:20:43.000Z</time>
      </trkpt>
      <trkpt lat="48.72708" lon="1.80061">
        <ele>217.6</ele>
        <time>2026-03-26T10:20:44.000Z</time>
      </trkpt>
      <trkpt lat="48.72708" lon="1.80063">
        <ele>218.1</ele>
        <time>2026-03-26T10:20:45.000Z</time>
      </trkpt>
      <trkpt lat="48.72707" lon="1.80064">
        <ele>218.3</ele>
        <time>2026-03-26T10:20:46.000Z</time>
      </trkpt>
      <trkpt lat="48.72707" lon="1.80066">
        <ele>218.6</ele>
        <time>2026-03-26T10:20:47.000Z</time>
      </trkpt>
      <trkpt lat="48.72706" lon="1.80068">
        <ele>218.6</ele>
        <time>2026-03-26T10:20:48.000Z</time>
      </trkpt>
      <trkpt lat="48.72706" lon="1.80069">
        <ele>218.4</ele>
        <time>2026-03-26T10:20:49.000Z</time>
      </trkpt>
      <trkpt lat="48.72705" lon="1.80071">
        <ele>218</ele>
        <time>2026-03-26T10:20:50.000Z</time>
      </trkpt>
      <trkpt lat="48.72704" lon="1.80072">
        <ele>217.8</ele>
        <time>2026-03-26T10:20:51.000Z</time>
      </trkpt>
      <trkpt lat="48.72704" lon="1.80074">
        <ele>217.6</ele>
        <time>2026-03-26T10:20:52.000Z</time>
      </trkpt>
      <trkpt lat="48.72703" lon="1.80075">
        <ele>217.2</ele>
        <time>2026-03-26T10:20:53.000Z</time>
      </trkpt>
      <trkpt lat="48.72702" lon="1.80076">
        <ele>217.1</ele>
        <time>2026-03-26T10:20:54.000Z</time>
      </trkpt>
      <trkpt lat="48.72701" lon="1.80077">
        <ele>217.1</ele>
        <time>2026-03-26T10:20:55.000Z</time>
      </trkpt>
      <trkpt lat="48.72701" lon="1.80079">
        <ele>217.4</ele>
        <time>2026-03-26T10:20:56.000Z</time>
      </trkpt>
      <trkpt lat="48.727" lon="1.8008">
        <ele>217.5</ele>
        <time>2026-03-26T10:20:57.000Z</time>
      </trkpt>
      <trkpt lat="48.72699" lon="1.80082">
        <ele>217.6</ele>
        <time>2026-03-26T10:20:58.000Z</time>
      </trkpt>
      <trkpt lat="48.72698" lon="1.80083">
        <ele>217.8</ele>
        <time>2026-03-26T10:20:59.000Z</time>
      </trkpt>
      <trkpt lat="48.72698" lon="1.80085">
        <ele>217.6</ele>
        <time>2026-03-26T10:21:00.000Z</time>
      </trkpt>
      <trkpt lat="48.72697" lon="1.80086">
        <ele>217.8</ele>
        <time>2026-03-26T10:21:01.000Z</time>
      </trkpt>
      <trkpt lat="48.72696" lon="1.80088">
        <ele>217.8</ele>
        <time>2026-03-26T10:21:02.000Z</time>
      </trkpt>
      <trkpt lat="48.72696" lon="1.80089">
        <ele>217.4</ele>
        <time>2026-03-26T10:21:03.000Z</time>
      </trkpt>
      <trkpt lat="48.72695" lon="1.80091">
        <ele>217.3</ele>
        <time>2026-03-26T10:21:04.000Z</time>
      </trkpt>
      <trkpt lat="48.72695" lon="1.80093">
        <ele>217.4</ele>
        <time>2026-03-26T10:21:05.000Z</time>
      </trkpt>
      <trkpt lat="48.72694" lon="1.80095">
        <ele>217.8</ele>
        <time>2026-03-26T10:21:06.000Z</time>
      </trkpt>
      <trkpt lat="48.72694" lon="1.80097">
        <ele>218.1</ele>
        <time>2026-03-26T10:21:07.000Z</time>
      </trkpt>
      <trkpt lat="48.72693" lon="1.80098">
        <ele>218.3</ele>
        <time>2026-03-26T10:21:08.000Z</time>
      </trkpt>
      <trkpt lat="48.72693" lon="1.80101">
        <ele>218.2</ele>
        <time>2026-03-26T10:21:09.000Z</time>
      </trkpt>
      <trkpt lat="48.72692" lon="1.80102">
        <ele>218.7</ele>
        <time>2026-03-26T10:21:10.000Z</time>
      </trkpt>
      <trkpt lat="48.72692" lon="1.80104">
        <ele>218.9</ele>
        <time>2026-03-26T10:21:11.000Z</time>
      </trkpt>
      <trkpt lat="48.72691" lon="1.80106">
        <ele>218.9</ele>
        <time>2026-03-26T10:21:12.000Z</time>
      </trkpt>
      <trkpt lat="48.7269" lon="1.80108">
        <ele>219.3</ele>
        <time>2026-03-26T10:21:13.000Z</time>
      </trkpt>
      <trkpt lat="48.72689" lon="1.80109">
        <ele>219.4</ele>
        <time>2026-03-26T10:21:14.000Z</time>
      </trkpt>
      <trkpt lat="48.72689" lon="1.80111">
        <ele>219.4</ele>
        <time>2026-03-26T10:21:15.000Z</time>
      </trkpt>
      <trkpt lat="48.72688" lon="1.80112">
        <ele>219.8</ele>
        <time>2026-03-26T10:21:16.000Z</time>
      </trkpt>
      <trkpt lat="48.72688" lon="1.80114">
        <ele>220.3</ele>
        <time>2026-03-26T10:21:17.000Z</time>
      </trkpt>
      <trkpt lat="48.72687" lon="1.80115">
        <ele>220.5</ele>
        <time>2026-03-26T10:21:18.000Z</time>
      </trkpt>
      <trkpt lat="48.72687" lon="1.80117">
        <ele>220.7</ele>
        <time>2026-03-26T10:21:19.000Z</time>
      </trkpt>
      <trkpt lat="48.72687" lon="1.80118">
        <ele>220.5</ele>
        <time>2026-03-26T10:21:20.000Z</time>
      </trkpt>
      <trkpt lat="48.72687" lon="1.80119">
        <ele>220.5</ele>
        <time>2026-03-26T10:21:21.000Z</time>
      </trkpt>
      <trkpt lat="48.72687" lon="1.8012">
        <ele>220.5</ele>
        <time>2026-03-26T10:21:22.000Z</time>
      </trkpt>
      <trkpt lat="48.72687" lon="1.80122">
        <ele>220.3</ele>
        <time>2026-03-26T10:21:23.000Z</time>
      </trkpt>
      <trkpt lat="48.72687" lon="1.80123">
        <ele>220</ele>
        <time>2026-03-26T10:21:24.000Z</time>
      </trkpt>
      <trkpt lat="48.72688" lon="1.80125">
        <ele>219.9</ele>
        <time>2026-03-26T10:21:25.000Z</time>
      </trkpt>
      <trkpt lat="48.72689" lon="1.80126">
        <ele>219.8</ele>
        <time>2026-03-26T10:21:26.000Z</time>
      </trkpt>
      <trkpt lat="48.72689" lon="1.80126">
        <ele>218.8</ele>
        <time>2026-03-26T10:21:27.000Z</time>
      </trkpt>
      <trkpt lat="48.72691" lon="1.80127">
        <ele>219</ele>
        <time>2026-03-26T10:21:28.000Z</time>
      </trkpt>
      <trkpt lat="48.72692" lon="1.80127">
        <ele>219.3</ele>
        <time>2026-03-26T10:21:29.000Z</time>
      </trkpt>
      <trkpt lat="48.72693" lon="1.80127">
        <ele>219.2</ele>
        <time>2026-03-26T10:21:30.000Z</time>
      </trkpt>
      <trkpt lat="48.72694" lon="1.80128">
        <ele>218.9</ele>
        <time>2026-03-26T10:21:31.000Z</time>
      </trkpt>
      <trkpt lat="48.72695" lon="1.80129">
        <ele>219</ele>
        <time>2026-03-26T10:21:32.000Z</time>
      </trkpt>
      <trkpt lat="48.72696" lon="1.80129">
        <ele>218.8</ele>
        <time>2026-03-26T10:21:33.000Z</time>
      </trkpt>
      <trkpt lat="48.72697" lon="1.8013">
        <ele>218.9</ele>
        <time>2026-03-26T10:21:34.000Z</time>
      </trkpt>
      <trkpt lat="48.72698" lon="1.8013">
        <ele>218.9</ele>
        <time>2026-03-26T10:21:35.000Z</time>
      </trkpt>
      <trkpt lat="48.72699" lon="1.80131">
        <ele>219</ele>
        <time>2026-03-26T10:21:36.000Z</time>
      </trkpt>
      <trkpt lat="48.72701" lon="1.80131">
        <ele>219.2</ele>
        <time>2026-03-26T10:21:37.000Z</time>
      </trkpt>
      <trkpt lat="48.72702" lon="1.80131">
        <ele>219.4</ele>
        <time>2026-03-26T10:21:38.000Z</time>
      </trkpt>
      <trkpt lat="48.72704" lon="1.80131">
        <ele>219.3</ele>
        <time>2026-03-26T10:21:39.000Z</time>
      </trkpt>
      <trkpt lat="48.72705" lon="1.80132">
        <ele>219.3</ele>
        <time>2026-03-26T10:21:40.000Z</time>
      </trkpt>
      <trkpt lat="48.72706" lon="1.80132">
        <ele>218.9</ele>
        <time>2026-03-26T10:21:41.000Z</time>
      </trkpt>
      <trkpt lat="48.72707" lon="1.80133">
        <ele>218.7</ele>
        <time>2026-03-26T10:21:42.000Z</time>
      </trkpt>
      <trkpt lat="48.72708" lon="1.80134">
        <ele>218.6</ele>
        <time>2026-03-26T10:21:43.000Z</time>
      </trkpt>
      <trkpt lat="48.72709" lon="1.80134">
        <ele>218.5</ele>
        <time>2026-03-26T10:21:44.000Z</time>
      </trkpt>
      <trkpt lat="48.7271" lon="1.80135">
        <ele>218.5</ele>
        <time>2026-03-26T10:21:45.000Z</time>
      </trkpt>
      <trkpt lat="48.72711" lon="1.80136">
        <ele>218.8</ele>
        <time>2026-03-26T10:21:46.000Z</time>
      </trkpt>
      <trkpt lat="48.72713" lon="1.80136">
        <ele>218.9</ele>
        <time>2026-03-26T10:21:47.000Z</time>
      </trkpt>
      <trkpt lat="48.72714" lon="1.80137">
        <ele>219.2</ele>
        <time>2026-03-26T10:21:48.000Z</time>
      </trkpt>
      <trkpt lat="48.72715" lon="1.80137">
        <ele>219.4</ele>
        <time>2026-03-26T10:21:49.000Z</time>
      </trkpt>
      <trkpt lat="48.72717" lon="1.80138">
        <ele>219.2</ele>
        <time>2026-03-26T10:21:50.000Z</time>
      </trkpt>
      <trkpt lat="48.72718" lon="1.80139">
        <ele>219</ele>
        <time>2026-03-26T10:21:51.000Z</time>
      </trkpt>
      <trkpt lat="48.72719" lon="1.80139">
        <ele>219</ele>
        <time>2026-03-26T10:21:52.000Z</time>
      </trkpt>
      <trkpt lat="48.7272" lon="1.8014">
        <ele>218.9</ele>
        <time>2026-03-26T10:21:53.000Z</time>
      </trkpt>
      <trkpt lat="48.72721" lon="1.8014">
        <ele>218.9</ele>
        <time>2026-03-26T10:21:54.000Z</time>
      </trkpt>
      <trkpt lat="48.72722" lon="1.80141">
        <ele>219.2</ele>
        <time>2026-03-26T10:21:55.000Z</time>
      </trkpt>
      <trkpt lat="48.72723" lon="1.80142">
        <ele>219.3</ele>
        <time>2026-03-26T10:21:56.000Z</time>
      </trkpt>
      <trkpt lat="48.72725" lon="1.80143">
        <ele>219.3</ele>
        <time>2026-03-26T10:21:57.000Z</time>
      </trkpt>
      <trkpt lat="48.72726" lon="1.80144">
        <ele>219.4</ele>
        <time>2026-03-26T10:21:58.000Z</time>
      </trkpt>
      <trkpt lat="48.72727" lon="1.80144">
        <ele>219.2</ele>
        <time>2026-03-26T10:21:59.000Z</time>
      </trkpt>
      <trkpt lat="48.72728" lon="1.80145">
        <ele>219.4</ele>
        <time>2026-03-26T10:22:00.000Z</time>
      </trkpt>
      <trkpt lat="48.72729" lon="1.80146">
        <ele>219.3</ele>
        <time>2026-03-26T10:22:01.000Z</time>
      </trkpt>
      <trkpt lat="48.72731" lon="1.80146">
        <ele>218.9</ele>
        <time>2026-03-26T10:22:02.000Z</time>
      </trkpt>
      <trkpt lat="48.72732" lon="1.80147">
        <ele>218.9</ele>
        <time>2026-03-26T10:22:03.000Z</time>
      </trkpt>
      <trkpt lat="48.72733" lon="1.80148">
        <ele>218.7</ele>
        <time>2026-03-26T10:22:04.000Z</time>
      </trkpt>
      <trkpt lat="48.72734" lon="1.80149">
        <ele>218.3</ele>
        <time>2026-03-26T10:22:05.000Z</time>
      </trkpt>
      <trkpt lat="48.72735" lon="1.80149">
        <ele>218.1</ele>
        <time>2026-03-26T10:22:06.000Z</time>
      </trkpt>
      <trkpt lat="48.72736" lon="1.8015">
        <ele>218.1</ele>
        <time>2026-03-26T10:22:07.000Z</time>
      </trkpt>
      <trkpt lat="48.72738" lon="1.80151">
        <ele>217.7</ele>
        <time>2026-03-26T10:22:08.000Z</time>
      </trkpt>
      <trkpt lat="48.72739" lon="1.80152">
        <ele>217.9</ele>
        <time>2026-03-26T10:22:09.000Z</time>
      </trkpt>
      <trkpt lat="48.7274" lon="1.80153">
        <ele>218.3</ele>
        <time>2026-03-26T10:22:10.000Z</time>
      </trkpt>
      <trkpt lat="48.72741" lon="1.80154">
        <ele>218.3</ele>
        <time>2026-03-26T10:22:11.000Z</time>
      </trkpt>
      <trkpt lat="48.72742" lon="1.80154">
        <ele>218.5</ele>
        <time>2026-03-26T10:22:12.000Z</time>
      </trkpt>
      <trkpt lat="48.72743" lon="1.80155">
        <ele>218.5</ele>
        <time>2026-03-26T10:22:13.000Z</time>
      </trkpt>
      <trkpt lat="48.72744" lon="1.80156">
        <ele>218.4</ele>
        <time>2026-03-26T10:22:14.000Z</time>
      </trkpt>
      <trkpt lat="48.72745" lon="1.80157">
        <ele>218.4</ele>
        <time>2026-03-26T10:22:15.000Z</time>
      </trkpt>
      <trkpt lat="48.72746" lon="1.80158">
        <ele>218.1</ele>
        <time>2026-03-26T10:22:16.000Z</time>
      </trkpt>
      <trkpt lat="48.72748" lon="1.80159">
        <ele>218</ele>
        <time>2026-03-26T10:22:17.000Z</time>
      </trkpt>
      <trkpt lat="48.72749" lon="1.8016">
        <ele>218</ele>
        <time>2026-03-26T10:22:18.000Z</time>
      </trkpt>
      <trkpt lat="48.7275" lon="1.8016">
        <ele>218</ele>
        <time>2026-03-26T10:22:19.000Z</time>
      </trkpt>
      <trkpt lat="48.72751" lon="1.80161">
        <ele>217.9</ele>
        <time>2026-03-26T10:22:20.000Z</time>
      </trkpt>
      <trkpt lat="48.72752" lon="1.80162">
        <ele>217.9</ele>
        <time>2026-03-26T10:22:21.000Z</time>
      </trkpt>
      <trkpt lat="48.72753" lon="1.80163">
        <ele>217.7</ele>
        <time>2026-03-26T10:22:22.000Z</time>
      </trkpt>
      <trkpt lat="48.72755" lon="1.80164">
        <ele>217.4</ele>
        <time>2026-03-26T10:22:23.000Z</time>
      </trkpt>
      <trkpt lat="48.72756" lon="1.80165">
        <ele>217.3</ele>
        <time>2026-03-26T10:22:24.000Z</time>
      </trkpt>
      <trkpt lat="48.72757" lon="1.80166">
        <ele>217.2</ele>
        <time>2026-03-26T10:22:25.000Z</time>
      </trkpt>
      <trkpt lat="48.72758" lon="1.80166">
        <ele>217.3</ele>
        <time>2026-03-26T10:22:26.000Z</time>
      </trkpt>
      <trkpt lat="48.72759" lon="1.80167">
        <ele>217.4</ele>
        <time>2026-03-26T10:22:27.000Z</time>
      </trkpt>
      <trkpt lat="48.7276" lon="1.80168">
        <ele>217.5</ele>
        <time>2026-03-26T10:22:28.000Z</time>
      </trkpt>
      <trkpt lat="48.72762" lon="1.80168">
        <ele>217.8</ele>
        <time>2026-03-26T10:22:29.000Z</time>
      </trkpt>
      <trkpt lat="48.72763" lon="1.80169">
        <ele>217.8</ele>
        <time>2026-03-26T10:22:30.000Z</time>
      </trkpt>
      <trkpt lat="48.72764" lon="1.8017">
        <ele>217.8</ele>
        <time>2026-03-26T10:22:31.000Z</time>
      </trkpt>
      <trkpt lat="48.72766" lon="1.80171">
        <ele>217.8</ele>
        <time>2026-03-26T10:22:32.000Z</time>
      </trkpt>
      <trkpt lat="48.72767" lon="1.80172">
        <ele>217.7</ele>
        <time>2026-03-26T10:22:33.000Z</time>
      </trkpt>
      <trkpt lat="48.72768" lon="1.80173">
        <ele>217.6</ele>
        <time>2026-03-26T10:22:34.000Z</time>
      </trkpt>
      <trkpt lat="48.72769" lon="1.80173">
        <ele>217.5</ele>
        <time>2026-03-26T10:22:35.000Z</time>
      </trkpt>
      <trkpt lat="48.7277" lon="1.80175">
        <ele>217.6</ele>
        <time>2026-03-26T10:22:36.000Z</time>
      </trkpt>
      <trkpt lat="48.72772" lon="1.80175">
        <ele>217.9</ele>
        <time>2026-03-26T10:22:37.000Z</time>
      </trkpt>
      <trkpt lat="48.72773" lon="1.80176">
        <ele>218</ele>
        <time>2026-03-26T10:22:38.000Z</time>
      </trkpt>
      <trkpt lat="48.72774" lon="1.80177">
        <ele>218</ele>
        <time>2026-03-26T10:22:39.000Z</time>
      </trkpt>
      <trkpt lat="48.72775" lon="1.80178">
        <ele>218.2</ele>
        <time>2026-03-26T10:22:40.000Z</time>
      </trkpt>
      <trkpt lat="48.72777" lon="1.80179">
        <ele>218.3</ele>
        <time>2026-03-26T10:22:41.000Z</time>
      </trkpt>
      <trkpt lat="48.72778" lon="1.8018">
        <ele>218.3</ele>
        <time>2026-03-26T10:22:42.000Z</time>
      </trkpt>
      <trkpt lat="48.72779" lon="1.80181">
        <ele>218.2</ele>
        <time>2026-03-26T10:22:43.000Z</time>
      </trkpt>
      <trkpt lat="48.7278" lon="1.80182">
        <ele>218.4</ele>
        <time>2026-03-26T10:22:44.000Z</time>
      </trkpt>
      <trkpt lat="48.72782" lon="1.80183">
        <ele>218.2</ele>
        <time>2026-03-26T10:22:45.000Z</time>
      </trkpt>
      <trkpt lat="48.72783" lon="1.80184">
        <ele>218.1</ele>
        <time>2026-03-26T10:22:46.000Z</time>
      </trkpt>
      <trkpt lat="48.72784" lon="1.80185">
        <ele>217.4</ele>
        <time>2026-03-26T10:22:47.000Z</time>
      </trkpt>
      <trkpt lat="48.72785" lon="1.80185">
        <ele>217.2</ele>
        <time>2026-03-26T10:22:48.000Z</time>
      </trkpt>
      <trkpt lat="48.72786" lon="1.80186">
        <ele>216.9</ele>
        <time>2026-03-26T10:22:49.000Z</time>
      </trkpt>
      <trkpt lat="48.72787" lon="1.80187">
        <ele>216.9</ele>
        <time>2026-03-26T10:22:50.000Z</time>
      </trkpt>
      <trkpt lat="48.72788" lon="1.80188">
        <ele>217</ele>
        <time>2026-03-26T10:22:51.000Z</time>
      </trkpt>
      <trkpt lat="48.7279" lon="1.80188">
        <ele>217</ele>
        <time>2026-03-26T10:22:52.000Z</time>
      </trkpt>
      <trkpt lat="48.72791" lon="1.80189">
        <ele>217</ele>
        <time>2026-03-26T10:22:53.000Z</time>
      </trkpt>
      <trkpt lat="48.72792" lon="1.8019">
        <ele>217.1</ele>
        <time>2026-03-26T10:22:54.000Z</time>
      </trkpt>
      <trkpt lat="48.72793" lon="1.80191">
        <ele>217.2</ele>
        <time>2026-03-26T10:22:55.000Z</time>
      </trkpt>
      <trkpt lat="48.72794" lon="1.80191">
        <ele>217.4</ele>
        <time>2026-03-26T10:22:56.000Z</time>
      </trkpt>
      <trkpt lat="48.72796" lon="1.80192">
        <ele>217.4</ele>
        <time>2026-03-26T10:22:57.000Z</time>
      </trkpt>
      <trkpt lat="48.72797" lon="1.80193">
        <ele>217.3</ele>
        <time>2026-03-26T10:22:58.000Z</time>
      </trkpt>
      <trkpt lat="48.72798" lon="1.80194">
        <ele>217.2</ele>
        <time>2026-03-26T10:22:59.000Z</time>
      </trkpt>
      <trkpt lat="48.72799" lon="1.80195">
        <ele>217.3</ele>
        <time>2026-03-26T10:23:00.000Z</time>
      </trkpt>
      <trkpt lat="48.72801" lon="1.80195">
        <ele>217.3</ele>
        <time>2026-03-26T10:23:01.000Z</time>
      </trkpt>
      <trkpt lat="48.72802" lon="1.80196">
        <ele>217.3</ele>
        <time>2026-03-26T10:23:02.000Z</time>
      </trkpt>
      <trkpt lat="48.72803" lon="1.80197">
        <ele>217.3</ele>
        <time>2026-03-26T10:23:03.000Z</time>
      </trkpt>
      <trkpt lat="48.72804" lon="1.80198">
        <ele>217.2</ele>
        <time>2026-03-26T10:23:04.000Z</time>
      </trkpt>
      <trkpt lat="48.72805" lon="1.80199">
        <ele>217.2</ele>
        <time>2026-03-26T10:23:05.000Z</time>
      </trkpt>
      <trkpt lat="48.72807" lon="1.80199">
        <ele>217.4</ele>
        <time>2026-03-26T10:23:06.000Z</time>
      </trkpt>
      <trkpt lat="48.72808" lon="1.802">
        <ele>217.7</ele>
        <time>2026-03-26T10:23:07.000Z</time>
      </trkpt>
      <trkpt lat="48.72809" lon="1.80201">
        <ele>217.8</ele>
        <time>2026-03-26T10:23:08.000Z</time>
      </trkpt>
      <trkpt lat="48.7281" lon="1.80202">
        <ele>218.2</ele>
        <time>2026-03-26T10:23:09.000Z</time>
      </trkpt>
      <trkpt lat="48.72811" lon="1.80203">
        <ele>218.3</ele>
        <time>2026-03-26T10:23:10.000Z</time>
      </trkpt>
      <trkpt lat="48.72813" lon="1.80204">
        <ele>218.3</ele>
        <time>2026-03-26T10:23:11.000Z</time>
      </trkpt>
      <trkpt lat="48.72814" lon="1.80205">
        <ele>218.1</ele>
        <time>2026-03-26T10:23:12.000Z</time>
      </trkpt>
      <trkpt lat="48.72815" lon="1.80206">
        <ele>218</ele>
        <time>2026-03-26T10:23:13.000Z</time>
      </trkpt>
      <trkpt lat="48.72816" lon="1.80207">
        <ele>217.9</ele>
        <time>2026-03-26T10:23:14.000Z</time>
      </trkpt>
      <trkpt lat="48.72817" lon="1.80207">
        <ele>217.5</ele>
        <time>2026-03-26T10:23:15.000Z</time>
      </trkpt>
      <trkpt lat="48.72818" lon="1.80208">
        <ele>217.3</ele>
        <time>2026-03-26T10:23:16.000Z</time>
      </trkpt>
      <trkpt lat="48.72819" lon="1.80209">
        <ele>217.3</ele>
        <time>2026-03-26T10:23:17.000Z</time>
      </trkpt>
      <trkpt lat="48.72821" lon="1.8021">
        <ele>217.5</ele>
        <time>2026-03-26T10:23:18.000Z</time>
      </trkpt>
      <trkpt lat="48.72822" lon="1.8021">
        <ele>217.7</ele>
        <time>2026-03-26T10:23:19.000Z</time>
      </trkpt>
      <trkpt lat="48.72823" lon="1.80211">
        <ele>217.7</ele>
        <time>2026-03-26T10:23:20.000Z</time>
      </trkpt>
      <trkpt lat="48.72824" lon="1.80212">
        <ele>217.7</ele>
        <time>2026-03-26T10:23:21.000Z</time>
      </trkpt>
      <trkpt lat="48.72826" lon="1.80213">
        <ele>218</ele>
        <time>2026-03-26T10:23:22.000Z</time>
      </trkpt>
      <trkpt lat="48.72827" lon="1.80214">
        <ele>218</ele>
        <time>2026-03-26T10:23:23.000Z</time>
      </trkpt>
      <trkpt lat="48.72828" lon="1.80214">
        <ele>218.1</ele>
        <time>2026-03-26T10:23:24.000Z</time>
      </trkpt>
      <trkpt lat="48.72829" lon="1.80215">
        <ele>218.1</ele>
        <time>2026-03-26T10:23:25.000Z</time>
      </trkpt>
      <trkpt lat="48.7283" lon="1.80216">
        <ele>218.1</ele>
        <time>2026-03-26T10:23:26.000Z</time>
      </trkpt>
      <trkpt lat="48.72831" lon="1.80217">
        <ele>218.2</ele>
        <time>2026-03-26T10:23:27.000Z</time>
      </trkpt>
      <trkpt lat="48.72832" lon="1.80217">
        <ele>218.1</ele>
        <time>2026-03-26T10:23:28.000Z</time>
      </trkpt>
      <trkpt lat="48.72833" lon="1.80218">
        <ele>218.1</ele>
        <time>2026-03-26T10:23:29.000Z</time>
      </trkpt>
      <trkpt lat="48.72834" lon="1.80219">
        <ele>218.2</ele>
        <time>2026-03-26T10:23:30.000Z</time>
      </trkpt>
      <trkpt lat="48.72836" lon="1.8022">
        <ele>218.5</ele>
        <time>2026-03-26T10:23:31.000Z</time>
      </trkpt>
      <trkpt lat="48.72837" lon="1.80221">
        <ele>218.6</ele>
        <time>2026-03-26T10:23:32.000Z</time>
      </trkpt>
      <trkpt lat="48.72838" lon="1.80222">
        <ele>218.3</ele>
        <time>2026-03-26T10:23:33.000Z</time>
      </trkpt>
      <trkpt lat="48.72839" lon="1.80222">
        <ele>218.2</ele>
        <time>2026-03-26T10:23:34.000Z</time>
      </trkpt>
      <trkpt lat="48.7284" lon="1.80223">
        <ele>218.3</ele>
        <time>2026-03-26T10:23:35.000Z</time>
      </trkpt>
      <trkpt lat="48.72841" lon="1.80224">
        <ele>218.2</ele>
        <time>2026-03-26T10:23:36.000Z</time>
      </trkpt>
      <trkpt lat="48.72843" lon="1.80225">
        <ele>218.3</ele>
        <time>2026-03-26T10:23:37.000Z</time>
      </trkpt>
      <trkpt lat="48.72844" lon="1.80225">
        <ele>218.5</ele>
        <time>2026-03-26T10:23:38.000Z</time>
      </trkpt>
      <trkpt lat="48.72845" lon="1.80226">
        <ele>218.4</ele>
        <time>2026-03-26T10:23:39.000Z</time>
      </trkpt>
      <trkpt lat="48.72846" lon="1.80227">
        <ele>218.1</ele>
        <time>2026-03-26T10:23:40.000Z</time>
      </trkpt>
      <trkpt lat="48.72847" lon="1.80228">
        <ele>218.2</ele>
        <time>2026-03-26T10:23:41.000Z</time>
      </trkpt>
      <trkpt lat="48.72848" lon="1.80229">
        <ele>218.3</ele>
        <time>2026-03-26T10:23:42.000Z</time>
      </trkpt>
      <trkpt lat="48.72849" lon="1.80229">
        <ele>218.4</ele>
        <time>2026-03-26T10:23:43.000Z</time>
      </trkpt>
      <trkpt lat="48.72851" lon="1.8023">
        <ele>218.3</ele>
        <time>2026-03-26T10:23:44.000Z</time>
      </trkpt>
      <trkpt lat="48.72852" lon="1.80231">
        <ele>218.4</ele>
        <time>2026-03-26T10:23:45.000Z</time>
      </trkpt>
      <trkpt lat="48.72853" lon="1.80232">
        <ele>218.2</ele>
        <time>2026-03-26T10:23:46.000Z</time>
      </trkpt>
      <trkpt lat="48.72854" lon="1.80232">
        <ele>217.8</ele>
        <time>2026-03-26T10:23:47.000Z</time>
      </trkpt>
      <trkpt lat="48.72855" lon="1.80233">
        <ele>217.7</ele>
        <time>2026-03-26T10:23:48.000Z</time>
      </trkpt>
      <trkpt lat="48.72857" lon="1.80234">
        <ele>217.5</ele>
        <time>2026-03-26T10:23:49.000Z</time>
      </trkpt>
      <trkpt lat="48.72858" lon="1.80235">
        <ele>217.4</ele>
        <time>2026-03-26T10:23:50.000Z</time>
      </trkpt>
      <trkpt lat="48.72859" lon="1.80236">
        <ele>217.6</ele>
        <time>2026-03-26T10:23:51.000Z</time>
      </trkpt>
      <trkpt lat="48.7286" lon="1.80236">
        <ele>217.7</ele>
        <time>2026-03-26T10:23:52.000Z</time>
      </trkpt>
      <trkpt lat="48.72861" lon="1.80237">
        <ele>217.8</ele>
        <time>2026-03-26T10:23:53.000Z</time>
      </trkpt>
      <trkpt lat="48.72863" lon="1.80238">
        <ele>217.8</ele>
        <time>2026-03-26T10:23:54.000Z</time>
      </trkpt>
      <trkpt lat="48.72864" lon="1.80239">
        <ele>217.7</ele>
        <time>2026-03-26T10:23:55.000Z</time>
      </trkpt>
      <trkpt lat="48.72865" lon="1.80239">
        <ele>217.7</ele>
        <time>2026-03-26T10:23:56.000Z</time>
      </trkpt>
      <trkpt lat="48.72866" lon="1.8024">
        <ele>217.7</ele>
        <time>2026-03-26T10:23:57.000Z</time>
      </trkpt>
      <trkpt lat="48.72867" lon="1.80241">
        <ele>218</ele>
        <time>2026-03-26T10:23:58.000Z</time>
      </trkpt>
      <trkpt lat="48.72869" lon="1.80242">
        <ele>217.9</ele>
        <time>2026-03-26T10:23:59.000Z</time>
      </trkpt>
      <trkpt lat="48.7287" lon="1.80243">
        <ele>217.9</ele>
        <time>2026-03-26T10:24:00.000Z</time>
      </trkpt>
      <trkpt lat="48.72871" lon="1.80244">
        <ele>217.8</ele>
        <time>2026-03-26T10:24:01.000Z</time>
      </trkpt>
      <trkpt lat="48.72872" lon="1.80245">
        <ele>217.8</ele>
        <time>2026-03-26T10:24:02.000Z</time>
      </trkpt>
      <trkpt lat="48.72873" lon="1.80245">
        <ele>217.8</ele>
        <time>2026-03-26T10:24:03.000Z</time>
      </trkpt>
      <trkpt lat="48.72874" lon="1.80246">
        <ele>217.5</ele>
        <time>2026-03-26T10:24:04.000Z</time>
      </trkpt>
      <trkpt lat="48.72876" lon="1.80247">
        <ele>217.4</ele>
        <time>2026-03-26T10:24:05.000Z</time>
      </trkpt>
      <trkpt lat="48.72877" lon="1.80248">
        <ele>217.6</ele>
        <time>2026-03-26T10:24:06.000Z</time>
      </trkpt>
      <trkpt lat="48.72878" lon="1.80249">
        <ele>217.7</ele>
        <time>2026-03-26T10:24:07.000Z</time>
      </trkpt>
      <trkpt lat="48.72879" lon="1.80249">
        <ele>217.8</ele>
        <time>2026-03-26T10:24:08.000Z</time>
      </trkpt>
      <trkpt lat="48.7288" lon="1.8025">
        <ele>218.1</ele>
        <time>2026-03-26T10:24:09.000Z</time>
      </trkpt>
      <trkpt lat="48.72881" lon="1.80251">
        <ele>217.6</ele>
        <time>2026-03-26T10:24:10.000Z</time>
      </trkpt>
      <trkpt lat="48.72883" lon="1.80251">
        <ele>217.3</ele>
        <time>2026-03-26T10:24:11.000Z</time>
      </trkpt>
      <trkpt lat="48.72884" lon="1.80252">
        <ele>217.1</ele>
        <time>2026-03-26T10:24:12.000Z</time>
      </trkpt>
      <trkpt lat="48.72885" lon="1.80253">
        <ele>217</ele>
        <time>2026-03-26T10:24:13.000Z</time>
      </trkpt>
      <trkpt lat="48.72886" lon="1.80253">
        <ele>217</ele>
        <time>2026-03-26T10:24:14.000Z</time>
      </trkpt>
      <trkpt lat="48.72887" lon="1.80254">
        <ele>216.9</ele>
        <time>2026-03-26T10:24:15.000Z</time>
      </trkpt>
      <trkpt lat="48.72888" lon="1.80255">
        <ele>217</ele>
        <time>2026-03-26T10:24:16.000Z</time>
      </trkpt>
      <trkpt lat="48.7289" lon="1.80256">
        <ele>217.3</ele>
        <time>2026-03-26T10:24:17.000Z</time>
      </trkpt>
      <trkpt lat="48.72891" lon="1.80256">
        <ele>217.4</ele>
        <time>2026-03-26T10:24:18.000Z</time>
      </trkpt>
      <trkpt lat="48.72892" lon="1.80257">
        <ele>217.3</ele>
        <time>2026-03-26T10:24:19.000Z</time>
      </trkpt>
      <trkpt lat="48.72893" lon="1.80258">
        <ele>217.5</ele>
        <time>2026-03-26T10:24:20.000Z</time>
      </trkpt>
      <trkpt lat="48.72894" lon="1.80259">
        <ele>217.6</ele>
        <time>2026-03-26T10:24:21.000Z</time>
      </trkpt>
      <trkpt lat="48.72895" lon="1.8026">
        <ele>217.4</ele>
        <time>2026-03-26T10:24:22.000Z</time>
      </trkpt>
      <trkpt lat="48.72896" lon="1.8026">
        <ele>217.5</ele>
        <time>2026-03-26T10:24:23.000Z</time>
      </trkpt>
      <trkpt lat="48.72897" lon="1.80261">
        <ele>217.9</ele>
        <time>2026-03-26T10:24:24.000Z</time>
      </trkpt>
      <trkpt lat="48.72899" lon="1.80262">
        <ele>217.9</ele>
        <time>2026-03-26T10:24:25.000Z</time>
      </trkpt>
      <trkpt lat="48.729" lon="1.80262">
        <ele>218</ele>
        <time>2026-03-26T10:24:26.000Z</time>
      </trkpt>
      <trkpt lat="48.72901" lon="1.80263">
        <ele>218.2</ele>
        <time>2026-03-26T10:24:27.000Z</time>
      </trkpt>
      <trkpt lat="48.72902" lon="1.80264">
        <ele>218.1</ele>
        <time>2026-03-26T10:24:28.000Z</time>
      </trkpt>
      <trkpt lat="48.72903" lon="1.80265">
        <ele>218.3</ele>
        <time>2026-03-26T10:24:29.000Z</time>
      </trkpt>
      <trkpt lat="48.72905" lon="1.80266">
        <ele>218.6</ele>
        <time>2026-03-26T10:24:30.000Z</time>
      </trkpt>
      <trkpt lat="48.72906" lon="1.80266">
        <ele>218.5</ele>
        <time>2026-03-26T10:24:31.000Z</time>
      </trkpt>
      <trkpt lat="48.72907" lon="1.80267">
        <ele>218.2</ele>
        <time>2026-03-26T10:24:32.000Z</time>
      </trkpt>
      <trkpt lat="48.72908" lon="1.80268">
        <ele>217.5</ele>
        <time>2026-03-26T10:24:33.000Z</time>
      </trkpt>
      <trkpt lat="48.72909" lon="1.80269">
        <ele>216.9</ele>
        <time>2026-03-26T10:24:34.000Z</time>
      </trkpt>
      <trkpt lat="48.7291" lon="1.8027">
        <ele>217.1</ele>
        <time>2026-03-26T10:24:35.000Z</time>
      </trkpt>
      <trkpt lat="48.72911" lon="1.80271">
        <ele>216.8</ele>
        <time>2026-03-26T10:24:36.000Z</time>
      </trkpt>
      <trkpt lat="48.72912" lon="1.80271">
        <ele>217.2</ele>
        <time>2026-03-26T10:24:37.000Z</time>
      </trkpt>
      <trkpt lat="48.72913" lon="1.80272">
        <ele>217.4</ele>
        <time>2026-03-26T10:24:38.000Z</time>
      </trkpt>
      <trkpt lat="48.72914" lon="1.80273">
        <ele>218</ele>
        <time>2026-03-26T10:24:39.000Z</time>
      </trkpt>
      <trkpt lat="48.72916" lon="1.80274">
        <ele>217.9</ele>
        <time>2026-03-26T10:24:40.000Z</time>
      </trkpt>
      <trkpt lat="48.72917" lon="1.80274">
        <ele>217.8</ele>
        <time>2026-03-26T10:24:41.000Z</time>
      </trkpt>
      <trkpt lat="48.72918" lon="1.80275">
        <ele>217.8</ele>
        <time>2026-03-26T10:24:42.000Z</time>
      </trkpt>
      <trkpt lat="48.72919" lon="1.80276">
        <ele>217.9</ele>
        <time>2026-03-26T10:24:43.000Z</time>
      </trkpt>
      <trkpt lat="48.72921" lon="1.80277">
        <ele>218.3</ele>
        <time>2026-03-26T10:24:44.000Z</time>
      </trkpt>
      <trkpt lat="48.72922" lon="1.80278">
        <ele>218.2</ele>
        <time>2026-03-26T10:24:45.000Z</time>
      </trkpt>
      <trkpt lat="48.72923" lon="1.80278">
        <ele>217.4</ele>
        <time>2026-03-26T10:24:46.000Z</time>
      </trkpt>
      <trkpt lat="48.72924" lon="1.80279">
        <ele>217.1</ele>
        <time>2026-03-26T10:24:47.000Z</time>
      </trkpt>
      <trkpt lat="48.72925" lon="1.8028">
        <ele>217</ele>
        <time>2026-03-26T10:24:48.000Z</time>
      </trkpt>
      <trkpt lat="48.72927" lon="1.80281">
        <ele>216.7</ele>
        <time>2026-03-26T10:24:49.000Z</time>
      </trkpt>
      <trkpt lat="48.72928" lon="1.80282">
        <ele>216.5</ele>
        <time>2026-03-26T10:24:50.000Z</time>
      </trkpt>
      <trkpt lat="48.72929" lon="1.80283">
        <ele>216.7</ele>
        <time>2026-03-26T10:24:51.000Z</time>
      </trkpt>
      <trkpt lat="48.7293" lon="1.80284">
        <ele>216.6</ele>
        <time>2026-03-26T10:24:52.000Z</time>
      </trkpt>
      <trkpt lat="48.72931" lon="1.80285">
        <ele>216.7</ele>
        <time>2026-03-26T10:24:53.000Z</time>
      </trkpt>
      <trkpt lat="48.72932" lon="1.80286">
        <ele>216.5</ele>
        <time>2026-03-26T10:24:54.000Z</time>
      </trkpt>
      <trkpt lat="48.72933" lon="1.80287">
        <ele>216.8</ele>
        <time>2026-03-26T10:24:55.000Z</time>
      </trkpt>
      <trkpt lat="48.72935" lon="1.80287">
        <ele>216.6</ele>
        <time>2026-03-26T10:24:56.000Z</time>
      </trkpt>
      <trkpt lat="48.72936" lon="1.80288">
        <ele>216.7</ele>
        <time>2026-03-26T10:24:57.000Z</time>
      </trkpt>
      <trkpt lat="48.72937" lon="1.80289">
        <ele>216.7</ele>
        <time>2026-03-26T10:24:58.000Z</time>
      </trkpt>
      <trkpt lat="48.72939" lon="1.8029">
        <ele>216.4</ele>
        <time>2026-03-26T10:24:59.000Z</time>
      </trkpt>
      <trkpt lat="48.7294" lon="1.80291">
        <ele>216.7</ele>
        <time>2026-03-26T10:25:00.000Z</time>
      </trkpt>
      <trkpt lat="48.72941" lon="1.80292">
        <ele>216.7</ele>
        <time>2026-03-26T10:25:01.000Z</time>
      </trkpt>
      <trkpt lat="48.72943" lon="1.80292">
        <ele>216.7</ele>
        <time>2026-03-26T10:25:02.000Z</time>
      </trkpt>
      <trkpt lat="48.72944" lon="1.80293">
        <ele>216.7</ele>
        <time>2026-03-26T10:25:03.000Z</time>
      </trkpt>
      <trkpt lat="48.72945" lon="1.80294">
        <ele>217.2</ele>
        <time>2026-03-26T10:25:04.000Z</time>
      </trkpt>
      <trkpt lat="48.72947" lon="1.80294">
        <ele>217.6</ele>
        <time>2026-03-26T10:25:05.000Z</time>
      </trkpt>
      <trkpt lat="48.72948" lon="1.80295">
        <ele>217.5</ele>
        <time>2026-03-26T10:25:06.000Z</time>
      </trkpt>
      <trkpt lat="48.72949" lon="1.80296">
        <ele>217.8</ele>
        <time>2026-03-26T10:25:07.000Z</time>
      </trkpt>
      <trkpt lat="48.7295" lon="1.80296">
        <ele>218.8</ele>
        <time>2026-03-26T10:25:08.000Z</time>
      </trkpt>
      <trkpt lat="48.72952" lon="1.80295">
        <ele>218.5</ele>
        <time>2026-03-26T10:25:09.000Z</time>
      </trkpt>
      <trkpt lat="48.72953" lon="1.80296">
        <ele>218.2</ele>
        <time>2026-03-26T10:25:10.000Z</time>
      </trkpt>
      <trkpt lat="48.72954" lon="1.80295">
        <ele>217.5</ele>
        <time>2026-03-26T10:25:11.000Z</time>
      </trkpt>
      <trkpt lat="48.72955" lon="1.80294">
        <ele>217</ele>
        <time>2026-03-26T10:25:12.000Z</time>
      </trkpt>
      <trkpt lat="48.72956" lon="1.80293">
        <ele>217.1</ele>
        <time>2026-03-26T10:25:13.000Z</time>
      </trkpt>
      <trkpt lat="48.72957" lon="1.80292">
        <ele>217.4</ele>
        <time>2026-03-26T10:25:14.000Z</time>
      </trkpt>
      <trkpt lat="48.72958" lon="1.80291">
        <ele>217</ele>
        <time>2026-03-26T10:25:15.000Z</time>
      </trkpt>
      <trkpt lat="48.72959" lon="1.8029">
        <ele>217.4</ele>
        <time>2026-03-26T10:25:16.000Z</time>
      </trkpt>
      <trkpt lat="48.7296" lon="1.80289">
        <ele>217.5</ele>
        <time>2026-03-26T10:25:17.000Z</time>
      </trkpt>
      <trkpt lat="48.72961" lon="1.80288">
        <ele>217</ele>
        <time>2026-03-26T10:25:18.000Z</time>
      </trkpt>
      <trkpt lat="48.72962" lon="1.80286">
        <ele>216.5</ele>
        <time>2026-03-26T10:25:19.000Z</time>
      </trkpt>
      <trkpt lat="48.72962" lon="1.80284">
        <ele>217</ele>
        <time>2026-03-26T10:25:20.000Z</time>
      </trkpt>
      <trkpt lat="48.72963" lon="1.80283">
        <ele>216.7</ele>
        <time>2026-03-26T10:25:21.000Z</time>
      </trkpt>
      <trkpt lat="48.72964" lon="1.80281">
        <ele>216.4</ele>
        <time>2026-03-26T10:25:22.000Z</time>
      </trkpt>
      <trkpt lat="48.72965" lon="1.8028">
        <ele>216.7</ele>
        <time>2026-03-26T10:25:23.000Z</time>
      </trkpt>
      <trkpt lat="48.72966" lon="1.80278">
        <ele>216.6</ele>
        <time>2026-03-26T10:25:24.000Z</time>
      </trkpt>
      <trkpt lat="48.72967" lon="1.80276">
        <ele>216.9</ele>
        <time>2026-03-26T10:25:25.000Z</time>
      </trkpt>
      <trkpt lat="48.72967" lon="1.80275">
        <ele>217</ele>
        <time>2026-03-26T10:25:26.000Z</time>
      </trkpt>
      <trkpt lat="48.72968" lon="1.80273">
        <ele>217</ele>
        <time>2026-03-26T10:25:27.000Z</time>
      </trkpt>
      <trkpt lat="48.72969" lon="1.80271">
        <ele>216.8</ele>
        <time>2026-03-26T10:25:28.000Z</time>
      </trkpt>
      <trkpt lat="48.7297" lon="1.8027">
        <ele>216.4</ele>
        <time>2026-03-26T10:25:29.000Z</time>
      </trkpt>
      <trkpt lat="48.7297" lon="1.80268">
        <ele>216.8</ele>
        <time>2026-03-26T10:25:30.000Z</time>
      </trkpt>
      <trkpt lat="48.72971" lon="1.80267">
        <ele>216.8</ele>
        <time>2026-03-26T10:25:31.000Z</time>
      </trkpt>
      <trkpt lat="48.72972" lon="1.80265">
        <ele>216.7</ele>
        <time>2026-03-26T10:25:32.000Z</time>
      </trkpt>
      <trkpt lat="48.72972" lon="1.80264">
        <ele>216.3</ele>
        <time>2026-03-26T10:25:33.000Z</time>
      </trkpt>
      <trkpt lat="48.72973" lon="1.80262">
        <ele>216.3</ele>
        <time>2026-03-26T10:25:34.000Z</time>
      </trkpt>
      <trkpt lat="48.72974" lon="1.8026">
        <ele>216.1</ele>
        <time>2026-03-26T10:25:35.000Z</time>
      </trkpt>
      <trkpt lat="48.72974" lon="1.80258">
        <ele>216.1</ele>
        <time>2026-03-26T10:25:36.000Z</time>
      </trkpt>
      <trkpt lat="48.72975" lon="1.80257">
        <ele>216.3</ele>
        <time>2026-03-26T10:25:37.000Z</time>
      </trkpt>
      <trkpt lat="48.72975" lon="1.80255">
        <ele>216.9</ele>
        <time>2026-03-26T10:25:38.000Z</time>
      </trkpt>
      <trkpt lat="48.72976" lon="1.80253">
        <ele>216.9</ele>
        <time>2026-03-26T10:25:39.000Z</time>
      </trkpt>
      <trkpt lat="48.72977" lon="1.80252">
        <ele>216.9</ele>
        <time>2026-03-26T10:25:40.000Z</time>
      </trkpt>
      <trkpt lat="48.72977" lon="1.8025">
        <ele>216.7</ele>
        <time>2026-03-26T10:25:41.000Z</time>
      </trkpt>
      <trkpt lat="48.72978" lon="1.80248">
        <ele>216.5</ele>
        <time>2026-03-26T10:25:42.000Z</time>
      </trkpt>
      <trkpt lat="48.72979" lon="1.80247">
        <ele>216.4</ele>
        <time>2026-03-26T10:25:43.000Z</time>
      </trkpt>
      <trkpt lat="48.72979" lon="1.80245">
        <ele>216.4</ele>
        <time>2026-03-26T10:25:44.000Z</time>
      </trkpt>
      <trkpt lat="48.7298" lon="1.80244">
        <ele>216.3</ele>
        <time>2026-03-26T10:25:45.000Z</time>
      </trkpt>
      <trkpt lat="48.72981" lon="1.80242">
        <ele>216.4</ele>
        <time>2026-03-26T10:25:46.000Z</time>
      </trkpt>
      <trkpt lat="48.72981" lon="1.8024">
        <ele>216.5</ele>
        <time>2026-03-26T10:25:47.000Z</time>
      </trkpt>
      <trkpt lat="48.72982" lon="1.80239">
        <ele>216.5</ele>
        <time>2026-03-26T10:25:48.000Z</time>
      </trkpt>
      <trkpt lat="48.72982" lon="1.80237">
        <ele>216.8</ele>
        <time>2026-03-26T10:25:49.000Z</time>
      </trkpt>
      <trkpt lat="48.72983" lon="1.80236">
        <ele>216.8</ele>
        <time>2026-03-26T10:25:50.000Z</time>
      </trkpt>
      <trkpt lat="48.72984" lon="1.80234">
        <ele>216.9</ele>
        <time>2026-03-26T10:25:51.000Z</time>
      </trkpt>
      <trkpt lat="48.72984" lon="1.80233">
        <ele>216.8</ele>
        <time>2026-03-26T10:25:52.000Z</time>
      </trkpt>
      <trkpt lat="48.72985" lon="1.80232">
        <ele>217.5</ele>
        <time>2026-03-26T10:25:53.000Z</time>
      </trkpt>
      <trkpt lat="48.72986" lon="1.80231">
        <ele>217.6</ele>
        <time>2026-03-26T10:25:54.000Z</time>
      </trkpt>
      <trkpt lat="48.72987" lon="1.80231">
        <ele>218.2</ele>
        <time>2026-03-26T10:25:55.000Z</time>
      </trkpt>
      <trkpt lat="48.72988" lon="1.80231">
        <ele>219.1</ele>
        <time>2026-03-26T10:25:56.000Z</time>
      </trkpt>
      <trkpt lat="48.7299" lon="1.80231">
        <ele>218.8</ele>
        <time>2026-03-26T10:25:57.000Z</time>
      </trkpt>
      <trkpt lat="48.72991" lon="1.80231">
        <ele>218.9</ele>
        <time>2026-03-26T10:25:58.000Z</time>
      </trkpt>
      <trkpt lat="48.72992" lon="1.80232">
        <ele>219</ele>
        <time>2026-03-26T10:25:59.000Z</time>
      </trkpt>
      <trkpt lat="48.72993" lon="1.80232">
        <ele>219</ele>
        <time>2026-03-26T10:26:00.000Z</time>
      </trkpt>
      <trkpt lat="48.72994" lon="1.80233">
        <ele>219.6</ele>
        <time>2026-03-26T10:26:01.000Z</time>
      </trkpt>
      <trkpt lat="48.72995" lon="1.80234">
        <ele>219.6</ele>
        <time>2026-03-26T10:26:02.000Z</time>
      </trkpt>
      <trkpt lat="48.72996" lon="1.80235">
        <ele>219.5</ele>
        <time>2026-03-26T10:26:03.000Z</time>
      </trkpt>
      <trkpt lat="48.72998" lon="1.80236">
        <ele>219.7</ele>
        <time>2026-03-26T10:26:04.000Z</time>
      </trkpt>
      <trkpt lat="48.72999" lon="1.80237">
        <ele>219.2</ele>
        <time>2026-03-26T10:26:05.000Z</time>
      </trkpt>
      <trkpt lat="48.73" lon="1.80237">
        <ele>219.2</ele>
        <time>2026-03-26T10:26:06.000Z</time>
      </trkpt>
      <trkpt lat="48.73" lon="1.80238">
        <ele>219.1</ele>
        <time>2026-03-26T10:26:07.000Z</time>
      </trkpt>
      <trkpt lat="48.73001" lon="1.80238">
        <ele>219</ele>
        <time>2026-03-26T10:26:08.000Z</time>
      </trkpt>
      <trkpt lat="48.73002" lon="1.80238">
        <ele>218.8</ele>
        <time>2026-03-26T10:26:09.000Z</time>
      </trkpt>
      <trkpt lat="48.73003" lon="1.80239">
        <ele>219.5</ele>
        <time>2026-03-26T10:26:10.000Z</time>
      </trkpt>
      <trkpt lat="48.73004" lon="1.80239">
        <ele>219.5</ele>
        <time>2026-03-26T10:26:11.000Z</time>
      </trkpt>
      <trkpt lat="48.73004" lon="1.80239">
        <ele>218.4</ele>
        <time>2026-03-26T10:26:12.000Z</time>
      </trkpt>
      <trkpt lat="48.73004" lon="1.80238">
        <ele>217.8</ele>
        <time>2026-03-26T10:26:13.000Z</time>
      </trkpt>
      <trkpt lat="48.73005" lon="1.80237">
        <ele>216.8</ele>
        <time>2026-03-26T10:26:14.000Z</time>
      </trkpt>
      <trkpt lat="48.73005" lon="1.80236">
        <ele>216.6</ele>
        <time>2026-03-26T10:26:15.000Z</time>
      </trkpt>
      <trkpt lat="48.73006" lon="1.80235">
        <ele>216.7</ele>
        <time>2026-03-26T10:26:16.000Z</time>
      </trkpt>
      <trkpt lat="48.73006" lon="1.80234">
        <ele>216.8</ele>
        <time>2026-03-26T10:26:17.000Z</time>
      </trkpt>
      <trkpt lat="48.73007" lon="1.80233">
        <ele>216.3</ele>
        <time>2026-03-26T10:26:18.000Z</time>
      </trkpt>
      <trkpt lat="48.73008" lon="1.80232">
        <ele>216.6</ele>
        <time>2026-03-26T10:26:19.000Z</time>
      </trkpt>
      <trkpt lat="48.73008" lon="1.8023">
        <ele>216.7</ele>
        <time>2026-03-26T10:26:20.000Z</time>
      </trkpt>
      <trkpt lat="48.73008" lon="1.80229">
        <ele>217.1</ele>
        <time>2026-03-26T10:26:21.000Z</time>
      </trkpt>
      <trkpt lat="48.73008" lon="1.80228">
        <ele>216.8</ele>
        <time>2026-03-26T10:26:22.000Z</time>
      </trkpt>
      <trkpt lat="48.73008" lon="1.80227">
        <ele>216.9</ele>
        <time>2026-03-26T10:26:23.000Z</time>
      </trkpt>
      <trkpt lat="48.73008" lon="1.80226">
        <ele>217.2</ele>
        <time>2026-03-26T10:26:24.000Z</time>
      </trkpt>
      <trkpt lat="48.73009" lon="1.80225">
        <ele>216.9</ele>
        <time>2026-03-26T10:26:25.000Z</time>
      </trkpt>
      <trkpt lat="48.73009" lon="1.80224">
        <ele>217</ele>
        <time>2026-03-26T10:26:26.000Z</time>
      </trkpt>
      <trkpt lat="48.7301" lon="1.80222">
        <ele>216.6</ele>
        <time>2026-03-26T10:26:27.000Z</time>
      </trkpt>
      <trkpt lat="48.7301" lon="1.80221">
        <ele>216.7</ele>
        <time>2026-03-26T10:26:28.000Z</time>
      </trkpt>
      <trkpt lat="48.73011" lon="1.8022">
        <ele>216.6</ele>
        <time>2026-03-26T10:26:29.000Z</time>
      </trkpt>
      <trkpt lat="48.73011" lon="1.80219">
        <ele>217</ele>
        <time>2026-03-26T10:26:30.000Z</time>
      </trkpt>
      <trkpt lat="48.73012" lon="1.80218">
        <ele>217.5</ele>
        <time>2026-03-26T10:26:31.000Z</time>
      </trkpt>
      <trkpt lat="48.73012" lon="1.80216">
        <ele>216.4</ele>
        <time>2026-03-26T10:26:32.000Z</time>
      </trkpt>
      <trkpt lat="48.73013" lon="1.80215">
        <ele>215.7</ele>
        <time>2026-03-26T10:26:33.000Z</time>
      </trkpt>
      <trkpt lat="48.73013" lon="1.80213">
        <ele>214.9</ele>
        <time>2026-03-26T10:26:34.000Z</time>
      </trkpt>
      <trkpt lat="48.73013" lon="1.80211">
        <ele>215</ele>
        <time>2026-03-26T10:26:35.000Z</time>
      </trkpt>
      <trkpt lat="48.73013" lon="1.80209">
        <ele>214.7</ele>
        <time>2026-03-26T10:26:36.000Z</time>
      </trkpt>
      <trkpt lat="48.73013" lon="1.80208">
        <ele>214.2</ele>
        <time>2026-03-26T10:26:37.000Z</time>
      </trkpt>
      <trkpt lat="48.73013" lon="1.80206">
        <ele>214</ele>
        <time>2026-03-26T10:26:38.000Z</time>
      </trkpt>
      <trkpt lat="48.73013" lon="1.80205">
        <ele>214</ele>
        <time>2026-03-26T10:26:39.000Z</time>
      </trkpt>
      <trkpt lat="48.73012" lon="1.80203">
        <ele>213.9</ele>
        <time>2026-03-26T10:26:40.000Z</time>
      </trkpt>
      <trkpt lat="48.73012" lon="1.80202">
        <ele>213.8</ele>
        <time>2026-03-26T10:26:41.000Z</time>
      </trkpt>
      <trkpt lat="48.73012" lon="1.802">
        <ele>214.1</ele>
        <time>2026-03-26T10:26:42.000Z</time>
      </trkpt>
      <trkpt lat="48.73012" lon="1.80198">
        <ele>213.9</ele>
        <time>2026-03-26T10:26:43.000Z</time>
      </trkpt>
      <trkpt lat="48.73012" lon="1.80197">
        <ele>214.1</ele>
        <time>2026-03-26T10:26:44.000Z</time>
      </trkpt>
      <trkpt lat="48.73012" lon="1.80195">
        <ele>213.8</ele>
        <time>2026-03-26T10:26:45.000Z</time>
      </trkpt>
      <trkpt lat="48.73012" lon="1.80193">
        <ele>213.8</ele>
        <time>2026-03-26T10:26:46.000Z</time>
      </trkpt>
      <trkpt lat="48.73013" lon="1.80192">
        <ele>213.5</ele>
        <time>2026-03-26T10:26:47.000Z</time>
      </trkpt>
      <trkpt lat="48.73013" lon="1.8019">
        <ele>213.5</ele>
        <time>2026-03-26T10:26:48.000Z</time>
      </trkpt>
      <trkpt lat="48.73013" lon="1.80188">
        <ele>213.7</ele>
        <time>2026-03-26T10:26:49.000Z</time>
      </trkpt>
      <trkpt lat="48.73013" lon="1.80186">
        <ele>213.6</ele>
        <time>2026-03-26T10:26:50.000Z</time>
      </trkpt>
      <trkpt lat="48.73012" lon="1.80184">
        <ele>214.4</ele>
        <time>2026-03-26T10:26:51.000Z</time>
      </trkpt>
      <trkpt lat="48.73012" lon="1.80182">
        <ele>214.6</ele>
        <time>2026-03-26T10:26:52.000Z</time>
      </trkpt>
      <trkpt lat="48.73012" lon="1.8018">
        <ele>214.6</ele>
        <time>2026-03-26T10:26:53.000Z</time>
      </trkpt>
      <trkpt lat="48.73012" lon="1.80178">
        <ele>214.9</ele>
        <time>2026-03-26T10:26:54.000Z</time>
      </trkpt>
      <trkpt lat="48.73013" lon="1.80177">
        <ele>215.2</ele>
        <time>2026-03-26T10:26:55.000Z</time>
      </trkpt>
      <trkpt lat="48.73013" lon="1.80175">
        <ele>215</ele>
        <time>2026-03-26T10:26:56.000Z</time>
      </trkpt>
      <trkpt lat="48.73013" lon="1.80173">
        <ele>214.8</ele>
        <time>2026-03-26T10:26:57.000Z</time>
      </trkpt>
      <trkpt lat="48.73014" lon="1.80172">
        <ele>215</ele>
        <time>2026-03-26T10:26:58.000Z</time>
      </trkpt>
      <trkpt lat="48.73014" lon="1.8017">
        <ele>215</ele>
        <time>2026-03-26T10:26:59.000Z</time>
      </trkpt>
      <trkpt lat="48.73015" lon="1.80169">
        <ele>214.4</ele>
        <time>2026-03-26T10:27:00.000Z</time>
      </trkpt>
      <trkpt lat="48.73015" lon="1.80167">
        <ele>214.5</ele>
        <time>2026-03-26T10:27:01.000Z</time>
      </trkpt>
      <trkpt lat="48.73016" lon="1.80165">
        <ele>215.2</ele>
        <time>2026-03-26T10:27:02.000Z</time>
      </trkpt>
      <trkpt lat="48.73017" lon="1.80164">
        <ele>215.4</ele>
        <time>2026-03-26T10:27:03.000Z</time>
      </trkpt>
      <trkpt lat="48.73017" lon="1.80162">
        <ele>215.7</ele>
        <time>2026-03-26T10:27:04.000Z</time>
      </trkpt>
      <trkpt lat="48.73018" lon="1.8016">
        <ele>215.8</ele>
        <time>2026-03-26T10:27:05.000Z</time>
      </trkpt>
      <trkpt lat="48.73019" lon="1.80159">
        <ele>215.9</ele>
        <time>2026-03-26T10:27:06.000Z</time>
      </trkpt>
      <trkpt lat="48.7302" lon="1.80158">
        <ele>216.4</ele>
        <time>2026-03-26T10:27:07.000Z</time>
      </trkpt>
      <trkpt lat="48.73021" lon="1.80157">
        <ele>216.4</ele>
        <time>2026-03-26T10:27:08.000Z</time>
      </trkpt>
      <trkpt lat="48.73022" lon="1.80156">
        <ele>216.3</ele>
        <time>2026-03-26T10:27:09.000Z</time>
      </trkpt>
      <trkpt lat="48.73023" lon="1.80154">
        <ele>216.1</ele>
        <time>2026-03-26T10:27:10.000Z</time>
      </trkpt>
      <trkpt lat="48.73024" lon="1.80152">
        <ele>215.9</ele>
        <time>2026-03-26T10:27:11.000Z</time>
      </trkpt>
      <trkpt lat="48.73024" lon="1.80151">
        <ele>215.4</ele>
        <time>2026-03-26T10:27:12.000Z</time>
      </trkpt>
      <trkpt lat="48.73025" lon="1.80149">
        <ele>215.8</ele>
        <time>2026-03-26T10:27:13.000Z</time>
      </trkpt>
      <trkpt lat="48.73025" lon="1.80147">
        <ele>215.5</ele>
        <time>2026-03-26T10:27:14.000Z</time>
      </trkpt>
      <trkpt lat="48.73026" lon="1.80145">
        <ele>215.6</ele>
        <time>2026-03-26T10:27:15.000Z</time>
      </trkpt>
      <trkpt lat="48.73026" lon="1.80143">
        <ele>215.4</ele>
        <time>2026-03-26T10:27:16.000Z</time>
      </trkpt>
      <trkpt lat="48.73027" lon="1.80142">
        <ele>215</ele>
        <time>2026-03-26T10:27:17.000Z</time>
      </trkpt>
      <trkpt lat="48.73028" lon="1.80141">
        <ele>214.9</ele>
        <time>2026-03-26T10:27:18.000Z</time>
      </trkpt>
      <trkpt lat="48.73029" lon="1.80139">
        <ele>215.3</ele>
        <time>2026-03-26T10:27:19.000Z</time>
      </trkpt>
      <trkpt lat="48.7303" lon="1.80137">
        <ele>215.1</ele>
        <time>2026-03-26T10:27:20.000Z</time>
      </trkpt>
      <trkpt lat="48.73031" lon="1.80136">
        <ele>215</ele>
        <time>2026-03-26T10:27:21.000Z</time>
      </trkpt>
      <trkpt lat="48.73032" lon="1.80135">
        <ele>215.2</ele>
        <time>2026-03-26T10:27:22.000Z</time>
      </trkpt>
      <trkpt lat="48.73033" lon="1.80133">
        <ele>215.1</ele>
        <time>2026-03-26T10:27:23.000Z</time>
      </trkpt>
      <trkpt lat="48.73034" lon="1.80132">
        <ele>215.5</ele>
        <time>2026-03-26T10:27:24.000Z</time>
      </trkpt>
      <trkpt lat="48.73034" lon="1.8013">
        <ele>215.1</ele>
        <time>2026-03-26T10:27:25.000Z</time>
      </trkpt>
      <trkpt lat="48.73035" lon="1.80129">
        <ele>215.2</ele>
        <time>2026-03-26T10:27:26.000Z</time>
      </trkpt>
      <trkpt lat="48.73036" lon="1.80127">
        <ele>215.5</ele>
        <time>2026-03-26T10:27:27.000Z</time>
      </trkpt>
      <trkpt lat="48.73036" lon="1.80125">
        <ele>215.1</ele>
        <time>2026-03-26T10:27:28.000Z</time>
      </trkpt>
      <trkpt lat="48.73037" lon="1.80124">
        <ele>214.9</ele>
        <time>2026-03-26T10:27:29.000Z</time>
      </trkpt>
      <trkpt lat="48.73038" lon="1.80122">
        <ele>215.9</ele>
        <time>2026-03-26T10:27:30.000Z</time>
      </trkpt>
      <trkpt lat="48.73039" lon="1.8012">
        <ele>216.1</ele>
        <time>2026-03-26T10:27:31.000Z</time>
      </trkpt>
      <trkpt lat="48.7304" lon="1.80118">
        <ele>215.9</ele>
        <time>2026-03-26T10:27:32.000Z</time>
      </trkpt>
      <trkpt lat="48.73041" lon="1.80117">
        <ele>215.6</ele>
        <time>2026-03-26T10:27:33.000Z</time>
      </trkpt>
      <trkpt lat="48.73041" lon="1.80116">
        <ele>215.6</ele>
        <time>2026-03-26T10:27:34.000Z</time>
      </trkpt>
      <trkpt lat="48.73042" lon="1.80114">
        <ele>215.8</ele>
        <time>2026-03-26T10:27:35.000Z</time>
      </trkpt>
      <trkpt lat="48.73043" lon="1.80113">
        <ele>215.8</ele>
        <time>2026-03-26T10:27:36.000Z</time>
      </trkpt>
      <trkpt lat="48.73044" lon="1.80111">
        <ele>216.4</ele>
        <time>2026-03-26T10:27:37.000Z</time>
      </trkpt>
      <trkpt lat="48.73044" lon="1.80109">
        <ele>215.4</ele>
        <time>2026-03-26T10:27:38.000Z</time>
      </trkpt>
      <trkpt lat="48.73045" lon="1.80107">
        <ele>214.9</ele>
        <time>2026-03-26T10:27:39.000Z</time>
      </trkpt>
      <trkpt lat="48.73045" lon="1.80105">
        <ele>214.6</ele>
        <time>2026-03-26T10:27:40.000Z</time>
      </trkpt>
      <trkpt lat="48.73046" lon="1.80104">
        <ele>214.2</ele>
        <time>2026-03-26T10:27:41.000Z</time>
      </trkpt>
      <trkpt lat="48.73047" lon="1.80102">
        <ele>213.7</ele>
        <time>2026-03-26T10:27:42.000Z</time>
      </trkpt>
      <trkpt lat="48.73048" lon="1.80101">
        <ele>213.3</ele>
        <time>2026-03-26T10:27:43.000Z</time>
      </trkpt>
      <trkpt lat="48.73048" lon="1.80099">
        <ele>212.9</ele>
        <time>2026-03-26T10:27:44.000Z</time>
      </trkpt>
      <trkpt lat="48.73049" lon="1.80097">
        <ele>210.8</ele>
        <time>2026-03-26T10:27:45.000Z</time>
      </trkpt>
      <trkpt lat="48.7305" lon="1.80095">
        <ele>211.7</ele>
        <time>2026-03-26T10:27:46.000Z</time>
      </trkpt>
      <trkpt lat="48.7305" lon="1.80093">
        <ele>212</ele>
        <time>2026-03-26T10:27:47.000Z</time>
      </trkpt>
      <trkpt lat="48.73051" lon="1.80092">
        <ele>211.9</ele>
        <time>2026-03-26T10:27:48.000Z</time>
      </trkpt>
      <trkpt lat="48.73051" lon="1.80089">
        <ele>212.2</ele>
        <time>2026-03-26T10:27:49.000Z</time>
      </trkpt>
      <trkpt lat="48.73052" lon="1.80087">
        <ele>213</ele>
        <time>2026-03-26T10:27:50.000Z</time>
      </trkpt>
      <trkpt lat="48.73052" lon="1.80085">
        <ele>213.5</ele>
        <time>2026-03-26T10:27:51.000Z</time>
      </trkpt>
      <trkpt lat="48.73053" lon="1.80083">
        <ele>214.4</ele>
        <time>2026-03-26T10:27:52.000Z</time>
      </trkpt>
      <trkpt lat="48.73053" lon="1.80081">
        <ele>215.4</ele>
        <time>2026-03-26T10:27:53.000Z</time>
      </trkpt>
      <trkpt lat="48.73054" lon="1.80079">
        <ele>215.5</ele>
        <time>2026-03-26T10:27:54.000Z</time>
      </trkpt>
      <trkpt lat="48.73055" lon="1.80077">
        <ele>215.5</ele>
        <time>2026-03-26T10:27:55.000Z</time>
      </trkpt>
      <trkpt lat="48.73056" lon="1.80076">
        <ele>215.5</ele>
        <time>2026-03-26T10:27:56.000Z</time>
      </trkpt>
      <trkpt lat="48.73056" lon="1.80075">
        <ele>215.8</ele>
        <time>2026-03-26T10:27:57.000Z</time>
      </trkpt>
      <trkpt lat="48.73057" lon="1.80074">
        <ele>215.9</ele>
        <time>2026-03-26T10:27:58.000Z</time>
      </trkpt>
      <trkpt lat="48.73058" lon="1.80073">
        <ele>215.7</ele>
        <time>2026-03-26T10:27:59.000Z</time>
      </trkpt>
      <trkpt lat="48.7306" lon="1.80071">
        <ele>216</ele>
        <time>2026-03-26T10:28:00.000Z</time>
      </trkpt>
      <trkpt lat="48.73061" lon="1.8007">
        <ele>215.9</ele>
        <time>2026-03-26T10:28:01.000Z</time>
      </trkpt>
      <trkpt lat="48.73062" lon="1.80068">
        <ele>216.2</ele>
        <time>2026-03-26T10:28:02.000Z</time>
      </trkpt>
      <trkpt lat="48.73063" lon="1.80067">
        <ele>215.8</ele>
        <time>2026-03-26T10:28:03.000Z</time>
      </trkpt>
      <trkpt lat="48.73064" lon="1.80066">
        <ele>215.4</ele>
        <time>2026-03-26T10:28:04.000Z</time>
      </trkpt>
      <trkpt lat="48.73065" lon="1.80065">
        <ele>215.6</ele>
        <time>2026-03-26T10:28:05.000Z</time>
      </trkpt>
      <trkpt lat="48.73066" lon="1.80063">
        <ele>215.6</ele>
        <time>2026-03-26T10:28:06.000Z</time>
      </trkpt>
      <trkpt lat="48.73067" lon="1.80062">
        <ele>215.2</ele>
        <time>2026-03-26T10:28:07.000Z</time>
      </trkpt>
      <trkpt lat="48.73068" lon="1.80061">
        <ele>215.2</ele>
        <time>2026-03-26T10:28:08.000Z</time>
      </trkpt>
      <trkpt lat="48.73069" lon="1.80059">
        <ele>215.1</ele>
        <time>2026-03-26T10:28:09.000Z</time>
      </trkpt>
      <trkpt lat="48.7307" lon="1.80058">
        <ele>215</ele>
        <time>2026-03-26T10:28:10.000Z</time>
      </trkpt>
      <trkpt lat="48.73071" lon="1.80057">
        <ele>215.1</ele>
        <time>2026-03-26T10:28:11.000Z</time>
      </trkpt>
      <trkpt lat="48.73072" lon="1.80055">
        <ele>215.5</ele>
        <time>2026-03-26T10:28:12.000Z</time>
      </trkpt>
      <trkpt lat="48.73073" lon="1.80053">
        <ele>215.6</ele>
        <time>2026-03-26T10:28:13.000Z</time>
      </trkpt>
      <trkpt lat="48.73073" lon="1.80052">
        <ele>215</ele>
        <time>2026-03-26T10:28:14.000Z</time>
      </trkpt>
      <trkpt lat="48.73074" lon="1.8005">
        <ele>215.2</ele>
        <time>2026-03-26T10:28:15.000Z</time>
      </trkpt>
      <trkpt lat="48.73075" lon="1.80048">
        <ele>214.8</ele>
        <time>2026-03-26T10:28:16.000Z</time>
      </trkpt>
      <trkpt lat="48.73076" lon="1.80047">
        <ele>215.2</ele>
        <time>2026-03-26T10:28:17.000Z</time>
      </trkpt>
      <trkpt lat="48.73077" lon="1.80046">
        <ele>215.1</ele>
        <time>2026-03-26T10:28:18.000Z</time>
      </trkpt>
      <trkpt lat="48.73078" lon="1.80045">
        <ele>214.9</ele>
        <time>2026-03-26T10:28:19.000Z</time>
      </trkpt>
      <trkpt lat="48.73079" lon="1.80043">
        <ele>214.6</ele>
        <time>2026-03-26T10:28:20.000Z</time>
      </trkpt>
      <trkpt lat="48.7308" lon="1.80042">
        <ele>215.2</ele>
        <time>2026-03-26T10:28:21.000Z</time>
      </trkpt>
      <trkpt lat="48.73082" lon="1.80041">
        <ele>215.6</ele>
        <time>2026-03-26T10:28:22.000Z</time>
      </trkpt>
      <trkpt lat="48.73082" lon="1.80039">
        <ele>215.8</ele>
        <time>2026-03-26T10:28:23.000Z</time>
      </trkpt>
      <trkpt lat="48.73083" lon="1.80037">
        <ele>216.1</ele>
        <time>2026-03-26T10:28:24.000Z</time>
      </trkpt>
      <trkpt lat="48.73084" lon="1.80036">
        <ele>216.4</ele>
        <time>2026-03-26T10:28:25.000Z</time>
      </trkpt>
      <trkpt lat="48.73085" lon="1.80034">
        <ele>216.6</ele>
        <time>2026-03-26T10:28:26.000Z</time>
      </trkpt>
      <trkpt lat="48.73086" lon="1.80033">
        <ele>216.6</ele>
        <time>2026-03-26T10:28:27.000Z</time>
      </trkpt>
      <trkpt lat="48.73087" lon="1.80032">
        <ele>216.2</ele>
        <time>2026-03-26T10:28:28.000Z</time>
      </trkpt>
      <trkpt lat="48.73088" lon="1.80031">
        <ele>215.8</ele>
        <time>2026-03-26T10:28:29.000Z</time>
      </trkpt>
      <trkpt lat="48.73088" lon="1.80029">
        <ele>215.5</ele>
        <time>2026-03-26T10:28:30.000Z</time>
      </trkpt>
      <trkpt lat="48.73089" lon="1.80027">
        <ele>215.4</ele>
        <time>2026-03-26T10:28:31.000Z</time>
      </trkpt>
      <trkpt lat="48.7309" lon="1.80025">
        <ele>215.8</ele>
        <time>2026-03-26T10:28:32.000Z</time>
      </trkpt>
      <trkpt lat="48.7309" lon="1.80023">
        <ele>215.5</ele>
        <time>2026-03-26T10:28:33.000Z</time>
      </trkpt>
      <trkpt lat="48.73091" lon="1.80022">
        <ele>215.1</ele>
        <time>2026-03-26T10:28:34.000Z</time>
      </trkpt>
      <trkpt lat="48.73091" lon="1.8002">
        <ele>215.2</ele>
        <time>2026-03-26T10:28:35.000Z</time>
      </trkpt>
      <trkpt lat="48.73092" lon="1.80019">
        <ele>214.9</ele>
        <time>2026-03-26T10:28:36.000Z</time>
      </trkpt>
      <trkpt lat="48.73092" lon="1.80017">
        <ele>215.5</ele>
        <time>2026-03-26T10:28:37.000Z</time>
      </trkpt>
      <trkpt lat="48.73093" lon="1.80015">
        <ele>215.8</ele>
        <time>2026-03-26T10:28:38.000Z</time>
      </trkpt>
      <trkpt lat="48.73093" lon="1.80013">
        <ele>216</ele>
        <time>2026-03-26T10:28:39.000Z</time>
      </trkpt>
      <trkpt lat="48.73094" lon="1.80012">
        <ele>215.7</ele>
        <time>2026-03-26T10:28:40.000Z</time>
      </trkpt>
      <trkpt lat="48.73095" lon="1.8001">
        <ele>216.8</ele>
        <time>2026-03-26T10:28:41.000Z</time>
      </trkpt>
      <trkpt lat="48.73096" lon="1.80008">
        <ele>216.6</ele>
        <time>2026-03-26T10:28:42.000Z</time>
      </trkpt>
      <trkpt lat="48.73097" lon="1.80007">
        <ele>216.1</ele>
        <time>2026-03-26T10:28:43.000Z</time>
      </trkpt>
      <trkpt lat="48.73097" lon="1.80005">
        <ele>216.3</ele>
        <time>2026-03-26T10:28:44.000Z</time>
      </trkpt>
      <trkpt lat="48.73097" lon="1.80003">
        <ele>215.8</ele>
        <time>2026-03-26T10:28:45.000Z</time>
      </trkpt>
      <trkpt lat="48.73098" lon="1.80001">
        <ele>215.6</ele>
        <time>2026-03-26T10:28:46.000Z</time>
      </trkpt>
      <trkpt lat="48.73099" lon="1.79999">
        <ele>215.2</ele>
        <time>2026-03-26T10:28:47.000Z</time>
      </trkpt>
      <trkpt lat="48.73099" lon="1.79997">
        <ele>214.8</ele>
        <time>2026-03-26T10:28:48.000Z</time>
      </trkpt>
      <trkpt lat="48.73099" lon="1.79995">
        <ele>214.3</ele>
        <time>2026-03-26T10:28:49.000Z</time>
      </trkpt>
      <trkpt lat="48.731" lon="1.79993">
        <ele>214.3</ele>
        <time>2026-03-26T10:28:50.000Z</time>
      </trkpt>
      <trkpt lat="48.731" lon="1.79991">
        <ele>214.4</ele>
        <time>2026-03-26T10:28:51.000Z</time>
      </trkpt>
      <trkpt lat="48.731" lon="1.79989">
        <ele>214.3</ele>
        <time>2026-03-26T10:28:52.000Z</time>
      </trkpt>
      <trkpt lat="48.73101" lon="1.79987">
        <ele>215</ele>
        <time>2026-03-26T10:28:53.000Z</time>
      </trkpt>
      <trkpt lat="48.73101" lon="1.79985">
        <ele>215.5</ele>
        <time>2026-03-26T10:28:54.000Z</time>
      </trkpt>
      <trkpt lat="48.73102" lon="1.79983">
        <ele>216.2</ele>
        <time>2026-03-26T10:28:55.000Z</time>
      </trkpt>
      <trkpt lat="48.73102" lon="1.79981">
        <ele>216.4</ele>
        <time>2026-03-26T10:28:56.000Z</time>
      </trkpt>
      <trkpt lat="48.73103" lon="1.79979">
        <ele>216.7</ele>
        <time>2026-03-26T10:28:57.000Z</time>
      </trkpt>
      <trkpt lat="48.73103" lon="1.79977">
        <ele>216.6</ele>
        <time>2026-03-26T10:28:58.000Z</time>
      </trkpt>
      <trkpt lat="48.73104" lon="1.79975">
        <ele>216.7</ele>
        <time>2026-03-26T10:28:59.000Z</time>
      </trkpt>
      <trkpt lat="48.73105" lon="1.79974">
        <ele>216.3</ele>
        <time>2026-03-26T10:29:00.000Z</time>
      </trkpt>
      <trkpt lat="48.73106" lon="1.79972">
        <ele>216.1</ele>
        <time>2026-03-26T10:29:01.000Z</time>
      </trkpt>
      <trkpt lat="48.73106" lon="1.7997">
        <ele>216</ele>
        <time>2026-03-26T10:29:02.000Z</time>
      </trkpt>
      <trkpt lat="48.73106" lon="1.79968">
        <ele>216.9</ele>
        <time>2026-03-26T10:29:03.000Z</time>
      </trkpt>
      <trkpt lat="48.73107" lon="1.79966">
        <ele>217.1</ele>
        <time>2026-03-26T10:29:04.000Z</time>
      </trkpt>
      <trkpt lat="48.73107" lon="1.79964">
        <ele>217.4</ele>
        <time>2026-03-26T10:29:05.000Z</time>
      </trkpt>
      <trkpt lat="48.73108" lon="1.79962">
        <ele>217.4</ele>
        <time>2026-03-26T10:29:06.000Z</time>
      </trkpt>
      <trkpt lat="48.73109" lon="1.79961">
        <ele>217.7</ele>
        <time>2026-03-26T10:29:07.000Z</time>
      </trkpt>
      <trkpt lat="48.7311" lon="1.79959">
        <ele>217.8</ele>
        <time>2026-03-26T10:29:08.000Z</time>
      </trkpt>
      <trkpt lat="48.7311" lon="1.79957">
        <ele>217.9</ele>
        <time>2026-03-26T10:29:09.000Z</time>
      </trkpt>
      <trkpt lat="48.73111" lon="1.79955">
        <ele>217.6</ele>
        <time>2026-03-26T10:29:10.000Z</time>
      </trkpt>
      <trkpt lat="48.73112" lon="1.79953">
        <ele>217.9</ele>
        <time>2026-03-26T10:29:11.000Z</time>
      </trkpt>
      <trkpt lat="48.73113" lon="1.79952">
        <ele>217.8</ele>
        <time>2026-03-26T10:29:12.000Z</time>
      </trkpt>
      <trkpt lat="48.73114" lon="1.7995">
        <ele>217.6</ele>
        <time>2026-03-26T10:29:13.000Z</time>
      </trkpt>
      <trkpt lat="48.73115" lon="1.79948">
        <ele>218</ele>
        <time>2026-03-26T10:29:14.000Z</time>
      </trkpt>
      <trkpt lat="48.73116" lon="1.79946">
        <ele>218</ele>
        <time>2026-03-26T10:29:15.000Z</time>
      </trkpt>
      <trkpt lat="48.73117" lon="1.79945">
        <ele>217.7</ele>
        <time>2026-03-26T10:29:16.000Z</time>
      </trkpt>
      <trkpt lat="48.73118" lon="1.79943">
        <ele>217.8</ele>
        <time>2026-03-26T10:29:17.000Z</time>
      </trkpt>
      <trkpt lat="48.73119" lon="1.79941">
        <ele>217.4</ele>
        <time>2026-03-26T10:29:18.000Z</time>
      </trkpt>
      <trkpt lat="48.73119" lon="1.79939">
        <ele>217.3</ele>
        <time>2026-03-26T10:29:19.000Z</time>
      </trkpt>
      <trkpt lat="48.7312" lon="1.79938">
        <ele>217.2</ele>
        <time>2026-03-26T10:29:20.000Z</time>
      </trkpt>
      <trkpt lat="48.7312" lon="1.79936">
        <ele>217</ele>
        <time>2026-03-26T10:29:21.000Z</time>
      </trkpt>
      <trkpt lat="48.73121" lon="1.79935">
        <ele>216.3</ele>
        <time>2026-03-26T10:29:22.000Z</time>
      </trkpt>
      <trkpt lat="48.73122" lon="1.79933">
        <ele>216.1</ele>
        <time>2026-03-26T10:29:23.000Z</time>
      </trkpt>
      <trkpt lat="48.73123" lon="1.79932">
        <ele>216.2</ele>
        <time>2026-03-26T10:29:24.000Z</time>
      </trkpt>
      <trkpt lat="48.73124" lon="1.7993">
        <ele>215.9</ele>
        <time>2026-03-26T10:29:25.000Z</time>
      </trkpt>
      <trkpt lat="48.73125" lon="1.79929">
        <ele>215.9</ele>
        <time>2026-03-26T10:29:26.000Z</time>
      </trkpt>
      <trkpt lat="48.73126" lon="1.79927">
        <ele>215.9</ele>
        <time>2026-03-26T10:29:27.000Z</time>
      </trkpt>
      <trkpt lat="48.73127" lon="1.79926">
        <ele>216</ele>
        <time>2026-03-26T10:29:28.000Z</time>
      </trkpt>
      <trkpt lat="48.73128" lon="1.79924">
        <ele>215.3</ele>
        <time>2026-03-26T10:29:29.000Z</time>
      </trkpt>
      <trkpt lat="48.73129" lon="1.79923">
        <ele>214.8</ele>
        <time>2026-03-26T10:29:30.000Z</time>
      </trkpt>
      <trkpt lat="48.7313" lon="1.79922">
        <ele>214.4</ele>
        <time>2026-03-26T10:29:31.000Z</time>
      </trkpt>
      <trkpt lat="48.73131" lon="1.79921">
        <ele>214.1</ele>
        <time>2026-03-26T10:29:32.000Z</time>
      </trkpt>
      <trkpt lat="48.73132" lon="1.79919">
        <ele>214</ele>
        <time>2026-03-26T10:29:33.000Z</time>
      </trkpt>
      <trkpt lat="48.73133" lon="1.79917">
        <ele>214</ele>
        <time>2026-03-26T10:29:34.000Z</time>
      </trkpt>
      <trkpt lat="48.73134" lon="1.79915">
        <ele>215.2</ele>
        <time>2026-03-26T10:29:35.000Z</time>
      </trkpt>
      <trkpt lat="48.73134" lon="1.79913">
        <ele>215.4</ele>
        <time>2026-03-26T10:29:36.000Z</time>
      </trkpt>
      <trkpt lat="48.73135" lon="1.79911">
        <ele>215.7</ele>
        <time>2026-03-26T10:29:37.000Z</time>
      </trkpt>
      <trkpt lat="48.73135" lon="1.79909">
        <ele>215.9</ele>
        <time>2026-03-26T10:29:38.000Z</time>
      </trkpt>
      <trkpt lat="48.73136" lon="1.79906">
        <ele>216.5</ele>
        <time>2026-03-26T10:29:39.000Z</time>
      </trkpt>
      <trkpt lat="48.73136" lon="1.79904">
        <ele>216.4</ele>
        <time>2026-03-26T10:29:40.000Z</time>
      </trkpt>
      <trkpt lat="48.73137" lon="1.79902">
        <ele>216.6</ele>
        <time>2026-03-26T10:29:41.000Z</time>
      </trkpt>
      <trkpt lat="48.73137" lon="1.799">
        <ele>216.5</ele>
        <time>2026-03-26T10:29:42.000Z</time>
      </trkpt>
      <trkpt lat="48.73138" lon="1.79898">
        <ele>216.5</ele>
        <time>2026-03-26T10:29:43.000Z</time>
      </trkpt>
      <trkpt lat="48.73138" lon="1.79896">
        <ele>216.7</ele>
        <time>2026-03-26T10:29:44.000Z</time>
      </trkpt>
      <trkpt lat="48.73138" lon="1.79894">
        <ele>216.4</ele>
        <time>2026-03-26T10:29:45.000Z</time>
      </trkpt>
      <trkpt lat="48.73138" lon="1.79891">
        <ele>216.9</ele>
        <time>2026-03-26T10:29:46.000Z</time>
      </trkpt>
      <trkpt lat="48.73138" lon="1.79889">
        <ele>217.6</ele>
        <time>2026-03-26T10:29:47.000Z</time>
      </trkpt>
      <trkpt lat="48.73139" lon="1.79887">
        <ele>217.6</ele>
        <time>2026-03-26T10:29:48.000Z</time>
      </trkpt>
      <trkpt lat="48.73139" lon="1.79885">
        <ele>217.9</ele>
        <time>2026-03-26T10:29:49.000Z</time>
      </trkpt>
      <trkpt lat="48.73139" lon="1.79883">
        <ele>218.5</ele>
        <time>2026-03-26T10:29:50.000Z</time>
      </trkpt>
      <trkpt lat="48.7314" lon="1.79881">
        <ele>218.5</ele>
        <time>2026-03-26T10:29:51.000Z</time>
      </trkpt>
      <trkpt lat="48.73141" lon="1.79879">
        <ele>218.4</ele>
        <time>2026-03-26T10:29:52.000Z</time>
      </trkpt>
      <trkpt lat="48.73141" lon="1.79877">
        <ele>218.6</ele>
        <time>2026-03-26T10:29:53.000Z</time>
      </trkpt>
      <trkpt lat="48.73142" lon="1.79875">
        <ele>218.9</ele>
        <time>2026-03-26T10:29:54.000Z</time>
      </trkpt>
      <trkpt lat="48.73142" lon="1.79873">
        <ele>219</ele>
        <time>2026-03-26T10:29:55.000Z</time>
      </trkpt>
      <trkpt lat="48.73143" lon="1.79871">
        <ele>219.1</ele>
        <time>2026-03-26T10:29:56.000Z</time>
      </trkpt>
      <trkpt lat="48.73144" lon="1.7987">
        <ele>218.8</ele>
        <time>2026-03-26T10:29:57.000Z</time>
      </trkpt>
      <trkpt lat="48.73145" lon="1.79869">
        <ele>218.9</ele>
        <time>2026-03-26T10:29:58.000Z</time>
      </trkpt>
      <trkpt lat="48.73146" lon="1.79867">
        <ele>219.5</ele>
        <time>2026-03-26T10:29:59.000Z</time>
      </trkpt>
      <trkpt lat="48.73147" lon="1.79866">
        <ele>219.2</ele>
        <time>2026-03-26T10:30:00.000Z</time>
      </trkpt>
      <trkpt lat="48.73148" lon="1.79865">
        <ele>218.8</ele>
        <time>2026-03-26T10:30:01.000Z</time>
      </trkpt>
      <trkpt lat="48.7315" lon="1.79864">
        <ele>218.9</ele>
        <time>2026-03-26T10:30:02.000Z</time>
      </trkpt>
      <trkpt lat="48.73151" lon="1.79863">
        <ele>219.1</ele>
        <time>2026-03-26T10:30:03.000Z</time>
      </trkpt>
      <trkpt lat="48.73152" lon="1.79861">
        <ele>219</ele>
        <time>2026-03-26T10:30:04.000Z</time>
      </trkpt>
      <trkpt lat="48.73153" lon="1.7986">
        <ele>218.7</ele>
        <time>2026-03-26T10:30:05.000Z</time>
      </trkpt>
      <trkpt lat="48.73154" lon="1.79859">
        <ele>218.3</ele>
        <time>2026-03-26T10:30:06.000Z</time>
      </trkpt>
      <trkpt lat="48.73155" lon="1.79858">
        <ele>217.9</ele>
        <time>2026-03-26T10:30:07.000Z</time>
      </trkpt>
      <trkpt lat="48.73157" lon="1.79857">
        <ele>217.8</ele>
        <time>2026-03-26T10:30:08.000Z</time>
      </trkpt>
      <trkpt lat="48.73157" lon="1.79854">
        <ele>218.1</ele>
        <time>2026-03-26T10:30:09.000Z</time>
      </trkpt>
      <trkpt lat="48.73158" lon="1.79852">
        <ele>217.6</ele>
        <time>2026-03-26T10:30:10.000Z</time>
      </trkpt>
      <trkpt lat="48.73159" lon="1.79851">
        <ele>217.8</ele>
        <time>2026-03-26T10:30:11.000Z</time>
      </trkpt>
      <trkpt lat="48.7316" lon="1.79849">
        <ele>218</ele>
        <time>2026-03-26T10:30:12.000Z</time>
      </trkpt>
      <trkpt lat="48.73161" lon="1.79847">
        <ele>218</ele>
        <time>2026-03-26T10:30:13.000Z</time>
      </trkpt>
      <trkpt lat="48.73162" lon="1.79846">
        <ele>218</ele>
        <time>2026-03-26T10:30:14.000Z</time>
      </trkpt>
      <trkpt lat="48.73163" lon="1.79844">
        <ele>217.9</ele>
        <time>2026-03-26T10:30:15.000Z</time>
      </trkpt>
      <trkpt lat="48.73163" lon="1.79843">
        <ele>218.3</ele>
        <time>2026-03-26T10:30:16.000Z</time>
      </trkpt>
      <trkpt lat="48.73164" lon="1.79841">
        <ele>218.5</ele>
        <time>2026-03-26T10:30:17.000Z</time>
      </trkpt>
      <trkpt lat="48.73165" lon="1.79839">
        <ele>218.4</ele>
        <time>2026-03-26T10:30:18.000Z</time>
      </trkpt>
      <trkpt lat="48.73165" lon="1.79837">
        <ele>217.8</ele>
        <time>2026-03-26T10:30:19.000Z</time>
      </trkpt>
      <trkpt lat="48.73165" lon="1.79836">
        <ele>217.9</ele>
        <time>2026-03-26T10:30:20.000Z</time>
      </trkpt>
      <trkpt lat="48.73166" lon="1.79834">
        <ele>217.9</ele>
        <time>2026-03-26T10:30:21.000Z</time>
      </trkpt>
      <trkpt lat="48.73166" lon="1.79832">
        <ele>218</ele>
        <time>2026-03-26T10:30:22.000Z</time>
      </trkpt>
      <trkpt lat="48.73166" lon="1.7983">
        <ele>217.8</ele>
        <time>2026-03-26T10:30:23.000Z</time>
      </trkpt>
      <trkpt lat="48.73166" lon="1.79829">
        <ele>217.6</ele>
        <time>2026-03-26T10:30:24.000Z</time>
      </trkpt>
      <trkpt lat="48.73166" lon="1.79827">
        <ele>217.7</ele>
        <time>2026-03-26T10:30:25.000Z</time>
      </trkpt>
      <trkpt lat="48.73165" lon="1.79825">
        <ele>218.4</ele>
        <time>2026-03-26T10:30:26.000Z</time>
      </trkpt>
      <trkpt lat="48.73164" lon="1.79823">
        <ele>218.3</ele>
        <time>2026-03-26T10:30:27.000Z</time>
      </trkpt>
      <trkpt lat="48.73164" lon="1.79822">
        <ele>218.4</ele>
        <time>2026-03-26T10:30:28.000Z</time>
      </trkpt>
      <trkpt lat="48.73163" lon="1.7982">
        <ele>218.7</ele>
        <time>2026-03-26T10:30:29.000Z</time>
      </trkpt>
      <trkpt lat="48.73163" lon="1.79819">
        <ele>218.7</ele>
        <time>2026-03-26T10:30:30.000Z</time>
      </trkpt>
      <trkpt lat="48.73162" lon="1.79817">
        <ele>218.6</ele>
        <time>2026-03-26T10:30:31.000Z</time>
      </trkpt>
      <trkpt lat="48.73162" lon="1.79815">
        <ele>218.5</ele>
        <time>2026-03-26T10:30:32.000Z</time>
      </trkpt>
      <trkpt lat="48.73162" lon="1.79814">
        <ele>218.2</ele>
        <time>2026-03-26T10:30:33.000Z</time>
      </trkpt>
      <trkpt lat="48.73161" lon="1.79813">
        <ele>217.9</ele>
        <time>2026-03-26T10:30:34.000Z</time>
      </trkpt>
      <trkpt lat="48.73161" lon="1.79811">
        <ele>218</ele>
        <time>2026-03-26T10:30:35.000Z</time>
      </trkpt>
      <trkpt lat="48.7316" lon="1.7981">
        <ele>218</ele>
        <time>2026-03-26T10:30:36.000Z</time>
      </trkpt>
      <trkpt lat="48.7316" lon="1.79809">
        <ele>218</ele>
        <time>2026-03-26T10:30:37.000Z</time>
      </trkpt>
      <trkpt lat="48.7316" lon="1.79809">
        <ele>217.9</ele>
        <time>2026-03-26T10:30:38.000Z</time>
      </trkpt>
      <trkpt lat="48.7316" lon="1.79809">
        <ele>217.8</ele>
        <time>2026-03-26T10:30:39.000Z</time>
      </trkpt>
      <trkpt lat="48.7316" lon="1.79809">
        <ele>217.8</ele>
        <time>2026-03-26T10:30:40.000Z</time>
      </trkpt>
      <trkpt lat="48.7316" lon="1.79809">
        <ele>217.8</ele>
        <time>2026-03-26T10:30:41.000Z</time>
      </trkpt>
      <trkpt lat="48.7316" lon="1.79809">
        <ele>217.8</ele>
        <time>2026-03-26T10:30:42.000Z</time>
      </trkpt>
      <trkpt lat="48.7316" lon="1.79809">
        <ele>217.8</ele>
        <time>2026-03-26T10:30:43.000Z</time>
      </trkpt>
      <trkpt lat="48.7316" lon="1.79809">
        <ele>217.9</ele>
        <time>2026-03-26T10:30:44.000Z</time>
      </trkpt>
      <trkpt lat="48.73159" lon="1.79808">
        <ele>218.1</ele>
        <time>2026-03-26T10:30:45.000Z</time>
      </trkpt>
      <trkpt lat="48.73159" lon="1.79808">
        <ele>218</ele>
        <time>2026-03-26T10:30:46.000Z</time>
      </trkpt>
      <trkpt lat="48.7316" lon="1.79808">
        <ele>218</ele>
        <time>2026-03-26T10:30:47.000Z</time>
      </trkpt>
      <trkpt lat="48.7316" lon="1.79808">
        <ele>218</ele>
        <time>2026-03-26T10:30:48.000Z</time>
      </trkpt>
      <trkpt lat="48.73159" lon="1.79807">
        <ele>218.1</ele>
        <time>2026-03-26T10:30:49.000Z</time>
      </trkpt>
      <trkpt lat="48.73159" lon="1.79806">
        <ele>218.1</ele>
        <time>2026-03-26T10:30:50.000Z</time>
      </trkpt>
      <trkpt lat="48.73159" lon="1.79806">
        <ele>218.1</ele>
        <time>2026-03-26T10:30:51.000Z</time>
      </trkpt>
      <trkpt lat="48.73159" lon="1.79806">
        <ele>218.1</ele>
        <time>2026-03-26T10:30:52.000Z</time>
      </trkpt>
      <trkpt lat="48.73159" lon="1.79806">
        <ele>218.1</ele>
        <time>2026-03-26T10:30:53.000Z</time>
      </trkpt>
      <trkpt lat="48.73159" lon="1.79806">
        <ele>218.1</ele>
        <time>2026-03-26T10:30:54.000Z</time>
      </trkpt>
      <trkpt lat="48.73159" lon="1.79806">
        <ele>218.1</ele>
        <time>2026-03-26T10:30:55.000Z</time>
      </trkpt>
      <trkpt lat="48.73159" lon="1.79806">
        <ele>218.1</ele>
        <time>2026-03-26T10:30:56.000Z</time>
      </trkpt>
      <trkpt lat="48.73159" lon="1.79806">
        <ele>218.1</ele>
        <time>2026-03-26T10:30:57.000Z</time>
      </trkpt>
      <trkpt lat="48.73159" lon="1.79806">
        <ele>218.1</ele>
        <time>2026-03-26T10:30:58.000Z</time>
      </trkpt>
      <trkpt lat="48.73159" lon="1.79806">
        <ele>218.3</ele>
        <time>2026-03-26T10:30:59.000Z</time>
      </trkpt>
      <trkpt lat="48.73159" lon="1.79805">
        <ele>218.3</ele>
        <time>2026-03-26T10:31:00.000Z</time>
      </trkpt>
      <trkpt lat="48.73159" lon="1.79804">
        <ele>218.2</ele>
        <time>2026-03-26T10:31:01.000Z</time>
      </trkpt>
      <trkpt lat="48.73158" lon="1.79803">
        <ele>218.4</ele>
        <time>2026-03-26T10:31:02.000Z</time>
      </trkpt>
      <trkpt lat="48.73158" lon="1.79801">
        <ele>218.5</ele>
        <time>2026-03-26T10:31:03.000Z</time>
      </trkpt>
      <trkpt lat="48.73158" lon="1.798">
        <ele>218.2</ele>
        <time>2026-03-26T10:31:04.000Z</time>
      </trkpt>
      <trkpt lat="48.73158" lon="1.79799">
        <ele>218.2</ele>
        <time>2026-03-26T10:31:05.000Z</time>
      </trkpt>
      <trkpt lat="48.73157" lon="1.79797">
        <ele>218</ele>
        <time>2026-03-26T10:31:06.000Z</time>
      </trkpt>
      <trkpt lat="48.73157" lon="1.79796">
        <ele>218.1</ele>
        <time>2026-03-26T10:31:07.000Z</time>
      </trkpt>
      <trkpt lat="48.73156" lon="1.79795">
        <ele>218.5</ele>
        <time>2026-03-26T10:31:08.000Z</time>
      </trkpt>
      <trkpt lat="48.73156" lon="1.79793">
        <ele>218.8</ele>
        <time>2026-03-26T10:31:09.000Z</time>
      </trkpt>
      <trkpt lat="48.73156" lon="1.79793">
        <ele>218.7</ele>
        <time>2026-03-26T10:31:10.000Z</time>
      </trkpt>
      <trkpt lat="48.73156" lon="1.79793">
        <ele>218.7</ele>
        <time>2026-03-26T10:31:11.000Z</time>
      </trkpt>
      <trkpt lat="48.73157" lon="1.79794">
        <ele>218.9</ele>
        <time>2026-03-26T10:31:12.000Z</time>
      </trkpt>
      <trkpt lat="48.73157" lon="1.79794">
        <ele>218.9</ele>
        <time>2026-03-26T10:31:13.000Z</time>
      </trkpt>
      <trkpt lat="48.73157" lon="1.79794">
        <ele>218.9</ele>
        <time>2026-03-26T10:31:14.000Z</time>
      </trkpt>
      <trkpt lat="48.73157" lon="1.79794">
        <ele>218.9</ele>
        <time>2026-03-26T10:31:15.000Z</time>
      </trkpt>
      <trkpt lat="48.73157" lon="1.79794">
        <ele>218.9</ele>
        <time>2026-03-26T10:31:16.000Z</time>
      </trkpt>
      <trkpt lat="48.73157" lon="1.79794">
        <ele>218.9</ele>
        <time>2026-03-26T10:31:17.000Z</time>
      </trkpt>
      <trkpt lat="48.73157" lon="1.79794">
        <ele>218.9</ele>
        <time>2026-03-26T10:31:18.000Z</time>
      </trkpt>
      <trkpt lat="48.73157" lon="1.79794">
        <ele>218.9</ele>
        <time>2026-03-26T10:31:19.000Z</time>
      </trkpt>
      <trkpt lat="48.73157" lon="1.79794">
        <ele>218.7</ele>
        <time>2026-03-26T10:31:20.000Z</time>
      </trkpt>
      <trkpt lat="48.73157" lon="1.79795">
        <ele>218.2</ele>
        <time>2026-03-26T10:31:21.000Z</time>
      </trkpt>
      <trkpt lat="48.73157" lon="1.79795">
        <ele>218.3</ele>
        <time>2026-03-26T10:31:22.000Z</time>
      </trkpt>
      <trkpt lat="48.73157" lon="1.79796">
        <ele>218.3</ele>
        <time>2026-03-26T10:31:23.000Z</time>
      </trkpt>
      <trkpt lat="48.73157" lon="1.79796">
        <ele>217.9</ele>
        <time>2026-03-26T10:31:24.000Z</time>
      </trkpt>
      <trkpt lat="48.73157" lon="1.79796">
        <ele>217.9</ele>
        <time>2026-03-26T10:31:25.000Z</time>
      </trkpt>
      <trkpt lat="48.73158" lon="1.79797">
        <ele>217.5</ele>
        <time>2026-03-26T10:31:26.000Z</time>
      </trkpt>
      <trkpt lat="48.73158" lon="1.79797">
        <ele>217.5</ele>
        <time>2026-03-26T10:31:27.000Z</time>
      </trkpt>
      <trkpt lat="48.73158" lon="1.79797">
        <ele>217.5</ele>
        <time>2026-03-26T10:31:28.000Z</time>
      </trkpt>
      <trkpt lat="48.73158" lon="1.79797">
        <ele>217.4</ele>
        <time>2026-03-26T10:31:29.000Z</time>
      </trkpt>
      <trkpt lat="48.73158" lon="1.79797">
        <ele>217.4</ele>
        <time>2026-03-26T10:31:30.000Z</time>
      </trkpt>
      <trkpt lat="48.73158" lon="1.79797">
        <ele>217.4</ele>
        <time>2026-03-26T10:31:31.000Z</time>
      </trkpt>
      <trkpt lat="48.73158" lon="1.79797">
        <ele>217.4</ele>
        <time>2026-03-26T10:31:32.000Z</time>
      </trkpt>
      <trkpt lat="48.73158" lon="1.79797">
        <ele>217.4</ele>
        <time>2026-03-26T10:31:33.000Z</time>
      </trkpt>
      <trkpt lat="48.73158" lon="1.79797">
        <ele>217.4</ele>
        <time>2026-03-26T10:31:34.000Z</time>
      </trkpt>
      <trkpt lat="48.73158" lon="1.79797">
        <ele>217.4</ele>
        <time>2026-03-26T10:31:35.000Z</time>
      </trkpt>
      <trkpt lat="48.73158" lon="1.79797">
        <ele>217.4</ele>
        <time>2026-03-26T10:31:36.000Z</time>
      </trkpt>
      <trkpt lat="48.73158" lon="1.79797">
        <ele>217.4</ele>
        <time>2026-03-26T10:31:37.000Z</time>
      </trkpt>
    </trkseg>
  </trk>
</gpx>